<?xml version='1.0' encoding='UTF-8'?><gpx version="1.1" creator="JPX - https://github.com/jenetics/jpx" xmlns="http://www.topografix.com/GPX/1/1"><trk><trkseg><trkpt lat="44.82134" lon="9.5021833"><ele>194.0</ele><time>2026-04-30T07:21:40.671Z</time></trkpt><trkpt lat="44.82135" lon="9.50228"><ele>194.0</ele><time>2026-04-30T07:23:08.992Z</time></trkpt><trkpt lat="44.8212833" lon="9.5023317"><ele>194.0</ele><time>2026-04-30T07:23:26.99Z</time></trkpt><trkpt lat="44.8212067" lon="9.5024317"><ele>194.0</ele><time>2026-04-30T07:23:29.988Z</time></trkpt><trkpt lat="44.8211333" lon="9.502565"><ele>194.0</ele><time>2026-04-30T07:23:31.989Z</time></trkpt><trkpt lat="44.82108" lon="9.50265"><ele>194.0</ele><time>2026-04-30T07:23:32.99Z</time></trkpt><trkpt lat="44.8210167" lon="9.50273"><ele>194.0</ele><time>2026-04-30T07:23:33.99Z</time></trkpt><trkpt lat="44.820935" lon="9.5027983"><ele>194.0</ele><time>2026-04-30T07:23:34.991Z</time></trkpt><trkpt lat="44.8208417" lon="9.50287"><ele>194.0</ele><time>2026-04-30T07:23:35.99Z</time></trkpt><trkpt lat="44.8207417" lon="9.5029317"><ele>194.0</ele><time>2026-04-30T07:23:36.989Z</time></trkpt><trkpt lat="44.820645" lon="9.503"><ele>194.00000000000003</ele><time>2026-04-30T07:23:37.988Z</time></trkpt><trkpt lat="44.8205567" lon="9.50306"><ele>194.0</ele><time>2026-04-30T07:23:38.99Z</time></trkpt><trkpt lat="44.82048" lon="9.5031133"><ele>194.0</ele><time>2026-04-30T07:23:39.988Z</time></trkpt><trkpt lat="44.8204017" lon="9.5031667"><ele>194.0</ele><time>2026-04-30T07:23:40.988Z</time></trkpt><trkpt lat="44.82033" lon="9.5032183"><ele>194.00000000000003</ele><time>2026-04-30T07:23:41.99Z</time></trkpt><trkpt lat="44.8202633" lon="9.5032617"><ele>194.0</ele><time>2026-04-30T07:23:42.99Z</time></trkpt><trkpt lat="44.8201967" lon="9.5033067"><ele>195.42857142857142</ele><time>2026-04-30T07:23:43.988Z</time></trkpt><trkpt lat="44.8201367" lon="9.5033517"><ele>196.85714285714286</ele><time>2026-04-30T07:23:44.989Z</time></trkpt><trkpt lat="44.8200667" lon="9.50339"><ele>198.28571428571428</ele><time>2026-04-30T07:23:46.991Z</time></trkpt><trkpt lat="44.8200083" lon="9.5034583"><ele>199.71428571428572</ele><time>2026-04-30T07:23:49.989Z</time></trkpt><trkpt lat="44.8199433" lon="9.50347"><ele>201.14285714285717</ele><time>2026-04-30T07:23:53.99Z</time></trkpt><trkpt lat="44.819995" lon="9.5033583"><ele>202.57142857142858</ele><time>2026-04-30T07:36:19.988Z</time></trkpt><trkpt lat="44.8199867" lon="9.503265"><ele>204.0</ele><time>2026-04-30T07:36:21.988Z</time></trkpt><trkpt lat="44.8199417" lon="9.5031383"><ele>204.0</ele><time>2026-04-30T07:36:23.989Z</time></trkpt><trkpt lat="44.81991" lon="9.5030533"><ele>204.0</ele><time>2026-04-30T07:36:24.991Z</time></trkpt><trkpt lat="44.8198767" lon="9.5029667"><ele>204.0</ele><time>2026-04-30T07:36:25.986Z</time></trkpt><trkpt lat="44.819825" lon="9.5028233"><ele>204.0</ele><time>2026-04-30T07:36:27.987Z</time></trkpt><trkpt lat="44.8197767" lon="9.5027"><ele>204.0</ele><time>2026-04-30T07:36:29.989Z</time></trkpt><trkpt lat="44.8197233" lon="9.502575"><ele>204.16666666666666</ele><time>2026-04-30T07:36:31.986Z</time></trkpt><trkpt lat="44.8196733" lon="9.5024433"><ele>204.33333333333331</ele><time>2026-04-30T07:36:33.986Z</time></trkpt><trkpt lat="44.8196467" lon="9.5023417"><ele>204.5</ele><time>2026-04-30T07:36:35.988Z</time></trkpt><trkpt lat="44.8196233" lon="9.5022383"><ele>204.66666666666666</ele><time>2026-04-30T07:36:37.987Z</time></trkpt><trkpt lat="44.81962" lon="9.5021017"><ele>204.83333333333331</ele><time>2026-04-30T07:36:40.988Z</time></trkpt><trkpt lat="44.8196317" lon="9.5019833"><ele>205.0</ele><time>2026-04-30T07:36:42.986Z</time></trkpt><trkpt lat="44.81969" lon="9.5018517"><ele>205.25</ele><time>2026-04-30T07:36:44.987Z</time></trkpt><trkpt lat="44.8197417" lon="9.5017167"><ele>205.5</ele><time>2026-04-30T07:36:46.986Z</time></trkpt><trkpt lat="44.8197217" lon="9.5015567"><ele>205.75</ele><time>2026-04-30T07:36:48.99Z</time></trkpt><trkpt lat="44.819645" lon="9.5014183"><ele>206.0</ele><time>2026-04-30T07:36:50.987Z</time></trkpt><trkpt lat="44.8195667" lon="9.501285"><ele>207.16666666666669</ele><time>2026-04-30T07:36:52.99Z</time></trkpt><trkpt lat="44.8195267" lon="9.5012017"><ele>208.33333333333334</ele><time>2026-04-30T07:36:53.989Z</time></trkpt><trkpt lat="44.8194817" lon="9.5011167"><ele>209.5</ele><time>2026-04-30T07:36:54.986Z</time></trkpt><trkpt lat="44.8194383" lon="9.5010317"><ele>210.66666666666669</ele><time>2026-04-30T07:36:55.986Z</time></trkpt><trkpt lat="44.81938" lon="9.5009533"><ele>211.83333333333334</ele><time>2026-04-30T07:36:56.987Z</time></trkpt><trkpt lat="44.8193183" lon="9.5008883"><ele>213.0</ele><time>2026-04-30T07:36:57.986Z</time></trkpt><trkpt lat="44.819265" lon="9.50082"><ele>214.0</ele><time>2026-04-30T07:36:58.986Z</time></trkpt><trkpt lat="44.8192283" lon="9.5007417"><ele>215.0</ele><time>2026-04-30T07:36:59.986Z</time></trkpt><trkpt lat="44.8192567" lon="9.5005633"><ele>216.0</ele><time>2026-04-30T07:37:01.987Z</time></trkpt><trkpt lat="44.8192967" lon="9.5004717"><ele>217.0</ele><time>2026-04-30T07:37:02.987Z</time></trkpt><trkpt lat="44.819335" lon="9.50038"><ele>218.0</ele><time>2026-04-30T07:37:03.986Z</time></trkpt><trkpt lat="44.8193667" lon="9.5002867"><ele>219.0</ele><time>2026-04-30T07:37:04.987Z</time></trkpt><trkpt lat="44.81939" lon="9.50018"><ele>219.0</ele><time>2026-04-30T07:37:05.987Z</time></trkpt><trkpt lat="44.8193867" lon="9.50004"><ele>218.99999999999997</ele><time>2026-04-30T07:37:07.987Z</time></trkpt><trkpt lat="44.8192917" lon="9.5000217"><ele>218.99999999999997</ele><time>2026-04-30T07:37:09.988Z</time></trkpt><trkpt lat="44.819205" lon="9.500035"><ele>219.0</ele><time>2026-04-30T07:37:10.99Z</time></trkpt><trkpt lat="44.8191217" lon="9.5000433"><ele>219.0</ele><time>2026-04-30T07:37:11.986Z</time></trkpt><trkpt lat="44.8190333" lon="9.500025"><ele>223.66666666666666</ele><time>2026-04-30T07:37:12.986Z</time></trkpt><trkpt lat="44.8189517" lon="9.4999917"><ele>228.33333333333331</ele><time>2026-04-30T07:37:13.986Z</time></trkpt><trkpt lat="44.8188683" lon="9.4999567"><ele>233.0</ele><time>2026-04-30T07:37:14.988Z</time></trkpt><trkpt lat="44.8187833" lon="9.4999267"><ele>237.66666666666666</ele><time>2026-04-30T07:37:15.988Z</time></trkpt><trkpt lat="44.8186967" lon="9.4999033"><ele>242.33333333333331</ele><time>2026-04-30T07:37:16.987Z</time></trkpt><trkpt lat="44.8186083" lon="9.4998867"><ele>247.0</ele><time>2026-04-30T07:37:17.988Z</time></trkpt><trkpt lat="44.8185167" lon="9.49988"><ele>250.2</ele><time>2026-04-30T07:37:18.99Z</time></trkpt><trkpt lat="44.8184267" lon="9.4998867"><ele>253.39999999999998</ele><time>2026-04-30T07:37:19.989Z</time></trkpt><trkpt lat="44.8183367" lon="9.4998967"><ele>256.6</ele><time>2026-04-30T07:37:20.99Z</time></trkpt><trkpt lat="44.8182483" lon="9.4999017"><ele>259.8</ele><time>2026-04-30T07:37:21.988Z</time></trkpt><trkpt lat="44.8181567" lon="9.499905"><ele>263.0</ele><time>2026-04-30T07:37:22.989Z</time></trkpt><trkpt lat="44.8180633" lon="9.4999033"><ele>263.0</ele><time>2026-04-30T07:37:23.99Z</time></trkpt><trkpt lat="44.8179667" lon="9.4998867"><ele>263.0</ele><time>2026-04-30T07:37:24.988Z</time></trkpt><trkpt lat="44.81786" lon="9.4998533"><ele>263.0</ele><time>2026-04-30T07:37:25.991Z</time></trkpt><trkpt lat="44.8177517" lon="9.4998117"><ele>263.0</ele><time>2026-04-30T07:37:26.987Z</time></trkpt><trkpt lat="44.8176433" lon="9.4997717"><ele>263.0</ele><time>2026-04-30T07:37:27.987Z</time></trkpt><trkpt lat="44.8175467" lon="9.4997417"><ele>265.0</ele><time>2026-04-30T07:37:28.986Z</time></trkpt><trkpt lat="44.8174617" lon="9.4997183"><ele>267.0</ele><time>2026-04-30T07:37:29.988Z</time></trkpt><trkpt lat="44.817375" lon="9.4996967"><ele>269.0</ele><time>2026-04-30T07:37:30.986Z</time></trkpt><trkpt lat="44.817285" lon="9.49968"><ele>271.0</ele><time>2026-04-30T07:37:31.989Z</time></trkpt><trkpt lat="44.8171967" lon="9.4996867"><ele>273.0</ele><time>2026-04-30T07:37:32.989Z</time></trkpt><trkpt lat="44.817115" lon="9.4997183"><ele>275.0</ele><time>2026-04-30T07:37:33.988Z</time></trkpt><trkpt lat="44.8170367" lon="9.4997733"><ele>275.0</ele><time>2026-04-30T07:37:34.999Z</time></trkpt><trkpt lat="44.81696" lon="9.499835"><ele>275.0</ele><time>2026-04-30T07:37:35.989Z</time></trkpt><trkpt lat="44.8168817" lon="9.4998933"><ele>275.0</ele><time>2026-04-30T07:37:36.988Z</time></trkpt><trkpt lat="44.8168017" lon="9.4999517"><ele>275.0</ele><time>2026-04-30T07:37:37.989Z</time></trkpt><trkpt lat="44.8167283" lon="9.5000217"><ele>275.0</ele><time>2026-04-30T07:37:38.988Z</time></trkpt><trkpt lat="44.8166617" lon="9.50009"><ele>275.0</ele><time>2026-04-30T07:37:39.989Z</time></trkpt><trkpt lat="44.816585" lon="9.50013"><ele>278.33333333333337</ele><time>2026-04-30T07:37:40.989Z</time></trkpt><trkpt lat="44.8165083" lon="9.5001367"><ele>281.6666666666667</ele><time>2026-04-30T07:37:41.988Z</time></trkpt><trkpt lat="44.8164317" lon="9.5000817"><ele>285.0</ele><time>2026-04-30T07:37:42.988Z</time></trkpt><trkpt lat="44.81636" lon="9.5000083"><ele>288.3333333333333</ele><time>2026-04-30T07:37:43.986Z</time></trkpt><trkpt lat="44.8162867" lon="9.499935"><ele>291.66666666666663</ele><time>2026-04-30T07:37:44.988Z</time></trkpt><trkpt lat="44.8162067" lon="9.49988"><ele>295.0</ele><time>2026-04-30T07:37:45.987Z</time></trkpt><trkpt lat="44.8161217" lon="9.49985"><ele>295.0</ele><time>2026-04-30T07:37:46.986Z</time></trkpt><trkpt lat="44.8160317" lon="9.4998217"><ele>295.0</ele><time>2026-04-30T07:37:47.986Z</time></trkpt><trkpt lat="44.8159467" lon="9.4997733"><ele>295.0</ele><time>2026-04-30T07:37:48.987Z</time></trkpt><trkpt lat="44.8158767" lon="9.499705"><ele>295.0</ele><time>2026-04-30T07:37:49.988Z</time></trkpt><trkpt lat="44.8158233" lon="9.499615"><ele>295.0</ele><time>2026-04-30T07:37:50.989Z</time></trkpt><trkpt lat="44.8157783" lon="9.499525"><ele>295.0</ele><time>2026-04-30T07:37:51.987Z</time></trkpt><trkpt lat="44.8157333" lon="9.49946"><ele>297.0</ele><time>2026-04-30T07:37:52.986Z</time></trkpt><trkpt lat="44.8156783" lon="9.4994083"><ele>299.0</ele><time>2026-04-30T07:37:53.986Z</time></trkpt><trkpt lat="44.8156217" lon="9.4993367"><ele>301.0</ele><time>2026-04-30T07:37:54.986Z</time></trkpt><trkpt lat="44.81556" lon="9.4992417"><ele>303.0</ele><time>2026-04-30T07:37:55.987Z</time></trkpt><trkpt lat="44.815495" lon="9.499135"><ele>305.0</ele><time>2026-04-30T07:37:56.988Z</time></trkpt><trkpt lat="44.815425" lon="9.4990283"><ele>307.0</ele><time>2026-04-30T07:37:57.987Z</time></trkpt><trkpt lat="44.8153433" lon="9.498945"><ele>307.0</ele><time>2026-04-30T07:37:58.987Z</time></trkpt><trkpt lat="44.8152517" lon="9.49889"><ele>307.0</ele><time>2026-04-30T07:37:59.988Z</time></trkpt><trkpt lat="44.8151517" lon="9.4988583"><ele>307.0</ele><time>2026-04-30T07:38:00.988Z</time></trkpt><trkpt lat="44.8150517" lon="9.4988333"><ele>307.0</ele><time>2026-04-30T07:38:01.989Z</time></trkpt><trkpt lat="44.81495" lon="9.4988083"><ele>307.0</ele><time>2026-04-30T07:38:02.987Z</time></trkpt><trkpt lat="44.8148483" lon="9.4987867"><ele>308.8</ele><time>2026-04-30T07:38:03.986Z</time></trkpt><trkpt lat="44.8147417" lon="9.4987667"><ele>310.6</ele><time>2026-04-30T07:38:04.987Z</time></trkpt><trkpt lat="44.8146333" lon="9.49876"><ele>312.40000000000003</ele><time>2026-04-30T07:38:05.986Z</time></trkpt><trkpt lat="44.8145233" lon="9.498755"><ele>314.2</ele><time>2026-04-30T07:38:06.989Z</time></trkpt><trkpt lat="44.8144067" lon="9.498745"><ele>316.0</ele><time>2026-04-30T07:38:07.988Z</time></trkpt><trkpt lat="44.81428" lon="9.4987317"><ele>319.25</ele><time>2026-04-30T07:38:08.987Z</time></trkpt><trkpt lat="44.8141517" lon="9.49872"><ele>322.5</ele><time>2026-04-30T07:38:09.987Z</time></trkpt><trkpt lat="44.8140183" lon="9.49871"><ele>325.75</ele><time>2026-04-30T07:38:10.987Z</time></trkpt><trkpt lat="44.8138833" lon="9.4987083"><ele>329.0</ele><time>2026-04-30T07:38:11.989Z</time></trkpt><trkpt lat="44.8137517" lon="9.4987183"><ele>329.0</ele><time>2026-04-30T07:38:12.986Z</time></trkpt><trkpt lat="44.8136183" lon="9.4987317"><ele>329.0</ele><time>2026-04-30T07:38:13.988Z</time></trkpt><trkpt lat="44.8134917" lon="9.4987467"><ele>329.0</ele><time>2026-04-30T07:38:14.987Z</time></trkpt><trkpt lat="44.813375" lon="9.4987517"><ele>329.0</ele><time>2026-04-30T07:38:15.989Z</time></trkpt><trkpt lat="44.8132683" lon="9.49876"><ele>330.6</ele><time>2026-04-30T07:38:16.987Z</time></trkpt><trkpt lat="44.8131717" lon="9.498775"><ele>332.2</ele><time>2026-04-30T07:38:17.988Z</time></trkpt><trkpt lat="44.8130817" lon="9.4988083"><ele>333.8</ele><time>2026-04-30T07:38:18.986Z</time></trkpt><trkpt lat="44.8129917" lon="9.49885"><ele>335.40000000000003</ele><time>2026-04-30T07:38:19.988Z</time></trkpt><trkpt lat="44.8129017" lon="9.498895"><ele>337.0</ele><time>2026-04-30T07:38:20.987Z</time></trkpt><trkpt lat="44.8128217" lon="9.4989417"><ele>337.0</ele><time>2026-04-30T07:38:21.987Z</time></trkpt><trkpt lat="44.81275" lon="9.4989883"><ele>337.0</ele><time>2026-04-30T07:38:22.987Z</time></trkpt><trkpt lat="44.81268" lon="9.4990183"><ele>337.0</ele><time>2026-04-30T07:38:23.988Z</time></trkpt><trkpt lat="44.8126117" lon="9.49903"><ele>337.0</ele><time>2026-04-30T07:38:24.988Z</time></trkpt><trkpt lat="44.8125483" lon="9.49903"><ele>337.0</ele><time>2026-04-30T07:38:25.987Z</time></trkpt><trkpt lat="44.8124833" lon="9.499025"><ele>337.0</ele><time>2026-04-30T07:38:26.988Z</time></trkpt><trkpt lat="44.812355" lon="9.4990067"><ele>339.5</ele><time>2026-04-30T07:38:28.988Z</time></trkpt><trkpt lat="44.81228" lon="9.4989833"><ele>342.0</ele><time>2026-04-30T07:38:29.988Z</time></trkpt><trkpt lat="44.8121967" lon="9.49896"><ele>344.5</ele><time>2026-04-30T07:38:30.987Z</time></trkpt><trkpt lat="44.8121167" lon="9.4989217"><ele>347.0</ele><time>2026-04-30T07:38:31.988Z</time></trkpt><trkpt lat="44.8120267" lon="9.4988767"><ele>349.5</ele><time>2026-04-30T07:38:32.988Z</time></trkpt><trkpt lat="44.81194" lon="9.4988367"><ele>352.0</ele><time>2026-04-30T07:38:33.989Z</time></trkpt><trkpt lat="44.8118517" lon="9.4987883"><ele>351.0</ele><time>2026-04-30T07:38:34.988Z</time></trkpt><trkpt lat="44.811765" lon="9.4987417"><ele>350.0</ele><time>2026-04-30T07:38:35.988Z</time></trkpt><trkpt lat="44.81168" lon="9.4987083"><ele>349.0</ele><time>2026-04-30T07:38:36.99Z</time></trkpt><trkpt lat="44.8116" lon="9.498685"><ele>348.0</ele><time>2026-04-30T07:38:37.988Z</time></trkpt><trkpt lat="44.8114817" lon="9.49866"><ele>347.0</ele><time>2026-04-30T07:38:39.989Z</time></trkpt><trkpt lat="44.8113817" lon="9.4986133"><ele>347.0</ele><time>2026-04-30T07:38:41.988Z</time></trkpt><trkpt lat="44.81128" lon="9.4985317"><ele>347.0</ele><time>2026-04-30T07:38:43.987Z</time></trkpt><trkpt lat="44.81121" lon="9.4984067"><ele>347.0</ele><time>2026-04-30T07:38:45.987Z</time></trkpt><trkpt lat="44.8112133" lon="9.4982483"><ele>347.0</ele><time>2026-04-30T07:38:47.989Z</time></trkpt><trkpt lat="44.8112483" lon="9.498155"><ele>347.0</ele><time>2026-04-30T07:38:48.987Z</time></trkpt><trkpt lat="44.8112883" lon="9.4980617"><ele>347.0</ele><time>2026-04-30T07:38:49.989Z</time></trkpt><trkpt lat="44.8113333" lon="9.4979567"><ele>347.0</ele><time>2026-04-30T07:38:50.987Z</time></trkpt><trkpt lat="44.8113833" lon="9.497835"><ele>347.0</ele><time>2026-04-30T07:38:51.987Z</time></trkpt><trkpt lat="44.8114417" lon="9.4977033"><ele>347.0</ele><time>2026-04-30T07:38:52.986Z</time></trkpt><trkpt lat="44.8114933" lon="9.4975933"><ele>347.0</ele><time>2026-04-30T07:38:53.99Z</time></trkpt><trkpt lat="44.8115283" lon="9.4975033"><ele>344.5</ele><time>2026-04-30T07:38:54.986Z</time></trkpt><trkpt lat="44.8115283" lon="9.4973433"><ele>342.0</ele><time>2026-04-30T07:38:56.987Z</time></trkpt><trkpt lat="44.8114267" lon="9.4972133"><ele>339.5</ele><time>2026-04-30T07:38:58.986Z</time></trkpt><trkpt lat="44.8113317" lon="9.4971433"><ele>337.0</ele><time>2026-04-30T07:38:59.988Z</time></trkpt><trkpt lat="44.8112367" lon="9.49706"><ele>335.40000000000003</ele><time>2026-04-30T07:39:00.986Z</time></trkpt><trkpt lat="44.8111617" lon="9.4969567"><ele>333.8</ele><time>2026-04-30T07:39:01.986Z</time></trkpt><trkpt lat="44.81111" lon="9.4968433"><ele>332.2</ele><time>2026-04-30T07:39:02.988Z</time></trkpt><trkpt lat="44.8110833" lon="9.49672"><ele>330.6</ele><time>2026-04-30T07:39:03.987Z</time></trkpt><trkpt lat="44.8110717" lon="9.49658"><ele>329.0</ele><time>2026-04-30T07:39:04.988Z</time></trkpt><trkpt lat="44.81106" lon="9.4964417"><ele>329.0</ele><time>2026-04-30T07:39:05.988Z</time></trkpt><trkpt lat="44.8110383" lon="9.496315"><ele>329.0</ele><time>2026-04-30T07:39:06.988Z</time></trkpt><trkpt lat="44.8110083" lon="9.4961917"><ele>329.0</ele><time>2026-04-30T07:39:07.988Z</time></trkpt><trkpt lat="44.8109783" lon="9.4960733"><ele>329.0</ele><time>2026-04-30T07:39:08.988Z</time></trkpt><trkpt lat="44.8109533" lon="9.4959467"><ele>329.0</ele><time>2026-04-30T07:39:09.988Z</time></trkpt><trkpt lat="44.810945" lon="9.495805"><ele>331.0</ele><time>2026-04-30T07:39:10.991Z</time></trkpt><trkpt lat="44.8109283" lon="9.4956533"><ele>333.0</ele><time>2026-04-30T07:39:11.987Z</time></trkpt><trkpt lat="44.810905" lon="9.4955083"><ele>335.0</ele><time>2026-04-30T07:39:12.989Z</time></trkpt><trkpt lat="44.8108783" lon="9.4953783"><ele>337.0</ele><time>2026-04-30T07:39:13.988Z</time></trkpt><trkpt lat="44.81086" lon="9.4952667"><ele>339.0</ele><time>2026-04-30T07:39:14.988Z</time></trkpt><trkpt lat="44.81086" lon="9.49516"><ele>339.0</ele><time>2026-04-30T07:39:15.989Z</time></trkpt><trkpt lat="44.8108833" lon="9.4950183"><ele>339.0</ele><time>2026-04-30T07:39:17.987Z</time></trkpt><trkpt lat="44.810865" lon="9.49493"><ele>339.0</ele><time>2026-04-30T07:39:19.988Z</time></trkpt><trkpt lat="44.8107617" lon="9.494885"><ele>339.0</ele><time>2026-04-30T07:39:22.988Z</time></trkpt><trkpt lat="44.8106633" lon="9.4948233"><ele>339.0</ele><time>2026-04-30T07:39:24.991Z</time></trkpt><trkpt lat="44.8105583" lon="9.494755"><ele>339.0</ele><time>2026-04-30T07:39:26.992Z</time></trkpt><trkpt lat="44.8104383" lon="9.4946833"><ele>339.0</ele><time>2026-04-30T07:39:28.988Z</time></trkpt><trkpt lat="44.8103683" lon="9.4946433"><ele>339.0</ele><time>2026-04-30T07:39:29.987Z</time></trkpt><trkpt lat="44.8102967" lon="9.4946117"><ele>339.0</ele><time>2026-04-30T07:39:30.988Z</time></trkpt><trkpt lat="44.810225" lon="9.4945883"><ele>339.0</ele><time>2026-04-30T07:39:31.986Z</time></trkpt><trkpt lat="44.8101417" lon="9.4945683"><ele>339.0</ele><time>2026-04-30T07:39:32.988Z</time></trkpt><trkpt lat="44.8100567" lon="9.49455"><ele>341.2</ele><time>2026-04-30T07:39:33.986Z</time></trkpt><trkpt lat="44.8099733" lon="9.4945233"><ele>343.4</ele><time>2026-04-30T07:39:34.988Z</time></trkpt><trkpt lat="44.809885" lon="9.4944833"><ele>345.6</ele><time>2026-04-30T07:39:35.987Z</time></trkpt><trkpt lat="44.8097933" lon="9.494435"><ele>347.8</ele><time>2026-04-30T07:39:36.987Z</time></trkpt><trkpt lat="44.8097083" lon="9.4943783"><ele>350.0</ele><time>2026-04-30T07:39:37.987Z</time></trkpt><trkpt lat="44.8096283" lon="9.4943367"><ele>350.0</ele><time>2026-04-30T07:39:38.987Z</time></trkpt><trkpt lat="44.80955" lon="9.4943217"><ele>350.0</ele><time>2026-04-30T07:39:39.987Z</time></trkpt><trkpt lat="44.8094633" lon="9.49434"><ele>350.0</ele><time>2026-04-30T07:39:40.988Z</time></trkpt><trkpt lat="44.8093667" lon="9.4943717"><ele>350.0</ele><time>2026-04-30T07:39:41.988Z</time></trkpt><trkpt lat="44.8092667" lon="9.4944083"><ele>350.0</ele><time>2026-04-30T07:39:42.987Z</time></trkpt><trkpt lat="44.8091717" lon="9.4944267"><ele>351.4</ele><time>2026-04-30T07:39:43.988Z</time></trkpt><trkpt lat="44.809075" lon="9.4944167"><ele>352.8</ele><time>2026-04-30T07:39:44.987Z</time></trkpt><trkpt lat="44.808975" lon="9.4943883"><ele>354.20000000000005</ele><time>2026-04-30T07:39:45.987Z</time></trkpt><trkpt lat="44.8088733" lon="9.4943583"><ele>355.6</ele><time>2026-04-30T07:39:46.988Z</time></trkpt><trkpt lat="44.8087733" lon="9.4943333"><ele>357.0</ele><time>2026-04-30T07:39:47.987Z</time></trkpt><trkpt lat="44.80867" lon="9.494315"><ele>357.0</ele><time>2026-04-30T07:39:48.99Z</time></trkpt><trkpt lat="44.80856" lon="9.4943033"><ele>357.0</ele><time>2026-04-30T07:39:49.99Z</time></trkpt><trkpt lat="44.8084433" lon="9.494295"><ele>357.0</ele><time>2026-04-30T07:39:50.989Z</time></trkpt><trkpt lat="44.8083217" lon="9.494285"><ele>357.0</ele><time>2026-04-30T07:39:51.989Z</time></trkpt><trkpt lat="44.808205" lon="9.4942717"><ele>359.75</ele><time>2026-04-30T07:39:52.988Z</time></trkpt><trkpt lat="44.80809" lon="9.4942567"><ele>362.5</ele><time>2026-04-30T07:39:53.989Z</time></trkpt><trkpt lat="44.8079733" lon="9.4942467"><ele>365.25</ele><time>2026-04-30T07:39:54.989Z</time></trkpt><trkpt lat="44.8078583" lon="9.4942317"><ele>368.0</ele><time>2026-04-30T07:39:55.989Z</time></trkpt><trkpt lat="44.807745" lon="9.494205"><ele>370.4</ele><time>2026-04-30T07:39:56.992Z</time></trkpt><trkpt lat="44.807625" lon="9.4941667"><ele>372.79999999999995</ele><time>2026-04-30T07:39:57.989Z</time></trkpt><trkpt lat="44.8075283" lon="9.49412"><ele>375.2</ele><time>2026-04-30T07:39:58.989Z</time></trkpt><trkpt lat="44.8074333" lon="9.4940783"><ele>377.6</ele><time>2026-04-30T07:39:59.987Z</time></trkpt><trkpt lat="44.80733" lon="9.4940233"><ele>380.0</ele><time>2026-04-30T07:40:00.987Z</time></trkpt><trkpt lat="44.80723" lon="9.4939517"><ele>380.0</ele><time>2026-04-30T07:40:01.988Z</time></trkpt><trkpt lat="44.80714" lon="9.49388"><ele>380.0</ele><time>2026-04-30T07:40:02.989Z</time></trkpt><trkpt lat="44.8070583" lon="9.4938167"><ele>380.0</ele><time>2026-04-30T07:40:03.987Z</time></trkpt><trkpt lat="44.8069883" lon="9.4937717"><ele>380.0</ele><time>2026-04-30T07:40:04.988Z</time></trkpt><trkpt lat="44.806905" lon="9.4937117"><ele>380.0</ele><time>2026-04-30T07:40:06.989Z</time></trkpt><trkpt lat="44.8068333" lon="9.49362"><ele>381.0</ele><time>2026-04-30T07:40:08.987Z</time></trkpt><trkpt lat="44.8067317" lon="9.4935033"><ele>382.0</ele><time>2026-04-30T07:40:10.987Z</time></trkpt><trkpt lat="44.806665" lon="9.493435"><ele>383.0</ele><time>2026-04-30T07:40:11.989Z</time></trkpt><trkpt lat="44.806595" lon="9.49337"><ele>384.0</ele><time>2026-04-30T07:40:12.988Z</time></trkpt><trkpt lat="44.8065167" lon="9.4933217"><ele>385.0</ele><time>2026-04-30T07:40:13.989Z</time></trkpt><trkpt lat="44.8064267" lon="9.4932833"><ele>385.0</ele><time>2026-04-30T07:40:14.987Z</time></trkpt><trkpt lat="44.806335" lon="9.49324"><ele>385.0</ele><time>2026-04-30T07:40:15.989Z</time></trkpt><trkpt lat="44.8062417" lon="9.493185"><ele>385.0</ele><time>2026-04-30T07:40:16.987Z</time></trkpt><trkpt lat="44.8061517" lon="9.4931133"><ele>385.0</ele><time>2026-04-30T07:40:17.991Z</time></trkpt><trkpt lat="44.8060633" lon="9.49304"><ele>385.0</ele><time>2026-04-30T07:40:18.99Z</time></trkpt><trkpt lat="44.8059867" lon="9.4929517"><ele>385.1666666666667</ele><time>2026-04-30T07:40:19.989Z</time></trkpt><trkpt lat="44.805915" lon="9.49286"><ele>385.33333333333337</ele><time>2026-04-30T07:40:20.993Z</time></trkpt><trkpt lat="44.8058467" lon="9.4927833"><ele>385.5</ele><time>2026-04-30T07:40:21.988Z</time></trkpt><trkpt lat="44.8057817" lon="9.492715"><ele>385.66666666666663</ele><time>2026-04-30T07:40:22.989Z</time></trkpt><trkpt lat="44.8057167" lon="9.4926533"><ele>385.8333333333333</ele><time>2026-04-30T07:40:23.99Z</time></trkpt><trkpt lat="44.805665" lon="9.4925933"><ele>386.0</ele><time>2026-04-30T07:40:24.991Z</time></trkpt><trkpt lat="44.8056217" lon="9.4925267"><ele>385.99999999999994</ele><time>2026-04-30T07:40:25.989Z</time></trkpt><trkpt lat="44.8055733" lon="9.4924667"><ele>386.0</ele><time>2026-04-30T07:40:26.988Z</time></trkpt><trkpt lat="44.8055117" lon="9.4924033"><ele>386.0</ele><time>2026-04-30T07:40:27.989Z</time></trkpt><trkpt lat="44.805445" lon="9.49235"><ele>386.0</ele><time>2026-04-30T07:40:28.99Z</time></trkpt><trkpt lat="44.805375" lon="9.4923"><ele>385.99999999999994</ele><time>2026-04-30T07:40:29.988Z</time></trkpt><trkpt lat="44.8053017" lon="9.4922533"><ele>386.0</ele><time>2026-04-30T07:40:30.988Z</time></trkpt><trkpt lat="44.805225" lon="9.4922083"><ele>386.8333333333333</ele><time>2026-04-30T07:40:31.987Z</time></trkpt><trkpt lat="44.8051417" lon="9.4921717"><ele>387.66666666666663</ele><time>2026-04-30T07:40:32.987Z</time></trkpt><trkpt lat="44.80506" lon="9.4921483"><ele>388.5</ele><time>2026-04-30T07:40:33.989Z</time></trkpt><trkpt lat="44.8049833" lon="9.4921267"><ele>389.33333333333337</ele><time>2026-04-30T07:40:34.988Z</time></trkpt><trkpt lat="44.8049233" lon="9.492095"><ele>390.1666666666667</ele><time>2026-04-30T07:40:35.988Z</time></trkpt><trkpt lat="44.804855" lon="9.491995"><ele>391.0</ele><time>2026-04-30T07:40:37.989Z</time></trkpt><trkpt lat="44.80484" lon="9.4918483"><ele>391.00000000000006</ele><time>2026-04-30T07:40:39.988Z</time></trkpt><trkpt lat="44.8048383" lon="9.491695"><ele>391.0</ele><time>2026-04-30T07:40:41.987Z</time></trkpt><trkpt lat="44.8048867" lon="9.491595"><ele>391.0</ele><time>2026-04-30T07:40:43.988Z</time></trkpt><trkpt lat="44.8049867" lon="9.4915183"><ele>391.0</ele><time>2026-04-30T07:40:45.987Z</time></trkpt><trkpt lat="44.8050467" lon="9.4914767"><ele>391.00000000000006</ele><time>2026-04-30T07:40:46.989Z</time></trkpt><trkpt lat="44.8051083" lon="9.4914483"><ele>391.0</ele><time>2026-04-30T07:40:47.987Z</time></trkpt><trkpt lat="44.8051717" lon="9.49142"><ele>389.33333333333337</ele><time>2026-04-30T07:40:48.988Z</time></trkpt><trkpt lat="44.8052383" lon="9.4913883"><ele>387.6666666666667</ele><time>2026-04-30T07:40:49.987Z</time></trkpt><trkpt lat="44.8053017" lon="9.49137"><ele>386.0</ele><time>2026-04-30T07:40:50.987Z</time></trkpt><trkpt lat="44.805365" lon="9.491365"><ele>384.33333333333337</ele><time>2026-04-30T07:40:51.988Z</time></trkpt><trkpt lat="44.8054817" lon="9.4914017"><ele>382.6666666666667</ele><time>2026-04-30T07:40:53.987Z</time></trkpt><trkpt lat="44.8055917" lon="9.4914867"><ele>381.0</ele><time>2026-04-30T07:40:55.989Z</time></trkpt><trkpt lat="44.8056933" lon="9.491565"><ele>381.0</ele><time>2026-04-30T07:40:57.987Z</time></trkpt><trkpt lat="44.8057533" lon="9.491615"><ele>381.0</ele><time>2026-04-30T07:40:58.987Z</time></trkpt><trkpt lat="44.8058233" lon="9.4916633"><ele>381.0</ele><time>2026-04-30T07:40:59.986Z</time></trkpt><trkpt lat="44.8058933" lon="9.49168"><ele>381.0</ele><time>2026-04-30T07:41:00.987Z</time></trkpt><trkpt lat="44.8059583" lon="9.49168"><ele>381.0</ele><time>2026-04-30T07:41:01.99Z</time></trkpt><trkpt lat="44.806075" lon="9.4916233"><ele>381.0</ele><time>2026-04-30T07:41:03.987Z</time></trkpt><trkpt lat="44.806135" lon="9.491555"><ele>381.0</ele><time>2026-04-30T07:41:04.988Z</time></trkpt><trkpt lat="44.8061981" lon="9.4914739"><ele>381.0</ele><time>2026-04-30T07:41:05.991Z</time></trkpt><trkpt lat="44.8062576" lon="9.4913833"><ele>381.0</ele><time>2026-04-30T07:41:06.987Z</time></trkpt><trkpt lat="44.8063129" lon="9.4912848"><ele>381.0</ele><time>2026-04-30T07:41:07.987Z</time></trkpt><trkpt lat="44.8063621" lon="9.4911927"><ele>381.0</ele><time>2026-04-30T07:41:08.987Z</time></trkpt><trkpt lat="44.8064176" lon="9.4911028"><ele>381.0</ele><time>2026-04-30T07:41:09.988Z</time></trkpt><trkpt lat="44.8064831" lon="9.4910014"><ele>381.0</ele><time>2026-04-30T07:41:10.988Z</time></trkpt><trkpt lat="44.8065475" lon="9.4908882"><ele>381.0</ele><time>2026-04-30T07:41:11.987Z</time></trkpt><trkpt lat="44.8066065" lon="9.4907678"><ele>381.0</ele><time>2026-04-30T07:41:12.987Z</time></trkpt><trkpt lat="44.8066673" lon="9.4906375"><ele>381.0</ele><time>2026-04-30T07:41:13.987Z</time></trkpt><trkpt lat="44.8067214" lon="9.4905124"><ele>381.0</ele><time>2026-04-30T07:41:14.99Z</time></trkpt><trkpt lat="44.8067704" lon="9.4903967"><ele>380.5</ele><time>2026-04-30T07:41:15.987Z</time></trkpt><trkpt lat="44.8068191" lon="9.4902865"><ele>380.0</ele><time>2026-04-30T07:41:16.99Z</time></trkpt><trkpt lat="44.8068646" lon="9.4901848"><ele>379.5</ele><time>2026-04-30T07:41:17.989Z</time></trkpt><trkpt lat="44.8069085" lon="9.4900972"><ele>379.0</ele><time>2026-04-30T07:41:18.989Z</time></trkpt><trkpt lat="44.8069597" lon="9.49003"><ele>378.5</ele><time>2026-04-30T07:41:19.989Z</time></trkpt><trkpt lat="44.8070238" lon="9.4899796"><ele>378.0</ele><time>2026-04-30T07:41:20.989Z</time></trkpt><trkpt lat="44.8071087" lon="9.4899497"><ele>378.0</ele><time>2026-04-30T07:41:21.988Z</time></trkpt><trkpt lat="44.8072044" lon="9.4899238"><ele>378.0</ele><time>2026-04-30T07:41:22.988Z</time></trkpt><trkpt lat="44.8073008" lon="9.4898973"><ele>378.0</ele><time>2026-04-30T07:41:23.988Z</time></trkpt><trkpt lat="44.8073974" lon="9.4898676"><ele>378.0</ele><time>2026-04-30T07:41:24.988Z</time></trkpt><trkpt lat="44.8074915" lon="9.4898331"><ele>378.0</ele><time>2026-04-30T07:41:25.988Z</time></trkpt><trkpt lat="44.8075776" lon="9.4897917"><ele>378.0</ele><time>2026-04-30T07:41:26.991Z</time></trkpt><trkpt lat="44.8076518" lon="9.4897421"><ele>378.0</ele><time>2026-04-30T07:41:27.988Z</time></trkpt><trkpt lat="44.807718" lon="9.4896883"><ele>378.0</ele><time>2026-04-30T07:41:28.988Z</time></trkpt><trkpt lat="44.8077781" lon="9.4896323"><ele>378.0</ele><time>2026-04-30T07:41:29.987Z</time></trkpt><trkpt lat="44.8078591" lon="9.4895186"><ele>378.0</ele><time>2026-04-30T07:41:31.987Z</time></trkpt><trkpt lat="44.8078746" lon="9.4893788"><ele>378.0</ele><time>2026-04-30T07:41:33.989Z</time></trkpt><trkpt lat="44.8078681" lon="9.489239"><ele>378.1666666666667</ele><time>2026-04-30T07:41:35.99Z</time></trkpt><trkpt lat="44.8078614" lon="9.4891252"><ele>378.3333333333333</ele><time>2026-04-30T07:41:37.987Z</time></trkpt><trkpt lat="44.8078342" lon="9.4890085"><ele>378.5</ele><time>2026-04-30T07:41:40.988Z</time></trkpt><trkpt lat="44.8077764" lon="9.4889595"><ele>378.66666666666663</ele><time>2026-04-30T07:41:42.988Z</time></trkpt><trkpt lat="44.8077138" lon="9.4889113"><ele>378.8333333333333</ele><time>2026-04-30T07:41:44.989Z</time></trkpt><trkpt lat="44.8076401" lon="9.4888006"><ele>379.0</ele><time>2026-04-30T07:41:46.991Z</time></trkpt><trkpt lat="44.8075903" lon="9.4886495"><ele>378.66666666666663</ele><time>2026-04-30T07:41:48.991Z</time></trkpt><trkpt lat="44.8075382" lon="9.4884928"><ele>378.3333333333333</ele><time>2026-04-30T07:41:50.991Z</time></trkpt><trkpt lat="44.8074931" lon="9.4884158"><ele>378.0</ele><time>2026-04-30T07:41:51.989Z</time></trkpt><trkpt lat="44.8074389" lon="9.4883396"><ele>377.6666666666667</ele><time>2026-04-30T07:41:52.988Z</time></trkpt><trkpt lat="44.8073818" lon="9.4882752"><ele>377.33333333333337</ele><time>2026-04-30T07:41:53.99Z</time></trkpt><trkpt lat="44.8073155" lon="9.488216"><ele>377.0</ele><time>2026-04-30T07:41:54.987Z</time></trkpt><trkpt lat="44.8072372" lon="9.4881644"><ele>377.0</ele><time>2026-04-30T07:41:55.986Z</time></trkpt><trkpt lat="44.807145" lon="9.48812"><ele>377.0</ele><time>2026-04-30T07:41:56.988Z</time></trkpt><trkpt lat="44.8070409" lon="9.4880819"><ele>377.0</ele><time>2026-04-30T07:41:57.986Z</time></trkpt><trkpt lat="44.8069312" lon="9.488049"><ele>377.0</ele><time>2026-04-30T07:41:58.988Z</time></trkpt><trkpt lat="44.806825" lon="9.4880395"><ele>377.0</ele><time>2026-04-30T07:41:59.987Z</time></trkpt><trkpt lat="44.806726" lon="9.4880591"><ele>378.83333333333337</ele><time>2026-04-30T07:42:00.988Z</time></trkpt><trkpt lat="44.8066386" lon="9.4880914"><ele>380.6666666666667</ele><time>2026-04-30T07:42:01.987Z</time></trkpt><trkpt lat="44.8065537" lon="9.4881232"><ele>382.5</ele><time>2026-04-30T07:42:02.989Z</time></trkpt><trkpt lat="44.8064691" lon="9.4881519"><ele>384.33333333333337</ele><time>2026-04-30T07:42:03.989Z</time></trkpt><trkpt lat="44.8063873" lon="9.4881762"><ele>386.1666666666667</ele><time>2026-04-30T07:42:04.987Z</time></trkpt><trkpt lat="44.8063192" lon="9.4881824"><ele>388.0</ele><time>2026-04-30T07:42:05.99Z</time></trkpt><trkpt lat="44.8062533" lon="9.4881663"><ele>388.0</ele><time>2026-04-30T07:42:06.987Z</time></trkpt><trkpt lat="44.8061809" lon="9.4881311"><ele>388.0</ele><time>2026-04-30T07:42:07.988Z</time></trkpt><trkpt lat="44.8060962" lon="9.4880749"><ele>388.0</ele><time>2026-04-30T07:42:08.989Z</time></trkpt><trkpt lat="44.8059991" lon="9.4880074"><ele>388.0</ele><time>2026-04-30T07:42:09.988Z</time></trkpt><trkpt lat="44.8058907" lon="9.487947"><ele>388.0</ele><time>2026-04-30T07:42:10.987Z</time></trkpt><trkpt lat="44.8057792" lon="9.4878964"><ele>389.75</ele><time>2026-04-30T07:42:11.987Z</time></trkpt><trkpt lat="44.8056645" lon="9.4878647"><ele>391.5</ele><time>2026-04-30T07:42:12.987Z</time></trkpt><trkpt lat="44.8055403" lon="9.4878567"><ele>393.25</ele><time>2026-04-30T07:42:13.989Z</time></trkpt><trkpt lat="44.8054143" lon="9.4878646"><ele>395.0</ele><time>2026-04-30T07:42:14.989Z</time></trkpt><trkpt lat="44.8053023" lon="9.4878865"><ele>394.99999999999994</ele><time>2026-04-30T07:42:15.991Z</time></trkpt><trkpt lat="44.8052058" lon="9.4879048"><ele>395.0</ele><time>2026-04-30T07:42:16.989Z</time></trkpt><trkpt lat="44.8051231" lon="9.4879056"><ele>395.0</ele><time>2026-04-30T07:42:17.99Z</time></trkpt><trkpt lat="44.8050496" lon="9.4878607"><ele>395.0</ele><time>2026-04-30T07:42:19.987Z</time></trkpt><trkpt lat="44.8050068" lon="9.4877902"><ele>394.99999999999994</ele><time>2026-04-30T07:42:25.989Z</time></trkpt><trkpt lat="44.804942" lon="9.4876882"><ele>395.0</ele><time>2026-04-30T07:42:29.987Z</time></trkpt><trkpt lat="44.80488" lon="9.487599"><ele>396.99999999999994</ele><time>2026-04-30T07:42:31.988Z</time></trkpt><trkpt lat="44.8047902" lon="9.4875072"><ele>399.0</ele><time>2026-04-30T07:42:33.989Z</time></trkpt><trkpt lat="44.8047256" lon="9.4874671"><ele>401.0</ele><time>2026-04-30T07:42:34.989Z</time></trkpt><trkpt lat="44.8046589" lon="9.4874426"><ele>403.0</ele><time>2026-04-30T07:42:35.991Z</time></trkpt><trkpt lat="44.8045936" lon="9.4874314"><ele>404.99999999999994</ele><time>2026-04-30T07:42:36.987Z</time></trkpt><trkpt lat="44.8045227" lon="9.4874375"><ele>407.0</ele><time>2026-04-30T07:42:37.987Z</time></trkpt><trkpt lat="44.8044409" lon="9.4874625"><ele>406.99999999999994</ele><time>2026-04-30T07:42:38.987Z</time></trkpt><trkpt lat="44.804357" lon="9.4874941"><ele>407.0</ele><time>2026-04-30T07:42:39.987Z</time></trkpt><trkpt lat="44.8042706" lon="9.4875185"><ele>407.0</ele><time>2026-04-30T07:42:40.987Z</time></trkpt><trkpt lat="44.80419" lon="9.4875201"><ele>407.0</ele><time>2026-04-30T07:42:41.988Z</time></trkpt><trkpt lat="44.8041119" lon="9.4874881"><ele>406.99999999999994</ele><time>2026-04-30T07:42:42.988Z</time></trkpt><trkpt lat="44.8040286" lon="9.4874485"><ele>407.0</ele><time>2026-04-30T07:42:43.988Z</time></trkpt><trkpt lat="44.8039292" lon="9.4873701"><ele>406.0</ele><time>2026-04-30T07:42:44.988Z</time></trkpt><trkpt lat="44.8038293" lon="9.487281"><ele>405.0</ele><time>2026-04-30T07:42:45.988Z</time></trkpt><trkpt lat="44.8037353" lon="9.4871946"><ele>404.0</ele><time>2026-04-30T07:42:46.987Z</time></trkpt><trkpt lat="44.8036476" lon="9.4871218"><ele>403.0</ele><time>2026-04-30T07:42:47.989Z</time></trkpt><trkpt lat="44.8035607" lon="9.4870665"><ele>402.0</ele><time>2026-04-30T07:42:48.988Z</time></trkpt><trkpt lat="44.8034702" lon="9.4870179"><ele>404.0</ele><time>2026-04-30T07:42:49.988Z</time></trkpt><trkpt lat="44.8033825" lon="9.4869735"><ele>406.0</ele><time>2026-04-30T07:42:50.991Z</time></trkpt><trkpt lat="44.8032921" lon="9.4869302"><ele>408.0</ele><time>2026-04-30T07:42:51.988Z</time></trkpt><trkpt lat="44.8032045" lon="9.4868651"><ele>410.0</ele><time>2026-04-30T07:42:52.987Z</time></trkpt><trkpt lat="44.8031245" lon="9.4868031"><ele>412.0</ele><time>2026-04-30T07:42:53.987Z</time></trkpt><trkpt lat="44.8030557" lon="9.4867498"><ele>412.00000000000006</ele><time>2026-04-30T07:42:54.99Z</time></trkpt><trkpt lat="44.8029891" lon="9.4867067"><ele>412.0</ele><time>2026-04-30T07:42:55.987Z</time></trkpt><trkpt lat="44.8029189" lon="9.4866682"><ele>412.0</ele><time>2026-04-30T07:42:56.991Z</time></trkpt><trkpt lat="44.8028548" lon="9.4866365"><ele>412.0</ele><time>2026-04-30T07:42:57.987Z</time></trkpt><trkpt lat="44.8027668" lon="9.486586"><ele>412.00000000000006</ele><time>2026-04-30T07:42:59.988Z</time></trkpt><trkpt lat="44.8027274" lon="9.4864972"><ele>412.0</ele><time>2026-04-30T07:43:02.99Z</time></trkpt><trkpt lat="44.8027254" lon="9.486383"><ele>412.50000000000006</ele><time>2026-04-30T07:43:04.988Z</time></trkpt><trkpt lat="44.8027677" lon="9.4862299"><ele>413.0</ele><time>2026-04-30T07:43:06.988Z</time></trkpt><trkpt lat="44.8028169" lon="9.4861655"><ele>413.5</ele><time>2026-04-30T07:43:07.987Z</time></trkpt><trkpt lat="44.8028771" lon="9.4861075"><ele>414.0</ele><time>2026-04-30T07:43:08.988Z</time></trkpt><trkpt lat="44.8029413" lon="9.4860791"><ele>414.50000000000006</ele><time>2026-04-30T07:43:09.988Z</time></trkpt><trkpt lat="44.803049" lon="9.4860206"><ele>415.0</ele><time>2026-04-30T07:43:11.988Z</time></trkpt><trkpt lat="44.8031201" lon="9.4859271"><ele>415.0</ele><time>2026-04-30T07:43:13.988Z</time></trkpt><trkpt lat="44.8031982" lon="9.4858097"><ele>415.0</ele><time>2026-04-30T07:43:15.987Z</time></trkpt><trkpt lat="44.8033042" lon="9.4857092"><ele>415.0</ele><time>2026-04-30T07:43:17.987Z</time></trkpt><trkpt lat="44.8033771" lon="9.4856675"><ele>415.0</ele><time>2026-04-30T07:43:18.99Z</time></trkpt><trkpt lat="44.8034425" lon="9.4856244"><ele>415.0</ele><time>2026-04-30T07:43:19.987Z</time></trkpt><trkpt lat="44.803501" lon="9.4855654"><ele>416.83333333333337</ele><time>2026-04-30T07:43:20.988Z</time></trkpt><trkpt lat="44.8035564" lon="9.4854862"><ele>418.6666666666667</ele><time>2026-04-30T07:43:21.988Z</time></trkpt><trkpt lat="44.8036144" lon="9.485394"><ele>420.5</ele><time>2026-04-30T07:43:22.987Z</time></trkpt><trkpt lat="44.8036773" lon="9.4853028"><ele>422.33333333333337</ele><time>2026-04-30T07:43:23.992Z</time></trkpt><trkpt lat="44.8037425" lon="9.4852241"><ele>424.1666666666667</ele><time>2026-04-30T07:43:24.988Z</time></trkpt><trkpt lat="44.8038108" lon="9.4851556"><ele>426.0</ele><time>2026-04-30T07:43:25.987Z</time></trkpt><trkpt lat="44.8038821" lon="9.4850855"><ele>426.0</ele><time>2026-04-30T07:43:26.987Z</time></trkpt><trkpt lat="44.8039514" lon="9.4850169"><ele>426.0</ele><time>2026-04-30T07:43:27.987Z</time></trkpt><trkpt lat="44.8040138" lon="9.4849545"><ele>426.0</ele><time>2026-04-30T07:43:28.987Z</time></trkpt><trkpt lat="44.8040729" lon="9.4848865"><ele>426.0</ele><time>2026-04-30T07:43:29.986Z</time></trkpt><trkpt lat="44.8041316" lon="9.4848024"><ele>426.0</ele><time>2026-04-30T07:43:30.988Z</time></trkpt><trkpt lat="44.804186" lon="9.4847037"><ele>426.0</ele><time>2026-04-30T07:43:31.989Z</time></trkpt><trkpt lat="44.8042413" lon="9.484586"><ele>425.3333333333333</ele><time>2026-04-30T07:43:32.988Z</time></trkpt><trkpt lat="44.8042843" lon="9.4844674"><ele>424.66666666666663</ele><time>2026-04-30T07:43:33.988Z</time></trkpt><trkpt lat="44.804317" lon="9.4843595"><ele>424.0</ele><time>2026-04-30T07:43:34.987Z</time></trkpt><trkpt lat="44.8043745" lon="9.4842176"><ele>423.3333333333333</ele><time>2026-04-30T07:43:36.99Z</time></trkpt><trkpt lat="44.8044216" lon="9.4841521"><ele>422.66666666666663</ele><time>2026-04-30T07:43:37.989Z</time></trkpt><trkpt lat="44.8044831" lon="9.4840802"><ele>422.0</ele><time>2026-04-30T07:43:38.99Z</time></trkpt><trkpt lat="44.8045442" lon="9.4840087"><ele>422.0</ele><time>2026-04-30T07:43:39.993Z</time></trkpt><trkpt lat="44.8046086" lon="9.4839349"><ele>422.0</ele><time>2026-04-30T07:43:40.989Z</time></trkpt><trkpt lat="44.8046684" lon="9.4838651"><ele>422.0</ele><time>2026-04-30T07:43:41.992Z</time></trkpt><trkpt lat="44.8047196" lon="9.4837941"><ele>422.0</ele><time>2026-04-30T07:43:42.989Z</time></trkpt><trkpt lat="44.804762" lon="9.483723"><ele>422.0</ele><time>2026-04-30T07:43:43.989Z</time></trkpt><trkpt lat="44.8047796" lon="9.4836226"><ele>422.0</ele><time>2026-04-30T07:43:45.988Z</time></trkpt><trkpt lat="44.8047363" lon="9.4835504"><ele>422.0</ele><time>2026-04-30T07:43:47.989Z</time></trkpt><trkpt lat="44.8046834" lon="9.4834827"><ele>424.66666666666663</ele><time>2026-04-30T07:43:49.988Z</time></trkpt><trkpt lat="44.8046481" lon="9.4833638"><ele>427.3333333333333</ele><time>2026-04-30T07:43:52.988Z</time></trkpt><trkpt lat="44.8046504" lon="9.4832467"><ele>430.0</ele><time>2026-04-30T07:43:54.989Z</time></trkpt><trkpt lat="44.8046887" lon="9.4831444"><ele>432.66666666666663</ele><time>2026-04-30T07:43:56.989Z</time></trkpt><trkpt lat="44.8047297" lon="9.4830751"><ele>435.3333333333333</ele><time>2026-04-30T07:43:57.987Z</time></trkpt><trkpt lat="44.8047828" lon="9.4829956"><ele>438.0</ele><time>2026-04-30T07:43:58.987Z</time></trkpt><trkpt lat="44.8048368" lon="9.4829125"><ele>438.4</ele><time>2026-04-30T07:43:59.989Z</time></trkpt><trkpt lat="44.8048889" lon="9.4828185"><ele>438.79999999999995</ele><time>2026-04-30T07:44:00.988Z</time></trkpt><trkpt lat="44.8049504" lon="9.4827183"><ele>439.2</ele><time>2026-04-30T07:44:01.988Z</time></trkpt><trkpt lat="44.8050194" lon="9.4826239"><ele>439.6</ele><time>2026-04-30T07:44:02.987Z</time></trkpt><trkpt lat="44.805092" lon="9.4825374"><ele>440.0</ele><time>2026-04-30T07:44:03.988Z</time></trkpt><trkpt lat="44.8051732" lon="9.4824611"><ele>440.0</ele><time>2026-04-30T07:44:04.989Z</time></trkpt><trkpt lat="44.8052553" lon="9.4823943"><ele>440.0</ele><time>2026-04-30T07:44:05.989Z</time></trkpt><trkpt lat="44.8053315" lon="9.4823294"><ele>440.0</ele><time>2026-04-30T07:44:06.987Z</time></trkpt><trkpt lat="44.8054038" lon="9.4822604"><ele>440.0</ele><time>2026-04-30T07:44:07.989Z</time></trkpt><trkpt lat="44.8054783" lon="9.4821803"><ele>440.0</ele><time>2026-04-30T07:44:08.991Z</time></trkpt><trkpt lat="44.8055587" lon="9.4820953"><ele>443.8</ele><time>2026-04-30T07:44:09.989Z</time></trkpt><trkpt lat="44.8056393" lon="9.4820178"><ele>447.6</ele><time>2026-04-30T07:44:10.988Z</time></trkpt><trkpt lat="44.8057152" lon="9.4819409"><ele>451.4</ele><time>2026-04-30T07:44:11.988Z</time></trkpt><trkpt lat="44.8057884" lon="9.481856"><ele>455.2</ele><time>2026-04-30T07:44:12.987Z</time></trkpt><trkpt lat="44.8058576" lon="9.4817693"><ele>459.0</ele><time>2026-04-30T07:44:13.989Z</time></trkpt><trkpt lat="44.8059187" lon="9.4816837"><ele>459.0</ele><time>2026-04-30T07:44:14.987Z</time></trkpt><trkpt lat="44.8059666" lon="9.481611"><ele>459.0</ele><time>2026-04-30T07:44:15.988Z</time></trkpt><trkpt lat="44.8060244" lon="9.4814911"><ele>459.0</ele><time>2026-04-30T07:44:17.987Z</time></trkpt><trkpt lat="44.8060383" lon="9.4813724"><ele>459.0</ele><time>2026-04-30T07:44:19.99Z</time></trkpt><trkpt lat="44.8059941" lon="9.4812301"><ele>459.0</ele><time>2026-04-30T07:44:21.989Z</time></trkpt><trkpt lat="44.8059503" lon="9.4810805"><ele>461.2</ele><time>2026-04-30T07:44:23.987Z</time></trkpt><trkpt lat="44.8059056" lon="9.4809073"><ele>463.4</ele><time>2026-04-30T07:44:25.988Z</time></trkpt><trkpt lat="44.8058769" lon="9.4807995"><ele>465.6</ele><time>2026-04-30T07:44:26.989Z</time></trkpt><trkpt lat="44.8058477" lon="9.480682"><ele>467.8</ele><time>2026-04-30T07:44:27.987Z</time></trkpt><trkpt lat="44.8058285" lon="9.4805694"><ele>470.0</ele><time>2026-04-30T07:44:28.988Z</time></trkpt><trkpt lat="44.8058178" lon="9.48046"><ele>471.16666666666663</ele><time>2026-04-30T07:44:29.987Z</time></trkpt><trkpt lat="44.8058114" lon="9.4803462"><ele>472.3333333333333</ele><time>2026-04-30T07:44:30.987Z</time></trkpt><trkpt lat="44.8058082" lon="9.4802361"><ele>473.5</ele><time>2026-04-30T07:44:31.988Z</time></trkpt><trkpt lat="44.8058069" lon="9.4801267"><ele>474.66666666666663</ele><time>2026-04-30T07:44:32.988Z</time></trkpt><trkpt lat="44.8058112" lon="9.48002"><ele>475.8333333333333</ele><time>2026-04-30T07:44:33.989Z</time></trkpt><trkpt lat="44.8058223" lon="9.4799154"><ele>477.0</ele><time>2026-04-30T07:44:34.987Z</time></trkpt><trkpt lat="44.8058346" lon="9.4798113"><ele>477.0</ele><time>2026-04-30T07:44:35.989Z</time></trkpt><trkpt lat="44.8058425" lon="9.4797108"><ele>477.0</ele><time>2026-04-30T07:44:36.989Z</time></trkpt><trkpt lat="44.8058435" lon="9.479618"><ele>477.0</ele><time>2026-04-30T07:44:37.989Z</time></trkpt><trkpt lat="44.8058159" lon="9.4794468"><ele>477.0</ele><time>2026-04-30T07:44:39.988Z</time></trkpt><trkpt lat="44.8057871" lon="9.4793565"><ele>477.0</ele><time>2026-04-30T07:44:40.987Z</time></trkpt><trkpt lat="44.8057505" lon="9.4792579"><ele>477.0</ele><time>2026-04-30T07:44:41.989Z</time></trkpt><trkpt lat="44.8057058" lon="9.4791497"><ele>478.40000000000003</ele><time>2026-04-30T07:44:42.99Z</time></trkpt><trkpt lat="44.8056556" lon="9.4790252"><ele>479.80000000000007</ele><time>2026-04-30T07:44:43.988Z</time></trkpt><trkpt lat="44.80561" lon="9.4788888"><ele>481.2</ele><time>2026-04-30T07:44:44.989Z</time></trkpt><trkpt lat="44.8055742" lon="9.4787698"><ele>482.6</ele><time>2026-04-30T07:44:45.988Z</time></trkpt><trkpt lat="44.8055379" lon="9.4786704"><ele>484.0</ele><time>2026-04-30T07:44:46.987Z</time></trkpt><trkpt lat="44.8054929" lon="9.4785832"><ele>484.2857142857143</ele><time>2026-04-30T07:44:47.991Z</time></trkpt><trkpt lat="44.8054352" lon="9.4785142"><ele>484.57142857142856</ele><time>2026-04-30T07:44:48.989Z</time></trkpt><trkpt lat="44.8053677" lon="9.4784568"><ele>484.85714285714283</ele><time>2026-04-30T07:44:49.987Z</time></trkpt><trkpt lat="44.8052999" lon="9.4784039"><ele>485.1428571428571</ele><time>2026-04-30T07:44:50.988Z</time></trkpt><trkpt lat="44.8052365" lon="9.4783522"><ele>485.42857142857144</ele><time>2026-04-30T07:44:51.988Z</time></trkpt><trkpt lat="44.8051793" lon="9.4783025"><ele>485.71428571428567</ele><time>2026-04-30T07:44:52.987Z</time></trkpt><trkpt lat="44.8051185" lon="9.4782529"><ele>486.0</ele><time>2026-04-30T07:44:53.987Z</time></trkpt><trkpt lat="44.805054" lon="9.4782106"><ele>486.3333333333333</ele><time>2026-04-30T07:44:54.987Z</time></trkpt><trkpt lat="44.8049846" lon="9.4781722"><ele>486.66666666666663</ele><time>2026-04-30T07:44:55.987Z</time></trkpt><trkpt lat="44.8049146" lon="9.4781283"><ele>487.0</ele><time>2026-04-30T07:44:56.988Z</time></trkpt><trkpt lat="44.8048565" lon="9.4780737"><ele>487.3333333333333</ele><time>2026-04-30T07:44:57.989Z</time></trkpt><trkpt lat="44.8048091" lon="9.4780138"><ele>487.66666666666663</ele><time>2026-04-30T07:44:58.987Z</time></trkpt><trkpt lat="44.8047295" lon="9.4778768"><ele>488.0</ele><time>2026-04-30T07:45:00.989Z</time></trkpt><trkpt lat="44.8046905" lon="9.477802"><ele>486.99999999999994</ele><time>2026-04-30T07:45:01.988Z</time></trkpt><trkpt lat="44.8046471" lon="9.4777343"><ele>486.0</ele><time>2026-04-30T07:45:02.988Z</time></trkpt><trkpt lat="44.8045561" lon="9.477636"><ele>485.0</ele><time>2026-04-30T07:45:04.989Z</time></trkpt><trkpt lat="44.804506" lon="9.4775818"><ele>484.0</ele><time>2026-04-30T07:45:05.988Z</time></trkpt><trkpt lat="44.8044528" lon="9.4775152"><ele>482.99999999999994</ele><time>2026-04-30T07:45:06.987Z</time></trkpt><trkpt lat="44.8043991" lon="9.4774408"><ele>482.0</ele><time>2026-04-30T07:45:07.988Z</time></trkpt><trkpt lat="44.8043483" lon="9.4773554"><ele>484.66666666666663</ele><time>2026-04-30T07:45:08.988Z</time></trkpt><trkpt lat="44.8042986" lon="9.4772689"><ele>487.3333333333333</ele><time>2026-04-30T07:45:09.988Z</time></trkpt><trkpt lat="44.8042571" lon="9.4771687"><ele>490.0</ele><time>2026-04-30T07:45:10.989Z</time></trkpt><trkpt lat="44.8042283" lon="9.4770688"><ele>492.66666666666663</ele><time>2026-04-30T07:45:11.987Z</time></trkpt><trkpt lat="44.8042319" lon="9.4769375"><ele>495.3333333333333</ele><time>2026-04-30T07:45:13.988Z</time></trkpt><trkpt lat="44.8042684" lon="9.4768463"><ele>498.0</ele><time>2026-04-30T07:45:16.988Z</time></trkpt><trkpt lat="44.8043284" lon="9.4767021"><ele>494.5</ele><time>2026-04-30T07:45:25.987Z</time></trkpt><trkpt lat="44.8043804" lon="9.4765986"><ele>491.0</ele><time>2026-04-30T07:45:26.988Z</time></trkpt><trkpt lat="44.8044386" lon="9.4764824"><ele>487.5</ele><time>2026-04-30T07:45:27.987Z</time></trkpt><trkpt lat="44.8045047" lon="9.4763413"><ele>484.0</ele><time>2026-04-30T07:45:28.988Z</time></trkpt><trkpt lat="44.804582" lon="9.4761781"><ele>484.0</ele><time>2026-04-30T07:45:29.988Z</time></trkpt><trkpt lat="44.8046564" lon="9.4760147"><ele>484.0</ele><time>2026-04-30T07:45:30.987Z</time></trkpt><trkpt lat="44.8047068" lon="9.4758724"><ele>484.0</ele><time>2026-04-30T07:45:31.988Z</time></trkpt><trkpt lat="44.8047531" lon="9.475736"><ele>484.0</ele><time>2026-04-30T07:45:32.988Z</time></trkpt><trkpt lat="44.8048019" lon="9.4756105"><ele>484.0</ele><time>2026-04-30T07:45:33.988Z</time></trkpt><trkpt lat="44.8048607" lon="9.4754849"><ele>484.0</ele><time>2026-04-30T07:45:34.989Z</time></trkpt><trkpt lat="44.8049221" lon="9.4753636"><ele>484.0</ele><time>2026-04-30T07:45:35.988Z</time></trkpt><trkpt lat="44.8049839" lon="9.475257"><ele>484.0</ele><time>2026-04-30T07:45:36.989Z</time></trkpt><trkpt lat="44.8050326" lon="9.4751606"><ele>484.0</ele><time>2026-04-30T07:45:37.988Z</time></trkpt><trkpt lat="44.8050584" lon="9.4750742"><ele>485.6</ele><time>2026-04-30T07:45:38.988Z</time></trkpt><trkpt lat="44.8050641" lon="9.4749279"><ele>487.2</ele><time>2026-04-30T07:45:40.989Z</time></trkpt><trkpt lat="44.8050536" lon="9.4747486"><ele>488.80000000000007</ele><time>2026-04-30T07:45:42.991Z</time></trkpt><trkpt lat="44.8050321" lon="9.4746493"><ele>490.40000000000003</ele><time>2026-04-30T07:45:43.988Z</time></trkpt><trkpt lat="44.8049988" lon="9.4745445"><ele>492.0</ele><time>2026-04-30T07:45:44.989Z</time></trkpt><trkpt lat="44.8049482" lon="9.4744427"><ele>492.5</ele><time>2026-04-30T07:45:45.989Z</time></trkpt><trkpt lat="44.8048897" lon="9.4743557"><ele>493.0</ele><time>2026-04-30T07:45:46.989Z</time></trkpt><trkpt lat="44.8048444" lon="9.4742782"><ele>493.5</ele><time>2026-04-30T07:45:47.988Z</time></trkpt><trkpt lat="44.8048152" lon="9.474132"><ele>494.0</ele><time>2026-04-30T07:45:49.988Z</time></trkpt><trkpt lat="44.8048416" lon="9.474049"><ele>494.5</ele><time>2026-04-30T07:45:50.993Z</time></trkpt><trkpt lat="44.8048775" lon="9.4739602"><ele>495.0</ele><time>2026-04-30T07:45:51.987Z</time></trkpt><trkpt lat="44.8049001" lon="9.4738604"><ele>495.8333333333333</ele><time>2026-04-30T07:45:52.988Z</time></trkpt><trkpt lat="44.8049145" lon="9.4737556"><ele>496.66666666666663</ele><time>2026-04-30T07:45:53.987Z</time></trkpt><trkpt lat="44.8049162" lon="9.4736406"><ele>497.5</ele><time>2026-04-30T07:45:54.987Z</time></trkpt><trkpt lat="44.8049108" lon="9.4735139"><ele>498.3333333333333</ele><time>2026-04-30T07:45:55.988Z</time></trkpt><trkpt lat="44.8048982" lon="9.4733789"><ele>499.16666666666663</ele><time>2026-04-30T07:45:56.989Z</time></trkpt><trkpt lat="44.8048745" lon="9.4732555"><ele>500.0</ele><time>2026-04-30T07:45:57.987Z</time></trkpt><trkpt lat="44.8048439" lon="9.4731426"><ele>499.99999999999994</ele><time>2026-04-30T07:45:58.988Z</time></trkpt><trkpt lat="44.8048107" lon="9.4730477"><ele>500.0</ele><time>2026-04-30T07:45:59.989Z</time></trkpt><trkpt lat="44.8047512" lon="9.4729041"><ele>500.0</ele><time>2026-04-30T07:46:01.988Z</time></trkpt><trkpt lat="44.8046855" lon="9.4727747"><ele>500.0</ele><time>2026-04-30T07:46:03.988Z</time></trkpt><trkpt lat="44.8046363" lon="9.472715"><ele>499.99999999999994</ele><time>2026-04-30T07:46:04.99Z</time></trkpt><trkpt lat="44.8045697" lon="9.4726709"><ele>500.0</ele><time>2026-04-30T07:46:05.989Z</time></trkpt><trkpt lat="44.804492" lon="9.4726372"><ele>499.99999999999994</ele><time>2026-04-30T07:46:06.99Z</time></trkpt><trkpt lat="44.804409" lon="9.4726069"><ele>500.0</ele><time>2026-04-30T07:46:07.988Z</time></trkpt><trkpt lat="44.804323" lon="9.4725828"><ele>500.0</ele><time>2026-04-30T07:46:08.99Z</time></trkpt><trkpt lat="44.8042348" lon="9.4725764"><ele>500.0</ele><time>2026-04-30T07:46:09.99Z</time></trkpt><trkpt lat="44.8041458" lon="9.4725772"><ele>499.99999999999994</ele><time>2026-04-30T07:46:10.989Z</time></trkpt><trkpt lat="44.8040722" lon="9.4725883"><ele>500.0</ele><time>2026-04-30T07:46:11.987Z</time></trkpt><trkpt lat="44.8039731" lon="9.4726561"><ele>499.0</ele><time>2026-04-30T07:46:13.988Z</time></trkpt><trkpt lat="44.8038998" lon="9.4726864"><ele>498.0</ele><time>2026-04-30T07:46:15.992Z</time></trkpt><trkpt lat="44.8038059" lon="9.472651"><ele>497.0</ele><time>2026-04-30T07:46:17.989Z</time></trkpt><trkpt lat="44.8036861" lon="9.4726209"><ele>496.0</ele><time>2026-04-30T07:46:19.988Z</time></trkpt><trkpt lat="44.803593" lon="9.4725681"><ele>495.0</ele><time>2026-04-30T07:46:21.988Z</time></trkpt><trkpt lat="44.8035339" lon="9.4724399"><ele>494.5</ele><time>2026-04-30T07:46:23.99Z</time></trkpt><trkpt lat="44.8034699" lon="9.4723081"><ele>494.0</ele><time>2026-04-30T07:46:25.989Z</time></trkpt><trkpt lat="44.8033791" lon="9.4722127"><ele>493.5</ele><time>2026-04-30T07:46:27.988Z</time></trkpt><trkpt lat="44.8032849" lon="9.4721152"><ele>493.0</ele><time>2026-04-30T07:46:29.989Z</time></trkpt><trkpt lat="44.8032126" lon="9.4719872"><ele>493.00000000000006</ele><time>2026-04-30T07:46:31.988Z</time></trkpt><trkpt lat="44.8031749" lon="9.4719121"><ele>493.0</ele><time>2026-04-30T07:46:32.989Z</time></trkpt><trkpt lat="44.8031199" lon="9.4717497"><ele>493.0</ele><time>2026-04-30T07:46:34.989Z</time></trkpt><trkpt lat="44.8030963" lon="9.4716449"><ele>493.0</ele><time>2026-04-30T07:46:35.989Z</time></trkpt><trkpt lat="44.8030763" lon="9.4715502"><ele>493.00000000000006</ele><time>2026-04-30T07:46:36.989Z</time></trkpt><trkpt lat="44.8030494" lon="9.4714603"><ele>493.0</ele><time>2026-04-30T07:46:37.991Z</time></trkpt><trkpt lat="44.8030067" lon="9.4713795"><ele>493.00000000000006</ele><time>2026-04-30T07:46:38.99Z</time></trkpt><trkpt lat="44.8029566" lon="9.4713001"><ele>493.0</ele><time>2026-04-30T07:46:39.987Z</time></trkpt><trkpt lat="44.8029144" lon="9.4712137"><ele>493.0</ele><time>2026-04-30T07:46:40.987Z</time></trkpt><trkpt lat="44.8028811" lon="9.4711241"><ele>493.0</ele><time>2026-04-30T07:46:41.99Z</time></trkpt><trkpt lat="44.8028493" lon="9.4710336"><ele>493.00000000000006</ele><time>2026-04-30T07:46:42.989Z</time></trkpt><trkpt lat="44.8028106" lon="9.4709294"><ele>493.0</ele><time>2026-04-30T07:46:43.992Z</time></trkpt><trkpt lat="44.8027599" lon="9.4708155"><ele>493.50000000000006</ele><time>2026-04-30T07:46:44.988Z</time></trkpt><trkpt lat="44.8026952" lon="9.4707138"><ele>494.0</ele><time>2026-04-30T07:46:45.988Z</time></trkpt><trkpt lat="44.8026319" lon="9.4706279"><ele>494.5</ele><time>2026-04-30T07:46:46.991Z</time></trkpt><trkpt lat="44.8025759" lon="9.4705474"><ele>495.0</ele><time>2026-04-30T07:46:47.99Z</time></trkpt><trkpt lat="44.8025201" lon="9.4704571"><ele>495.50000000000006</ele><time>2026-04-30T07:46:48.99Z</time></trkpt><trkpt lat="44.8024701" lon="9.4703629"><ele>496.0</ele><time>2026-04-30T07:46:49.987Z</time></trkpt><trkpt lat="44.8024255" lon="9.4702797"><ele>496.00000000000006</ele><time>2026-04-30T07:46:50.989Z</time></trkpt><trkpt lat="44.802386" lon="9.470203"><ele>496.0</ele><time>2026-04-30T07:46:51.989Z</time></trkpt><trkpt lat="44.8023096" lon="9.4700686"><ele>496.0</ele><time>2026-04-30T07:46:53.989Z</time></trkpt><trkpt lat="44.8022613" lon="9.4700051"><ele>496.0</ele><time>2026-04-30T07:46:54.988Z</time></trkpt><trkpt lat="44.802212" lon="9.469929"><ele>496.00000000000006</ele><time>2026-04-30T07:46:55.989Z</time></trkpt><trkpt lat="44.8021698" lon="9.4698419"><ele>496.0</ele><time>2026-04-30T07:46:56.988Z</time></trkpt><trkpt lat="44.8021347" lon="9.4697543"><ele>496.0</ele><time>2026-04-30T07:46:57.988Z</time></trkpt><trkpt lat="44.8021052" lon="9.4696691"><ele>496.0</ele><time>2026-04-30T07:46:58.987Z</time></trkpt><trkpt lat="44.8020651" lon="9.4695169"><ele>496.0</ele><time>2026-04-30T07:47:00.989Z</time></trkpt><trkpt lat="44.8020465" lon="9.4693804"><ele>496.0</ele><time>2026-04-30T07:47:02.987Z</time></trkpt><trkpt lat="44.8020228" lon="9.4692391"><ele>496.0</ele><time>2026-04-30T07:47:04.987Z</time></trkpt><trkpt lat="44.8020091" lon="9.4690818"><ele>495.0</ele><time>2026-04-30T07:47:06.989Z</time></trkpt><trkpt lat="44.8020159" lon="9.4689375"><ele>494.0</ele><time>2026-04-30T07:47:08.987Z</time></trkpt><trkpt lat="44.8019819" lon="9.4688032"><ele>493.0</ele><time>2026-04-30T07:47:10.988Z</time></trkpt><trkpt lat="44.801911" lon="9.4686791"><ele>492.0</ele><time>2026-04-30T07:47:12.988Z</time></trkpt><trkpt lat="44.8018702" lon="9.4685646"><ele>491.0</ele><time>2026-04-30T07:47:14.99Z</time></trkpt><trkpt lat="44.8018642" lon="9.4684577"><ele>493.6</ele><time>2026-04-30T07:47:16.989Z</time></trkpt><trkpt lat="44.8018675" lon="9.4683404"><ele>496.20000000000005</ele><time>2026-04-30T07:47:18.99Z</time></trkpt><trkpt lat="44.8019425" lon="9.4682441"><ele>498.79999999999995</ele><time>2026-04-30T07:47:20.988Z</time></trkpt><trkpt lat="44.8020783" lon="9.4682166"><ele>501.4</ele><time>2026-04-30T07:47:22.988Z</time></trkpt><trkpt lat="44.802146" lon="9.4681824"><ele>504.0</ele><time>2026-04-30T07:47:23.989Z</time></trkpt><trkpt lat="44.8022062" lon="9.4681111"><ele>504.0</ele><time>2026-04-30T07:47:24.99Z</time></trkpt><trkpt lat="44.8022658" lon="9.4680346"><ele>504.0</ele><time>2026-04-30T07:47:25.987Z</time></trkpt><trkpt lat="44.8023174" lon="9.4679566"><ele>504.0</ele><time>2026-04-30T07:47:26.987Z</time></trkpt><trkpt lat="44.8023743" lon="9.467897"><ele>504.0</ele><time>2026-04-30T07:47:27.987Z</time></trkpt><trkpt lat="44.8024249" lon="9.4678395"><ele>504.0</ele><time>2026-04-30T07:47:28.988Z</time></trkpt><trkpt lat="44.802483" lon="9.4676997"><ele>504.0</ele><time>2026-04-30T07:47:30.988Z</time></trkpt><trkpt lat="44.8024869" lon="9.4675402"><ele>505.0</ele><time>2026-04-30T07:47:33.079Z</time></trkpt><trkpt lat="44.8024375" lon="9.4674054"><ele>506.0</ele><time>2026-04-30T07:47:34.989Z</time></trkpt><trkpt lat="44.8023895" lon="9.4672825"><ele>507.0</ele><time>2026-04-30T07:47:36.989Z</time></trkpt><trkpt lat="44.8023978" lon="9.4671271"><ele>508.0</ele><time>2026-04-30T07:47:38.99Z</time></trkpt><trkpt lat="44.8024072" lon="9.4670355"><ele>509.0</ele><time>2026-04-30T07:47:39.988Z</time></trkpt><trkpt lat="44.80242" lon="9.4669331"><ele>509.99999999999994</ele><time>2026-04-30T07:47:40.989Z</time></trkpt><trkpt lat="44.8024362" lon="9.4668288"><ele>511.0</ele><time>2026-04-30T07:47:41.988Z</time></trkpt><trkpt lat="44.8024708" lon="9.4667414"><ele>512.0</ele><time>2026-04-30T07:47:42.987Z</time></trkpt><trkpt lat="44.8025195" lon="9.4666695"><ele>513.0</ele><time>2026-04-30T07:47:43.989Z</time></trkpt><trkpt lat="44.8025733" lon="9.4665933"><ele>514.0</ele><time>2026-04-30T07:47:44.988Z</time></trkpt><trkpt lat="44.8026033" lon="9.4665133"><ele>515.0</ele><time>2026-04-30T07:47:45.988Z</time></trkpt><trkpt lat="44.80262" lon="9.4663433"><ele>517.4</ele><time>2026-04-30T07:47:47.989Z</time></trkpt><trkpt lat="44.8026367" lon="9.4661867"><ele>519.8</ele><time>2026-04-30T07:47:49.99Z</time></trkpt><trkpt lat="44.8026667" lon="9.4660267"><ele>522.2</ele><time>2026-04-30T07:47:51.99Z</time></trkpt><trkpt lat="44.80269" lon="9.465925"><ele>524.6</ele><time>2026-04-30T07:47:52.989Z</time></trkpt><trkpt lat="44.8027217" lon="9.4658267"><ele>527.0</ele><time>2026-04-30T07:47:53.989Z</time></trkpt><trkpt lat="44.80275" lon="9.4657283"><ele>522.1666666666666</ele><time>2026-04-30T07:47:54.99Z</time></trkpt><trkpt lat="44.8027683" lon="9.4656317"><ele>517.3333333333333</ele><time>2026-04-30T07:47:55.987Z</time></trkpt><trkpt lat="44.8027867" lon="9.4655383"><ele>512.5</ele><time>2026-04-30T07:47:56.991Z</time></trkpt><trkpt lat="44.80281" lon="9.465435"><ele>507.66666666666663</ele><time>2026-04-30T07:47:57.988Z</time></trkpt><trkpt lat="44.8028333" lon="9.4653317"><ele>502.8333333333333</ele><time>2026-04-30T07:47:58.988Z</time></trkpt><trkpt lat="44.8028633" lon="9.46523"><ele>498.0</ele><time>2026-04-30T07:47:59.989Z</time></trkpt><trkpt lat="44.8028967" lon="9.4651233"><ele>497.85714285714283</ele><time>2026-04-30T07:48:00.987Z</time></trkpt><trkpt lat="44.8029233" lon="9.4650267"><ele>497.71428571428567</ele><time>2026-04-30T07:48:01.988Z</time></trkpt><trkpt lat="44.80294" lon="9.46493"><ele>497.57142857142856</ele><time>2026-04-30T07:48:02.988Z</time></trkpt><trkpt lat="44.802955" lon="9.46484"><ele>497.42857142857144</ele><time>2026-04-30T07:48:03.988Z</time></trkpt><trkpt lat="44.802955" lon="9.4647483"><ele>497.2857142857143</ele><time>2026-04-30T07:48:04.99Z</time></trkpt><trkpt lat="44.80294" lon="9.46465"><ele>497.1428571428571</ele><time>2026-04-30T07:48:05.99Z</time></trkpt><trkpt lat="44.8029183" lon="9.464565"><ele>497.0</ele><time>2026-04-30T07:48:06.988Z</time></trkpt><trkpt lat="44.8028967" lon="9.4644683"><ele>495.8333333333333</ele><time>2026-04-30T07:48:07.988Z</time></trkpt><trkpt lat="44.802875" lon="9.46436"><ele>494.66666666666663</ele><time>2026-04-30T07:48:08.987Z</time></trkpt><trkpt lat="44.8028467" lon="9.4642533"><ele>493.5</ele><time>2026-04-30T07:48:09.989Z</time></trkpt><trkpt lat="44.8028317" lon="9.4641417"><ele>492.33333333333337</ele><time>2026-04-30T07:48:10.987Z</time></trkpt><trkpt lat="44.802825" lon="9.4640183"><ele>491.1666666666667</ele><time>2026-04-30T07:48:11.987Z</time></trkpt><trkpt lat="44.8028217" lon="9.4639033"><ele>490.0</ele><time>2026-04-30T07:48:12.987Z</time></trkpt><trkpt lat="44.8028217" lon="9.4638033"><ele>491.00000000000006</ele><time>2026-04-30T07:48:13.989Z</time></trkpt><trkpt lat="44.80278" lon="9.46367"><ele>492.0</ele><time>2026-04-30T07:48:15.988Z</time></trkpt><trkpt lat="44.802725" lon="9.4635967"><ele>493.0</ele><time>2026-04-30T07:48:16.99Z</time></trkpt><trkpt lat="44.8026567" lon="9.46352"><ele>494.0</ele><time>2026-04-30T07:48:17.989Z</time></trkpt><trkpt lat="44.8025817" lon="9.463455"><ele>495.00000000000006</ele><time>2026-04-30T07:48:18.992Z</time></trkpt><trkpt lat="44.8025183" lon="9.4634067"><ele>496.0</ele><time>2026-04-30T07:48:19.988Z</time></trkpt><trkpt lat="44.80241" lon="9.4633483"><ele>496.00000000000006</ele><time>2026-04-30T07:48:21.989Z</time></trkpt><trkpt lat="44.80231" lon="9.4633017"><ele>496.0</ele><time>2026-04-30T07:48:23.988Z</time></trkpt><trkpt lat="44.8022017" lon="9.4632633"><ele>496.0</ele><time>2026-04-30T07:48:25.99Z</time></trkpt><trkpt lat="44.80213" lon="9.4632533"><ele>496.0</ele><time>2026-04-30T07:48:26.989Z</time></trkpt><trkpt lat="44.8020617" lon="9.463235"><ele>496.00000000000006</ele><time>2026-04-30T07:48:27.988Z</time></trkpt><trkpt lat="44.8019933" lon="9.4632117"><ele>496.0</ele><time>2026-04-30T07:48:28.989Z</time></trkpt><trkpt lat="44.80193" lon="9.4631783"><ele>496.00000000000006</ele><time>2026-04-30T07:48:29.987Z</time></trkpt><trkpt lat="44.80187" lon="9.4631317"><ele>496.0</ele><time>2026-04-30T07:48:30.99Z</time></trkpt><trkpt lat="44.80181" lon="9.4630733"><ele>496.0</ele><time>2026-04-30T07:48:31.988Z</time></trkpt><trkpt lat="44.8017533" lon="9.4630083"><ele>496.0</ele><time>2026-04-30T07:48:32.99Z</time></trkpt><trkpt lat="44.8016967" lon="9.4629517"><ele>496.00000000000006</ele><time>2026-04-30T07:48:33.988Z</time></trkpt><trkpt lat="44.8016367" lon="9.4629083"><ele>496.0</ele><time>2026-04-30T07:48:34.988Z</time></trkpt><trkpt lat="44.8015267" lon="9.4628333"><ele>494.8</ele><time>2026-04-30T07:48:36.988Z</time></trkpt><trkpt lat="44.8014283" lon="9.4627767"><ele>493.6</ele><time>2026-04-30T07:48:38.989Z</time></trkpt><trkpt lat="44.80133" lon="9.4627617"><ele>492.4</ele><time>2026-04-30T07:48:40.988Z</time></trkpt><trkpt lat="44.801235" lon="9.4627283"><ele>491.2</ele><time>2026-04-30T07:48:42.989Z</time></trkpt><trkpt lat="44.80113" lon="9.4626433"><ele>490.0</ele><time>2026-04-30T07:48:44.989Z</time></trkpt><trkpt lat="44.80108" lon="9.462585"><ele>494.8</ele><time>2026-04-30T07:48:45.988Z</time></trkpt><trkpt lat="44.8009983" lon="9.46244"><ele>499.6</ele><time>2026-04-30T07:48:47.989Z</time></trkpt><trkpt lat="44.8009417" lon="9.4623733"><ele>504.4</ele><time>2026-04-30T07:48:48.987Z</time></trkpt><trkpt lat="44.8008833" lon="9.46231"><ele>509.2</ele><time>2026-04-30T07:48:49.992Z</time></trkpt><trkpt lat="44.8008233" lon="9.4622467"><ele>514.0</ele><time>2026-04-30T07:48:50.987Z</time></trkpt><trkpt lat="44.8007467" lon="9.4621333"><ele>513.4</ele><time>2026-04-30T07:48:52.987Z</time></trkpt><trkpt lat="44.8007133" lon="9.46198"><ele>512.8</ele><time>2026-04-30T07:48:54.987Z</time></trkpt><trkpt lat="44.80071" lon="9.4618033"><ele>512.2</ele><time>2026-04-30T07:48:56.989Z</time></trkpt><trkpt lat="44.8007117" lon="9.46169"><ele>511.6</ele><time>2026-04-30T07:48:57.986Z</time></trkpt><trkpt lat="44.8007117" lon="9.4615567"><ele>511.0</ele><time>2026-04-30T07:48:58.986Z</time></trkpt><trkpt lat="44.80071" lon="9.461415"><ele>511.1666666666667</ele><time>2026-04-30T07:48:59.986Z</time></trkpt><trkpt lat="44.800705" lon="9.4612817"><ele>511.33333333333337</ele><time>2026-04-30T07:49:00.986Z</time></trkpt><trkpt lat="44.800695" lon="9.4611633"><ele>511.5</ele><time>2026-04-30T07:49:01.99Z</time></trkpt><trkpt lat="44.8006733" lon="9.4610583"><ele>511.66666666666663</ele><time>2026-04-30T07:49:02.988Z</time></trkpt><trkpt lat="44.8006417" lon="9.4609533"><ele>511.8333333333333</ele><time>2026-04-30T07:49:03.989Z</time></trkpt><trkpt lat="44.8005833" lon="9.4608467"><ele>512.0</ele><time>2026-04-30T07:49:04.988Z</time></trkpt><trkpt lat="44.8005117" lon="9.4607517"><ele>511.99999999999994</ele><time>2026-04-30T07:49:05.988Z</time></trkpt><trkpt lat="44.8004417" lon="9.4607"><ele>512.0</ele><time>2026-04-30T07:49:06.988Z</time></trkpt><trkpt lat="44.80037" lon="9.4606817"><ele>512.0</ele><time>2026-04-30T07:49:07.988Z</time></trkpt><trkpt lat="44.80028" lon="9.4606917"><ele>512.0</ele><time>2026-04-30T07:49:08.987Z</time></trkpt><trkpt lat="44.80018" lon="9.4607117"><ele>511.99999999999994</ele><time>2026-04-30T07:49:09.988Z</time></trkpt><trkpt lat="44.80009" lon="9.460735"><ele>512.0</ele><time>2026-04-30T07:49:10.988Z</time></trkpt><trkpt lat="44.8000117" lon="9.460755"><ele>514.0</ele><time>2026-04-30T07:49:11.987Z</time></trkpt><trkpt lat="44.7999383" lon="9.46078"><ele>516.0</ele><time>2026-04-30T07:49:12.988Z</time></trkpt><trkpt lat="44.7998617" lon="9.460805"><ele>518.0</ele><time>2026-04-30T07:49:13.988Z</time></trkpt><trkpt lat="44.799795" lon="9.4608433"><ele>520.0</ele><time>2026-04-30T07:49:14.987Z</time></trkpt><trkpt lat="44.7997383" lon="9.4609033"><ele>522.0</ele><time>2026-04-30T07:49:15.987Z</time></trkpt><trkpt lat="44.7997067" lon="9.4609917"><ele>524.0</ele><time>2026-04-30T07:49:16.986Z</time></trkpt><trkpt lat="44.7997117" lon="9.461105"><ele>526.0</ele><time>2026-04-30T07:49:17.988Z</time></trkpt><trkpt lat="44.7997567" lon="9.46124"><ele>528.2</ele><time>2026-04-30T07:49:18.987Z</time></trkpt><trkpt lat="44.7998083" lon="9.461365"><ele>530.4000000000001</ele><time>2026-04-30T07:49:19.988Z</time></trkpt><trkpt lat="44.7998483" lon="9.4614817"><ele>532.6</ele><time>2026-04-30T07:49:20.989Z</time></trkpt><trkpt lat="44.799875" lon="9.4616017"><ele>534.8000000000001</ele><time>2026-04-30T07:49:21.988Z</time></trkpt><trkpt lat="44.7998933" lon="9.4617333"><ele>537.0</ele><time>2026-04-30T07:49:22.988Z</time></trkpt><trkpt lat="44.799895" lon="9.461895"><ele>537.0</ele><time>2026-04-30T07:49:23.989Z</time></trkpt><trkpt lat="44.7998917" lon="9.462065"><ele>537.0</ele><time>2026-04-30T07:49:24.988Z</time></trkpt><trkpt lat="44.7998833" lon="9.4622533"><ele>537.0</ele><time>2026-04-30T07:49:25.986Z</time></trkpt><trkpt lat="44.7998667" lon="9.462445"><ele>537.0</ele><time>2026-04-30T07:49:26.987Z</time></trkpt><trkpt lat="44.7998467" lon="9.4626083"><ele>537.5</ele><time>2026-04-30T07:49:27.988Z</time></trkpt><trkpt lat="44.7998217" lon="9.4627367"><ele>538.0</ele><time>2026-04-30T07:49:28.987Z</time></trkpt><trkpt lat="44.7997833" lon="9.4628317"><ele>538.5</ele><time>2026-04-30T07:49:29.99Z</time></trkpt><trkpt lat="44.79973" lon="9.4628917"><ele>539.0</ele><time>2026-04-30T07:49:30.987Z</time></trkpt><trkpt lat="44.79966" lon="9.4629133"><ele>539.5</ele><time>2026-04-30T07:49:31.987Z</time></trkpt><trkpt lat="44.7995667" lon="9.4629117"><ele>540.0</ele><time>2026-04-30T07:49:32.987Z</time></trkpt><trkpt lat="44.7994633" lon="9.4629017"><ele>540.0</ele><time>2026-04-30T07:49:33.986Z</time></trkpt><trkpt lat="44.7993533" lon="9.462895"><ele>540.0</ele><time>2026-04-30T07:49:34.986Z</time></trkpt><trkpt lat="44.7992383" lon="9.4628917"><ele>540.0</ele><time>2026-04-30T07:49:35.987Z</time></trkpt><trkpt lat="44.7991233" lon="9.4628983"><ele>540.0</ele><time>2026-04-30T07:49:36.989Z</time></trkpt><trkpt lat="44.7990117" lon="9.462915"><ele>546.2</ele><time>2026-04-30T07:49:37.988Z</time></trkpt><trkpt lat="44.7989083" lon="9.46296"><ele>552.4</ele><time>2026-04-30T07:49:38.988Z</time></trkpt><trkpt lat="44.7988167" lon="9.4630417"><ele>558.6</ele><time>2026-04-30T07:49:39.986Z</time></trkpt><trkpt lat="44.7987317" lon="9.4631367"><ele>564.8</ele><time>2026-04-30T07:49:40.987Z</time></trkpt><trkpt lat="44.79864" lon="9.4632183"><ele>571.0</ele><time>2026-04-30T07:49:41.986Z</time></trkpt><trkpt lat="44.798545" lon="9.46329"><ele>570.4</ele><time>2026-04-30T07:49:42.986Z</time></trkpt><trkpt lat="44.7984433" lon="9.4633333"><ele>569.8</ele><time>2026-04-30T07:49:43.988Z</time></trkpt><trkpt lat="44.7983433" lon="9.463385"><ele>569.1999999999999</ele><time>2026-04-30T07:49:44.994Z</time></trkpt><trkpt lat="44.7982517" lon="9.4634533"><ele>568.6</ele><time>2026-04-30T07:49:45.987Z</time></trkpt><trkpt lat="44.79817" lon="9.46352"><ele>568.0</ele><time>2026-04-30T07:49:46.988Z</time></trkpt><trkpt lat="44.79809" lon="9.463565"><ele>568.0</ele><time>2026-04-30T07:49:47.987Z</time></trkpt><trkpt lat="44.7980033" lon="9.4635883"><ele>568.0</ele><time>2026-04-30T07:49:48.986Z</time></trkpt><trkpt lat="44.7979167" lon="9.4635917"><ele>568.0</ele><time>2026-04-30T07:49:49.987Z</time></trkpt><trkpt lat="44.797835" lon="9.46358"><ele>568.0</ele><time>2026-04-30T07:49:50.987Z</time></trkpt><trkpt lat="44.7977667" lon="9.4635617"><ele>568.0</ele><time>2026-04-30T07:49:51.987Z</time></trkpt><trkpt lat="44.7976667" lon="9.46358"><ele>568.0</ele><time>2026-04-30T07:49:53.986Z</time></trkpt><trkpt lat="44.7976067" lon="9.4637117"><ele>571.5</ele><time>2026-04-30T07:49:55.986Z</time></trkpt><trkpt lat="44.7975067" lon="9.46379"><ele>575.0</ele><time>2026-04-30T07:49:57.989Z</time></trkpt><trkpt lat="44.7974433" lon="9.4638267"><ele>578.5</ele><time>2026-04-30T07:49:58.988Z</time></trkpt><trkpt lat="44.79738" lon="9.4638583"><ele>582.0</ele><time>2026-04-30T07:49:59.987Z</time></trkpt><trkpt lat="44.7973167" lon="9.4638767"><ele>585.5</ele><time>2026-04-30T07:50:00.988Z</time></trkpt><trkpt lat="44.797205" lon="9.4638617"><ele>589.0</ele><time>2026-04-30T07:50:02.987Z</time></trkpt><trkpt lat="44.797125" lon="9.4638083"><ele>589.0</ele><time>2026-04-30T07:50:04.989Z</time></trkpt><trkpt lat="44.7970417" lon="9.46379"><ele>589.0</ele><time>2026-04-30T07:50:24.988Z</time></trkpt><trkpt lat="44.7969783" lon="9.4637617"><ele>589.0</ele><time>2026-04-30T07:50:25.991Z</time></trkpt><trkpt lat="44.7969067" lon="9.46373"><ele>589.0</ele><time>2026-04-30T07:50:26.988Z</time></trkpt><trkpt lat="44.7968433" lon="9.4636883"><ele>589.0</ele><time>2026-04-30T07:50:27.987Z</time></trkpt><trkpt lat="44.7967683" lon="9.4635783"><ele>589.0</ele><time>2026-04-30T07:50:29.986Z</time></trkpt><trkpt lat="44.79672" lon="9.46343"><ele>588.6</ele><time>2026-04-30T07:50:31.988Z</time></trkpt><trkpt lat="44.7966517" lon="9.4632667"><ele>588.2</ele><time>2026-04-30T07:50:33.987Z</time></trkpt><trkpt lat="44.7965767" lon="9.4632283"><ele>587.8000000000001</ele><time>2026-04-30T07:50:35.986Z</time></trkpt><trkpt lat="44.7965167" lon="9.4632717"><ele>587.4</ele><time>2026-04-30T07:50:37.988Z</time></trkpt><trkpt lat="44.7964333" lon="9.463355"><ele>587.0</ele><time>2026-04-30T07:50:39.986Z</time></trkpt><trkpt lat="44.79635" lon="9.4633817"><ele>587.0</ele><time>2026-04-30T07:50:41.987Z</time></trkpt><trkpt lat="44.79629" lon="9.4632467"><ele>587.0</ele><time>2026-04-30T07:50:43.991Z</time></trkpt><trkpt lat="44.7962617" lon="9.463155"><ele>587.0</ele><time>2026-04-30T07:50:44.986Z</time></trkpt><trkpt lat="44.7962283" lon="9.4630667"><ele>587.0</ele><time>2026-04-30T07:50:45.987Z</time></trkpt><trkpt lat="44.79619" lon="9.462995"><ele>587.0</ele><time>2026-04-30T07:50:46.986Z</time></trkpt><trkpt lat="44.7961417" lon="9.462935"><ele>587.0</ele><time>2026-04-30T07:50:47.987Z</time></trkpt><trkpt lat="44.7960884" lon="9.4628755"><ele>586.0</ele><time>2026-04-30T07:50:48.986Z</time></trkpt><trkpt lat="44.796038" lon="9.4628096"><ele>585.0</ele><time>2026-04-30T07:50:49.989Z</time></trkpt><trkpt lat="44.7959908" lon="9.4627335"><ele>584.0</ele><time>2026-04-30T07:50:50.987Z</time></trkpt><trkpt lat="44.7959396" lon="9.462641"><ele>583.0</ele><time>2026-04-30T07:50:51.989Z</time></trkpt><trkpt lat="44.7958908" lon="9.4625495"><ele>582.0</ele><time>2026-04-30T07:50:52.99Z</time></trkpt><trkpt lat="44.7958479" lon="9.4624597"><ele>581.0</ele><time>2026-04-30T07:50:53.989Z</time></trkpt><trkpt lat="44.795812" lon="9.4623684"><ele>586.8</ele><time>2026-04-30T07:50:54.99Z</time></trkpt><trkpt lat="44.7957795" lon="9.4622857"><ele>592.6</ele><time>2026-04-30T07:50:55.99Z</time></trkpt><trkpt lat="44.7957227" lon="9.4621477"><ele>598.4</ele><time>2026-04-30T07:50:57.988Z</time></trkpt><trkpt lat="44.795668" lon="9.4620342"><ele>604.2</ele><time>2026-04-30T07:50:59.996Z</time></trkpt><trkpt lat="44.7956042" lon="9.4619299"><ele>610.0</ele><time>2026-04-30T07:51:01.987Z</time></trkpt><trkpt lat="44.7955247" lon="9.4618068"><ele>610.0</ele><time>2026-04-30T07:51:03.987Z</time></trkpt><trkpt lat="44.7954313" lon="9.461691"><ele>610.0</ele><time>2026-04-30T07:51:05.986Z</time></trkpt><trkpt lat="44.7953735" lon="9.4616377"><ele>610.0</ele><time>2026-04-30T07:51:06.989Z</time></trkpt><trkpt lat="44.7953133" lon="9.4615873"><ele>610.0</ele><time>2026-04-30T07:51:07.987Z</time></trkpt><trkpt lat="44.7952502" lon="9.4615442"><ele>610.0</ele><time>2026-04-30T07:51:08.987Z</time></trkpt><trkpt lat="44.7951834" lon="9.4615048"><ele>610.0</ele><time>2026-04-30T07:51:09.987Z</time></trkpt><trkpt lat="44.7951132" lon="9.4614611"><ele>613.8333333333334</ele><time>2026-04-30T07:51:10.986Z</time></trkpt><trkpt lat="44.7950383" lon="9.4614219"><ele>617.6666666666667</ele><time>2026-04-30T07:51:11.986Z</time></trkpt><trkpt lat="44.7949627" lon="9.4613899"><ele>621.5</ele><time>2026-04-30T07:51:12.99Z</time></trkpt><trkpt lat="44.7948829" lon="9.4613618"><ele>625.3333333333334</ele><time>2026-04-30T07:51:13.99Z</time></trkpt><trkpt lat="44.7948026" lon="9.4613402"><ele>629.1666666666666</ele><time>2026-04-30T07:51:14.989Z</time></trkpt><trkpt lat="44.7947233" lon="9.4613162"><ele>633.0</ele><time>2026-04-30T07:51:15.988Z</time></trkpt><trkpt lat="44.7946447" lon="9.4612902"><ele>632.0</ele><time>2026-04-30T07:51:16.988Z</time></trkpt><trkpt lat="44.7945729" lon="9.4612694"><ele>631.0</ele><time>2026-04-30T07:51:17.988Z</time></trkpt><trkpt lat="44.7944973" lon="9.4612478"><ele>630.0</ele><time>2026-04-30T07:51:18.989Z</time></trkpt><trkpt lat="44.7944198" lon="9.4612292"><ele>629.0</ele><time>2026-04-30T07:51:19.989Z</time></trkpt><trkpt lat="44.7943445" lon="9.4612098"><ele>628.0</ele><time>2026-04-30T07:51:20.988Z</time></trkpt><trkpt lat="44.7942694" lon="9.4611901"><ele>627.0</ele><time>2026-04-30T07:51:21.988Z</time></trkpt><trkpt lat="44.7941916" lon="9.461171"><ele>629.1666666666666</ele><time>2026-04-30T07:51:22.988Z</time></trkpt><trkpt lat="44.7941131" lon="9.4611565"><ele>631.3333333333334</ele><time>2026-04-30T07:51:23.989Z</time></trkpt><trkpt lat="44.794035" lon="9.4611329"><ele>633.5</ele><time>2026-04-30T07:51:24.988Z</time></trkpt><trkpt lat="44.7939582" lon="9.4611112"><ele>635.6666666666667</ele><time>2026-04-30T07:51:25.989Z</time></trkpt><trkpt lat="44.7938852" lon="9.461097"><ele>637.8333333333334</ele><time>2026-04-30T07:51:26.989Z</time></trkpt><trkpt lat="44.79382" lon="9.4611007"><ele>640.0</ele><time>2026-04-30T07:51:27.989Z</time></trkpt><trkpt lat="44.7937013" lon="9.4611119"><ele>640.0</ele><time>2026-04-30T07:51:29.988Z</time></trkpt><trkpt lat="44.7936212" lon="9.4611008"><ele>640.0</ele><time>2026-04-30T07:51:31.988Z</time></trkpt><trkpt lat="44.7935411" lon="9.4610977"><ele>640.0</ele><time>2026-04-30T07:51:34.987Z</time></trkpt><trkpt lat="44.7934639" lon="9.4611042"><ele>640.0</ele><time>2026-04-30T07:51:37.989Z</time></trkpt><trkpt lat="44.7934002" lon="9.4611269"><ele>640.0</ele><time>2026-04-30T07:51:39.988Z</time></trkpt><trkpt lat="44.7933329" lon="9.4611147"><ele>640.0</ele><time>2026-04-30T07:51:42.988Z</time></trkpt><trkpt lat="44.7933034" lon="9.4610114"><ele>641.3333333333334</ele><time>2026-04-30T07:51:46.987Z</time></trkpt><trkpt lat="44.7932867" lon="9.4608969"><ele>642.6666666666667</ele><time>2026-04-30T07:51:49.988Z</time></trkpt><trkpt lat="44.7932546" lon="9.4608093"><ele>644.0</ele><time>2026-04-30T07:51:51.989Z</time></trkpt><trkpt lat="44.7932294" lon="9.4607128"><ele>645.3333333333334</ele><time>2026-04-30T07:51:53.991Z</time></trkpt><trkpt lat="44.7932013" lon="9.4606226"><ele>646.6666666666666</ele><time>2026-04-30T07:51:55.99Z</time></trkpt><trkpt lat="44.7931472" lon="9.46057"><ele>648.0</ele><time>2026-04-30T07:51:57.99Z</time></trkpt><trkpt lat="44.793057" lon="9.4605373"><ele>648.0</ele><time>2026-04-30T07:51:59.986Z</time></trkpt><trkpt lat="44.7929884" lon="9.4605283"><ele>648.0</ele><time>2026-04-30T07:52:01.988Z</time></trkpt><trkpt lat="44.7929222" lon="9.4605176"><ele>648.0</ele><time>2026-04-30T07:52:05.99Z</time></trkpt><trkpt lat="44.792847" lon="9.4605285"><ele>648.0</ele><time>2026-04-30T07:52:09.988Z</time></trkpt><trkpt lat="44.7927776" lon="9.4605379"><ele>648.0</ele><time>2026-04-30T07:52:12.986Z</time></trkpt><trkpt lat="44.7926957" lon="9.4605345"><ele>648.0</ele><time>2026-04-30T07:52:15.987Z</time></trkpt><trkpt lat="44.792583" lon="9.4604927"><ele>648.5999999999999</ele><time>2026-04-30T07:52:17.989Z</time></trkpt><trkpt lat="44.7925173" lon="9.4604741"><ele>649.1999999999999</ele><time>2026-04-30T07:52:18.989Z</time></trkpt><trkpt lat="44.7924039" lon="9.4604338"><ele>649.8</ele><time>2026-04-30T07:52:20.989Z</time></trkpt><trkpt lat="44.7923354" lon="9.460372"><ele>650.4</ele><time>2026-04-30T07:52:22.988Z</time></trkpt><trkpt lat="44.792321" lon="9.4602266"><ele>651.0</ele><time>2026-04-30T07:52:24.988Z</time></trkpt><trkpt lat="44.7922753" lon="9.460091"><ele>648.8</ele><time>2026-04-30T07:52:26.988Z</time></trkpt><trkpt lat="44.7921934" lon="9.4600036"><ele>646.5999999999999</ele><time>2026-04-30T07:52:28.988Z</time></trkpt><trkpt lat="44.7920724" lon="9.45994"><ele>644.4</ele><time>2026-04-30T07:52:30.988Z</time></trkpt><trkpt lat="44.7920049" lon="9.4599139"><ele>642.2</ele><time>2026-04-30T07:52:31.988Z</time></trkpt><trkpt lat="44.7919129" lon="9.4598426"><ele>640.0</ele><time>2026-04-30T07:52:33.987Z</time></trkpt><trkpt lat="44.7918656" lon="9.4597493"><ele>640.0</ele><time>2026-04-30T07:52:35.986Z</time></trkpt><trkpt lat="44.7918453" lon="9.4596394"><ele>640.0</ele><time>2026-04-30T07:52:37.987Z</time></trkpt><trkpt lat="44.79181" lon="9.4595216"><ele>640.0</ele><time>2026-04-30T07:52:39.988Z</time></trkpt><trkpt lat="44.7918134" lon="9.4594326"><ele>640.0</ele><time>2026-04-30T07:52:41.989Z</time></trkpt><trkpt lat="44.7918031" lon="9.4593393"><ele>640.0</ele><time>2026-04-30T07:52:44.988Z</time></trkpt><trkpt lat="44.7917251" lon="9.4593327"><ele>640.0</ele><time>2026-04-30T07:52:49.987Z</time></trkpt><trkpt lat="44.7916294" lon="9.4593776"><ele>639.1428571428571</ele><time>2026-04-30T07:53:03.987Z</time></trkpt><trkpt lat="44.7915732" lon="9.4594337"><ele>638.2857142857143</ele><time>2026-04-30T07:53:10.988Z</time></trkpt><trkpt lat="44.7915056" lon="9.4594781"><ele>637.4285714285714</ele><time>2026-04-30T07:53:13.987Z</time></trkpt><trkpt lat="44.7914416" lon="9.4594553"><ele>636.5714285714286</ele><time>2026-04-30T07:53:17.989Z</time></trkpt><trkpt lat="44.791447" lon="9.4593645"><ele>635.7142857142857</ele><time>2026-04-30T07:53:21.988Z</time></trkpt><trkpt lat="44.7914342" lon="9.4592712"><ele>634.8571428571429</ele><time>2026-04-30T07:53:47.989Z</time></trkpt><trkpt lat="44.7914094" lon="9.45915"><ele>634.0</ele><time>2026-04-30T07:53:50.988Z</time></trkpt><trkpt lat="44.7913815" lon="9.4590614"><ele>634.0</ele><time>2026-04-30T07:53:52.989Z</time></trkpt><trkpt lat="44.7914019" lon="9.4589164"><ele>634.0</ele><time>2026-04-30T07:54:26.988Z</time></trkpt><trkpt lat="44.7914183" lon="9.4587933"><ele>634.0</ele><time>2026-04-30T07:54:28.988Z</time></trkpt><trkpt lat="44.7914633" lon="9.4587"><ele>634.0</ele><time>2026-04-30T07:54:31.987Z</time></trkpt><trkpt lat="44.7915483" lon="9.4585783"><ele>634.0</ele><time>2026-04-30T07:54:55.99Z</time></trkpt><trkpt lat="44.7915933" lon="9.4584567"><ele>633.3333333333334</ele><time>2026-04-30T07:54:57.988Z</time></trkpt><trkpt lat="44.7916617" lon="9.45833"><ele>632.6666666666667</ele><time>2026-04-30T07:54:59.986Z</time></trkpt><trkpt lat="44.7917183" lon="9.4582767"><ele>632.0</ele><time>2026-04-30T07:55:00.989Z</time></trkpt><trkpt lat="44.7917667" lon="9.4582067"><ele>631.3333333333334</ele><time>2026-04-30T07:55:01.986Z</time></trkpt><trkpt lat="44.7918033" lon="9.4581333"><ele>630.6666666666666</ele><time>2026-04-30T07:55:02.988Z</time></trkpt><trkpt lat="44.791835" lon="9.4580533"><ele>630.0</ele><time>2026-04-30T07:55:03.988Z</time></trkpt><trkpt lat="44.791875" lon="9.45793"><ele>630.0</ele><time>2026-04-30T07:55:05.987Z</time></trkpt><trkpt lat="44.7919217" lon="9.4578567"><ele>630.0</ele><time>2026-04-30T07:55:07.987Z</time></trkpt><trkpt lat="44.7919883" lon="9.457825"><ele>630.0</ele><time>2026-04-30T07:55:09.987Z</time></trkpt><trkpt lat="44.7920867" lon="9.4577533"><ele>630.0</ele><time>2026-04-30T07:55:11.99Z</time></trkpt><trkpt lat="44.79214" lon="9.4577"><ele>630.0</ele><time>2026-04-30T07:55:12.988Z</time></trkpt><trkpt lat="44.79219" lon="9.45758"><ele>630.0</ele><time>2026-04-30T07:55:14.988Z</time></trkpt><trkpt lat="44.7921917" lon="9.45741"><ele>630.0</ele><time>2026-04-30T07:55:16.989Z</time></trkpt><trkpt lat="44.7922383" lon="9.4572667"><ele>630.0</ele><time>2026-04-30T07:55:18.988Z</time></trkpt><trkpt lat="44.79232" lon="9.4571683"><ele>630.0</ele><time>2026-04-30T07:55:20.988Z</time></trkpt><trkpt lat="44.79243" lon="9.4570617"><ele>630.0</ele><time>2026-04-30T07:55:22.99Z</time></trkpt><trkpt lat="44.792545" lon="9.4569833"><ele>632.4</ele><time>2026-04-30T07:55:24.989Z</time></trkpt><trkpt lat="44.79261" lon="9.4569533"><ele>634.8</ele><time>2026-04-30T07:55:25.987Z</time></trkpt><trkpt lat="44.7927233" lon="9.4569533"><ele>637.2</ele><time>2026-04-30T07:55:27.986Z</time></trkpt><trkpt lat="44.7928467" lon="9.45699"><ele>639.6</ele><time>2026-04-30T07:55:29.986Z</time></trkpt><trkpt lat="44.79292" lon="9.4570167"><ele>642.0</ele><time>2026-04-30T07:55:30.987Z</time></trkpt><trkpt lat="44.7929917" lon="9.4570517"><ele>642.0</ele><time>2026-04-30T07:55:31.987Z</time></trkpt><trkpt lat="44.7930883" lon="9.4570667"><ele>642.0</ele><time>2026-04-30T07:55:33.99Z</time></trkpt><trkpt lat="44.7931567" lon="9.4570033"><ele>642.0</ele><time>2026-04-30T07:55:35.988Z</time></trkpt><trkpt lat="44.793235" lon="9.4569117"><ele>642.0</ele><time>2026-04-30T07:55:37.988Z</time></trkpt><trkpt lat="44.7933167" lon="9.4568367"><ele>642.0</ele><time>2026-04-30T07:55:39.988Z</time></trkpt><trkpt lat="44.793405" lon="9.4567817"><ele>637.2</ele><time>2026-04-30T07:55:41.989Z</time></trkpt><trkpt lat="44.7935117" lon="9.4567583"><ele>632.4000000000001</ele><time>2026-04-30T07:55:43.987Z</time></trkpt><trkpt lat="44.7936117" lon="9.4567117"><ele>627.5999999999999</ele><time>2026-04-30T07:55:45.987Z</time></trkpt><trkpt lat="44.7937117" lon="9.4566333"><ele>622.8</ele><time>2026-04-30T07:55:47.989Z</time></trkpt><trkpt lat="44.793775" lon="9.456605"><ele>618.0</ele><time>2026-04-30T07:55:48.988Z</time></trkpt><trkpt lat="44.793835" lon="9.4565717"><ele>618.0</ele><time>2026-04-30T07:55:49.989Z</time></trkpt><trkpt lat="44.7939017" lon="9.45653"><ele>618.0</ele><time>2026-04-30T07:55:50.988Z</time></trkpt><trkpt lat="44.7939783" lon="9.4564817"><ele>618.0</ele><time>2026-04-30T07:55:51.988Z</time></trkpt><trkpt lat="44.7940583" lon="9.4564417"><ele>618.0</ele><time>2026-04-30T07:55:52.988Z</time></trkpt><trkpt lat="44.79414" lon="9.456415"><ele>618.0</ele><time>2026-04-30T07:55:53.989Z</time></trkpt><trkpt lat="44.7942367" lon="9.4563483"><ele>618.0</ele><time>2026-04-30T07:55:55.987Z</time></trkpt><trkpt lat="44.7942617" lon="9.4562083"><ele>616.0</ele><time>2026-04-30T07:55:57.988Z</time></trkpt><trkpt lat="44.7942767" lon="9.4561"><ele>614.0</ele><time>2026-04-30T07:55:58.988Z</time></trkpt><trkpt lat="44.794305" lon="9.455965"><ele>612.0</ele><time>2026-04-30T07:55:59.987Z</time></trkpt><trkpt lat="44.7943267" lon="9.4558417"><ele>610.0</ele><time>2026-04-30T07:56:00.987Z</time></trkpt><trkpt lat="44.79435" lon="9.455715"><ele>608.0</ele><time>2026-04-30T07:56:01.986Z</time></trkpt><trkpt lat="44.7943783" lon="9.4555833"><ele>608.0</ele><time>2026-04-30T07:56:02.989Z</time></trkpt><trkpt lat="44.79441" lon="9.4554667"><ele>608.0</ele><time>2026-04-30T07:56:03.987Z</time></trkpt><trkpt lat="44.794435" lon="9.4553767"><ele>608.0</ele><time>2026-04-30T07:56:04.992Z</time></trkpt><trkpt lat="44.7944717" lon="9.455295"><ele>608.0</ele><time>2026-04-30T07:56:05.992Z</time></trkpt><trkpt lat="44.794515" lon="9.4552183"><ele>608.0</ele><time>2026-04-30T07:56:06.988Z</time></trkpt><trkpt lat="44.79456" lon="9.4551483"><ele>608.0</ele><time>2026-04-30T07:56:07.988Z</time></trkpt><trkpt lat="44.7946167" lon="9.4550883"><ele>608.0</ele><time>2026-04-30T07:56:08.987Z</time></trkpt><trkpt lat="44.7947183" lon="9.4550133"><ele>611.1999999999999</ele><time>2026-04-30T07:56:10.987Z</time></trkpt><trkpt lat="44.7948133" lon="9.45501"><ele>614.4</ele><time>2026-04-30T07:56:12.992Z</time></trkpt><trkpt lat="44.7948767" lon="9.45502"><ele>617.5999999999999</ele><time>2026-04-30T07:56:13.988Z</time></trkpt><trkpt lat="44.7949467" lon="9.4550183"><ele>620.8</ele><time>2026-04-30T07:56:14.988Z</time></trkpt><trkpt lat="44.7950567" lon="9.4549667"><ele>624.0</ele><time>2026-04-30T07:56:16.988Z</time></trkpt><trkpt lat="44.7951183" lon="9.4548183"><ele>624.0</ele><time>2026-04-30T07:56:18.988Z</time></trkpt><trkpt lat="44.7951317" lon="9.454715"><ele>624.0</ele><time>2026-04-30T07:56:19.988Z</time></trkpt><trkpt lat="44.7951467" lon="9.4546233"><ele>624.0</ele><time>2026-04-30T07:56:20.987Z</time></trkpt><trkpt lat="44.79517" lon="9.4544533"><ele>624.0</ele><time>2026-04-30T07:56:22.988Z</time></trkpt><trkpt lat="44.7951917" lon="9.4542983"><ele>624.0</ele><time>2026-04-30T07:56:24.987Z</time></trkpt><trkpt lat="44.7952133" lon="9.45415"><ele>624.2</ele><time>2026-04-30T07:56:26.989Z</time></trkpt><trkpt lat="44.795225" lon="9.4540117"><ele>624.4</ele><time>2026-04-30T07:56:28.987Z</time></trkpt><trkpt lat="44.7952067" lon="9.45388"><ele>624.6</ele><time>2026-04-30T07:56:30.987Z</time></trkpt><trkpt lat="44.795165" lon="9.4537567"><ele>624.8</ele><time>2026-04-30T07:56:32.991Z</time></trkpt><trkpt lat="44.79512" lon="9.4536717"><ele>625.0</ele><time>2026-04-30T07:56:34.988Z</time></trkpt><trkpt lat="44.79506" lon="9.453575"><ele>625.0</ele><time>2026-04-30T07:56:36.99Z</time></trkpt><trkpt lat="44.794985" lon="9.4534833"><ele>625.0</ele><time>2026-04-30T07:56:38.989Z</time></trkpt><trkpt lat="44.79495" lon="9.4533867"><ele>625.0</ele><time>2026-04-30T07:56:40.99Z</time></trkpt><trkpt lat="44.79495" lon="9.4532633"><ele>625.0</ele><time>2026-04-30T07:56:42.988Z</time></trkpt><trkpt lat="44.7949717" lon="9.4531383"><ele>625.0</ele><time>2026-04-30T07:56:44.988Z</time></trkpt><trkpt lat="44.7949517" lon="9.4530267"><ele>625.0</ele><time>2026-04-30T07:56:46.987Z</time></trkpt><trkpt lat="44.7949383" lon="9.452935"><ele>624.4</ele><time>2026-04-30T07:56:48.989Z</time></trkpt><trkpt lat="44.7949217" lon="9.45283"><ele>623.8</ele><time>2026-04-30T07:56:51.987Z</time></trkpt><trkpt lat="44.7949467" lon="9.4527133"><ele>623.2</ele><time>2026-04-30T07:56:53.988Z</time></trkpt><trkpt lat="44.7949717" lon="9.4525733"><ele>622.6</ele><time>2026-04-30T07:56:55.988Z</time></trkpt><trkpt lat="44.794965" lon="9.4524317"><ele>622.0</ele><time>2026-04-30T07:56:57.988Z</time></trkpt><trkpt lat="44.79498" lon="9.4523033"><ele>622.0</ele><time>2026-04-30T07:56:59.989Z</time></trkpt><trkpt lat="44.7950217" lon="9.452195"><ele>622.0</ele><time>2026-04-30T07:57:01.99Z</time></trkpt><trkpt lat="44.79507" lon="9.4520683"><ele>622.0</ele><time>2026-04-30T07:57:03.988Z</time></trkpt><trkpt lat="44.795085" lon="9.45193"><ele>622.0</ele><time>2026-04-30T07:57:05.989Z</time></trkpt><trkpt lat="44.79508" lon="9.4518367"><ele>622.0</ele><time>2026-04-30T07:57:06.989Z</time></trkpt><trkpt lat="44.7950817" lon="9.4517333"><ele>622.0</ele><time>2026-04-30T07:57:07.991Z</time></trkpt><trkpt lat="44.795095" lon="9.4516383"><ele>622.3333333333334</ele><time>2026-04-30T07:57:08.988Z</time></trkpt><trkpt lat="44.7951233" lon="9.4515517"><ele>622.6666666666667</ele><time>2026-04-30T07:57:09.988Z</time></trkpt><trkpt lat="44.7951717" lon="9.45147"><ele>623.0</ele><time>2026-04-30T07:57:10.988Z</time></trkpt><trkpt lat="44.7952433" lon="9.45139"><ele>623.3333333333334</ele><time>2026-04-30T07:57:11.99Z</time></trkpt><trkpt lat="44.7953233" lon="9.4513117"><ele>623.6666666666666</ele><time>2026-04-30T07:57:12.987Z</time></trkpt><trkpt lat="44.7953983" lon="9.4512483"><ele>624.0</ele><time>2026-04-30T07:57:13.988Z</time></trkpt><trkpt lat="44.79549" lon="9.4511867"><ele>623.0</ele><time>2026-04-30T07:57:14.99Z</time></trkpt><trkpt lat="44.7955867" lon="9.4511383"><ele>622.0</ele><time>2026-04-30T07:57:15.987Z</time></trkpt><trkpt lat="44.7957" lon="9.45109"><ele>621.0</ele><time>2026-04-30T07:57:16.99Z</time></trkpt><trkpt lat="44.795805" lon="9.45105"><ele>620.0</ele><time>2026-04-30T07:57:17.987Z</time></trkpt><trkpt lat="44.7959117" lon="9.4510117"><ele>619.0</ele><time>2026-04-30T07:57:18.987Z</time></trkpt><trkpt lat="44.7959967" lon="9.450975"><ele>615.0</ele><time>2026-04-30T07:57:19.988Z</time></trkpt><trkpt lat="44.796075" lon="9.45093"><ele>611.0</ele><time>2026-04-30T07:57:20.988Z</time></trkpt><trkpt lat="44.7961433" lon="9.4508783"><ele>607.0</ele><time>2026-04-30T07:57:21.989Z</time></trkpt><trkpt lat="44.7962067" lon="9.4508133"><ele>603.0</ele><time>2026-04-30T07:57:22.988Z</time></trkpt><trkpt lat="44.7962583" lon="9.4507433"><ele>599.0</ele><time>2026-04-30T07:57:23.987Z</time></trkpt><trkpt lat="44.79632" lon="9.4506267"><ele>595.0</ele><time>2026-04-30T07:57:25.989Z</time></trkpt><trkpt lat="44.796385" lon="9.4505533"><ele>595.0</ele><time>2026-04-30T07:57:27.99Z</time></trkpt><trkpt lat="44.7964633" lon="9.4505267"><ele>595.0</ele><time>2026-04-30T07:57:29.989Z</time></trkpt><trkpt lat="44.7965633" lon="9.4505083"><ele>595.0</ele><time>2026-04-30T07:57:31.989Z</time></trkpt><trkpt lat="44.79664" lon="9.4504283"><ele>595.0</ele><time>2026-04-30T07:57:33.988Z</time></trkpt><trkpt lat="44.7967083" lon="9.4503333"><ele>595.0</ele><time>2026-04-30T07:57:35.988Z</time></trkpt><trkpt lat="44.7967667" lon="9.4502433"><ele>597.2</ele><time>2026-04-30T07:57:37.99Z</time></trkpt><trkpt lat="44.796835" lon="9.450125"><ele>599.4</ele><time>2026-04-30T07:57:39.988Z</time></trkpt><trkpt lat="44.7969" lon="9.449985"><ele>601.6</ele><time>2026-04-30T07:57:41.987Z</time></trkpt><trkpt lat="44.7969367" lon="9.4498483"><ele>603.8</ele><time>2026-04-30T07:57:43.989Z</time></trkpt><trkpt lat="44.7969617" lon="9.4497167"><ele>606.0</ele><time>2026-04-30T07:57:45.987Z</time></trkpt><trkpt lat="44.7969783" lon="9.44956"><ele>606.0</ele><time>2026-04-30T07:57:47.987Z</time></trkpt><trkpt lat="44.7969883" lon="9.44941"><ele>606.0</ele><time>2026-04-30T07:57:49.988Z</time></trkpt><trkpt lat="44.7970317" lon="9.4492483"><ele>606.0</ele><time>2026-04-30T07:57:51.988Z</time></trkpt><trkpt lat="44.7971167" lon="9.4491333"><ele>606.0</ele><time>2026-04-30T07:57:53.989Z</time></trkpt><trkpt lat="44.7972383" lon="9.4490817"><ele>606.0</ele><time>2026-04-30T07:57:55.989Z</time></trkpt><trkpt lat="44.7973133" lon="9.4490683"><ele>606.0</ele><time>2026-04-30T07:57:56.992Z</time></trkpt><trkpt lat="44.7973867" lon="9.4490417"><ele>606.0</ele><time>2026-04-30T07:57:57.988Z</time></trkpt><trkpt lat="44.7974483" lon="9.4490083"><ele>606.0</ele><time>2026-04-30T07:57:58.986Z</time></trkpt><trkpt lat="44.797515" lon="9.4489767"><ele>606.0</ele><time>2026-04-30T07:57:59.989Z</time></trkpt><trkpt lat="44.7975783" lon="9.44896"><ele>606.0</ele><time>2026-04-30T07:58:00.988Z</time></trkpt><trkpt lat="44.7976467" lon="9.4489567"><ele>606.0</ele><time>2026-04-30T07:58:01.986Z</time></trkpt><trkpt lat="44.7977183" lon="9.448955"><ele>603.4</ele><time>2026-04-30T07:58:02.988Z</time></trkpt><trkpt lat="44.79779" lon="9.4489483"><ele>600.8</ele><time>2026-04-30T07:58:03.988Z</time></trkpt><trkpt lat="44.7978567" lon="9.4489533"><ele>598.1999999999999</ele><time>2026-04-30T07:58:04.991Z</time></trkpt><trkpt lat="44.7979717" lon="9.4489467"><ele>595.6</ele><time>2026-04-30T07:58:06.989Z</time></trkpt><trkpt lat="44.7980817" lon="9.4489517"><ele>593.0</ele><time>2026-04-30T07:58:08.99Z</time></trkpt><trkpt lat="44.798195" lon="9.44897"><ele>593.0</ele><time>2026-04-30T07:58:10.988Z</time></trkpt><trkpt lat="44.7982633" lon="9.4489767"><ele>593.0</ele><time>2026-04-30T07:58:11.987Z</time></trkpt><trkpt lat="44.79833" lon="9.4489867"><ele>593.0</ele><time>2026-04-30T07:58:12.988Z</time></trkpt><trkpt lat="44.7984117" lon="9.4489983"><ele>593.0</ele><time>2026-04-30T07:58:13.989Z</time></trkpt><trkpt lat="44.79848" lon="9.44901"><ele>593.0</ele><time>2026-04-30T07:58:14.989Z</time></trkpt><trkpt lat="44.79857" lon="9.4489733"><ele>593.0</ele><time>2026-04-30T07:58:16.99Z</time></trkpt><trkpt lat="44.7986" lon="9.4488683"><ele>595.1999999999999</ele><time>2026-04-30T07:58:18.987Z</time></trkpt><trkpt lat="44.7985767" lon="9.4487533"><ele>597.4</ele><time>2026-04-30T07:58:20.988Z</time></trkpt><trkpt lat="44.79853" lon="9.4486567"><ele>599.5999999999999</ele><time>2026-04-30T07:58:22.987Z</time></trkpt><trkpt lat="44.798495" lon="9.4485417"><ele>601.8</ele><time>2026-04-30T07:58:24.987Z</time></trkpt><trkpt lat="44.7984533" lon="9.4483917"><ele>604.0</ele><time>2026-04-30T07:58:26.987Z</time></trkpt><trkpt lat="44.7984117" lon="9.4482767"><ele>604.0</ele><time>2026-04-30T07:58:28.988Z</time></trkpt><trkpt lat="44.798345" lon="9.4481483"><ele>604.0</ele><time>2026-04-30T07:58:30.987Z</time></trkpt><trkpt lat="44.7982867" lon="9.44805"><ele>604.0</ele><time>2026-04-30T07:58:32.99Z</time></trkpt><trkpt lat="44.7982633" lon="9.4479567"><ele>604.0</ele><time>2026-04-30T07:58:34.992Z</time></trkpt><trkpt lat="44.798265" lon="9.4478117"><ele>604.0</ele><time>2026-04-30T07:58:36.989Z</time></trkpt><trkpt lat="44.79827" lon="9.447645"><ele>602.5</ele><time>2026-04-30T07:58:38.988Z</time></trkpt><trkpt lat="44.798295" lon="9.4475017"><ele>601.0</ele><time>2026-04-30T07:58:40.988Z</time></trkpt><trkpt lat="44.7983033" lon="9.447385"><ele>599.5</ele><time>2026-04-30T07:58:42.987Z</time></trkpt><trkpt lat="44.7982967" lon="9.4472883"><ele>598.0</ele><time>2026-04-30T07:58:44.987Z</time></trkpt><trkpt lat="44.7982683" lon="9.447205"><ele>596.5</ele><time>2026-04-30T07:58:46.988Z</time></trkpt><trkpt lat="44.7982217" lon="9.4471383"><ele>595.0</ele><time>2026-04-30T07:58:48.991Z</time></trkpt><trkpt lat="44.7981617" lon="9.4470567"><ele>591.2</ele><time>2026-04-30T07:58:50.99Z</time></trkpt><trkpt lat="44.7980767" lon="9.4469433"><ele>587.4</ele><time>2026-04-30T07:58:52.989Z</time></trkpt><trkpt lat="44.797985" lon="9.446855"><ele>583.6</ele><time>2026-04-30T07:58:54.989Z</time></trkpt><trkpt lat="44.7979" lon="9.4467667"><ele>579.8</ele><time>2026-04-30T07:58:56.988Z</time></trkpt><trkpt lat="44.79781" lon="9.4466867"><ele>576.0</ele><time>2026-04-30T07:58:58.988Z</time></trkpt><trkpt lat="44.79774" lon="9.4465983"><ele>576.2</ele><time>2026-04-30T07:59:00.988Z</time></trkpt><trkpt lat="44.7976483" lon="9.4464817"><ele>576.4000000000001</ele><time>2026-04-30T07:59:02.988Z</time></trkpt><trkpt lat="44.7976033" lon="9.4464133"><ele>576.6</ele><time>2026-04-30T07:59:03.987Z</time></trkpt><trkpt lat="44.7975333" lon="9.446275"><ele>576.8000000000001</ele><time>2026-04-30T07:59:05.987Z</time></trkpt><trkpt lat="44.797455" lon="9.44618"><ele>577.0</ele><time>2026-04-30T07:59:07.987Z</time></trkpt><trkpt lat="44.79737" lon="9.446105"><ele>577.0</ele><time>2026-04-30T07:59:09.989Z</time></trkpt><trkpt lat="44.7973067" lon="9.446035"><ele>577.0</ele><time>2026-04-30T07:59:11.99Z</time></trkpt><trkpt lat="44.7971983" lon="9.4459317"><ele>577.0</ele><time>2026-04-30T07:59:23.99Z</time></trkpt><trkpt lat="44.7970967" lon="9.4458417"><ele>577.0</ele><time>2026-04-30T07:59:25.987Z</time></trkpt><trkpt lat="44.7970417" lon="9.4457833"><ele>577.0</ele><time>2026-04-30T07:59:26.988Z</time></trkpt><trkpt lat="44.7969817" lon="9.4457067"><ele>577.0</ele><time>2026-04-30T07:59:27.988Z</time></trkpt><trkpt lat="44.7969367" lon="9.4456433"><ele>577.0</ele><time>2026-04-30T07:59:28.988Z</time></trkpt><trkpt lat="44.7968883" lon="9.4455733"><ele>577.0</ele><time>2026-04-30T07:59:29.988Z</time></trkpt><trkpt lat="44.79685" lon="9.445495"><ele>577.0</ele><time>2026-04-30T07:59:30.988Z</time></trkpt><trkpt lat="44.7968133" lon="9.4454017"><ele>577.0</ele><time>2026-04-30T07:59:31.988Z</time></trkpt><trkpt lat="44.7967917" lon="9.4452983"><ele>577.0</ele><time>2026-04-30T07:59:32.989Z</time></trkpt><trkpt lat="44.79677" lon="9.4451883"><ele>577.0</ele><time>2026-04-30T07:59:33.989Z</time></trkpt><trkpt lat="44.7967517" lon="9.4450717"><ele>578.3333333333334</ele><time>2026-04-30T07:59:34.99Z</time></trkpt><trkpt lat="44.7967383" lon="9.44496"><ele>579.6666666666667</ele><time>2026-04-30T07:59:35.987Z</time></trkpt><trkpt lat="44.7967117" lon="9.4448733"><ele>581.0</ele><time>2026-04-30T07:59:36.987Z</time></trkpt><trkpt lat="44.796635" lon="9.4447767"><ele>582.3333333333334</ele><time>2026-04-30T07:59:38.987Z</time></trkpt><trkpt lat="44.79652" lon="9.4447317"><ele>583.6666666666666</ele><time>2026-04-30T07:59:40.987Z</time></trkpt><trkpt lat="44.79645" lon="9.4446967"><ele>585.0</ele><time>2026-04-30T07:59:41.988Z</time></trkpt><trkpt lat="44.7963767" lon="9.4446567"><ele>582.4</ele><time>2026-04-30T07:59:42.989Z</time></trkpt><trkpt lat="44.7962933" lon="9.4446017"><ele>579.8</ele><time>2026-04-30T07:59:43.988Z</time></trkpt><trkpt lat="44.79621" lon="9.4445267"><ele>577.2</ele><time>2026-04-30T07:59:44.987Z</time></trkpt><trkpt lat="44.7961333" lon="9.4444367"><ele>574.6</ele><time>2026-04-30T07:59:45.988Z</time></trkpt><trkpt lat="44.7960683" lon="9.4443333"><ele>572.0</ele><time>2026-04-30T07:59:46.988Z</time></trkpt><trkpt lat="44.7960233" lon="9.4442433"><ele>573.8333333333333</ele><time>2026-04-30T07:59:47.988Z</time></trkpt><trkpt lat="44.795975" lon="9.4441717"><ele>575.6666666666666</ele><time>2026-04-30T07:59:48.991Z</time></trkpt><trkpt lat="44.795915" lon="9.44412"><ele>577.5</ele><time>2026-04-30T07:59:49.99Z</time></trkpt><trkpt lat="44.7958483" lon="9.4440883"><ele>579.3333333333334</ele><time>2026-04-30T07:59:50.987Z</time></trkpt><trkpt lat="44.7957767" lon="9.444065"><ele>581.1666666666667</ele><time>2026-04-30T07:59:51.988Z</time></trkpt><trkpt lat="44.7956867" lon="9.4440433"><ele>583.0</ele><time>2026-04-30T07:59:52.987Z</time></trkpt><trkpt lat="44.7955983" lon="9.4440417"><ele>583.0</ele><time>2026-04-30T07:59:53.989Z</time></trkpt><trkpt lat="44.795515" lon="9.4440633"><ele>583.0</ele><time>2026-04-30T07:59:54.989Z</time></trkpt><trkpt lat="44.7954483" lon="9.4441167"><ele>583.0</ele><time>2026-04-30T07:59:55.987Z</time></trkpt><trkpt lat="44.7954" lon="9.44419"><ele>583.0</ele><time>2026-04-30T07:59:56.987Z</time></trkpt><trkpt lat="44.7953583" lon="9.4442633"><ele>583.0</ele><time>2026-04-30T07:59:57.989Z</time></trkpt><trkpt lat="44.7952733" lon="9.4443583"><ele>583.0</ele><time>2026-04-30T07:59:59.987Z</time></trkpt><trkpt lat="44.79518" lon="9.4444017"><ele>582.8333333333334</ele><time>2026-04-30T08:00:01.989Z</time></trkpt><trkpt lat="44.795115" lon="9.4445083"><ele>582.6666666666667</ele><time>2026-04-30T08:00:03.988Z</time></trkpt><trkpt lat="44.7950767" lon="9.4446033"><ele>582.5</ele><time>2026-04-30T08:00:04.987Z</time></trkpt><trkpt lat="44.795035" lon="9.4446933"><ele>582.3333333333334</ele><time>2026-04-30T08:00:05.988Z</time></trkpt><trkpt lat="44.7949883" lon="9.44476"><ele>582.1666666666666</ele><time>2026-04-30T08:00:06.988Z</time></trkpt><trkpt lat="44.7948617" lon="9.4447833"><ele>582.0</ele><time>2026-04-30T08:00:08.989Z</time></trkpt><trkpt lat="44.7947917" lon="9.4447517"><ele>582.0</ele><time>2026-04-30T08:00:09.989Z</time></trkpt><trkpt lat="44.7947217" lon="9.4447033"><ele>582.0</ele><time>2026-04-30T08:00:10.987Z</time></trkpt><trkpt lat="44.79466" lon="9.44462"><ele>582.0</ele><time>2026-04-30T08:00:11.987Z</time></trkpt><trkpt lat="44.7946167" lon="9.44451"><ele>582.0</ele><time>2026-04-30T08:00:12.988Z</time></trkpt><trkpt lat="44.794575" lon="9.4444017"><ele>582.0</ele><time>2026-04-30T08:00:13.987Z</time></trkpt><trkpt lat="44.7945333" lon="9.4442933"><ele>582.0</ele><time>2026-04-30T08:00:14.988Z</time></trkpt><trkpt lat="44.794495" lon="9.4441933"><ele>582.0</ele><time>2026-04-30T08:00:15.988Z</time></trkpt><trkpt lat="44.7944417" lon="9.4440917"><ele>582.0</ele><time>2026-04-30T08:00:16.988Z</time></trkpt><trkpt lat="44.794385" lon="9.4439933"><ele>582.0</ele><time>2026-04-30T08:00:17.988Z</time></trkpt><trkpt lat="44.7943333" lon="9.443895"><ele>582.0</ele><time>2026-04-30T08:00:18.988Z</time></trkpt><trkpt lat="44.7942833" lon="9.4438017"><ele>582.0</ele><time>2026-04-30T08:00:19.988Z</time></trkpt><trkpt lat="44.7942317" lon="9.4437033"><ele>582.0</ele><time>2026-04-30T08:00:20.988Z</time></trkpt><trkpt lat="44.7941767" lon="9.4436033"><ele>582.3333333333334</ele><time>2026-04-30T08:00:21.988Z</time></trkpt><trkpt lat="44.7941183" lon="9.443505"><ele>582.6666666666666</ele><time>2026-04-30T08:00:22.988Z</time></trkpt><trkpt lat="44.7940583" lon="9.4434217"><ele>583.0</ele><time>2026-04-30T08:00:23.987Z</time></trkpt><trkpt lat="44.794005" lon="9.4433367"><ele>583.3333333333333</ele><time>2026-04-30T08:00:24.988Z</time></trkpt><trkpt lat="44.793955" lon="9.44325"><ele>583.6666666666666</ele><time>2026-04-30T08:00:25.987Z</time></trkpt><trkpt lat="44.793915" lon="9.4431733"><ele>584.0</ele><time>2026-04-30T08:00:26.988Z</time></trkpt><trkpt lat="44.79387" lon="9.4430883"><ele>584.0</ele><time>2026-04-30T08:00:27.99Z</time></trkpt><trkpt lat="44.7938283" lon="9.443"><ele>584.0</ele><time>2026-04-30T08:00:28.987Z</time></trkpt><trkpt lat="44.793775" lon="9.4429183"><ele>584.0</ele><time>2026-04-30T08:00:29.989Z</time></trkpt><trkpt lat="44.7937017" lon="9.4428383"><ele>584.0</ele><time>2026-04-30T08:00:30.989Z</time></trkpt><trkpt lat="44.7936267" lon="9.442755"><ele>584.0</ele><time>2026-04-30T08:00:31.99Z</time></trkpt><trkpt lat="44.793555" lon="9.44266"><ele>584.0</ele><time>2026-04-30T08:00:32.988Z</time></trkpt><trkpt lat="44.7934833" lon="9.4425617"><ele>584.4</ele><time>2026-04-30T08:00:33.987Z</time></trkpt><trkpt lat="44.793405" lon="9.4424633"><ele>584.8</ele><time>2026-04-30T08:00:34.987Z</time></trkpt><trkpt lat="44.793335" lon="9.4423817"><ele>585.2</ele><time>2026-04-30T08:00:35.989Z</time></trkpt><trkpt lat="44.7932667" lon="9.4423233"><ele>585.6</ele><time>2026-04-30T08:00:36.989Z</time></trkpt><trkpt lat="44.7932033" lon="9.4422867"><ele>586.0</ele><time>2026-04-30T08:00:37.99Z</time></trkpt><trkpt lat="44.7930983" lon="9.4423083"><ele>586.0</ele><time>2026-04-30T08:00:39.991Z</time></trkpt><trkpt lat="44.79303" lon="9.442445"><ele>586.0</ele><time>2026-04-30T08:00:41.988Z</time></trkpt><trkpt lat="44.793" lon="9.4425483"><ele>586.0</ele><time>2026-04-30T08:00:42.988Z</time></trkpt><trkpt lat="44.7929617" lon="9.442675"><ele>586.0</ele><time>2026-04-30T08:00:43.987Z</time></trkpt><trkpt lat="44.79292" lon="9.4428017"><ele>586.0</ele><time>2026-04-30T08:00:44.988Z</time></trkpt><trkpt lat="44.7928667" lon="9.4429117"><ele>588.1666666666667</ele><time>2026-04-30T08:00:45.989Z</time></trkpt><trkpt lat="44.792805" lon="9.4430083"><ele>590.3333333333334</ele><time>2026-04-30T08:00:46.988Z</time></trkpt><trkpt lat="44.792745" lon="9.443105"><ele>592.5</ele><time>2026-04-30T08:00:47.989Z</time></trkpt><trkpt lat="44.7926867" lon="9.443205"><ele>594.6666666666666</ele><time>2026-04-30T08:00:48.987Z</time></trkpt><trkpt lat="44.7926267" lon="9.443295"><ele>596.8333333333333</ele><time>2026-04-30T08:00:49.989Z</time></trkpt><trkpt lat="44.7925617" lon="9.4433733"><ele>599.0</ele><time>2026-04-30T08:00:50.987Z</time></trkpt><trkpt lat="44.79249" lon="9.4434433"><ele>599.0</ele><time>2026-04-30T08:00:51.989Z</time></trkpt><trkpt lat="44.7924083" lon="9.4434933"><ele>599.0</ele><time>2026-04-30T08:00:52.989Z</time></trkpt><trkpt lat="44.79231" lon="9.4435317"><ele>599.0</ele><time>2026-04-30T08:00:53.988Z</time></trkpt><trkpt lat="44.7922133" lon="9.4435717"><ele>599.0</ele><time>2026-04-30T08:00:54.991Z</time></trkpt><trkpt lat="44.7921233" lon="9.4436267"><ele>599.0</ele><time>2026-04-30T08:00:55.988Z</time></trkpt><trkpt lat="44.7920333" lon="9.4436817"><ele>599.0</ele><time>2026-04-30T08:00:56.987Z</time></trkpt><trkpt lat="44.7919467" lon="9.4437317"><ele>599.0</ele><time>2026-04-30T08:00:57.989Z</time></trkpt><trkpt lat="44.791865" lon="9.4437717"><ele>599.0</ele><time>2026-04-30T08:00:58.989Z</time></trkpt><trkpt lat="44.7917817" lon="9.443785"><ele>599.0</ele><time>2026-04-30T08:00:59.988Z</time></trkpt><trkpt lat="44.791695" lon="9.44379"><ele>599.0</ele><time>2026-04-30T08:01:00.989Z</time></trkpt><trkpt lat="44.7915967" lon="9.4437917"><ele>599.0</ele><time>2026-04-30T08:01:01.987Z</time></trkpt><trkpt lat="44.7914983" lon="9.4437917"><ele>597.3333333333333</ele><time>2026-04-30T08:01:02.989Z</time></trkpt><trkpt lat="44.79141" lon="9.4437883"><ele>595.6666666666666</ele><time>2026-04-30T08:01:03.988Z</time></trkpt><trkpt lat="44.791325" lon="9.4437817"><ele>594.0</ele><time>2026-04-30T08:01:04.989Z</time></trkpt><trkpt lat="44.7912433" lon="9.4437483"><ele>592.3333333333334</ele><time>2026-04-30T08:01:05.988Z</time></trkpt><trkpt lat="44.7911683" lon="9.4437083"><ele>590.6666666666667</ele><time>2026-04-30T08:01:06.989Z</time></trkpt><trkpt lat="44.7910983" lon="9.4436667"><ele>589.0</ele><time>2026-04-30T08:01:07.99Z</time></trkpt><trkpt lat="44.7910183" lon="9.4436433"><ele>588.8</ele><time>2026-04-30T08:01:08.989Z</time></trkpt><trkpt lat="44.7909433" lon="9.4436433"><ele>588.5999999999999</ele><time>2026-04-30T08:01:09.99Z</time></trkpt><trkpt lat="44.7908283" lon="9.4436883"><ele>588.4</ele><time>2026-04-30T08:01:11.989Z</time></trkpt><trkpt lat="44.7907283" lon="9.4437167"><ele>588.1999999999999</ele><time>2026-04-30T08:01:13.987Z</time></trkpt><trkpt lat="44.7906367" lon="9.4436967"><ele>588.0</ele><time>2026-04-30T08:01:15.988Z</time></trkpt><trkpt lat="44.790555" lon="9.4436733"><ele>588.0</ele><time>2026-04-30T08:01:17.987Z</time></trkpt><trkpt lat="44.7904817" lon="9.4437317"><ele>588.0</ele><time>2026-04-30T08:01:19.992Z</time></trkpt><trkpt lat="44.7904133" lon="9.4438083"><ele>588.0</ele><time>2026-04-30T08:01:21.988Z</time></trkpt><trkpt lat="44.7903167" lon="9.44392"><ele>588.0</ele><time>2026-04-30T08:01:23.988Z</time></trkpt><trkpt lat="44.7902633" lon="9.44398"><ele>588.0</ele><time>2026-04-30T08:01:24.988Z</time></trkpt><trkpt lat="44.79021" lon="9.4440383"><ele>588.0</ele><time>2026-04-30T08:01:25.988Z</time></trkpt><trkpt lat="44.7901533" lon="9.4440933"><ele>590.8333333333334</ele><time>2026-04-30T08:01:26.988Z</time></trkpt><trkpt lat="44.7900883" lon="9.4441267"><ele>593.6666666666666</ele><time>2026-04-30T08:01:27.988Z</time></trkpt><trkpt lat="44.7900117" lon="9.4441367"><ele>596.5</ele><time>2026-04-30T08:01:28.987Z</time></trkpt><trkpt lat="44.7899283" lon="9.444135"><ele>599.3333333333333</ele><time>2026-04-30T08:01:29.996Z</time></trkpt><trkpt lat="44.78984" lon="9.4441283"><ele>602.1666666666666</ele><time>2026-04-30T08:01:30.988Z</time></trkpt><trkpt lat="44.7897567" lon="9.4441267"><ele>605.0</ele><time>2026-04-30T08:01:31.988Z</time></trkpt><trkpt lat="44.7896733" lon="9.4441267"><ele>605.0</ele><time>2026-04-30T08:01:32.987Z</time></trkpt><trkpt lat="44.7895917" lon="9.444135"><ele>605.0</ele><time>2026-04-30T08:01:33.989Z</time></trkpt><trkpt lat="44.7895133" lon="9.4441483"><ele>605.0</ele><time>2026-04-30T08:01:34.988Z</time></trkpt><trkpt lat="44.7894383" lon="9.4441517"><ele>605.0</ele><time>2026-04-30T08:01:35.988Z</time></trkpt><trkpt lat="44.7893683" lon="9.4441533"><ele>605.0</ele><time>2026-04-30T08:01:36.987Z</time></trkpt><trkpt lat="44.7893033" lon="9.444155"><ele>605.0</ele><time>2026-04-30T08:01:37.99Z</time></trkpt><trkpt lat="44.7891817" lon="9.4441567"><ele>605.0</ele><time>2026-04-30T08:01:39.99Z</time></trkpt><trkpt lat="44.789115" lon="9.4441617"><ele>605.0</ele><time>2026-04-30T08:01:40.987Z</time></trkpt><trkpt lat="44.7890467" lon="9.4441667"><ele>605.0</ele><time>2026-04-30T08:01:41.988Z</time></trkpt><trkpt lat="44.7889767" lon="9.4441633"><ele>605.0</ele><time>2026-04-30T08:01:42.987Z</time></trkpt><trkpt lat="44.7889083" lon="9.4441583"><ele>605.0</ele><time>2026-04-30T08:01:43.988Z</time></trkpt><trkpt lat="44.7888433" lon="9.4441467"><ele>605.0</ele><time>2026-04-30T08:01:44.99Z</time></trkpt><trkpt lat="44.7887833" lon="9.444115"><ele>605.0</ele><time>2026-04-30T08:01:45.987Z</time></trkpt><trkpt lat="44.7887217" lon="9.4440683"><ele>605.0</ele><time>2026-04-30T08:01:46.988Z</time></trkpt><trkpt lat="44.7886617" lon="9.4440033"><ele>605.0</ele><time>2026-04-30T08:01:47.99Z</time></trkpt><trkpt lat="44.7886083" lon="9.4439383"><ele>605.0</ele><time>2026-04-30T08:01:48.987Z</time></trkpt><trkpt lat="44.7885267" lon="9.44384"><ele>605.0</ele><time>2026-04-30T08:01:50.988Z</time></trkpt><trkpt lat="44.78844" lon="9.443835"><ele>605.0</ele><time>2026-04-30T08:01:52.988Z</time></trkpt><trkpt lat="44.788345" lon="9.4438567"><ele>605.0</ele><time>2026-04-30T08:01:54.987Z</time></trkpt><trkpt lat="44.788245" lon="9.4437533"><ele>604.8333333333333</ele><time>2026-04-30T08:01:56.99Z</time></trkpt><trkpt lat="44.78819" lon="9.4436883"><ele>604.6666666666666</ele><time>2026-04-30T08:01:57.987Z</time></trkpt><trkpt lat="44.7881367" lon="9.443635"><ele>604.5</ele><time>2026-04-30T08:01:58.989Z</time></trkpt><trkpt lat="44.7880483" lon="9.4435467"><ele>604.3333333333334</ele><time>2026-04-30T08:02:00.991Z</time></trkpt><trkpt lat="44.787975" lon="9.4434883"><ele>604.1666666666667</ele><time>2026-04-30T08:02:02.99Z</time></trkpt><trkpt lat="44.7879167" lon="9.44345"><ele>604.0</ele><time>2026-04-30T08:02:04.988Z</time></trkpt><trkpt lat="44.7878483" lon="9.4433967"><ele>604.0</ele><time>2026-04-30T08:02:40.988Z</time></trkpt><trkpt lat="44.7878483" lon="9.4433017"><ele>604.0</ele><time>2026-04-30T08:02:44.989Z</time></trkpt><trkpt lat="44.7878767" lon="9.443205"><ele>604.0</ele><time>2026-04-30T08:02:46.988Z</time></trkpt><trkpt lat="44.7879483" lon="9.443055"><ele>604.0</ele><time>2026-04-30T08:02:48.99Z</time></trkpt><trkpt lat="44.7880033" lon="9.442895"><ele>604.0</ele><time>2026-04-30T08:02:50.988Z</time></trkpt><trkpt lat="44.7879983" lon="9.4427967"><ele>603.0</ele><time>2026-04-30T08:02:51.987Z</time></trkpt><trkpt lat="44.7879683" lon="9.4427"><ele>602.0</ele><time>2026-04-30T08:02:52.987Z</time></trkpt><trkpt lat="44.7879283" lon="9.4426183"><ele>601.0</ele><time>2026-04-30T08:02:53.988Z</time></trkpt><trkpt lat="44.7878667" lon="9.4425533"><ele>600.0</ele><time>2026-04-30T08:02:54.987Z</time></trkpt><trkpt lat="44.7877933" lon="9.4424983"><ele>599.0</ele><time>2026-04-30T08:02:55.988Z</time></trkpt><trkpt lat="44.78771" lon="9.4424583"><ele>598.0</ele><time>2026-04-30T08:02:56.988Z</time></trkpt><trkpt lat="44.7876267" lon="9.4424233"><ele>598.0</ele><time>2026-04-30T08:02:57.988Z</time></trkpt><trkpt lat="44.7875517" lon="9.4423833"><ele>598.0</ele><time>2026-04-30T08:02:58.987Z</time></trkpt><trkpt lat="44.7874833" lon="9.442335"><ele>598.0</ele><time>2026-04-30T08:02:59.988Z</time></trkpt><trkpt lat="44.78741" lon="9.442275"><ele>598.0</ele><time>2026-04-30T08:03:00.989Z</time></trkpt><trkpt lat="44.7873333" lon="9.44223"><ele>598.0</ele><time>2026-04-30T08:03:01.988Z</time></trkpt><trkpt lat="44.787265" lon="9.44219"><ele>598.0</ele><time>2026-04-30T08:03:02.988Z</time></trkpt><trkpt lat="44.7871683" lon="9.4421233"><ele>595.0</ele><time>2026-04-30T08:03:04.989Z</time></trkpt><trkpt lat="44.7871333" lon="9.4420283"><ele>592.0</ele><time>2026-04-30T08:03:06.987Z</time></trkpt><trkpt lat="44.7871367" lon="9.4419183"><ele>589.0</ele><time>2026-04-30T08:03:08.989Z</time></trkpt><trkpt lat="44.7871617" lon="9.44176"><ele>586.0</ele><time>2026-04-30T08:03:10.988Z</time></trkpt><trkpt lat="44.787145" lon="9.44167"><ele>583.0</ele><time>2026-04-30T08:03:11.988Z</time></trkpt><trkpt lat="44.7871067" lon="9.4415933"><ele>580.0</ele><time>2026-04-30T08:03:12.989Z</time></trkpt><trkpt lat="44.7870667" lon="9.4415133"><ele>580.0</ele><time>2026-04-30T08:03:13.987Z</time></trkpt><trkpt lat="44.7870183" lon="9.44142"><ele>580.0</ele><time>2026-04-30T08:03:14.991Z</time></trkpt><trkpt lat="44.7869767" lon="9.4413417"><ele>580.0</ele><time>2026-04-30T08:03:15.989Z</time></trkpt><trkpt lat="44.7869333" lon="9.4412617"><ele>580.0</ele><time>2026-04-30T08:03:16.988Z</time></trkpt><trkpt lat="44.7868667" lon="9.4411317"><ele>580.0</ele><time>2026-04-30T08:03:18.987Z</time></trkpt><trkpt lat="44.786825" lon="9.4410633"><ele>580.0</ele><time>2026-04-30T08:03:19.987Z</time></trkpt><trkpt lat="44.7867833" lon="9.4409767"><ele>578.8333333333334</ele><time>2026-04-30T08:03:20.988Z</time></trkpt><trkpt lat="44.7867417" lon="9.4408817"><ele>577.6666666666667</ele><time>2026-04-30T08:03:21.988Z</time></trkpt><trkpt lat="44.7867017" lon="9.4407767"><ele>576.5</ele><time>2026-04-30T08:03:22.988Z</time></trkpt><trkpt lat="44.78666" lon="9.4406633"><ele>575.3333333333334</ele><time>2026-04-30T08:03:23.989Z</time></trkpt><trkpt lat="44.7866167" lon="9.4405517"><ele>574.1666666666666</ele><time>2026-04-30T08:03:24.989Z</time></trkpt><trkpt lat="44.7865733" lon="9.4404417"><ele>573.0</ele><time>2026-04-30T08:03:25.989Z</time></trkpt><trkpt lat="44.7865367" lon="9.4403483"><ele>570.1999999999999</ele><time>2026-04-30T08:03:26.987Z</time></trkpt><trkpt lat="44.7865017" lon="9.440265"><ele>567.4</ele><time>2026-04-30T08:03:27.989Z</time></trkpt><trkpt lat="44.7864667" lon="9.4401133"><ele>564.5999999999999</ele><time>2026-04-30T08:03:29.988Z</time></trkpt><trkpt lat="44.7864583" lon="9.440025"><ele>561.8</ele><time>2026-04-30T08:03:30.988Z</time></trkpt><trkpt lat="44.7864833" lon="9.43985"><ele>559.0</ele><time>2026-04-30T08:03:32.989Z</time></trkpt><trkpt lat="44.7865133" lon="9.4397417"><ele>558.5</ele><time>2026-04-30T08:03:33.989Z</time></trkpt><trkpt lat="44.7865433" lon="9.4396233"><ele>558.0</ele><time>2026-04-30T08:03:34.989Z</time></trkpt><trkpt lat="44.78656" lon="9.4395033"><ele>557.5</ele><time>2026-04-30T08:03:35.99Z</time></trkpt><trkpt lat="44.7865667" lon="9.4394017"><ele>557.0</ele><time>2026-04-30T08:03:36.991Z</time></trkpt><trkpt lat="44.7865733" lon="9.4392983"><ele>556.5</ele><time>2026-04-30T08:03:37.989Z</time></trkpt><trkpt lat="44.7865717" lon="9.4391867"><ele>556.0</ele><time>2026-04-30T08:03:38.99Z</time></trkpt><trkpt lat="44.7865567" lon="9.4390833"><ele>556.0</ele><time>2026-04-30T08:03:39.99Z</time></trkpt><trkpt lat="44.7865433" lon="9.4389767"><ele>556.0</ele><time>2026-04-30T08:03:40.99Z</time></trkpt><trkpt lat="44.7865267" lon="9.4388083"><ele>556.0</ele><time>2026-04-30T08:03:42.987Z</time></trkpt><trkpt lat="44.7865383" lon="9.4386867"><ele>556.0</ele><time>2026-04-30T08:03:44.987Z</time></trkpt><trkpt lat="44.7865717" lon="9.438565"><ele>556.0</ele><time>2026-04-30T08:03:47.988Z</time></trkpt><trkpt lat="44.78665" lon="9.4384683"><ele>556.6</ele><time>2026-04-30T08:03:49.99Z</time></trkpt><trkpt lat="44.7867417" lon="9.4383217"><ele>557.2</ele><time>2026-04-30T08:03:51.989Z</time></trkpt><trkpt lat="44.786795" lon="9.438205"><ele>557.8</ele><time>2026-04-30T08:03:52.988Z</time></trkpt><trkpt lat="44.78684" lon="9.438085"><ele>558.4</ele><time>2026-04-30T08:03:53.989Z</time></trkpt><trkpt lat="44.78687" lon="9.4379617"><ele>559.0</ele><time>2026-04-30T08:03:54.988Z</time></trkpt><trkpt lat="44.7868833" lon="9.4378467"><ele>555.8</ele><time>2026-04-30T08:03:55.989Z</time></trkpt><trkpt lat="44.7869" lon="9.4377283"><ele>552.5999999999999</ele><time>2026-04-30T08:03:56.99Z</time></trkpt><trkpt lat="44.7869233" lon="9.4375933"><ele>549.4</ele><time>2026-04-30T08:03:57.989Z</time></trkpt><trkpt lat="44.78694" lon="9.4374633"><ele>546.1999999999999</ele><time>2026-04-30T08:03:58.988Z</time></trkpt><trkpt lat="44.786965" lon="9.4373517"><ele>543.0</ele><time>2026-04-30T08:03:59.989Z</time></trkpt><trkpt lat="44.7870017" lon="9.437225"><ele>543.0</ele><time>2026-04-30T08:04:01.988Z</time></trkpt><trkpt lat="44.787055" lon="9.4371433"><ele>543.0</ele><time>2026-04-30T08:04:03.989Z</time></trkpt><trkpt lat="44.787125" lon="9.4370317"><ele>543.0</ele><time>2026-04-30T08:04:05.988Z</time></trkpt><trkpt lat="44.78717" lon="9.4369633"><ele>543.0</ele><time>2026-04-30T08:04:06.989Z</time></trkpt><trkpt lat="44.7872167" lon="9.4368883"><ele>543.0</ele><time>2026-04-30T08:04:07.988Z</time></trkpt><trkpt lat="44.78725" lon="9.436805"><ele>543.0</ele><time>2026-04-30T08:04:08.989Z</time></trkpt><trkpt lat="44.78728" lon="9.4367183"><ele>545.0</ele><time>2026-04-30T08:04:09.989Z</time></trkpt><trkpt lat="44.7873217" lon="9.4365617"><ele>547.0</ele><time>2026-04-30T08:04:11.988Z</time></trkpt><trkpt lat="44.7873783" lon="9.43642"><ele>549.0</ele><time>2026-04-30T08:04:13.989Z</time></trkpt><trkpt lat="44.78744" lon="9.43629"><ele>551.0</ele><time>2026-04-30T08:04:15.989Z</time></trkpt><trkpt lat="44.7875083" lon="9.436155"><ele>551.3333333333333</ele><time>2026-04-30T08:04:17.987Z</time></trkpt><trkpt lat="44.7875467" lon="9.4360833"><ele>551.6666666666666</ele><time>2026-04-30T08:04:18.988Z</time></trkpt><trkpt lat="44.7876" lon="9.4360117"><ele>552.0</ele><time>2026-04-30T08:04:19.991Z</time></trkpt><trkpt lat="44.7876467" lon="9.4359467"><ele>552.3333333333334</ele><time>2026-04-30T08:04:20.988Z</time></trkpt><trkpt lat="44.787695" lon="9.4358783"><ele>552.6666666666667</ele><time>2026-04-30T08:04:21.989Z</time></trkpt><trkpt lat="44.7877417" lon="9.4358167"><ele>553.0</ele><time>2026-04-30T08:04:22.989Z</time></trkpt><trkpt lat="44.7878383" lon="9.4357283"><ele>549.3333333333334</ele><time>2026-04-30T08:04:24.988Z</time></trkpt><trkpt lat="44.78792" lon="9.4356717"><ele>545.6666666666667</ele><time>2026-04-30T08:04:26.989Z</time></trkpt><trkpt lat="44.78799" lon="9.43557"><ele>542.0</ele><time>2026-04-30T08:04:28.988Z</time></trkpt><trkpt lat="44.788035" lon="9.435455"><ele>538.3333333333334</ele><time>2026-04-30T08:04:30.988Z</time></trkpt><trkpt lat="44.788095" lon="9.4353817"><ele>534.6666666666666</ele><time>2026-04-30T08:04:32.991Z</time></trkpt><trkpt lat="44.7881733" lon="9.4353467"><ele>531.0</ele><time>2026-04-30T08:04:34.987Z</time></trkpt><trkpt lat="44.7882617" lon="9.4352983"><ele>531.0</ele><time>2026-04-30T08:04:36.99Z</time></trkpt><trkpt lat="44.7883667" lon="9.4352533"><ele>531.0</ele><time>2026-04-30T08:04:38.989Z</time></trkpt><trkpt lat="44.7884633" lon="9.435205"><ele>531.0</ele><time>2026-04-30T08:04:40.989Z</time></trkpt><trkpt lat="44.788535" lon="9.4351417"><ele>531.0</ele><time>2026-04-30T08:04:42.988Z</time></trkpt><trkpt lat="44.788595" lon="9.4350833"><ele>531.0</ele><time>2026-04-30T08:04:44.988Z</time></trkpt><trkpt lat="44.7886567" lon="9.4350183"><ele>531.0</ele><time>2026-04-30T08:04:46.988Z</time></trkpt><trkpt lat="44.7887183" lon="9.4349883"><ele>527.5</ele><time>2026-04-30T08:04:48.991Z</time></trkpt><trkpt lat="44.788805" lon="9.4349967"><ele>524.0</ele><time>2026-04-30T08:04:51.989Z</time></trkpt><trkpt lat="44.78885" lon="9.435065"><ele>520.5</ele><time>2026-04-30T08:04:54.989Z</time></trkpt><trkpt lat="44.78885" lon="9.435175"><ele>517.0</ele><time>2026-04-30T08:04:58.99Z</time></trkpt><trkpt lat="44.7888467" lon="9.435265"><ele>513.5</ele><time>2026-04-30T08:05:00.987Z</time></trkpt><trkpt lat="44.788835" lon="9.4354017"><ele>510.0</ele><time>2026-04-30T08:05:02.991Z</time></trkpt><trkpt lat="44.78881" lon="9.435525"><ele>509.0</ele><time>2026-04-30T08:05:04.988Z</time></trkpt><trkpt lat="44.7887883" lon="9.4356333"><ele>508.0</ele><time>2026-04-30T08:05:06.988Z</time></trkpt><trkpt lat="44.788865" lon="9.4356633"><ele>507.0</ele><time>2026-04-30T08:05:11.988Z</time></trkpt><trkpt lat="44.7889533" lon="9.4356217"><ele>506.0</ele><time>2026-04-30T08:05:14.99Z</time></trkpt><trkpt lat="44.7890283" lon="9.4355767"><ele>505.0</ele><time>2026-04-30T08:05:16.987Z</time></trkpt><trkpt lat="44.78909" lon="9.4355483"><ele>504.0</ele><time>2026-04-30T08:05:18.992Z</time></trkpt><trkpt lat="44.789155" lon="9.4354867"><ele>505.2</ele><time>2026-04-30T08:05:20.988Z</time></trkpt><trkpt lat="44.78921" lon="9.43541"><ele>506.4</ele><time>2026-04-30T08:05:22.989Z</time></trkpt><trkpt lat="44.7892817" lon="9.4352967"><ele>507.6</ele><time>2026-04-30T08:05:40.989Z</time></trkpt><trkpt lat="44.7893117" lon="9.4351817"><ele>508.8</ele><time>2026-04-30T08:05:43.988Z</time></trkpt><trkpt lat="44.7893567" lon="9.435055"><ele>510.0</ele><time>2026-04-30T08:05:45.989Z</time></trkpt><trkpt lat="44.7894133" lon="9.4349367"><ele>502.0</ele><time>2026-04-30T08:05:47.989Z</time></trkpt><trkpt lat="44.7894517" lon="9.4348333"><ele>494.0</ele><time>2026-04-30T08:05:49.99Z</time></trkpt><trkpt lat="44.7894833" lon="9.4347067"><ele>486.0</ele><time>2026-04-30T08:05:51.99Z</time></trkpt><trkpt lat="44.789505" lon="9.434565"><ele>478.0</ele><time>2026-04-30T08:05:53.989Z</time></trkpt><trkpt lat="44.789525" lon="9.4344417"><ele>470.0</ele><time>2026-04-30T08:05:55.988Z</time></trkpt><trkpt lat="44.7895333" lon="9.4343033"><ele>470.0</ele><time>2026-04-30T08:05:57.988Z</time></trkpt><trkpt lat="44.7895367" lon="9.4342133"><ele>469.99999999999994</ele><time>2026-04-30T08:05:58.988Z</time></trkpt><trkpt lat="44.7895333" lon="9.4341217"><ele>470.0</ele><time>2026-04-30T08:05:59.988Z</time></trkpt><trkpt lat="44.7895233" lon="9.4340317"><ele>470.0</ele><time>2026-04-30T08:06:00.987Z</time></trkpt><trkpt lat="44.78951" lon="9.43394"><ele>469.99999999999994</ele><time>2026-04-30T08:06:01.988Z</time></trkpt><trkpt lat="44.7894933" lon="9.4338283"><ele>470.0</ele><time>2026-04-30T08:06:02.99Z</time></trkpt><trkpt lat="44.789485" lon="9.4337117"><ele>470.0</ele><time>2026-04-30T08:06:03.989Z</time></trkpt><trkpt lat="44.78949" lon="9.4336033"><ele>470.66666666666663</ele><time>2026-04-30T08:06:04.99Z</time></trkpt><trkpt lat="44.7895067" lon="9.4335083"><ele>471.3333333333333</ele><time>2026-04-30T08:06:05.989Z</time></trkpt><trkpt lat="44.7895683" lon="9.433365"><ele>472.0</ele><time>2026-04-30T08:06:07.992Z</time></trkpt><trkpt lat="44.7896083" lon="9.4332783"><ele>472.66666666666663</ele><time>2026-04-30T08:06:08.992Z</time></trkpt><trkpt lat="44.7896483" lon="9.433185"><ele>473.3333333333333</ele><time>2026-04-30T08:06:09.99Z</time></trkpt><trkpt lat="44.7896817" lon="9.43309"><ele>474.0</ele><time>2026-04-30T08:06:10.989Z</time></trkpt><trkpt lat="44.7897083" lon="9.4329817"><ele>474.5</ele><time>2026-04-30T08:06:11.988Z</time></trkpt><trkpt lat="44.7897283" lon="9.43287"><ele>475.0</ele><time>2026-04-30T08:06:12.993Z</time></trkpt><trkpt lat="44.78974" lon="9.4327617"><ele>475.5</ele><time>2026-04-30T08:06:13.988Z</time></trkpt><trkpt lat="44.7897483" lon="9.4326633"><ele>476.0</ele><time>2026-04-30T08:06:14.99Z</time></trkpt><trkpt lat="44.789755" lon="9.4325517"><ele>476.5</ele><time>2026-04-30T08:06:16.989Z</time></trkpt><trkpt lat="44.7897733" lon="9.4324167"><ele>477.0</ele><time>2026-04-30T08:07:51.988Z</time></trkpt><trkpt lat="44.789805" lon="9.43233"><ele>477.0</ele><time>2026-04-30T08:07:52.989Z</time></trkpt><trkpt lat="44.789835" lon="9.4322317"><ele>477.0</ele><time>2026-04-30T08:07:53.99Z</time></trkpt><trkpt lat="44.78987" lon="9.4321217"><ele>477.0</ele><time>2026-04-30T08:07:54.99Z</time></trkpt><trkpt lat="44.7899" lon="9.432015"><ele>477.0</ele><time>2026-04-30T08:07:55.986Z</time></trkpt><trkpt lat="44.7899183" lon="9.4319033"><ele>477.0</ele><time>2026-04-30T08:07:56.988Z</time></trkpt><trkpt lat="44.7899233" lon="9.4317933"><ele>477.0</ele><time>2026-04-30T08:07:57.991Z</time></trkpt><trkpt lat="44.78992" lon="9.4316783"><ele>476.5</ele><time>2026-04-30T08:07:58.988Z</time></trkpt><trkpt lat="44.7899217" lon="9.4315667"><ele>476.0</ele><time>2026-04-30T08:07:59.986Z</time></trkpt><trkpt lat="44.7899267" lon="9.43147"><ele>475.5</ele><time>2026-04-30T08:08:00.988Z</time></trkpt><trkpt lat="44.7899617" lon="9.4313267"><ele>475.0</ele><time>2026-04-30T08:08:02.989Z</time></trkpt><trkpt lat="44.7900233" lon="9.431225"><ele>474.5</ele><time>2026-04-30T08:08:05.987Z</time></trkpt><trkpt lat="44.7900683" lon="9.4311317"><ele>474.0</ele><time>2026-04-30T08:08:07.989Z</time></trkpt><trkpt lat="44.7901117" lon="9.4310067"><ele>472.5</ele><time>2026-04-30T08:08:09.989Z</time></trkpt><trkpt lat="44.790165" lon="9.4309167"><ele>471.0</ele><time>2026-04-30T08:08:11.988Z</time></trkpt><trkpt lat="44.7902067" lon="9.4308083"><ele>469.5</ele><time>2026-04-30T08:08:13.989Z</time></trkpt><trkpt lat="44.790255" lon="9.4306783"><ele>468.0</ele><time>2026-04-30T08:08:15.987Z</time></trkpt><trkpt lat="44.7903117" lon="9.4306217"><ele>466.5</ele><time>2026-04-30T08:08:17.987Z</time></trkpt><trkpt lat="44.7903617" lon="9.43054"><ele>465.0</ele><time>2026-04-30T08:08:19.989Z</time></trkpt><trkpt lat="44.790435" lon="9.4304733"><ele>461.0</ele><time>2026-04-30T08:08:21.987Z</time></trkpt><trkpt lat="44.7904967" lon="9.4304183"><ele>457.0</ele><time>2026-04-30T08:08:23.989Z</time></trkpt><trkpt lat="44.7904383" lon="9.430335"><ele>453.0</ele><time>2026-04-30T08:08:28.989Z</time></trkpt><trkpt lat="44.790385" lon="9.4302683"><ele>449.0</ele><time>2026-04-30T08:08:30.987Z</time></trkpt><trkpt lat="44.7903333" lon="9.4301967"><ele>445.0</ele><time>2026-04-30T08:08:32.987Z</time></trkpt><trkpt lat="44.7902867" lon="9.4301083"><ele>441.0</ele><time>2026-04-30T08:08:35.988Z</time></trkpt><trkpt lat="44.7902633" lon="9.4300117"><ele>441.0</ele><time>2026-04-30T08:08:38.99Z</time></trkpt><trkpt lat="44.7902583" lon="9.4299217"><ele>441.0</ele><time>2026-04-30T08:08:40.989Z</time></trkpt><trkpt lat="44.790255" lon="9.4297933"><ele>441.0</ele><time>2026-04-30T08:08:42.988Z</time></trkpt><trkpt lat="44.79027" lon="9.4297017"><ele>441.0</ele><time>2026-04-30T08:08:44.989Z</time></trkpt><trkpt lat="44.7903383" lon="9.4296617"><ele>441.0</ele><time>2026-04-30T08:08:47.987Z</time></trkpt><trkpt lat="44.79039" lon="9.4295717"><ele>441.0</ele><time>2026-04-30T08:08:49.989Z</time></trkpt><trkpt lat="44.7904283" lon="9.4294817"><ele>439.3333333333333</ele><time>2026-04-30T08:08:51.988Z</time></trkpt><trkpt lat="44.7904683" lon="9.4294117"><ele>437.66666666666663</ele><time>2026-04-30T08:08:53.986Z</time></trkpt><trkpt lat="44.790525" lon="9.4293333"><ele>436.0</ele><time>2026-04-30T08:08:55.987Z</time></trkpt><trkpt lat="44.7905933" lon="9.429295"><ele>434.3333333333333</ele><time>2026-04-30T08:08:57.991Z</time></trkpt><trkpt lat="44.7906683" lon="9.4292833"><ele>432.66666666666663</ele><time>2026-04-30T08:09:00.989Z</time></trkpt><trkpt lat="44.7907683" lon="9.4292617"><ele>431.0</ele><time>2026-04-30T08:09:03.989Z</time></trkpt><trkpt lat="44.7908483" lon="9.4292333"><ele>431.0</ele><time>2026-04-30T08:09:05.988Z</time></trkpt><trkpt lat="44.7908967" lon="9.429175"><ele>431.0</ele><time>2026-04-30T08:09:07.988Z</time></trkpt><trkpt lat="44.79094" lon="9.429095"><ele>431.0</ele><time>2026-04-30T08:09:09.99Z</time></trkpt><trkpt lat="44.790935" lon="9.428995"><ele>431.0</ele><time>2026-04-30T08:09:13.99Z</time></trkpt><trkpt lat="44.7909" lon="9.428905"><ele>431.0</ele><time>2026-04-30T08:09:16.987Z</time></trkpt><trkpt lat="44.7908767" lon="9.42879"><ele>431.0</ele><time>2026-04-30T08:09:18.988Z</time></trkpt><trkpt lat="44.7908433" lon="9.4287083"><ele>431.0</ele><time>2026-04-30T08:09:20.987Z</time></trkpt><trkpt lat="44.790795" lon="9.428635"><ele>429.66666666666663</ele><time>2026-04-30T08:09:23.989Z</time></trkpt><trkpt lat="44.79073" lon="9.4286033"><ele>428.3333333333333</ele><time>2026-04-30T08:09:25.988Z</time></trkpt><trkpt lat="44.79062" lon="9.428565"><ele>427.0</ele><time>2026-04-30T08:09:27.989Z</time></trkpt><trkpt lat="44.7905417" lon="9.4285383"><ele>425.66666666666663</ele><time>2026-04-30T08:09:28.987Z</time></trkpt><trkpt lat="44.790465" lon="9.4285117"><ele>424.3333333333333</ele><time>2026-04-30T08:09:29.988Z</time></trkpt><trkpt lat="44.7903967" lon="9.4285"><ele>423.0</ele><time>2026-04-30T08:09:30.992Z</time></trkpt><trkpt lat="44.790295" lon="9.42852"><ele>423.0</ele><time>2026-04-30T08:09:32.991Z</time></trkpt><trkpt lat="44.7902067" lon="9.42854"><ele>423.0</ele><time>2026-04-30T08:09:34.989Z</time></trkpt><trkpt lat="44.7901033" lon="9.4285633"><ele>423.0</ele><time>2026-04-30T08:09:36.989Z</time></trkpt><trkpt lat="44.790005" lon="9.428565"><ele>423.0</ele><time>2026-04-30T08:09:38.99Z</time></trkpt><trkpt lat="44.7899317" lon="9.4285283"><ele>423.0</ele><time>2026-04-30T08:09:40.989Z</time></trkpt><trkpt lat="44.78994" lon="9.4284217"><ele>423.0</ele><time>2026-04-30T08:09:42.987Z</time></trkpt><trkpt lat="44.7900017" lon="9.4283083"><ele>424.0</ele><time>2026-04-30T08:09:44.988Z</time></trkpt><trkpt lat="44.790025" lon="9.4282"><ele>425.0</ele><time>2026-04-30T08:09:46.987Z</time></trkpt><trkpt lat="44.78994" lon="9.4281167"><ele>425.99999999999994</ele><time>2026-04-30T08:09:48.988Z</time></trkpt><trkpt lat="44.7898533" lon="9.4280117"><ele>427.0</ele><time>2026-04-30T08:09:50.988Z</time></trkpt><trkpt lat="44.7897617" lon="9.4279367"><ele>428.0</ele><time>2026-04-30T08:09:52.988Z</time></trkpt><trkpt lat="44.7897117" lon="9.4278633"><ele>425.8333333333333</ele><time>2026-04-30T08:09:54.987Z</time></trkpt><trkpt lat="44.78968" lon="9.4277617"><ele>423.66666666666663</ele><time>2026-04-30T08:09:56.987Z</time></trkpt><trkpt lat="44.7896917" lon="9.42762"><ele>421.5</ele><time>2026-04-30T08:09:58.988Z</time></trkpt><trkpt lat="44.7896867" lon="9.4274467"><ele>419.33333333333337</ele><time>2026-04-30T08:10:00.993Z</time></trkpt><trkpt lat="44.7896783" lon="9.4273567"><ele>417.1666666666667</ele><time>2026-04-30T08:10:01.988Z</time></trkpt><trkpt lat="44.7896733" lon="9.427255"><ele>415.0</ele><time>2026-04-30T08:10:02.987Z</time></trkpt><trkpt lat="44.7896767" lon="9.427165"><ele>414.1666666666667</ele><time>2026-04-30T08:10:03.987Z</time></trkpt><trkpt lat="44.7896833" lon="9.4270733"><ele>413.33333333333337</ele><time>2026-04-30T08:10:04.989Z</time></trkpt><trkpt lat="44.78969" lon="9.4269833"><ele>412.5</ele><time>2026-04-30T08:10:05.99Z</time></trkpt><trkpt lat="44.7896783" lon="9.426825"><ele>411.66666666666663</ele><time>2026-04-30T08:10:07.989Z</time></trkpt><trkpt lat="44.7896" lon="9.4267417"><ele>410.8333333333333</ele><time>2026-04-30T08:10:09.988Z</time></trkpt><trkpt lat="44.7895083" lon="9.426665"><ele>410.0</ele><time>2026-04-30T08:10:11.988Z</time></trkpt><trkpt lat="44.789475" lon="9.4265583"><ele>410.0</ele><time>2026-04-30T08:10:13.992Z</time></trkpt><trkpt lat="44.7895" lon="9.4264667"><ele>410.0</ele><time>2026-04-30T08:10:15.988Z</time></trkpt><trkpt lat="44.7895883" lon="9.4263967"><ele>410.0</ele><time>2026-04-30T08:10:18.988Z</time></trkpt><trkpt lat="44.78966" lon="9.4263167"><ele>410.0</ele><time>2026-04-30T08:10:20.989Z</time></trkpt><trkpt lat="44.7896667" lon="9.426185"><ele>410.0</ele><time>2026-04-30T08:10:22.989Z</time></trkpt><trkpt lat="44.7896467" lon="9.4260333"><ele>409.6</ele><time>2026-04-30T08:10:24.99Z</time></trkpt><trkpt lat="44.7896133" lon="9.4259167"><ele>409.2</ele><time>2026-04-30T08:10:26.989Z</time></trkpt><trkpt lat="44.7895733" lon="9.4257983"><ele>408.79999999999995</ele><time>2026-04-30T08:10:28.988Z</time></trkpt><trkpt lat="44.7895" lon="9.4256667"><ele>408.4</ele><time>2026-04-30T08:10:30.987Z</time></trkpt><trkpt lat="44.78944" lon="9.4255717"><ele>408.0</ele><time>2026-04-30T08:10:32.988Z</time></trkpt><trkpt lat="44.789425" lon="9.425465"><ele>409.0</ele><time>2026-04-30T08:10:35.988Z</time></trkpt><trkpt lat="44.7894317" lon="9.4253667"><ele>410.0</ele><time>2026-04-30T08:10:37.99Z</time></trkpt><trkpt lat="44.789455" lon="9.4252383"><ele>411.0</ele><time>2026-04-30T08:10:39.988Z</time></trkpt><trkpt lat="44.7895367" lon="9.4251167"><ele>412.0</ele><time>2026-04-30T08:10:41.988Z</time></trkpt><trkpt lat="44.7896117" lon="9.4250267"><ele>413.0</ele><time>2026-04-30T08:10:43.988Z</time></trkpt><trkpt lat="44.7896583" lon="9.4249617"><ele>414.0</ele><time>2026-04-30T08:10:45.988Z</time></trkpt><trkpt lat="44.7897117" lon="9.4248767"><ele>414.0</ele><time>2026-04-30T08:10:47.987Z</time></trkpt><trkpt lat="44.7897567" lon="9.4247583"><ele>414.0</ele><time>2026-04-30T08:10:49.989Z</time></trkpt><trkpt lat="44.78975" lon="9.42466"><ele>414.0</ele><time>2026-04-30T08:10:51.988Z</time></trkpt><trkpt lat="44.7897383" lon="9.4245667"><ele>414.0</ele><time>2026-04-30T08:10:53.988Z</time></trkpt><trkpt lat="44.78975" lon="9.4244667"><ele>414.0</ele><time>2026-04-30T08:10:55.986Z</time></trkpt><trkpt lat="44.78976" lon="9.4243633"><ele>414.0</ele><time>2026-04-30T08:10:57.989Z</time></trkpt><trkpt lat="44.7897567" lon="9.424225"><ele>414.6666666666667</ele><time>2026-04-30T08:10:59.988Z</time></trkpt><trkpt lat="44.789775" lon="9.4240617"><ele>415.33333333333337</ele><time>2026-04-30T08:11:01.988Z</time></trkpt><trkpt lat="44.7897867" lon="9.4239683"><ele>416.0</ele><time>2026-04-30T08:11:02.988Z</time></trkpt><trkpt lat="44.7897983" lon="9.4238533"><ele>416.6666666666667</ele><time>2026-04-30T08:11:03.988Z</time></trkpt><trkpt lat="44.78981" lon="9.4237267"><ele>417.33333333333337</ele><time>2026-04-30T08:11:04.987Z</time></trkpt><trkpt lat="44.7898217" lon="9.42361"><ele>418.0</ele><time>2026-04-30T08:11:05.988Z</time></trkpt><trkpt lat="44.7898333" lon="9.423495"><ele>418.0</ele><time>2026-04-30T08:11:06.988Z</time></trkpt><trkpt lat="44.78983" lon="9.4233983"><ele>418.0</ele><time>2026-04-30T08:11:07.987Z</time></trkpt><trkpt lat="44.7898067" lon="9.42327"><ele>418.0</ele><time>2026-04-30T08:11:09.988Z</time></trkpt><trkpt lat="44.7897583" lon="9.4231867"><ele>418.0</ele><time>2026-04-30T08:11:11.988Z</time></trkpt><trkpt lat="44.7896733" lon="9.4231133"><ele>418.0</ele><time>2026-04-30T08:11:13.987Z</time></trkpt><trkpt lat="44.7895783" lon="9.4230267"><ele>418.83333333333337</ele><time>2026-04-30T08:11:15.988Z</time></trkpt><trkpt lat="44.7895083" lon="9.42297"><ele>419.6666666666667</ele><time>2026-04-30T08:11:16.987Z</time></trkpt><trkpt lat="44.7894317" lon="9.4229217"><ele>420.5</ele><time>2026-04-30T08:11:17.988Z</time></trkpt><trkpt lat="44.7893517" lon="9.4228817"><ele>421.33333333333337</ele><time>2026-04-30T08:11:18.991Z</time></trkpt><trkpt lat="44.7892667" lon="9.42284"><ele>422.1666666666667</ele><time>2026-04-30T08:11:19.992Z</time></trkpt><trkpt lat="44.7891867" lon="9.4227883"><ele>423.0</ele><time>2026-04-30T08:11:20.99Z</time></trkpt><trkpt lat="44.7891133" lon="9.4227383"><ele>420.1666666666667</ele><time>2026-04-30T08:11:21.988Z</time></trkpt><trkpt lat="44.78904" lon="9.4226917"><ele>417.33333333333337</ele><time>2026-04-30T08:11:22.987Z</time></trkpt><trkpt lat="44.7889667" lon="9.4226567"><ele>414.5</ele><time>2026-04-30T08:11:23.988Z</time></trkpt><trkpt lat="44.788895" lon="9.42264"><ele>411.6666666666667</ele><time>2026-04-30T08:11:24.988Z</time></trkpt><trkpt lat="44.78883" lon="9.4226367"><ele>408.83333333333337</ele><time>2026-04-30T08:11:25.988Z</time></trkpt><trkpt lat="44.788715" lon="9.4225783"><ele>406.0</ele><time>2026-04-30T08:11:27.989Z</time></trkpt><trkpt lat="44.7886617" lon="9.4225283"><ele>406.0</ele><time>2026-04-30T08:11:28.987Z</time></trkpt><trkpt lat="44.788555" lon="9.42245"><ele>406.0</ele><time>2026-04-30T08:11:30.99Z</time></trkpt><trkpt lat="44.7884667" lon="9.4223533"><ele>406.0</ele><time>2026-04-30T08:11:32.99Z</time></trkpt><trkpt lat="44.7883567" lon="9.4222817"><ele>406.0</ele><time>2026-04-30T08:11:34.989Z</time></trkpt><trkpt lat="44.7882283" lon="9.4222733"><ele>405.50000000000006</ele><time>2026-04-30T08:11:36.988Z</time></trkpt><trkpt lat="44.788165" lon="9.4222717"><ele>405.0</ele><time>2026-04-30T08:11:37.988Z</time></trkpt><trkpt lat="44.788095" lon="9.422245"><ele>404.5</ele><time>2026-04-30T08:11:38.988Z</time></trkpt><trkpt lat="44.7880233" lon="9.4222117"><ele>404.0</ele><time>2026-04-30T08:11:39.987Z</time></trkpt><trkpt lat="44.7879633" lon="9.4221767"><ele>403.50000000000006</ele><time>2026-04-30T08:11:40.987Z</time></trkpt><trkpt lat="44.787905" lon="9.4221333"><ele>403.0</ele><time>2026-04-30T08:11:41.988Z</time></trkpt><trkpt lat="44.7877967" lon="9.4220733"><ele>399.00000000000006</ele><time>2026-04-30T08:11:43.988Z</time></trkpt><trkpt lat="44.787685" lon="9.4220333"><ele>395.0</ele><time>2026-04-30T08:11:45.989Z</time></trkpt><trkpt lat="44.7875617" lon="9.4220483"><ele>391.0</ele><time>2026-04-30T08:11:47.99Z</time></trkpt><trkpt lat="44.787495" lon="9.4220433"><ele>387.0</ele><time>2026-04-30T08:11:48.987Z</time></trkpt><trkpt lat="44.7874283" lon="9.4220133"><ele>383.0</ele><time>2026-04-30T08:11:49.989Z</time></trkpt><trkpt lat="44.7873667" lon="9.4219617"><ele>379.0</ele><time>2026-04-30T08:11:50.988Z</time></trkpt><trkpt lat="44.7873133" lon="9.4219083"><ele>378.2</ele><time>2026-04-30T08:11:51.988Z</time></trkpt><trkpt lat="44.787215" lon="9.4218283"><ele>377.4</ele><time>2026-04-30T08:11:53.988Z</time></trkpt><trkpt lat="44.7871133" lon="9.42179"><ele>376.6</ele><time>2026-04-30T08:11:55.99Z</time></trkpt><trkpt lat="44.7870117" lon="9.4217517"><ele>375.8</ele><time>2026-04-30T08:11:57.988Z</time></trkpt><trkpt lat="44.7868967" lon="9.4217"><ele>375.0</ele><time>2026-04-30T08:11:59.989Z</time></trkpt><trkpt lat="44.7867867" lon="9.4216117"><ele>374.0</ele><time>2026-04-30T08:12:01.988Z</time></trkpt><trkpt lat="44.78668" lon="9.4215683"><ele>373.0</ele><time>2026-04-30T08:12:03.988Z</time></trkpt><trkpt lat="44.7866167" lon="9.4215833"><ele>372.0</ele><time>2026-04-30T08:12:04.994Z</time></trkpt><trkpt lat="44.7865467" lon="9.421585"><ele>371.0</ele><time>2026-04-30T08:12:05.987Z</time></trkpt><trkpt lat="44.78648" lon="9.4215767"><ele>370.0</ele><time>2026-04-30T08:12:06.988Z</time></trkpt><trkpt lat="44.786385" lon="9.421535"><ele>369.0</ele><time>2026-04-30T08:12:08.988Z</time></trkpt><trkpt lat="44.7863233" lon="9.42151"><ele>369.0</ele><time>2026-04-30T08:12:10.988Z</time></trkpt><trkpt lat="44.7862433" lon="9.4215617"><ele>369.0</ele><time>2026-04-30T08:12:14.989Z</time></trkpt><trkpt lat="44.7862017" lon="9.4216567"><ele>369.0</ele><time>2026-04-30T08:12:16.991Z</time></trkpt><trkpt lat="44.7861683" lon="9.4218117"><ele>369.0</ele><time>2026-04-30T08:12:18.988Z</time></trkpt><trkpt lat="44.7861083" lon="9.421925"><ele>369.0</ele><time>2026-04-30T08:12:20.988Z</time></trkpt><trkpt lat="44.7859917" lon="9.4219733"><ele>369.4</ele><time>2026-04-30T08:12:22.989Z</time></trkpt><trkpt lat="44.78593" lon="9.4219967"><ele>369.79999999999995</ele><time>2026-04-30T08:12:23.988Z</time></trkpt><trkpt lat="44.7858633" lon="9.422025"><ele>370.20000000000005</ele><time>2026-04-30T08:12:24.988Z</time></trkpt><trkpt lat="44.7857417" lon="9.4220533"><ele>370.6</ele><time>2026-04-30T08:12:26.99Z</time></trkpt><trkpt lat="44.7856217" lon="9.4220946"><ele>371.0</ele><time>2026-04-30T08:12:28.988Z</time></trkpt><trkpt lat="44.7855021" lon="9.4221542"><ele>374.6666666666667</ele><time>2026-04-30T08:12:30.988Z</time></trkpt><trkpt lat="44.7854345" lon="9.4221824"><ele>378.33333333333337</ele><time>2026-04-30T08:12:31.988Z</time></trkpt><trkpt lat="44.7853572" lon="9.4222174"><ele>382.0</ele><time>2026-04-30T08:12:32.988Z</time></trkpt><trkpt lat="44.7852778" lon="9.4222563"><ele>385.6666666666667</ele><time>2026-04-30T08:12:33.988Z</time></trkpt><trkpt lat="44.7851893" lon="9.4223018"><ele>389.3333333333333</ele><time>2026-04-30T08:12:34.987Z</time></trkpt><trkpt lat="44.7851026" lon="9.4223538"><ele>393.0</ele><time>2026-04-30T08:12:35.988Z</time></trkpt><trkpt lat="44.7850287" lon="9.4224042"><ele>393.0</ele><time>2026-04-30T08:12:36.988Z</time></trkpt><trkpt lat="44.7849656" lon="9.4224342"><ele>393.0</ele><time>2026-04-30T08:12:37.988Z</time></trkpt><trkpt lat="44.7848637" lon="9.422432"><ele>393.0</ele><time>2026-04-30T08:12:39.99Z</time></trkpt><trkpt lat="44.7847841" lon="9.4224565"><ele>393.0</ele><time>2026-04-30T08:12:41.987Z</time></trkpt><trkpt lat="44.7846996" lon="9.4225338"><ele>393.0</ele><time>2026-04-30T08:12:43.99Z</time></trkpt><trkpt lat="44.7846443" lon="9.4225933"><ele>393.0</ele><time>2026-04-30T08:12:44.988Z</time></trkpt><trkpt lat="44.7845907" lon="9.422668"><ele>393.0</ele><time>2026-04-30T08:12:45.988Z</time></trkpt><trkpt lat="44.7845472" lon="9.4227556"><ele>393.0</ele><time>2026-04-30T08:12:46.987Z</time></trkpt><trkpt lat="44.7845081" lon="9.4228504"><ele>393.0</ele><time>2026-04-30T08:12:47.99Z</time></trkpt><trkpt lat="44.784466" lon="9.4229458"><ele>393.0</ele><time>2026-04-30T08:12:48.991Z</time></trkpt><trkpt lat="44.7844269" lon="9.4230369"><ele>393.0</ele><time>2026-04-30T08:12:49.989Z</time></trkpt><trkpt lat="44.7843815" lon="9.4231795"><ele>393.0</ele><time>2026-04-30T08:12:51.99Z</time></trkpt><trkpt lat="44.7844001" lon="9.4233405"><ele>392.5</ele><time>2026-04-30T08:12:53.99Z</time></trkpt><trkpt lat="44.7844202" lon="9.4234373"><ele>392.0</ele><time>2026-04-30T08:12:54.987Z</time></trkpt><trkpt lat="44.7844257" lon="9.4235468"><ele>391.5</ele><time>2026-04-30T08:12:55.988Z</time></trkpt><trkpt lat="44.7844212" lon="9.4236622"><ele>391.0</ele><time>2026-04-30T08:12:56.987Z</time></trkpt><trkpt lat="44.7844164" lon="9.4237601"><ele>390.5</ele><time>2026-04-30T08:12:57.988Z</time></trkpt><trkpt lat="44.7843711" lon="9.4238465"><ele>390.0</ele><time>2026-04-30T08:13:00.989Z</time></trkpt><trkpt lat="44.784295" lon="9.4238867"><ele>390.0</ele><time>2026-04-30T08:13:02.987Z</time></trkpt><trkpt lat="44.7842383" lon="9.4239283"><ele>390.0</ele><time>2026-04-30T08:13:03.988Z</time></trkpt><trkpt lat="44.7841633" lon="9.4239817"><ele>390.0</ele><time>2026-04-30T08:13:04.989Z</time></trkpt><trkpt lat="44.784085" lon="9.4240383"><ele>390.0</ele><time>2026-04-30T08:13:05.988Z</time></trkpt><trkpt lat="44.7840067" lon="9.42411"><ele>390.0</ele><time>2026-04-30T08:13:06.989Z</time></trkpt><trkpt lat="44.78392" lon="9.4241917"><ele>390.0</ele><time>2026-04-30T08:13:07.989Z</time></trkpt><trkpt lat="44.783845" lon="9.424255"><ele>390.0</ele><time>2026-04-30T08:13:08.988Z</time></trkpt><trkpt lat="44.7837767" lon="9.4243067"><ele>390.0</ele><time>2026-04-30T08:13:09.987Z</time></trkpt><trkpt lat="44.7836683" lon="9.4243183"><ele>390.0</ele><time>2026-04-30T08:13:11.989Z</time></trkpt><trkpt lat="44.7835817" lon="9.4241783"><ele>390.0</ele><time>2026-04-30T08:13:13.987Z</time></trkpt><trkpt lat="44.7835383" lon="9.424095"><ele>390.0</ele><time>2026-04-30T08:13:14.989Z</time></trkpt><trkpt lat="44.783485" lon="9.4240317"><ele>389.5</ele><time>2026-04-30T08:13:15.987Z</time></trkpt><trkpt lat="44.78342" lon="9.4239967"><ele>389.0</ele><time>2026-04-30T08:13:16.989Z</time></trkpt><trkpt lat="44.7833517" lon="9.423985"><ele>388.5</ele><time>2026-04-30T08:13:17.988Z</time></trkpt><trkpt lat="44.7832817" lon="9.4240067"><ele>388.0</ele><time>2026-04-30T08:13:18.988Z</time></trkpt><trkpt lat="44.7832033" lon="9.4240583"><ele>387.5</ele><time>2026-04-30T08:13:19.987Z</time></trkpt><trkpt lat="44.7831283" lon="9.42412"><ele>387.0</ele><time>2026-04-30T08:13:20.987Z</time></trkpt><trkpt lat="44.7830767" lon="9.4241883"><ele>387.0</ele><time>2026-04-30T08:13:21.988Z</time></trkpt><trkpt lat="44.7830183" lon="9.42434"><ele>387.0</ele><time>2026-04-30T08:13:23.988Z</time></trkpt><trkpt lat="44.7829833" lon="9.4244983"><ele>387.0</ele><time>2026-04-30T08:13:25.991Z</time></trkpt><trkpt lat="44.78297" lon="9.4245967"><ele>387.0</ele><time>2026-04-30T08:13:26.99Z</time></trkpt><trkpt lat="44.78295" lon="9.4246933"><ele>387.0</ele><time>2026-04-30T08:13:27.993Z</time></trkpt><trkpt lat="44.7829217" lon="9.4247783"><ele>387.0</ele><time>2026-04-30T08:13:28.99Z</time></trkpt><trkpt lat="44.78287" lon="9.4248617"><ele>387.1666666666667</ele><time>2026-04-30T08:13:29.988Z</time></trkpt><trkpt lat="44.782815" lon="9.4249433"><ele>387.33333333333337</ele><time>2026-04-30T08:13:30.991Z</time></trkpt><trkpt lat="44.782755" lon="9.425075"><ele>387.5</ele><time>2026-04-30T08:13:32.987Z</time></trkpt><trkpt lat="44.7826883" lon="9.425215"><ele>387.6666666666667</ele><time>2026-04-30T08:13:34.987Z</time></trkpt><trkpt lat="44.7826533" lon="9.4252917"><ele>387.83333333333337</ele><time>2026-04-30T08:13:35.988Z</time></trkpt><trkpt lat="44.7826033" lon="9.4253583"><ele>388.0</ele><time>2026-04-30T08:13:36.99Z</time></trkpt><trkpt lat="44.7825417" lon="9.425405"><ele>388.00000000000006</ele><time>2026-04-30T08:13:37.99Z</time></trkpt><trkpt lat="44.782475" lon="9.4254367"><ele>388.0</ele><time>2026-04-30T08:13:38.988Z</time></trkpt><trkpt lat="44.7824067" lon="9.4254617"><ele>388.0</ele><time>2026-04-30T08:13:39.987Z</time></trkpt><trkpt lat="44.7823333" lon="9.42549"><ele>388.0</ele><time>2026-04-30T08:13:40.988Z</time></trkpt><trkpt lat="44.7822583" lon="9.4255317"><ele>388.00000000000006</ele><time>2026-04-30T08:13:41.988Z</time></trkpt><trkpt lat="44.78218" lon="9.4255767"><ele>388.0</ele><time>2026-04-30T08:13:42.989Z</time></trkpt><trkpt lat="44.7821033" lon="9.4256417"><ele>389.59999999999997</ele><time>2026-04-30T08:13:43.988Z</time></trkpt><trkpt lat="44.7820217" lon="9.4256983"><ele>391.2</ele><time>2026-04-30T08:13:44.99Z</time></trkpt><trkpt lat="44.7819333" lon="9.425755"><ele>392.8</ele><time>2026-04-30T08:13:45.988Z</time></trkpt><trkpt lat="44.7818433" lon="9.4258117"><ele>394.4</ele><time>2026-04-30T08:13:46.989Z</time></trkpt><trkpt lat="44.7817617" lon="9.4258667"><ele>396.0</ele><time>2026-04-30T08:13:47.988Z</time></trkpt><trkpt lat="44.781685" lon="9.4259317"><ele>396.0</ele><time>2026-04-30T08:13:48.988Z</time></trkpt><trkpt lat="44.7816183" lon="9.4260183"><ele>396.0</ele><time>2026-04-30T08:13:49.988Z</time></trkpt><trkpt lat="44.78156" lon="9.4261067"><ele>396.0</ele><time>2026-04-30T08:13:50.989Z</time></trkpt><trkpt lat="44.781515" lon="9.4261867"><ele>396.0</ele><time>2026-04-30T08:13:51.989Z</time></trkpt><trkpt lat="44.7814733" lon="9.4262583"><ele>396.0</ele><time>2026-04-30T08:13:52.989Z</time></trkpt><trkpt lat="44.7814133" lon="9.4263483"><ele>396.0</ele><time>2026-04-30T08:13:54.993Z</time></trkpt><trkpt lat="44.781355" lon="9.4263883"><ele>397.1666666666667</ele><time>2026-04-30T08:13:56.988Z</time></trkpt><trkpt lat="44.7812917" lon="9.4263983"><ele>398.33333333333337</ele><time>2026-04-30T08:13:58.988Z</time></trkpt><trkpt lat="44.781205" lon="9.426395"><ele>399.5</ele><time>2026-04-30T08:14:00.988Z</time></trkpt><trkpt lat="44.7811017" lon="9.42643"><ele>400.6666666666667</ele><time>2026-04-30T08:14:02.99Z</time></trkpt><trkpt lat="44.7810217" lon="9.4264017"><ele>401.83333333333337</ele><time>2026-04-30T08:14:04.99Z</time></trkpt><trkpt lat="44.780985" lon="9.426285"><ele>403.0</ele><time>2026-04-30T08:14:06.988Z</time></trkpt><trkpt lat="44.7809467" lon="9.42612"><ele>403.00000000000006</ele><time>2026-04-30T08:14:08.989Z</time></trkpt><trkpt lat="44.7809267" lon="9.4260333"><ele>403.0</ele><time>2026-04-30T08:14:09.987Z</time></trkpt><trkpt lat="44.7809017" lon="9.4259483"><ele>403.0</ele><time>2026-04-30T08:14:10.99Z</time></trkpt><trkpt lat="44.7808217" lon="9.4258383"><ele>403.0</ele><time>2026-04-30T08:14:12.989Z</time></trkpt><trkpt lat="44.7807567" lon="9.4258033"><ele>403.00000000000006</ele><time>2026-04-30T08:14:13.987Z</time></trkpt><trkpt lat="44.780685" lon="9.4257633"><ele>403.0</ele><time>2026-04-30T08:14:14.988Z</time></trkpt><trkpt lat="44.7806183" lon="9.425725"><ele>403.00000000000006</ele><time>2026-04-30T08:14:15.987Z</time></trkpt><trkpt lat="44.7805517" lon="9.4256833"><ele>403.0</ele><time>2026-04-30T08:14:16.988Z</time></trkpt><trkpt lat="44.7804817" lon="9.4256467"><ele>403.0</ele><time>2026-04-30T08:14:17.988Z</time></trkpt><trkpt lat="44.780415" lon="9.4256133"><ele>403.0</ele><time>2026-04-30T08:14:18.989Z</time></trkpt><trkpt lat="44.7803533" lon="9.425575"><ele>403.00000000000006</ele><time>2026-04-30T08:14:19.989Z</time></trkpt><trkpt lat="44.7802617" lon="9.4254817"><ele>403.0</ele><time>2026-04-30T08:14:21.987Z</time></trkpt><trkpt lat="44.7801983" lon="9.4253267"><ele>404.50000000000006</ele><time>2026-04-30T08:14:23.99Z</time></trkpt><trkpt lat="44.780175" lon="9.4252417"><ele>406.0</ele><time>2026-04-30T08:14:24.993Z</time></trkpt><trkpt lat="44.7801533" lon="9.4251433"><ele>407.5</ele><time>2026-04-30T08:14:25.989Z</time></trkpt><trkpt lat="44.780135" lon="9.4250317"><ele>409.0</ele><time>2026-04-30T08:14:26.988Z</time></trkpt><trkpt lat="44.7801183" lon="9.4249183"><ele>410.50000000000006</ele><time>2026-04-30T08:14:27.988Z</time></trkpt><trkpt lat="44.7801067" lon="9.4248"><ele>412.0</ele><time>2026-04-30T08:14:28.988Z</time></trkpt><trkpt lat="44.78009" lon="9.4246867"><ele>409.6666666666667</ele><time>2026-04-30T08:14:29.989Z</time></trkpt><trkpt lat="44.7800533" lon="9.4245917"><ele>407.33333333333337</ele><time>2026-04-30T08:14:30.989Z</time></trkpt><trkpt lat="44.7800033" lon="9.4245017"><ele>405.0</ele><time>2026-04-30T08:14:31.988Z</time></trkpt><trkpt lat="44.77996" lon="9.4244283"><ele>402.66666666666663</ele><time>2026-04-30T08:14:32.987Z</time></trkpt><trkpt lat="44.7798833" lon="9.42431"><ele>400.3333333333333</ele><time>2026-04-30T08:14:34.988Z</time></trkpt><trkpt lat="44.7798517" lon="9.4242233"><ele>398.0</ele><time>2026-04-30T08:14:36.99Z</time></trkpt><trkpt lat="44.779845" lon="9.4241083"><ele>397.99999999999994</ele><time>2026-04-30T08:14:39.99Z</time></trkpt><trkpt lat="44.77982" lon="9.423995"><ele>398.0</ele><time>2026-04-30T08:14:42.99Z</time></trkpt><trkpt lat="44.7797767" lon="9.4239017"><ele>398.0</ele><time>2026-04-30T08:14:45.989Z</time></trkpt><trkpt lat="44.7797433" lon="9.42382"><ele>398.0</ele><time>2026-04-30T08:14:49.988Z</time></trkpt><trkpt lat="44.7796983" lon="9.4237433"><ele>397.99999999999994</ele><time>2026-04-30T08:14:52.987Z</time></trkpt><trkpt lat="44.7796533" lon="9.423655"><ele>398.0</ele><time>2026-04-30T08:14:55.987Z</time></trkpt><trkpt lat="44.7795967" lon="9.4235583"><ele>396.59999999999997</ele><time>2026-04-30T08:14:58.989Z</time></trkpt><trkpt lat="44.7795567" lon="9.4234667"><ele>395.2</ele><time>2026-04-30T08:15:00.988Z</time></trkpt><trkpt lat="44.7795217" lon="9.42336"><ele>393.8</ele><time>2026-04-30T08:15:02.988Z</time></trkpt><trkpt lat="44.7795017" lon="9.4232367"><ele>392.4</ele><time>2026-04-30T08:15:04.988Z</time></trkpt><trkpt lat="44.7795167" lon="9.423095"><ele>391.0</ele><time>2026-04-30T08:15:06.988Z</time></trkpt><trkpt lat="44.7795333" lon="9.42293"><ele>391.00000000000006</ele><time>2026-04-30T08:15:08.989Z</time></trkpt><trkpt lat="44.7795433" lon="9.42283"><ele>391.0</ele><time>2026-04-30T08:15:09.988Z</time></trkpt><trkpt lat="44.779545" lon="9.422705"><ele>391.0</ele><time>2026-04-30T08:15:10.987Z</time></trkpt><trkpt lat="44.7795383" lon="9.4225733"><ele>391.0</ele><time>2026-04-30T08:15:11.988Z</time></trkpt><trkpt lat="44.7795233" lon="9.4224517"><ele>391.00000000000006</ele><time>2026-04-30T08:15:12.987Z</time></trkpt><trkpt lat="44.779505" lon="9.4223367"><ele>391.0</ele><time>2026-04-30T08:15:13.989Z</time></trkpt><trkpt lat="44.7794983" lon="9.422235"><ele>391.00000000000006</ele><time>2026-04-30T08:15:14.987Z</time></trkpt><trkpt lat="44.7794917" lon="9.4221433"><ele>391.0</ele><time>2026-04-30T08:15:15.987Z</time></trkpt><trkpt lat="44.7795017" lon="9.42199"><ele>391.0</ele><time>2026-04-30T08:15:17.987Z</time></trkpt><trkpt lat="44.779535" lon="9.42185"><ele>391.0</ele><time>2026-04-30T08:15:19.991Z</time></trkpt><trkpt lat="44.77957" lon="9.42174"><ele>391.00000000000006</ele><time>2026-04-30T08:15:21.989Z</time></trkpt><trkpt lat="44.7796" lon="9.4216483"><ele>391.0</ele><time>2026-04-30T08:15:23.99Z</time></trkpt><trkpt lat="44.779645" lon="9.4215533"><ele>391.00000000000006</ele><time>2026-04-30T08:15:27.989Z</time></trkpt><trkpt lat="44.7797083" lon="9.4215083"><ele>391.0</ele><time>2026-04-30T08:15:37.991Z</time></trkpt><trkpt lat="44.77978" lon="9.4214133"><ele>391.0</ele><time>2026-04-30T08:15:40.987Z</time></trkpt><trkpt lat="44.7798683" lon="9.421375"><ele>391.0</ele><time>2026-04-30T08:15:42.987Z</time></trkpt><trkpt lat="44.7799317" lon="9.4213833"><ele>391.00000000000006</ele><time>2026-04-30T08:15:43.989Z</time></trkpt><trkpt lat="44.7800067" lon="9.421405"><ele>391.0</ele><time>2026-04-30T08:15:44.989Z</time></trkpt><trkpt lat="44.78008" lon="9.4214167"><ele>391.00000000000006</ele><time>2026-04-30T08:15:45.99Z</time></trkpt><trkpt lat="44.780145" lon="9.4214033"><ele>391.0</ele><time>2026-04-30T08:15:46.989Z</time></trkpt><trkpt lat="44.7802133" lon="9.4213767"><ele>391.0</ele><time>2026-04-30T08:15:47.987Z</time></trkpt><trkpt lat="44.7802883" lon="9.4213517"><ele>391.0</ele><time>2026-04-30T08:15:48.989Z</time></trkpt><trkpt lat="44.7803633" lon="9.42133"><ele>391.00000000000006</ele><time>2026-04-30T08:15:49.988Z</time></trkpt><trkpt lat="44.780475" lon="9.4213617"><ele>391.0</ele><time>2026-04-30T08:15:51.99Z</time></trkpt><trkpt lat="44.78058" lon="9.4214483"><ele>388.4</ele><time>2026-04-30T08:15:53.988Z</time></trkpt><trkpt lat="44.780665" lon="9.4214417"><ele>385.8</ele><time>2026-04-30T08:15:55.988Z</time></trkpt><trkpt lat="44.78065" lon="9.4213217"><ele>383.2</ele><time>2026-04-30T08:15:58.987Z</time></trkpt><trkpt lat="44.780625" lon="9.421215"><ele>380.59999999999997</ele><time>2026-04-30T08:16:00.989Z</time></trkpt><trkpt lat="44.7805817" lon="9.421085"><ele>378.0</ele><time>2026-04-30T08:16:02.991Z</time></trkpt><trkpt lat="44.78051" lon="9.42099"><ele>378.5</ele><time>2026-04-30T08:16:04.988Z</time></trkpt><trkpt lat="44.7804217" lon="9.4209333"><ele>379.0</ele><time>2026-04-30T08:16:06.988Z</time></trkpt><trkpt lat="44.7803167" lon="9.42089"><ele>379.5</ele><time>2026-04-30T08:16:08.988Z</time></trkpt><trkpt lat="44.7802617" lon="9.42084"><ele>380.0</ele><time>2026-04-30T08:16:09.988Z</time></trkpt><trkpt lat="44.780205" lon="9.42078"><ele>380.5</ele><time>2026-04-30T08:16:10.988Z</time></trkpt><trkpt lat="44.780145" lon="9.4207133"><ele>381.0</ele><time>2026-04-30T08:16:11.987Z</time></trkpt><trkpt lat="44.780085" lon="9.4206417"><ele>381.0</ele><time>2026-04-30T08:16:12.988Z</time></trkpt><trkpt lat="44.7800233" lon="9.4205633"><ele>381.0</ele><time>2026-04-30T08:16:13.989Z</time></trkpt><trkpt lat="44.779955" lon="9.42049"><ele>381.0</ele><time>2026-04-30T08:16:14.99Z</time></trkpt><trkpt lat="44.7798967" lon="9.4204217"><ele>381.0</ele><time>2026-04-30T08:16:15.988Z</time></trkpt><trkpt lat="44.7798433" lon="9.4203667"><ele>381.0</ele><time>2026-04-30T08:16:16.988Z</time></trkpt><trkpt lat="44.7797533" lon="9.420325"><ele>381.0</ele><time>2026-04-30T08:16:18.988Z</time></trkpt><trkpt lat="44.77965" lon="9.420335"><ele>377.8333333333333</ele><time>2026-04-30T08:16:20.994Z</time></trkpt><trkpt lat="44.779545" lon="9.4203433"><ele>374.6666666666667</ele><time>2026-04-30T08:16:22.993Z</time></trkpt><trkpt lat="44.7794133" lon="9.420335"><ele>371.5</ele><time>2026-04-30T08:16:24.989Z</time></trkpt><trkpt lat="44.7793433" lon="9.4203333"><ele>368.33333333333337</ele><time>2026-04-30T08:16:25.988Z</time></trkpt><trkpt lat="44.7792733" lon="9.420335"><ele>365.1666666666667</ele><time>2026-04-30T08:16:26.989Z</time></trkpt><trkpt lat="44.7792067" lon="9.4203383"><ele>362.0</ele><time>2026-04-30T08:16:27.991Z</time></trkpt><trkpt lat="44.7790917" lon="9.420375"><ele>360.6</ele><time>2026-04-30T08:16:29.987Z</time></trkpt><trkpt lat="44.7789733" lon="9.4204017"><ele>359.20000000000005</ele><time>2026-04-30T08:16:31.988Z</time></trkpt><trkpt lat="44.7788583" lon="9.420375"><ele>357.8</ele><time>2026-04-30T08:16:33.989Z</time></trkpt><trkpt lat="44.7787533" lon="9.4203733"><ele>356.4</ele><time>2026-04-30T08:16:35.989Z</time></trkpt><trkpt lat="44.7786733" lon="9.4204333"><ele>355.0</ele><time>2026-04-30T08:16:37.989Z</time></trkpt><trkpt lat="44.778565" lon="9.4205267"><ele>356.66666666666663</ele><time>2026-04-30T08:16:39.988Z</time></trkpt><trkpt lat="44.7784733" lon="9.4205683"><ele>358.3333333333333</ele><time>2026-04-30T08:16:41.988Z</time></trkpt><trkpt lat="44.7784067" lon="9.42057"><ele>360.0</ele><time>2026-04-30T08:16:44.988Z</time></trkpt><trkpt lat="44.7783283" lon="9.4205883"><ele>361.6666666666667</ele><time>2026-04-30T08:16:47.988Z</time></trkpt><trkpt lat="44.7782667" lon="9.4205467"><ele>363.33333333333337</ele><time>2026-04-30T08:16:50.989Z</time></trkpt><trkpt lat="44.7782583" lon="9.420455"><ele>365.0</ele><time>2026-04-30T08:16:53.988Z</time></trkpt><trkpt lat="44.77831" lon="9.42038"><ele>365.0</ele><time>2026-04-30T08:16:55.989Z</time></trkpt><trkpt lat="44.7783533" lon="9.4202667"><ele>365.0</ele><time>2026-04-30T08:16:57.989Z</time></trkpt><trkpt lat="44.7784083" lon="9.4201367"><ele>365.0</ele><time>2026-04-30T08:16:59.993Z</time></trkpt><trkpt lat="44.7784383" lon="9.4200583"><ele>365.0</ele><time>2026-04-30T08:17:00.99Z</time></trkpt><trkpt lat="44.778465" lon="9.4199083"><ele>365.0</ele><time>2026-04-30T08:17:02.989Z</time></trkpt><trkpt lat="44.7784483" lon="9.419755"><ele>366.5</ele><time>2026-04-30T08:17:04.991Z</time></trkpt><trkpt lat="44.77846" lon="9.4196133"><ele>368.0</ele><time>2026-04-30T08:17:06.988Z</time></trkpt><trkpt lat="44.7785233" lon="9.4195"><ele>369.5</ele><time>2026-04-30T08:17:08.989Z</time></trkpt><trkpt lat="44.77858" lon="9.41944"><ele>371.0</ele><time>2026-04-30T08:17:09.99Z</time></trkpt><trkpt lat="44.7786383" lon="9.4193783"><ele>372.5</ele><time>2026-04-30T08:17:10.987Z</time></trkpt><trkpt lat="44.778705" lon="9.4192717"><ele>374.0</ele><time>2026-04-30T08:17:12.987Z</time></trkpt><trkpt lat="44.77868" lon="9.41917"><ele>374.0</ele><time>2026-04-30T08:17:24.988Z</time></trkpt><trkpt lat="44.7785967" lon="9.4191717"><ele>374.0</ele><time>2026-04-30T08:17:26.986Z</time></trkpt><trkpt lat="44.77847" lon="9.4191583"><ele>374.0</ele><time>2026-04-30T08:17:28.988Z</time></trkpt><trkpt lat="44.7783567" lon="9.419215"><ele>374.0</ele><time>2026-04-30T08:17:30.987Z</time></trkpt><trkpt lat="44.7782983" lon="9.4192717"><ele>374.0</ele><time>2026-04-30T08:17:31.987Z</time></trkpt><trkpt lat="44.7782483" lon="9.419345"><ele>374.0</ele><time>2026-04-30T08:17:32.987Z</time></trkpt><trkpt lat="44.7781917" lon="9.419415"><ele>374.0</ele><time>2026-04-30T08:17:33.986Z</time></trkpt><trkpt lat="44.7781462" lon="9.4194924"><ele>374.0</ele><time>2026-04-30T08:17:34.987Z</time></trkpt><trkpt lat="44.778077" lon="9.4196151"><ele>374.0</ele><time>2026-04-30T08:17:36.987Z</time></trkpt><trkpt lat="44.7781547" lon="9.4195517"><ele>374.0</ele><time>2026-04-30T08:19:08.986Z</time></trkpt><trkpt lat="44.7782261" lon="9.4194173"><ele>374.0</ele><time>2026-04-30T08:19:10.986Z</time></trkpt><trkpt lat="44.7782682" lon="9.4193404"><ele>374.0</ele><time>2026-04-30T08:19:11.987Z</time></trkpt><trkpt lat="44.7783138" lon="9.4192716"><ele>374.0</ele><time>2026-04-30T08:19:12.987Z</time></trkpt><trkpt lat="44.7783819" lon="9.4191911"><ele>374.0</ele><time>2026-04-30T08:19:14.99Z</time></trkpt><trkpt lat="44.77846" lon="9.4191672"><ele>374.0</ele><time>2026-04-30T08:19:18.987Z</time></trkpt><trkpt lat="44.7785226" lon="9.4191486"><ele>374.0</ele><time>2026-04-30T08:19:33.988Z</time></trkpt><trkpt lat="44.7786031" lon="9.4191596"><ele>374.0</ele><time>2026-04-30T08:19:35.987Z</time></trkpt><trkpt lat="44.7786696" lon="9.4191545"><ele>371.2</ele><time>2026-04-30T08:19:37.986Z</time></trkpt><trkpt lat="44.7787324" lon="9.4191238"><ele>368.4</ele><time>2026-04-30T08:19:39.989Z</time></trkpt><trkpt lat="44.7787888" lon="9.4190575"><ele>365.6</ele><time>2026-04-30T08:19:41.989Z</time></trkpt><trkpt lat="44.7788287" lon="9.4189239"><ele>362.8</ele><time>2026-04-30T08:19:43.986Z</time></trkpt><trkpt lat="44.7788274" lon="9.4187599"><ele>360.0</ele><time>2026-04-30T08:19:45.987Z</time></trkpt><trkpt lat="44.778831" lon="9.4186149"><ele>360.0</ele><time>2026-04-30T08:19:47.988Z</time></trkpt><trkpt lat="44.7788427" lon="9.4184977"><ele>360.0</ele><time>2026-04-30T08:19:49.987Z</time></trkpt><trkpt lat="44.7788313" lon="9.4183483"><ele>360.0</ele><time>2026-04-30T08:19:52.986Z</time></trkpt><trkpt lat="44.7788441" lon="9.4181759"><ele>360.0</ele><time>2026-04-30T08:19:54.988Z</time></trkpt><trkpt lat="44.7788532" lon="9.4180732"><ele>360.0</ele><time>2026-04-30T08:19:55.989Z</time></trkpt><trkpt lat="44.7788535" lon="9.4179801"><ele>360.8</ele><time>2026-04-30T08:19:56.986Z</time></trkpt><trkpt lat="44.778861" lon="9.4178219"><ele>361.6</ele><time>2026-04-30T08:19:58.989Z</time></trkpt><trkpt lat="44.7789075" lon="9.4177153"><ele>362.4</ele><time>2026-04-30T08:20:00.988Z</time></trkpt><trkpt lat="44.7789754" lon="9.4176365"><ele>363.2</ele><time>2026-04-30T08:20:02.988Z</time></trkpt><trkpt lat="44.7790546" lon="9.4175393"><ele>364.0</ele><time>2026-04-30T08:20:04.989Z</time></trkpt><trkpt lat="44.7791039" lon="9.4174204"><ele>364.0</ele><time>2026-04-30T08:20:06.988Z</time></trkpt><trkpt lat="44.7791084" lon="9.4172898"><ele>364.0</ele><time>2026-04-30T08:20:08.988Z</time></trkpt><trkpt lat="44.7790945" lon="9.417173"><ele>364.0</ele><time>2026-04-30T08:20:10.987Z</time></trkpt><trkpt lat="44.7790824" lon="9.4170537"><ele>364.0</ele><time>2026-04-30T08:20:25.987Z</time></trkpt><trkpt lat="44.7790717" lon="9.4169279"><ele>364.0</ele><time>2026-04-30T08:20:27.988Z</time></trkpt><trkpt lat="44.7790589" lon="9.41682"><ele>364.0</ele><time>2026-04-30T08:20:29.988Z</time></trkpt><trkpt lat="44.7790305" lon="9.4167191"><ele>363.2</ele><time>2026-04-30T08:20:32.987Z</time></trkpt><trkpt lat="44.7789603" lon="9.4166321"><ele>362.4</ele><time>2026-04-30T08:20:51.987Z</time></trkpt><trkpt lat="44.7789175" lon="9.4167306"><ele>361.6</ele><time>2026-04-30T08:20:53.986Z</time></trkpt><trkpt lat="44.7788412" lon="9.4168644"><ele>360.8</ele><time>2026-04-30T08:20:55.988Z</time></trkpt><trkpt lat="44.778783" lon="9.416946"><ele>360.0</ele><time>2026-04-30T08:20:56.992Z</time></trkpt><trkpt lat="44.7787227" lon="9.4170329"><ele>360.0</ele><time>2026-04-30T08:20:57.986Z</time></trkpt><trkpt lat="44.7786644" lon="9.4171154"><ele>360.0</ele><time>2026-04-30T08:20:58.987Z</time></trkpt><trkpt lat="44.778606" lon="9.4172015"><ele>360.0</ele><time>2026-04-30T08:20:59.988Z</time></trkpt><trkpt lat="44.7785544" lon="9.4172978"><ele>360.0</ele><time>2026-04-30T08:21:00.987Z</time></trkpt><trkpt lat="44.778513" lon="9.4174066"><ele>360.0</ele><time>2026-04-30T08:21:01.986Z</time></trkpt><trkpt lat="44.7784738" lon="9.4175149"><ele>360.0</ele><time>2026-04-30T08:21:02.989Z</time></trkpt><trkpt lat="44.7784329" lon="9.4176122"><ele>364.1666666666667</ele><time>2026-04-30T08:21:03.987Z</time></trkpt><trkpt lat="44.7783914" lon="9.4176886"><ele>368.33333333333337</ele><time>2026-04-30T08:21:04.987Z</time></trkpt><trkpt lat="44.7783167" lon="9.41778"><ele>372.5</ele><time>2026-04-30T08:21:06.988Z</time></trkpt><trkpt lat="44.7782461" lon="9.4177974"><ele>376.6666666666667</ele><time>2026-04-30T08:21:08.988Z</time></trkpt><trkpt lat="44.7781832" lon="9.4177346"><ele>380.83333333333337</ele><time>2026-04-30T08:23:48.99Z</time></trkpt><trkpt lat="44.7781217" lon="9.4177867"><ele>385.0</ele><time>2026-04-30T08:23:51.989Z</time></trkpt><trkpt lat="44.7779967" lon="9.41787"><ele>385.0</ele><time>2026-04-30T08:24:18.988Z</time></trkpt><trkpt lat="44.7779083" lon="9.4178733"><ele>385.0</ele><time>2026-04-30T08:24:20.99Z</time></trkpt><trkpt lat="44.7778167" lon="9.417895"><ele>385.0</ele><time>2026-04-30T08:24:22.988Z</time></trkpt><trkpt lat="44.7777067" lon="9.41794"><ele>385.0</ele><time>2026-04-30T08:24:24.988Z</time></trkpt><trkpt lat="44.77761" lon="9.4179733"><ele>385.0</ele><time>2026-04-30T08:24:26.99Z</time></trkpt><trkpt lat="44.7775067" lon="9.4180217"><ele>387.6666666666667</ele><time>2026-04-30T08:24:28.987Z</time></trkpt><trkpt lat="44.7773767" lon="9.418055"><ele>390.33333333333337</ele><time>2026-04-30T08:24:30.988Z</time></trkpt><trkpt lat="44.7773133" lon="9.4180817"><ele>393.0</ele><time>2026-04-30T08:24:31.989Z</time></trkpt><trkpt lat="44.7772483" lon="9.41811"><ele>395.66666666666663</ele><time>2026-04-30T08:24:32.99Z</time></trkpt><trkpt lat="44.7771833" lon="9.4181417"><ele>398.3333333333333</ele><time>2026-04-30T08:24:33.988Z</time></trkpt><trkpt lat="44.7771217" lon="9.4181633"><ele>401.0</ele><time>2026-04-30T08:24:34.987Z</time></trkpt><trkpt lat="44.7769933" lon="9.418175"><ele>400.99999999999994</ele><time>2026-04-30T08:24:36.988Z</time></trkpt><trkpt lat="44.7769083" lon="9.4181883"><ele>401.0</ele><time>2026-04-30T08:24:37.988Z</time></trkpt><trkpt lat="44.7768333" lon="9.41821"><ele>401.0</ele><time>2026-04-30T08:24:38.987Z</time></trkpt><trkpt lat="44.7767567" lon="9.41825"><ele>401.0</ele><time>2026-04-30T08:24:39.988Z</time></trkpt><trkpt lat="44.77667" lon="9.418345"><ele>400.99999999999994</ele><time>2026-04-30T08:24:41.99Z</time></trkpt><trkpt lat="44.7766267" lon="9.418415"><ele>401.0</ele><time>2026-04-30T08:24:42.991Z</time></trkpt><trkpt lat="44.77657" lon="9.4184933"><ele>402.99999999999994</ele><time>2026-04-30T08:24:43.989Z</time></trkpt><trkpt lat="44.7765217" lon="9.4185517"><ele>405.0</ele><time>2026-04-30T08:24:44.99Z</time></trkpt><trkpt lat="44.7764517" lon="9.418645"><ele>407.0</ele><time>2026-04-30T08:24:46.989Z</time></trkpt><trkpt lat="44.77637" lon="9.41875"><ele>409.0</ele><time>2026-04-30T08:24:48.989Z</time></trkpt><trkpt lat="44.776315" lon="9.4187967"><ele>410.99999999999994</ele><time>2026-04-30T08:24:49.99Z</time></trkpt><trkpt lat="44.7762483" lon="9.4188533"><ele>413.0</ele><time>2026-04-30T08:24:50.99Z</time></trkpt><trkpt lat="44.776185" lon="9.4188967"><ele>412.99999999999994</ele><time>2026-04-30T08:24:51.989Z</time></trkpt><trkpt lat="44.7760817" lon="9.41893"><ele>413.0</ele><time>2026-04-30T08:24:53.989Z</time></trkpt><trkpt lat="44.776" lon="9.4189067"><ele>413.0</ele><time>2026-04-30T08:24:55.99Z</time></trkpt><trkpt lat="44.775935" lon="9.4188567"><ele>413.0</ele><time>2026-04-30T08:24:57.989Z</time></trkpt><trkpt lat="44.7758583" lon="9.418775"><ele>412.99999999999994</ele><time>2026-04-30T08:25:05.987Z</time></trkpt><trkpt lat="44.7758117" lon="9.418715"><ele>413.0</ele><time>2026-04-30T08:25:06.991Z</time></trkpt><trkpt lat="44.77576" lon="9.418645"><ele>416.4</ele><time>2026-04-30T08:25:07.989Z</time></trkpt><trkpt lat="44.7757" lon="9.418565"><ele>419.79999999999995</ele><time>2026-04-30T08:25:08.989Z</time></trkpt><trkpt lat="44.7756367" lon="9.4184833"><ele>423.2</ele><time>2026-04-30T08:25:09.989Z</time></trkpt><trkpt lat="44.7755617" lon="9.418405"><ele>426.6</ele><time>2026-04-30T08:25:10.988Z</time></trkpt><trkpt lat="44.7754833" lon="9.4183267"><ele>430.0</ele><time>2026-04-30T08:25:11.988Z</time></trkpt><trkpt lat="44.775405" lon="9.41825"><ele>430.0</ele><time>2026-04-30T08:25:12.992Z</time></trkpt><trkpt lat="44.7753283" lon="9.418175"><ele>430.0</ele><time>2026-04-30T08:25:13.988Z</time></trkpt><trkpt lat="44.7752482" lon="9.4181044"><ele>430.0</ele><time>2026-04-30T08:25:14.989Z</time></trkpt><trkpt lat="44.775171" lon="9.4180409"><ele>430.0</ele><time>2026-04-30T08:25:15.988Z</time></trkpt><trkpt lat="44.7750899" lon="9.4179924"><ele>430.0</ele><time>2026-04-30T08:25:16.987Z</time></trkpt><trkpt lat="44.7750088" lon="9.4179474"><ele>432.00000000000006</ele><time>2026-04-30T08:25:17.993Z</time></trkpt><trkpt lat="44.77493" lon="9.4179034"><ele>434.0</ele><time>2026-04-30T08:25:18.988Z</time></trkpt><trkpt lat="44.774859" lon="9.4178641"><ele>436.0</ele><time>2026-04-30T08:25:19.991Z</time></trkpt><trkpt lat="44.7747753" lon="9.4178309"><ele>438.0</ele><time>2026-04-30T08:25:21.99Z</time></trkpt><trkpt lat="44.7747658" lon="9.4179195"><ele>440.00000000000006</ele><time>2026-04-30T08:25:27.988Z</time></trkpt><trkpt lat="44.7747861" lon="9.4180212"><ele>442.0</ele><time>2026-04-30T08:25:29.989Z</time></trkpt><trkpt lat="44.7748039" lon="9.4181258"><ele>442.00000000000006</ele><time>2026-04-30T08:25:32.989Z</time></trkpt><trkpt lat="44.7747811" lon="9.4182247"><ele>442.0</ele><time>2026-04-30T08:25:35.987Z</time></trkpt><trkpt lat="44.7747079" lon="9.4183462"><ele>442.0</ele><time>2026-04-30T08:25:37.987Z</time></trkpt><trkpt lat="44.7746537" lon="9.4184183"><ele>442.0</ele><time>2026-04-30T08:25:38.988Z</time></trkpt><trkpt lat="44.7746063" lon="9.4184911"><ele>442.00000000000006</ele><time>2026-04-30T08:25:39.993Z</time></trkpt><trkpt lat="44.7745401" lon="9.4186231"><ele>442.0</ele><time>2026-04-30T08:25:41.988Z</time></trkpt><trkpt lat="44.7744583" lon="9.4187091"><ele>442.00000000000006</ele><time>2026-04-30T08:25:43.988Z</time></trkpt><trkpt lat="44.7744007" lon="9.4187501"><ele>442.0</ele><time>2026-04-30T08:25:44.988Z</time></trkpt><trkpt lat="44.77434" lon="9.418802"><ele>442.0</ele><time>2026-04-30T08:25:45.988Z</time></trkpt><trkpt lat="44.774279" lon="9.4188681"><ele>442.0</ele><time>2026-04-30T08:25:46.987Z</time></trkpt><trkpt lat="44.7742183" lon="9.4189267"><ele>442.0</ele><time>2026-04-30T08:25:47.988Z</time></trkpt><trkpt lat="44.7741543" lon="9.4189631"><ele>442.00000000000006</ele><time>2026-04-30T08:25:48.992Z</time></trkpt><trkpt lat="44.7740793" lon="9.4189843"><ele>442.0</ele><time>2026-04-30T08:25:49.989Z</time></trkpt><trkpt lat="44.7739916" lon="9.4190018"><ele>444.6666666666667</ele><time>2026-04-30T08:25:50.989Z</time></trkpt><trkpt lat="44.7739009" lon="9.4190109"><ele>447.33333333333337</ele><time>2026-04-30T08:25:51.991Z</time></trkpt><trkpt lat="44.7738193" lon="9.4190178"><ele>450.0</ele><time>2026-04-30T08:25:52.987Z</time></trkpt><trkpt lat="44.7737446" lon="9.4190264"><ele>452.66666666666663</ele><time>2026-04-30T08:25:53.988Z</time></trkpt><trkpt lat="44.7736727" lon="9.419031"><ele>455.3333333333333</ele><time>2026-04-30T08:25:54.988Z</time></trkpt><trkpt lat="44.7736" lon="9.419041"><ele>458.0</ele><time>2026-04-30T08:25:55.989Z</time></trkpt><trkpt lat="44.7735244" lon="9.4190651"><ele>459.16666666666663</ele><time>2026-04-30T08:25:56.988Z</time></trkpt><trkpt lat="44.7734517" lon="9.4191154"><ele>460.3333333333333</ele><time>2026-04-30T08:25:57.987Z</time></trkpt><trkpt lat="44.7733879" lon="9.4191671"><ele>461.5</ele><time>2026-04-30T08:25:58.987Z</time></trkpt><trkpt lat="44.7733213" lon="9.4192045"><ele>462.66666666666663</ele><time>2026-04-30T08:25:59.988Z</time></trkpt><trkpt lat="44.7732556" lon="9.4192314"><ele>463.8333333333333</ele><time>2026-04-30T08:26:00.987Z</time></trkpt><trkpt lat="44.7731561" lon="9.4192884"><ele>465.0</ele><time>2026-04-30T08:26:02.992Z</time></trkpt><trkpt lat="44.7730993" lon="9.4194039"><ele>465.0</ele><time>2026-04-30T08:26:04.988Z</time></trkpt><trkpt lat="44.7730339" lon="9.4195306"><ele>465.0</ele><time>2026-04-30T08:26:06.989Z</time></trkpt><trkpt lat="44.7729957" lon="9.4196089"><ele>465.0</ele><time>2026-04-30T08:26:07.988Z</time></trkpt><trkpt lat="44.7729575" lon="9.4196811"><ele>465.0</ele><time>2026-04-30T08:26:08.99Z</time></trkpt><trkpt lat="44.772922" lon="9.4197607"><ele>465.0</ele><time>2026-04-30T08:26:09.99Z</time></trkpt><trkpt lat="44.7728992" lon="9.41985"><ele>465.0</ele><time>2026-04-30T08:26:10.987Z</time></trkpt><trkpt lat="44.7728759" lon="9.4200184"><ele>466.1666666666667</ele><time>2026-04-30T08:26:12.99Z</time></trkpt><trkpt lat="44.7728622" lon="9.420114"><ele>467.33333333333337</ele><time>2026-04-30T08:26:13.991Z</time></trkpt><trkpt lat="44.7728472" lon="9.4202203"><ele>468.5</ele><time>2026-04-30T08:26:14.988Z</time></trkpt><trkpt lat="44.7728255" lon="9.4203329"><ele>469.6666666666667</ele><time>2026-04-30T08:26:15.989Z</time></trkpt><trkpt lat="44.7727953" lon="9.4204454"><ele>470.83333333333337</ele><time>2026-04-30T08:26:16.989Z</time></trkpt><trkpt lat="44.7727633" lon="9.4205509"><ele>472.0</ele><time>2026-04-30T08:26:17.991Z</time></trkpt><trkpt lat="44.7727286" lon="9.4206577"><ele>476.83333333333337</ele><time>2026-04-30T08:26:18.988Z</time></trkpt><trkpt lat="44.7726894" lon="9.4207714"><ele>481.6666666666667</ele><time>2026-04-30T08:26:19.991Z</time></trkpt><trkpt lat="44.772648" lon="9.420884"><ele>486.5</ele><time>2026-04-30T08:26:20.988Z</time></trkpt><trkpt lat="44.7726085" lon="9.4209961"><ele>491.33333333333337</ele><time>2026-04-30T08:26:21.989Z</time></trkpt><trkpt lat="44.772561" lon="9.4211021"><ele>496.1666666666667</ele><time>2026-04-30T08:26:22.989Z</time></trkpt><trkpt lat="44.7725174" lon="9.4211937"><ele>501.0</ele><time>2026-04-30T08:26:23.99Z</time></trkpt><trkpt lat="44.7724777" lon="9.421282"><ele>501.8333333333333</ele><time>2026-04-30T08:26:24.991Z</time></trkpt><trkpt lat="44.7724325" lon="9.4213614"><ele>502.66666666666663</ele><time>2026-04-30T08:26:25.989Z</time></trkpt><trkpt lat="44.7723743" lon="9.4214493"><ele>503.5</ele><time>2026-04-30T08:26:26.991Z</time></trkpt><trkpt lat="44.7723267" lon="9.4215411"><ele>504.3333333333333</ele><time>2026-04-30T08:26:27.992Z</time></trkpt><trkpt lat="44.7722736" lon="9.4216409"><ele>505.16666666666663</ele><time>2026-04-30T08:26:28.989Z</time></trkpt><trkpt lat="44.7722276" lon="9.4217481"><ele>506.0</ele><time>2026-04-30T08:26:29.991Z</time></trkpt><trkpt lat="44.7721879" lon="9.4218608"><ele>505.99999999999994</ele><time>2026-04-30T08:26:30.99Z</time></trkpt><trkpt lat="44.7721559" lon="9.4219626"><ele>506.0</ele><time>2026-04-30T08:26:31.992Z</time></trkpt><trkpt lat="44.7721149" lon="9.4220445"><ele>506.0</ele><time>2026-04-30T08:26:32.989Z</time></trkpt><trkpt lat="44.772053" lon="9.4221159"><ele>506.0</ele><time>2026-04-30T08:26:33.99Z</time></trkpt><trkpt lat="44.7719701" lon="9.4221762"><ele>505.99999999999994</ele><time>2026-04-30T08:26:34.99Z</time></trkpt><trkpt lat="44.7718712" lon="9.4222364"><ele>506.0</ele><time>2026-04-30T08:26:35.99Z</time></trkpt><trkpt lat="44.7717706" lon="9.4223004"><ele>510.20000000000005</ele><time>2026-04-30T08:26:36.991Z</time></trkpt><trkpt lat="44.7716774" lon="9.4223756"><ele>514.4000000000001</ele><time>2026-04-30T08:26:37.989Z</time></trkpt><trkpt lat="44.771591" lon="9.4224621"><ele>518.6</ele><time>2026-04-30T08:26:38.994Z</time></trkpt><trkpt lat="44.7715228" lon="9.4225483"><ele>522.8000000000001</ele><time>2026-04-30T08:26:39.989Z</time></trkpt><trkpt lat="44.7714671" lon="9.4226314"><ele>527.0</ele><time>2026-04-30T08:26:40.989Z</time></trkpt><trkpt lat="44.7714216" lon="9.4227012"><ele>527.0000000000001</ele><time>2026-04-30T08:26:41.988Z</time></trkpt><trkpt lat="44.7713686" lon="9.4227588"><ele>527.0</ele><time>2026-04-30T08:26:42.989Z</time></trkpt><trkpt lat="44.7713061" lon="9.4228131"><ele>527.0</ele><time>2026-04-30T08:26:43.989Z</time></trkpt><trkpt lat="44.7712286" lon="9.422857"><ele>527.0</ele><time>2026-04-30T08:26:44.991Z</time></trkpt><trkpt lat="44.7711507" lon="9.4228916"><ele>527.0</ele><time>2026-04-30T08:26:45.988Z</time></trkpt><trkpt lat="44.7710744" lon="9.4229063"><ele>527.0000000000001</ele><time>2026-04-30T08:26:46.988Z</time></trkpt><trkpt lat="44.7710101" lon="9.4229136"><ele>527.0</ele><time>2026-04-30T08:26:47.99Z</time></trkpt><trkpt lat="44.7709043" lon="9.4229556"><ele>528.3333333333333</ele><time>2026-04-30T08:26:49.989Z</time></trkpt><trkpt lat="44.7707966" lon="9.422987"><ele>529.6666666666666</ele><time>2026-04-30T08:26:51.992Z</time></trkpt><trkpt lat="44.7706851" lon="9.4230118"><ele>531.0</ele><time>2026-04-30T08:26:53.989Z</time></trkpt><trkpt lat="44.7706235" lon="9.4230301"><ele>532.3333333333334</ele><time>2026-04-30T08:26:54.988Z</time></trkpt><trkpt lat="44.7705586" lon="9.4230455"><ele>533.6666666666667</ele><time>2026-04-30T08:26:55.987Z</time></trkpt><trkpt lat="44.7704959" lon="9.4230586"><ele>535.0</ele><time>2026-04-30T08:26:56.989Z</time></trkpt><trkpt lat="44.770408" lon="9.423036"><ele>537.0</ele><time>2026-04-30T08:26:58.988Z</time></trkpt><trkpt lat="44.7704472" lon="9.4228899"><ele>539.0</ele><time>2026-04-30T08:27:01.989Z</time></trkpt><trkpt lat="44.77049" lon="9.4228171"><ele>541.0</ele><time>2026-04-30T08:27:02.988Z</time></trkpt><trkpt lat="44.7705354" lon="9.4227392"><ele>543.0</ele><time>2026-04-30T08:27:03.991Z</time></trkpt><trkpt lat="44.7705831" lon="9.4226599"><ele>545.0</ele><time>2026-04-30T08:27:04.989Z</time></trkpt><trkpt lat="44.770635" lon="9.4225627"><ele>547.0</ele><time>2026-04-30T08:27:05.988Z</time></trkpt><trkpt lat="44.7706871" lon="9.4224547"><ele>547.0</ele><time>2026-04-30T08:27:06.987Z</time></trkpt><trkpt lat="44.770731" lon="9.4223469"><ele>547.0</ele><time>2026-04-30T08:27:07.987Z</time></trkpt><trkpt lat="44.7707638" lon="9.4222498"><ele>547.0</ele><time>2026-04-30T08:27:08.988Z</time></trkpt><trkpt lat="44.770787" lon="9.4221173"><ele>547.0</ele><time>2026-04-30T08:27:10.99Z</time></trkpt><trkpt lat="44.770773" lon="9.4220184"><ele>547.0</ele><time>2026-04-30T08:27:12.987Z</time></trkpt><trkpt lat="44.7707196" lon="9.4218886"><ele>547.0</ele><time>2026-04-30T08:27:14.989Z</time></trkpt><trkpt lat="44.770681" lon="9.4218"><ele>547.1666666666667</ele><time>2026-04-30T08:27:15.989Z</time></trkpt><trkpt lat="44.7706363" lon="9.4216924"><ele>547.3333333333334</ele><time>2026-04-30T08:27:16.988Z</time></trkpt><trkpt lat="44.7705928" lon="9.4215896"><ele>547.5</ele><time>2026-04-30T08:27:17.988Z</time></trkpt><trkpt lat="44.770548" lon="9.4215054"><ele>547.6666666666666</ele><time>2026-04-30T08:27:18.988Z</time></trkpt><trkpt lat="44.7704961" lon="9.4214272"><ele>547.8333333333333</ele><time>2026-04-30T08:27:19.989Z</time></trkpt><trkpt lat="44.7704401" lon="9.4213457"><ele>548.0</ele><time>2026-04-30T08:27:20.99Z</time></trkpt><trkpt lat="44.7703872" lon="9.4212631"><ele>548.0</ele><time>2026-04-30T08:27:21.988Z</time></trkpt><trkpt lat="44.7703381" lon="9.4211891"><ele>548.0</ele><time>2026-04-30T08:27:22.989Z</time></trkpt><trkpt lat="44.7702914" lon="9.4211238"><ele>548.0</ele><time>2026-04-30T08:27:23.989Z</time></trkpt><trkpt lat="44.7701922" lon="9.4210314"><ele>548.0</ele><time>2026-04-30T08:27:25.989Z</time></trkpt><trkpt lat="44.7700942" lon="9.4210192"><ele>548.0</ele><time>2026-04-30T08:27:27.988Z</time></trkpt><trkpt lat="44.7700243" lon="9.4210793"><ele>548.0</ele><time>2026-04-30T08:27:29.991Z</time></trkpt><trkpt lat="44.7699824" lon="9.421204"><ele>550.8</ele><time>2026-04-30T08:27:31.99Z</time></trkpt><trkpt lat="44.7699084" lon="9.421328"><ele>553.5999999999999</ele><time>2026-04-30T08:27:33.989Z</time></trkpt><trkpt lat="44.7698473" lon="9.4213705"><ele>556.4000000000001</ele><time>2026-04-30T08:27:34.987Z</time></trkpt><trkpt lat="44.769784" lon="9.42141"><ele>559.2</ele><time>2026-04-30T08:27:35.989Z</time></trkpt><trkpt lat="44.7696908" lon="9.4215364"><ele>562.0</ele><time>2026-04-30T08:27:37.988Z</time></trkpt><trkpt lat="44.7696606" lon="9.4216326"><ele>562.0</ele><time>2026-04-30T08:27:38.989Z</time></trkpt><trkpt lat="44.7696435" lon="9.4217351"><ele>562.0</ele><time>2026-04-30T08:27:39.989Z</time></trkpt><trkpt lat="44.7696275" lon="9.4218399"><ele>562.0</ele><time>2026-04-30T08:27:40.988Z</time></trkpt><trkpt lat="44.7696166" lon="9.4219455"><ele>562.0</ele><time>2026-04-30T08:27:41.988Z</time></trkpt><trkpt lat="44.7696091" lon="9.4220568"><ele>562.0</ele><time>2026-04-30T08:27:42.989Z</time></trkpt><trkpt lat="44.7695889" lon="9.4221742"><ele>562.0</ele><time>2026-04-30T08:27:43.989Z</time></trkpt><trkpt lat="44.7695575" lon="9.4222921"><ele>561.3333333333334</ele><time>2026-04-30T08:27:44.989Z</time></trkpt><trkpt lat="44.7695244" lon="9.4224038"><ele>560.6666666666667</ele><time>2026-04-30T08:27:45.987Z</time></trkpt><trkpt lat="44.7694882" lon="9.4225063"><ele>560.0</ele><time>2026-04-30T08:27:46.99Z</time></trkpt><trkpt lat="44.7694425" lon="9.4225905"><ele>559.3333333333334</ele><time>2026-04-30T08:27:47.988Z</time></trkpt><trkpt lat="44.7693891" lon="9.4226547"><ele>558.6666666666666</ele><time>2026-04-30T08:27:48.989Z</time></trkpt><trkpt lat="44.7693291" lon="9.422711"><ele>558.0</ele><time>2026-04-30T08:27:49.988Z</time></trkpt><trkpt lat="44.769259" lon="9.4227681"><ele>560.6</ele><time>2026-04-30T08:27:50.989Z</time></trkpt><trkpt lat="44.7691906" lon="9.4228219"><ele>563.1999999999999</ele><time>2026-04-30T08:27:51.988Z</time></trkpt><trkpt lat="44.7691284" lon="9.4228634"><ele>565.8</ele><time>2026-04-30T08:27:52.989Z</time></trkpt><trkpt lat="44.7690376" lon="9.4228518"><ele>568.4</ele><time>2026-04-30T08:27:54.988Z</time></trkpt><trkpt lat="44.7689905" lon="9.4227234"><ele>571.0</ele><time>2026-04-30T08:27:56.989Z</time></trkpt><trkpt lat="44.768921" lon="9.4225842"><ele>571.0</ele><time>2026-04-30T08:27:58.99Z</time></trkpt><trkpt lat="44.7688279" lon="9.4224554"><ele>571.0</ele><time>2026-04-30T08:28:00.989Z</time></trkpt><trkpt lat="44.7687784" lon="9.4223786"><ele>571.0</ele><time>2026-04-30T08:28:01.988Z</time></trkpt><trkpt lat="44.7687338" lon="9.4222869"><ele>571.0</ele><time>2026-04-30T08:28:02.989Z</time></trkpt><trkpt lat="44.7686924" lon="9.4221868"><ele>571.0</ele><time>2026-04-30T08:28:03.987Z</time></trkpt><trkpt lat="44.7686555" lon="9.4220921"><ele>571.0</ele><time>2026-04-30T08:28:04.992Z</time></trkpt><trkpt lat="44.7685769" lon="9.4219918"><ele>572.2</ele><time>2026-04-30T08:28:06.989Z</time></trkpt><trkpt lat="44.7684704" lon="9.4219935"><ele>573.4000000000001</ele><time>2026-04-30T08:28:08.989Z</time></trkpt><trkpt lat="44.7684062" lon="9.4220064"><ele>574.6</ele><time>2026-04-30T08:28:09.988Z</time></trkpt><trkpt lat="44.7683459" lon="9.4220355"><ele>575.8000000000001</ele><time>2026-04-30T08:28:10.987Z</time></trkpt><trkpt lat="44.768253" lon="9.4221358"><ele>577.0</ele><time>2026-04-30T08:28:12.988Z</time></trkpt><trkpt lat="44.7681631" lon="9.4222519"><ele>577.1428571428571</ele><time>2026-04-30T08:28:14.988Z</time></trkpt><trkpt lat="44.7681055" lon="9.4223023"><ele>577.2857142857143</ele><time>2026-04-30T08:28:15.987Z</time></trkpt><trkpt lat="44.7680439" lon="9.4223465"><ele>577.4285714285714</ele><time>2026-04-30T08:28:16.987Z</time></trkpt><trkpt lat="44.7679773" lon="9.4223903"><ele>577.5714285714286</ele><time>2026-04-30T08:28:17.988Z</time></trkpt><trkpt lat="44.7679067" lon="9.4224306"><ele>577.7142857142857</ele><time>2026-04-30T08:28:18.99Z</time></trkpt><trkpt lat="44.7678321" lon="9.4224632"><ele>577.8571428571429</ele><time>2026-04-30T08:28:19.99Z</time></trkpt><trkpt lat="44.7677524" lon="9.4224803"><ele>578.0</ele><time>2026-04-30T08:28:20.99Z</time></trkpt><trkpt lat="44.7676715" lon="9.4224746"><ele>579.1999999999999</ele><time>2026-04-30T08:28:21.99Z</time></trkpt><trkpt lat="44.7675878" lon="9.4224422"><ele>580.4</ele><time>2026-04-30T08:28:22.988Z</time></trkpt><trkpt lat="44.7674968" lon="9.4223957"><ele>581.5999999999999</ele><time>2026-04-30T08:28:23.988Z</time></trkpt><trkpt lat="44.7674041" lon="9.4223525"><ele>582.8</ele><time>2026-04-30T08:28:24.989Z</time></trkpt><trkpt lat="44.7673107" lon="9.4223188"><ele>584.0</ele><time>2026-04-30T08:28:25.99Z</time></trkpt><trkpt lat="44.7672184" lon="9.4222876"><ele>584.0</ele><time>2026-04-30T08:28:26.988Z</time></trkpt><trkpt lat="44.7671251" lon="9.4222589"><ele>584.0</ele><time>2026-04-30T08:28:27.992Z</time></trkpt><trkpt lat="44.7670303" lon="9.4222338"><ele>584.0</ele><time>2026-04-30T08:28:28.988Z</time></trkpt><trkpt lat="44.766935" lon="9.4222107"><ele>584.0</ele><time>2026-04-30T08:28:29.987Z</time></trkpt><trkpt lat="44.7668369" lon="9.4221863"><ele>584.0</ele><time>2026-04-30T08:28:30.99Z</time></trkpt><trkpt lat="44.7667359" lon="9.422155"><ele>585.2</ele><time>2026-04-30T08:28:31.988Z</time></trkpt><trkpt lat="44.7666341" lon="9.4221171"><ele>586.4</ele><time>2026-04-30T08:28:32.989Z</time></trkpt><trkpt lat="44.7665344" lon="9.4220751"><ele>587.6</ele><time>2026-04-30T08:28:33.988Z</time></trkpt><trkpt lat="44.7664418" lon="9.4220412"><ele>588.8</ele><time>2026-04-30T08:28:34.99Z</time></trkpt><trkpt lat="44.7663531" lon="9.422013"><ele>590.0</ele><time>2026-04-30T08:28:35.989Z</time></trkpt><trkpt lat="44.7662635" lon="9.4219879"><ele>590.0</ele><time>2026-04-30T08:28:36.987Z</time></trkpt><trkpt lat="44.7661778" lon="9.4219745"><ele>590.0</ele><time>2026-04-30T08:28:37.986Z</time></trkpt><trkpt lat="44.7661045" lon="9.4219648"><ele>590.0</ele><time>2026-04-30T08:28:38.989Z</time></trkpt><trkpt lat="44.765997" lon="9.4219037"><ele>590.0</ele><time>2026-04-30T08:28:40.989Z</time></trkpt><trkpt lat="44.7659629" lon="9.4218248"><ele>590.0</ele><time>2026-04-30T08:28:41.989Z</time></trkpt><trkpt lat="44.7659346" lon="9.4217242"><ele>590.0</ele><time>2026-04-30T08:28:42.988Z</time></trkpt><trkpt lat="44.7659114" lon="9.4216369"><ele>590.5</ele><time>2026-04-30T08:28:43.987Z</time></trkpt><trkpt lat="44.76585" lon="9.4215563"><ele>591.0</ele><time>2026-04-30T08:28:45.987Z</time></trkpt><trkpt lat="44.7657796" lon="9.4215172"><ele>591.5</ele><time>2026-04-30T08:28:47.987Z</time></trkpt><trkpt lat="44.765665" lon="9.4215333"><ele>592.0</ele><time>2026-04-30T08:28:49.987Z</time></trkpt><trkpt lat="44.7656022" lon="9.4215795"><ele>592.5</ele><time>2026-04-30T08:28:50.991Z</time></trkpt><trkpt lat="44.765544" lon="9.4216494"><ele>593.0</ele><time>2026-04-30T08:28:51.988Z</time></trkpt><trkpt lat="44.765491" lon="9.421717"><ele>593.0</ele><time>2026-04-30T08:28:52.988Z</time></trkpt><trkpt lat="44.7654349" lon="9.4217708"><ele>593.0</ele><time>2026-04-30T08:28:53.988Z</time></trkpt><trkpt lat="44.7653663" lon="9.4218063"><ele>593.0</ele><time>2026-04-30T08:28:54.988Z</time></trkpt><trkpt lat="44.7652791" lon="9.4218069"><ele>593.0</ele><time>2026-04-30T08:28:55.988Z</time></trkpt><trkpt lat="44.765181" lon="9.4218023"><ele>593.0</ele><time>2026-04-30T08:28:56.989Z</time></trkpt><trkpt lat="44.765078" lon="9.4218158"><ele>593.0</ele><time>2026-04-30T08:28:57.99Z</time></trkpt><trkpt lat="44.7649714" lon="9.4218468"><ele>593.1999999999999</ele><time>2026-04-30T08:28:58.988Z</time></trkpt><trkpt lat="44.7648681" lon="9.4218892"><ele>593.4</ele><time>2026-04-30T08:28:59.99Z</time></trkpt><trkpt lat="44.7647817" lon="9.4219454"><ele>593.5999999999999</ele><time>2026-04-30T08:29:00.987Z</time></trkpt><trkpt lat="44.7647094" lon="9.4220088"><ele>593.8</ele><time>2026-04-30T08:29:01.986Z</time></trkpt><trkpt lat="44.7646454" lon="9.4220882"><ele>594.0</ele><time>2026-04-30T08:29:02.989Z</time></trkpt><trkpt lat="44.7645818" lon="9.4221901"><ele>594.0</ele><time>2026-04-30T08:29:03.99Z</time></trkpt><trkpt lat="44.764523" lon="9.4222873"><ele>594.0</ele><time>2026-04-30T08:29:04.989Z</time></trkpt><trkpt lat="44.7644663" lon="9.4223599"><ele>594.0</ele><time>2026-04-30T08:29:05.987Z</time></trkpt><trkpt lat="44.7644083" lon="9.4223994"><ele>594.0</ele><time>2026-04-30T08:29:06.986Z</time></trkpt><trkpt lat="44.7643422" lon="9.422415"><ele>594.0</ele><time>2026-04-30T08:29:07.99Z</time></trkpt><trkpt lat="44.7642614" lon="9.4224264"><ele>594.0</ele><time>2026-04-30T08:29:08.987Z</time></trkpt><trkpt lat="44.7641764" lon="9.4224527"><ele>596.0</ele><time>2026-04-30T08:29:09.989Z</time></trkpt><trkpt lat="44.764092" lon="9.4224842"><ele>598.0</ele><time>2026-04-30T08:29:10.988Z</time></trkpt><trkpt lat="44.7640036" lon="9.4225164"><ele>600.0</ele><time>2026-04-30T08:29:11.989Z</time></trkpt><trkpt lat="44.7639156" lon="9.4225497"><ele>602.0</ele><time>2026-04-30T08:29:12.986Z</time></trkpt><trkpt lat="44.7638255" lon="9.4225929"><ele>604.0</ele><time>2026-04-30T08:29:13.987Z</time></trkpt><trkpt lat="44.7637284" lon="9.4226591"><ele>604.0</ele><time>2026-04-30T08:29:14.987Z</time></trkpt><trkpt lat="44.7636313" lon="9.422737"><ele>604.0</ele><time>2026-04-30T08:29:15.987Z</time></trkpt><trkpt lat="44.7635543" lon="9.4228185"><ele>604.0</ele><time>2026-04-30T08:29:16.988Z</time></trkpt><trkpt lat="44.7634994" lon="9.4229034"><ele>604.0</ele><time>2026-04-30T08:29:17.991Z</time></trkpt><trkpt lat="44.763465" lon="9.422999"><ele>604.0</ele><time>2026-04-30T08:29:18.99Z</time></trkpt><trkpt lat="44.7634407" lon="9.4230949"><ele>604.0</ele><time>2026-04-30T08:29:19.991Z</time></trkpt><trkpt lat="44.7634126" lon="9.4231882"><ele>607.3333333333334</ele><time>2026-04-30T08:29:20.99Z</time></trkpt><trkpt lat="44.7633742" lon="9.423267"><ele>610.6666666666667</ele><time>2026-04-30T08:29:21.988Z</time></trkpt><trkpt lat="44.7633235" lon="9.4233362"><ele>614.0</ele><time>2026-04-30T08:29:22.989Z</time></trkpt><trkpt lat="44.7632554" lon="9.4234104"><ele>617.3333333333334</ele><time>2026-04-30T08:29:23.989Z</time></trkpt><trkpt lat="44.7631883" lon="9.4234803"><ele>620.6666666666666</ele><time>2026-04-30T08:29:24.987Z</time></trkpt><trkpt lat="44.7631262" lon="9.4235685"><ele>624.0</ele><time>2026-04-30T08:29:25.989Z</time></trkpt><trkpt lat="44.7630851" lon="9.4236882"><ele>624.8</ele><time>2026-04-30T08:29:26.988Z</time></trkpt><trkpt lat="44.7630559" lon="9.4238183"><ele>625.5999999999999</ele><time>2026-04-30T08:29:27.986Z</time></trkpt><trkpt lat="44.763025" lon="9.4239444"><ele>626.4</ele><time>2026-04-30T08:29:28.986Z</time></trkpt><trkpt lat="44.7629857" lon="9.4240528"><ele>627.1999999999999</ele><time>2026-04-30T08:29:29.987Z</time></trkpt><trkpt lat="44.762935" lon="9.4241526"><ele>628.0</ele><time>2026-04-30T08:29:30.987Z</time></trkpt><trkpt lat="44.7628725" lon="9.4242489"><ele>628.0</ele><time>2026-04-30T08:29:31.987Z</time></trkpt><trkpt lat="44.7628027" lon="9.42434"><ele>628.0</ele><time>2026-04-30T08:29:32.988Z</time></trkpt><trkpt lat="44.7627303" lon="9.4244355"><ele>628.0</ele><time>2026-04-30T08:29:33.987Z</time></trkpt><trkpt lat="44.7626551" lon="9.4245317"><ele>628.0</ele><time>2026-04-30T08:29:34.988Z</time></trkpt><trkpt lat="44.7625794" lon="9.4246194"><ele>628.0</ele><time>2026-04-30T08:29:35.988Z</time></trkpt><trkpt lat="44.7625024" lon="9.4246986"><ele>630.3333333333334</ele><time>2026-04-30T08:29:36.989Z</time></trkpt><trkpt lat="44.7624254" lon="9.4247659"><ele>632.6666666666667</ele><time>2026-04-30T08:29:37.988Z</time></trkpt><trkpt lat="44.7623515" lon="9.4248097"><ele>635.0</ele><time>2026-04-30T08:29:38.988Z</time></trkpt><trkpt lat="44.7622925" lon="9.4248533"><ele>637.3333333333334</ele><time>2026-04-30T08:29:39.99Z</time></trkpt><trkpt lat="44.7622521" lon="9.4249714"><ele>639.6666666666666</ele><time>2026-04-30T08:29:41.987Z</time></trkpt><trkpt lat="44.7623103" lon="9.4251016"><ele>642.0</ele><time>2026-04-30T08:29:43.987Z</time></trkpt><trkpt lat="44.7624191" lon="9.4251651"><ele>642.0</ele><time>2026-04-30T08:29:45.989Z</time></trkpt><trkpt lat="44.7624918" lon="9.4251866"><ele>642.0</ele><time>2026-04-30T08:29:46.988Z</time></trkpt><trkpt lat="44.7625754" lon="9.4252144"><ele>642.0</ele><time>2026-04-30T08:29:47.988Z</time></trkpt><trkpt lat="44.7626659" lon="9.425243"><ele>642.0</ele><time>2026-04-30T08:29:48.987Z</time></trkpt><trkpt lat="44.7627597" lon="9.4252727"><ele>642.0</ele><time>2026-04-30T08:29:49.988Z</time></trkpt><trkpt lat="44.7628514" lon="9.4253095"><ele>642.0</ele><time>2026-04-30T08:29:50.988Z</time></trkpt><trkpt lat="44.7629373" lon="9.4253449"><ele>641.1666666666666</ele><time>2026-04-30T08:29:51.987Z</time></trkpt><trkpt lat="44.7630169" lon="9.4253886"><ele>640.3333333333334</ele><time>2026-04-30T08:29:52.989Z</time></trkpt><trkpt lat="44.7630827" lon="9.4254455"><ele>639.5</ele><time>2026-04-30T08:29:53.989Z</time></trkpt><trkpt lat="44.7631358" lon="9.4255162"><ele>638.6666666666667</ele><time>2026-04-30T08:29:54.99Z</time></trkpt><trkpt lat="44.7631733" lon="9.42561"><ele>637.8333333333334</ele><time>2026-04-30T08:29:55.987Z</time></trkpt><trkpt lat="44.763215" lon="9.4257117"><ele>637.0</ele><time>2026-04-30T08:29:56.991Z</time></trkpt><trkpt lat="44.7632533" lon="9.4258333"><ele>640.0</ele><time>2026-04-30T08:29:57.987Z</time></trkpt><trkpt lat="44.7632867" lon="9.425955"><ele>643.0</ele><time>2026-04-30T08:29:58.991Z</time></trkpt><trkpt lat="44.76331" lon="9.4260617"><ele>646.0</ele><time>2026-04-30T08:29:59.988Z</time></trkpt><trkpt lat="44.7633217" lon="9.42616"><ele>649.0</ele><time>2026-04-30T08:30:00.988Z</time></trkpt><trkpt lat="44.7633217" lon="9.4262533"><ele>652.0</ele><time>2026-04-30T08:30:01.989Z</time></trkpt><trkpt lat="44.76326" lon="9.4263933"><ele>655.0</ele><time>2026-04-30T08:30:03.987Z</time></trkpt><trkpt lat="44.7632017" lon="9.426515"><ele>657.1666666666667</ele><time>2026-04-30T08:30:05.987Z</time></trkpt><trkpt lat="44.763165" lon="9.426645"><ele>659.3333333333334</ele><time>2026-04-30T08:30:07.99Z</time></trkpt><trkpt lat="44.7631467" lon="9.4267367"><ele>661.5</ele><time>2026-04-30T08:30:08.992Z</time></trkpt><trkpt lat="44.7631183" lon="9.42683"><ele>663.6666666666666</ele><time>2026-04-30T08:30:09.989Z</time></trkpt><trkpt lat="44.763095" lon="9.4269183"><ele>665.8333333333333</ele><time>2026-04-30T08:30:10.989Z</time></trkpt><trkpt lat="44.7630483" lon="9.4270067"><ele>668.0</ele><time>2026-04-30T08:30:12.988Z</time></trkpt><trkpt lat="44.762985" lon="9.4269467"><ele>668.0</ele><time>2026-04-30T08:30:25.987Z</time></trkpt><trkpt lat="44.7629683" lon="9.4268183"><ele>668.0</ele><time>2026-04-30T08:30:27.989Z</time></trkpt><trkpt lat="44.7629283" lon="9.4266717"><ele>668.0</ele><time>2026-04-30T08:30:29.987Z</time></trkpt><trkpt lat="44.7628683" lon="9.426515"><ele>668.0</ele><time>2026-04-30T08:30:31.989Z</time></trkpt><trkpt lat="44.7628317" lon="9.4264317"><ele>668.0</ele><time>2026-04-30T08:30:32.99Z</time></trkpt><trkpt lat="44.762795" lon="9.426345"><ele>667.8333333333333</ele><time>2026-04-30T08:30:33.989Z</time></trkpt><trkpt lat="44.7627617" lon="9.4262583"><ele>667.6666666666666</ele><time>2026-04-30T08:30:34.99Z</time></trkpt><trkpt lat="44.762715" lon="9.42618"><ele>667.5</ele><time>2026-04-30T08:30:35.988Z</time></trkpt><trkpt lat="44.7625917" lon="9.4261217"><ele>667.3333333333334</ele><time>2026-04-30T08:30:37.99Z</time></trkpt><trkpt lat="44.76252" lon="9.4261017"><ele>667.1666666666667</ele><time>2026-04-30T08:30:38.99Z</time></trkpt><trkpt lat="44.7624567" lon="9.4260833"><ele>667.0</ele><time>2026-04-30T08:30:39.989Z</time></trkpt><trkpt lat="44.7623367" lon="9.4260567"><ele>667.0</ele><time>2026-04-30T08:30:41.988Z</time></trkpt><trkpt lat="44.762265" lon="9.42604"><ele>667.0</ele><time>2026-04-30T08:30:42.988Z</time></trkpt><trkpt lat="44.762185" lon="9.426015"><ele>667.0</ele><time>2026-04-30T08:30:43.987Z</time></trkpt><trkpt lat="44.7621033" lon="9.42598"><ele>667.0</ele><time>2026-04-30T08:30:44.988Z</time></trkpt><trkpt lat="44.7620117" lon="9.4259417"><ele>667.0</ele><time>2026-04-30T08:30:45.988Z</time></trkpt><trkpt lat="44.7619083" lon="9.425905"><ele>667.0</ele><time>2026-04-30T08:30:46.989Z</time></trkpt><trkpt lat="44.7618117" lon="9.42587"><ele>668.6666666666667</ele><time>2026-04-30T08:30:47.987Z</time></trkpt><trkpt lat="44.7617217" lon="9.425845"><ele>670.3333333333334</ele><time>2026-04-30T08:30:48.988Z</time></trkpt><trkpt lat="44.7616417" lon="9.4258333"><ele>672.0</ele><time>2026-04-30T08:30:49.989Z</time></trkpt><trkpt lat="44.7615717" lon="9.4258383"><ele>673.6666666666666</ele><time>2026-04-30T08:30:50.988Z</time></trkpt><trkpt lat="44.761505" lon="9.425835"><ele>675.3333333333333</ele><time>2026-04-30T08:30:51.988Z</time></trkpt><trkpt lat="44.7613867" lon="9.4258083"><ele>677.0</ele><time>2026-04-30T08:30:53.988Z</time></trkpt><trkpt lat="44.761285" lon="9.42575"><ele>677.0</ele><time>2026-04-30T08:30:55.988Z</time></trkpt><trkpt lat="44.7611933" lon="9.425655"><ele>677.0</ele><time>2026-04-30T08:30:57.989Z</time></trkpt><trkpt lat="44.761155" lon="9.4255733"><ele>677.0</ele><time>2026-04-30T08:30:58.99Z</time></trkpt><trkpt lat="44.7611183" lon="9.425475"><ele>677.0</ele><time>2026-04-30T08:30:59.988Z</time></trkpt><trkpt lat="44.7610733" lon="9.425365"><ele>677.0</ele><time>2026-04-30T08:31:00.99Z</time></trkpt><trkpt lat="44.7610417" lon="9.4252533"><ele>677.0</ele><time>2026-04-30T08:31:01.988Z</time></trkpt><trkpt lat="44.7610183" lon="9.4251567"><ele>678.0</ele><time>2026-04-30T08:31:02.989Z</time></trkpt><trkpt lat="44.760995" lon="9.4250183"><ele>679.0</ele><time>2026-04-30T08:31:04.99Z</time></trkpt><trkpt lat="44.760925" lon="9.42492"><ele>680.0</ele><time>2026-04-30T08:31:06.988Z</time></trkpt><trkpt lat="44.7608333" lon="9.424835"><ele>681.0</ele><time>2026-04-30T08:31:08.988Z</time></trkpt><trkpt lat="44.760755" lon="9.4247333"><ele>682.0</ele><time>2026-04-30T08:31:10.988Z</time></trkpt><trkpt lat="44.7607133" lon="9.4246417"><ele>679.0</ele><time>2026-04-30T08:31:12.988Z</time></trkpt><trkpt lat="44.7606867" lon="9.4245583"><ele>676.0</ele><time>2026-04-30T08:31:14.99Z</time></trkpt><trkpt lat="44.760675" lon="9.4244583"><ele>673.0</ele><time>2026-04-30T08:31:16.989Z</time></trkpt><trkpt lat="44.760665" lon="9.424355"><ele>670.0</ele><time>2026-04-30T08:31:44.989Z</time></trkpt><trkpt lat="44.760655" lon="9.42426"><ele>667.0</ele><time>2026-04-30T08:31:47.987Z</time></trkpt><trkpt lat="44.7606233" lon="9.4241583"><ele>664.0</ele><time>2026-04-30T08:31:50.99Z</time></trkpt><trkpt lat="44.76057" lon="9.42403"><ele>664.0</ele><time>2026-04-30T08:31:52.987Z</time></trkpt><trkpt lat="44.7605117" lon="9.4238833"><ele>664.0</ele><time>2026-04-30T08:31:54.987Z</time></trkpt><trkpt lat="44.7604817" lon="9.4238017"><ele>664.0</ele><time>2026-04-30T08:31:55.986Z</time></trkpt><trkpt lat="44.76045" lon="9.4237067"><ele>664.0</ele><time>2026-04-30T08:31:56.988Z</time></trkpt><trkpt lat="44.7604167" lon="9.4236017"><ele>664.0</ele><time>2026-04-30T08:31:57.988Z</time></trkpt><trkpt lat="44.7603783" lon="9.4235"><ele>664.0</ele><time>2026-04-30T08:31:58.989Z</time></trkpt><trkpt lat="44.76034" lon="9.4234033"><ele>662.4000000000001</ele><time>2026-04-30T08:31:59.991Z</time></trkpt><trkpt lat="44.760305" lon="9.4233217"><ele>660.8</ele><time>2026-04-30T08:32:00.991Z</time></trkpt><trkpt lat="44.760235" lon="9.4231967"><ele>659.2</ele><time>2026-04-30T08:32:02.99Z</time></trkpt><trkpt lat="44.7601617" lon="9.4230517"><ele>657.5999999999999</ele><time>2026-04-30T08:32:04.988Z</time></trkpt><trkpt lat="44.760095" lon="9.4229117"><ele>656.0</ele><time>2026-04-30T08:32:06.988Z</time></trkpt><trkpt lat="44.76002" lon="9.4227717"><ele>659.3333333333333</ele><time>2026-04-30T08:32:08.989Z</time></trkpt><trkpt lat="44.7599533" lon="9.422635"><ele>662.6666666666666</ele><time>2026-04-30T08:32:10.989Z</time></trkpt><trkpt lat="44.7598983" lon="9.4225417"><ele>666.0</ele><time>2026-04-30T08:32:12.988Z</time></trkpt><trkpt lat="44.7598233" lon="9.42243"><ele>669.3333333333334</ele><time>2026-04-30T08:32:14.989Z</time></trkpt><trkpt lat="44.7597717" lon="9.4223667"><ele>672.6666666666667</ele><time>2026-04-30T08:32:15.988Z</time></trkpt><trkpt lat="44.7597183" lon="9.42231"><ele>676.0</ele><time>2026-04-30T08:32:16.988Z</time></trkpt><trkpt lat="44.75966" lon="9.4222617"><ele>676.0</ele><time>2026-04-30T08:32:17.988Z</time></trkpt><trkpt lat="44.7596017" lon="9.4222117"><ele>676.0</ele><time>2026-04-30T08:32:18.986Z</time></trkpt><trkpt lat="44.7595417" lon="9.42215"><ele>676.0</ele><time>2026-04-30T08:32:19.993Z</time></trkpt><trkpt lat="44.7594833" lon="9.42207"><ele>676.0</ele><time>2026-04-30T08:32:20.989Z</time></trkpt><trkpt lat="44.75942" lon="9.4219933"><ele>676.0</ele><time>2026-04-30T08:32:21.987Z</time></trkpt><trkpt lat="44.75936" lon="9.421935"><ele>676.0</ele><time>2026-04-30T08:32:22.987Z</time></trkpt><trkpt lat="44.7593017" lon="9.4218783"><ele>680.0</ele><time>2026-04-30T08:32:23.986Z</time></trkpt><trkpt lat="44.7592317" lon="9.4217417"><ele>684.0</ele><time>2026-04-30T08:32:25.987Z</time></trkpt><trkpt lat="44.7592217" lon="9.4215417"><ele>688.0</ele><time>2026-04-30T08:32:27.989Z</time></trkpt><trkpt lat="44.75924" lon="9.4214117"><ele>692.0</ele><time>2026-04-30T08:32:28.989Z</time></trkpt><trkpt lat="44.75926" lon="9.4212783"><ele>692.5</ele><time>2026-04-30T08:32:29.989Z</time></trkpt><trkpt lat="44.7592783" lon="9.4211517"><ele>693.0</ele><time>2026-04-30T08:32:30.99Z</time></trkpt><trkpt lat="44.75929" lon="9.4210367"><ele>693.5</ele><time>2026-04-30T08:32:31.989Z</time></trkpt><trkpt lat="44.7592917" lon="9.420935"><ele>694.0</ele><time>2026-04-30T08:32:32.988Z</time></trkpt><trkpt lat="44.7592717" lon="9.420825"><ele>694.5</ele><time>2026-04-30T08:32:34.991Z</time></trkpt><trkpt lat="44.75924" lon="9.4207283"><ele>695.0</ele><time>2026-04-30T08:32:36.988Z</time></trkpt><trkpt lat="44.75927" lon="9.420615"><ele>695.0</ele><time>2026-04-30T08:32:39.989Z</time></trkpt><trkpt lat="44.75935" lon="9.4205333"><ele>695.0</ele><time>2026-04-30T08:32:41.989Z</time></trkpt><trkpt lat="44.7594533" lon="9.42047"><ele>695.0</ele><time>2026-04-30T08:32:43.988Z</time></trkpt><trkpt lat="44.759545" lon="9.4204517"><ele>695.0</ele><time>2026-04-30T08:32:45.987Z</time></trkpt><trkpt lat="44.759615" lon="9.4204383"><ele>695.0</ele><time>2026-04-30T08:32:47.988Z</time></trkpt><trkpt lat="44.7596917" lon="9.420385"><ele>694.6</ele><time>2026-04-30T08:32:49.986Z</time></trkpt><trkpt lat="44.7597683" lon="9.4202917"><ele>694.2</ele><time>2026-04-30T08:32:51.986Z</time></trkpt><trkpt lat="44.7598383" lon="9.4201967"><ele>693.8</ele><time>2026-04-30T08:32:53.989Z</time></trkpt><trkpt lat="44.7599183" lon="9.4201"><ele>693.4</ele><time>2026-04-30T08:32:55.988Z</time></trkpt><trkpt lat="44.7600033" lon="9.4200217"><ele>693.0</ele><time>2026-04-30T08:32:57.988Z</time></trkpt><trkpt lat="44.760065" lon="9.4199733"><ele>693.0</ele><time>2026-04-30T08:32:59.989Z</time></trkpt><trkpt lat="44.760125" lon="9.4199"><ele>693.0</ele><time>2026-04-30T08:33:12.989Z</time></trkpt><trkpt lat="44.760075" lon="9.4198267"><ele>693.0</ele><time>2026-04-30T08:33:16.987Z</time></trkpt><trkpt lat="44.7600933" lon="9.4197017"><ele>693.0</ele><time>2026-04-30T08:33:18.987Z</time></trkpt><trkpt lat="44.760125" lon="9.4195567"><ele>693.0</ele><time>2026-04-30T08:33:20.988Z</time></trkpt><trkpt lat="44.7601367" lon="9.4193917"><ele>696.0</ele><time>2026-04-30T08:33:22.988Z</time></trkpt><trkpt lat="44.760105" lon="9.4192267"><ele>699.0</ele><time>2026-04-30T08:33:24.987Z</time></trkpt><trkpt lat="44.7600333" lon="9.4190967"><ele>702.0</ele><time>2026-04-30T08:33:26.988Z</time></trkpt><trkpt lat="44.7599083" lon="9.4190533"><ele>705.0</ele><time>2026-04-30T08:33:28.989Z</time></trkpt><trkpt lat="44.7598317" lon="9.4190767"><ele>708.0</ele><time>2026-04-30T08:33:29.988Z</time></trkpt><trkpt lat="44.7597417" lon="9.4191267"><ele>708.0</ele><time>2026-04-30T08:33:30.99Z</time></trkpt><trkpt lat="44.7596617" lon="9.4191733"><ele>708.0</ele><time>2026-04-30T08:33:31.99Z</time></trkpt><trkpt lat="44.7595867" lon="9.4192167"><ele>708.0</ele><time>2026-04-30T08:33:32.992Z</time></trkpt><trkpt lat="44.7595167" lon="9.419255"><ele>708.0</ele><time>2026-04-30T08:33:33.988Z</time></trkpt><trkpt lat="44.7594167" lon="9.4192833"><ele>708.0</ele><time>2026-04-30T08:33:35.988Z</time></trkpt><trkpt lat="44.7593383" lon="9.4193017"><ele>708.0</ele><time>2026-04-30T08:33:37.989Z</time></trkpt><trkpt lat="44.759245" lon="9.4193367"><ele>711.8</ele><time>2026-04-30T08:33:39.989Z</time></trkpt><trkpt lat="44.7591444" lon="9.419375"><ele>715.5999999999999</ele><time>2026-04-30T08:33:41.989Z</time></trkpt><trkpt lat="44.7590194" lon="9.4194356"><ele>719.4000000000001</ele><time>2026-04-30T08:33:43.991Z</time></trkpt><trkpt lat="44.7589508" lon="9.4194634"><ele>723.2</ele><time>2026-04-30T08:33:44.993Z</time></trkpt><trkpt lat="44.7588432" lon="9.4194874"><ele>727.0</ele><time>2026-04-30T08:33:46.989Z</time></trkpt><trkpt lat="44.7587796" lon="9.419496"><ele>727.0</ele><time>2026-04-30T08:33:47.988Z</time></trkpt><trkpt lat="44.7587096" lon="9.4195034"><ele>727.0</ele><time>2026-04-30T08:33:48.988Z</time></trkpt><trkpt lat="44.7586203" lon="9.4195108"><ele>727.0</ele><time>2026-04-30T08:33:49.988Z</time></trkpt><trkpt lat="44.7585339" lon="9.4195171"><ele>727.0</ele><time>2026-04-30T08:33:50.988Z</time></trkpt><trkpt lat="44.7584276" lon="9.4195131"><ele>727.0</ele><time>2026-04-30T08:33:51.987Z</time></trkpt><trkpt lat="44.7583197" lon="9.4195104"><ele>728.8333333333334</ele><time>2026-04-30T08:33:52.989Z</time></trkpt><trkpt lat="44.7582189" lon="9.4195108"><ele>730.6666666666667</ele><time>2026-04-30T08:33:53.99Z</time></trkpt><trkpt lat="44.7581326" lon="9.4195132"><ele>732.5</ele><time>2026-04-30T08:33:54.989Z</time></trkpt><trkpt lat="44.7580626" lon="9.419519"><ele>734.3333333333334</ele><time>2026-04-30T08:33:55.988Z</time></trkpt><trkpt lat="44.757972" lon="9.4195313"><ele>736.1666666666666</ele><time>2026-04-30T08:33:57.988Z</time></trkpt><trkpt lat="44.7578972" lon="9.4195596"><ele>738.0</ele><time>2026-04-30T08:34:04.989Z</time></trkpt><trkpt lat="44.7578363" lon="9.4196039"><ele>737.1666666666666</ele><time>2026-04-30T08:34:07.99Z</time></trkpt><trkpt lat="44.7577558" lon="9.4196734"><ele>736.3333333333334</ele><time>2026-04-30T08:34:10.988Z</time></trkpt><trkpt lat="44.7576339" lon="9.4197392"><ele>735.5</ele><time>2026-04-30T08:34:12.988Z</time></trkpt><trkpt lat="44.7575649" lon="9.4197579"><ele>734.6666666666667</ele><time>2026-04-30T08:34:13.99Z</time></trkpt><trkpt lat="44.7574976" lon="9.4197602"><ele>733.8333333333334</ele><time>2026-04-30T08:34:14.987Z</time></trkpt><trkpt lat="44.7574277" lon="9.419762"><ele>733.0</ele><time>2026-04-30T08:34:15.988Z</time></trkpt><trkpt lat="44.7573561" lon="9.4197775"><ele>733.0</ele><time>2026-04-30T08:34:16.987Z</time></trkpt><trkpt lat="44.7572853" lon="9.419808"><ele>733.0</ele><time>2026-04-30T08:34:17.988Z</time></trkpt><trkpt lat="44.757218" lon="9.4198539"><ele>733.0</ele><time>2026-04-30T08:34:18.988Z</time></trkpt><trkpt lat="44.7571558" lon="9.4199162"><ele>733.0</ele><time>2026-04-30T08:34:19.989Z</time></trkpt><trkpt lat="44.7571001" lon="9.4199913"><ele>733.0</ele><time>2026-04-30T08:34:20.988Z</time></trkpt><trkpt lat="44.7570512" lon="9.4200639"><ele>733.0</ele><time>2026-04-30T08:34:21.988Z</time></trkpt><trkpt lat="44.7569582" lon="9.4201746"><ele>733.0</ele><time>2026-04-30T08:34:23.988Z</time></trkpt><trkpt lat="44.7568742" lon="9.4202562"><ele>733.0</ele><time>2026-04-30T08:34:25.989Z</time></trkpt><trkpt lat="44.7568203" lon="9.4203535"><ele>733.0</ele><time>2026-04-30T08:34:27.989Z</time></trkpt><trkpt lat="44.7567664" lon="9.4204765"><ele>733.0</ele><time>2026-04-30T08:34:34.987Z</time></trkpt><trkpt lat="44.7567216" lon="9.4205497"><ele>733.0</ele><time>2026-04-30T08:34:35.989Z</time></trkpt><trkpt lat="44.7566806" lon="9.4206299"><ele>733.0</ele><time>2026-04-30T08:34:36.988Z</time></trkpt><trkpt lat="44.7566477" lon="9.4207129"><ele>735.0</ele><time>2026-04-30T08:34:37.988Z</time></trkpt><trkpt lat="44.7566161" lon="9.4207914"><ele>737.0</ele><time>2026-04-30T08:34:38.988Z</time></trkpt><trkpt lat="44.7565455" lon="9.4209024"><ele>739.0</ele><time>2026-04-30T08:34:40.988Z</time></trkpt><trkpt lat="44.7564642" lon="9.4209221"><ele>741.0</ele><time>2026-04-30T08:34:42.988Z</time></trkpt><trkpt lat="44.7564036" lon="9.4208596"><ele>743.0</ele><time>2026-04-30T08:34:44.989Z</time></trkpt><trkpt lat="44.7563805" lon="9.4207587"><ele>745.0</ele><time>2026-04-30T08:34:46.989Z</time></trkpt><trkpt lat="44.7563549" lon="9.4206504"><ele>745.0</ele><time>2026-04-30T08:34:48.988Z</time></trkpt><trkpt lat="44.7563212" lon="9.4205272"><ele>745.0</ele><time>2026-04-30T08:34:50.989Z</time></trkpt><trkpt lat="44.7562848" lon="9.4203845"><ele>745.0</ele><time>2026-04-30T08:34:52.987Z</time></trkpt><trkpt lat="44.7562492" lon="9.4202667"><ele>745.0</ele><time>2026-04-30T08:34:54.991Z</time></trkpt><trkpt lat="44.7562098" lon="9.4201597"><ele>745.0</ele><time>2026-04-30T08:34:56.989Z</time></trkpt><trkpt lat="44.7561667" lon="9.4200882"><ele>745.0</ele><time>2026-04-30T08:34:59.99Z</time></trkpt><trkpt lat="44.7560925" lon="9.4200222"><ele>747.0</ele><time>2026-04-30T08:36:14.991Z</time></trkpt><trkpt lat="44.7559945" lon="9.419936"><ele>749.0</ele><time>2026-04-30T08:36:16.989Z</time></trkpt><trkpt lat="44.7558913" lon="9.4198612"><ele>751.0</ele><time>2026-04-30T08:36:18.988Z</time></trkpt><trkpt lat="44.7557805" lon="9.4198066"><ele>753.0</ele><time>2026-04-30T08:36:20.989Z</time></trkpt><trkpt lat="44.75567" lon="9.419755"><ele>753.0</ele><time>2026-04-30T08:36:22.99Z</time></trkpt><trkpt lat="44.7556167" lon="9.41966"><ele>753.0</ele><time>2026-04-30T08:36:24.988Z</time></trkpt><trkpt lat="44.7556117" lon="9.4195233"><ele>753.0</ele><time>2026-04-30T08:36:26.989Z</time></trkpt><trkpt lat="44.75561" lon="9.4193567"><ele>753.0</ele><time>2026-04-30T08:36:28.989Z</time></trkpt><trkpt lat="44.7556133" lon="9.419265"><ele>753.0</ele><time>2026-04-30T08:36:29.988Z</time></trkpt><trkpt lat="44.7556167" lon="9.41917"><ele>753.0</ele><time>2026-04-30T08:36:30.988Z</time></trkpt><trkpt lat="44.75563" lon="9.4190783"><ele>751.8333333333334</ele><time>2026-04-30T08:36:31.988Z</time></trkpt><trkpt lat="44.75565" lon="9.4189683"><ele>750.6666666666666</ele><time>2026-04-30T08:36:32.987Z</time></trkpt><trkpt lat="44.7556717" lon="9.4188633"><ele>749.5</ele><time>2026-04-30T08:36:33.989Z</time></trkpt><trkpt lat="44.75569" lon="9.4187717"><ele>748.3333333333333</ele><time>2026-04-30T08:36:34.988Z</time></trkpt><trkpt lat="44.755715" lon="9.418625"><ele>747.1666666666666</ele><time>2026-04-30T08:36:36.99Z</time></trkpt><trkpt lat="44.7557183" lon="9.4184933"><ele>746.0</ele><time>2026-04-30T08:36:38.987Z</time></trkpt><trkpt lat="44.7557183" lon="9.418385"><ele>744.1666666666666</ele><time>2026-04-30T08:36:40.988Z</time></trkpt><trkpt lat="44.75571" lon="9.4182617"><ele>742.3333333333333</ele><time>2026-04-30T08:36:42.989Z</time></trkpt><trkpt lat="44.7556967" lon="9.4181167"><ele>740.5</ele><time>2026-04-30T08:36:44.988Z</time></trkpt><trkpt lat="44.755685" lon="9.4180233"><ele>738.6666666666666</ele><time>2026-04-30T08:36:45.987Z</time></trkpt><trkpt lat="44.755665" lon="9.417925"><ele>736.8333333333334</ele><time>2026-04-30T08:36:46.988Z</time></trkpt><trkpt lat="44.7556317" lon="9.4178117"><ele>735.0</ele><time>2026-04-30T08:36:47.99Z</time></trkpt><trkpt lat="44.7555883" lon="9.4176983"><ele>733.3333333333334</ele><time>2026-04-30T08:36:48.989Z</time></trkpt><trkpt lat="44.7555517" lon="9.4176033"><ele>731.6666666666666</ele><time>2026-04-30T08:36:49.988Z</time></trkpt><trkpt lat="44.7555233" lon="9.4175183"><ele>730.0</ele><time>2026-04-30T08:36:50.988Z</time></trkpt><trkpt lat="44.7555167" lon="9.41735"><ele>728.3333333333333</ele><time>2026-04-30T08:36:52.99Z</time></trkpt><trkpt lat="44.7555417" lon="9.417265"><ele>726.6666666666666</ele><time>2026-04-30T08:36:53.99Z</time></trkpt><trkpt lat="44.7555817" lon="9.4171683"><ele>725.0</ele><time>2026-04-30T08:36:54.988Z</time></trkpt><trkpt lat="44.7556217" lon="9.4170667"><ele>724.2</ele><time>2026-04-30T08:36:55.991Z</time></trkpt><trkpt lat="44.75566" lon="9.4169717"><ele>723.4</ele><time>2026-04-30T08:36:56.988Z</time></trkpt><trkpt lat="44.7556917" lon="9.4168317"><ele>722.5999999999999</ele><time>2026-04-30T08:36:58.989Z</time></trkpt><trkpt lat="44.7557183" lon="9.4166983"><ele>721.8</ele><time>2026-04-30T08:37:00.988Z</time></trkpt><trkpt lat="44.755735" lon="9.4165283"><ele>721.0</ele><time>2026-04-30T08:37:02.988Z</time></trkpt><trkpt lat="44.7557267" lon="9.41644"><ele>721.0</ele><time>2026-04-30T08:37:03.989Z</time></trkpt><trkpt lat="44.7557133" lon="9.4163533"><ele>721.0</ele><time>2026-04-30T08:37:04.99Z</time></trkpt><trkpt lat="44.75569" lon="9.41627"><ele>721.0</ele><time>2026-04-30T08:37:05.988Z</time></trkpt><trkpt lat="44.7556583" lon="9.41619"><ele>721.0</ele><time>2026-04-30T08:37:06.987Z</time></trkpt><trkpt lat="44.75558" lon="9.4160733"><ele>721.0</ele><time>2026-04-30T08:37:08.987Z</time></trkpt><trkpt lat="44.7555067" lon="9.415975"><ele>721.0</ele><time>2026-04-30T08:37:10.989Z</time></trkpt><trkpt lat="44.75544" lon="9.4158783"><ele>721.5</ele><time>2026-04-30T08:37:12.987Z</time></trkpt><trkpt lat="44.755375" lon="9.41584"><ele>722.0</ele><time>2026-04-30T08:37:14.989Z</time></trkpt><trkpt lat="44.75531" lon="9.4158667"><ele>722.5</ele><time>2026-04-30T08:37:16.989Z</time></trkpt><trkpt lat="44.7552067" lon="9.4159033"><ele>723.0</ele><time>2026-04-30T08:37:18.99Z</time></trkpt><trkpt lat="44.755145" lon="9.4159317"><ele>723.5</ele><time>2026-04-30T08:37:19.987Z</time></trkpt><trkpt lat="44.7550417" lon="9.41599"><ele>724.0</ele><time>2026-04-30T08:37:21.989Z</time></trkpt><trkpt lat="44.7549833" lon="9.4160233"><ele>724.0</ele><time>2026-04-30T08:37:22.989Z</time></trkpt><trkpt lat="44.754925" lon="9.4160583"><ele>724.0</ele><time>2026-04-30T08:37:23.99Z</time></trkpt><trkpt lat="44.7548167" lon="9.4161317"><ele>724.0</ele><time>2026-04-30T08:37:25.989Z</time></trkpt><trkpt lat="44.7547233" lon="9.4162333"><ele>724.0</ele><time>2026-04-30T08:37:27.989Z</time></trkpt><trkpt lat="44.75467" lon="9.416285"><ele>724.0</ele><time>2026-04-30T08:37:28.989Z</time></trkpt><trkpt lat="44.7546133" lon="9.416345"><ele>724.0</ele><time>2026-04-30T08:37:29.99Z</time></trkpt><trkpt lat="44.7545517" lon="9.4163933"><ele>725.0</ele><time>2026-04-30T08:37:30.989Z</time></trkpt><trkpt lat="44.75449" lon="9.4164367"><ele>726.0</ele><time>2026-04-30T08:37:31.989Z</time></trkpt><trkpt lat="44.7544167" lon="9.4165067"><ele>727.0</ele><time>2026-04-30T08:37:33.988Z</time></trkpt><trkpt lat="44.7543517" lon="9.4166067"><ele>728.0</ele><time>2026-04-30T08:37:35.988Z</time></trkpt><trkpt lat="44.7542633" lon="9.4167167"><ele>729.0</ele><time>2026-04-30T08:37:37.99Z</time></trkpt><trkpt lat="44.75421" lon="9.4167833"><ele>730.0</ele><time>2026-04-30T08:37:38.989Z</time></trkpt><trkpt lat="44.754155" lon="9.4168483"><ele>730.3333333333334</ele><time>2026-04-30T08:37:39.99Z</time></trkpt><trkpt lat="44.75409" lon="9.4169333"><ele>730.6666666666667</ele><time>2026-04-30T08:37:40.988Z</time></trkpt><trkpt lat="44.7540267" lon="9.4170117"><ele>731.0</ele><time>2026-04-30T08:37:41.989Z</time></trkpt><trkpt lat="44.753965" lon="9.4170783"><ele>731.3333333333334</ele><time>2026-04-30T08:37:42.991Z</time></trkpt><trkpt lat="44.7539017" lon="9.417145"><ele>731.6666666666666</ele><time>2026-04-30T08:37:43.989Z</time></trkpt><trkpt lat="44.7538267" lon="9.41722"><ele>732.0</ele><time>2026-04-30T08:37:44.989Z</time></trkpt><trkpt lat="44.75375" lon="9.417295"><ele>732.8333333333334</ele><time>2026-04-30T08:37:45.991Z</time></trkpt><trkpt lat="44.753675" lon="9.4173617"><ele>733.6666666666666</ele><time>2026-04-30T08:37:46.989Z</time></trkpt><trkpt lat="44.7536033" lon="9.417415"><ele>734.5</ele><time>2026-04-30T08:37:47.99Z</time></trkpt><trkpt lat="44.7535267" lon="9.4174567"><ele>735.3333333333333</ele><time>2026-04-30T08:37:48.991Z</time></trkpt><trkpt lat="44.75345" lon="9.417485"><ele>736.1666666666666</ele><time>2026-04-30T08:37:49.99Z</time></trkpt><trkpt lat="44.7533717" lon="9.4175"><ele>737.0</ele><time>2026-04-30T08:37:50.99Z</time></trkpt><trkpt lat="44.7532917" lon="9.4174983"><ele>737.6666666666666</ele><time>2026-04-30T08:37:51.989Z</time></trkpt><trkpt lat="44.75321" lon="9.4174883"><ele>738.3333333333333</ele><time>2026-04-30T08:37:52.989Z</time></trkpt><trkpt lat="44.7531267" lon="9.4174817"><ele>739.0</ele><time>2026-04-30T08:37:53.989Z</time></trkpt><trkpt lat="44.75304" lon="9.4174817"><ele>739.6666666666666</ele><time>2026-04-30T08:37:54.99Z</time></trkpt><trkpt lat="44.7529583" lon="9.4174933"><ele>740.3333333333334</ele><time>2026-04-30T08:37:55.989Z</time></trkpt><trkpt lat="44.75288" lon="9.4175033"><ele>741.0</ele><time>2026-04-30T08:37:56.989Z</time></trkpt><trkpt lat="44.7528017" lon="9.4175033"><ele>741.0</ele><time>2026-04-30T08:37:57.99Z</time></trkpt><trkpt lat="44.75273" lon="9.4174983"><ele>741.0</ele><time>2026-04-30T08:37:58.99Z</time></trkpt><trkpt lat="44.7526633" lon="9.4174817"><ele>741.0</ele><time>2026-04-30T08:37:59.99Z</time></trkpt><trkpt lat="44.7526" lon="9.4174333"><ele>741.0</ele><time>2026-04-30T08:38:00.99Z</time></trkpt><trkpt lat="44.75254" lon="9.417375"><ele>741.0</ele><time>2026-04-30T08:38:01.987Z</time></trkpt><trkpt lat="44.75248" lon="9.4173017"><ele>741.0</ele><time>2026-04-30T08:38:02.99Z</time></trkpt><trkpt lat="44.752425" lon="9.417215"><ele>741.0</ele><time>2026-04-30T08:38:03.987Z</time></trkpt><trkpt lat="44.7523783" lon="9.4171317"><ele>742.6666666666666</ele><time>2026-04-30T08:38:04.987Z</time></trkpt><trkpt lat="44.7523333" lon="9.4170533"><ele>744.3333333333334</ele><time>2026-04-30T08:38:05.987Z</time></trkpt><trkpt lat="44.7522833" lon="9.4169717"><ele>746.0</ele><time>2026-04-30T08:38:06.989Z</time></trkpt><trkpt lat="44.7522267" lon="9.4168833"><ele>747.6666666666667</ele><time>2026-04-30T08:38:07.987Z</time></trkpt><trkpt lat="44.7521733" lon="9.4167967"><ele>749.3333333333334</ele><time>2026-04-30T08:38:08.989Z</time></trkpt><trkpt lat="44.75212" lon="9.4167183"><ele>751.0</ele><time>2026-04-30T08:38:09.987Z</time></trkpt><trkpt lat="44.7520317" lon="9.4166217"><ele>751.0</ele><time>2026-04-30T08:38:11.988Z</time></trkpt><trkpt lat="44.7519283" lon="9.4165233"><ele>751.0</ele><time>2026-04-30T08:38:13.988Z</time></trkpt><trkpt lat="44.75183" lon="9.4164433"><ele>751.0</ele><time>2026-04-30T08:38:15.993Z</time></trkpt><trkpt lat="44.7517482" lon="9.4164137"><ele>751.0</ele><time>2026-04-30T08:38:21.987Z</time></trkpt><trkpt lat="44.7516663" lon="9.416395"><ele>751.0</ele><time>2026-04-30T08:38:23.989Z</time></trkpt><trkpt lat="44.7515463" lon="9.4163593"><ele>753.8333333333334</ele><time>2026-04-30T08:38:25.989Z</time></trkpt><trkpt lat="44.7514832" lon="9.4163108"><ele>756.6666666666667</ele><time>2026-04-30T08:38:26.989Z</time></trkpt><trkpt lat="44.7514241" lon="9.4162608"><ele>759.5</ele><time>2026-04-30T08:38:27.988Z</time></trkpt><trkpt lat="44.751369" lon="9.4162109"><ele>762.3333333333334</ele><time>2026-04-30T08:38:28.987Z</time></trkpt><trkpt lat="44.7513184" lon="9.4161345"><ele>765.1666666666666</ele><time>2026-04-30T08:38:29.987Z</time></trkpt><trkpt lat="44.751274" lon="9.4160471"><ele>768.0</ele><time>2026-04-30T08:38:30.989Z</time></trkpt><trkpt lat="44.7511808" lon="9.4159481"><ele>768.0</ele><time>2026-04-30T08:38:32.988Z</time></trkpt><trkpt lat="44.751124" lon="9.4159095"><ele>768.0</ele><time>2026-04-30T08:38:33.987Z</time></trkpt><trkpt lat="44.7510641" lon="9.415844"><ele>768.0</ele><time>2026-04-30T08:38:34.987Z</time></trkpt><trkpt lat="44.7510064" lon="9.4157424"><ele>768.0</ele><time>2026-04-30T08:38:35.988Z</time></trkpt><trkpt lat="44.750951" lon="9.4156316"><ele>768.0</ele><time>2026-04-30T08:38:36.99Z</time></trkpt><trkpt lat="44.7509023" lon="9.4155434"><ele>768.0</ele><time>2026-04-30T08:38:37.989Z</time></trkpt><trkpt lat="44.7508022" lon="9.4154902"><ele>765.5</ele><time>2026-04-30T08:38:39.988Z</time></trkpt><trkpt lat="44.7506849" lon="9.4155428"><ele>763.0</ele><time>2026-04-30T08:38:41.99Z</time></trkpt><trkpt lat="44.750613" lon="9.4155647"><ele>760.5</ele><time>2026-04-30T08:38:42.987Z</time></trkpt><trkpt lat="44.7505317" lon="9.4155583"><ele>758.0</ele><time>2026-04-30T08:38:43.992Z</time></trkpt><trkpt lat="44.7504633" lon="9.4155533"><ele>755.5</ele><time>2026-04-30T08:38:44.989Z</time></trkpt><trkpt lat="44.7503933" lon="9.4155483"><ele>753.0</ele><time>2026-04-30T08:38:45.987Z</time></trkpt><trkpt lat="44.750325" lon="9.4155267"><ele>753.0</ele><time>2026-04-30T08:38:46.987Z</time></trkpt><trkpt lat="44.7502583" lon="9.4155067"><ele>753.0</ele><time>2026-04-30T08:38:47.987Z</time></trkpt><trkpt lat="44.7501483" lon="9.4155517"><ele>753.0</ele><time>2026-04-30T08:38:49.989Z</time></trkpt><trkpt lat="44.7500933" lon="9.4155983"><ele>753.0</ele><time>2026-04-30T08:38:50.989Z</time></trkpt><trkpt lat="44.7499917" lon="9.41565"><ele>753.0</ele><time>2026-04-30T08:38:52.987Z</time></trkpt><trkpt lat="44.749925" lon="9.4156267"><ele>753.0</ele><time>2026-04-30T08:38:53.988Z</time></trkpt><trkpt lat="44.7498667" lon="9.4155833"><ele>750.8333333333334</ele><time>2026-04-30T08:38:54.989Z</time></trkpt><trkpt lat="44.7497717" lon="9.415465"><ele>748.6666666666666</ele><time>2026-04-30T08:38:56.988Z</time></trkpt><trkpt lat="44.749715" lon="9.4154183"><ele>746.5</ele><time>2026-04-30T08:38:57.988Z</time></trkpt><trkpt lat="44.7496517" lon="9.4153883"><ele>744.3333333333333</ele><time>2026-04-30T08:38:58.989Z</time></trkpt><trkpt lat="44.7495883" lon="9.4153583"><ele>742.1666666666666</ele><time>2026-04-30T08:38:59.988Z</time></trkpt><trkpt lat="44.74953" lon="9.41532"><ele>740.0</ele><time>2026-04-30T08:39:00.988Z</time></trkpt><trkpt lat="44.7494317" lon="9.4152417"><ele>734.6</ele><time>2026-04-30T08:39:02.987Z</time></trkpt><trkpt lat="44.7493233" lon="9.41519"><ele>729.2</ele><time>2026-04-30T08:39:04.988Z</time></trkpt><trkpt lat="44.74924" lon="9.4150967"><ele>723.8</ele><time>2026-04-30T08:39:06.993Z</time></trkpt><trkpt lat="44.749155" lon="9.4149867"><ele>718.4</ele><time>2026-04-30T08:39:08.992Z</time></trkpt><trkpt lat="44.749095" lon="9.41487"><ele>713.0</ele><time>2026-04-30T08:39:10.987Z</time></trkpt><trkpt lat="44.74905" lon="9.4147517"><ele>713.0</ele><time>2026-04-30T08:39:12.988Z</time></trkpt><trkpt lat="44.748985" lon="9.4146617"><ele>713.0</ele><time>2026-04-30T08:39:14.987Z</time></trkpt><trkpt lat="44.748915" lon="9.4145917"><ele>713.0</ele><time>2026-04-30T08:39:16.989Z</time></trkpt><trkpt lat="44.74884" lon="9.4145317"><ele>713.0</ele><time>2026-04-30T08:39:19.989Z</time></trkpt><trkpt lat="44.748765" lon="9.414465"><ele>713.0</ele><time>2026-04-30T08:39:21.988Z</time></trkpt><trkpt lat="44.7486617" lon="9.4143767"><ele>714.5999999999999</ele><time>2026-04-30T08:39:23.989Z</time></trkpt><trkpt lat="44.74856" lon="9.4143067"><ele>716.1999999999999</ele><time>2026-04-30T08:39:25.99Z</time></trkpt><trkpt lat="44.7484733" lon="9.4142667"><ele>717.8</ele><time>2026-04-30T08:39:27.99Z</time></trkpt><trkpt lat="44.7483917" lon="9.4142317"><ele>719.4</ele><time>2026-04-30T08:39:30.987Z</time></trkpt><trkpt lat="44.748305" lon="9.414185"><ele>721.0</ele><time>2026-04-30T08:39:41.989Z</time></trkpt><trkpt lat="44.748235" lon="9.4141517"><ele>716.8333333333334</ele><time>2026-04-30T08:39:43.99Z</time></trkpt><trkpt lat="44.748155" lon="9.414145"><ele>712.6666666666667</ele><time>2026-04-30T08:39:46.989Z</time></trkpt><trkpt lat="44.748095" lon="9.4142067"><ele>708.5</ele><time>2026-04-30T08:39:49.989Z</time></trkpt><trkpt lat="44.7480483" lon="9.4142817"><ele>704.3333333333334</ele><time>2026-04-30T08:39:51.99Z</time></trkpt><trkpt lat="44.7480033" lon="9.4144017"><ele>700.1666666666666</ele><time>2026-04-30T08:39:53.993Z</time></trkpt><trkpt lat="44.7479767" lon="9.41449"><ele>696.0</ele><time>2026-04-30T08:39:54.99Z</time></trkpt><trkpt lat="44.7479183" lon="9.4146333"><ele>694.5</ele><time>2026-04-30T08:39:56.988Z</time></trkpt><trkpt lat="44.7478533" lon="9.4147017"><ele>693.0</ele><time>2026-04-30T08:39:58.988Z</time></trkpt><trkpt lat="44.7477783" lon="9.4147283"><ele>691.5</ele><time>2026-04-30T08:40:00.989Z</time></trkpt><trkpt lat="44.7477017" lon="9.4147233"><ele>690.0</ele><time>2026-04-30T08:40:02.99Z</time></trkpt><trkpt lat="44.747615" lon="9.4147783"><ele>688.5</ele><time>2026-04-30T08:40:04.989Z</time></trkpt><trkpt lat="44.7475383" lon="9.414845"><ele>687.0</ele><time>2026-04-30T08:40:06.987Z</time></trkpt><trkpt lat="44.7474717" lon="9.414925"><ele>684.0</ele><time>2026-04-30T08:40:08.988Z</time></trkpt><trkpt lat="44.7473917" lon="9.4149917"><ele>681.0</ele><time>2026-04-30T08:40:10.988Z</time></trkpt><trkpt lat="44.74728" lon="9.4149883"><ele>678.0</ele><time>2026-04-30T08:40:12.988Z</time></trkpt><trkpt lat="44.7472167" lon="9.4150033"><ele>675.0</ele><time>2026-04-30T08:40:13.988Z</time></trkpt><trkpt lat="44.7471533" lon="9.4150233"><ele>672.0</ele><time>2026-04-30T08:40:14.988Z</time></trkpt><trkpt lat="44.7470233" lon="9.41506"><ele>672.0</ele><time>2026-04-30T08:40:16.988Z</time></trkpt><trkpt lat="44.7469517" lon="9.41509"><ele>672.0</ele><time>2026-04-30T08:40:17.99Z</time></trkpt><trkpt lat="44.7468767" lon="9.4151167"><ele>672.0</ele><time>2026-04-30T08:40:18.988Z</time></trkpt><trkpt lat="44.7467983" lon="9.415145"><ele>672.0</ele><time>2026-04-30T08:40:19.989Z</time></trkpt><trkpt lat="44.7467217" lon="9.4151733"><ele>672.0</ele><time>2026-04-30T08:40:20.989Z</time></trkpt><trkpt lat="44.74665" lon="9.415195"><ele>672.0</ele><time>2026-04-30T08:40:21.987Z</time></trkpt><trkpt lat="44.7465783" lon="9.4151983"><ele>670.1666666666666</ele><time>2026-04-30T08:40:22.987Z</time></trkpt><trkpt lat="44.7465033" lon="9.4151783"><ele>668.3333333333334</ele><time>2026-04-30T08:40:23.991Z</time></trkpt><trkpt lat="44.7464317" lon="9.41513"><ele>666.5</ele><time>2026-04-30T08:40:24.988Z</time></trkpt><trkpt lat="44.74636" lon="9.4150633"><ele>664.6666666666667</ele><time>2026-04-30T08:40:25.989Z</time></trkpt><trkpt lat="44.7462883" lon="9.414995"><ele>662.8333333333334</ele><time>2026-04-30T08:40:26.987Z</time></trkpt><trkpt lat="44.746215" lon="9.4149417"><ele>661.0</ele><time>2026-04-30T08:40:27.99Z</time></trkpt><trkpt lat="44.7461433" lon="9.4149117"><ele>661.0</ele><time>2026-04-30T08:40:28.989Z</time></trkpt><trkpt lat="44.74608" lon="9.4148967"><ele>661.0</ele><time>2026-04-30T08:40:29.987Z</time></trkpt><trkpt lat="44.7460167" lon="9.4148917"><ele>661.0</ele><time>2026-04-30T08:40:30.989Z</time></trkpt><trkpt lat="44.7459483" lon="9.414895"><ele>661.0</ele><time>2026-04-30T08:40:31.987Z</time></trkpt><trkpt lat="44.745875" lon="9.4148967"><ele>661.0</ele><time>2026-04-30T08:40:32.989Z</time></trkpt><trkpt lat="44.7458033" lon="9.4148983"><ele>661.0</ele><time>2026-04-30T08:40:33.988Z</time></trkpt><trkpt lat="44.7457333" lon="9.4149067"><ele>661.0</ele><time>2026-04-30T08:40:34.989Z</time></trkpt><trkpt lat="44.745625" lon="9.4149067"><ele>657.5999999999999</ele><time>2026-04-30T08:40:36.987Z</time></trkpt><trkpt lat="44.7455067" lon="9.4148467"><ele>654.2</ele><time>2026-04-30T08:40:38.987Z</time></trkpt><trkpt lat="44.7453967" lon="9.414775"><ele>650.8</ele><time>2026-04-30T08:40:40.988Z</time></trkpt><trkpt lat="44.745335" lon="9.4147433"><ele>647.4000000000001</ele><time>2026-04-30T08:40:41.992Z</time></trkpt><trkpt lat="44.7452633" lon="9.41472"><ele>644.0</ele><time>2026-04-30T08:40:42.988Z</time></trkpt><trkpt lat="44.7451833" lon="9.4146933"><ele>643.3333333333333</ele><time>2026-04-30T08:40:43.99Z</time></trkpt><trkpt lat="44.7451067" lon="9.4146683"><ele>642.6666666666666</ele><time>2026-04-30T08:40:44.989Z</time></trkpt><trkpt lat="44.7450283" lon="9.41465"><ele>642.0</ele><time>2026-04-30T08:40:45.988Z</time></trkpt><trkpt lat="44.74495" lon="9.414645"><ele>641.3333333333334</ele><time>2026-04-30T08:40:46.993Z</time></trkpt><trkpt lat="44.744875" lon="9.4146633"><ele>640.6666666666667</ele><time>2026-04-30T08:40:47.99Z</time></trkpt><trkpt lat="44.7448083" lon="9.41471"><ele>640.0</ele><time>2026-04-30T08:40:48.989Z</time></trkpt><trkpt lat="44.74476" lon="9.4147733"><ele>639.8333333333334</ele><time>2026-04-30T08:40:49.988Z</time></trkpt><trkpt lat="44.7447333" lon="9.4149"><ele>639.6666666666667</ele><time>2026-04-30T08:40:51.99Z</time></trkpt><trkpt lat="44.744785" lon="9.415015"><ele>639.5</ele><time>2026-04-30T08:40:53.992Z</time></trkpt><trkpt lat="44.7448633" lon="9.4151467"><ele>639.3333333333334</ele><time>2026-04-30T08:40:55.99Z</time></trkpt><trkpt lat="44.744915" lon="9.415205"><ele>639.1666666666666</ele><time>2026-04-30T08:40:56.991Z</time></trkpt><trkpt lat="44.74497" lon="9.4152633"><ele>639.0</ele><time>2026-04-30T08:40:57.987Z</time></trkpt><trkpt lat="44.745025" lon="9.4153233"><ele>639.0000000000001</ele><time>2026-04-30T08:40:58.989Z</time></trkpt><trkpt lat="44.7450783" lon="9.4153817"><ele>639.0</ele><time>2026-04-30T08:40:59.989Z</time></trkpt><trkpt lat="44.745135" lon="9.4154417"><ele>639.0</ele><time>2026-04-30T08:41:00.989Z</time></trkpt><trkpt lat="44.7451917" lon="9.4154983"><ele>639.0</ele><time>2026-04-30T08:41:01.988Z</time></trkpt><trkpt lat="44.7452467" lon="9.4155567"><ele>639.0</ele><time>2026-04-30T08:41:02.99Z</time></trkpt><trkpt lat="44.7453033" lon="9.41562"><ele>639.0000000000001</ele><time>2026-04-30T08:41:03.988Z</time></trkpt><trkpt lat="44.7453517" lon="9.4156983"><ele>639.0</ele><time>2026-04-30T08:41:04.988Z</time></trkpt><trkpt lat="44.7453783" lon="9.415795"><ele>638.8333333333334</ele><time>2026-04-30T08:41:05.987Z</time></trkpt><trkpt lat="44.7453817" lon="9.4159217"><ele>638.6666666666666</ele><time>2026-04-30T08:41:06.989Z</time></trkpt><trkpt lat="44.7453833" lon="9.416055"><ele>638.5</ele><time>2026-04-30T08:41:07.992Z</time></trkpt><trkpt lat="44.7453883" lon="9.4161817"><ele>638.3333333333333</ele><time>2026-04-30T08:41:08.99Z</time></trkpt><trkpt lat="44.7453917" lon="9.4163"><ele>638.1666666666666</ele><time>2026-04-30T08:41:09.989Z</time></trkpt><trkpt lat="44.7453917" lon="9.4164117"><ele>638.0</ele><time>2026-04-30T08:41:10.989Z</time></trkpt><trkpt lat="44.7453933" lon="9.41652"><ele>637.2857142857143</ele><time>2026-04-30T08:41:11.989Z</time></trkpt><trkpt lat="44.7453967" lon="9.4166233"><ele>636.5714285714286</ele><time>2026-04-30T08:41:12.988Z</time></trkpt><trkpt lat="44.7453967" lon="9.416725"><ele>635.8571428571429</ele><time>2026-04-30T08:41:13.988Z</time></trkpt><trkpt lat="44.7453933" lon="9.4168233"><ele>635.1428571428571</ele><time>2026-04-30T08:41:14.989Z</time></trkpt><trkpt lat="44.745385" lon="9.4169233"><ele>634.4285714285714</ele><time>2026-04-30T08:41:15.988Z</time></trkpt><trkpt lat="44.745375" lon="9.4170217"><ele>633.7142857142857</ele><time>2026-04-30T08:41:16.989Z</time></trkpt><trkpt lat="44.745365" lon="9.417115"><ele>633.0</ele><time>2026-04-30T08:41:17.989Z</time></trkpt><trkpt lat="44.7453517" lon="9.4172067"><ele>633.0</ele><time>2026-04-30T08:41:18.989Z</time></trkpt><trkpt lat="44.7452983" lon="9.4173567"><ele>633.0</ele><time>2026-04-30T08:41:20.99Z</time></trkpt><trkpt lat="44.7452" lon="9.4174417"><ele>633.0</ele><time>2026-04-30T08:41:22.989Z</time></trkpt><trkpt lat="44.7450833" lon="9.4174017"><ele>633.0</ele><time>2026-04-30T08:41:24.987Z</time></trkpt><trkpt lat="44.7450283" lon="9.4173567"><ele>633.0</ele><time>2026-04-30T08:41:25.988Z</time></trkpt><trkpt lat="44.7449683" lon="9.417315"><ele>631.8571428571429</ele><time>2026-04-30T08:41:26.989Z</time></trkpt><trkpt lat="44.7449" lon="9.4172667"><ele>630.7142857142858</ele><time>2026-04-30T08:41:27.988Z</time></trkpt><trkpt lat="44.74483" lon="9.4172217"><ele>629.5714285714287</ele><time>2026-04-30T08:41:28.99Z</time></trkpt><trkpt lat="44.74476" lon="9.4171767"><ele>628.4285714285714</ele><time>2026-04-30T08:41:29.99Z</time></trkpt><trkpt lat="44.7446883" lon="9.41714"><ele>627.2857142857143</ele><time>2026-04-30T08:41:30.989Z</time></trkpt><trkpt lat="44.74462" lon="9.4171117"><ele>626.1428571428572</ele><time>2026-04-30T08:41:31.987Z</time></trkpt><trkpt lat="44.744555" lon="9.41708"><ele>625.0</ele><time>2026-04-30T08:41:32.988Z</time></trkpt><trkpt lat="44.744475" lon="9.4170633"><ele>624.6666666666667</ele><time>2026-04-30T08:41:33.988Z</time></trkpt><trkpt lat="44.7443867" lon="9.417065"><ele>624.3333333333334</ele><time>2026-04-30T08:41:34.988Z</time></trkpt><trkpt lat="44.7442967" lon="9.41708"><ele>624.0</ele><time>2026-04-30T08:41:35.988Z</time></trkpt><trkpt lat="44.7442183" lon="9.4171083"><ele>623.6666666666666</ele><time>2026-04-30T08:41:36.987Z</time></trkpt><trkpt lat="44.74414" lon="9.4171367"><ele>623.3333333333333</ele><time>2026-04-30T08:41:37.988Z</time></trkpt><trkpt lat="44.7440617" lon="9.4171433"><ele>623.0</ele><time>2026-04-30T08:41:38.988Z</time></trkpt><trkpt lat="44.7439783" lon="9.4171417"><ele>622.0</ele><time>2026-04-30T08:41:39.99Z</time></trkpt><trkpt lat="44.7438917" lon="9.41714"><ele>621.0</ele><time>2026-04-30T08:41:40.989Z</time></trkpt><trkpt lat="44.7438033" lon="9.4171417"><ele>620.0</ele><time>2026-04-30T08:41:41.989Z</time></trkpt><trkpt lat="44.74371" lon="9.4171467"><ele>619.0</ele><time>2026-04-30T08:41:42.99Z</time></trkpt><trkpt lat="44.7436217" lon="9.4171367"><ele>618.0</ele><time>2026-04-30T08:41:43.99Z</time></trkpt><trkpt lat="44.743535" lon="9.417115"><ele>617.0</ele><time>2026-04-30T08:41:44.989Z</time></trkpt><trkpt lat="44.74346" lon="9.4170883"><ele>615.5</ele><time>2026-04-30T08:41:45.988Z</time></trkpt><trkpt lat="44.7434033" lon="9.4170433"><ele>614.0</ele><time>2026-04-30T08:41:46.987Z</time></trkpt><trkpt lat="44.74334" lon="9.4169833"><ele>612.5</ele><time>2026-04-30T08:41:47.989Z</time></trkpt><trkpt lat="44.74327" lon="9.4169033"><ele>611.0</ele><time>2026-04-30T08:41:48.991Z</time></trkpt><trkpt lat="44.74319" lon="9.4168317"><ele>609.5</ele><time>2026-04-30T08:41:49.988Z</time></trkpt><trkpt lat="44.7431117" lon="9.41677"><ele>608.0</ele><time>2026-04-30T08:41:50.989Z</time></trkpt><trkpt lat="44.7430383" lon="9.4166967"><ele>608.0</ele><time>2026-04-30T08:41:51.99Z</time></trkpt><trkpt lat="44.742975" lon="9.41661"><ele>608.0</ele><time>2026-04-30T08:41:52.988Z</time></trkpt><trkpt lat="44.7429167" lon="9.416515"><ele>608.0</ele><time>2026-04-30T08:41:53.994Z</time></trkpt><trkpt lat="44.7428717" lon="9.4164117"><ele>608.0</ele><time>2026-04-30T08:41:54.989Z</time></trkpt><trkpt lat="44.742825" lon="9.4163133"><ele>608.0</ele><time>2026-04-30T08:41:55.988Z</time></trkpt><trkpt lat="44.7427767" lon="9.4162233"><ele>608.0</ele><time>2026-04-30T08:41:56.987Z</time></trkpt><trkpt lat="44.7427233" lon="9.41615"><ele>605.8571428571428</ele><time>2026-04-30T08:41:57.988Z</time></trkpt><trkpt lat="44.742665" lon="9.4160817"><ele>603.7142857142858</ele><time>2026-04-30T08:41:58.987Z</time></trkpt><trkpt lat="44.7426167" lon="9.4160083"><ele>601.5714285714286</ele><time>2026-04-30T08:41:59.989Z</time></trkpt><trkpt lat="44.7425733" lon="9.4159317"><ele>599.4285714285713</ele><time>2026-04-30T08:42:00.987Z</time></trkpt><trkpt lat="44.74252" lon="9.4158583"><ele>597.2857142857142</ele><time>2026-04-30T08:42:01.987Z</time></trkpt><trkpt lat="44.742465" lon="9.415795"><ele>595.1428571428571</ele><time>2026-04-30T08:42:02.988Z</time></trkpt><trkpt lat="44.7423983" lon="9.41572"><ele>593.0</ele><time>2026-04-30T08:42:03.988Z</time></trkpt><trkpt lat="44.7423267" lon="9.4156383"><ele>593.0</ele><time>2026-04-30T08:42:04.987Z</time></trkpt><trkpt lat="44.74226" lon="9.4155683"><ele>593.0</ele><time>2026-04-30T08:42:05.987Z</time></trkpt><trkpt lat="44.742185" lon="9.4155183"><ele>593.0</ele><time>2026-04-30T08:42:06.988Z</time></trkpt><trkpt lat="44.7421067" lon="9.4154617"><ele>593.0</ele><time>2026-04-30T08:42:07.99Z</time></trkpt><trkpt lat="44.742035" lon="9.415395"><ele>593.0</ele><time>2026-04-30T08:42:08.988Z</time></trkpt><trkpt lat="44.7419667" lon="9.4153233"><ele>593.0</ele><time>2026-04-30T08:42:09.987Z</time></trkpt><trkpt lat="44.7418983" lon="9.4152483"><ele>591.5</ele><time>2026-04-30T08:42:10.989Z</time></trkpt><trkpt lat="44.7418383" lon="9.4151833"><ele>590.0</ele><time>2026-04-30T08:42:11.987Z</time></trkpt><trkpt lat="44.7417717" lon="9.4151217"><ele>588.5</ele><time>2026-04-30T08:42:12.987Z</time></trkpt><trkpt lat="44.7417017" lon="9.4150717"><ele>587.0</ele><time>2026-04-30T08:42:13.988Z</time></trkpt><trkpt lat="44.741635" lon="9.4150283"><ele>585.5</ele><time>2026-04-30T08:42:14.989Z</time></trkpt><trkpt lat="44.741565" lon="9.41498"><ele>584.0</ele><time>2026-04-30T08:42:15.988Z</time></trkpt><trkpt lat="44.7414917" lon="9.41493"><ele>584.0</ele><time>2026-04-30T08:42:16.99Z</time></trkpt><trkpt lat="44.741415" lon="9.4148783"><ele>584.0</ele><time>2026-04-30T08:42:17.989Z</time></trkpt><trkpt lat="44.7413317" lon="9.4148317"><ele>584.0</ele><time>2026-04-30T08:42:18.991Z</time></trkpt><trkpt lat="44.74124" lon="9.414795"><ele>584.0</ele><time>2026-04-30T08:42:19.988Z</time></trkpt><trkpt lat="44.7411433" lon="9.4147767"><ele>584.0</ele><time>2026-04-30T08:42:20.988Z</time></trkpt><trkpt lat="44.7410483" lon="9.4147733"><ele>579.2</ele><time>2026-04-30T08:42:21.989Z</time></trkpt><trkpt lat="44.740965" lon="9.4147733"><ele>574.4</ele><time>2026-04-30T08:42:22.991Z</time></trkpt><trkpt lat="44.7408933" lon="9.4147633"><ele>569.6</ele><time>2026-04-30T08:42:23.988Z</time></trkpt><trkpt lat="44.740775" lon="9.41474"><ele>564.8</ele><time>2026-04-30T08:42:25.988Z</time></trkpt><trkpt lat="44.7406783" lon="9.414755"><ele>560.0</ele><time>2026-04-30T08:42:27.988Z</time></trkpt><trkpt lat="44.7405983" lon="9.414845"><ele>560.0</ele><time>2026-04-30T08:42:29.989Z</time></trkpt><trkpt lat="44.7405183" lon="9.414905"><ele>560.0</ele><time>2026-04-30T08:42:31.989Z</time></trkpt><trkpt lat="44.74046" lon="9.4148117"><ele>560.0</ele><time>2026-04-30T08:42:34.988Z</time></trkpt><trkpt lat="44.7404917" lon="9.4146767"><ele>560.0</ele><time>2026-04-30T08:42:36.989Z</time></trkpt><trkpt lat="44.7405183" lon="9.4145083"><ele>560.0</ele><time>2026-04-30T08:42:38.988Z</time></trkpt><trkpt lat="44.740505" lon="9.414335"><ele>560.3333333333333</ele><time>2026-04-30T08:42:40.988Z</time></trkpt><trkpt lat="44.7404917" lon="9.4142467"><ele>560.6666666666666</ele><time>2026-04-30T08:42:41.988Z</time></trkpt><trkpt lat="44.74049" lon="9.4141467"><ele>561.0</ele><time>2026-04-30T08:42:42.988Z</time></trkpt><trkpt lat="44.7405117" lon="9.414025"><ele>561.3333333333334</ele><time>2026-04-30T08:42:43.987Z</time></trkpt><trkpt lat="44.7405317" lon="9.413905"><ele>561.6666666666667</ele><time>2026-04-30T08:42:44.99Z</time></trkpt><trkpt lat="44.7405467" lon="9.4137967"><ele>562.0</ele><time>2026-04-30T08:42:45.988Z</time></trkpt><trkpt lat="44.74053" lon="9.41364"><ele>562.0</ele><time>2026-04-30T08:42:47.989Z</time></trkpt><trkpt lat="44.740475" lon="9.4134817"><ele>562.0</ele><time>2026-04-30T08:42:49.987Z</time></trkpt><trkpt lat="44.7404367" lon="9.4134033"><ele>562.0</ele><time>2026-04-30T08:42:50.988Z</time></trkpt><trkpt lat="44.7403983" lon="9.4133283"><ele>562.0</ele><time>2026-04-30T08:42:51.992Z</time></trkpt><trkpt lat="44.7403517" lon="9.4131733"><ele>562.0</ele><time>2026-04-30T08:42:53.986Z</time></trkpt><trkpt lat="44.7403467" lon="9.4130333"><ele>560.0</ele><time>2026-04-30T08:42:55.987Z</time></trkpt><trkpt lat="44.74041" lon="9.4129267"><ele>558.0</ele><time>2026-04-30T08:42:57.986Z</time></trkpt><trkpt lat="44.74048" lon="9.412835"><ele>556.0</ele><time>2026-04-30T08:42:59.989Z</time></trkpt><trkpt lat="44.7405333" lon="9.4127433"><ele>554.0</ele><time>2026-04-30T08:43:01.988Z</time></trkpt><trkpt lat="44.7405067" lon="9.41265"><ele>552.0</ele><time>2026-04-30T08:43:07.99Z</time></trkpt><trkpt lat="44.7404217" lon="9.41267"><ele>550.0</ele><time>2026-04-30T08:43:11.986Z</time></trkpt><trkpt lat="44.7403483" lon="9.4127733"><ele>550.0</ele><time>2026-04-30T08:43:13.986Z</time></trkpt><trkpt lat="44.7402483" lon="9.412815"><ele>550.0</ele><time>2026-04-30T08:43:15.987Z</time></trkpt><trkpt lat="44.7401817" lon="9.4127783"><ele>550.0</ele><time>2026-04-30T08:43:16.986Z</time></trkpt><trkpt lat="44.7401233" lon="9.4127217"><ele>550.0</ele><time>2026-04-30T08:43:17.986Z</time></trkpt><trkpt lat="44.7400667" lon="9.41266"><ele>550.0</ele><time>2026-04-30T08:43:18.987Z</time></trkpt><trkpt lat="44.7399633" lon="9.412615"><ele>550.0</ele><time>2026-04-30T08:43:20.988Z</time></trkpt><trkpt lat="44.7399117" lon="9.41267"><ele>545.3333333333334</ele><time>2026-04-30T08:43:22.988Z</time></trkpt><trkpt lat="44.7398917" lon="9.4127767"><ele>540.6666666666667</ele><time>2026-04-30T08:43:24.987Z</time></trkpt><trkpt lat="44.739875" lon="9.4128983"><ele>536.0</ele><time>2026-04-30T08:43:26.988Z</time></trkpt><trkpt lat="44.739895" lon="9.4130417"><ele>531.3333333333334</ele><time>2026-04-30T08:43:28.991Z</time></trkpt><trkpt lat="44.7399283" lon="9.41316"><ele>526.6666666666666</ele><time>2026-04-30T08:43:30.987Z</time></trkpt><trkpt lat="44.7399083" lon="9.41328"><ele>522.0</ele><time>2026-04-30T08:43:32.99Z</time></trkpt><trkpt lat="44.73984" lon="9.41335"><ele>522.0</ele><time>2026-04-30T08:43:34.988Z</time></trkpt><trkpt lat="44.73973" lon="9.41334"><ele>522.0</ele><time>2026-04-30T08:43:36.99Z</time></trkpt><trkpt lat="44.73962" lon="9.4132867"><ele>522.0</ele><time>2026-04-30T08:43:38.99Z</time></trkpt><trkpt lat="44.7395433" lon="9.4132583"><ele>522.0</ele><time>2026-04-30T08:43:40.99Z</time></trkpt><trkpt lat="44.73947" lon="9.4132667"><ele>522.0</ele><time>2026-04-30T08:43:42.989Z</time></trkpt><trkpt lat="44.7394067" lon="9.4132983"><ele>522.0</ele><time>2026-04-30T08:43:45.989Z</time></trkpt><trkpt lat="44.7393333" lon="9.4133433"><ele>516.8333333333334</ele><time>2026-04-30T08:43:48.989Z</time></trkpt><trkpt lat="44.73925" lon="9.4133833"><ele>511.66666666666663</ele><time>2026-04-30T08:43:51.987Z</time></trkpt><trkpt lat="44.7391583" lon="9.4134033"><ele>506.5</ele><time>2026-04-30T08:43:54.987Z</time></trkpt><trkpt lat="44.739075" lon="9.4134133"><ele>501.3333333333333</ele><time>2026-04-30T08:43:56.988Z</time></trkpt><trkpt lat="44.7390083" lon="9.41338"><ele>496.16666666666663</ele><time>2026-04-30T08:43:58.99Z</time></trkpt><trkpt lat="44.738955" lon="9.4133117"><ele>491.0</ele><time>2026-04-30T08:44:18.987Z</time></trkpt><trkpt lat="44.738915" lon="9.4132283"><ele>491.0</ele><time>2026-04-30T08:44:20.989Z</time></trkpt><trkpt lat="44.7389183" lon="9.41311"><ele>491.0</ele><time>2026-04-30T08:44:23.987Z</time></trkpt><trkpt lat="44.7389469" lon="9.4129782"><ele>491.0</ele><time>2026-04-30T08:44:27.971Z</time></trkpt><trkpt lat="44.7389475" lon="9.4128866"><ele>491.0</ele><time>2026-04-30T08:44:29.988Z</time></trkpt><trkpt lat="44.7389132" lon="9.412695"><ele>491.0</ele><time>2026-04-30T08:44:32.989Z</time></trkpt><trkpt lat="44.7388793" lon="9.4125928"><ele>491.20000000000005</ele><time>2026-04-30T08:44:34.946Z</time></trkpt><trkpt lat="44.7388359" lon="9.4124617"><ele>491.40000000000003</ele><time>2026-04-30T08:44:36.005Z</time></trkpt><trkpt lat="44.7388192" lon="9.4123756"><ele>491.6</ele><time>2026-04-30T08:44:37.027Z</time></trkpt><trkpt lat="44.738795" lon="9.4121431"><ele>491.8</ele><time>2026-04-30T08:44:38.989Z</time></trkpt><trkpt lat="44.7387837" lon="9.4120429"><ele>492.0</ele><time>2026-04-30T08:44:39.987Z</time></trkpt><trkpt lat="44.7387734" lon="9.411942"><ele>491.6</ele><time>2026-04-30T08:44:40.988Z</time></trkpt><trkpt lat="44.7387724" lon="9.4118441"><ele>491.20000000000005</ele><time>2026-04-30T08:44:41.988Z</time></trkpt><trkpt lat="44.7387715" lon="9.4116804"><ele>490.8</ele><time>2026-04-30T08:44:43.988Z</time></trkpt><trkpt lat="44.7387475" lon="9.4115372"><ele>490.4</ele><time>2026-04-30T08:44:45.987Z</time></trkpt><trkpt lat="44.7387251" lon="9.411395"><ele>490.0</ele><time>2026-04-30T08:44:47.989Z</time></trkpt><trkpt lat="44.7387107" lon="9.4112443"><ele>490.00000000000006</ele><time>2026-04-30T08:44:49.989Z</time></trkpt><trkpt lat="44.738701" lon="9.4111248"><ele>490.0</ele><time>2026-04-30T08:44:51.988Z</time></trkpt><trkpt lat="44.7386772" lon="9.4110204"><ele>490.0</ele><time>2026-04-30T08:44:58.986Z</time></trkpt><trkpt lat="44.7386387" lon="9.41094"><ele>490.0</ele><time>2026-04-30T08:45:09.987Z</time></trkpt><trkpt lat="44.738593" lon="9.4108735"><ele>490.00000000000006</ele><time>2026-04-30T08:45:12.996Z</time></trkpt><trkpt lat="44.7385178" lon="9.4107315"><ele>490.0</ele><time>2026-04-30T08:45:53.036Z</time></trkpt><trkpt lat="44.7384535" lon="9.4105682"><ele>498.0</ele><time>2026-04-30T08:45:56.052Z</time></trkpt><trkpt lat="44.7383005" lon="9.4103719"><ele>506.0</ele><time>2026-04-30T08:45:58.987Z</time></trkpt><trkpt lat="44.7382394" lon="9.410307"><ele>514.0</ele><time>2026-04-30T08:45:59.988Z</time></trkpt><trkpt lat="44.7381577" lon="9.4101846"><ele>522.0</ele><time>2026-04-30T08:46:01.987Z</time></trkpt><trkpt lat="44.7381079" lon="9.4101034"><ele>522.0</ele><time>2026-04-30T08:46:02.992Z</time></trkpt><trkpt lat="44.7380499" lon="9.4100092"><ele>522.0</ele><time>2026-04-30T08:46:03.991Z</time></trkpt><trkpt lat="44.7379935" lon="9.4099143"><ele>522.0</ele><time>2026-04-30T08:46:04.989Z</time></trkpt><trkpt lat="44.7379395" lon="9.4098158"><ele>522.0</ele><time>2026-04-30T08:46:05.988Z</time></trkpt><trkpt lat="44.7378821" lon="9.4097185"><ele>522.0</ele><time>2026-04-30T08:46:06.989Z</time></trkpt><trkpt lat="44.7378169" lon="9.409619"><ele>518.5</ele><time>2026-04-30T08:46:07.99Z</time></trkpt><trkpt lat="44.7377517" lon="9.4095312"><ele>515.0</ele><time>2026-04-30T08:46:08.99Z</time></trkpt><trkpt lat="44.7376904" lon="9.4094438"><ele>511.5</ele><time>2026-04-30T08:46:09.988Z</time></trkpt><trkpt lat="44.737634" lon="9.4093524"><ele>508.0</ele><time>2026-04-30T08:46:10.988Z</time></trkpt><trkpt lat="44.7375779" lon="9.4092649"><ele>504.5</ele><time>2026-04-30T08:46:11.987Z</time></trkpt><trkpt lat="44.7375302" lon="9.4091845"><ele>501.0</ele><time>2026-04-30T08:46:12.988Z</time></trkpt><trkpt lat="44.7374776" lon="9.4091046"><ele>507.3333333333333</ele><time>2026-04-30T08:46:13.987Z</time></trkpt><trkpt lat="44.7374229" lon="9.4090159"><ele>513.6666666666666</ele><time>2026-04-30T08:46:14.989Z</time></trkpt><trkpt lat="44.7373774" lon="9.4089318"><ele>520.0</ele><time>2026-04-30T08:46:15.987Z</time></trkpt><trkpt lat="44.7373358" lon="9.4088516"><ele>526.3333333333333</ele><time>2026-04-30T08:46:16.987Z</time></trkpt><trkpt lat="44.7372995" lon="9.408776"><ele>532.6666666666666</ele><time>2026-04-30T08:46:17.987Z</time></trkpt><trkpt lat="44.7372687" lon="9.4086405"><ele>539.0</ele><time>2026-04-30T08:46:19.99Z</time></trkpt><trkpt lat="44.737216" lon="9.4085238"><ele>539.0</ele><time>2026-04-30T08:46:21.988Z</time></trkpt><trkpt lat="44.7371734" lon="9.4084131"><ele>539.0</ele><time>2026-04-30T08:46:23.991Z</time></trkpt><trkpt lat="44.7371413" lon="9.408266"><ele>539.0</ele><time>2026-04-30T08:46:25.989Z</time></trkpt><trkpt lat="44.7371115" lon="9.4081178"><ele>539.0</ele><time>2026-04-30T08:46:27.988Z</time></trkpt><trkpt lat="44.737081" lon="9.4079558"><ele>539.0</ele><time>2026-04-30T08:46:29.992Z</time></trkpt><trkpt lat="44.7370668" lon="9.407869"><ele>539.0</ele><time>2026-04-30T08:46:30.988Z</time></trkpt><trkpt lat="44.7370158" lon="9.4077625"><ele>539.0</ele><time>2026-04-30T08:46:32.988Z</time></trkpt><trkpt lat="44.7369522" lon="9.4077755"><ele>539.0</ele><time>2026-04-30T08:46:35.988Z</time></trkpt><trkpt lat="44.7369292" lon="9.4078611"><ele>539.0</ele><time>2026-04-30T08:46:37.988Z</time></trkpt><trkpt lat="44.7369251" lon="9.4079521"><ele>539.0</ele><time>2026-04-30T08:46:39.987Z</time></trkpt><trkpt lat="44.7369031" lon="9.4080599"><ele>539.0</ele><time>2026-04-30T08:46:42.989Z</time></trkpt><trkpt lat="44.7369002" lon="9.4081683"><ele>539.0</ele><time>2026-04-30T08:47:00.99Z</time></trkpt><trkpt lat="44.7368731" lon="9.4083203"><ele>549.4</ele><time>2026-04-30T08:47:02.99Z</time></trkpt><trkpt lat="44.7368388" lon="9.4084603"><ele>559.8</ele><time>2026-04-30T08:47:04.988Z</time></trkpt><trkpt lat="44.7368265" lon="9.4085858"><ele>570.2</ele><time>2026-04-30T08:47:06.99Z</time></trkpt><trkpt lat="44.736808" lon="9.4087175"><ele>580.6</ele><time>2026-04-30T08:47:08.991Z</time></trkpt><trkpt lat="44.7367942" lon="9.4088843"><ele>591.0</ele><time>2026-04-30T08:47:10.992Z</time></trkpt><trkpt lat="44.7367788" lon="9.4090474"><ele>592.8</ele><time>2026-04-30T08:47:12.989Z</time></trkpt><trkpt lat="44.736787" lon="9.4091922"><ele>594.6</ele><time>2026-04-30T08:47:14.989Z</time></trkpt><trkpt lat="44.7367885" lon="9.4093408"><ele>596.4</ele><time>2026-04-30T08:47:16.987Z</time></trkpt><trkpt lat="44.7367854" lon="9.4094849"><ele>598.2</ele><time>2026-04-30T08:47:18.988Z</time></trkpt><trkpt lat="44.7367916" lon="9.4096612"><ele>600.0</ele><time>2026-04-30T08:47:20.99Z</time></trkpt><trkpt lat="44.7368063" lon="9.4097619"><ele>601.8333333333334</ele><time>2026-04-30T08:47:21.987Z</time></trkpt><trkpt lat="44.7368223" lon="9.4098783"><ele>603.6666666666666</ele><time>2026-04-30T08:47:22.99Z</time></trkpt><trkpt lat="44.7368308" lon="9.409993"><ele>605.5</ele><time>2026-04-30T08:47:23.989Z</time></trkpt><trkpt lat="44.7368389" lon="9.4101059"><ele>607.3333333333333</ele><time>2026-04-30T08:47:24.988Z</time></trkpt><trkpt lat="44.7368574" lon="9.4102209"><ele>609.1666666666666</ele><time>2026-04-30T08:47:25.988Z</time></trkpt><trkpt lat="44.7368744" lon="9.4103441"><ele>611.0</ele><time>2026-04-30T08:47:26.988Z</time></trkpt><trkpt lat="44.73689" lon="9.4104679"><ele>606.3333333333333</ele><time>2026-04-30T08:47:27.988Z</time></trkpt><trkpt lat="44.7369073" lon="9.4105854"><ele>601.6666666666666</ele><time>2026-04-30T08:47:28.988Z</time></trkpt><trkpt lat="44.7369245" lon="9.4106907"><ele>597.0</ele><time>2026-04-30T08:47:29.988Z</time></trkpt><trkpt lat="44.7369427" lon="9.4107838"><ele>592.3333333333334</ele><time>2026-04-30T08:47:30.989Z</time></trkpt><trkpt lat="44.7369727" lon="9.4109234"><ele>587.6666666666667</ele><time>2026-04-30T08:47:32.988Z</time></trkpt><trkpt lat="44.7369958" lon="9.4110429"><ele>583.0</ele><time>2026-04-30T08:47:34.989Z</time></trkpt><trkpt lat="44.7370111" lon="9.4111908"><ele>585.6</ele><time>2026-04-30T08:47:36.988Z</time></trkpt><trkpt lat="44.7370221" lon="9.4113252"><ele>588.1999999999999</ele><time>2026-04-30T08:47:38.988Z</time></trkpt><trkpt lat="44.737019" lon="9.4114602"><ele>590.8</ele><time>2026-04-30T08:47:40.986Z</time></trkpt><trkpt lat="44.7370204" lon="9.4116199"><ele>593.4</ele><time>2026-04-30T08:47:42.988Z</time></trkpt><trkpt lat="44.7370135" lon="9.4117878"><ele>596.0</ele><time>2026-04-30T08:47:44.988Z</time></trkpt><trkpt lat="44.7369663" lon="9.4119105"><ele>596.0</ele><time>2026-04-30T08:47:46.989Z</time></trkpt><trkpt lat="44.7369175" lon="9.4119998"><ele>596.0</ele><time>2026-04-30T08:47:48.988Z</time></trkpt><trkpt lat="44.7368554" lon="9.4120993"><ele>596.0</ele><time>2026-04-30T08:47:50.989Z</time></trkpt><trkpt lat="44.7367788" lon="9.4122176"><ele>596.0</ele><time>2026-04-30T08:47:52.988Z</time></trkpt><trkpt lat="44.7367026" lon="9.412323"><ele>596.0</ele><time>2026-04-30T08:47:54.988Z</time></trkpt><trkpt lat="44.7366194" lon="9.4123992"><ele>600.3333333333333</ele><time>2026-04-30T08:47:56.989Z</time></trkpt><trkpt lat="44.7365402" lon="9.4124501"><ele>604.6666666666666</ele><time>2026-04-30T08:47:58.988Z</time></trkpt><trkpt lat="44.7364653" lon="9.4125116"><ele>609.0</ele><time>2026-04-30T08:48:00.988Z</time></trkpt><trkpt lat="44.7363867" lon="9.4125747"><ele>613.3333333333334</ele><time>2026-04-30T08:48:02.988Z</time></trkpt><trkpt lat="44.7363114" lon="9.4125962"><ele>617.6666666666667</ele><time>2026-04-30T08:48:05.989Z</time></trkpt><trkpt lat="44.7362491" lon="9.4125493"><ele>622.0</ele><time>2026-04-30T08:48:07.987Z</time></trkpt><trkpt lat="44.7361864" lon="9.4125277"><ele>622.0</ele><time>2026-04-30T08:48:09.988Z</time></trkpt><trkpt lat="44.7361153" lon="9.4124893"><ele>622.0</ele><time>2026-04-30T08:48:11.99Z</time></trkpt><trkpt lat="44.7360425" lon="9.4124565"><ele>622.0</ele><time>2026-04-30T08:48:13.99Z</time></trkpt><trkpt lat="44.735965" lon="9.412437"><ele>622.0</ele><time>2026-04-30T08:48:15.988Z</time></trkpt><trkpt lat="44.7358937" lon="9.412419"><ele>622.0</ele><time>2026-04-30T08:48:17.988Z</time></trkpt><trkpt lat="44.7358519" lon="9.4123399"><ele>622.0</ele><time>2026-04-30T08:48:20.064Z</time></trkpt><trkpt lat="44.7358777" lon="9.4122443"><ele>622.0</ele><time>2026-04-30T08:48:21.951Z</time></trkpt><trkpt lat="44.7359142" lon="9.4121482"><ele>627.8333333333334</ele><time>2026-04-30T08:48:24.047Z</time></trkpt><trkpt lat="44.7359081" lon="9.4120545"><ele>633.6666666666667</ele><time>2026-04-30T08:48:25.992Z</time></trkpt><trkpt lat="44.7359113" lon="9.4119631"><ele>639.5</ele><time>2026-04-30T08:48:28.071Z</time></trkpt><trkpt lat="44.7359163" lon="9.411829"><ele>645.3333333333334</ele><time>2026-04-30T08:48:29.991Z</time></trkpt><trkpt lat="44.7358483" lon="9.4117322"><ele>651.1666666666666</ele><time>2026-04-30T08:48:32.024Z</time></trkpt><trkpt lat="44.7358081" lon="9.4116595"><ele>657.0</ele><time>2026-04-30T08:48:34.001Z</time></trkpt><trkpt lat="44.7357897" lon="9.4115416"><ele>657.0</ele><time>2026-04-30T08:48:36.072Z</time></trkpt><trkpt lat="44.7357911" lon="9.4114296"><ele>657.0</ele><time>2026-04-30T08:48:38.015Z</time></trkpt><trkpt lat="44.7357814" lon="9.4113185"><ele>657.0</ele><time>2026-04-30T08:48:40.031Z</time></trkpt><trkpt lat="44.7357388" lon="9.4111814"><ele>657.0</ele><time>2026-04-30T08:48:42.009Z</time></trkpt><trkpt lat="44.7356903" lon="9.411055"><ele>657.0</ele><time>2026-04-30T08:48:43.846Z</time></trkpt><trkpt lat="44.7356927" lon="9.4108998"><ele>658.0</ele><time>2026-04-30T08:48:45.934Z</time></trkpt><trkpt lat="44.7356961" lon="9.4106836"><ele>659.0</ele><time>2026-04-30T08:48:46.989Z</time></trkpt><trkpt lat="44.7356982" lon="9.4105607"><ele>660.0</ele><time>2026-04-30T08:48:47.987Z</time></trkpt><trkpt lat="44.7356976" lon="9.4104704"><ele>661.0</ele><time>2026-04-30T08:48:48.988Z</time></trkpt><trkpt lat="44.7356819" lon="9.4103833"><ele>662.0</ele><time>2026-04-30T08:48:50.988Z</time></trkpt><trkpt lat="44.7356279" lon="9.4103321"><ele>663.0</ele><time>2026-04-30T08:48:55.987Z</time></trkpt><trkpt lat="44.7356033" lon="9.4102217"><ele>663.4</ele><time>2026-04-30T08:49:27.987Z</time></trkpt><trkpt lat="44.73557" lon="9.410095"><ele>663.8</ele><time>2026-04-30T08:51:33.987Z</time></trkpt><trkpt lat="44.735585" lon="9.4099233"><ele>664.2</ele><time>2026-04-30T08:51:35.988Z</time></trkpt><trkpt lat="44.7355933" lon="9.4098133"><ele>664.6</ele><time>2026-04-30T08:51:36.989Z</time></trkpt><trkpt lat="44.7355933" lon="9.4097067"><ele>665.0</ele><time>2026-04-30T08:51:37.989Z</time></trkpt><trkpt lat="44.7355883" lon="9.4095883"><ele>663.6</ele><time>2026-04-30T08:51:38.988Z</time></trkpt><trkpt lat="44.7355783" lon="9.409465"><ele>662.2</ele><time>2026-04-30T08:51:39.991Z</time></trkpt><trkpt lat="44.7355633" lon="9.4093633"><ele>660.8</ele><time>2026-04-30T08:51:40.987Z</time></trkpt><trkpt lat="44.7355231" lon="9.4092029"><ele>659.4</ele><time>2026-04-30T08:51:42.989Z</time></trkpt><trkpt lat="44.735471" lon="9.4090767"><ele>658.0</ele><time>2026-04-30T08:51:44.99Z</time></trkpt><trkpt lat="44.735405" lon="9.4089586"><ele>658.0</ele><time>2026-04-30T08:51:46.989Z</time></trkpt><trkpt lat="44.7353412" lon="9.4088474"><ele>658.0</ele><time>2026-04-30T08:51:48.99Z</time></trkpt><trkpt lat="44.7352993" lon="9.4087056"><ele>658.0</ele><time>2026-04-30T08:51:50.988Z</time></trkpt><trkpt lat="44.735267" lon="9.4086097"><ele>658.0</ele><time>2026-04-30T08:51:51.989Z</time></trkpt><trkpt lat="44.7352242" lon="9.4085058"><ele>658.0</ele><time>2026-04-30T08:51:52.989Z</time></trkpt><trkpt lat="44.7351848" lon="9.4084064"><ele>661.0</ele><time>2026-04-30T08:51:53.988Z</time></trkpt><trkpt lat="44.7351549" lon="9.4083177"><ele>664.0</ele><time>2026-04-30T08:51:54.989Z</time></trkpt><trkpt lat="44.7350877" lon="9.4081796"><ele>667.0</ele><time>2026-04-30T08:51:56.989Z</time></trkpt><trkpt lat="44.7350011" lon="9.4080441"><ele>670.0</ele><time>2026-04-30T08:51:58.988Z</time></trkpt><trkpt lat="44.734918" lon="9.4079522"><ele>673.0</ele><time>2026-04-30T08:52:00.987Z</time></trkpt><trkpt lat="44.7348482" lon="9.4078835"><ele>673.0</ele><time>2026-04-30T08:52:02.988Z</time></trkpt><trkpt lat="44.7347749" lon="9.4078488"><ele>673.0</ele><time>2026-04-30T08:52:04.988Z</time></trkpt><trkpt lat="44.7346917" lon="9.407871"><ele>673.0</ele><time>2026-04-30T08:52:06.987Z</time></trkpt><trkpt lat="44.7345916" lon="9.4079125"><ele>673.0</ele><time>2026-04-30T08:52:08.989Z</time></trkpt><trkpt lat="44.7344942" lon="9.4079945"><ele>673.0</ele><time>2026-04-30T08:52:10.988Z</time></trkpt><trkpt lat="44.7344225" lon="9.4080348"><ele>681.0</ele><time>2026-04-30T08:52:12.988Z</time></trkpt><trkpt lat="44.7343496" lon="9.4080527"><ele>689.0</ele><time>2026-04-30T08:52:15.989Z</time></trkpt><trkpt lat="44.7343256" lon="9.4081606"><ele>697.0</ele><time>2026-04-30T08:52:32.931Z</time></trkpt><trkpt lat="44.7343518" lon="9.4082501"><ele>705.0</ele><time>2026-04-30T08:52:35.018Z</time></trkpt><trkpt lat="44.7343012" lon="9.4083301"><ele>713.0</ele><time>2026-04-30T08:52:37.066Z</time></trkpt><trkpt lat="44.7342543" lon="9.4084334"><ele>721.0</ele><time>2026-04-30T08:52:40.01Z</time></trkpt><trkpt lat="44.7342312" lon="9.4085289"><ele>721.0</ele><time>2026-04-30T08:52:44.065Z</time></trkpt><trkpt lat="44.7342116" lon="9.4086674"><ele>721.0</ele><time>2026-04-30T08:52:47.05Z</time></trkpt><trkpt lat="44.7342241" lon="9.4088287"><ele>721.0</ele><time>2026-04-30T08:52:48.987Z</time></trkpt><trkpt lat="44.7342162" lon="9.4089553"><ele>721.0</ele><time>2026-04-30T08:52:50.989Z</time></trkpt><trkpt lat="44.7342148" lon="9.409066"><ele>721.0</ele><time>2026-04-30T08:52:52.988Z</time></trkpt><trkpt lat="44.7342444" lon="9.4092163"><ele>722.8333333333334</ele><time>2026-04-30T08:52:54.992Z</time></trkpt><trkpt lat="44.7342515" lon="9.4093475"><ele>724.6666666666667</ele><time>2026-04-30T08:52:56.989Z</time></trkpt><trkpt lat="44.7342178" lon="9.4094459"><ele>726.5</ele><time>2026-04-30T08:52:58.987Z</time></trkpt><trkpt lat="44.7341893" lon="9.4095279"><ele>728.3333333333334</ele><time>2026-04-30T08:53:01.988Z</time></trkpt><trkpt lat="44.7341874" lon="9.4096243"><ele>730.1666666666666</ele><time>2026-04-30T08:53:05.989Z</time></trkpt><trkpt lat="44.7341994" lon="9.4097383"><ele>732.0</ele><time>2026-04-30T08:53:08.988Z</time></trkpt><trkpt lat="44.7342175" lon="9.409884"><ele>733.6</ele><time>2026-04-30T08:53:10.987Z</time></trkpt><trkpt lat="44.7342243" lon="9.4099976"><ele>735.2</ele><time>2026-04-30T08:53:12.989Z</time></trkpt><trkpt lat="44.7341715" lon="9.4101305"><ele>736.8</ele><time>2026-04-30T08:53:14.987Z</time></trkpt><trkpt lat="44.7340895" lon="9.4102068"><ele>738.4</ele><time>2026-04-30T08:53:16.989Z</time></trkpt><trkpt lat="44.734006" lon="9.4102145"><ele>740.0</ele><time>2026-04-30T08:53:18.989Z</time></trkpt><trkpt lat="44.733917" lon="9.4102138"><ele>740.0</ele><time>2026-04-30T08:53:20.988Z</time></trkpt><trkpt lat="44.7338248" lon="9.4101693"><ele>740.0</ele><time>2026-04-30T08:53:22.988Z</time></trkpt><trkpt lat="44.7337255" lon="9.4100939"><ele>740.0</ele><time>2026-04-30T08:53:24.989Z</time></trkpt><trkpt lat="44.7336485" lon="9.4100021"><ele>740.0</ele><time>2026-04-30T08:53:26.988Z</time></trkpt><trkpt lat="44.7335932" lon="9.4098832"><ele>740.0</ele><time>2026-04-30T08:53:28.988Z</time></trkpt><trkpt lat="44.7335378" lon="9.4097332"><ele>744.0</ele><time>2026-04-30T08:53:30.991Z</time></trkpt><trkpt lat="44.7335032" lon="9.4096571"><ele>748.0</ele><time>2026-04-30T08:53:31.988Z</time></trkpt><trkpt lat="44.7334616" lon="9.4095106"><ele>752.0</ele><time>2026-04-30T08:53:33.992Z</time></trkpt><trkpt lat="44.7334358" lon="9.4093551"><ele>756.0</ele><time>2026-04-30T08:53:35.989Z</time></trkpt><trkpt lat="44.7333726" lon="9.409221"><ele>760.0</ele><time>2026-04-30T08:53:37.989Z</time></trkpt><trkpt lat="44.7333216" lon="9.4091668"><ele>760.0</ele><time>2026-04-30T08:53:38.989Z</time></trkpt><trkpt lat="44.7332723" lon="9.4091116"><ele>760.0</ele><time>2026-04-30T08:53:39.988Z</time></trkpt><trkpt lat="44.7331943" lon="9.4089858"><ele>760.0</ele><time>2026-04-30T08:53:41.989Z</time></trkpt><trkpt lat="44.73316" lon="9.4088512"><ele>760.0</ele><time>2026-04-30T08:53:43.989Z</time></trkpt><trkpt lat="44.7331304" lon="9.4087383"><ele>760.0</ele><time>2026-04-30T08:53:45.99Z</time></trkpt><trkpt lat="44.7330883" lon="9.4086691"><ele>760.0</ele><time>2026-04-30T08:53:48.992Z</time></trkpt><trkpt lat="44.7330682" lon="9.4085593"><ele>758.0</ele><time>2026-04-30T08:54:07.988Z</time></trkpt><trkpt lat="44.7330105" lon="9.4083956"><ele>756.0</ele><time>2026-04-30T08:54:09.988Z</time></trkpt><trkpt lat="44.732982" lon="9.4082957"><ele>754.0</ele><time>2026-04-30T08:54:10.987Z</time></trkpt><trkpt lat="44.7329528" lon="9.4082116"><ele>752.0</ele><time>2026-04-30T08:54:11.988Z</time></trkpt><trkpt lat="44.7328647" lon="9.4081277"><ele>750.0</ele><time>2026-04-30T08:54:13.99Z</time></trkpt><trkpt lat="44.7327436" lon="9.4081599"><ele>754.0</ele><time>2026-04-30T08:54:15.99Z</time></trkpt><trkpt lat="44.7326469" lon="9.4082431"><ele>758.0</ele><time>2026-04-30T08:54:17.989Z</time></trkpt><trkpt lat="44.7325941" lon="9.4082933"><ele>762.0</ele><time>2026-04-30T08:54:18.99Z</time></trkpt><trkpt lat="44.7325019" lon="9.4083973"><ele>766.0</ele><time>2026-04-30T08:54:20.988Z</time></trkpt><trkpt lat="44.7324206" lon="9.408495"><ele>770.0</ele><time>2026-04-30T08:54:22.989Z</time></trkpt><trkpt lat="44.7323475" lon="9.4085322"><ele>770.0</ele><time>2026-04-30T08:54:24.988Z</time></trkpt><trkpt lat="44.7322565" lon="9.4085172"><ele>770.0</ele><time>2026-04-30T08:54:26.991Z</time></trkpt><trkpt lat="44.7321955" lon="9.4085613"><ele>770.0</ele><time>2026-04-30T08:54:28.989Z</time></trkpt><trkpt lat="44.7322142" lon="9.408754"><ele>770.0</ele><time>2026-04-30T08:54:31.991Z</time></trkpt><trkpt lat="44.732286" lon="9.4088436"><ele>770.0</ele><time>2026-04-30T08:54:33.99Z</time></trkpt><trkpt lat="44.7323593" lon="9.4088504"><ele>772.3333333333334</ele><time>2026-04-30T08:54:35.989Z</time></trkpt><trkpt lat="44.7324154" lon="9.4089177"><ele>774.6666666666667</ele><time>2026-04-30T08:54:37.988Z</time></trkpt><trkpt lat="44.7324481" lon="9.4090469"><ele>777.0</ele><time>2026-04-30T08:54:39.989Z</time></trkpt><trkpt lat="44.732467" lon="9.4091547"><ele>779.3333333333333</ele><time>2026-04-30T08:54:41.99Z</time></trkpt><trkpt lat="44.7324639" lon="9.4092486"><ele>781.6666666666666</ele><time>2026-04-30T08:54:42.991Z</time></trkpt><trkpt lat="44.7324403" lon="9.409351"><ele>784.0</ele><time>2026-04-30T08:54:43.99Z</time></trkpt><trkpt lat="44.7324111" lon="9.4094453"><ele>783.9999999999999</ele><time>2026-04-30T08:54:44.99Z</time></trkpt><trkpt lat="44.7323766" lon="9.4095332"><ele>784.0</ele><time>2026-04-30T08:54:45.988Z</time></trkpt><trkpt lat="44.732327" lon="9.4096155"><ele>784.0</ele><time>2026-04-30T08:54:46.987Z</time></trkpt><trkpt lat="44.7322656" lon="9.4096921"><ele>784.0</ele><time>2026-04-30T08:54:47.989Z</time></trkpt><trkpt lat="44.7322034" lon="9.4097811"><ele>783.9999999999999</ele><time>2026-04-30T08:54:48.989Z</time></trkpt><trkpt lat="44.732138" lon="9.409873"><ele>784.0</ele><time>2026-04-30T08:54:49.989Z</time></trkpt><trkpt lat="44.732065" lon="9.409946"><ele>785.2857142857143</ele><time>2026-04-30T08:54:50.99Z</time></trkpt><trkpt lat="44.7319995" lon="9.4100005"><ele>786.5714285714286</ele><time>2026-04-30T08:54:51.989Z</time></trkpt><trkpt lat="44.7319352" lon="9.4100436"><ele>787.8571428571429</ele><time>2026-04-30T08:54:52.988Z</time></trkpt><trkpt lat="44.731864" lon="9.410076"><ele>789.1428571428571</ele><time>2026-04-30T08:54:53.989Z</time></trkpt><trkpt lat="44.7317933" lon="9.410089"><ele>790.4285714285714</ele><time>2026-04-30T08:54:54.987Z</time></trkpt><trkpt lat="44.7317245" lon="9.4100876"><ele>791.7142857142858</ele><time>2026-04-30T08:54:55.989Z</time></trkpt><trkpt lat="44.7316598" lon="9.4100866"><ele>793.0</ele><time>2026-04-30T08:54:56.988Z</time></trkpt><trkpt lat="44.7315876" lon="9.4100931"><ele>793.8333333333333</ele><time>2026-04-30T08:54:57.988Z</time></trkpt><trkpt lat="44.7315133" lon="9.4101166"><ele>794.6666666666666</ele><time>2026-04-30T08:54:58.988Z</time></trkpt><trkpt lat="44.73145" lon="9.4101604"><ele>795.5</ele><time>2026-04-30T08:54:59.989Z</time></trkpt><trkpt lat="44.7313962" lon="9.4102212"><ele>796.3333333333333</ele><time>2026-04-30T08:55:00.987Z</time></trkpt><trkpt lat="44.7313488" lon="9.4102822"><ele>797.1666666666666</ele><time>2026-04-30T08:55:01.988Z</time></trkpt><trkpt lat="44.7312544" lon="9.4104047"><ele>798.0</ele><time>2026-04-30T08:55:03.988Z</time></trkpt><trkpt lat="44.7311925" lon="9.4104634"><ele>798.5</ele><time>2026-04-30T08:55:04.989Z</time></trkpt><trkpt lat="44.7311342" lon="9.4105182"><ele>799.0</ele><time>2026-04-30T08:55:05.989Z</time></trkpt><trkpt lat="44.7310778" lon="9.4105888"><ele>799.5</ele><time>2026-04-30T08:55:06.989Z</time></trkpt><trkpt lat="44.7310172" lon="9.4106738"><ele>800.0</ele><time>2026-04-30T08:55:07.988Z</time></trkpt><trkpt lat="44.7309619" lon="9.4107614"><ele>800.5</ele><time>2026-04-30T08:55:08.989Z</time></trkpt><trkpt lat="44.7309149" lon="9.4108371"><ele>801.0</ele><time>2026-04-30T08:55:09.989Z</time></trkpt><trkpt lat="44.7308083" lon="9.4109338"><ele>801.0</ele><time>2026-04-30T08:55:11.989Z</time></trkpt><trkpt lat="44.7307462" lon="9.4109769"><ele>801.0</ele><time>2026-04-30T08:55:12.988Z</time></trkpt><trkpt lat="44.7306804" lon="9.411039"><ele>801.0</ele><time>2026-04-30T08:55:13.988Z</time></trkpt><trkpt lat="44.7306124" lon="9.4110993"><ele>801.0</ele><time>2026-04-30T08:55:14.988Z</time></trkpt><trkpt lat="44.7305517" lon="9.4111554"><ele>801.0</ele><time>2026-04-30T08:55:15.99Z</time></trkpt><trkpt lat="44.7305029" lon="9.4112253"><ele>801.0</ele><time>2026-04-30T08:55:16.989Z</time></trkpt><trkpt lat="44.7304759" lon="9.4113075"><ele>801.0</ele><time>2026-04-30T08:55:17.989Z</time></trkpt><trkpt lat="44.7304239" lon="9.4114599"><ele>800.8</ele><time>2026-04-30T08:55:19.989Z</time></trkpt><trkpt lat="44.7303525" lon="9.4115972"><ele>800.5999999999999</ele><time>2026-04-30T08:55:21.987Z</time></trkpt><trkpt lat="44.7302977" lon="9.411683"><ele>800.4</ele><time>2026-04-30T08:55:22.988Z</time></trkpt><trkpt lat="44.7302291" lon="9.4117705"><ele>800.2</ele><time>2026-04-30T08:55:23.99Z</time></trkpt><trkpt lat="44.7301566" lon="9.4118505"><ele>800.0</ele><time>2026-04-30T08:55:24.989Z</time></trkpt><trkpt lat="44.7300939" lon="9.4119182"><ele>800.0</ele><time>2026-04-30T08:55:25.988Z</time></trkpt><trkpt lat="44.7299927" lon="9.4120235"><ele>800.0</ele><time>2026-04-30T08:55:27.989Z</time></trkpt><trkpt lat="44.7299315" lon="9.4120826"><ele>800.0</ele><time>2026-04-30T08:55:28.991Z</time></trkpt><trkpt lat="44.7298622" lon="9.4121503"><ele>800.0</ele><time>2026-04-30T08:55:29.99Z</time></trkpt><trkpt lat="44.7297818" lon="9.4122318"><ele>800.0</ele><time>2026-04-30T08:55:30.99Z</time></trkpt><trkpt lat="44.7296934" lon="9.412326"><ele>800.8</ele><time>2026-04-30T08:55:31.99Z</time></trkpt><trkpt lat="44.7295952" lon="9.4124273"><ele>801.6</ele><time>2026-04-30T08:55:32.991Z</time></trkpt><trkpt lat="44.729512" lon="9.4125135"><ele>802.4000000000001</ele><time>2026-04-30T08:55:33.992Z</time></trkpt><trkpt lat="44.7294448" lon="9.4125876"><ele>803.2</ele><time>2026-04-30T08:55:34.99Z</time></trkpt><trkpt lat="44.7293804" lon="9.4126547"><ele>804.0</ele><time>2026-04-30T08:55:35.99Z</time></trkpt><trkpt lat="44.7293086" lon="9.412714"><ele>804.0</ele><time>2026-04-30T08:55:36.989Z</time></trkpt><trkpt lat="44.7292427" lon="9.4127658"><ele>804.0</ele><time>2026-04-30T08:55:37.99Z</time></trkpt><trkpt lat="44.7291402" lon="9.4128466"><ele>804.0</ele><time>2026-04-30T08:55:39.988Z</time></trkpt><trkpt lat="44.7290783" lon="9.4128921"><ele>804.0</ele><time>2026-04-30T08:55:40.989Z</time></trkpt><trkpt lat="44.7290095" lon="9.4129449"><ele>804.0</ele><time>2026-04-30T08:55:41.989Z</time></trkpt><trkpt lat="44.7289313" lon="9.4130106"><ele>804.0</ele><time>2026-04-30T08:55:42.989Z</time></trkpt><trkpt lat="44.7288527" lon="9.4130727"><ele>802.1666666666666</ele><time>2026-04-30T08:55:43.989Z</time></trkpt><trkpt lat="44.7287832" lon="9.413136"><ele>800.3333333333333</ele><time>2026-04-30T08:55:44.988Z</time></trkpt><trkpt lat="44.7287349" lon="9.4131969"><ele>798.5</ele><time>2026-04-30T08:55:45.989Z</time></trkpt><trkpt lat="44.7286503" lon="9.413246"><ele>796.6666666666666</ele><time>2026-04-30T08:55:47.988Z</time></trkpt><trkpt lat="44.7285848" lon="9.4132164"><ele>794.8333333333333</ele><time>2026-04-30T08:55:49.988Z</time></trkpt><trkpt lat="44.7285494" lon="9.413137"><ele>793.0</ele><time>2026-04-30T08:55:51.989Z</time></trkpt><trkpt lat="44.7285202" lon="9.413025"><ele>797.6666666666666</ele><time>2026-04-30T08:55:53.988Z</time></trkpt><trkpt lat="44.728479" lon="9.4128642"><ele>802.3333333333333</ele><time>2026-04-30T08:55:55.989Z</time></trkpt><trkpt lat="44.7284606" lon="9.4127633"><ele>807.0</ele><time>2026-04-30T08:55:56.991Z</time></trkpt><trkpt lat="44.7284517" lon="9.4126598"><ele>811.6666666666667</ele><time>2026-04-30T08:55:57.989Z</time></trkpt><trkpt lat="44.7284453" lon="9.4125544"><ele>816.3333333333334</ele><time>2026-04-30T08:55:58.989Z</time></trkpt><trkpt lat="44.7284302" lon="9.4124423"><ele>821.0</ele><time>2026-04-30T08:55:59.99Z</time></trkpt><trkpt lat="44.7284059" lon="9.4123267"><ele>821.0000000000001</ele><time>2026-04-30T08:56:00.987Z</time></trkpt><trkpt lat="44.7283812" lon="9.4122077"><ele>821.0</ele><time>2026-04-30T08:56:01.988Z</time></trkpt><trkpt lat="44.7283507" lon="9.4121005"><ele>821.0</ele><time>2026-04-30T08:56:02.988Z</time></trkpt><trkpt lat="44.7283096" lon="9.4120012"><ele>821.0</ele><time>2026-04-30T08:56:03.989Z</time></trkpt><trkpt lat="44.7282436" lon="9.4119199"><ele>821.0000000000001</ele><time>2026-04-30T08:56:04.988Z</time></trkpt><trkpt lat="44.7281732" lon="9.4118435"><ele>821.0</ele><time>2026-04-30T08:56:05.988Z</time></trkpt><trkpt lat="44.7280992" lon="9.4117754"><ele>818.8</ele><time>2026-04-30T08:56:06.988Z</time></trkpt><trkpt lat="44.7280193" lon="9.4117278"><ele>816.5999999999999</ele><time>2026-04-30T08:56:07.987Z</time></trkpt><trkpt lat="44.7279452" lon="9.4116874"><ele>814.4</ele><time>2026-04-30T08:56:08.988Z</time></trkpt><trkpt lat="44.7278723" lon="9.4116022"><ele>812.2</ele><time>2026-04-30T08:56:10.988Z</time></trkpt><trkpt lat="44.7279541" lon="9.4114625"><ele>810.0</ele><time>2026-04-30T08:56:12.988Z</time></trkpt><trkpt lat="44.7280051" lon="9.4113893"><ele>809.8571428571428</ele><time>2026-04-30T08:56:13.99Z</time></trkpt><trkpt lat="44.7280319" lon="9.4113019"><ele>809.7142857142857</ele><time>2026-04-30T08:56:14.991Z</time></trkpt><trkpt lat="44.7280321" lon="9.4112056"><ele>809.5714285714286</ele><time>2026-04-30T08:56:15.987Z</time></trkpt><trkpt lat="44.7279979" lon="9.4111031"><ele>809.4285714285713</ele><time>2026-04-30T08:56:16.987Z</time></trkpt><trkpt lat="44.7279511" lon="9.4110166"><ele>809.2857142857143</ele><time>2026-04-30T08:56:17.988Z</time></trkpt><trkpt lat="44.727895" lon="9.4109499"><ele>809.1428571428571</ele><time>2026-04-30T08:56:18.992Z</time></trkpt><trkpt lat="44.7278462" lon="9.4108924"><ele>809.0</ele><time>2026-04-30T08:56:19.987Z</time></trkpt><trkpt lat="44.7278228" lon="9.4107586"><ele>809.0000000000001</ele><time>2026-04-30T08:56:21.988Z</time></trkpt><trkpt lat="44.7278489" lon="9.4106767"><ele>809.0</ele><time>2026-04-30T08:56:22.989Z</time></trkpt><trkpt lat="44.7278902" lon="9.4105737"><ele>809.0</ele><time>2026-04-30T08:56:23.987Z</time></trkpt><trkpt lat="44.7279222" lon="9.4104692"><ele>809.0</ele><time>2026-04-30T08:56:24.987Z</time></trkpt><trkpt lat="44.727941" lon="9.4103618"><ele>809.0000000000001</ele><time>2026-04-30T08:56:25.987Z</time></trkpt><trkpt lat="44.7279417" lon="9.4102538"><ele>809.0</ele><time>2026-04-30T08:56:26.99Z</time></trkpt><trkpt lat="44.7279442" lon="9.4101447"><ele>809.6666666666667</ele><time>2026-04-30T08:56:27.989Z</time></trkpt><trkpt lat="44.7279403" lon="9.4100352"><ele>810.3333333333334</ele><time>2026-04-30T08:56:28.99Z</time></trkpt><trkpt lat="44.7279351" lon="9.4099371"><ele>811.0</ele><time>2026-04-30T08:56:29.988Z</time></trkpt><trkpt lat="44.7279323" lon="9.4097967"><ele>811.6666666666667</ele><time>2026-04-30T08:56:31.99Z</time></trkpt><trkpt lat="44.7278655" lon="9.4098054"><ele>812.3333333333334</ele><time>2026-04-30T08:56:38.99Z</time></trkpt><trkpt lat="44.7278534" lon="9.4099343"><ele>813.0</ele><time>2026-04-30T08:56:57.989Z</time></trkpt><trkpt lat="44.7278303" lon="9.4100833"><ele>813.0</ele><time>2026-04-30T08:56:59.989Z</time></trkpt><trkpt lat="44.7278082" lon="9.4101671"><ele>813.0</ele><time>2026-04-30T08:57:00.989Z</time></trkpt><trkpt lat="44.7277759" lon="9.4102462"><ele>813.0</ele><time>2026-04-30T08:57:01.989Z</time></trkpt><trkpt lat="44.7277314" lon="9.4103205"><ele>813.0</ele><time>2026-04-30T08:57:02.988Z</time></trkpt><trkpt lat="44.7276789" lon="9.4103948"><ele>813.0</ele><time>2026-04-30T08:57:03.988Z</time></trkpt><trkpt lat="44.7276228" lon="9.4104724"><ele>813.0</ele><time>2026-04-30T08:57:04.988Z</time></trkpt><trkpt lat="44.7275656" lon="9.4105537"><ele>813.0</ele><time>2026-04-30T08:57:05.99Z</time></trkpt><trkpt lat="44.7275038" lon="9.4106193"><ele>817.0</ele><time>2026-04-30T08:57:06.99Z</time></trkpt><trkpt lat="44.7274314" lon="9.4106707"><ele>821.0</ele><time>2026-04-30T08:57:07.99Z</time></trkpt><trkpt lat="44.7273572" lon="9.41072"><ele>825.0</ele><time>2026-04-30T08:57:08.99Z</time></trkpt><trkpt lat="44.7272885" lon="9.4107749"><ele>829.0</ele><time>2026-04-30T08:57:09.988Z</time></trkpt><trkpt lat="44.7272187" lon="9.4108212"><ele>833.0</ele><time>2026-04-30T08:57:10.986Z</time></trkpt><trkpt lat="44.7271405" lon="9.4108447"><ele>837.0</ele><time>2026-04-30T08:57:11.99Z</time></trkpt><trkpt lat="44.7270628" lon="9.4108466"><ele>837.0</ele><time>2026-04-30T08:57:12.988Z</time></trkpt><trkpt lat="44.7269918" lon="9.4108242"><ele>837.0</ele><time>2026-04-30T08:57:13.987Z</time></trkpt><trkpt lat="44.7269258" lon="9.4107699"><ele>837.0</ele><time>2026-04-30T08:57:14.988Z</time></trkpt><trkpt lat="44.7268638" lon="9.410701"><ele>837.0</ele><time>2026-04-30T08:57:15.989Z</time></trkpt><trkpt lat="44.7267975" lon="9.4106427"><ele>837.0</ele><time>2026-04-30T08:57:16.987Z</time></trkpt><trkpt lat="44.7267221" lon="9.4106066"><ele>837.0</ele><time>2026-04-30T08:57:17.986Z</time></trkpt><trkpt lat="44.7266346" lon="9.4105987"><ele>840.8</ele><time>2026-04-30T08:57:18.987Z</time></trkpt><trkpt lat="44.7265444" lon="9.4106213"><ele>844.6</ele><time>2026-04-30T08:57:19.987Z</time></trkpt><trkpt lat="44.7264577" lon="9.4106774"><ele>848.3999999999999</ele><time>2026-04-30T08:57:20.987Z</time></trkpt><trkpt lat="44.7263732" lon="9.410758"><ele>852.1999999999999</ele><time>2026-04-30T08:57:21.988Z</time></trkpt><trkpt lat="44.7262897" lon="9.4108511"><ele>856.0</ele><time>2026-04-30T08:57:22.989Z</time></trkpt><trkpt lat="44.7262166" lon="9.4109486"><ele>856.0</ele><time>2026-04-30T08:57:23.987Z</time></trkpt><trkpt lat="44.7261546" lon="9.4110477"><ele>855.9999999999999</ele><time>2026-04-30T08:57:24.989Z</time></trkpt><trkpt lat="44.7261007" lon="9.4111558"><ele>855.9999999999999</ele><time>2026-04-30T08:57:25.989Z</time></trkpt><trkpt lat="44.7260541" lon="9.4112694"><ele>856.0</ele><time>2026-04-30T08:57:26.99Z</time></trkpt><trkpt lat="44.7260208" lon="9.4113838"><ele>856.0</ele><time>2026-04-30T08:57:27.99Z</time></trkpt><trkpt lat="44.726" lon="9.4115031"><ele>856.5999999999999</ele><time>2026-04-30T08:57:28.987Z</time></trkpt><trkpt lat="44.7259992" lon="9.4116251"><ele>857.1999999999999</ele><time>2026-04-30T08:57:29.987Z</time></trkpt><trkpt lat="44.7260107" lon="9.411742"><ele>857.8000000000001</ele><time>2026-04-30T08:57:30.99Z</time></trkpt><trkpt lat="44.7260159" lon="9.4118466"><ele>858.4000000000001</ele><time>2026-04-30T08:57:31.988Z</time></trkpt><trkpt lat="44.7259801" lon="9.4119961"><ele>859.0</ele><time>2026-04-30T08:57:33.99Z</time></trkpt><trkpt lat="44.7258556" lon="9.4120446"><ele>858.9999999999999</ele><time>2026-04-30T08:57:35.989Z</time></trkpt><trkpt lat="44.7257731" lon="9.4120413"><ele>859.0</ele><time>2026-04-30T08:57:36.986Z</time></trkpt><trkpt lat="44.7256914" lon="9.4120377"><ele>859.0</ele><time>2026-04-30T08:57:37.987Z</time></trkpt><trkpt lat="44.725612" lon="9.4120402"><ele>859.0</ele><time>2026-04-30T08:57:38.988Z</time></trkpt><trkpt lat="44.7255274" lon="9.4120462"><ele>858.9999999999999</ele><time>2026-04-30T08:57:39.987Z</time></trkpt><trkpt lat="44.7254401" lon="9.4120588"><ele>859.0</ele><time>2026-04-30T08:57:40.988Z</time></trkpt><trkpt lat="44.7253576" lon="9.412086"><ele>859.0</ele><time>2026-04-30T08:57:41.986Z</time></trkpt><trkpt lat="44.7252782" lon="9.4121234"><ele>859.0000000000001</ele><time>2026-04-30T08:57:42.988Z</time></trkpt><trkpt lat="44.7252131" lon="9.412161"><ele>859.0000000000001</ele><time>2026-04-30T08:57:43.987Z</time></trkpt><trkpt lat="44.7251045" lon="9.4122207"><ele>859.0</ele><time>2026-04-30T08:57:45.987Z</time></trkpt><trkpt lat="44.7249989" lon="9.4122953"><ele>859.0</ele><time>2026-04-30T08:57:47.988Z</time></trkpt><trkpt lat="44.7249364" lon="9.4123408"><ele>861.1666666666666</ele><time>2026-04-30T08:57:48.988Z</time></trkpt><trkpt lat="44.7248654" lon="9.4123902"><ele>863.3333333333333</ele><time>2026-04-30T08:57:49.987Z</time></trkpt><trkpt lat="44.7247889" lon="9.4124353"><ele>865.5</ele><time>2026-04-30T08:57:50.987Z</time></trkpt><trkpt lat="44.7247087" lon="9.4124777"><ele>867.6666666666667</ele><time>2026-04-30T08:57:51.988Z</time></trkpt><trkpt lat="44.7246292" lon="9.412518"><ele>869.8333333333334</ele><time>2026-04-30T08:57:52.986Z</time></trkpt><trkpt lat="44.7245477" lon="9.4125542"><ele>872.0</ele><time>2026-04-30T08:57:53.988Z</time></trkpt><trkpt lat="44.7244672" lon="9.4125876"><ele>871.6666666666667</ele><time>2026-04-30T08:57:54.988Z</time></trkpt><trkpt lat="44.7243869" lon="9.4126278"><ele>871.3333333333334</ele><time>2026-04-30T08:57:55.987Z</time></trkpt><trkpt lat="44.7243055" lon="9.4126716"><ele>871.0</ele><time>2026-04-30T08:57:56.988Z</time></trkpt><trkpt lat="44.724225" lon="9.4127233"><ele>870.6666666666667</ele><time>2026-04-30T08:57:57.988Z</time></trkpt><trkpt lat="44.7241448" lon="9.4127804"><ele>870.3333333333334</ele><time>2026-04-30T08:57:58.989Z</time></trkpt><trkpt lat="44.7240647" lon="9.4128376"><ele>870.0</ele><time>2026-04-30T08:57:59.988Z</time></trkpt><trkpt lat="44.7239809" lon="9.4128974"><ele>870.0</ele><time>2026-04-30T08:58:00.987Z</time></trkpt><trkpt lat="44.7238999" lon="9.412958"><ele>870.0</ele><time>2026-04-30T08:58:01.988Z</time></trkpt><trkpt lat="44.7238253" lon="9.4130233"><ele>870.0</ele><time>2026-04-30T08:58:02.989Z</time></trkpt><trkpt lat="44.7237519" lon="9.413099"><ele>870.0</ele><time>2026-04-30T08:58:03.988Z</time></trkpt><trkpt lat="44.7236757" lon="9.4131759"><ele>870.0</ele><time>2026-04-30T08:58:04.987Z</time></trkpt><trkpt lat="44.7235984" lon="9.4132492"><ele>872.2</ele><time>2026-04-30T08:58:05.987Z</time></trkpt><trkpt lat="44.7235256" lon="9.4133136"><ele>874.4</ele><time>2026-04-30T08:58:06.988Z</time></trkpt><trkpt lat="44.7234663" lon="9.4133751"><ele>876.5999999999999</ele><time>2026-04-30T08:58:07.988Z</time></trkpt><trkpt lat="44.7233978" lon="9.4134761"><ele>878.8</ele><time>2026-04-30T08:58:09.987Z</time></trkpt><trkpt lat="44.7233404" lon="9.4135812"><ele>881.0</ele><time>2026-04-30T08:58:24.988Z</time></trkpt><trkpt lat="44.723245" lon="9.41366"><ele>881.0</ele><time>2026-04-30T08:58:26.99Z</time></trkpt><trkpt lat="44.7231233" lon="9.4137483"><ele>880.9999999999999</ele><time>2026-04-30T08:58:28.986Z</time></trkpt><trkpt lat="44.7230483" lon="9.41381"><ele>880.9999999999999</ele><time>2026-04-30T08:58:29.986Z</time></trkpt><trkpt lat="44.722965" lon="9.4138783"><ele>881.0</ele><time>2026-04-30T08:58:30.987Z</time></trkpt><trkpt lat="44.7228783" lon="9.413945"><ele>881.0</ele><time>2026-04-30T08:58:31.987Z</time></trkpt><trkpt lat="44.7227967" lon="9.4140067"><ele>885.1999999999999</ele><time>2026-04-30T08:58:32.987Z</time></trkpt><trkpt lat="44.72272" lon="9.41407"><ele>889.3999999999999</ele><time>2026-04-30T08:58:33.987Z</time></trkpt><trkpt lat="44.722645" lon="9.4141383"><ele>893.6</ele><time>2026-04-30T08:58:34.991Z</time></trkpt><trkpt lat="44.7225717" lon="9.41421"><ele>897.8</ele><time>2026-04-30T08:58:35.991Z</time></trkpt><trkpt lat="44.7225" lon="9.4142933"><ele>902.0</ele><time>2026-04-30T08:58:36.989Z</time></trkpt><trkpt lat="44.7224317" lon="9.41438"><ele>902.0000000000001</ele><time>2026-04-30T08:58:37.988Z</time></trkpt><trkpt lat="44.722365" lon="9.4144667"><ele>902.0</ele><time>2026-04-30T08:58:38.989Z</time></trkpt><trkpt lat="44.722305" lon="9.4145483"><ele>902.0</ele><time>2026-04-30T08:58:39.989Z</time></trkpt><trkpt lat="44.7222467" lon="9.4146283"><ele>902.0</ele><time>2026-04-30T08:58:40.988Z</time></trkpt><trkpt lat="44.7221883" lon="9.4146983"><ele>902.0000000000001</ele><time>2026-04-30T08:58:41.987Z</time></trkpt><trkpt lat="44.72213" lon="9.4147583"><ele>902.0</ele><time>2026-04-30T08:58:42.988Z</time></trkpt><trkpt lat="44.72206" lon="9.4148217"><ele>903.5000000000001</ele><time>2026-04-30T08:58:43.988Z</time></trkpt><trkpt lat="44.7219867" lon="9.4148883"><ele>905.0</ele><time>2026-04-30T08:58:44.986Z</time></trkpt><trkpt lat="44.721925" lon="9.41495"><ele>906.5</ele><time>2026-04-30T08:58:45.987Z</time></trkpt><trkpt lat="44.7218683" lon="9.4150317"><ele>908.0</ele><time>2026-04-30T08:58:46.986Z</time></trkpt><trkpt lat="44.7218067" lon="9.4151217"><ele>909.5000000000001</ele><time>2026-04-30T08:58:47.987Z</time></trkpt><trkpt lat="44.721735" lon="9.4152"><ele>911.0</ele><time>2026-04-30T08:58:48.988Z</time></trkpt><trkpt lat="44.7216617" lon="9.4152767"><ele>911.0000000000001</ele><time>2026-04-30T08:58:49.989Z</time></trkpt><trkpt lat="44.7215933" lon="9.4153433"><ele>911.0</ele><time>2026-04-30T08:58:50.988Z</time></trkpt><trkpt lat="44.721525" lon="9.41541"><ele>911.0</ele><time>2026-04-30T08:58:51.988Z</time></trkpt><trkpt lat="44.7214617" lon="9.4154783"><ele>911.0</ele><time>2026-04-30T08:58:52.988Z</time></trkpt><trkpt lat="44.721405" lon="9.4155367"><ele>911.0000000000001</ele><time>2026-04-30T08:58:53.989Z</time></trkpt><trkpt lat="44.7213417" lon="9.41559"><ele>911.0</ele><time>2026-04-30T08:58:54.988Z</time></trkpt><trkpt lat="44.7212833" lon="9.4156333"><ele>913.4</ele><time>2026-04-30T08:58:55.988Z</time></trkpt><trkpt lat="44.721225" lon="9.4156833"><ele>915.8</ele><time>2026-04-30T08:58:56.989Z</time></trkpt><trkpt lat="44.7211383" lon="9.4158017"><ele>918.1999999999999</ele><time>2026-04-30T08:58:58.987Z</time></trkpt><trkpt lat="44.7210567" lon="9.4159333"><ele>920.5999999999999</ele><time>2026-04-30T08:59:00.987Z</time></trkpt><trkpt lat="44.72101" lon="9.415995"><ele>923.0</ele><time>2026-04-30T08:59:01.99Z</time></trkpt><trkpt lat="44.7209083" lon="9.4161017"><ele>923.0000000000001</ele><time>2026-04-30T08:59:03.99Z</time></trkpt><trkpt lat="44.72086" lon="9.41617"><ele>923.0</ele><time>2026-04-30T08:59:04.987Z</time></trkpt><trkpt lat="44.7208067" lon="9.4162533"><ele>923.0</ele><time>2026-04-30T08:59:05.987Z</time></trkpt><trkpt lat="44.7207417" lon="9.41635"><ele>923.0</ele><time>2026-04-30T08:59:06.987Z</time></trkpt><trkpt lat="44.72068" lon="9.4164367"><ele>923.0000000000001</ele><time>2026-04-30T08:59:07.987Z</time></trkpt><trkpt lat="44.7206167" lon="9.41652"><ele>923.0</ele><time>2026-04-30T08:59:08.987Z</time></trkpt><trkpt lat="44.7205567" lon="9.4166"><ele>925.5000000000001</ele><time>2026-04-30T08:59:09.988Z</time></trkpt><trkpt lat="44.7205" lon="9.4166817"><ele>928.0</ele><time>2026-04-30T08:59:10.987Z</time></trkpt><trkpt lat="44.7204533" lon="9.4167533"><ele>930.5</ele><time>2026-04-30T08:59:11.987Z</time></trkpt><trkpt lat="44.7204" lon="9.4168183"><ele>933.0</ele><time>2026-04-30T08:59:12.987Z</time></trkpt><trkpt lat="44.72034" lon="9.4168767"><ele>935.5000000000001</ele><time>2026-04-30T08:59:13.988Z</time></trkpt><trkpt lat="44.7202833" lon="9.4169283"><ele>938.0</ele><time>2026-04-30T08:59:14.988Z</time></trkpt><trkpt lat="44.7201783" lon="9.4170167"><ele>938.0000000000001</ele><time>2026-04-30T08:59:16.989Z</time></trkpt><trkpt lat="44.72008" lon="9.4171167"><ele>938.0</ele><time>2026-04-30T08:59:18.989Z</time></trkpt><trkpt lat="44.7199767" lon="9.4172083"><ele>938.0</ele><time>2026-04-30T08:59:20.988Z</time></trkpt><trkpt lat="44.7199183" lon="9.41725"><ele>938.0</ele><time>2026-04-30T08:59:21.989Z</time></trkpt><trkpt lat="44.7198567" lon="9.4172917"><ele>938.0000000000001</ele><time>2026-04-30T08:59:22.988Z</time></trkpt><trkpt lat="44.7197967" lon="9.4173333"><ele>938.0</ele><time>2026-04-30T08:59:23.988Z</time></trkpt><trkpt lat="44.7197367" lon="9.4173767"><ele>938.0000000000001</ele><time>2026-04-30T08:59:24.989Z</time></trkpt><trkpt lat="44.71967" lon="9.4174233"><ele>938.0</ele><time>2026-04-30T08:59:25.992Z</time></trkpt><trkpt lat="44.7196067" lon="9.4174683"><ele>938.0</ele><time>2026-04-30T08:59:26.987Z</time></trkpt><trkpt lat="44.719545" lon="9.41752"><ele>938.0</ele><time>2026-04-30T08:59:27.986Z</time></trkpt><trkpt lat="44.7194883" lon="9.4175767"><ele>938.0000000000001</ele><time>2026-04-30T08:59:28.988Z</time></trkpt><trkpt lat="44.7194333" lon="9.4176317"><ele>938.0</ele><time>2026-04-30T08:59:29.988Z</time></trkpt><trkpt lat="44.71933" lon="9.41771"><ele>938.0</ele><time>2026-04-30T08:59:31.988Z</time></trkpt><trkpt lat="44.7192467" lon="9.4177433"><ele>938.0</ele><time>2026-04-30T08:59:34.988Z</time></trkpt><trkpt lat="44.7191683" lon="9.417785"><ele>938.0</ele><time>2026-04-30T08:59:36.991Z</time></trkpt><trkpt lat="44.7190733" lon="9.4178417"><ele>938.0</ele><time>2026-04-30T08:59:38.99Z</time></trkpt><trkpt lat="44.7189667" lon="9.4178983"><ele>938.0</ele><time>2026-04-30T08:59:40.986Z</time></trkpt><trkpt lat="44.7189033" lon="9.4179233"><ele>938.0</ele><time>2026-04-30T08:59:41.988Z</time></trkpt><trkpt lat="44.71884" lon="9.41794"><ele>938.0</ele><time>2026-04-30T08:59:42.99Z</time></trkpt><trkpt lat="44.7187783" lon="9.417965"><ele>938.0</ele><time>2026-04-30T08:59:43.99Z</time></trkpt><trkpt lat="44.7186683" lon="9.4180283"><ele>938.0</ele><time>2026-04-30T08:59:45.989Z</time></trkpt><trkpt lat="44.7185667" lon="9.4181083"><ele>938.0</ele><time>2026-04-30T08:59:47.989Z</time></trkpt><trkpt lat="44.7184833" lon="9.418175"><ele>939.6666666666667</ele><time>2026-04-30T08:59:49.989Z</time></trkpt><trkpt lat="44.7184033" lon="9.4182533"><ele>941.3333333333334</ele><time>2026-04-30T08:59:51.988Z</time></trkpt><trkpt lat="44.7183133" lon="9.4183217"><ele>943.0</ele><time>2026-04-30T08:59:53.988Z</time></trkpt><trkpt lat="44.7182417" lon="9.4183117"><ele>944.6666666666667</ele><time>2026-04-30T08:59:55.99Z</time></trkpt><trkpt lat="44.7182267" lon="9.4182167"><ele>946.3333333333334</ele><time>2026-04-30T08:59:59.987Z</time></trkpt><trkpt lat="44.7182067" lon="9.4180833"><ele>948.0</ele><time>2026-04-30T09:00:02.99Z</time></trkpt><trkpt lat="44.7181583" lon="9.4179983"><ele>948.0</ele><time>2026-04-30T09:00:04.989Z</time></trkpt><trkpt lat="44.7180933" lon="9.418"><ele>948.0</ele><time>2026-04-30T09:00:06.989Z</time></trkpt><trkpt lat="44.7180267" lon="9.4180333"><ele>948.0</ele><time>2026-04-30T09:00:08.989Z</time></trkpt><trkpt lat="44.717955" lon="9.4180783"><ele>948.0</ele><time>2026-04-30T09:00:10.99Z</time></trkpt><trkpt lat="44.717865" lon="9.4181267"><ele>948.0</ele><time>2026-04-30T09:00:12.988Z</time></trkpt><trkpt lat="44.7177783" lon="9.4181767"><ele>948.0</ele><time>2026-04-30T09:00:14.988Z</time></trkpt><trkpt lat="44.7177017" lon="9.4182317"><ele>949.2</ele><time>2026-04-30T09:00:16.987Z</time></trkpt><trkpt lat="44.7176183" lon="9.4182983"><ele>950.4</ele><time>2026-04-30T09:00:18.989Z</time></trkpt><trkpt lat="44.717525" lon="9.4183767"><ele>951.6000000000001</ele><time>2026-04-30T09:00:20.987Z</time></trkpt><trkpt lat="44.7174367" lon="9.4184667"><ele>952.8000000000001</ele><time>2026-04-30T09:00:22.986Z</time></trkpt><trkpt lat="44.71735" lon="9.4185717"><ele>954.0</ele><time>2026-04-30T09:00:24.987Z</time></trkpt><trkpt lat="44.7173017" lon="9.418635"><ele>954.0</ele><time>2026-04-30T09:00:25.988Z</time></trkpt><trkpt lat="44.7172517" lon="9.4187133"><ele>953.9999999999999</ele><time>2026-04-30T09:00:26.988Z</time></trkpt><trkpt lat="44.7172017" lon="9.4188033"><ele>954.0</ele><time>2026-04-30T09:00:27.991Z</time></trkpt><trkpt lat="44.7171567" lon="9.418895"><ele>954.0</ele><time>2026-04-30T09:00:28.987Z</time></trkpt><trkpt lat="44.7171217" lon="9.4189817"><ele>953.9999999999999</ele><time>2026-04-30T09:00:29.987Z</time></trkpt><trkpt lat="44.71709" lon="9.4190717"><ele>954.0</ele><time>2026-04-30T09:00:30.988Z</time></trkpt><trkpt lat="44.717065" lon="9.4191633"><ele>954.0</ele><time>2026-04-30T09:00:31.987Z</time></trkpt><trkpt lat="44.7170467" lon="9.41926"><ele>954.8000000000001</ele><time>2026-04-30T09:00:32.988Z</time></trkpt><trkpt lat="44.7170267" lon="9.419365"><ele>955.6000000000001</ele><time>2026-04-30T09:00:33.987Z</time></trkpt><trkpt lat="44.7170033" lon="9.4194967"><ele>956.4</ele><time>2026-04-30T09:00:34.986Z</time></trkpt><trkpt lat="44.71698" lon="9.4196533"><ele>957.2</ele><time>2026-04-30T09:00:35.988Z</time></trkpt><trkpt lat="44.7169533" lon="9.4198117"><ele>958.0</ele><time>2026-04-30T09:00:36.987Z</time></trkpt><trkpt lat="44.716925" lon="9.4199567"><ele>956.8</ele><time>2026-04-30T09:00:37.987Z</time></trkpt><trkpt lat="44.7168933" lon="9.4200917"><ele>955.5999999999999</ele><time>2026-04-30T09:00:38.987Z</time></trkpt><trkpt lat="44.7168617" lon="9.42022"><ele>954.4000000000001</ele><time>2026-04-30T09:00:39.99Z</time></trkpt><trkpt lat="44.7168367" lon="9.4203467"><ele>953.2</ele><time>2026-04-30T09:00:40.987Z</time></trkpt><trkpt lat="44.7168117" lon="9.42047"><ele>952.0</ele><time>2026-04-30T09:00:41.991Z</time></trkpt><trkpt lat="44.7167817" lon="9.4205917"><ele>951.6</ele><time>2026-04-30T09:00:42.988Z</time></trkpt><trkpt lat="44.7167383" lon="9.4207067"><ele>951.2</ele><time>2026-04-30T09:00:43.987Z</time></trkpt><trkpt lat="44.7166733" lon="9.42081"><ele>950.8</ele><time>2026-04-30T09:00:44.988Z</time></trkpt><trkpt lat="44.7165933" lon="9.4209"><ele>950.4</ele><time>2026-04-30T09:00:45.988Z</time></trkpt><trkpt lat="44.7164983" lon="9.4209767"><ele>950.0</ele><time>2026-04-30T09:00:46.986Z</time></trkpt><trkpt lat="44.7164033" lon="9.4210517"><ele>950.0</ele><time>2026-04-30T09:00:47.989Z</time></trkpt><trkpt lat="44.7163117" lon="9.42114"><ele>950.0</ele><time>2026-04-30T09:00:48.989Z</time></trkpt><trkpt lat="44.7162283" lon="9.4212533"><ele>950.0</ele><time>2026-04-30T09:00:49.99Z</time></trkpt><trkpt lat="44.71616" lon="9.4213817"><ele>950.0</ele><time>2026-04-30T09:00:50.992Z</time></trkpt><trkpt lat="44.7160967" lon="9.4215083"><ele>951.4</ele><time>2026-04-30T09:00:51.988Z</time></trkpt><trkpt lat="44.7160317" lon="9.4216317"><ele>952.8</ele><time>2026-04-30T09:00:52.986Z</time></trkpt><trkpt lat="44.715965" lon="9.421745"><ele>954.2</ele><time>2026-04-30T09:00:53.988Z</time></trkpt><trkpt lat="44.7159" lon="9.4218533"><ele>955.6</ele><time>2026-04-30T09:00:54.987Z</time></trkpt><trkpt lat="44.7158417" lon="9.4219533"><ele>957.0</ele><time>2026-04-30T09:00:55.989Z</time></trkpt><trkpt lat="44.7157833" lon="9.4220517"><ele>955.4000000000001</ele><time>2026-04-30T09:00:56.988Z</time></trkpt><trkpt lat="44.7157233" lon="9.4221517"><ele>953.8000000000001</ele><time>2026-04-30T09:00:57.987Z</time></trkpt><trkpt lat="44.7156617" lon="9.42225"><ele>952.2</ele><time>2026-04-30T09:00:58.987Z</time></trkpt><trkpt lat="44.7155983" lon="9.4223467"><ele>950.6</ele><time>2026-04-30T09:00:59.988Z</time></trkpt><trkpt lat="44.7155383" lon="9.4224383"><ele>949.0</ele><time>2026-04-30T09:01:00.989Z</time></trkpt><trkpt lat="44.71547" lon="9.4225233"><ele>949.0</ele><time>2026-04-30T09:01:01.988Z</time></trkpt><trkpt lat="44.7153917" lon="9.4226217"><ele>949.0</ele><time>2026-04-30T09:01:02.989Z</time></trkpt><trkpt lat="44.7153033" lon="9.42273"><ele>949.0</ele><time>2026-04-30T09:01:03.988Z</time></trkpt><trkpt lat="44.7152" lon="9.42284"><ele>949.0</ele><time>2026-04-30T09:01:04.99Z</time></trkpt><trkpt lat="44.715095" lon="9.4229633"><ele>950.0</ele><time>2026-04-30T09:01:05.99Z</time></trkpt><trkpt lat="44.714995" lon="9.4231033"><ele>951.0</ele><time>2026-04-30T09:01:06.988Z</time></trkpt><trkpt lat="44.7148933" lon="9.4232367"><ele>952.0</ele><time>2026-04-30T09:01:07.991Z</time></trkpt><trkpt lat="44.7147983" lon="9.4233583"><ele>953.0</ele><time>2026-04-30T09:01:08.989Z</time></trkpt><trkpt lat="44.7147167" lon="9.4235017"><ele>953.0</ele><time>2026-04-30T09:01:09.988Z</time></trkpt><trkpt lat="44.714645" lon="9.423675"><ele>953.0</ele><time>2026-04-30T09:01:10.987Z</time></trkpt><trkpt lat="44.7145883" lon="9.4238583"><ele>953.0</ele><time>2026-04-30T09:01:11.987Z</time></trkpt><trkpt lat="44.7145417" lon="9.4240433"><ele>953.0</ele><time>2026-04-30T09:01:12.987Z</time></trkpt><trkpt lat="44.7144967" lon="9.424225"><ele>951.5</ele><time>2026-04-30T09:01:13.988Z</time></trkpt><trkpt lat="44.714455" lon="9.4243983"><ele>950.0</ele><time>2026-04-30T09:01:14.991Z</time></trkpt><trkpt lat="44.7144067" lon="9.4245617"><ele>948.5</ele><time>2026-04-30T09:01:15.987Z</time></trkpt><trkpt lat="44.71435" lon="9.4247283"><ele>947.0</ele><time>2026-04-30T09:01:16.988Z</time></trkpt><trkpt lat="44.7142917" lon="9.4248967"><ele>950.75</ele><time>2026-04-30T09:01:17.988Z</time></trkpt><trkpt lat="44.7142333" lon="9.4250667"><ele>954.5</ele><time>2026-04-30T09:01:18.988Z</time></trkpt><trkpt lat="44.714175" lon="9.42524"><ele>958.25</ele><time>2026-04-30T09:01:19.991Z</time></trkpt><trkpt lat="44.7141167" lon="9.4254017"><ele>962.0</ele><time>2026-04-30T09:01:20.987Z</time></trkpt><trkpt lat="44.7140567" lon="9.42557"><ele>962.0</ele><time>2026-04-30T09:01:21.995Z</time></trkpt><trkpt lat="44.7139967" lon="9.42573"><ele>962.0</ele><time>2026-04-30T09:01:22.988Z</time></trkpt><trkpt lat="44.7139283" lon="9.42589"><ele>962.0</ele><time>2026-04-30T09:01:23.988Z</time></trkpt><trkpt lat="44.7138517" lon="9.4260367"><ele>962.0</ele><time>2026-04-30T09:01:24.989Z</time></trkpt><trkpt lat="44.7137767" lon="9.4261633"><ele>962.0</ele><time>2026-04-30T09:01:25.989Z</time></trkpt><trkpt lat="44.713705" lon="9.426275"><ele>962.0</ele><time>2026-04-30T09:01:26.988Z</time></trkpt><trkpt lat="44.7136333" lon="9.42638"><ele>962.0</ele><time>2026-04-30T09:01:27.987Z</time></trkpt><trkpt lat="44.71357" lon="9.4264833"><ele>962.0</ele><time>2026-04-30T09:01:28.988Z</time></trkpt><trkpt lat="44.7135217" lon="9.4266033"><ele>962.0</ele><time>2026-04-30T09:01:29.989Z</time></trkpt><trkpt lat="44.7134917" lon="9.4267317"><ele>964.0</ele><time>2026-04-30T09:01:30.988Z</time></trkpt><trkpt lat="44.713465" lon="9.4268667"><ele>966.0</ele><time>2026-04-30T09:01:31.993Z</time></trkpt><trkpt lat="44.71344" lon="9.42701"><ele>968.0</ele><time>2026-04-30T09:01:32.991Z</time></trkpt><trkpt lat="44.7134117" lon="9.427155"><ele>970.0</ele><time>2026-04-30T09:01:33.988Z</time></trkpt><trkpt lat="44.7133833" lon="9.4273"><ele>972.0</ele><time>2026-04-30T09:01:34.987Z</time></trkpt><trkpt lat="44.7133567" lon="9.4274333"><ele>972.0</ele><time>2026-04-30T09:01:35.988Z</time></trkpt><trkpt lat="44.7133367" lon="9.427555"><ele>972.0</ele><time>2026-04-30T09:01:36.989Z</time></trkpt><trkpt lat="44.7133183" lon="9.4276767"><ele>972.0</ele><time>2026-04-30T09:01:37.988Z</time></trkpt><trkpt lat="44.7133" lon="9.427795"><ele>972.0</ele><time>2026-04-30T09:01:38.987Z</time></trkpt><trkpt lat="44.7132767" lon="9.427915"><ele>972.0</ele><time>2026-04-30T09:01:39.995Z</time></trkpt><trkpt lat="44.7132483" lon="9.4280417"><ele>972.0</ele><time>2026-04-30T09:01:40.987Z</time></trkpt><trkpt lat="44.7132133" lon="9.42817"><ele>971.6</ele><time>2026-04-30T09:01:41.987Z</time></trkpt><trkpt lat="44.71317" lon="9.428305"><ele>971.2</ele><time>2026-04-30T09:01:42.988Z</time></trkpt><trkpt lat="44.71312" lon="9.4284367"><ele>970.8</ele><time>2026-04-30T09:01:43.989Z</time></trkpt><trkpt lat="44.7130617" lon="9.4285633"><ele>970.4</ele><time>2026-04-30T09:01:44.987Z</time></trkpt><trkpt lat="44.7130067" lon="9.4286933"><ele>970.0</ele><time>2026-04-30T09:01:45.987Z</time></trkpt><trkpt lat="44.71296" lon="9.428825"><ele>970.0</ele><time>2026-04-30T09:01:46.988Z</time></trkpt><trkpt lat="44.7129333" lon="9.4289633"><ele>970.0</ele><time>2026-04-30T09:01:47.99Z</time></trkpt><trkpt lat="44.71293" lon="9.429105"><ele>970.0</ele><time>2026-04-30T09:01:48.986Z</time></trkpt><trkpt lat="44.712955" lon="9.429245"><ele>970.0</ele><time>2026-04-30T09:01:49.99Z</time></trkpt><trkpt lat="44.7129983" lon="9.4293817"><ele>970.0</ele><time>2026-04-30T09:01:50.987Z</time></trkpt><trkpt lat="44.7130283" lon="9.4295133"><ele>968.8333333333333</ele><time>2026-04-30T09:01:51.988Z</time></trkpt><trkpt lat="44.7130367" lon="9.4296433"><ele>967.6666666666666</ele><time>2026-04-30T09:01:52.989Z</time></trkpt><trkpt lat="44.7130167" lon="9.4297717"><ele>966.5</ele><time>2026-04-30T09:01:53.988Z</time></trkpt><trkpt lat="44.712985" lon="9.4298883"><ele>965.3333333333333</ele><time>2026-04-30T09:01:54.987Z</time></trkpt><trkpt lat="44.71295" lon="9.42999"><ele>964.1666666666666</ele><time>2026-04-30T09:01:55.987Z</time></trkpt><trkpt lat="44.7129233" lon="9.430075"><ele>963.0</ele><time>2026-04-30T09:01:56.989Z</time></trkpt><trkpt lat="44.712895" lon="9.4301567"><ele>963.0</ele><time>2026-04-30T09:01:57.988Z</time></trkpt><trkpt lat="44.7128683" lon="9.4302417"><ele>963.0</ele><time>2026-04-30T09:01:58.988Z</time></trkpt><trkpt lat="44.7128417" lon="9.4303267"><ele>963.0</ele><time>2026-04-30T09:01:59.988Z</time></trkpt><trkpt lat="44.712795" lon="9.4304717"><ele>963.0</ele><time>2026-04-30T09:02:01.988Z</time></trkpt><trkpt lat="44.712765" lon="9.4306283"><ele>963.0</ele><time>2026-04-30T09:02:03.99Z</time></trkpt><trkpt lat="44.71275" lon="9.43072"><ele>963.0</ele><time>2026-04-30T09:02:04.988Z</time></trkpt><trkpt lat="44.7127317" lon="9.430805"><ele>972.0</ele><time>2026-04-30T09:02:05.989Z</time></trkpt><trkpt lat="44.712705" lon="9.4308867"><ele>981.0</ele><time>2026-04-30T09:02:06.989Z</time></trkpt><trkpt lat="44.7126483" lon="9.4310517"><ele>990.0</ele><time>2026-04-30T09:02:08.988Z</time></trkpt><trkpt lat="44.712615" lon="9.43113"><ele>999.0</ele><time>2026-04-30T09:02:09.987Z</time></trkpt><trkpt lat="44.71255" lon="9.4312767"><ele>1008.0</ele><time>2026-04-30T09:02:11.988Z</time></trkpt><trkpt lat="44.7124733" lon="9.4314217"><ele>1008.0</ele><time>2026-04-30T09:02:13.988Z</time></trkpt><trkpt lat="44.71242" lon="9.431585"><ele>1008.0</ele><time>2026-04-30T09:02:15.988Z</time></trkpt><trkpt lat="44.71239" lon="9.43167"><ele>1008.0</ele><time>2026-04-30T09:02:16.988Z</time></trkpt><trkpt lat="44.712355" lon="9.4317533"><ele>1008.0</ele><time>2026-04-30T09:02:17.987Z</time></trkpt><trkpt lat="44.7123167" lon="9.4318267"><ele>1008.0</ele><time>2026-04-30T09:02:18.988Z</time></trkpt><trkpt lat="44.71224" lon="9.43196"><ele>1008.0</ele><time>2026-04-30T09:02:20.991Z</time></trkpt><trkpt lat="44.712175" lon="9.4320783"><ele>1008.0</ele><time>2026-04-30T09:02:22.987Z</time></trkpt><trkpt lat="44.7121417" lon="9.4321567"><ele>1008.0</ele><time>2026-04-30T09:02:23.988Z</time></trkpt><trkpt lat="44.7121033" lon="9.4322383"><ele>1008.0</ele><time>2026-04-30T09:02:24.987Z</time></trkpt><trkpt lat="44.7120633" lon="9.43233"><ele>1008.0</ele><time>2026-04-30T09:02:25.988Z</time></trkpt><trkpt lat="44.7120217" lon="9.4324217"><ele>1008.0</ele><time>2026-04-30T09:02:26.989Z</time></trkpt><trkpt lat="44.7119883" lon="9.4325117"><ele>1005.5999999999999</ele><time>2026-04-30T09:02:27.991Z</time></trkpt><trkpt lat="44.7119533" lon="9.4326"><ele>1003.1999999999999</ele><time>2026-04-30T09:02:28.987Z</time></trkpt><trkpt lat="44.7119217" lon="9.4326883"><ele>1000.8</ele><time>2026-04-30T09:02:29.988Z</time></trkpt><trkpt lat="44.7118933" lon="9.4327833"><ele>998.4</ele><time>2026-04-30T09:02:30.989Z</time></trkpt><trkpt lat="44.7118317" lon="9.4329383"><ele>996.0</ele><time>2026-04-30T09:02:32.989Z</time></trkpt><trkpt lat="44.711785" lon="9.43309"><ele>1002.3333333333334</ele><time>2026-04-30T09:02:34.987Z</time></trkpt><trkpt lat="44.7117633" lon="9.4331817"><ele>1008.6666666666667</ele><time>2026-04-30T09:02:35.988Z</time></trkpt><trkpt lat="44.711745" lon="9.4332817"><ele>1015.0</ele><time>2026-04-30T09:02:36.987Z</time></trkpt><trkpt lat="44.7117167" lon="9.433375"><ele>1021.3333333333334</ele><time>2026-04-30T09:02:37.987Z</time></trkpt><trkpt lat="44.7116783" lon="9.4334583"><ele>1027.6666666666667</ele><time>2026-04-30T09:02:38.99Z</time></trkpt><trkpt lat="44.71164" lon="9.4335617"><ele>1034.0</ele><time>2026-04-30T09:02:40.987Z</time></trkpt><trkpt lat="44.711605" lon="9.4336783"><ele>1034.0</ele><time>2026-04-30T09:02:42.987Z</time></trkpt><trkpt lat="44.71154" lon="9.43379"><ele>1034.0</ele><time>2026-04-30T09:02:44.989Z</time></trkpt><trkpt lat="44.7114918" lon="9.4339093"><ele>1034.0</ele><time>2026-04-30T09:02:46.988Z</time></trkpt><trkpt lat="44.7114428" lon="9.4340605"><ele>1034.0</ele><time>2026-04-30T09:02:48.988Z</time></trkpt><trkpt lat="44.7114126" lon="9.4341467"><ele>1034.0</ele><time>2026-04-30T09:02:49.987Z</time></trkpt><trkpt lat="44.7113808" lon="9.4342253"><ele>1033.8</ele><time>2026-04-30T09:02:50.988Z</time></trkpt><trkpt lat="44.7113223" lon="9.4343649"><ele>1033.6000000000001</ele><time>2026-04-30T09:02:52.987Z</time></trkpt><trkpt lat="44.7112639" lon="9.4344991"><ele>1033.4</ele><time>2026-04-30T09:02:54.988Z</time></trkpt><trkpt lat="44.7112228" lon="9.4346405"><ele>1033.2</ele><time>2026-04-30T09:02:56.989Z</time></trkpt><trkpt lat="44.7112116" lon="9.4347298"><ele>1033.0</ele><time>2026-04-30T09:02:57.993Z</time></trkpt><trkpt lat="44.7112046" lon="9.4348308"><ele>1032.5714285714287</ele><time>2026-04-30T09:02:58.989Z</time></trkpt><trkpt lat="44.711199" lon="9.4349377"><ele>1032.142857142857</ele><time>2026-04-30T09:02:59.989Z</time></trkpt><trkpt lat="44.7112015" lon="9.4350432"><ele>1031.7142857142858</ele><time>2026-04-30T09:03:00.988Z</time></trkpt><trkpt lat="44.711203" lon="9.4351397"><ele>1031.2857142857142</ele><time>2026-04-30T09:03:01.988Z</time></trkpt><trkpt lat="44.7111964" lon="9.4352324"><ele>1030.857142857143</ele><time>2026-04-30T09:03:02.988Z</time></trkpt><trkpt lat="44.7111771" lon="9.435324"><ele>1030.4285714285716</ele><time>2026-04-30T09:03:03.989Z</time></trkpt><trkpt lat="44.7111461" lon="9.4354119"><ele>1030.0</ele><time>2026-04-30T09:03:04.987Z</time></trkpt><trkpt lat="44.7111022" lon="9.4354916"><ele>1034.142857142857</ele><time>2026-04-30T09:03:05.988Z</time></trkpt><trkpt lat="44.7110575" lon="9.4355684"><ele>1038.2857142857142</ele><time>2026-04-30T09:03:06.988Z</time></trkpt><trkpt lat="44.7110163" lon="9.4356472"><ele>1042.4285714285713</ele><time>2026-04-30T09:03:07.987Z</time></trkpt><trkpt lat="44.710977" lon="9.4357266"><ele>1046.5714285714284</ele><time>2026-04-30T09:03:08.989Z</time></trkpt><trkpt lat="44.7109342" lon="9.4358122"><ele>1050.7142857142856</ele><time>2026-04-30T09:03:09.989Z</time></trkpt><trkpt lat="44.7108918" lon="9.4358958"><ele>1054.857142857143</ele><time>2026-04-30T09:03:10.987Z</time></trkpt><trkpt lat="44.7108478" lon="9.4359739"><ele>1059.0</ele><time>2026-04-30T09:03:11.988Z</time></trkpt><trkpt lat="44.7107997" lon="9.436055"><ele>1059.0</ele><time>2026-04-30T09:03:12.99Z</time></trkpt><trkpt lat="44.7107485" lon="9.4361372"><ele>1059.0</ele><time>2026-04-30T09:03:13.988Z</time></trkpt><trkpt lat="44.7106988" lon="9.4362242"><ele>1059.0</ele><time>2026-04-30T09:03:14.989Z</time></trkpt><trkpt lat="44.7106535" lon="9.4363164"><ele>1059.0</ele><time>2026-04-30T09:03:15.989Z</time></trkpt><trkpt lat="44.7106045" lon="9.4364104"><ele>1059.0</ele><time>2026-04-30T09:03:16.987Z</time></trkpt><trkpt lat="44.7105532" lon="9.4365037"><ele>1059.0</ele><time>2026-04-30T09:03:17.988Z</time></trkpt><trkpt lat="44.710504" lon="9.4365984"><ele>1056.142857142857</ele><time>2026-04-30T09:03:18.987Z</time></trkpt><trkpt lat="44.7104639" lon="9.4366937"><ele>1053.2857142857142</ele><time>2026-04-30T09:03:19.988Z</time></trkpt><trkpt lat="44.7104317" lon="9.4367841"><ele>1050.4285714285713</ele><time>2026-04-30T09:03:20.989Z</time></trkpt><trkpt lat="44.7104006" lon="9.4368683"><ele>1047.5714285714284</ele><time>2026-04-30T09:03:21.987Z</time></trkpt><trkpt lat="44.7103693" lon="9.4369473"><ele>1044.7142857142858</ele><time>2026-04-30T09:03:22.987Z</time></trkpt><trkpt lat="44.7103368" lon="9.4370279"><ele>1041.8571428571427</ele><time>2026-04-30T09:03:23.987Z</time></trkpt><trkpt lat="44.7103052" lon="9.437111"><ele>1039.0</ele><time>2026-04-30T09:03:24.988Z</time></trkpt><trkpt lat="44.7102682" lon="9.4371961"><ele>1042.2</ele><time>2026-04-30T09:03:25.988Z</time></trkpt><trkpt lat="44.7102215" lon="9.4372878"><ele>1045.4</ele><time>2026-04-30T09:03:26.988Z</time></trkpt><trkpt lat="44.7101732" lon="9.4373859"><ele>1048.6</ele><time>2026-04-30T09:03:27.987Z</time></trkpt><trkpt lat="44.7101105" lon="9.4374887"><ele>1051.8</ele><time>2026-04-30T09:03:28.988Z</time></trkpt><trkpt lat="44.7100377" lon="9.4376034"><ele>1055.0</ele><time>2026-04-30T09:03:29.987Z</time></trkpt><trkpt lat="44.7099729" lon="9.4377343"><ele>1055.0</ele><time>2026-04-30T09:03:30.989Z</time></trkpt><trkpt lat="44.7099196" lon="9.4378631"><ele>1055.0</ele><time>2026-04-30T09:03:31.988Z</time></trkpt><trkpt lat="44.7098751" lon="9.4379808"><ele>1055.0</ele><time>2026-04-30T09:03:32.99Z</time></trkpt><trkpt lat="44.7098417" lon="9.438085"><ele>1055.0</ele><time>2026-04-30T09:03:33.99Z</time></trkpt><trkpt lat="44.709815" lon="9.4381817"><ele>1055.0</ele><time>2026-04-30T09:03:34.988Z</time></trkpt><trkpt lat="44.70979" lon="9.4383317"><ele>1053.5</ele><time>2026-04-30T09:03:36.987Z</time></trkpt><trkpt lat="44.7097733" lon="9.4384567"><ele>1052.0</ele><time>2026-04-30T09:03:38.992Z</time></trkpt><trkpt lat="44.70973" lon="9.4386"><ele>1050.5</ele><time>2026-04-30T09:03:40.989Z</time></trkpt><trkpt lat="44.709685" lon="9.43867"><ele>1049.0</ele><time>2026-04-30T09:03:41.987Z</time></trkpt><trkpt lat="44.7096267" lon="9.43873"><ele>1047.5</ele><time>2026-04-30T09:03:42.99Z</time></trkpt><trkpt lat="44.70956" lon="9.4387767"><ele>1046.0</ele><time>2026-04-30T09:03:43.989Z</time></trkpt><trkpt lat="44.7094967" lon="9.4388167"><ele>1047.2857142857142</ele><time>2026-04-30T09:03:44.989Z</time></trkpt><trkpt lat="44.7094383" lon="9.4388633"><ele>1048.5714285714284</ele><time>2026-04-30T09:03:45.988Z</time></trkpt><trkpt lat="44.7093883" lon="9.4389267"><ele>1049.857142857143</ele><time>2026-04-30T09:03:46.988Z</time></trkpt><trkpt lat="44.7093583" lon="9.4390133"><ele>1051.142857142857</ele><time>2026-04-30T09:03:47.989Z</time></trkpt><trkpt lat="44.7093433" lon="9.4391183"><ele>1052.4285714285716</ele><time>2026-04-30T09:03:48.988Z</time></trkpt><trkpt lat="44.70933" lon="9.4392217"><ele>1053.7142857142858</ele><time>2026-04-30T09:03:49.988Z</time></trkpt><trkpt lat="44.7093083" lon="9.439315"><ele>1055.0</ele><time>2026-04-30T09:03:50.987Z</time></trkpt><trkpt lat="44.70928" lon="9.43941"><ele>1055.0</ele><time>2026-04-30T09:03:51.987Z</time></trkpt><trkpt lat="44.7092467" lon="9.43952"><ele>1055.0</ele><time>2026-04-30T09:03:52.989Z</time></trkpt><trkpt lat="44.709215" lon="9.439645"><ele>1055.0</ele><time>2026-04-30T09:03:53.99Z</time></trkpt><trkpt lat="44.7091867" lon="9.439775"><ele>1055.0</ele><time>2026-04-30T09:03:54.988Z</time></trkpt><trkpt lat="44.7091567" lon="9.4398917"><ele>1055.0</ele><time>2026-04-30T09:03:55.988Z</time></trkpt><trkpt lat="44.7091183" lon="9.44001"><ele>1055.2</ele><time>2026-04-30T09:03:56.987Z</time></trkpt><trkpt lat="44.7090783" lon="9.4401433"><ele>1055.4</ele><time>2026-04-30T09:03:57.988Z</time></trkpt><trkpt lat="44.7090433" lon="9.4402883"><ele>1055.6</ele><time>2026-04-30T09:03:58.988Z</time></trkpt><trkpt lat="44.7090167" lon="9.4404283"><ele>1055.8</ele><time>2026-04-30T09:03:59.987Z</time></trkpt><trkpt lat="44.7089817" lon="9.4405567"><ele>1056.0</ele><time>2026-04-30T09:04:00.988Z</time></trkpt><trkpt lat="44.70893" lon="9.4406933"><ele>1056.0</ele><time>2026-04-30T09:04:01.989Z</time></trkpt><trkpt lat="44.7088733" lon="9.4408333"><ele>1056.0</ele><time>2026-04-30T09:04:02.988Z</time></trkpt><trkpt lat="44.7088133" lon="9.440955"><ele>1056.0</ele><time>2026-04-30T09:04:03.989Z</time></trkpt><trkpt lat="44.7087517" lon="9.44107"><ele>1056.0</ele><time>2026-04-30T09:04:04.987Z</time></trkpt><trkpt lat="44.7086917" lon="9.4411683"><ele>1056.0</ele><time>2026-04-30T09:04:05.991Z</time></trkpt><trkpt lat="44.70863" lon="9.4412533"><ele>1057.5714285714284</ele><time>2026-04-30T09:04:06.989Z</time></trkpt><trkpt lat="44.7085667" lon="9.44132"><ele>1059.142857142857</ele><time>2026-04-30T09:04:07.988Z</time></trkpt><trkpt lat="44.7085067" lon="9.4413867"><ele>1060.7142857142858</ele><time>2026-04-30T09:04:08.99Z</time></trkpt><trkpt lat="44.70845" lon="9.4414583"><ele>1062.2857142857142</ele><time>2026-04-30T09:04:09.989Z</time></trkpt><trkpt lat="44.7083967" lon="9.44153"><ele>1063.857142857143</ele><time>2026-04-30T09:04:10.991Z</time></trkpt><trkpt lat="44.7083383" lon="9.4416017"><ele>1065.4285714285713</ele><time>2026-04-30T09:04:11.988Z</time></trkpt><trkpt lat="44.7082917" lon="9.4416683"><ele>1067.0</ele><time>2026-04-30T09:04:12.988Z</time></trkpt><trkpt lat="44.7082467" lon="9.4417383"><ele>1066.9999999999998</ele><time>2026-04-30T09:04:13.989Z</time></trkpt><trkpt lat="44.70821" lon="9.441815"><ele>1067.0</ele><time>2026-04-30T09:04:14.99Z</time></trkpt><trkpt lat="44.7081767" lon="9.441895"><ele>1067.0</ele><time>2026-04-30T09:04:15.987Z</time></trkpt><trkpt lat="44.7081283" lon="9.441965"><ele>1067.0</ele><time>2026-04-30T09:04:16.988Z</time></trkpt><trkpt lat="44.7080667" lon="9.442015"><ele>1067.0</ele><time>2026-04-30T09:04:17.99Z</time></trkpt><trkpt lat="44.7079917" lon="9.442045"><ele>1066.9999999999998</ele><time>2026-04-30T09:04:18.987Z</time></trkpt><trkpt lat="44.7079167" lon="9.442065"><ele>1067.0</ele><time>2026-04-30T09:04:19.987Z</time></trkpt><trkpt lat="44.7078433" lon="9.4421"><ele>1067.1666666666667</ele><time>2026-04-30T09:04:20.989Z</time></trkpt><trkpt lat="44.7077683" lon="9.4421417"><ele>1067.3333333333335</ele><time>2026-04-30T09:04:21.988Z</time></trkpt><trkpt lat="44.707695" lon="9.4421867"><ele>1067.5</ele><time>2026-04-30T09:04:22.988Z</time></trkpt><trkpt lat="44.7076183" lon="9.4422367"><ele>1067.6666666666667</ele><time>2026-04-30T09:04:23.988Z</time></trkpt><trkpt lat="44.707545" lon="9.4423033"><ele>1067.8333333333333</ele><time>2026-04-30T09:04:24.991Z</time></trkpt><trkpt lat="44.7074633" lon="9.442375"><ele>1068.0</ele><time>2026-04-30T09:04:25.988Z</time></trkpt><trkpt lat="44.7073833" lon="9.4424467"><ele>1068.0</ele><time>2026-04-30T09:04:26.991Z</time></trkpt><trkpt lat="44.7073067" lon="9.4425133"><ele>1068.0</ele><time>2026-04-30T09:04:27.988Z</time></trkpt><trkpt lat="44.70724" lon="9.4425783"><ele>1068.0</ele><time>2026-04-30T09:04:28.987Z</time></trkpt><trkpt lat="44.70717" lon="9.4426467"><ele>1068.0</ele><time>2026-04-30T09:04:29.987Z</time></trkpt><trkpt lat="44.7070983" lon="9.4427067"><ele>1068.0</ele><time>2026-04-30T09:04:30.989Z</time></trkpt><trkpt lat="44.7070233" lon="9.4427417"><ele>1068.0</ele><time>2026-04-30T09:04:31.988Z</time></trkpt><trkpt lat="44.7069633" lon="9.4427733"><ele>1069.2857142857144</ele><time>2026-04-30T09:04:32.988Z</time></trkpt><trkpt lat="44.706905" lon="9.44281"><ele>1070.5714285714287</ele><time>2026-04-30T09:04:33.988Z</time></trkpt><trkpt lat="44.706835" lon="9.4428517"><ele>1071.857142857143</ele><time>2026-04-30T09:04:34.987Z</time></trkpt><trkpt lat="44.7067717" lon="9.4428967"><ele>1073.1428571428573</ele><time>2026-04-30T09:04:35.987Z</time></trkpt><trkpt lat="44.706715" lon="9.4429467"><ele>1074.4285714285716</ele><time>2026-04-30T09:04:36.988Z</time></trkpt><trkpt lat="44.706655" lon="9.4430033"><ele>1075.7142857142858</ele><time>2026-04-30T09:04:37.988Z</time></trkpt><trkpt lat="44.706595" lon="9.4430617"><ele>1077.0</ele><time>2026-04-30T09:04:38.99Z</time></trkpt><trkpt lat="44.70654" lon="9.44313"><ele>1079.857142857143</ele><time>2026-04-30T09:04:39.993Z</time></trkpt><trkpt lat="44.7064867" lon="9.4432083"><ele>1082.7142857142858</ele><time>2026-04-30T09:04:40.989Z</time></trkpt><trkpt lat="44.7064317" lon="9.443285"><ele>1085.5714285714287</ele><time>2026-04-30T09:04:41.989Z</time></trkpt><trkpt lat="44.7063783" lon="9.443355"><ele>1088.4285714285716</ele><time>2026-04-30T09:04:42.989Z</time></trkpt><trkpt lat="44.7063267" lon="9.4434183"><ele>1091.2857142857144</ele><time>2026-04-30T09:04:43.989Z</time></trkpt><trkpt lat="44.7062733" lon="9.443485"><ele>1094.142857142857</ele><time>2026-04-30T09:04:44.988Z</time></trkpt><trkpt lat="44.7062117" lon="9.443555"><ele>1097.0</ele><time>2026-04-30T09:04:45.989Z</time></trkpt><trkpt lat="44.7061533" lon="9.4436333"><ele>1097.0</ele><time>2026-04-30T09:04:46.99Z</time></trkpt><trkpt lat="44.7060983" lon="9.4437217"><ele>1097.0</ele><time>2026-04-30T09:04:47.989Z</time></trkpt><trkpt lat="44.7060483" lon="9.4438283"><ele>1097.0</ele><time>2026-04-30T09:04:48.987Z</time></trkpt><trkpt lat="44.7060167" lon="9.443945"><ele>1097.0</ele><time>2026-04-30T09:04:49.988Z</time></trkpt><trkpt lat="44.7059817" lon="9.444055"><ele>1097.0</ele><time>2026-04-30T09:04:50.99Z</time></trkpt><trkpt lat="44.70594" lon="9.4441517"><ele>1097.0</ele><time>2026-04-30T09:04:51.991Z</time></trkpt><trkpt lat="44.7059" lon="9.444245"><ele>1099.3333333333335</ele><time>2026-04-30T09:04:52.987Z</time></trkpt><trkpt lat="44.7058733" lon="9.4443483"><ele>1101.6666666666667</ele><time>2026-04-30T09:04:53.987Z</time></trkpt><trkpt lat="44.7058383" lon="9.44444"><ele>1104.0</ele><time>2026-04-30T09:04:54.991Z</time></trkpt><trkpt lat="44.70579" lon="9.4445217"><ele>1106.3333333333333</ele><time>2026-04-30T09:04:55.99Z</time></trkpt><trkpt lat="44.7057317" lon="9.444595"><ele>1108.6666666666665</ele><time>2026-04-30T09:04:56.99Z</time></trkpt><trkpt lat="44.705675" lon="9.444675"><ele>1111.0</ele><time>2026-04-30T09:04:57.99Z</time></trkpt><trkpt lat="44.7056133" lon="9.4447533"><ele>1111.0</ele><time>2026-04-30T09:04:58.988Z</time></trkpt><trkpt lat="44.7055417" lon="9.4448183"><ele>1111.0</ele><time>2026-04-30T09:04:59.987Z</time></trkpt><trkpt lat="44.70547" lon="9.44487"><ele>1111.0</ele><time>2026-04-30T09:05:00.989Z</time></trkpt><trkpt lat="44.7053967" lon="9.4449"><ele>1111.0</ele><time>2026-04-30T09:05:01.988Z</time></trkpt><trkpt lat="44.7053317" lon="9.4449183"><ele>1111.0</ele><time>2026-04-30T09:05:02.988Z</time></trkpt><trkpt lat="44.705215" lon="9.444965"><ele>1111.0</ele><time>2026-04-30T09:05:04.987Z</time></trkpt><trkpt lat="44.705095" lon="9.44498"><ele>1114.6</ele><time>2026-04-30T09:05:06.987Z</time></trkpt><trkpt lat="44.7049917" lon="9.44499"><ele>1118.1999999999998</ele><time>2026-04-30T09:05:08.99Z</time></trkpt><trkpt lat="44.7049017" lon="9.4449983"><ele>1121.8000000000002</ele><time>2026-04-30T09:05:10.988Z</time></trkpt><trkpt lat="44.7048133" lon="9.4450083"><ele>1125.4</ele><time>2026-04-30T09:05:12.99Z</time></trkpt><trkpt lat="44.7047312" lon="9.4450455"><ele>1129.0</ele><time>2026-04-30T09:05:14.989Z</time></trkpt><trkpt lat="44.7046461" lon="9.4450849"><ele>1129.0</ele><time>2026-04-30T09:05:16.988Z</time></trkpt><trkpt lat="44.7045929" lon="9.4451474"><ele>1129.0</ele><time>2026-04-30T09:05:18.989Z</time></trkpt><trkpt lat="44.7045408" lon="9.4452328"><ele>1129.0</ele><time>2026-04-30T09:05:21.99Z</time></trkpt><trkpt lat="44.7044396" lon="9.4451938"><ele>1129.0</ele><time>2026-04-30T09:05:24.991Z</time></trkpt><trkpt lat="44.7043659" lon="9.4451146"><ele>1129.0</ele><time>2026-04-30T09:05:26.99Z</time></trkpt><trkpt lat="44.70429" lon="9.4451124"><ele>1129.0</ele><time>2026-04-30T09:05:28.989Z</time></trkpt><trkpt lat="44.7042189" lon="9.4451489"><ele>1132.8333333333333</ele><time>2026-04-30T09:05:30.991Z</time></trkpt><trkpt lat="44.7041494" lon="9.4451668"><ele>1136.6666666666665</ele><time>2026-04-30T09:05:32.992Z</time></trkpt><trkpt lat="44.7040683" lon="9.4451152"><ele>1140.5</ele><time>2026-04-30T09:05:35.988Z</time></trkpt><trkpt lat="44.7039836" lon="9.445072"><ele>1144.3333333333333</ele><time>2026-04-30T09:05:38.031Z</time></trkpt><trkpt lat="44.7038998" lon="9.4451028"><ele>1148.1666666666667</ele><time>2026-04-30T09:05:39.991Z</time></trkpt><trkpt lat="44.7038148" lon="9.4450839"><ele>1152.0</ele><time>2026-04-30T09:05:41.927Z</time></trkpt><trkpt lat="44.7037378" lon="9.4450224"><ele>1152.0</ele><time>2026-04-30T09:05:43.989Z</time></trkpt><trkpt lat="44.7036393" lon="9.4449584"><ele>1152.0</ele><time>2026-04-30T09:05:45.988Z</time></trkpt><trkpt lat="44.7035442" lon="9.4449"><ele>1152.0</ele><time>2026-04-30T09:05:47.99Z</time></trkpt><trkpt lat="44.7034805" lon="9.444806"><ele>1152.0</ele><time>2026-04-30T09:05:49.99Z</time></trkpt><trkpt lat="44.7034612" lon="9.4446539"><ele>1152.0</ele><time>2026-04-30T09:05:51.991Z</time></trkpt><trkpt lat="44.7034471" lon="9.444518"><ele>1157.6</ele><time>2026-04-30T09:05:53.991Z</time></trkpt><trkpt lat="44.70335" lon="9.444495"><ele>1163.2</ele><time>2026-04-30T09:06:49.989Z</time></trkpt><trkpt lat="44.7032867" lon="9.4445833"><ele>1168.8</ele><time>2026-04-30T09:06:52.987Z</time></trkpt><trkpt lat="44.70325" lon="9.44469"><ele>1174.4</ele><time>2026-04-30T09:06:55.988Z</time></trkpt><trkpt lat="44.7031867" lon="9.4448033"><ele>1180.0</ele><time>2026-04-30T09:06:58.99Z</time></trkpt><trkpt lat="44.70311" lon="9.444875"><ele>1181.0</ele><time>2026-04-30T09:07:00.992Z</time></trkpt><trkpt lat="44.7030262" lon="9.4449162"><ele>1182.0</ele><time>2026-04-30T09:07:02.991Z</time></trkpt><trkpt lat="44.7029084" lon="9.4449901"><ele>1183.0</ele><time>2026-04-30T09:07:04.99Z</time></trkpt><trkpt lat="44.7028411" lon="9.4450343"><ele>1184.0</ele><time>2026-04-30T09:07:05.989Z</time></trkpt><trkpt lat="44.7027723" lon="9.4450748"><ele>1185.0</ele><time>2026-04-30T09:07:06.99Z</time></trkpt><trkpt lat="44.7027008" lon="9.4451058"><ele>1186.0</ele><time>2026-04-30T09:07:07.99Z</time></trkpt><trkpt lat="44.7026029" lon="9.4451582"><ele>1187.0</ele><time>2026-04-30T09:07:09.99Z</time></trkpt><trkpt lat="44.7025352" lon="9.4452507"><ele>1188.0</ele><time>2026-04-30T09:07:11.991Z</time></trkpt><trkpt lat="44.7024603" lon="9.4453641"><ele>1189.0</ele><time>2026-04-30T09:07:13.99Z</time></trkpt><trkpt lat="44.7024182" lon="9.4454349"><ele>1190.0</ele><time>2026-04-30T09:07:14.988Z</time></trkpt><trkpt lat="44.7023786" lon="9.4455049"><ele>1191.0</ele><time>2026-04-30T09:07:15.988Z</time></trkpt><trkpt lat="44.702302" lon="9.445615"><ele>1192.0</ele><time>2026-04-30T09:07:17.989Z</time></trkpt><trkpt lat="44.7021963" lon="9.4456863"><ele>1192.0</ele><time>2026-04-30T09:07:19.988Z</time></trkpt><trkpt lat="44.7021246" lon="9.4456993"><ele>1192.0</ele><time>2026-04-30T09:07:20.991Z</time></trkpt><trkpt lat="44.7020385" lon="9.4457022"><ele>1192.0</ele><time>2026-04-30T09:07:21.987Z</time></trkpt><trkpt lat="44.701947" lon="9.445721"><ele>1192.0</ele><time>2026-04-30T09:07:22.987Z</time></trkpt><trkpt lat="44.7018726" lon="9.4457665"><ele>1192.0</ele><time>2026-04-30T09:07:23.988Z</time></trkpt><trkpt lat="44.7018148" lon="9.4458144"><ele>1192.0</ele><time>2026-04-30T09:07:24.987Z</time></trkpt><trkpt lat="44.7017249" lon="9.4458299"><ele>1196.2</ele><time>2026-04-30T09:07:26.988Z</time></trkpt><trkpt lat="44.7016341" lon="9.4457548"><ele>1200.4</ele><time>2026-04-30T09:07:28.988Z</time></trkpt><trkpt lat="44.7015496" lon="9.445637"><ele>1204.6</ele><time>2026-04-30T09:07:30.99Z</time></trkpt><trkpt lat="44.7014891" lon="9.4455125"><ele>1208.8</ele><time>2026-04-30T09:07:32.989Z</time></trkpt><trkpt lat="44.70142" lon="9.4454379"><ele>1213.0</ele><time>2026-04-30T09:07:34.988Z</time></trkpt><trkpt lat="44.7013424" lon="9.4453795"><ele>1213.0</ele><time>2026-04-30T09:07:36.987Z</time></trkpt><trkpt lat="44.7012787" lon="9.4453717"><ele>1213.0</ele><time>2026-04-30T09:07:38.989Z</time></trkpt><trkpt lat="44.7012396" lon="9.4454685"><ele>1213.0</ele><time>2026-04-30T09:07:41.987Z</time></trkpt><trkpt lat="44.7011704" lon="9.4455323"><ele>1213.0</ele><time>2026-04-30T09:07:43.991Z</time></trkpt><trkpt lat="44.7010718" lon="9.4456068"><ele>1213.0</ele><time>2026-04-30T09:07:45.989Z</time></trkpt><trkpt lat="44.7010069" lon="9.4456651"><ele>1213.0</ele><time>2026-04-30T09:07:47.987Z</time></trkpt><trkpt lat="44.7009477" lon="9.4457683"><ele>1219.0</ele><time>2026-04-30T09:07:50.989Z</time></trkpt><trkpt lat="44.7008905" lon="9.4458655"><ele>1225.0</ele><time>2026-04-30T09:07:52.988Z</time></trkpt><trkpt lat="44.7008447" lon="9.4460014"><ele>1231.0</ele><time>2026-04-30T09:07:54.99Z</time></trkpt><trkpt lat="44.7007846" lon="9.4460893"><ele>1237.0</ele><time>2026-04-30T09:07:56.991Z</time></trkpt><trkpt lat="44.7006959" lon="9.4461911"><ele>1243.0</ele><time>2026-04-30T09:07:59.99Z</time></trkpt><trkpt lat="44.7005985" lon="9.4462256"><ele>1243.0</ele><time>2026-04-30T09:08:01.989Z</time></trkpt><trkpt lat="44.7004798" lon="9.4462566"><ele>1243.0</ele><time>2026-04-30T09:08:03.989Z</time></trkpt><trkpt lat="44.7003644" lon="9.446311"><ele>1243.0</ele><time>2026-04-30T09:08:05.988Z</time></trkpt><trkpt lat="44.7002666" lon="9.4464027"><ele>1243.0</ele><time>2026-04-30T09:08:07.987Z</time></trkpt><trkpt lat="44.7001819" lon="9.4465206"><ele>1248.5</ele><time>2026-04-30T09:08:09.988Z</time></trkpt><trkpt lat="44.700106" lon="9.4466442"><ele>1254.0</ele><time>2026-04-30T09:08:11.988Z</time></trkpt><trkpt lat="44.7000599" lon="9.4467791"><ele>1259.5</ele><time>2026-04-30T09:08:13.99Z</time></trkpt><trkpt lat="44.7000129" lon="9.4469226"><ele>1265.0</ele><time>2026-04-30T09:08:15.988Z</time></trkpt><trkpt lat="44.6999252" lon="9.4470434"><ele>1265.0</ele><time>2026-04-30T09:08:17.988Z</time></trkpt><trkpt lat="44.6998779" lon="9.447103"><ele>1265.0</ele><time>2026-04-30T09:08:18.987Z</time></trkpt><trkpt lat="44.6997952" lon="9.4472165"><ele>1265.0</ele><time>2026-04-30T09:08:20.987Z</time></trkpt><trkpt lat="44.6997155" lon="9.4472973"><ele>1265.0</ele><time>2026-04-30T09:08:22.989Z</time></trkpt><trkpt lat="44.6996248" lon="9.4472986"><ele>1265.0</ele><time>2026-04-30T09:08:24.988Z</time></trkpt><trkpt lat="44.6995241" lon="9.4472354"><ele>1266.4</ele><time>2026-04-30T09:08:26.989Z</time></trkpt><trkpt lat="44.6994229" lon="9.4472009"><ele>1267.8</ele><time>2026-04-30T09:08:28.987Z</time></trkpt><trkpt lat="44.6993575" lon="9.4472188"><ele>1269.2</ele><time>2026-04-30T09:08:30.987Z</time></trkpt><trkpt lat="44.6993254" lon="9.4473076"><ele>1270.6</ele><time>2026-04-30T09:08:33.988Z</time></trkpt><trkpt lat="44.6993164" lon="9.4474393"><ele>1272.0</ele><time>2026-04-30T09:08:35.988Z</time></trkpt><trkpt lat="44.6993167" lon="9.4476346"><ele>1274.3333333333333</ele><time>2026-04-30T09:08:37.989Z</time></trkpt><trkpt lat="44.6993108" lon="9.4477554"><ele>1276.6666666666667</ele><time>2026-04-30T09:08:38.988Z</time></trkpt><trkpt lat="44.6992999" lon="9.447877"><ele>1279.0</ele><time>2026-04-30T09:08:39.989Z</time></trkpt><trkpt lat="44.6992836" lon="9.4479931"><ele>1281.3333333333335</ele><time>2026-04-30T09:08:40.988Z</time></trkpt><trkpt lat="44.699263" lon="9.4481"><ele>1283.6666666666667</ele><time>2026-04-30T09:08:41.988Z</time></trkpt><trkpt lat="44.6992378" lon="9.4482014"><ele>1286.0</ele><time>2026-04-30T09:08:42.988Z</time></trkpt><trkpt lat="44.6991741" lon="9.4483348"><ele>1287.6</ele><time>2026-04-30T09:08:44.989Z</time></trkpt><trkpt lat="44.6990919" lon="9.4484287"><ele>1289.1999999999998</ele><time>2026-04-30T09:08:46.987Z</time></trkpt><trkpt lat="44.6990117" lon="9.4485183"><ele>1290.8000000000002</ele><time>2026-04-30T09:08:48.989Z</time></trkpt><trkpt lat="44.69893" lon="9.448615"><ele>1292.4</ele><time>2026-04-30T09:08:50.989Z</time></trkpt><trkpt lat="44.69884" lon="9.4487133"><ele>1294.0</ele><time>2026-04-30T09:08:52.989Z</time></trkpt><trkpt lat="44.698785" lon="9.4487567"><ele>1294.0</ele><time>2026-04-30T09:08:53.989Z</time></trkpt><trkpt lat="44.698725" lon="9.4487917"><ele>1294.0</ele><time>2026-04-30T09:08:54.99Z</time></trkpt><trkpt lat="44.6986617" lon="9.4488183"><ele>1294.0</ele><time>2026-04-30T09:08:55.992Z</time></trkpt><trkpt lat="44.6985767" lon="9.4488017"><ele>1294.0</ele><time>2026-04-30T09:08:57.988Z</time></trkpt><trkpt lat="44.69851" lon="9.4487967"><ele>1294.0</ele><time>2026-04-30T09:09:00.988Z</time></trkpt><trkpt lat="44.69843" lon="9.4489017"><ele>1294.0</ele><time>2026-04-30T09:10:02.99Z</time></trkpt><trkpt lat="44.6983283" lon="9.448985"><ele>1294.0</ele><time>2026-04-30T09:10:04.988Z</time></trkpt><trkpt lat="44.6982267" lon="9.4489917"><ele>1294.0</ele><time>2026-04-30T09:10:06.989Z</time></trkpt><trkpt lat="44.6981483" lon="9.4489183"><ele>1294.0</ele><time>2026-04-30T09:10:08.988Z</time></trkpt><trkpt lat="44.6980367" lon="9.4488333"><ele>1294.0</ele><time>2026-04-30T09:10:10.987Z</time></trkpt><trkpt lat="44.6979867" lon="9.4487717"><ele>1294.0</ele><time>2026-04-30T09:10:11.989Z</time></trkpt><trkpt lat="44.6979483" lon="9.4486867"><ele>1294.0</ele><time>2026-04-30T09:10:12.987Z</time></trkpt><trkpt lat="44.69792" lon="9.448585"><ele>1294.0</ele><time>2026-04-30T09:10:13.989Z</time></trkpt><trkpt lat="44.6979017" lon="9.448475"><ele>1294.0</ele><time>2026-04-30T09:10:14.989Z</time></trkpt><trkpt lat="44.6978817" lon="9.4483567"><ele>1294.0</ele><time>2026-04-30T09:10:15.988Z</time></trkpt><trkpt lat="44.697855" lon="9.4482217"><ele>1294.0</ele><time>2026-04-30T09:10:16.987Z</time></trkpt><trkpt lat="44.6978333" lon="9.4480833"><ele>1294.0</ele><time>2026-04-30T09:10:17.987Z</time></trkpt><trkpt lat="44.6978117" lon="9.447925"><ele>1293.0</ele><time>2026-04-30T09:10:18.99Z</time></trkpt><trkpt lat="44.6977883" lon="9.4477633"><ele>1292.0</ele><time>2026-04-30T09:10:19.988Z</time></trkpt><trkpt lat="44.697765" lon="9.447605"><ele>1291.0</ele><time>2026-04-30T09:10:20.989Z</time></trkpt><trkpt lat="44.697745" lon="9.4474517"><ele>1290.0</ele><time>2026-04-30T09:10:21.988Z</time></trkpt><trkpt lat="44.6977283" lon="9.44731"><ele>1289.0</ele><time>2026-04-30T09:10:22.989Z</time></trkpt><trkpt lat="44.6977083" lon="9.4471867"><ele>1291.5</ele><time>2026-04-30T09:10:23.989Z</time></trkpt><trkpt lat="44.6976783" lon="9.4470783"><ele>1294.0</ele><time>2026-04-30T09:10:24.99Z</time></trkpt><trkpt lat="44.6976433" lon="9.4469783"><ele>1296.5</ele><time>2026-04-30T09:10:25.991Z</time></trkpt><trkpt lat="44.69759" lon="9.4468967"><ele>1299.0</ele><time>2026-04-30T09:10:26.989Z</time></trkpt><trkpt lat="44.6975367" lon="9.4468033"><ele>1301.5</ele><time>2026-04-30T09:10:27.989Z</time></trkpt><trkpt lat="44.6975" lon="9.4466983"><ele>1304.0</ele><time>2026-04-30T09:10:28.988Z</time></trkpt><trkpt lat="44.6974667" lon="9.446585"><ele>1304.0</ele><time>2026-04-30T09:10:29.987Z</time></trkpt><trkpt lat="44.697425" lon="9.446485"><ele>1304.0</ele><time>2026-04-30T09:10:30.988Z</time></trkpt><trkpt lat="44.6973783" lon="9.446405"><ele>1304.0</ele><time>2026-04-30T09:10:31.988Z</time></trkpt><trkpt lat="44.69732" lon="9.4463433"><ele>1304.0</ele><time>2026-04-30T09:10:32.988Z</time></trkpt><trkpt lat="44.6972417" lon="9.4462967"><ele>1304.0</ele><time>2026-04-30T09:10:33.988Z</time></trkpt><trkpt lat="44.697155" lon="9.4462667"><ele>1304.0</ele><time>2026-04-30T09:10:34.987Z</time></trkpt><trkpt lat="44.6970767" lon="9.446245"><ele>1305.0</ele><time>2026-04-30T09:10:35.988Z</time></trkpt><trkpt lat="44.6970017" lon="9.44623"><ele>1306.0</ele><time>2026-04-30T09:10:36.988Z</time></trkpt><trkpt lat="44.69693" lon="9.44623"><ele>1307.0</ele><time>2026-04-30T09:10:37.988Z</time></trkpt><trkpt lat="44.6968583" lon="9.4462517"><ele>1308.0</ele><time>2026-04-30T09:10:38.987Z</time></trkpt><trkpt lat="44.69678" lon="9.4462983"><ele>1309.0</ele><time>2026-04-30T09:10:39.988Z</time></trkpt><trkpt lat="44.696705" lon="9.4463617"><ele>1310.0</ele><time>2026-04-30T09:10:40.989Z</time></trkpt><trkpt lat="44.6966317" lon="9.44642"><ele>1310.0</ele><time>2026-04-30T09:10:41.991Z</time></trkpt><trkpt lat="44.6965567" lon="9.4464617"><ele>1310.0</ele><time>2026-04-30T09:10:42.99Z</time></trkpt><trkpt lat="44.6964783" lon="9.446495"><ele>1310.0</ele><time>2026-04-30T09:10:43.987Z</time></trkpt><trkpt lat="44.696395" lon="9.4465267"><ele>1310.0</ele><time>2026-04-30T09:10:44.99Z</time></trkpt><trkpt lat="44.6963167" lon="9.446565"><ele>1310.0</ele><time>2026-04-30T09:10:45.987Z</time></trkpt><trkpt lat="44.6962433" lon="9.4466167"><ele>1310.0</ele><time>2026-04-30T09:10:46.988Z</time></trkpt><trkpt lat="44.6961733" lon="9.4466833"><ele>1310.0</ele><time>2026-04-30T09:10:47.99Z</time></trkpt><trkpt lat="44.6961017" lon="9.4467583"><ele>1310.0</ele><time>2026-04-30T09:10:48.989Z</time></trkpt><trkpt lat="44.6960283" lon="9.446835"><ele>1310.0</ele><time>2026-04-30T09:10:49.989Z</time></trkpt><trkpt lat="44.6959583" lon="9.4469067"><ele>1310.0</ele><time>2026-04-30T09:10:50.99Z</time></trkpt><trkpt lat="44.69589" lon="9.4469833"><ele>1310.0</ele><time>2026-04-30T09:10:51.989Z</time></trkpt><trkpt lat="44.69582" lon="9.4470567"><ele>1310.0</ele><time>2026-04-30T09:10:52.991Z</time></trkpt><trkpt lat="44.695755" lon="9.44712"><ele>1310.2</ele><time>2026-04-30T09:10:53.989Z</time></trkpt><trkpt lat="44.6956917" lon="9.44716"><ele>1310.4</ele><time>2026-04-30T09:10:54.989Z</time></trkpt><trkpt lat="44.6955667" lon="9.4471283"><ele>1310.6</ele><time>2026-04-30T09:10:56.987Z</time></trkpt><trkpt lat="44.69549" lon="9.447085"><ele>1310.8</ele><time>2026-04-30T09:10:57.988Z</time></trkpt><trkpt lat="44.695405" lon="9.447025"><ele>1311.0</ele><time>2026-04-30T09:10:58.987Z</time></trkpt><trkpt lat="44.695315" lon="9.4469567"><ele>1308.6666666666667</ele><time>2026-04-30T09:10:59.989Z</time></trkpt><trkpt lat="44.69523" lon="9.446895"><ele>1306.3333333333333</ele><time>2026-04-30T09:11:00.987Z</time></trkpt><trkpt lat="44.695155" lon="9.4468433"><ele>1304.0</ele><time>2026-04-30T09:11:01.989Z</time></trkpt><trkpt lat="44.6950883" lon="9.4467983"><ele>1301.6666666666665</ele><time>2026-04-30T09:11:02.989Z</time></trkpt><trkpt lat="44.695025" lon="9.44676"><ele>1299.3333333333333</ele><time>2026-04-30T09:11:03.988Z</time></trkpt><trkpt lat="44.6949033" lon="9.4467467"><ele>1297.0</ele><time>2026-04-30T09:11:05.987Z</time></trkpt><trkpt lat="44.6948417" lon="9.4468"><ele>1297.0</ele><time>2026-04-30T09:11:06.988Z</time></trkpt><trkpt lat="44.6947733" lon="9.4468817"><ele>1297.0</ele><time>2026-04-30T09:11:07.989Z</time></trkpt><trkpt lat="44.6947017" lon="9.44696"><ele>1297.0</ele><time>2026-04-30T09:11:08.988Z</time></trkpt><trkpt lat="44.694635" lon="9.4470383"><ele>1297.0</ele><time>2026-04-30T09:11:09.988Z</time></trkpt><trkpt lat="44.694575" lon="9.447115"><ele>1297.0</ele><time>2026-04-30T09:11:10.988Z</time></trkpt><trkpt lat="44.6945217" lon="9.4471883"><ele>1297.0</ele><time>2026-04-30T09:11:11.99Z</time></trkpt><trkpt lat="44.6944767" lon="9.4472617"><ele>1295.8333333333333</ele><time>2026-04-30T09:11:12.987Z</time></trkpt><trkpt lat="44.6944433" lon="9.4473417"><ele>1294.6666666666665</ele><time>2026-04-30T09:11:13.987Z</time></trkpt><trkpt lat="44.69442" lon="9.4474317"><ele>1293.5</ele><time>2026-04-30T09:11:14.989Z</time></trkpt><trkpt lat="44.6943867" lon="9.4475117"><ele>1292.3333333333333</ele><time>2026-04-30T09:11:15.988Z</time></trkpt><trkpt lat="44.6943333" lon="9.447565"><ele>1291.1666666666667</ele><time>2026-04-30T09:11:16.989Z</time></trkpt><trkpt lat="44.69422" lon="9.4476033"><ele>1290.0</ele><time>2026-04-30T09:11:18.989Z</time></trkpt><trkpt lat="44.6941067" lon="9.4476567"><ele>1290.0</ele><time>2026-04-30T09:11:20.989Z</time></trkpt><trkpt lat="44.6940433" lon="9.4476783"><ele>1290.0</ele><time>2026-04-30T09:11:21.987Z</time></trkpt><trkpt lat="44.6939783" lon="9.4476917"><ele>1290.0</ele><time>2026-04-30T09:11:22.99Z</time></trkpt><trkpt lat="44.6938483" lon="9.4477067"><ele>1290.0</ele><time>2026-04-30T09:11:24.988Z</time></trkpt><trkpt lat="44.6937683" lon="9.447715"><ele>1290.0</ele><time>2026-04-30T09:11:25.987Z</time></trkpt><trkpt lat="44.6936717" lon="9.4477267"><ele>1290.0</ele><time>2026-04-30T09:11:26.987Z</time></trkpt><trkpt lat="44.6935733" lon="9.447745"><ele>1288.5</ele><time>2026-04-30T09:11:27.988Z</time></trkpt><trkpt lat="44.6934767" lon="9.4477583"><ele>1287.0</ele><time>2026-04-30T09:11:28.988Z</time></trkpt><trkpt lat="44.69339" lon="9.4477633"><ele>1285.5</ele><time>2026-04-30T09:11:29.988Z</time></trkpt><trkpt lat="44.69331" lon="9.4477667"><ele>1284.0</ele><time>2026-04-30T09:11:30.987Z</time></trkpt><trkpt lat="44.6932383" lon="9.44777"><ele>1282.5</ele><time>2026-04-30T09:11:31.988Z</time></trkpt><trkpt lat="44.6931733" lon="9.44777"><ele>1281.0</ele><time>2026-04-30T09:11:32.987Z</time></trkpt><trkpt lat="44.69311" lon="9.4477667"><ele>1281.0</ele><time>2026-04-30T09:11:33.989Z</time></trkpt><trkpt lat="44.6929917" lon="9.4477283"><ele>1281.0</ele><time>2026-04-30T09:11:35.988Z</time></trkpt><trkpt lat="44.6929317" lon="9.447695"><ele>1281.0</ele><time>2026-04-30T09:11:36.989Z</time></trkpt><trkpt lat="44.6928667" lon="9.4476633"><ele>1281.0</ele><time>2026-04-30T09:11:37.988Z</time></trkpt><trkpt lat="44.6928" lon="9.4476317"><ele>1281.0</ele><time>2026-04-30T09:11:38.992Z</time></trkpt><trkpt lat="44.6927383" lon="9.4475867"><ele>1281.0</ele><time>2026-04-30T09:11:39.987Z</time></trkpt><trkpt lat="44.69268" lon="9.447525"><ele>1280.7142857142858</ele><time>2026-04-30T09:11:40.987Z</time></trkpt><trkpt lat="44.69262" lon="9.44746"><ele>1280.4285714285716</ele><time>2026-04-30T09:11:41.989Z</time></trkpt><trkpt lat="44.6925567" lon="9.4474017"><ele>1280.142857142857</ele><time>2026-04-30T09:11:42.988Z</time></trkpt><trkpt lat="44.6924967" lon="9.4473483"><ele>1279.857142857143</ele><time>2026-04-30T09:11:43.99Z</time></trkpt><trkpt lat="44.692435" lon="9.4472983"><ele>1279.5714285714287</ele><time>2026-04-30T09:11:44.988Z</time></trkpt><trkpt lat="44.6923767" lon="9.4472433"><ele>1279.2857142857142</ele><time>2026-04-30T09:11:45.987Z</time></trkpt><trkpt lat="44.6923217" lon="9.447175"><ele>1279.0</ele><time>2026-04-30T09:11:46.989Z</time></trkpt><trkpt lat="44.6922667" lon="9.4471033"><ele>1277.0</ele><time>2026-04-30T09:11:47.987Z</time></trkpt><trkpt lat="44.69221" lon="9.447035"><ele>1275.0</ele><time>2026-04-30T09:11:48.989Z</time></trkpt><trkpt lat="44.6921517" lon="9.4469667"><ele>1273.0</ele><time>2026-04-30T09:11:49.99Z</time></trkpt><trkpt lat="44.6921017" lon="9.4468967"><ele>1271.0</ele><time>2026-04-30T09:11:50.991Z</time></trkpt><trkpt lat="44.6920633" lon="9.44682"><ele>1269.0</ele><time>2026-04-30T09:11:51.988Z</time></trkpt><trkpt lat="44.6920233" lon="9.4466467"><ele>1267.0</ele><time>2026-04-30T09:11:53.99Z</time></trkpt><trkpt lat="44.6920133" lon="9.4465533"><ele>1267.0</ele><time>2026-04-30T09:11:54.988Z</time></trkpt><trkpt lat="44.692" lon="9.44646"><ele>1267.0</ele><time>2026-04-30T09:11:55.99Z</time></trkpt><trkpt lat="44.6919817" lon="9.4463717"><ele>1267.0</ele><time>2026-04-30T09:11:56.988Z</time></trkpt><trkpt lat="44.6919567" lon="9.4462867"><ele>1267.0</ele><time>2026-04-30T09:11:57.987Z</time></trkpt><trkpt lat="44.69189" lon="9.4461367"><ele>1267.0</ele><time>2026-04-30T09:11:59.991Z</time></trkpt><trkpt lat="44.6918217" lon="9.4460133"><ele>1267.0</ele><time>2026-04-30T09:12:01.989Z</time></trkpt><trkpt lat="44.6917333" lon="9.445905"><ele>1264.8</ele><time>2026-04-30T09:12:03.991Z</time></trkpt><trkpt lat="44.6916367" lon="9.4457867"><ele>1262.6</ele><time>2026-04-30T09:12:05.99Z</time></trkpt><trkpt lat="44.6915867" lon="9.4457267"><ele>1260.3999999999999</ele><time>2026-04-30T09:12:06.99Z</time></trkpt><trkpt lat="44.6914867" lon="9.4456617"><ele>1258.2</ele><time>2026-04-30T09:12:08.99Z</time></trkpt><trkpt lat="44.6913883" lon="9.4456867"><ele>1256.0</ele><time>2026-04-30T09:12:10.987Z</time></trkpt><trkpt lat="44.6912917" lon="9.4456967"><ele>1256.0</ele><time>2026-04-30T09:12:12.99Z</time></trkpt><trkpt lat="44.6911967" lon="9.4456467"><ele>1256.0</ele><time>2026-04-30T09:12:14.992Z</time></trkpt><trkpt lat="44.6911367" lon="9.4455967"><ele>1256.0</ele><time>2026-04-30T09:12:15.99Z</time></trkpt><trkpt lat="44.6910667" lon="9.4455333"><ele>1256.0</ele><time>2026-04-30T09:12:16.987Z</time></trkpt><trkpt lat="44.691" lon="9.44546"><ele>1256.0</ele><time>2026-04-30T09:12:17.989Z</time></trkpt><trkpt lat="44.69095" lon="9.445375"><ele>1256.0</ele><time>2026-04-30T09:12:18.99Z</time></trkpt><trkpt lat="44.69092" lon="9.4452867"><ele>1253.0</ele><time>2026-04-30T09:12:19.99Z</time></trkpt><trkpt lat="44.6908917" lon="9.4452033"><ele>1250.0</ele><time>2026-04-30T09:12:20.991Z</time></trkpt><trkpt lat="44.6908017" lon="9.4450883"><ele>1247.0</ele><time>2026-04-30T09:12:22.99Z</time></trkpt><trkpt lat="44.6907417" lon="9.4450367"><ele>1244.0</ele><time>2026-04-30T09:12:23.99Z</time></trkpt><trkpt lat="44.6906767" lon="9.4449883"><ele>1241.0</ele><time>2026-04-30T09:12:24.992Z</time></trkpt><trkpt lat="44.6906067" lon="9.4449483"><ele>1238.0</ele><time>2026-04-30T09:12:25.989Z</time></trkpt><trkpt lat="44.69053" lon="9.4449217"><ele>1238.0</ele><time>2026-04-30T09:12:26.991Z</time></trkpt><trkpt lat="44.6904517" lon="9.4449033"><ele>1238.0</ele><time>2026-04-30T09:12:27.992Z</time></trkpt><trkpt lat="44.690375" lon="9.44489"><ele>1238.0</ele><time>2026-04-30T09:12:28.99Z</time></trkpt><trkpt lat="44.6903017" lon="9.4448833"><ele>1238.0</ele><time>2026-04-30T09:12:29.992Z</time></trkpt><trkpt lat="44.6902367" lon="9.4448883"><ele>1238.0</ele><time>2026-04-30T09:12:30.991Z</time></trkpt><trkpt lat="44.6901417" lon="9.4449267"><ele>1238.0</ele><time>2026-04-30T09:12:32.988Z</time></trkpt><trkpt lat="44.6901067" lon="9.44504"><ele>1236.2</ele><time>2026-04-30T09:12:34.989Z</time></trkpt><trkpt lat="44.6900983" lon="9.44516"><ele>1234.4</ele><time>2026-04-30T09:12:36.992Z</time></trkpt><trkpt lat="44.6901083" lon="9.4452933"><ele>1232.6000000000001</ele><time>2026-04-30T09:12:38.988Z</time></trkpt><trkpt lat="44.6901233" lon="9.445445"><ele>1230.8</ele><time>2026-04-30T09:12:40.987Z</time></trkpt><trkpt lat="44.6901317" lon="9.445605"><ele>1229.0</ele><time>2026-04-30T09:12:42.989Z</time></trkpt><trkpt lat="44.69016" lon="9.4457633"><ele>1228.5714285714287</ele><time>2026-04-30T09:12:44.987Z</time></trkpt><trkpt lat="44.6901867" lon="9.445845"><ele>1228.142857142857</ele><time>2026-04-30T09:12:45.987Z</time></trkpt><trkpt lat="44.6902133" lon="9.4459267"><ele>1227.7142857142858</ele><time>2026-04-30T09:12:46.988Z</time></trkpt><trkpt lat="44.6902367" lon="9.44601"><ele>1227.2857142857142</ele><time>2026-04-30T09:12:47.989Z</time></trkpt><trkpt lat="44.6902517" lon="9.44611"><ele>1226.857142857143</ele><time>2026-04-30T09:12:48.988Z</time></trkpt><trkpt lat="44.690265" lon="9.446225"><ele>1226.4285714285716</ele><time>2026-04-30T09:12:49.989Z</time></trkpt><trkpt lat="44.6902833" lon="9.4463533"><ele>1226.0</ele><time>2026-04-30T09:12:50.988Z</time></trkpt><trkpt lat="44.690305" lon="9.4464833"><ele>1226.5</ele><time>2026-04-30T09:12:51.989Z</time></trkpt><trkpt lat="44.690325" lon="9.4466017"><ele>1227.0</ele><time>2026-04-30T09:12:52.989Z</time></trkpt><trkpt lat="44.6903367" lon="9.4466983"><ele>1227.5</ele><time>2026-04-30T09:12:53.988Z</time></trkpt><trkpt lat="44.6903117" lon="9.4468333"><ele>1228.0</ele><time>2026-04-30T09:12:55.987Z</time></trkpt><trkpt lat="44.69027" lon="9.4469067"><ele>1228.5</ele><time>2026-04-30T09:12:56.988Z</time></trkpt><trkpt lat="44.6902283" lon="9.4469783"><ele>1229.0</ele><time>2026-04-30T09:12:57.987Z</time></trkpt><trkpt lat="44.6901467" lon="9.4470367"><ele>1229.0</ele><time>2026-04-30T09:12:59.987Z</time></trkpt><trkpt lat="44.6900167" lon="9.446975"><ele>1229.0</ele><time>2026-04-30T09:13:01.99Z</time></trkpt><trkpt lat="44.6899317" lon="9.446925"><ele>1229.0</ele><time>2026-04-30T09:13:02.989Z</time></trkpt><trkpt lat="44.6898483" lon="9.4468767"><ele>1229.0</ele><time>2026-04-30T09:13:03.987Z</time></trkpt><trkpt lat="44.68977" lon="9.4468433"><ele>1229.0</ele><time>2026-04-30T09:13:04.987Z</time></trkpt><trkpt lat="44.6896933" lon="9.446825"><ele>1229.0000000000002</ele><time>2026-04-30T09:13:05.986Z</time></trkpt><trkpt lat="44.6896167" lon="9.446815"><ele>1229.0</ele><time>2026-04-30T09:13:06.987Z</time></trkpt><trkpt lat="44.6895467" lon="9.4468133"><ele>1229.0</ele><time>2026-04-30T09:13:07.987Z</time></trkpt><trkpt lat="44.6894783" lon="9.446825"><ele>1229.0</ele><time>2026-04-30T09:13:08.987Z</time></trkpt><trkpt lat="44.6894117" lon="9.4468533"><ele>1229.0</ele><time>2026-04-30T09:13:09.988Z</time></trkpt><trkpt lat="44.689345" lon="9.4468717"><ele>1229.0000000000002</ele><time>2026-04-30T09:13:10.986Z</time></trkpt><trkpt lat="44.6892817" lon="9.4468767"><ele>1229.0</ele><time>2026-04-30T09:13:11.99Z</time></trkpt><trkpt lat="44.689165" lon="9.446815"><ele>1228.1428571428573</ele><time>2026-04-30T09:13:13.987Z</time></trkpt><trkpt lat="44.689115" lon="9.4467517"><ele>1227.2857142857142</ele><time>2026-04-30T09:13:14.986Z</time></trkpt><trkpt lat="44.6890617" lon="9.446685"><ele>1226.4285714285716</ele><time>2026-04-30T09:13:15.986Z</time></trkpt><trkpt lat="44.6890033" lon="9.44662"><ele>1225.5714285714287</ele><time>2026-04-30T09:13:16.986Z</time></trkpt><trkpt lat="44.68894" lon="9.4465467"><ele>1224.7142857142858</ele><time>2026-04-30T09:13:17.991Z</time></trkpt><trkpt lat="44.68888" lon="9.4464717"><ele>1223.857142857143</ele><time>2026-04-30T09:13:18.987Z</time></trkpt><trkpt lat="44.6888267" lon="9.4464017"><ele>1223.0</ele><time>2026-04-30T09:13:19.989Z</time></trkpt><trkpt lat="44.68873" lon="9.446355"><ele>1223.0</ele><time>2026-04-30T09:13:21.988Z</time></trkpt><trkpt lat="44.688645" lon="9.4464117"><ele>1223.0</ele><time>2026-04-30T09:13:23.989Z</time></trkpt><trkpt lat="44.6885683" lon="9.4465333"><ele>1223.0</ele><time>2026-04-30T09:13:25.987Z</time></trkpt><trkpt lat="44.68853" lon="9.4466817"><ele>1223.0</ele><time>2026-04-30T09:13:27.989Z</time></trkpt><trkpt lat="44.6885133" lon="9.446845"><ele>1223.0</ele><time>2026-04-30T09:13:29.986Z</time></trkpt><trkpt lat="44.6884883" lon="9.4470167"><ele>1221.0</ele><time>2026-04-30T09:13:31.987Z</time></trkpt><trkpt lat="44.6884683" lon="9.4471033"><ele>1219.0</ele><time>2026-04-30T09:13:32.989Z</time></trkpt><trkpt lat="44.6884417" lon="9.4471883"><ele>1217.0</ele><time>2026-04-30T09:13:33.989Z</time></trkpt><trkpt lat="44.6884033" lon="9.44727"><ele>1215.0</ele><time>2026-04-30T09:13:34.99Z</time></trkpt><trkpt lat="44.6883617" lon="9.4473417"><ele>1213.0</ele><time>2026-04-30T09:13:35.986Z</time></trkpt><trkpt lat="44.688325" lon="9.4474167"><ele>1211.0</ele><time>2026-04-30T09:13:36.987Z</time></trkpt><trkpt lat="44.6883033" lon="9.4475033"><ele>1209.0</ele><time>2026-04-30T09:13:37.988Z</time></trkpt><trkpt lat="44.6883033" lon="9.447675"><ele>1209.0</ele><time>2026-04-30T09:13:39.991Z</time></trkpt><trkpt lat="44.6883083" lon="9.4478283"><ele>1209.0</ele><time>2026-04-30T09:13:41.988Z</time></trkpt><trkpt lat="44.6882867" lon="9.447915"><ele>1209.0</ele><time>2026-04-30T09:13:42.988Z</time></trkpt><trkpt lat="44.6882433" lon="9.4480817"><ele>1209.0</ele><time>2026-04-30T09:13:44.987Z</time></trkpt><trkpt lat="44.688205" lon="9.448175"><ele>1209.0</ele><time>2026-04-30T09:13:45.987Z</time></trkpt><trkpt lat="44.6881583" lon="9.4482533"><ele>1209.857142857143</ele><time>2026-04-30T09:13:46.988Z</time></trkpt><trkpt lat="44.68811" lon="9.448325"><ele>1210.7142857142858</ele><time>2026-04-30T09:13:47.987Z</time></trkpt><trkpt lat="44.6880567" lon="9.4483933"><ele>1211.5714285714287</ele><time>2026-04-30T09:13:48.99Z</time></trkpt><trkpt lat="44.6880033" lon="9.448455"><ele>1212.4285714285716</ele><time>2026-04-30T09:13:49.987Z</time></trkpt><trkpt lat="44.68795" lon="9.4485217"><ele>1213.2857142857142</ele><time>2026-04-30T09:13:50.988Z</time></trkpt><trkpt lat="44.6878967" lon="9.4485983"><ele>1214.1428571428573</ele><time>2026-04-30T09:13:51.987Z</time></trkpt><trkpt lat="44.6878433" lon="9.4486783"><ele>1215.0</ele><time>2026-04-30T09:13:52.988Z</time></trkpt><trkpt lat="44.68779" lon="9.4487517"><ele>1212.8333333333333</ele><time>2026-04-30T09:13:53.988Z</time></trkpt><trkpt lat="44.6877333" lon="9.44882"><ele>1210.6666666666667</ele><time>2026-04-30T09:13:54.988Z</time></trkpt><trkpt lat="44.6876883" lon="9.4488933"><ele>1208.5</ele><time>2026-04-30T09:13:55.988Z</time></trkpt><trkpt lat="44.6876467" lon="9.4489617"><ele>1206.3333333333335</ele><time>2026-04-30T09:13:56.987Z</time></trkpt><trkpt lat="44.68759" lon="9.4490617"><ele>1204.1666666666667</ele><time>2026-04-30T09:13:58.988Z</time></trkpt><trkpt lat="44.6875067" lon="9.4490983"><ele>1202.0</ele><time>2026-04-30T09:14:01.987Z</time></trkpt><trkpt lat="44.6874167" lon="9.449115"><ele>1202.0</ele><time>2026-04-30T09:14:03.987Z</time></trkpt><trkpt lat="44.687345" lon="9.4491683"><ele>1202.0</ele><time>2026-04-30T09:14:05.986Z</time></trkpt><trkpt lat="44.6872533" lon="9.449215"><ele>1202.0</ele><time>2026-04-30T09:14:07.988Z</time></trkpt><trkpt lat="44.687195" lon="9.4492533"><ele>1202.0</ele><time>2026-04-30T09:14:08.988Z</time></trkpt><trkpt lat="44.68714" lon="9.4493117"><ele>1202.0</ele><time>2026-04-30T09:14:09.989Z</time></trkpt><trkpt lat="44.6870717" lon="9.4494367"><ele>1202.0</ele><time>2026-04-30T09:14:11.986Z</time></trkpt><trkpt lat="44.687005" lon="9.4495417"><ele>1199.0</ele><time>2026-04-30T09:14:13.986Z</time></trkpt><trkpt lat="44.6869233" lon="9.4495517"><ele>1196.0</ele><time>2026-04-30T09:14:15.987Z</time></trkpt><trkpt lat="44.6868117" lon="9.4495517"><ele>1193.0</ele><time>2026-04-30T09:14:17.986Z</time></trkpt><trkpt lat="44.6866967" lon="9.449555"><ele>1190.0</ele><time>2026-04-30T09:14:19.987Z</time></trkpt><trkpt lat="44.6865767" lon="9.4495667"><ele>1187.0</ele><time>2026-04-30T09:14:21.987Z</time></trkpt><trkpt lat="44.6864617" lon="9.4495783"><ele>1187.0</ele><time>2026-04-30T09:14:23.989Z</time></trkpt><trkpt lat="44.6863983" lon="9.449585"><ele>1187.0</ele><time>2026-04-30T09:14:24.988Z</time></trkpt><trkpt lat="44.686275" lon="9.4496"><ele>1187.0</ele><time>2026-04-30T09:14:26.988Z</time></trkpt><trkpt lat="44.6861533" lon="9.449625"><ele>1187.0</ele><time>2026-04-30T09:14:28.991Z</time></trkpt><trkpt lat="44.68604" lon="9.4496467"><ele>1187.0</ele><time>2026-04-30T09:14:30.987Z</time></trkpt><trkpt lat="44.6859117" lon="9.449635"><ele>1186.4285714285716</ele><time>2026-04-30T09:14:32.987Z</time></trkpt><trkpt lat="44.6858467" lon="9.4496367"><ele>1185.857142857143</ele><time>2026-04-30T09:14:33.988Z</time></trkpt><trkpt lat="44.68578" lon="9.4496483"><ele>1185.2857142857142</ele><time>2026-04-30T09:14:34.986Z</time></trkpt><trkpt lat="44.68571" lon="9.4496633"><ele>1184.7142857142858</ele><time>2026-04-30T09:14:35.989Z</time></trkpt><trkpt lat="44.68564" lon="9.44969"><ele>1184.142857142857</ele><time>2026-04-30T09:14:36.987Z</time></trkpt><trkpt lat="44.68558" lon="9.4497217"><ele>1183.5714285714287</ele><time>2026-04-30T09:14:37.987Z</time></trkpt><trkpt lat="44.6855183" lon="9.4497617"><ele>1183.0</ele><time>2026-04-30T09:14:38.987Z</time></trkpt><trkpt lat="44.6854517" lon="9.4498"><ele>1183.0</ele><time>2026-04-30T09:14:39.988Z</time></trkpt><trkpt lat="44.6853833" lon="9.4498317"><ele>1183.0</ele><time>2026-04-30T09:14:40.987Z</time></trkpt><trkpt lat="44.68532" lon="9.4498533"><ele>1183.0</ele><time>2026-04-30T09:14:41.988Z</time></trkpt><trkpt lat="44.6852533" lon="9.4498817"><ele>1183.0</ele><time>2026-04-30T09:14:42.99Z</time></trkpt><trkpt lat="44.685145" lon="9.4499317"><ele>1183.0</ele><time>2026-04-30T09:14:44.987Z</time></trkpt><trkpt lat="44.6850383" lon="9.44994"><ele>1183.0</ele><time>2026-04-30T09:14:46.988Z</time></trkpt><trkpt lat="44.6849283" lon="9.4499"><ele>1183.2</ele><time>2026-04-30T09:14:48.989Z</time></trkpt><trkpt lat="44.6848133" lon="9.4498333"><ele>1183.4</ele><time>2026-04-30T09:14:50.987Z</time></trkpt><trkpt lat="44.6846983" lon="9.4497683"><ele>1183.6000000000001</ele><time>2026-04-30T09:14:52.988Z</time></trkpt><trkpt lat="44.6846317" lon="9.4497283"><ele>1183.8</ele><time>2026-04-30T09:14:53.989Z</time></trkpt><trkpt lat="44.6845733" lon="9.4496917"><ele>1184.0</ele><time>2026-04-30T09:14:54.988Z</time></trkpt><trkpt lat="44.6844967" lon="9.4496633"><ele>1181.8</ele><time>2026-04-30T09:14:55.988Z</time></trkpt><trkpt lat="44.68441" lon="9.4496217"><ele>1179.6000000000001</ele><time>2026-04-30T09:14:56.987Z</time></trkpt><trkpt lat="44.684325" lon="9.4495817"><ele>1177.4</ele><time>2026-04-30T09:14:57.988Z</time></trkpt><trkpt lat="44.68424" lon="9.4495433"><ele>1175.2</ele><time>2026-04-30T09:14:58.99Z</time></trkpt><trkpt lat="44.6841467" lon="9.4495083"><ele>1173.0</ele><time>2026-04-30T09:14:59.986Z</time></trkpt><trkpt lat="44.6840583" lon="9.4494733"><ele>1173.0</ele><time>2026-04-30T09:15:00.988Z</time></trkpt><trkpt lat="44.683975" lon="9.449425"><ele>1173.0</ele><time>2026-04-30T09:15:01.987Z</time></trkpt><trkpt lat="44.6839017" lon="9.449365"><ele>1173.0</ele><time>2026-04-30T09:15:02.986Z</time></trkpt><trkpt lat="44.683845" lon="9.44931"><ele>1173.0</ele><time>2026-04-30T09:15:03.988Z</time></trkpt><trkpt lat="44.6837867" lon="9.4492633"><ele>1173.0</ele><time>2026-04-30T09:15:04.987Z</time></trkpt><trkpt lat="44.6837267" lon="9.44923"><ele>1173.0</ele><time>2026-04-30T09:15:05.987Z</time></trkpt><trkpt lat="44.683655" lon="9.4491933"><ele>1174.6666666666667</ele><time>2026-04-30T09:15:06.988Z</time></trkpt><trkpt lat="44.6835783" lon="9.44916"><ele>1176.3333333333333</ele><time>2026-04-30T09:15:07.987Z</time></trkpt><trkpt lat="44.6834983" lon="9.4491167"><ele>1178.0</ele><time>2026-04-30T09:15:08.989Z</time></trkpt><trkpt lat="44.6834183" lon="9.44908"><ele>1179.6666666666665</ele><time>2026-04-30T09:15:09.988Z</time></trkpt><trkpt lat="44.6833333" lon="9.4490317"><ele>1181.3333333333333</ele><time>2026-04-30T09:15:10.987Z</time></trkpt><trkpt lat="44.6832567" lon="9.449"><ele>1183.0</ele><time>2026-04-30T09:15:11.989Z</time></trkpt><trkpt lat="44.68319" lon="9.448975"><ele>1183.0</ele><time>2026-04-30T09:15:12.986Z</time></trkpt><trkpt lat="44.68313" lon="9.4489433"><ele>1183.0</ele><time>2026-04-30T09:15:13.988Z</time></trkpt><trkpt lat="44.683015" lon="9.4488567"><ele>1183.0</ele><time>2026-04-30T09:15:15.987Z</time></trkpt><trkpt lat="44.682955" lon="9.448815"><ele>1183.0</ele><time>2026-04-30T09:15:16.987Z</time></trkpt><trkpt lat="44.6828517" lon="9.4487417"><ele>1183.0</ele><time>2026-04-30T09:15:18.986Z</time></trkpt><trkpt lat="44.682755" lon="9.4486733"><ele>1181.3333333333333</ele><time>2026-04-30T09:15:20.988Z</time></trkpt><trkpt lat="44.6826833" lon="9.4486017"><ele>1179.6666666666665</ele><time>2026-04-30T09:15:22.987Z</time></trkpt><trkpt lat="44.68261" lon="9.4485617"><ele>1178.0</ele><time>2026-04-30T09:15:24.988Z</time></trkpt><trkpt lat="44.68255" lon="9.448475"><ele>1176.3333333333333</ele><time>2026-04-30T09:15:26.988Z</time></trkpt><trkpt lat="44.6824883" lon="9.4483467"><ele>1174.6666666666667</ele><time>2026-04-30T09:15:28.988Z</time></trkpt><trkpt lat="44.6824567" lon="9.448255"><ele>1173.0</ele><time>2026-04-30T09:15:29.987Z</time></trkpt><trkpt lat="44.6824183" lon="9.4481633"><ele>1173.0</ele><time>2026-04-30T09:15:30.988Z</time></trkpt><trkpt lat="44.68238" lon="9.448065"><ele>1173.0</ele><time>2026-04-30T09:15:31.987Z</time></trkpt><trkpt lat="44.682335" lon="9.4479767"><ele>1173.0</ele><time>2026-04-30T09:15:32.987Z</time></trkpt><trkpt lat="44.68229" lon="9.4478983"><ele>1173.0</ele><time>2026-04-30T09:15:33.988Z</time></trkpt><trkpt lat="44.68225" lon="9.4478167"><ele>1173.0</ele><time>2026-04-30T09:15:34.987Z</time></trkpt><trkpt lat="44.6822017" lon="9.4477317"><ele>1173.0</ele><time>2026-04-30T09:15:35.988Z</time></trkpt><trkpt lat="44.682155" lon="9.447645"><ele>1172.8333333333333</ele><time>2026-04-30T09:15:36.987Z</time></trkpt><trkpt lat="44.6821133" lon="9.4475617"><ele>1172.6666666666667</ele><time>2026-04-30T09:15:37.987Z</time></trkpt><trkpt lat="44.6820733" lon="9.44749"><ele>1172.5</ele><time>2026-04-30T09:15:38.987Z</time></trkpt><trkpt lat="44.6820367" lon="9.447415"><ele>1172.3333333333335</ele><time>2026-04-30T09:15:39.988Z</time></trkpt><trkpt lat="44.6819733" lon="9.4472717"><ele>1172.1666666666667</ele><time>2026-04-30T09:15:41.988Z</time></trkpt><trkpt lat="44.6819117" lon="9.4471417"><ele>1172.0</ele><time>2026-04-30T09:15:43.987Z</time></trkpt><trkpt lat="44.6818683" lon="9.4470717"><ele>1171.0</ele><time>2026-04-30T09:15:45.987Z</time></trkpt><trkpt lat="44.6818017" lon="9.4469733"><ele>1170.0</ele><time>2026-04-30T09:15:48.988Z</time></trkpt><trkpt lat="44.681795" lon="9.4468133"><ele>1169.0</ele><time>2026-04-30T09:15:50.989Z</time></trkpt><trkpt lat="44.6817733" lon="9.4467283"><ele>1168.0</ele><time>2026-04-30T09:15:51.988Z</time></trkpt><trkpt lat="44.681735" lon="9.4466417"><ele>1167.0</ele><time>2026-04-30T09:15:52.987Z</time></trkpt><trkpt lat="44.6817033" lon="9.4465567"><ele>1166.0</ele><time>2026-04-30T09:15:53.99Z</time></trkpt><trkpt lat="44.6816683" lon="9.4464783"><ele>1166.0</ele><time>2026-04-30T09:15:54.988Z</time></trkpt><trkpt lat="44.6815933" lon="9.4463267"><ele>1166.0</ele><time>2026-04-30T09:15:56.987Z</time></trkpt><trkpt lat="44.6815133" lon="9.4461967"><ele>1166.0</ele><time>2026-04-30T09:15:58.987Z</time></trkpt><trkpt lat="44.6814733" lon="9.4461217"><ele>1166.0</ele><time>2026-04-30T09:15:59.987Z</time></trkpt><trkpt lat="44.6814167" lon="9.446055"><ele>1166.0</ele><time>2026-04-30T09:16:00.986Z</time></trkpt><trkpt lat="44.6813517" lon="9.4460033"><ele>1166.5</ele><time>2026-04-30T09:16:01.99Z</time></trkpt><trkpt lat="44.6813" lon="9.4459417"><ele>1167.0</ele><time>2026-04-30T09:16:02.986Z</time></trkpt><trkpt lat="44.6812333" lon="9.4458133"><ele>1167.5</ele><time>2026-04-30T09:16:04.987Z</time></trkpt><trkpt lat="44.6811867" lon="9.4457433"><ele>1168.0</ele><time>2026-04-30T09:16:05.988Z</time></trkpt><trkpt lat="44.68115" lon="9.4456583"><ele>1168.5</ele><time>2026-04-30T09:16:06.988Z</time></trkpt><trkpt lat="44.68112" lon="9.44556"><ele>1169.0</ele><time>2026-04-30T09:16:07.988Z</time></trkpt><trkpt lat="44.6810983" lon="9.4454633"><ele>1168.1666666666667</ele><time>2026-04-30T09:16:08.99Z</time></trkpt><trkpt lat="44.68107" lon="9.44538"><ele>1167.3333333333335</ele><time>2026-04-30T09:16:09.989Z</time></trkpt><trkpt lat="44.68099" lon="9.4452467"><ele>1166.5</ele><time>2026-04-30T09:16:11.988Z</time></trkpt><trkpt lat="44.6809083" lon="9.4451233"><ele>1165.6666666666667</ele><time>2026-04-30T09:16:13.989Z</time></trkpt><trkpt lat="44.6808717" lon="9.445045"><ele>1164.8333333333333</ele><time>2026-04-30T09:16:14.988Z</time></trkpt><trkpt lat="44.6808367" lon="9.444965"><ele>1164.0</ele><time>2026-04-30T09:16:15.989Z</time></trkpt><trkpt lat="44.680805" lon="9.44488"><ele>1164.0</ele><time>2026-04-30T09:16:16.987Z</time></trkpt><trkpt lat="44.6807533" lon="9.4447233"><ele>1164.0</ele><time>2026-04-30T09:16:18.987Z</time></trkpt><trkpt lat="44.68068" lon="9.4445783"><ele>1164.0</ele><time>2026-04-30T09:16:20.991Z</time></trkpt><trkpt lat="44.68063" lon="9.444495"><ele>1164.0</ele><time>2026-04-30T09:16:21.988Z</time></trkpt><trkpt lat="44.6805733" lon="9.44443"><ele>1164.0</ele><time>2026-04-30T09:16:22.988Z</time></trkpt><trkpt lat="44.6805067" lon="9.4443717"><ele>1163.4285714285713</ele><time>2026-04-30T09:16:23.988Z</time></trkpt><trkpt lat="44.680435" lon="9.4443217"><ele>1162.8571428571427</ele><time>2026-04-30T09:16:24.99Z</time></trkpt><trkpt lat="44.6803683" lon="9.44428"><ele>1162.2857142857142</ele><time>2026-04-30T09:16:25.988Z</time></trkpt><trkpt lat="44.6803017" lon="9.44424"><ele>1161.7142857142858</ele><time>2026-04-30T09:16:26.989Z</time></trkpt><trkpt lat="44.680235" lon="9.4441983"><ele>1161.1428571428573</ele><time>2026-04-30T09:16:27.99Z</time></trkpt><trkpt lat="44.680165" lon="9.44417"><ele>1160.5714285714287</ele><time>2026-04-30T09:16:28.988Z</time></trkpt><trkpt lat="44.6800967" lon="9.444145"><ele>1160.0</ele><time>2026-04-30T09:16:29.988Z</time></trkpt><trkpt lat="44.680035" lon="9.4441133"><ele>1159.6666666666667</ele><time>2026-04-30T09:16:30.987Z</time></trkpt><trkpt lat="44.67994" lon="9.444045"><ele>1159.3333333333335</ele><time>2026-04-30T09:16:32.987Z</time></trkpt><trkpt lat="44.6798783" lon="9.44401"><ele>1159.0</ele><time>2026-04-30T09:16:34.988Z</time></trkpt><trkpt lat="44.6798133" lon="9.44396"><ele>1158.6666666666667</ele><time>2026-04-30T09:16:37.989Z</time></trkpt><trkpt lat="44.6797367" lon="9.4438833"><ele>1158.3333333333333</ele><time>2026-04-30T09:16:39.988Z</time></trkpt><trkpt lat="44.6796733" lon="9.4438283"><ele>1158.0</ele><time>2026-04-30T09:16:40.988Z</time></trkpt><trkpt lat="44.6796133" lon="9.4437683"><ele>1158.0</ele><time>2026-04-30T09:16:41.988Z</time></trkpt><trkpt lat="44.6795533" lon="9.4437033"><ele>1158.0</ele><time>2026-04-30T09:16:42.988Z</time></trkpt><trkpt lat="44.679485" lon="9.4436233"><ele>1158.0</ele><time>2026-04-30T09:16:43.987Z</time></trkpt><trkpt lat="44.6794117" lon="9.4435617"><ele>1158.0</ele><time>2026-04-30T09:16:44.988Z</time></trkpt><trkpt lat="44.679335" lon="9.4435217"><ele>1158.0</ele><time>2026-04-30T09:16:45.987Z</time></trkpt><trkpt lat="44.6792583" lon="9.4435"><ele>1158.0</ele><time>2026-04-30T09:16:46.987Z</time></trkpt><trkpt lat="44.6791833" lon="9.4434783"><ele>1159.2857142857142</ele><time>2026-04-30T09:16:47.988Z</time></trkpt><trkpt lat="44.679115" lon="9.44346"><ele>1160.5714285714284</ele><time>2026-04-30T09:16:48.989Z</time></trkpt><trkpt lat="44.6790517" lon="9.4434267"><ele>1161.857142857143</ele><time>2026-04-30T09:16:49.99Z</time></trkpt><trkpt lat="44.6789967" lon="9.44338"><ele>1163.142857142857</ele><time>2026-04-30T09:16:50.99Z</time></trkpt><trkpt lat="44.678945" lon="9.44331"><ele>1164.4285714285716</ele><time>2026-04-30T09:16:51.991Z</time></trkpt><trkpt lat="44.6789033" lon="9.443225"><ele>1165.7142857142858</ele><time>2026-04-30T09:16:52.99Z</time></trkpt><trkpt lat="44.67886" lon="9.4431367"><ele>1167.0</ele><time>2026-04-30T09:16:53.99Z</time></trkpt><trkpt lat="44.6788183" lon="9.4430433"><ele>1167.0</ele><time>2026-04-30T09:16:54.988Z</time></trkpt><trkpt lat="44.6787617" lon="9.44297"><ele>1167.0</ele><time>2026-04-30T09:16:55.989Z</time></trkpt><trkpt lat="44.6787" lon="9.4428967"><ele>1167.0</ele><time>2026-04-30T09:16:56.991Z</time></trkpt><trkpt lat="44.678645" lon="9.442845"><ele>1167.0</ele><time>2026-04-30T09:16:57.992Z</time></trkpt><trkpt lat="44.6785917" lon="9.4427833"><ele>1167.0</ele><time>2026-04-30T09:16:58.988Z</time></trkpt><trkpt lat="44.67854" lon="9.4427133"><ele>1167.0</ele><time>2026-04-30T09:16:59.989Z</time></trkpt><trkpt lat="44.678495" lon="9.44264"><ele>1167.0</ele><time>2026-04-30T09:17:00.99Z</time></trkpt><trkpt lat="44.6784433" lon="9.44248"><ele>1167.8333333333333</ele><time>2026-04-30T09:17:02.99Z</time></trkpt><trkpt lat="44.6784433" lon="9.4423867"><ele>1168.6666666666667</ele><time>2026-04-30T09:17:03.989Z</time></trkpt><trkpt lat="44.6784467" lon="9.4422833"><ele>1169.5</ele><time>2026-04-30T09:17:04.986Z</time></trkpt><trkpt lat="44.6784583" lon="9.4421717"><ele>1170.3333333333335</ele><time>2026-04-30T09:17:05.989Z</time></trkpt><trkpt lat="44.6784783" lon="9.4420533"><ele>1171.1666666666667</ele><time>2026-04-30T09:17:06.987Z</time></trkpt><trkpt lat="44.6784983" lon="9.4419367"><ele>1172.0</ele><time>2026-04-30T09:17:07.989Z</time></trkpt><trkpt lat="44.6785217" lon="9.4418183"><ele>1172.0</ele><time>2026-04-30T09:17:08.987Z</time></trkpt><trkpt lat="44.67854" lon="9.4417083"><ele>1172.0</ele><time>2026-04-30T09:17:09.99Z</time></trkpt><trkpt lat="44.6785633" lon="9.4415933"><ele>1172.0</ele><time>2026-04-30T09:17:10.987Z</time></trkpt><trkpt lat="44.6785767" lon="9.4414733"><ele>1172.0</ele><time>2026-04-30T09:17:11.988Z</time></trkpt><trkpt lat="44.6785933" lon="9.4413417"><ele>1172.0</ele><time>2026-04-30T09:17:12.987Z</time></trkpt><trkpt lat="44.67861" lon="9.4412133"><ele>1172.0</ele><time>2026-04-30T09:17:13.988Z</time></trkpt><trkpt lat="44.678625" lon="9.4410933"><ele>1172.0</ele><time>2026-04-30T09:17:14.988Z</time></trkpt><trkpt lat="44.67863" lon="9.4409717"><ele>1172.0</ele><time>2026-04-30T09:17:15.987Z</time></trkpt><trkpt lat="44.6786233" lon="9.4408483"><ele>1172.0</ele><time>2026-04-30T09:17:16.987Z</time></trkpt><trkpt lat="44.6786117" lon="9.440725"><ele>1172.0</ele><time>2026-04-30T09:17:17.989Z</time></trkpt><trkpt lat="44.6786" lon="9.4406117"><ele>1172.0</ele><time>2026-04-30T09:17:18.988Z</time></trkpt><trkpt lat="44.6785917" lon="9.4405067"><ele>1172.0</ele><time>2026-04-30T09:17:19.989Z</time></trkpt><trkpt lat="44.678585" lon="9.44041"><ele>1171.1666666666667</ele><time>2026-04-30T09:17:20.988Z</time></trkpt><trkpt lat="44.6785733" lon="9.4403183"><ele>1170.3333333333335</ele><time>2026-04-30T09:17:21.988Z</time></trkpt><trkpt lat="44.6785583" lon="9.4402283"><ele>1169.5</ele><time>2026-04-30T09:17:22.987Z</time></trkpt><trkpt lat="44.678515" lon="9.4400917"><ele>1168.6666666666667</ele><time>2026-04-30T09:17:24.988Z</time></trkpt><trkpt lat="44.678445" lon="9.4399417"><ele>1167.8333333333333</ele><time>2026-04-30T09:17:26.988Z</time></trkpt><trkpt lat="44.6784167" lon="9.439855"><ele>1167.0</ele><time>2026-04-30T09:17:27.987Z</time></trkpt><trkpt lat="44.6783883" lon="9.4397667"><ele>1167.0</ele><time>2026-04-30T09:17:28.988Z</time></trkpt><trkpt lat="44.6783617" lon="9.43967"><ele>1167.0</ele><time>2026-04-30T09:17:29.989Z</time></trkpt><trkpt lat="44.6783317" lon="9.4395683"><ele>1167.0</ele><time>2026-04-30T09:17:30.988Z</time></trkpt><trkpt lat="44.6783" lon="9.4394683"><ele>1167.0</ele><time>2026-04-30T09:17:31.987Z</time></trkpt><trkpt lat="44.678255" lon="9.439355"><ele>1167.0</ele><time>2026-04-30T09:17:32.988Z</time></trkpt><trkpt lat="44.6782" lon="9.439235"><ele>1167.0</ele><time>2026-04-30T09:17:33.987Z</time></trkpt><trkpt lat="44.678135" lon="9.4391183"><ele>1165.8333333333333</ele><time>2026-04-30T09:17:34.988Z</time></trkpt><trkpt lat="44.6780667" lon="9.4390167"><ele>1164.6666666666667</ele><time>2026-04-30T09:17:35.988Z</time></trkpt><trkpt lat="44.6780083" lon="9.4389233"><ele>1163.5</ele><time>2026-04-30T09:17:36.987Z</time></trkpt><trkpt lat="44.67798" lon="9.43883"><ele>1162.3333333333335</ele><time>2026-04-30T09:17:37.987Z</time></trkpt><trkpt lat="44.677975" lon="9.4387417"><ele>1161.1666666666667</ele><time>2026-04-30T09:17:38.987Z</time></trkpt><trkpt lat="44.6779783" lon="9.4385833"><ele>1160.0</ele><time>2026-04-30T09:17:40.987Z</time></trkpt><trkpt lat="44.677965" lon="9.438475"><ele>1161.2</ele><time>2026-04-30T09:17:42.988Z</time></trkpt><trkpt lat="44.67792" lon="9.43835"><ele>1162.4</ele><time>2026-04-30T09:17:44.988Z</time></trkpt><trkpt lat="44.6778283" lon="9.4382083"><ele>1163.6</ele><time>2026-04-30T09:17:46.987Z</time></trkpt><trkpt lat="44.6777867" lon="9.4381267"><ele>1164.8</ele><time>2026-04-30T09:17:47.988Z</time></trkpt><trkpt lat="44.6777567" lon="9.4380433"><ele>1166.0</ele><time>2026-04-30T09:17:48.99Z</time></trkpt><trkpt lat="44.6777217" lon="9.4379383"><ele>1163.6666666666667</ele><time>2026-04-30T09:17:49.988Z</time></trkpt><trkpt lat="44.6776767" lon="9.43786"><ele>1161.3333333333335</ele><time>2026-04-30T09:17:50.988Z</time></trkpt><trkpt lat="44.6776217" lon="9.437815"><ele>1159.0</ele><time>2026-04-30T09:17:51.99Z</time></trkpt><trkpt lat="44.677545" lon="9.4377783"><ele>1156.6666666666667</ele><time>2026-04-30T09:17:52.987Z</time></trkpt><trkpt lat="44.6774667" lon="9.4377533"><ele>1154.3333333333333</ele><time>2026-04-30T09:17:53.99Z</time></trkpt><trkpt lat="44.6773933" lon="9.4377417"><ele>1152.0</ele><time>2026-04-30T09:17:54.99Z</time></trkpt><trkpt lat="44.6773117" lon="9.437735"><ele>1152.0</ele><time>2026-04-30T09:17:55.986Z</time></trkpt><trkpt lat="44.6772183" lon="9.4377283"><ele>1152.0</ele><time>2026-04-30T09:17:56.987Z</time></trkpt><trkpt lat="44.6771267" lon="9.43773"><ele>1152.0</ele><time>2026-04-30T09:17:57.989Z</time></trkpt><trkpt lat="44.6770433" lon="9.4377467"><ele>1152.0</ele><time>2026-04-30T09:17:58.99Z</time></trkpt><trkpt lat="44.6769717" lon="9.4377817"><ele>1152.0</ele><time>2026-04-30T09:17:59.989Z</time></trkpt><trkpt lat="44.6769133" lon="9.4378433"><ele>1152.0</ele><time>2026-04-30T09:18:00.989Z</time></trkpt><trkpt lat="44.6768617" lon="9.437915"><ele>1153.3333333333333</ele><time>2026-04-30T09:18:01.988Z</time></trkpt><trkpt lat="44.676815" lon="9.437995"><ele>1154.6666666666667</ele><time>2026-04-30T09:18:02.988Z</time></trkpt><trkpt lat="44.6767633" lon="9.4380683"><ele>1156.0</ele><time>2026-04-30T09:18:03.987Z</time></trkpt><trkpt lat="44.6767" lon="9.4381467"><ele>1157.3333333333335</ele><time>2026-04-30T09:18:04.988Z</time></trkpt><trkpt lat="44.67663" lon="9.4382483"><ele>1158.6666666666667</ele><time>2026-04-30T09:18:05.987Z</time></trkpt><trkpt lat="44.6765667" lon="9.4383483"><ele>1160.0</ele><time>2026-04-30T09:18:06.989Z</time></trkpt><trkpt lat="44.6765183" lon="9.43844"><ele>1160.0</ele><time>2026-04-30T09:18:07.989Z</time></trkpt><trkpt lat="44.6764767" lon="9.4385083"><ele>1160.0</ele><time>2026-04-30T09:18:08.989Z</time></trkpt><trkpt lat="44.6763817" lon="9.4385333"><ele>1160.0</ele><time>2026-04-30T09:18:10.988Z</time></trkpt><trkpt lat="44.6763033" lon="9.4385033"><ele>1160.0</ele><time>2026-04-30T09:18:11.989Z</time></trkpt><trkpt lat="44.67622" lon="9.4384783"><ele>1160.0</ele><time>2026-04-30T09:18:12.986Z</time></trkpt><trkpt lat="44.6761367" lon="9.4384417"><ele>1160.0</ele><time>2026-04-30T09:18:13.988Z</time></trkpt><trkpt lat="44.67606" lon="9.4383917"><ele>1158.8333333333335</ele><time>2026-04-30T09:18:14.987Z</time></trkpt><trkpt lat="44.676" lon="9.438345"><ele>1157.6666666666667</ele><time>2026-04-30T09:18:15.991Z</time></trkpt><trkpt lat="44.6759" lon="9.43827"><ele>1156.5</ele><time>2026-04-30T09:18:17.988Z</time></trkpt><trkpt lat="44.6758367" lon="9.4382633"><ele>1155.3333333333333</ele><time>2026-04-30T09:18:18.987Z</time></trkpt><trkpt lat="44.6757633" lon="9.43827"><ele>1154.1666666666665</ele><time>2026-04-30T09:18:19.989Z</time></trkpt><trkpt lat="44.6756717" lon="9.4382867"><ele>1153.0</ele><time>2026-04-30T09:18:20.989Z</time></trkpt><trkpt lat="44.6755883" lon="9.438305"><ele>1153.0</ele><time>2026-04-30T09:18:21.988Z</time></trkpt><trkpt lat="44.675515" lon="9.4383167"><ele>1153.0</ele><time>2026-04-30T09:18:22.988Z</time></trkpt><trkpt lat="44.67542" lon="9.438275"><ele>1153.0</ele><time>2026-04-30T09:18:24.99Z</time></trkpt><trkpt lat="44.6753917" lon="9.438135"><ele>1153.0</ele><time>2026-04-30T09:18:26.988Z</time></trkpt><trkpt lat="44.6754183" lon="9.4380117"><ele>1153.0</ele><time>2026-04-30T09:18:27.988Z</time></trkpt><trkpt lat="44.675455" lon="9.43788"><ele>1150.5</ele><time>2026-04-30T09:18:28.987Z</time></trkpt><trkpt lat="44.67548" lon="9.437755"><ele>1148.0</ele><time>2026-04-30T09:18:29.986Z</time></trkpt><trkpt lat="44.6754967" lon="9.4376417"><ele>1145.5</ele><time>2026-04-30T09:18:30.988Z</time></trkpt><trkpt lat="44.6754983" lon="9.4375367"><ele>1143.0</ele><time>2026-04-30T09:18:31.986Z</time></trkpt><trkpt lat="44.6754767" lon="9.4374383"><ele>1140.5</ele><time>2026-04-30T09:18:32.989Z</time></trkpt><trkpt lat="44.67542" lon="9.4373683"><ele>1138.0</ele><time>2026-04-30T09:18:33.988Z</time></trkpt><trkpt lat="44.6753517" lon="9.4373167"><ele>1137.6</ele><time>2026-04-30T09:18:34.988Z</time></trkpt><trkpt lat="44.6752683" lon="9.4372683"><ele>1137.1999999999998</ele><time>2026-04-30T09:18:35.987Z</time></trkpt><trkpt lat="44.675185" lon="9.4372083"><ele>1136.8</ele><time>2026-04-30T09:18:36.988Z</time></trkpt><trkpt lat="44.6751083" lon="9.437135"><ele>1136.3999999999999</ele><time>2026-04-30T09:18:37.988Z</time></trkpt><trkpt lat="44.6750417" lon="9.4370433"><ele>1136.0</ele><time>2026-04-30T09:18:38.988Z</time></trkpt><trkpt lat="44.6749783" lon="9.4369683"><ele>1136.0</ele><time>2026-04-30T09:18:39.987Z</time></trkpt><trkpt lat="44.67492" lon="9.4369083"><ele>1136.0</ele><time>2026-04-30T09:18:40.988Z</time></trkpt><trkpt lat="44.67486" lon="9.4368583"><ele>1136.0</ele><time>2026-04-30T09:18:41.99Z</time></trkpt><trkpt lat="44.6748017" lon="9.4368183"><ele>1136.0</ele><time>2026-04-30T09:18:42.987Z</time></trkpt><trkpt lat="44.6747067" lon="9.4367267"><ele>1136.0</ele><time>2026-04-30T09:18:44.988Z</time></trkpt><trkpt lat="44.6746683" lon="9.4366433"><ele>1136.0</ele><time>2026-04-30T09:18:45.988Z</time></trkpt><trkpt lat="44.6746433" lon="9.4365383"><ele>1136.0</ele><time>2026-04-30T09:18:46.988Z</time></trkpt><trkpt lat="44.6746133" lon="9.4364083"><ele>1136.0</ele><time>2026-04-30T09:18:47.988Z</time></trkpt><trkpt lat="44.6745767" lon="9.4362617"><ele>1136.0</ele><time>2026-04-30T09:18:48.993Z</time></trkpt><trkpt lat="44.6745517" lon="9.4361217"><ele>1136.0</ele><time>2026-04-30T09:18:49.988Z</time></trkpt><trkpt lat="44.6745417" lon="9.4359883"><ele>1136.0</ele><time>2026-04-30T09:18:50.988Z</time></trkpt><trkpt lat="44.6745367" lon="9.4358633"><ele>1134.2857142857142</ele><time>2026-04-30T09:18:51.987Z</time></trkpt><trkpt lat="44.6745303" lon="9.4357554"><ele>1132.5714285714284</ele><time>2026-04-30T09:18:52.988Z</time></trkpt><trkpt lat="44.6745195" lon="9.4356576"><ele>1130.857142857143</ele><time>2026-04-30T09:18:53.988Z</time></trkpt><trkpt lat="44.6744949" lon="9.4355632"><ele>1129.142857142857</ele><time>2026-04-30T09:18:54.989Z</time></trkpt><trkpt lat="44.6744583" lon="9.4354803"><ele>1127.4285714285716</ele><time>2026-04-30T09:18:55.987Z</time></trkpt><trkpt lat="44.6744145" lon="9.4354108"><ele>1125.7142857142858</ele><time>2026-04-30T09:18:56.987Z</time></trkpt><trkpt lat="44.6743639" lon="9.4353556"><ele>1124.0</ele><time>2026-04-30T09:18:57.988Z</time></trkpt><trkpt lat="44.674304" lon="9.4353166"><ele>1124.0000000000002</ele><time>2026-04-30T09:18:58.989Z</time></trkpt><trkpt lat="44.6742395" lon="9.4352853"><ele>1124.0</ele><time>2026-04-30T09:18:59.987Z</time></trkpt><trkpt lat="44.6741681" lon="9.4352596"><ele>1124.0</ele><time>2026-04-30T09:19:00.988Z</time></trkpt><trkpt lat="44.6740913" lon="9.4352369"><ele>1124.0</ele><time>2026-04-30T09:19:01.989Z</time></trkpt><trkpt lat="44.6740214" lon="9.4352107"><ele>1124.0</ele><time>2026-04-30T09:19:02.987Z</time></trkpt><trkpt lat="44.6739547" lon="9.4351673"><ele>1124.0000000000002</ele><time>2026-04-30T09:19:03.99Z</time></trkpt><trkpt lat="44.6738836" lon="9.4351066"><ele>1124.0</ele><time>2026-04-30T09:19:04.989Z</time></trkpt><trkpt lat="44.6738141" lon="9.4350507"><ele>1124.0000000000002</ele><time>2026-04-30T09:19:05.989Z</time></trkpt><trkpt lat="44.6737509" lon="9.4349961"><ele>1124.0</ele><time>2026-04-30T09:19:06.989Z</time></trkpt><trkpt lat="44.6736963" lon="9.4349401"><ele>1124.0</ele><time>2026-04-30T09:19:07.989Z</time></trkpt><trkpt lat="44.673649" lon="9.4348772"><ele>1124.0</ele><time>2026-04-30T09:19:08.989Z</time></trkpt><trkpt lat="44.6735943" lon="9.4348021"><ele>1124.0</ele><time>2026-04-30T09:19:09.99Z</time></trkpt><trkpt lat="44.6735361" lon="9.4347236"><ele>1124.0000000000002</ele><time>2026-04-30T09:19:10.987Z</time></trkpt><trkpt lat="44.673483" lon="9.4346557"><ele>1124.0</ele><time>2026-04-30T09:19:11.988Z</time></trkpt><trkpt lat="44.6734227" lon="9.4345947"><ele>1121.3333333333335</ele><time>2026-04-30T09:19:12.989Z</time></trkpt><trkpt lat="44.6733548" lon="9.4345386"><ele>1118.6666666666667</ele><time>2026-04-30T09:19:13.987Z</time></trkpt><trkpt lat="44.6732906" lon="9.4344929"><ele>1116.0</ele><time>2026-04-30T09:19:14.988Z</time></trkpt><trkpt lat="44.6732285" lon="9.4344511"><ele>1113.3333333333333</ele><time>2026-04-30T09:19:15.988Z</time></trkpt><trkpt lat="44.6731686" lon="9.4344019"><ele>1110.6666666666665</ele><time>2026-04-30T09:19:16.99Z</time></trkpt><trkpt lat="44.6731105" lon="9.4343595"><ele>1108.0</ele><time>2026-04-30T09:19:17.991Z</time></trkpt><trkpt lat="44.6730072" lon="9.434318"><ele>1108.0</ele><time>2026-04-30T09:19:19.989Z</time></trkpt><trkpt lat="44.6729443" lon="9.4343383"><ele>1108.0</ele><time>2026-04-30T09:19:21.99Z</time></trkpt><trkpt lat="44.6728931" lon="9.4343952"><ele>1108.0</ele><time>2026-04-30T09:19:24.987Z</time></trkpt><trkpt lat="44.6728655" lon="9.4344801"><ele>1108.0</ele><time>2026-04-30T09:19:27.989Z</time></trkpt><trkpt lat="44.672812" lon="9.4345699"><ele>1108.0</ele><time>2026-04-30T09:19:29.986Z</time></trkpt><trkpt lat="44.6727454" lon="9.4346316"><ele>1108.0</ele><time>2026-04-30T09:19:31.987Z</time></trkpt><trkpt lat="44.672656" lon="9.4346806"><ele>1109.75</ele><time>2026-04-30T09:19:33.99Z</time></trkpt><trkpt lat="44.6725421" lon="9.4347498"><ele>1111.5</ele><time>2026-04-30T09:19:35.992Z</time></trkpt><trkpt lat="44.6724385" lon="9.4348178"><ele>1113.25</ele><time>2026-04-30T09:19:37.987Z</time></trkpt><trkpt lat="44.6723517" lon="9.4348967"><ele>1115.0</ele><time>2026-04-30T09:19:39.988Z</time></trkpt><trkpt lat="44.6722533" lon="9.43498"><ele>1115.0</ele><time>2026-04-30T09:19:41.988Z</time></trkpt><trkpt lat="44.6721517" lon="9.43502"><ele>1115.0</ele><time>2026-04-30T09:19:43.987Z</time></trkpt><trkpt lat="44.6720217" lon="9.4350167"><ele>1115.0</ele><time>2026-04-30T09:19:45.988Z</time></trkpt><trkpt lat="44.6719517" lon="9.4350083"><ele>1115.0</ele><time>2026-04-30T09:19:46.987Z</time></trkpt><trkpt lat="44.671885" lon="9.4350117"><ele>1115.0</ele><time>2026-04-30T09:19:47.987Z</time></trkpt><trkpt lat="44.67182" lon="9.4350367"><ele>1115.0</ele><time>2026-04-30T09:19:48.987Z</time></trkpt><trkpt lat="44.6717617" lon="9.43509"><ele>1112.6</ele><time>2026-04-30T09:19:49.987Z</time></trkpt><trkpt lat="44.6717067" lon="9.4351483"><ele>1110.2</ele><time>2026-04-30T09:19:50.987Z</time></trkpt><trkpt lat="44.6716117" lon="9.4352467"><ele>1107.8</ele><time>2026-04-30T09:19:52.987Z</time></trkpt><trkpt lat="44.6715467" lon="9.4353333"><ele>1105.4</ele><time>2026-04-30T09:19:54.987Z</time></trkpt><trkpt lat="44.671485" lon="9.4354433"><ele>1103.0</ele><time>2026-04-30T09:19:56.987Z</time></trkpt><trkpt lat="44.6714167" lon="9.4355583"><ele>1103.0</ele><time>2026-04-30T09:19:58.989Z</time></trkpt><trkpt lat="44.67137" lon="9.435625"><ele>1103.0</ele><time>2026-04-30T09:19:59.988Z</time></trkpt><trkpt lat="44.6713183" lon="9.43569"><ele>1103.0</ele><time>2026-04-30T09:20:00.988Z</time></trkpt><trkpt lat="44.6712633" lon="9.4357583"><ele>1103.0</ele><time>2026-04-30T09:20:01.987Z</time></trkpt><trkpt lat="44.67121" lon="9.4358283"><ele>1103.0</ele><time>2026-04-30T09:20:02.989Z</time></trkpt><trkpt lat="44.6711567" lon="9.4358933"><ele>1103.0</ele><time>2026-04-30T09:20:03.987Z</time></trkpt><trkpt lat="44.671055" lon="9.4359567"><ele>1099.8333333333335</ele><time>2026-04-30T09:20:05.987Z</time></trkpt><trkpt lat="44.6709467" lon="9.4359717"><ele>1096.6666666666667</ele><time>2026-04-30T09:20:07.987Z</time></trkpt><trkpt lat="44.6708817" lon="9.4359817"><ele>1093.5</ele><time>2026-04-30T09:20:08.988Z</time></trkpt><trkpt lat="44.6708133" lon="9.4359817"><ele>1090.3333333333333</ele><time>2026-04-30T09:20:09.989Z</time></trkpt><trkpt lat="44.67075" lon="9.4359667"><ele>1087.1666666666665</ele><time>2026-04-30T09:20:10.988Z</time></trkpt><trkpt lat="44.6706367" lon="9.43594"><ele>1084.0</ele><time>2026-04-30T09:20:12.988Z</time></trkpt><trkpt lat="44.670545" lon="9.435975"><ele>1084.0</ele><time>2026-04-30T09:20:14.989Z</time></trkpt><trkpt lat="44.6704467" lon="9.4360783"><ele>1084.0</ele><time>2026-04-30T09:20:16.987Z</time></trkpt><trkpt lat="44.6703383" lon="9.43614"><ele>1084.0</ele><time>2026-04-30T09:20:18.986Z</time></trkpt><trkpt lat="44.6702" lon="9.4361267"><ele>1084.0</ele><time>2026-04-30T09:20:20.988Z</time></trkpt><trkpt lat="44.6701133" lon="9.4360967"><ele>1082.5</ele><time>2026-04-30T09:20:21.99Z</time></trkpt><trkpt lat="44.670025" lon="9.4360583"><ele>1081.0</ele><time>2026-04-30T09:20:22.988Z</time></trkpt><trkpt lat="44.669945" lon="9.4360433"><ele>1079.5</ele><time>2026-04-30T09:20:23.987Z</time></trkpt><trkpt lat="44.66987" lon="9.436055"><ele>1078.0</ele><time>2026-04-30T09:20:24.986Z</time></trkpt><trkpt lat="44.6698017" lon="9.4360967"><ele>1076.5</ele><time>2026-04-30T09:20:25.987Z</time></trkpt><trkpt lat="44.6697217" lon="9.4361583"><ele>1075.0</ele><time>2026-04-30T09:20:26.988Z</time></trkpt><trkpt lat="44.6696467" lon="9.4362367"><ele>1075.3333333333333</ele><time>2026-04-30T09:20:27.988Z</time></trkpt><trkpt lat="44.6695767" lon="9.4363167"><ele>1075.6666666666665</ele><time>2026-04-30T09:20:28.987Z</time></trkpt><trkpt lat="44.669505" lon="9.4363917"><ele>1076.0</ele><time>2026-04-30T09:20:29.988Z</time></trkpt><trkpt lat="44.6694383" lon="9.43646"><ele>1076.3333333333333</ele><time>2026-04-30T09:20:30.989Z</time></trkpt><trkpt lat="44.6693867" lon="9.4365283"><ele>1076.6666666666667</ele><time>2026-04-30T09:20:31.988Z</time></trkpt><trkpt lat="44.6693383" lon="9.4366033"><ele>1077.0</ele><time>2026-04-30T09:20:32.988Z</time></trkpt><trkpt lat="44.6693" lon="9.4366883"><ele>1077.0</ele><time>2026-04-30T09:20:33.987Z</time></trkpt><trkpt lat="44.6692533" lon="9.43678"><ele>1077.0</ele><time>2026-04-30T09:20:34.988Z</time></trkpt><trkpt lat="44.6692" lon="9.436865"><ele>1077.0</ele><time>2026-04-30T09:20:35.989Z</time></trkpt><trkpt lat="44.66916" lon="9.43695"><ele>1077.0</ele><time>2026-04-30T09:20:36.988Z</time></trkpt><trkpt lat="44.66912" lon="9.4370367"><ele>1077.0</ele><time>2026-04-30T09:20:37.988Z</time></trkpt><trkpt lat="44.66908" lon="9.43712"><ele>1077.0</ele><time>2026-04-30T09:20:38.988Z</time></trkpt><trkpt lat="44.669005" lon="9.4372417"><ele>1080.1666666666667</ele><time>2026-04-30T09:20:40.987Z</time></trkpt><trkpt lat="44.6689067" lon="9.4372633"><ele>1083.3333333333333</ele><time>2026-04-30T09:20:42.989Z</time></trkpt><trkpt lat="44.6688417" lon="9.4372617"><ele>1086.5</ele><time>2026-04-30T09:20:43.988Z</time></trkpt><trkpt lat="44.6687383" lon="9.43727"><ele>1089.6666666666665</ele><time>2026-04-30T09:20:45.987Z</time></trkpt><trkpt lat="44.668675" lon="9.4373267"><ele>1092.8333333333333</ele><time>2026-04-30T09:20:48.987Z</time></trkpt><trkpt lat="44.6687083" lon="9.4374117"><ele>1096.0</ele><time>2026-04-30T09:20:58.988Z</time></trkpt><trkpt lat="44.6687733" lon="9.4375483"><ele>1096.0</ele><time>2026-04-30T09:21:00.989Z</time></trkpt><trkpt lat="44.6688183" lon="9.4376217"><ele>1096.0</ele><time>2026-04-30T09:21:01.987Z</time></trkpt><trkpt lat="44.6688717" lon="9.4376883"><ele>1096.0</ele><time>2026-04-30T09:21:02.987Z</time></trkpt><trkpt lat="44.6689317" lon="9.4377317"><ele>1096.0</ele><time>2026-04-30T09:21:03.989Z</time></trkpt><trkpt lat="44.66899" lon="9.4377683"><ele>1096.0</ele><time>2026-04-30T09:21:04.988Z</time></trkpt><trkpt lat="44.6690783" lon="9.4377633"><ele>1096.0</ele><time>2026-04-30T09:21:06.988Z</time></trkpt><trkpt lat="44.6691633" lon="9.4378117"><ele>1096.0</ele><time>2026-04-30T09:21:09.988Z</time></trkpt><trkpt lat="44.6692117" lon="9.4378867"><ele>1096.0</ele><time>2026-04-30T09:21:11.987Z</time></trkpt><trkpt lat="44.6692767" lon="9.4379217"><ele>1096.0</ele><time>2026-04-30T09:21:13.988Z</time></trkpt><trkpt lat="44.6693567" lon="9.4379217"><ele>1096.0</ele><time>2026-04-30T09:21:15.989Z</time></trkpt><trkpt lat="44.6694433" lon="9.4379067"><ele>1096.0</ele><time>2026-04-30T09:21:17.988Z</time></trkpt><trkpt lat="44.66947" lon="9.4378067"><ele>1096.0</ele><time>2026-04-30T09:21:21.988Z</time></trkpt><trkpt lat="44.6695317" lon="9.437725"><ele>1100.3999999999999</ele><time>2026-04-30T09:21:23.988Z</time></trkpt><trkpt lat="44.669645" lon="9.4377217"><ele>1104.8</ele><time>2026-04-30T09:21:25.987Z</time></trkpt><trkpt lat="44.6697567" lon="9.43773"><ele>1109.1999999999998</ele><time>2026-04-30T09:21:27.988Z</time></trkpt><trkpt lat="44.66987" lon="9.4377183"><ele>1113.6</ele><time>2026-04-30T09:21:29.989Z</time></trkpt><trkpt lat="44.6699733" lon="9.43769"><ele>1118.0</ele><time>2026-04-30T09:21:31.989Z</time></trkpt><trkpt lat="44.67006" lon="9.4376683"><ele>1118.0</ele><time>2026-04-30T09:21:33.987Z</time></trkpt><trkpt lat="44.6701733" lon="9.4376717"><ele>1118.0</ele><time>2026-04-30T09:21:35.987Z</time></trkpt><trkpt lat="44.670275" lon="9.4376967"><ele>1118.0</ele><time>2026-04-30T09:21:37.988Z</time></trkpt><trkpt lat="44.6703683" lon="9.437755"><ele>1118.0</ele><time>2026-04-30T09:21:39.991Z</time></trkpt><trkpt lat="44.67046" lon="9.4378217"><ele>1118.0</ele><time>2026-04-30T09:21:41.989Z</time></trkpt><trkpt lat="44.670565" lon="9.437895"><ele>1118.6666666666667</ele><time>2026-04-30T09:21:43.987Z</time></trkpt><trkpt lat="44.6706667" lon="9.4379517"><ele>1119.3333333333335</ele><time>2026-04-30T09:21:45.987Z</time></trkpt><trkpt lat="44.6707533" lon="9.4380083"><ele>1120.0</ele><time>2026-04-30T09:21:47.989Z</time></trkpt><trkpt lat="44.670835" lon="9.4380767"><ele>1120.6666666666667</ele><time>2026-04-30T09:22:18.99Z</time></trkpt><trkpt lat="44.670805" lon="9.4381617"><ele>1121.3333333333333</ele><time>2026-04-30T09:22:24.99Z</time></trkpt><trkpt lat="44.670735" lon="9.43818"><ele>1122.0</ele><time>2026-04-30T09:22:27.988Z</time></trkpt><trkpt lat="44.6706567" lon="9.4382217"><ele>1125.0</ele><time>2026-04-30T09:22:30.988Z</time></trkpt><trkpt lat="44.6705883" lon="9.4382567"><ele>1128.0</ele><time>2026-04-30T09:22:33.988Z</time></trkpt><trkpt lat="44.6705833" lon="9.438355"><ele>1131.0</ele><time>2026-04-30T09:22:38.989Z</time></trkpt><trkpt lat="44.6706033" lon="9.4385117"><ele>1134.0</ele><time>2026-04-30T09:24:40.993Z</time></trkpt><trkpt lat="44.6706417" lon="9.4385983"><ele>1137.0</ele><time>2026-04-30T09:24:41.988Z</time></trkpt><trkpt lat="44.6706883" lon="9.4386783"><ele>1140.0</ele><time>2026-04-30T09:24:42.989Z</time></trkpt><trkpt lat="44.6707433" lon="9.4387417"><ele>1140.0</ele><time>2026-04-30T09:24:43.989Z</time></trkpt><trkpt lat="44.6708483" lon="9.4387917"><ele>1140.0</ele><time>2026-04-30T09:24:45.989Z</time></trkpt><trkpt lat="44.6709533" lon="9.4388017"><ele>1140.0</ele><time>2026-04-30T09:24:47.988Z</time></trkpt><trkpt lat="44.6710417" lon="9.4388417"><ele>1140.0</ele><time>2026-04-30T09:24:49.988Z</time></trkpt><trkpt lat="44.6710817" lon="9.4389567"><ele>1140.0</ele><time>2026-04-30T09:24:51.992Z</time></trkpt><trkpt lat="44.671105" lon="9.4390433"><ele>1142.1666666666667</ele><time>2026-04-30T09:24:52.991Z</time></trkpt><trkpt lat="44.6711283" lon="9.4391283"><ele>1144.3333333333333</ele><time>2026-04-30T09:24:53.988Z</time></trkpt><trkpt lat="44.6711483" lon="9.4392167"><ele>1146.5</ele><time>2026-04-30T09:24:54.987Z</time></trkpt><trkpt lat="44.6711733" lon="9.43931"><ele>1148.6666666666665</ele><time>2026-04-30T09:24:55.988Z</time></trkpt><trkpt lat="44.671215" lon="9.43945"><ele>1150.8333333333333</ele><time>2026-04-30T09:24:57.987Z</time></trkpt><trkpt lat="44.67124" lon="9.439595"><ele>1153.0</ele><time>2026-04-30T09:24:59.99Z</time></trkpt><trkpt lat="44.6712533" lon="9.4397467"><ele>1155.4</ele><time>2026-04-30T09:25:01.989Z</time></trkpt><trkpt lat="44.671265" lon="9.4398933"><ele>1157.8</ele><time>2026-04-30T09:25:03.987Z</time></trkpt><trkpt lat="44.6712867" lon="9.4400333"><ele>1160.2</ele><time>2026-04-30T09:25:05.987Z</time></trkpt><trkpt lat="44.6713317" lon="9.4401317"><ele>1162.6</ele><time>2026-04-30T09:25:07.988Z</time></trkpt><trkpt lat="44.67139" lon="9.4402183"><ele>1165.0</ele><time>2026-04-30T09:25:09.988Z</time></trkpt><trkpt lat="44.6714233" lon="9.4403483"><ele>1167.6</ele><time>2026-04-30T09:25:11.987Z</time></trkpt><trkpt lat="44.671455" lon="9.4405083"><ele>1170.2</ele><time>2026-04-30T09:25:13.993Z</time></trkpt><trkpt lat="44.6715067" lon="9.4406417"><ele>1172.8</ele><time>2026-04-30T09:25:15.988Z</time></trkpt><trkpt lat="44.67158" lon="9.4407217"><ele>1175.4</ele><time>2026-04-30T09:25:17.99Z</time></trkpt><trkpt lat="44.6716383" lon="9.4408017"><ele>1178.0</ele><time>2026-04-30T09:25:19.989Z</time></trkpt><trkpt lat="44.6716233" lon="9.4409217"><ele>1178.0</ele><time>2026-04-30T09:25:22.99Z</time></trkpt><trkpt lat="44.67159" lon="9.4410083"><ele>1178.0</ele><time>2026-04-30T09:25:24.988Z</time></trkpt><trkpt lat="44.6715533" lon="9.4411033"><ele>1178.0</ele><time>2026-04-30T09:25:26.987Z</time></trkpt><trkpt lat="44.6714829" lon="9.4411989"><ele>1178.0</ele><time>2026-04-30T09:25:28.987Z</time></trkpt><trkpt lat="44.6714854" lon="9.4413245"><ele>1178.0</ele><time>2026-04-30T09:25:30.988Z</time></trkpt><trkpt lat="44.6715059" lon="9.4414393"><ele>1178.0</ele><time>2026-04-30T09:25:33.016Z</time></trkpt><trkpt lat="44.6715159" lon="9.4415384"><ele>1180.0</ele><time>2026-04-30T09:25:34.992Z</time></trkpt><trkpt lat="44.6715316" lon="9.4416423"><ele>1182.0</ele><time>2026-04-30T09:25:37.918Z</time></trkpt><trkpt lat="44.6715071" lon="9.4417244"><ele>1184.0</ele><time>2026-04-30T09:25:44.04Z</time></trkpt><trkpt lat="44.6714928" lon="9.4418632"><ele>1186.0</ele><time>2026-04-30T09:26:20.988Z</time></trkpt><trkpt lat="44.6715122" lon="9.4419538"><ele>1188.0</ele><time>2026-04-30T09:26:22.988Z</time></trkpt><trkpt lat="44.6715167" lon="9.4420571"><ele>1190.0</ele><time>2026-04-30T09:26:24.987Z</time></trkpt><trkpt lat="44.6714915" lon="9.4421799"><ele>1192.8</ele><time>2026-04-30T09:26:26.988Z</time></trkpt><trkpt lat="44.6714304" lon="9.442331"><ele>1195.6</ele><time>2026-04-30T09:26:28.989Z</time></trkpt><trkpt lat="44.671374" lon="9.4424669"><ele>1198.4</ele><time>2026-04-30T09:26:30.992Z</time></trkpt><trkpt lat="44.6713383" lon="9.4425838"><ele>1201.2</ele><time>2026-04-30T09:26:32.987Z</time></trkpt><trkpt lat="44.6713076" lon="9.4426636"><ele>1204.0</ele><time>2026-04-30T09:26:34.988Z</time></trkpt><trkpt lat="44.671293" lon="9.4427838"><ele>1204.0</ele><time>2026-04-30T09:26:37.987Z</time></trkpt><trkpt lat="44.6712161" lon="9.4428215"><ele>1204.0</ele><time>2026-04-30T09:26:40.987Z</time></trkpt><trkpt lat="44.6711428" lon="9.4427873"><ele>1204.0</ele><time>2026-04-30T09:26:42.987Z</time></trkpt><trkpt lat="44.6710681" lon="9.4427432"><ele>1204.0</ele><time>2026-04-30T09:26:44.988Z</time></trkpt><trkpt lat="44.6709884" lon="9.4427178"><ele>1204.0</ele><time>2026-04-30T09:26:46.991Z</time></trkpt><trkpt lat="44.6708884" lon="9.4427241"><ele>1204.0</ele><time>2026-04-30T09:26:48.991Z</time></trkpt><trkpt lat="44.6707925" lon="9.4427213"><ele>1201.1666666666665</ele><time>2026-04-30T09:26:50.987Z</time></trkpt><trkpt lat="44.6706886" lon="9.4427057"><ele>1198.3333333333333</ele><time>2026-04-30T09:26:52.989Z</time></trkpt><trkpt lat="44.6705904" lon="9.4426964"><ele>1195.5</ele><time>2026-04-30T09:26:54.989Z</time></trkpt><trkpt lat="44.6705269" lon="9.4426908"><ele>1192.6666666666667</ele><time>2026-04-30T09:26:57.988Z</time></trkpt><trkpt lat="44.6704439" lon="9.4426683"><ele>1189.8333333333335</ele><time>2026-04-30T09:27:19.99Z</time></trkpt><trkpt lat="44.6703614" lon="9.4426484"><ele>1187.0</ele><time>2026-04-30T09:27:21.989Z</time></trkpt><trkpt lat="44.6702721" lon="9.4425888"><ele>1187.4</ele><time>2026-04-30T09:27:23.988Z</time></trkpt><trkpt lat="44.6701746" lon="9.442589"><ele>1187.8000000000002</ele><time>2026-04-30T09:27:25.989Z</time></trkpt><trkpt lat="44.6700995" lon="9.4426716"><ele>1188.2</ele><time>2026-04-30T09:27:27.989Z</time></trkpt><trkpt lat="44.6700781" lon="9.4428094"><ele>1188.6000000000001</ele><time>2026-04-30T09:27:29.988Z</time></trkpt><trkpt lat="44.6700714" lon="9.4429501"><ele>1189.0</ele><time>2026-04-30T09:27:31.988Z</time></trkpt><trkpt lat="44.6700629" lon="9.4430748"><ele>1189.0</ele><time>2026-04-30T09:27:33.99Z</time></trkpt><trkpt lat="44.6700461" lon="9.443184"><ele>1189.0</ele><time>2026-04-30T09:27:35.987Z</time></trkpt><trkpt lat="44.6700234" lon="9.4432997"><ele>1189.0</ele><time>2026-04-30T09:27:37.989Z</time></trkpt><trkpt lat="44.6700039" lon="9.4434363"><ele>1189.0</ele><time>2026-04-30T09:27:39.99Z</time></trkpt><trkpt lat="44.6699747" lon="9.4435785"><ele>1189.0</ele><time>2026-04-30T09:27:41.988Z</time></trkpt><trkpt lat="44.6699356" lon="9.4437389"><ele>1189.0</ele><time>2026-04-30T09:27:43.987Z</time></trkpt><trkpt lat="44.6699154" lon="9.4438293"><ele>1189.0</ele><time>2026-04-30T09:27:44.988Z</time></trkpt><trkpt lat="44.6698912" lon="9.443916"><ele>1189.0</ele><time>2026-04-30T09:27:45.989Z</time></trkpt><trkpt lat="44.6698672" lon="9.4440044"><ele>1189.0</ele><time>2026-04-30T09:27:46.987Z</time></trkpt><trkpt lat="44.6698407" lon="9.4440936"><ele>1189.0</ele><time>2026-04-30T09:27:47.987Z</time></trkpt><trkpt lat="44.6697845" lon="9.444224"><ele>1189.0</ele><time>2026-04-30T09:27:49.989Z</time></trkpt><trkpt lat="44.6697223" lon="9.4443206"><ele>1189.0</ele><time>2026-04-30T09:27:51.989Z</time></trkpt><trkpt lat="44.669684" lon="9.4444232"><ele>1189.0</ele><time>2026-04-30T09:27:53.987Z</time></trkpt><trkpt lat="44.6696496" lon="9.4445388"><ele>1189.0</ele><time>2026-04-30T09:27:55.988Z</time></trkpt><trkpt lat="44.6695987" lon="9.4446466"><ele>1189.0</ele><time>2026-04-30T09:27:57.989Z</time></trkpt><trkpt lat="44.6695438" lon="9.4447481"><ele>1189.0</ele><time>2026-04-30T09:27:59.989Z</time></trkpt><trkpt lat="44.6695117" lon="9.4448429"><ele>1189.0</ele><time>2026-04-30T09:28:01.988Z</time></trkpt><trkpt lat="44.6695012" lon="9.4449544"><ele>1189.4</ele><time>2026-04-30T09:28:04.989Z</time></trkpt><trkpt lat="44.6694781" lon="9.4450691"><ele>1189.8000000000002</ele><time>2026-04-30T09:28:08.916Z</time></trkpt><trkpt lat="44.6694245" lon="9.4451488"><ele>1190.1999999999998</ele><time>2026-04-30T09:28:10.891Z</time></trkpt><trkpt lat="44.6693342" lon="9.4452238"><ele>1190.6</ele><time>2026-04-30T09:28:12.989Z</time></trkpt><trkpt lat="44.6692293" lon="9.445266"><ele>1191.0</ele><time>2026-04-30T09:28:14.988Z</time></trkpt><trkpt lat="44.6691337" lon="9.4452976"><ele>1189.6</ele><time>2026-04-30T09:28:16.988Z</time></trkpt><trkpt lat="44.6690261" lon="9.4453737"><ele>1188.1999999999998</ele><time>2026-04-30T09:28:18.988Z</time></trkpt><trkpt lat="44.6689773" lon="9.445431"><ele>1186.8000000000002</ele><time>2026-04-30T09:28:19.987Z</time></trkpt><trkpt lat="44.6688948" lon="9.445529"><ele>1185.4</ele><time>2026-04-30T09:28:21.987Z</time></trkpt><trkpt lat="44.6688375" lon="9.4456304"><ele>1184.0</ele><time>2026-04-30T09:28:23.989Z</time></trkpt><trkpt lat="44.668772" lon="9.445747"><ele>1184.0</ele><time>2026-04-30T09:28:25.988Z</time></trkpt><trkpt lat="44.6686995" lon="9.4458522"><ele>1184.0</ele><time>2026-04-30T09:28:27.989Z</time></trkpt><trkpt lat="44.6686085" lon="9.4459479"><ele>1184.0</ele><time>2026-04-30T09:28:29.988Z</time></trkpt><trkpt lat="44.6685322" lon="9.4460268"><ele>1184.0</ele><time>2026-04-30T09:28:31.988Z</time></trkpt><trkpt lat="44.6684914" lon="9.4461115"><ele>1184.0</ele><time>2026-04-30T09:28:33.99Z</time></trkpt><trkpt lat="44.668458" lon="9.446233"><ele>1183.4</ele><time>2026-04-30T09:28:35.99Z</time></trkpt><trkpt lat="44.6684089" lon="9.4463804"><ele>1182.8000000000002</ele><time>2026-04-30T09:28:37.99Z</time></trkpt><trkpt lat="44.668361" lon="9.4464689"><ele>1182.1999999999998</ele><time>2026-04-30T09:28:39.989Z</time></trkpt><trkpt lat="44.6682891" lon="9.4465309"><ele>1181.6</ele><time>2026-04-30T09:28:41.988Z</time></trkpt><trkpt lat="44.6682076" lon="9.4465856"><ele>1181.0</ele><time>2026-04-30T09:28:43.988Z</time></trkpt><trkpt lat="44.6681158" lon="9.4466393"><ele>1181.0</ele><time>2026-04-30T09:28:45.987Z</time></trkpt><trkpt lat="44.6680126" lon="9.446685"><ele>1181.0</ele><time>2026-04-30T09:28:47.991Z</time></trkpt><trkpt lat="44.6679311" lon="9.4467477"><ele>1181.0</ele><time>2026-04-30T09:28:49.99Z</time></trkpt><trkpt lat="44.6678637" lon="9.4468118"><ele>1181.0</ele><time>2026-04-30T09:28:51.989Z</time></trkpt><trkpt lat="44.6677803" lon="9.4468452"><ele>1181.0</ele><time>2026-04-30T09:28:53.989Z</time></trkpt><trkpt lat="44.667675" lon="9.4468814"><ele>1180.0</ele><time>2026-04-30T09:28:55.991Z</time></trkpt><trkpt lat="44.6675697" lon="9.4469281"><ele>1179.0</ele><time>2026-04-30T09:28:57.99Z</time></trkpt><trkpt lat="44.6674716" lon="9.4469734"><ele>1178.0</ele><time>2026-04-30T09:28:59.989Z</time></trkpt><trkpt lat="44.6673681" lon="9.4470279"><ele>1177.0</ele><time>2026-04-30T09:29:01.988Z</time></trkpt><trkpt lat="44.6672752" lon="9.4470624"><ele>1176.0</ele><time>2026-04-30T09:29:03.989Z</time></trkpt><trkpt lat="44.6671882" lon="9.4470776"><ele>1176.0</ele><time>2026-04-30T09:29:05.987Z</time></trkpt><trkpt lat="44.6671177" lon="9.4470777"><ele>1176.0</ele><time>2026-04-30T09:29:26.988Z</time></trkpt><trkpt lat="44.667005" lon="9.4470433"><ele>1176.0</ele><time>2026-04-30T09:29:28.987Z</time></trkpt><trkpt lat="44.6668978" lon="9.446965"><ele>1176.0</ele><time>2026-04-30T09:29:30.988Z</time></trkpt><trkpt lat="44.6667907" lon="9.4468906"><ele>1176.0</ele><time>2026-04-30T09:29:32.989Z</time></trkpt><trkpt lat="44.6666639" lon="9.4468624"><ele>1175.6666666666667</ele><time>2026-04-30T09:29:34.989Z</time></trkpt><trkpt lat="44.6665993" lon="9.4468593"><ele>1175.3333333333333</ele><time>2026-04-30T09:29:35.988Z</time></trkpt><trkpt lat="44.6665044" lon="9.4468814"><ele>1175.0</ele><time>2026-04-30T09:29:37.986Z</time></trkpt><trkpt lat="44.6664625" lon="9.446981"><ele>1174.6666666666665</ele><time>2026-04-30T09:29:39.99Z</time></trkpt><trkpt lat="44.666445" lon="9.4471137"><ele>1174.3333333333333</ele><time>2026-04-30T09:29:41.986Z</time></trkpt><trkpt lat="44.6664472" lon="9.447264"><ele>1174.0</ele><time>2026-04-30T09:29:43.986Z</time></trkpt><trkpt lat="44.6664454" lon="9.4473534"><ele>1175.0</ele><time>2026-04-30T09:29:44.987Z</time></trkpt><trkpt lat="44.666448" lon="9.447452"><ele>1176.0</ele><time>2026-04-30T09:29:45.986Z</time></trkpt><trkpt lat="44.66645" lon="9.4475567"><ele>1177.0</ele><time>2026-04-30T09:29:46.986Z</time></trkpt><trkpt lat="44.6664583" lon="9.44772"><ele>1178.0</ele><time>2026-04-30T09:29:48.989Z</time></trkpt><trkpt lat="44.6664783" lon="9.4478667"><ele>1179.0</ele><time>2026-04-30T09:29:50.988Z</time></trkpt><trkpt lat="44.6665" lon="9.4480167"><ele>1179.0</ele><time>2026-04-30T09:29:52.989Z</time></trkpt><trkpt lat="44.6665083" lon="9.44812"><ele>1179.0</ele><time>2026-04-30T09:29:54.989Z</time></trkpt><trkpt lat="44.6664733" lon="9.4482317"><ele>1179.0</ele><time>2026-04-30T09:30:02.988Z</time></trkpt><trkpt lat="44.6664283" lon="9.4483083"><ele>1179.0</ele><time>2026-04-30T09:30:04.988Z</time></trkpt><trkpt lat="44.6663967" lon="9.4484"><ele>1179.0</ele><time>2026-04-30T09:30:06.987Z</time></trkpt><trkpt lat="44.6663983" lon="9.448525"><ele>1179.0</ele><time>2026-04-30T09:30:09.988Z</time></trkpt><trkpt lat="44.6664233" lon="9.44863"><ele>1179.0</ele><time>2026-04-30T09:30:11.987Z</time></trkpt><trkpt lat="44.666474" lon="9.4487692"><ele>1179.0</ele><time>2026-04-30T09:30:15.988Z</time></trkpt><trkpt lat="44.6663981" lon="9.4488124"><ele>1179.0</ele><time>2026-04-30T09:30:18.996Z</time></trkpt><trkpt lat="44.666341" lon="9.4489038"><ele>1179.0</ele><time>2026-04-30T09:30:23.053Z</time></trkpt><trkpt lat="44.666292" lon="9.4490397"><ele>1179.0</ele><time>2026-04-30T09:30:24.987Z</time></trkpt><trkpt lat="44.6662321" lon="9.4491104"><ele>1179.6666666666667</ele><time>2026-04-30T09:30:25.986Z</time></trkpt><trkpt lat="44.6661812" lon="9.4491776"><ele>1180.3333333333333</ele><time>2026-04-30T09:30:26.988Z</time></trkpt><trkpt lat="44.6661136" lon="9.4492714"><ele>1181.0</ele><time>2026-04-30T09:30:28.986Z</time></trkpt><trkpt lat="44.6660591" lon="9.4493455"><ele>1181.6666666666665</ele><time>2026-04-30T09:30:30.987Z</time></trkpt><trkpt lat="44.666002" lon="9.4494471"><ele>1182.3333333333333</ele><time>2026-04-30T09:30:32.988Z</time></trkpt><trkpt lat="44.6659615" lon="9.4495644"><ele>1183.0</ele><time>2026-04-30T09:30:34.987Z</time></trkpt><trkpt lat="44.6659318" lon="9.4496908"><ele>1178.6666666666665</ele><time>2026-04-30T09:30:36.988Z</time></trkpt><trkpt lat="44.6659074" lon="9.4498517"><ele>1174.3333333333333</ele><time>2026-04-30T09:30:38.988Z</time></trkpt><trkpt lat="44.6658924" lon="9.4499529"><ele>1170.0</ele><time>2026-04-30T09:30:40.987Z</time></trkpt><trkpt lat="44.6658473" lon="9.4500254"><ele>1165.6666666666667</ele><time>2026-04-30T09:31:13.987Z</time></trkpt><trkpt lat="44.6657986" lon="9.4501108"><ele>1161.3333333333335</ele><time>2026-04-30T09:31:15.989Z</time></trkpt><trkpt lat="44.6657203" lon="9.4501831"><ele>1157.0</ele><time>2026-04-30T09:31:17.988Z</time></trkpt><trkpt lat="44.6656189" lon="9.4502484"><ele>1157.0</ele><time>2026-04-30T09:31:19.988Z</time></trkpt><trkpt lat="44.6655344" lon="9.4503273"><ele>1157.0</ele><time>2026-04-30T09:31:21.987Z</time></trkpt><trkpt lat="44.6654401" lon="9.4504199"><ele>1157.0</ele><time>2026-04-30T09:31:23.987Z</time></trkpt><trkpt lat="44.6653605" lon="9.4505005"><ele>1157.0</ele><time>2026-04-30T09:31:25.994Z</time></trkpt><trkpt lat="44.6652913" lon="9.4505504"><ele>1157.0</ele><time>2026-04-30T09:31:27.987Z</time></trkpt><trkpt lat="44.665215" lon="9.450595"><ele>1152.0</ele><time>2026-04-30T09:31:29.988Z</time></trkpt><trkpt lat="44.6651417" lon="9.4506517"><ele>1147.0</ele><time>2026-04-30T09:31:31.987Z</time></trkpt><trkpt lat="44.66506" lon="9.45073"><ele>1142.0</ele><time>2026-04-30T09:31:33.987Z</time></trkpt><trkpt lat="44.664975" lon="9.4508217"><ele>1137.0</ele><time>2026-04-30T09:31:35.988Z</time></trkpt><trkpt lat="44.6648733" lon="9.4508967"><ele>1132.0</ele><time>2026-04-30T09:31:37.987Z</time></trkpt><trkpt lat="44.6647567" lon="9.4509383"><ele>1132.0</ele><time>2026-04-30T09:31:39.988Z</time></trkpt><trkpt lat="44.6646883" lon="9.450955"><ele>1132.0</ele><time>2026-04-30T09:31:40.988Z</time></trkpt><trkpt lat="44.66462" lon="9.450965"><ele>1132.0</ele><time>2026-04-30T09:31:41.988Z</time></trkpt><trkpt lat="44.664555" lon="9.4509817"><ele>1132.0</ele><time>2026-04-30T09:31:42.988Z</time></trkpt><trkpt lat="44.664495" lon="9.45101"><ele>1132.0</ele><time>2026-04-30T09:31:43.989Z</time></trkpt><trkpt lat="44.66438" lon="9.4510617"><ele>1132.0</ele><time>2026-04-30T09:31:45.991Z</time></trkpt><trkpt lat="44.6642767" lon="9.4510983"><ele>1131.3333333333333</ele><time>2026-04-30T09:31:47.988Z</time></trkpt><trkpt lat="44.6641833" lon="9.4511317"><ele>1130.6666666666665</ele><time>2026-04-30T09:31:49.987Z</time></trkpt><trkpt lat="44.6641617" lon="9.4512317"><ele>1130.0</ele><time>2026-04-30T09:32:03.989Z</time></trkpt><trkpt lat="44.6642133" lon="9.4513367"><ele>1129.3333333333333</ele><time>2026-04-30T09:32:05.992Z</time></trkpt><trkpt lat="44.6642967" lon="9.451455"><ele>1128.6666666666667</ele><time>2026-04-30T09:32:07.988Z</time></trkpt><trkpt lat="44.6643383" lon="9.4515233"><ele>1128.0</ele><time>2026-04-30T09:32:08.988Z</time></trkpt><trkpt lat="44.66438" lon="9.4515967"><ele>1128.0</ele><time>2026-04-30T09:32:09.987Z</time></trkpt><trkpt lat="44.6644267" lon="9.451675"><ele>1128.0</ele><time>2026-04-30T09:32:10.987Z</time></trkpt><trkpt lat="44.6644783" lon="9.4517467"><ele>1128.0</ele><time>2026-04-30T09:32:11.988Z</time></trkpt><trkpt lat="44.6645283" lon="9.4518183"><ele>1128.0</ele><time>2026-04-30T09:32:12.989Z</time></trkpt><trkpt lat="44.6645683" lon="9.4518917"><ele>1128.0</ele><time>2026-04-30T09:32:13.987Z</time></trkpt><trkpt lat="44.664615" lon="9.45209"><ele>1128.0</ele><time>2026-04-30T09:32:15.989Z</time></trkpt><trkpt lat="44.66464" lon="9.452205"><ele>1125.8333333333333</ele><time>2026-04-30T09:32:16.986Z</time></trkpt><trkpt lat="44.6646633" lon="9.4523167"><ele>1123.6666666666667</ele><time>2026-04-30T09:32:17.986Z</time></trkpt><trkpt lat="44.6646883" lon="9.452425"><ele>1121.5</ele><time>2026-04-30T09:32:18.988Z</time></trkpt><trkpt lat="44.664705" lon="9.4525267"><ele>1119.3333333333335</ele><time>2026-04-30T09:32:19.987Z</time></trkpt><trkpt lat="44.6647183" lon="9.452635"><ele>1117.1666666666667</ele><time>2026-04-30T09:32:20.995Z</time></trkpt><trkpt lat="44.664735" lon="9.4527417"><ele>1115.0</ele><time>2026-04-30T09:32:21.987Z</time></trkpt><trkpt lat="44.6647617" lon="9.4528517"><ele>1114.0</ele><time>2026-04-30T09:32:22.987Z</time></trkpt><trkpt lat="44.6647933" lon="9.452965"><ele>1113.0</ele><time>2026-04-30T09:32:23.987Z</time></trkpt><trkpt lat="44.6648333" lon="9.45307"><ele>1112.0</ele><time>2026-04-30T09:32:24.986Z</time></trkpt><trkpt lat="44.6648717" lon="9.4531683"><ele>1111.0</ele><time>2026-04-30T09:32:25.988Z</time></trkpt><trkpt lat="44.6649033" lon="9.45327"><ele>1110.0</ele><time>2026-04-30T09:32:26.989Z</time></trkpt><trkpt lat="44.664925" lon="9.453375"><ele>1109.0</ele><time>2026-04-30T09:32:27.99Z</time></trkpt><trkpt lat="44.6649433" lon="9.4535017"><ele>1109.0</ele><time>2026-04-30T09:32:28.988Z</time></trkpt><trkpt lat="44.6649633" lon="9.4536367"><ele>1109.0</ele><time>2026-04-30T09:32:29.988Z</time></trkpt><trkpt lat="44.66498" lon="9.453765"><ele>1109.0</ele><time>2026-04-30T09:32:30.988Z</time></trkpt><trkpt lat="44.6650033" lon="9.4538867"><ele>1109.0</ele><time>2026-04-30T09:32:31.988Z</time></trkpt><trkpt lat="44.665025" lon="9.453995"><ele>1109.0</ele><time>2026-04-30T09:32:32.987Z</time></trkpt><trkpt lat="44.6650567" lon="9.454085"><ele>1109.0</ele><time>2026-04-30T09:32:33.99Z</time></trkpt><trkpt lat="44.665105" lon="9.4541583"><ele>1108.8</ele><time>2026-04-30T09:32:34.987Z</time></trkpt><trkpt lat="44.6651633" lon="9.4542217"><ele>1108.6000000000001</ele><time>2026-04-30T09:32:35.987Z</time></trkpt><trkpt lat="44.665225" lon="9.4542667"><ele>1108.4</ele><time>2026-04-30T09:32:36.987Z</time></trkpt><trkpt lat="44.66533" lon="9.4543117"><ele>1108.2</ele><time>2026-04-30T09:32:38.988Z</time></trkpt><trkpt lat="44.665395" lon="9.4544117"><ele>1108.0</ele><time>2026-04-30T09:32:40.988Z</time></trkpt><trkpt lat="44.665435" lon="9.4545583"><ele>1104.6</ele><time>2026-04-30T09:32:42.987Z</time></trkpt><trkpt lat="44.6654867" lon="9.4546817"><ele>1101.1999999999998</ele><time>2026-04-30T09:32:44.988Z</time></trkpt><trkpt lat="44.6655317" lon="9.4548467"><ele>1097.8</ele><time>2026-04-30T09:32:46.987Z</time></trkpt><trkpt lat="44.6655567" lon="9.454945"><ele>1094.3999999999999</ele><time>2026-04-30T09:32:47.986Z</time></trkpt><trkpt lat="44.6655717" lon="9.45506"><ele>1091.0</ele><time>2026-04-30T09:32:48.991Z</time></trkpt><trkpt lat="44.665595" lon="9.45517"><ele>1091.0</ele><time>2026-04-30T09:32:49.989Z</time></trkpt><trkpt lat="44.6656233" lon="9.455255"><ele>1091.0</ele><time>2026-04-30T09:32:50.994Z</time></trkpt><trkpt lat="44.6656617" lon="9.4553317"><ele>1091.0</ele><time>2026-04-30T09:32:51.987Z</time></trkpt><trkpt lat="44.6657017" lon="9.4554033"><ele>1091.0</ele><time>2026-04-30T09:32:52.986Z</time></trkpt><trkpt lat="44.665735" lon="9.45555"><ele>1091.0</ele><time>2026-04-30T09:32:54.987Z</time></trkpt><trkpt lat="44.66569" lon="9.4556967"><ele>1091.0</ele><time>2026-04-30T09:32:56.988Z</time></trkpt><trkpt lat="44.6656283" lon="9.45583"><ele>1089.2857142857142</ele><time>2026-04-30T09:32:58.988Z</time></trkpt><trkpt lat="44.6656067" lon="9.4559167"><ele>1087.5714285714287</ele><time>2026-04-30T09:32:59.988Z</time></trkpt><trkpt lat="44.6655867" lon="9.4560167"><ele>1085.857142857143</ele><time>2026-04-30T09:33:00.987Z</time></trkpt><trkpt lat="44.6655717" lon="9.45613"><ele>1084.142857142857</ele><time>2026-04-30T09:33:01.989Z</time></trkpt><trkpt lat="44.6655617" lon="9.4562383"><ele>1082.4285714285713</ele><time>2026-04-30T09:33:02.99Z</time></trkpt><trkpt lat="44.6655533" lon="9.456345"><ele>1080.7142857142858</ele><time>2026-04-30T09:33:03.989Z</time></trkpt><trkpt lat="44.66555" lon="9.4564483"><ele>1079.0</ele><time>2026-04-30T09:33:04.989Z</time></trkpt><trkpt lat="44.665555" lon="9.456555"><ele>1077.6666666666667</ele><time>2026-04-30T09:33:05.989Z</time></trkpt><trkpt lat="44.6655683" lon="9.4566683"><ele>1076.3333333333335</ele><time>2026-04-30T09:33:06.988Z</time></trkpt><trkpt lat="44.6655817" lon="9.456785"><ele>1075.0</ele><time>2026-04-30T09:33:07.988Z</time></trkpt><trkpt lat="44.665585" lon="9.4569083"><ele>1073.6666666666667</ele><time>2026-04-30T09:33:08.987Z</time></trkpt><trkpt lat="44.66558" lon="9.457035"><ele>1072.3333333333333</ele><time>2026-04-30T09:33:09.988Z</time></trkpt><trkpt lat="44.6655767" lon="9.4571317"><ele>1071.0</ele><time>2026-04-30T09:33:10.987Z</time></trkpt><trkpt lat="44.6655633" lon="9.4572933"><ele>1069.8</ele><time>2026-04-30T09:33:12.987Z</time></trkpt><trkpt lat="44.66554" lon="9.4574533"><ele>1068.6</ele><time>2026-04-30T09:33:14.987Z</time></trkpt><trkpt lat="44.6655283" lon="9.457615"><ele>1067.4</ele><time>2026-04-30T09:33:16.987Z</time></trkpt><trkpt lat="44.6655333" lon="9.4577783"><ele>1066.2</ele><time>2026-04-30T09:33:18.987Z</time></trkpt><trkpt lat="44.6655283" lon="9.4578733"><ele>1065.0</ele><time>2026-04-30T09:33:19.989Z</time></trkpt><trkpt lat="44.665515" lon="9.45797"><ele>1063.4285714285716</ele><time>2026-04-30T09:33:20.988Z</time></trkpt><trkpt lat="44.6654917" lon="9.4580567"><ele>1061.857142857143</ele><time>2026-04-30T09:33:21.988Z</time></trkpt><trkpt lat="44.6654667" lon="9.4581417"><ele>1060.2857142857142</ele><time>2026-04-30T09:33:22.987Z</time></trkpt><trkpt lat="44.6654367" lon="9.4582317"><ele>1058.7142857142858</ele><time>2026-04-30T09:33:23.991Z</time></trkpt><trkpt lat="44.6654033" lon="9.4583233"><ele>1057.142857142857</ele><time>2026-04-30T09:33:24.986Z</time></trkpt><trkpt lat="44.6653667" lon="9.4584133"><ele>1055.5714285714287</ele><time>2026-04-30T09:33:25.988Z</time></trkpt><trkpt lat="44.6653383" lon="9.4585017"><ele>1054.0</ele><time>2026-04-30T09:33:26.987Z</time></trkpt><trkpt lat="44.665305" lon="9.4585867"><ele>1052.6000000000001</ele><time>2026-04-30T09:33:27.989Z</time></trkpt><trkpt lat="44.6652683" lon="9.458745"><ele>1051.2</ele><time>2026-04-30T09:33:29.991Z</time></trkpt><trkpt lat="44.6652717" lon="9.458905"><ele>1049.8000000000002</ele><time>2026-04-30T09:33:31.989Z</time></trkpt><trkpt lat="44.6652933" lon="9.459025"><ele>1048.4</ele><time>2026-04-30T09:33:33.989Z</time></trkpt><trkpt lat="44.66535" lon="9.4590917"><ele>1047.0</ele><time>2026-04-30T09:33:35.988Z</time></trkpt><trkpt lat="44.66544" lon="9.4591133"><ele>1047.0</ele><time>2026-04-30T09:33:37.99Z</time></trkpt><trkpt lat="44.6655133" lon="9.4591667"><ele>1047.0</ele><time>2026-04-30T09:33:39.987Z</time></trkpt><trkpt lat="44.6655383" lon="9.45929"><ele>1047.0</ele><time>2026-04-30T09:33:41.986Z</time></trkpt><trkpt lat="44.6655383" lon="9.4594067"><ele>1047.0</ele><time>2026-04-30T09:33:43.987Z</time></trkpt><trkpt lat="44.6655383" lon="9.4595167"><ele>1047.0</ele><time>2026-04-30T09:33:45.99Z</time></trkpt><trkpt lat="44.6655533" lon="9.4596183"><ele>1047.0</ele><time>2026-04-30T09:33:47.988Z</time></trkpt><trkpt lat="44.6655633" lon="9.4597467"><ele>1046.6</ele><time>2026-04-30T09:33:49.987Z</time></trkpt><trkpt lat="44.66556" lon="9.4598917"><ele>1046.2</ele><time>2026-04-30T09:33:51.989Z</time></trkpt><trkpt lat="44.66556" lon="9.4600383"><ele>1045.8</ele><time>2026-04-30T09:33:53.988Z</time></trkpt><trkpt lat="44.6655767" lon="9.4601933"><ele>1045.4</ele><time>2026-04-30T09:33:55.987Z</time></trkpt><trkpt lat="44.665575" lon="9.4603217"><ele>1045.0</ele><time>2026-04-30T09:33:57.987Z</time></trkpt><trkpt lat="44.6655633" lon="9.4604617"><ele>1044.1666666666665</ele><time>2026-04-30T09:33:59.987Z</time></trkpt><trkpt lat="44.6655317" lon="9.4606133"><ele>1043.3333333333333</ele><time>2026-04-30T09:34:01.986Z</time></trkpt><trkpt lat="44.6655133" lon="9.460725"><ele>1042.5</ele><time>2026-04-30T09:34:03.987Z</time></trkpt><trkpt lat="44.6655083" lon="9.4608183"><ele>1041.6666666666667</ele><time>2026-04-30T09:34:05.988Z</time></trkpt><trkpt lat="44.66554" lon="9.46092"><ele>1040.8333333333335</ele><time>2026-04-30T09:34:08.99Z</time></trkpt><trkpt lat="44.665555" lon="9.4610467"><ele>1040.0</ele><time>2026-04-30T09:34:11.99Z</time></trkpt><trkpt lat="44.6655267" lon="9.46116"><ele>1038.0</ele><time>2026-04-30T09:34:13.986Z</time></trkpt><trkpt lat="44.6655167" lon="9.4612833"><ele>1036.0</ele><time>2026-04-30T09:34:15.988Z</time></trkpt><trkpt lat="44.6655917" lon="9.461385"><ele>1034.0</ele><time>2026-04-30T09:34:18.988Z</time></trkpt><trkpt lat="44.66567" lon="9.4614383"><ele>1032.0</ele><time>2026-04-30T09:34:20.987Z</time></trkpt><trkpt lat="44.6657283" lon="9.46154"><ele>1030.0</ele><time>2026-04-30T09:34:22.987Z</time></trkpt><trkpt lat="44.6657967" lon="9.46166"><ele>1030.0</ele><time>2026-04-30T09:34:24.987Z</time></trkpt><trkpt lat="44.6658783" lon="9.4617667"><ele>1030.0</ele><time>2026-04-30T09:34:26.987Z</time></trkpt><trkpt lat="44.6659633" lon="9.4618767"><ele>1030.0</ele><time>2026-04-30T09:34:28.987Z</time></trkpt><trkpt lat="44.666035" lon="9.462025"><ele>1030.0</ele><time>2026-04-30T09:34:30.988Z</time></trkpt><trkpt lat="44.6660483" lon="9.4621733"><ele>1028.1666666666665</ele><time>2026-04-30T09:34:32.987Z</time></trkpt><trkpt lat="44.66597" lon="9.4622883"><ele>1026.3333333333333</ele><time>2026-04-30T09:34:34.987Z</time></trkpt><trkpt lat="44.665905" lon="9.462315"><ele>1024.5</ele><time>2026-04-30T09:34:35.987Z</time></trkpt><trkpt lat="44.6658367" lon="9.46231"><ele>1022.6666666666667</ele><time>2026-04-30T09:34:36.987Z</time></trkpt><trkpt lat="44.6657667" lon="9.4622767"><ele>1020.8333333333334</ele><time>2026-04-30T09:34:37.987Z</time></trkpt><trkpt lat="44.6656967" lon="9.462235"><ele>1019.0</ele><time>2026-04-30T09:34:38.988Z</time></trkpt><trkpt lat="44.6656233" lon="9.462185"><ele>1019.0000000000001</ele><time>2026-04-30T09:34:39.987Z</time></trkpt><trkpt lat="44.6655517" lon="9.4621267"><ele>1019.0</ele><time>2026-04-30T09:34:40.987Z</time></trkpt><trkpt lat="44.66548" lon="9.4620617"><ele>1019.0</ele><time>2026-04-30T09:34:41.989Z</time></trkpt><trkpt lat="44.6654083" lon="9.4619883"><ele>1019.0</ele><time>2026-04-30T09:34:42.988Z</time></trkpt><trkpt lat="44.6653383" lon="9.4619183"><ele>1019.0000000000001</ele><time>2026-04-30T09:34:44.066Z</time></trkpt><trkpt lat="44.66527" lon="9.4618533"><ele>1019.0</ele><time>2026-04-30T09:34:44.988Z</time></trkpt><trkpt lat="44.6652" lon="9.4617967"><ele>1019.3333333333334</ele><time>2026-04-30T09:34:45.986Z</time></trkpt><trkpt lat="44.665125" lon="9.4617483"><ele>1019.6666666666667</ele><time>2026-04-30T09:34:46.99Z</time></trkpt><trkpt lat="44.665055" lon="9.4617133"><ele>1020.0</ele><time>2026-04-30T09:34:47.99Z</time></trkpt><trkpt lat="44.6649817" lon="9.4617067"><ele>1020.3333333333333</ele><time>2026-04-30T09:34:48.993Z</time></trkpt><trkpt lat="44.6649133" lon="9.4617167"><ele>1020.6666666666666</ele><time>2026-04-30T09:34:49.992Z</time></trkpt><trkpt lat="44.66485" lon="9.4617483"><ele>1021.0</ele><time>2026-04-30T09:34:50.991Z</time></trkpt><trkpt lat="44.664765" lon="9.46186"><ele>1021.0</ele><time>2026-04-30T09:34:52.989Z</time></trkpt><trkpt lat="44.66473" lon="9.462015"><ele>1020.9999999999999</ele><time>2026-04-30T09:34:54.989Z</time></trkpt><trkpt lat="44.664685" lon="9.4621533"><ele>1020.9999999999999</ele><time>2026-04-30T09:34:56.989Z</time></trkpt><trkpt lat="44.6646417" lon="9.4622367"><ele>1021.0</ele><time>2026-04-30T09:34:58.989Z</time></trkpt><trkpt lat="44.664545" lon="9.4622"><ele>1021.0</ele><time>2026-04-30T09:36:22.987Z</time></trkpt><trkpt lat="44.66448" lon="9.4621133"><ele>1019.4999999999999</ele><time>2026-04-30T09:36:24.989Z</time></trkpt><trkpt lat="44.6643983" lon="9.4619767"><ele>1018.0</ele><time>2026-04-30T09:36:26.987Z</time></trkpt><trkpt lat="44.664345" lon="9.4619067"><ele>1016.5</ele><time>2026-04-30T09:36:27.987Z</time></trkpt><trkpt lat="44.6642817" lon="9.4618533"><ele>1015.0</ele><time>2026-04-30T09:36:28.988Z</time></trkpt><trkpt lat="44.6642017" lon="9.4618167"><ele>1013.4999999999999</ele><time>2026-04-30T09:36:29.99Z</time></trkpt><trkpt lat="44.66412" lon="9.461795"><ele>1012.0</ele><time>2026-04-30T09:36:30.992Z</time></trkpt><trkpt lat="44.6640483" lon="9.461775"><ele>1011.9999999999999</ele><time>2026-04-30T09:36:31.989Z</time></trkpt><trkpt lat="44.6639733" lon="9.4617517"><ele>1012.0</ele><time>2026-04-30T09:36:32.989Z</time></trkpt><trkpt lat="44.6639067" lon="9.4617033"><ele>1012.0</ele><time>2026-04-30T09:36:33.988Z</time></trkpt><trkpt lat="44.6638383" lon="9.4616283"><ele>1012.0</ele><time>2026-04-30T09:36:34.99Z</time></trkpt><trkpt lat="44.66378" lon="9.4615333"><ele>1011.9999999999999</ele><time>2026-04-30T09:36:35.989Z</time></trkpt><trkpt lat="44.6637217" lon="9.4614267"><ele>1012.0</ele><time>2026-04-30T09:36:36.993Z</time></trkpt><trkpt lat="44.6636667" lon="9.4613017"><ele>1012.2</ele><time>2026-04-30T09:36:37.988Z</time></trkpt><trkpt lat="44.6636117" lon="9.4611733"><ele>1012.4000000000001</ele><time>2026-04-30T09:36:38.988Z</time></trkpt><trkpt lat="44.6635633" lon="9.4610467"><ele>1012.5999999999999</ele><time>2026-04-30T09:36:39.987Z</time></trkpt><trkpt lat="44.6635183" lon="9.4609283"><ele>1012.8</ele><time>2026-04-30T09:36:40.987Z</time></trkpt><trkpt lat="44.6634783" lon="9.4608133"><ele>1013.0</ele><time>2026-04-30T09:36:41.987Z</time></trkpt><trkpt lat="44.6634417" lon="9.4606883"><ele>1013.0000000000001</ele><time>2026-04-30T09:36:42.988Z</time></trkpt><trkpt lat="44.66341" lon="9.460555"><ele>1013.0</ele><time>2026-04-30T09:36:43.987Z</time></trkpt><trkpt lat="44.6633817" lon="9.4604317"><ele>1013.0</ele><time>2026-04-30T09:36:44.987Z</time></trkpt><trkpt lat="44.663345" lon="9.4603167"><ele>1013.0</ele><time>2026-04-30T09:36:45.987Z</time></trkpt><trkpt lat="44.6632967" lon="9.4602233"><ele>1013.0000000000001</ele><time>2026-04-30T09:36:46.988Z</time></trkpt><trkpt lat="44.6632417" lon="9.460145"><ele>1013.0</ele><time>2026-04-30T09:36:47.99Z</time></trkpt><trkpt lat="44.6631783" lon="9.4600817"><ele>1013.8333333333334</ele><time>2026-04-30T09:36:48.989Z</time></trkpt><trkpt lat="44.663115" lon="9.4600283"><ele>1014.6666666666667</ele><time>2026-04-30T09:36:49.99Z</time></trkpt><trkpt lat="44.66304" lon="9.459985"><ele>1015.5</ele><time>2026-04-30T09:36:50.989Z</time></trkpt><trkpt lat="44.6629567" lon="9.4599567"><ele>1016.3333333333333</ele><time>2026-04-30T09:36:51.989Z</time></trkpt><trkpt lat="44.6628533" lon="9.4599433"><ele>1017.1666666666666</ele><time>2026-04-30T09:36:52.988Z</time></trkpt><trkpt lat="44.66276" lon="9.45996"><ele>1018.0</ele><time>2026-04-30T09:36:53.988Z</time></trkpt><trkpt lat="44.6626633" lon="9.4599733"><ele>1016.3333333333333</ele><time>2026-04-30T09:36:54.988Z</time></trkpt><trkpt lat="44.6625717" lon="9.4599817"><ele>1014.6666666666666</ele><time>2026-04-30T09:36:55.988Z</time></trkpt><trkpt lat="44.6624883" lon="9.45999"><ele>1013.0</ele><time>2026-04-30T09:36:56.988Z</time></trkpt><trkpt lat="44.6624183" lon="9.4600017"><ele>1011.3333333333333</ele><time>2026-04-30T09:36:57.989Z</time></trkpt><trkpt lat="44.662315" lon="9.45999"><ele>1009.6666666666666</ele><time>2026-04-30T09:36:59.987Z</time></trkpt><trkpt lat="44.6622817" lon="9.4598933"><ele>1008.0</ele><time>2026-04-30T09:37:01.99Z</time></trkpt><trkpt lat="44.6622967" lon="9.4597167"><ele>1008.4</ele><time>2026-04-30T09:37:03.988Z</time></trkpt><trkpt lat="44.6623133" lon="9.4596017"><ele>1008.8</ele><time>2026-04-30T09:37:04.988Z</time></trkpt><trkpt lat="44.6623333" lon="9.4594667"><ele>1009.2</ele><time>2026-04-30T09:37:05.989Z</time></trkpt><trkpt lat="44.66235" lon="9.459325"><ele>1009.6</ele><time>2026-04-30T09:37:06.99Z</time></trkpt><trkpt lat="44.662365" lon="9.45918"><ele>1010.0</ele><time>2026-04-30T09:37:07.989Z</time></trkpt><trkpt lat="44.662385" lon="9.45903"><ele>1010.0</ele><time>2026-04-30T09:37:08.988Z</time></trkpt><trkpt lat="44.662405" lon="9.4588817"><ele>1010.0</ele><time>2026-04-30T09:37:09.988Z</time></trkpt><trkpt lat="44.66242" lon="9.458735"><ele>1010.0</ele><time>2026-04-30T09:37:10.989Z</time></trkpt><trkpt lat="44.6624333" lon="9.4585883"><ele>1010.0</ele><time>2026-04-30T09:37:11.989Z</time></trkpt><trkpt lat="44.662445" lon="9.4584383"><ele>1010.0</ele><time>2026-04-30T09:37:12.989Z</time></trkpt><trkpt lat="44.6624517" lon="9.4582883"><ele>1011.2</ele><time>2026-04-30T09:37:13.989Z</time></trkpt><trkpt lat="44.6624517" lon="9.4581433"><ele>1012.4</ele><time>2026-04-30T09:37:14.989Z</time></trkpt><trkpt lat="44.6624433" lon="9.4580017"><ele>1013.5999999999999</ele><time>2026-04-30T09:37:15.991Z</time></trkpt><trkpt lat="44.6624333" lon="9.4578567"><ele>1014.8</ele><time>2026-04-30T09:37:16.987Z</time></trkpt><trkpt lat="44.66242" lon="9.4577117"><ele>1016.0</ele><time>2026-04-30T09:37:17.987Z</time></trkpt><trkpt lat="44.6624067" lon="9.457565"><ele>1016.0</ele><time>2026-04-30T09:37:18.989Z</time></trkpt><trkpt lat="44.6624017" lon="9.4574117"><ele>1015.9999999999999</ele><time>2026-04-30T09:37:19.989Z</time></trkpt><trkpt lat="44.6623983" lon="9.45726"><ele>1015.9999999999999</ele><time>2026-04-30T09:37:20.987Z</time></trkpt><trkpt lat="44.6623917" lon="9.45711"><ele>1016.0</ele><time>2026-04-30T09:37:21.988Z</time></trkpt><trkpt lat="44.6623617" lon="9.456965"><ele>1016.0</ele><time>2026-04-30T09:37:22.99Z</time></trkpt><trkpt lat="44.6622983" lon="9.45684"><ele>1017.25</ele><time>2026-04-30T09:37:23.988Z</time></trkpt><trkpt lat="44.662205" lon="9.4567517"><ele>1018.5</ele><time>2026-04-30T09:37:24.991Z</time></trkpt><trkpt lat="44.6620967" lon="9.4567133"><ele>1019.75</ele><time>2026-04-30T09:37:25.988Z</time></trkpt><trkpt lat="44.6619783" lon="9.4567033"><ele>1021.0</ele><time>2026-04-30T09:37:26.99Z</time></trkpt><trkpt lat="44.6618533" lon="9.4567067"><ele>1021.75</ele><time>2026-04-30T09:37:27.987Z</time></trkpt><trkpt lat="44.66173" lon="9.4567117"><ele>1022.5</ele><time>2026-04-30T09:37:28.987Z</time></trkpt><trkpt lat="44.6616067" lon="9.4567083"><ele>1023.25</ele><time>2026-04-30T09:37:29.989Z</time></trkpt><trkpt lat="44.661485" lon="9.45671"><ele>1024.0</ele><time>2026-04-30T09:37:30.989Z</time></trkpt><trkpt lat="44.6613617" lon="9.4567233"><ele>1024.0</ele><time>2026-04-30T09:37:31.989Z</time></trkpt><trkpt lat="44.6612483" lon="9.456755"><ele>1024.0</ele><time>2026-04-30T09:37:32.989Z</time></trkpt><trkpt lat="44.6611417" lon="9.4568167"><ele>1024.0</ele><time>2026-04-30T09:37:33.988Z</time></trkpt><trkpt lat="44.6610433" lon="9.4569217"><ele>1024.0</ele><time>2026-04-30T09:37:34.988Z</time></trkpt><trkpt lat="44.6609567" lon="9.4570483"><ele>1022.5</ele><time>2026-04-30T09:37:35.987Z</time></trkpt><trkpt lat="44.6608733" lon="9.4571667"><ele>1021.0</ele><time>2026-04-30T09:37:36.988Z</time></trkpt><trkpt lat="44.6607783" lon="9.45726"><ele>1019.5</ele><time>2026-04-30T09:37:37.989Z</time></trkpt><trkpt lat="44.6606717" lon="9.457305"><ele>1018.0</ele><time>2026-04-30T09:37:38.988Z</time></trkpt><trkpt lat="44.6605683" lon="9.45728"><ele>1018.0</ele><time>2026-04-30T09:37:39.995Z</time></trkpt><trkpt lat="44.6604733" lon="9.4571983"><ele>1018.0</ele><time>2026-04-30T09:37:40.989Z</time></trkpt><trkpt lat="44.660385" lon="9.4571033"><ele>1018.0</ele><time>2026-04-30T09:37:41.988Z</time></trkpt><trkpt lat="44.6603017" lon="9.4570067"><ele>1018.0</ele><time>2026-04-30T09:37:42.988Z</time></trkpt><trkpt lat="44.66021" lon="9.4569133"><ele>1018.0</ele><time>2026-04-30T09:37:43.989Z</time></trkpt><trkpt lat="44.6601067" lon="9.4568367"><ele>1021.5</ele><time>2026-04-30T09:37:44.988Z</time></trkpt><trkpt lat="44.659995" lon="9.45678"><ele>1025.0</ele><time>2026-04-30T09:37:45.988Z</time></trkpt><trkpt lat="44.6598783" lon="9.4567317"><ele>1028.5</ele><time>2026-04-30T09:37:46.988Z</time></trkpt><trkpt lat="44.65976" lon="9.4566917"><ele>1032.0</ele><time>2026-04-30T09:37:47.987Z</time></trkpt><trkpt lat="44.6596383" lon="9.4566483"><ele>1032.0</ele><time>2026-04-30T09:37:48.989Z</time></trkpt><trkpt lat="44.6595117" lon="9.4566017"><ele>1032.0</ele><time>2026-04-30T09:37:49.988Z</time></trkpt><trkpt lat="44.6593917" lon="9.4565583"><ele>1032.0</ele><time>2026-04-30T09:37:50.988Z</time></trkpt><trkpt lat="44.65927" lon="9.4565117"><ele>1032.0</ele><time>2026-04-30T09:37:51.989Z</time></trkpt><trkpt lat="44.6591433" lon="9.4564717"><ele>1032.5</ele><time>2026-04-30T09:37:52.987Z</time></trkpt><trkpt lat="44.6590117" lon="9.456435"><ele>1033.0</ele><time>2026-04-30T09:37:53.988Z</time></trkpt><trkpt lat="44.6588833" lon="9.4563967"><ele>1033.5</ele><time>2026-04-30T09:37:54.987Z</time></trkpt><trkpt lat="44.6587533" lon="9.4563667"><ele>1034.0</ele><time>2026-04-30T09:37:55.987Z</time></trkpt><trkpt lat="44.6586133" lon="9.4563483"><ele>1034.0</ele><time>2026-04-30T09:37:56.991Z</time></trkpt><trkpt lat="44.6584733" lon="9.4563533"><ele>1034.0</ele><time>2026-04-30T09:37:57.987Z</time></trkpt><trkpt lat="44.6583367" lon="9.4563717"><ele>1034.0</ele><time>2026-04-30T09:37:58.991Z</time></trkpt><trkpt lat="44.6582083" lon="9.4564"><ele>1034.0</ele><time>2026-04-30T09:37:59.99Z</time></trkpt><trkpt lat="44.6580917" lon="9.4564383"><ele>1034.0</ele><time>2026-04-30T09:38:00.989Z</time></trkpt><trkpt lat="44.6579867" lon="9.4564783"><ele>1034.0</ele><time>2026-04-30T09:38:01.989Z</time></trkpt><trkpt lat="44.6578933" lon="9.4565167"><ele>1034.0</ele><time>2026-04-30T09:38:02.99Z</time></trkpt><trkpt lat="44.6578133" lon="9.4565383"><ele>1034.0</ele><time>2026-04-30T09:38:03.99Z</time></trkpt><trkpt lat="44.65775" lon="9.45655"><ele>1034.0</ele><time>2026-04-30T09:38:04.989Z</time></trkpt><trkpt lat="44.6576517" lon="9.45656"><ele>1034.2</ele><time>2026-04-30T09:38:06.99Z</time></trkpt><trkpt lat="44.6575667" lon="9.45659"><ele>1034.4</ele><time>2026-04-30T09:38:24.989Z</time></trkpt><trkpt lat="44.6574967" lon="9.4566733"><ele>1034.6</ele><time>2026-04-30T09:38:27.99Z</time></trkpt><trkpt lat="44.65741" lon="9.4566517"><ele>1034.8</ele><time>2026-04-30T09:38:29.989Z</time></trkpt><trkpt lat="44.6573583" lon="9.456545"><ele>1035.0</ele><time>2026-04-30T09:38:31.989Z</time></trkpt><trkpt lat="44.6572867" lon="9.456415"><ele>1035.0</ele><time>2026-04-30T09:38:33.988Z</time></trkpt><trkpt lat="44.6572483" lon="9.456335"><ele>1035.0</ele><time>2026-04-30T09:38:34.992Z</time></trkpt><trkpt lat="44.65721" lon="9.4562533"><ele>1035.0</ele><time>2026-04-30T09:38:35.989Z</time></trkpt><trkpt lat="44.6571717" lon="9.456175"><ele>1035.0</ele><time>2026-04-30T09:38:36.989Z</time></trkpt><trkpt lat="44.6570817" lon="9.4560883"><ele>1035.0</ele><time>2026-04-30T09:38:38.988Z</time></trkpt><trkpt lat="44.6570117" lon="9.4560883"><ele>1035.0</ele><time>2026-04-30T09:38:39.988Z</time></trkpt><trkpt lat="44.656935" lon="9.4560967"><ele>1034.8333333333333</ele><time>2026-04-30T09:38:40.988Z</time></trkpt><trkpt lat="44.65685" lon="9.4561"><ele>1034.6666666666667</ele><time>2026-04-30T09:38:41.988Z</time></trkpt><trkpt lat="44.6567833" lon="9.4561"><ele>1034.5</ele><time>2026-04-30T09:38:42.987Z</time></trkpt><trkpt lat="44.6566733" lon="9.4560733"><ele>1034.3333333333335</ele><time>2026-04-30T09:38:44.988Z</time></trkpt><trkpt lat="44.6565783" lon="9.4559833"><ele>1034.1666666666667</ele><time>2026-04-30T09:38:46.987Z</time></trkpt><trkpt lat="44.6565383" lon="9.4559083"><ele>1034.0</ele><time>2026-04-30T09:38:47.989Z</time></trkpt><trkpt lat="44.6565017" lon="9.4558317"><ele>1034.0</ele><time>2026-04-30T09:38:48.987Z</time></trkpt><trkpt lat="44.6564183" lon="9.4557317"><ele>1034.0</ele><time>2026-04-30T09:38:50.988Z</time></trkpt><trkpt lat="44.65634" lon="9.4557617"><ele>1034.0</ele><time>2026-04-30T09:38:52.987Z</time></trkpt><trkpt lat="44.656275" lon="9.4559"><ele>1034.0</ele><time>2026-04-30T09:38:54.988Z</time></trkpt><trkpt lat="44.6562417" lon="9.4559817"><ele>1034.0</ele><time>2026-04-30T09:38:55.99Z</time></trkpt><trkpt lat="44.6561717" lon="9.4561133"><ele>1033.1666666666667</ele><time>2026-04-30T09:38:57.988Z</time></trkpt><trkpt lat="44.65609" lon="9.45624"><ele>1032.3333333333335</ele><time>2026-04-30T09:38:59.988Z</time></trkpt><trkpt lat="44.656045" lon="9.45631"><ele>1031.5</ele><time>2026-04-30T09:39:00.988Z</time></trkpt><trkpt lat="44.6560033" lon="9.4563833"><ele>1030.6666666666667</ele><time>2026-04-30T09:39:01.987Z</time></trkpt><trkpt lat="44.655955" lon="9.456455"><ele>1029.8333333333333</ele><time>2026-04-30T09:39:02.992Z</time></trkpt><trkpt lat="44.65589" lon="9.456515"><ele>1029.0</ele><time>2026-04-30T09:39:03.987Z</time></trkpt><trkpt lat="44.65581" lon="9.4565617"><ele>1027.5</ele><time>2026-04-30T09:39:04.987Z</time></trkpt><trkpt lat="44.6557367" lon="9.4566017"><ele>1026.0</ele><time>2026-04-30T09:39:05.99Z</time></trkpt><trkpt lat="44.6556783" lon="9.45666"><ele>1024.5</ele><time>2026-04-30T09:39:06.987Z</time></trkpt><trkpt lat="44.6556367" lon="9.4567917"><ele>1023.0</ele><time>2026-04-30T09:39:08.988Z</time></trkpt><trkpt lat="44.6556467" lon="9.4569517"><ele>1021.5</ele><time>2026-04-30T09:39:10.987Z</time></trkpt><trkpt lat="44.6556533" lon="9.4570433"><ele>1020.0</ele><time>2026-04-30T09:39:11.987Z</time></trkpt><trkpt lat="44.6556467" lon="9.457145"><ele>1019.0</ele><time>2026-04-30T09:39:12.989Z</time></trkpt><trkpt lat="44.6556283" lon="9.457255"><ele>1018.0000000000001</ele><time>2026-04-30T09:39:13.987Z</time></trkpt><trkpt lat="44.6556067" lon="9.45736"><ele>1017.0</ele><time>2026-04-30T09:39:14.989Z</time></trkpt><trkpt lat="44.6555983" lon="9.4574583"><ele>1016.0</ele><time>2026-04-30T09:39:15.987Z</time></trkpt><trkpt lat="44.6555933" lon="9.4575567"><ele>1015.0000000000001</ele><time>2026-04-30T09:39:16.987Z</time></trkpt><trkpt lat="44.6555817" lon="9.4576517"><ele>1014.0</ele><time>2026-04-30T09:39:17.988Z</time></trkpt><trkpt lat="44.6555483" lon="9.4577517"><ele>1013.0</ele><time>2026-04-30T09:39:18.99Z</time></trkpt><trkpt lat="44.65551" lon="9.457875"><ele>1012.4</ele><time>2026-04-30T09:39:19.989Z</time></trkpt><trkpt lat="44.6554767" lon="9.45802"><ele>1011.8</ele><time>2026-04-30T09:39:20.989Z</time></trkpt><trkpt lat="44.6554483" lon="9.4581717"><ele>1011.2</ele><time>2026-04-30T09:39:21.989Z</time></trkpt><trkpt lat="44.6554217" lon="9.458315"><ele>1010.6</ele><time>2026-04-30T09:39:22.989Z</time></trkpt><trkpt lat="44.6553967" lon="9.45844"><ele>1010.0</ele><time>2026-04-30T09:39:23.993Z</time></trkpt><trkpt lat="44.65538" lon="9.4585467"><ele>1010.0000000000001</ele><time>2026-04-30T09:39:24.99Z</time></trkpt><trkpt lat="44.6553583" lon="9.4586533"><ele>1010.0</ele><time>2026-04-30T09:39:25.99Z</time></trkpt><trkpt lat="44.6553217" lon="9.458745"><ele>1010.0</ele><time>2026-04-30T09:39:26.989Z</time></trkpt><trkpt lat="44.6552783" lon="9.4588183"><ele>1010.0</ele><time>2026-04-30T09:39:27.99Z</time></trkpt><trkpt lat="44.655225" lon="9.4588767"><ele>1010.0000000000001</ele><time>2026-04-30T09:39:28.988Z</time></trkpt><trkpt lat="44.655125" lon="9.4589617"><ele>1010.0</ele><time>2026-04-30T09:39:30.988Z</time></trkpt><trkpt lat="44.655045" lon="9.45906"><ele>1011.0000000000001</ele><time>2026-04-30T09:39:32.989Z</time></trkpt><trkpt lat="44.6549717" lon="9.4592133"><ele>1012.0</ele><time>2026-04-30T09:39:34.99Z</time></trkpt><trkpt lat="44.6549433" lon="9.4593033"><ele>1013.0</ele><time>2026-04-30T09:39:35.989Z</time></trkpt><trkpt lat="44.65492" lon="9.4593917"><ele>1014.0</ele><time>2026-04-30T09:39:36.991Z</time></trkpt><trkpt lat="44.6548833" lon="9.45947"><ele>1015.0000000000001</ele><time>2026-04-30T09:39:37.991Z</time></trkpt><trkpt lat="44.65484" lon="9.459545"><ele>1016.0</ele><time>2026-04-30T09:39:38.989Z</time></trkpt><trkpt lat="44.6547867" lon="9.4596083"><ele>1014.8</ele><time>2026-04-30T09:39:39.989Z</time></trkpt><trkpt lat="44.6547017" lon="9.459715"><ele>1013.5999999999999</ele><time>2026-04-30T09:39:41.989Z</time></trkpt><trkpt lat="44.6546733" lon="9.4598517"><ele>1012.4</ele><time>2026-04-30T09:39:43.989Z</time></trkpt><trkpt lat="44.6546667" lon="9.4600417"><ele>1011.2</ele><time>2026-04-30T09:39:45.989Z</time></trkpt><trkpt lat="44.6546433" lon="9.4601533"><ele>1010.0</ele><time>2026-04-30T09:39:46.99Z</time></trkpt><trkpt lat="44.6546183" lon="9.4602567"><ele>1010.0000000000001</ele><time>2026-04-30T09:39:47.989Z</time></trkpt><trkpt lat="44.6546083" lon="9.460355"><ele>1010.0</ele><time>2026-04-30T09:39:48.988Z</time></trkpt><trkpt lat="44.6545983" lon="9.4604533"><ele>1010.0</ele><time>2026-04-30T09:39:49.988Z</time></trkpt><trkpt lat="44.6545083" lon="9.4605917"><ele>1010.0</ele><time>2026-04-30T09:39:51.988Z</time></trkpt><trkpt lat="44.6544483" lon="9.4606633"><ele>1010.0000000000001</ele><time>2026-04-30T09:39:52.987Z</time></trkpt><trkpt lat="44.6543917" lon="9.4607433"><ele>1010.0</ele><time>2026-04-30T09:39:53.99Z</time></trkpt><trkpt lat="44.6543417" lon="9.4608367"><ele>1009.3333333333334</ele><time>2026-04-30T09:39:54.989Z</time></trkpt><trkpt lat="44.654295" lon="9.4609233"><ele>1008.6666666666667</ele><time>2026-04-30T09:39:55.988Z</time></trkpt><trkpt lat="44.65423" lon="9.460995"><ele>1008.0</ele><time>2026-04-30T09:39:56.989Z</time></trkpt><trkpt lat="44.6541567" lon="9.4610383"><ele>1007.3333333333333</ele><time>2026-04-30T09:39:57.988Z</time></trkpt><trkpt lat="44.6540717" lon="9.4610683"><ele>1006.6666666666666</ele><time>2026-04-30T09:39:58.988Z</time></trkpt><trkpt lat="44.6539883" lon="9.46111"><ele>1006.0</ele><time>2026-04-30T09:39:59.988Z</time></trkpt><trkpt lat="44.6539083" lon="9.4611617"><ele>1005.9999999999999</ele><time>2026-04-30T09:40:00.988Z</time></trkpt><trkpt lat="44.6538383" lon="9.4612217"><ele>1006.0</ele><time>2026-04-30T09:40:01.989Z</time></trkpt><trkpt lat="44.6537783" lon="9.4612883"><ele>1006.0</ele><time>2026-04-30T09:40:02.988Z</time></trkpt><trkpt lat="44.6537117" lon="9.4613683"><ele>1006.0</ele><time>2026-04-30T09:40:03.988Z</time></trkpt><trkpt lat="44.653645" lon="9.461455"><ele>1005.9999999999999</ele><time>2026-04-30T09:40:04.99Z</time></trkpt><trkpt lat="44.6535833" lon="9.4615183"><ele>1006.0</ele><time>2026-04-30T09:40:05.99Z</time></trkpt><trkpt lat="44.6534733" lon="9.461605"><ele>1005.5714285714287</ele><time>2026-04-30T09:40:07.99Z</time></trkpt><trkpt lat="44.6534133" lon="9.461645"><ele>1005.1428571428572</ele><time>2026-04-30T09:40:08.988Z</time></trkpt><trkpt lat="44.6533533" lon="9.4616867"><ele>1004.7142857142858</ele><time>2026-04-30T09:40:09.988Z</time></trkpt><trkpt lat="44.65329" lon="9.46173"><ele>1004.2857142857142</ele><time>2026-04-30T09:40:10.988Z</time></trkpt><trkpt lat="44.653215" lon="9.4617617"><ele>1003.8571428571428</ele><time>2026-04-30T09:40:11.987Z</time></trkpt><trkpt lat="44.653135" lon="9.461785"><ele>1003.4285714285713</ele><time>2026-04-30T09:40:12.987Z</time></trkpt><trkpt lat="44.6530617" lon="9.461815"><ele>1003.0</ele><time>2026-04-30T09:40:13.989Z</time></trkpt><trkpt lat="44.652995" lon="9.4618533"><ele>1002.9999999999999</ele><time>2026-04-30T09:40:14.988Z</time></trkpt><trkpt lat="44.6529317" lon="9.4619067"><ele>1003.0</ele><time>2026-04-30T09:40:15.989Z</time></trkpt><trkpt lat="44.6528733" lon="9.4619533"><ele>1003.0</ele><time>2026-04-30T09:40:16.991Z</time></trkpt><trkpt lat="44.6528183" lon="9.4620017"><ele>1003.0</ele><time>2026-04-30T09:40:17.988Z</time></trkpt><trkpt lat="44.65277" lon="9.462065"><ele>1002.9999999999999</ele><time>2026-04-30T09:40:18.988Z</time></trkpt><trkpt lat="44.652695" lon="9.4621783"><ele>1003.0</ele><time>2026-04-30T09:40:20.989Z</time></trkpt><trkpt lat="44.6526117" lon="9.462275"><ele>1001.8333333333333</ele><time>2026-04-30T09:40:22.989Z</time></trkpt><trkpt lat="44.6525283" lon="9.462365"><ele>1000.6666666666666</ele><time>2026-04-30T09:40:24.987Z</time></trkpt><trkpt lat="44.6524767" lon="9.4624467"><ele>999.5</ele><time>2026-04-30T09:40:26.988Z</time></trkpt><trkpt lat="44.6524183" lon="9.462575"><ele>998.3333333333333</ele><time>2026-04-30T09:40:28.988Z</time></trkpt><trkpt lat="44.6523833" lon="9.4626533"><ele>997.1666666666666</ele><time>2026-04-30T09:40:29.989Z</time></trkpt><trkpt lat="44.6523383" lon="9.4627417"><ele>996.0</ele><time>2026-04-30T09:40:30.988Z</time></trkpt><trkpt lat="44.6522917" lon="9.462835"><ele>996.0</ele><time>2026-04-30T09:40:31.989Z</time></trkpt><trkpt lat="44.652245" lon="9.4629433"><ele>996.0</ele><time>2026-04-30T09:40:32.988Z</time></trkpt><trkpt lat="44.6521983" lon="9.4630483"><ele>996.0</ele><time>2026-04-30T09:40:33.989Z</time></trkpt><trkpt lat="44.6521583" lon="9.463155"><ele>996.0</ele><time>2026-04-30T09:40:34.988Z</time></trkpt><trkpt lat="44.6521317" lon="9.4632717"><ele>996.0</ele><time>2026-04-30T09:40:35.988Z</time></trkpt><trkpt lat="44.65212" lon="9.4633767"><ele>996.0</ele><time>2026-04-30T09:40:36.989Z</time></trkpt><trkpt lat="44.652125" lon="9.4634717"><ele>995.5</ele><time>2026-04-30T09:40:37.988Z</time></trkpt><trkpt lat="44.6521233" lon="9.4635633"><ele>995.0</ele><time>2026-04-30T09:40:38.989Z</time></trkpt><trkpt lat="44.65208" lon="9.4637167"><ele>994.5</ele><time>2026-04-30T09:40:40.987Z</time></trkpt><trkpt lat="44.652045" lon="9.463795"><ele>994.0</ele><time>2026-04-30T09:40:41.988Z</time></trkpt><trkpt lat="44.6520033" lon="9.4638717"><ele>993.5</ele><time>2026-04-30T09:40:42.989Z</time></trkpt><trkpt lat="44.65196" lon="9.4639483"><ele>993.0</ele><time>2026-04-30T09:40:43.989Z</time></trkpt><trkpt lat="44.6519133" lon="9.46404"><ele>992.0</ele><time>2026-04-30T09:40:44.988Z</time></trkpt><trkpt lat="44.6518633" lon="9.4641283"><ele>991.0</ele><time>2026-04-30T09:40:45.989Z</time></trkpt><trkpt lat="44.65181" lon="9.4642083"><ele>990.0</ele><time>2026-04-30T09:40:46.987Z</time></trkpt><trkpt lat="44.6517567" lon="9.4642883"><ele>989.0</ele><time>2026-04-30T09:40:47.989Z</time></trkpt><trkpt lat="44.651705" lon="9.4643717"><ele>988.0</ele><time>2026-04-30T09:40:48.987Z</time></trkpt><trkpt lat="44.6516517" lon="9.4644683"><ele>987.0</ele><time>2026-04-30T09:40:49.988Z</time></trkpt><trkpt lat="44.6516083" lon="9.4645683"><ele>987.0</ele><time>2026-04-30T09:40:50.989Z</time></trkpt><trkpt lat="44.6515667" lon="9.4646833"><ele>987.0</ele><time>2026-04-30T09:40:51.987Z</time></trkpt><trkpt lat="44.6515217" lon="9.4647933"><ele>987.0</ele><time>2026-04-30T09:40:52.998Z</time></trkpt><trkpt lat="44.6514733" lon="9.4648933"><ele>987.0</ele><time>2026-04-30T09:40:53.989Z</time></trkpt><trkpt lat="44.6514117" lon="9.4649867"><ele>987.0</ele><time>2026-04-30T09:40:54.988Z</time></trkpt><trkpt lat="44.6513533" lon="9.4650517"><ele>987.0</ele><time>2026-04-30T09:40:55.988Z</time></trkpt><trkpt lat="44.6512767" lon="9.46509"><ele>987.0</ele><time>2026-04-30T09:40:56.989Z</time></trkpt><trkpt lat="44.6511983" lon="9.465105"><ele>987.0</ele><time>2026-04-30T09:40:57.992Z</time></trkpt><trkpt lat="44.6511317" lon="9.4651333"><ele>987.0</ele><time>2026-04-30T09:40:58.987Z</time></trkpt><trkpt lat="44.6510683" lon="9.4651767"><ele>987.0</ele><time>2026-04-30T09:40:59.988Z</time></trkpt><trkpt lat="44.6510167" lon="9.4652283"><ele>987.0</ele><time>2026-04-30T09:41:00.99Z</time></trkpt><trkpt lat="44.6509717" lon="9.4652917"><ele>987.0</ele><time>2026-04-30T09:41:01.987Z</time></trkpt><trkpt lat="44.6508833" lon="9.4654183"><ele>985.5</ele><time>2026-04-30T09:41:03.987Z</time></trkpt><trkpt lat="44.65083" lon="9.465515"><ele>984.0</ele><time>2026-04-30T09:41:04.987Z</time></trkpt><trkpt lat="44.650795" lon="9.465605"><ele>982.5</ele><time>2026-04-30T09:41:05.99Z</time></trkpt><trkpt lat="44.650765" lon="9.4656933"><ele>981.0</ele><time>2026-04-30T09:41:06.987Z</time></trkpt><trkpt lat="44.6507117" lon="9.46586"><ele>979.5</ele><time>2026-04-30T09:41:08.989Z</time></trkpt><trkpt lat="44.650695" lon="9.46595"><ele>978.0</ele><time>2026-04-30T09:41:09.986Z</time></trkpt><trkpt lat="44.6506783" lon="9.4660467"><ele>978.0</ele><time>2026-04-30T09:41:10.987Z</time></trkpt><trkpt lat="44.6506383" lon="9.4662133"><ele>978.0</ele><time>2026-04-30T09:41:12.988Z</time></trkpt><trkpt lat="44.6506133" lon="9.46631"><ele>978.0</ele><time>2026-04-30T09:41:13.987Z</time></trkpt><trkpt lat="44.6505867" lon="9.466405"><ele>978.0</ele><time>2026-04-30T09:41:14.987Z</time></trkpt><trkpt lat="44.650555" lon="9.4664833"><ele>978.0</ele><time>2026-04-30T09:41:15.987Z</time></trkpt><trkpt lat="44.65052" lon="9.4665583"><ele>978.0</ele><time>2026-04-30T09:41:16.988Z</time></trkpt><trkpt lat="44.6504933" lon="9.46664"><ele>976.3333333333334</ele><time>2026-04-30T09:41:17.989Z</time></trkpt><trkpt lat="44.6504717" lon="9.4667267"><ele>974.6666666666667</ele><time>2026-04-30T09:41:18.989Z</time></trkpt><trkpt lat="44.6504567" lon="9.466905"><ele>973.0</ele><time>2026-04-30T09:41:20.989Z</time></trkpt><trkpt lat="44.650445" lon="9.4670117"><ele>971.3333333333334</ele><time>2026-04-30T09:41:21.989Z</time></trkpt><trkpt lat="44.650435" lon="9.4671033"><ele>969.6666666666667</ele><time>2026-04-30T09:41:22.992Z</time></trkpt><trkpt lat="44.6504067" lon="9.4671867"><ele>968.0</ele><time>2026-04-30T09:41:23.989Z</time></trkpt><trkpt lat="44.6503417" lon="9.467295"><ele>964.5999999999999</ele><time>2026-04-30T09:41:25.988Z</time></trkpt><trkpt lat="44.6502433" lon="9.46735"><ele>961.1999999999999</ele><time>2026-04-30T09:41:27.988Z</time></trkpt><trkpt lat="44.6501483" lon="9.4674183"><ele>957.8</ele><time>2026-04-30T09:41:29.988Z</time></trkpt><trkpt lat="44.6500717" lon="9.46752"><ele>954.4</ele><time>2026-04-30T09:41:31.987Z</time></trkpt><trkpt lat="44.6500283" lon="9.4676583"><ele>951.0</ele><time>2026-04-30T09:41:33.988Z</time></trkpt><trkpt lat="44.6500117" lon="9.4677967"><ele>951.0</ele><time>2026-04-30T09:41:35.988Z</time></trkpt><trkpt lat="44.6500033" lon="9.46793"><ele>951.0</ele><time>2026-04-30T09:41:37.994Z</time></trkpt><trkpt lat="44.650005" lon="9.4680883"><ele>951.0</ele><time>2026-04-30T09:41:39.987Z</time></trkpt><trkpt lat="44.65" lon="9.4681767"><ele>951.0</ele><time>2026-04-30T09:41:40.988Z</time></trkpt><trkpt lat="44.6499933" lon="9.46828"><ele>951.0</ele><time>2026-04-30T09:41:41.987Z</time></trkpt><trkpt lat="44.6499867" lon="9.468385"><ele>951.0</ele><time>2026-04-30T09:41:42.987Z</time></trkpt><trkpt lat="44.64998" lon="9.4684883"><ele>949.6666666666666</ele><time>2026-04-30T09:41:43.989Z</time></trkpt><trkpt lat="44.649975" lon="9.4686"><ele>948.3333333333333</ele><time>2026-04-30T09:41:44.988Z</time></trkpt><trkpt lat="44.649965" lon="9.4687183"><ele>947.0</ele><time>2026-04-30T09:41:45.988Z</time></trkpt><trkpt lat="44.6499517" lon="9.468835"><ele>945.6666666666666</ele><time>2026-04-30T09:41:46.987Z</time></trkpt><trkpt lat="44.6499467" lon="9.4689517"><ele>944.3333333333333</ele><time>2026-04-30T09:41:47.989Z</time></trkpt><trkpt lat="44.6499533" lon="9.4690617"><ele>943.0</ele><time>2026-04-30T09:41:48.99Z</time></trkpt><trkpt lat="44.6499683" lon="9.469175"><ele>941.0</ele><time>2026-04-30T09:41:49.99Z</time></trkpt><trkpt lat="44.649985" lon="9.4692967"><ele>939.0</ele><time>2026-04-30T09:41:50.99Z</time></trkpt><trkpt lat="44.65001" lon="9.4694083"><ele>937.0</ele><time>2026-04-30T09:41:51.988Z</time></trkpt><trkpt lat="44.650035" lon="9.469495"><ele>935.0</ele><time>2026-04-30T09:41:52.988Z</time></trkpt><trkpt lat="44.6500717" lon="9.4696467"><ele>933.0</ele><time>2026-04-30T09:41:54.988Z</time></trkpt><trkpt lat="44.6500883" lon="9.4698067"><ele>932.4285714285713</ele><time>2026-04-30T09:41:56.987Z</time></trkpt><trkpt lat="44.6501" lon="9.4699"><ele>931.8571428571428</ele><time>2026-04-30T09:41:57.988Z</time></trkpt><trkpt lat="44.65011" lon="9.470005"><ele>931.2857142857142</ele><time>2026-04-30T09:41:58.987Z</time></trkpt><trkpt lat="44.650115" lon="9.47011"><ele>930.7142857142858</ele><time>2026-04-30T09:41:59.987Z</time></trkpt><trkpt lat="44.65012" lon="9.470215"><ele>930.1428571428572</ele><time>2026-04-30T09:42:00.986Z</time></trkpt><trkpt lat="44.6501233" lon="9.4703117"><ele>929.5714285714287</ele><time>2026-04-30T09:42:01.988Z</time></trkpt><trkpt lat="44.6501267" lon="9.470415"><ele>929.0</ele><time>2026-04-30T09:42:02.991Z</time></trkpt><trkpt lat="44.6501217" lon="9.470525"><ele>928.8571428571429</ele><time>2026-04-30T09:42:03.986Z</time></trkpt><trkpt lat="44.6501167" lon="9.4706267"><ele>928.7142857142858</ele><time>2026-04-30T09:42:04.989Z</time></trkpt><trkpt lat="44.6501067" lon="9.4707267"><ele>928.5714285714287</ele><time>2026-04-30T09:42:05.99Z</time></trkpt><trkpt lat="44.6500917" lon="9.4708217"><ele>928.4285714285716</ele><time>2026-04-30T09:42:06.987Z</time></trkpt><trkpt lat="44.6500667" lon="9.4709083"><ele>928.2857142857143</ele><time>2026-04-30T09:42:07.987Z</time></trkpt><trkpt lat="44.6500433" lon="9.471005"><ele>928.1428571428573</ele><time>2026-04-30T09:42:08.988Z</time></trkpt><trkpt lat="44.6500183" lon="9.4711"><ele>928.0000000000001</ele><time>2026-04-30T09:42:09.99Z</time></trkpt><trkpt lat="44.6499967" lon="9.4711917"><ele>927.9999999999999</ele><time>2026-04-30T09:42:10.987Z</time></trkpt><trkpt lat="44.6499783" lon="9.4713683"><ele>928.0</ele><time>2026-04-30T09:42:12.987Z</time></trkpt><trkpt lat="44.6499817" lon="9.471475"><ele>928.0</ele><time>2026-04-30T09:42:13.987Z</time></trkpt><trkpt lat="44.6499933" lon="9.4715767"><ele>928.0</ele><time>2026-04-30T09:42:14.988Z</time></trkpt><trkpt lat="44.6499983" lon="9.47168"><ele>927.9999999999999</ele><time>2026-04-30T09:42:15.987Z</time></trkpt><trkpt lat="44.6499983" lon="9.4717783"><ele>928.0</ele><time>2026-04-30T09:42:16.987Z</time></trkpt><trkpt lat="44.6500067" lon="9.4718683"><ele>927.9999999999999</ele><time>2026-04-30T09:42:17.988Z</time></trkpt><trkpt lat="44.65003" lon="9.47196"><ele>928.0</ele><time>2026-04-30T09:42:18.987Z</time></trkpt><trkpt lat="44.65006" lon="9.4720483"><ele>928.0</ele><time>2026-04-30T09:42:19.988Z</time></trkpt><trkpt lat="44.6500683" lon="9.4721383"><ele>928.0</ele><time>2026-04-30T09:42:20.988Z</time></trkpt><trkpt lat="44.65007" lon="9.4723083"><ele>927.9999999999999</ele><time>2026-04-30T09:42:22.987Z</time></trkpt><trkpt lat="44.6500783" lon="9.4724017"><ele>928.0</ele><time>2026-04-30T09:42:23.986Z</time></trkpt><trkpt lat="44.65009" lon="9.4724967"><ele>927.4</ele><time>2026-04-30T09:42:24.989Z</time></trkpt><trkpt lat="44.6500833" lon="9.4726767"><ele>926.8</ele><time>2026-04-30T09:42:26.989Z</time></trkpt><trkpt lat="44.6500233" lon="9.4728183"><ele>926.2</ele><time>2026-04-30T09:42:28.989Z</time></trkpt><trkpt lat="44.649945" lon="9.4729317"><ele>925.6</ele><time>2026-04-30T09:42:30.989Z</time></trkpt><trkpt lat="44.649905" lon="9.4730467"><ele>925.0</ele><time>2026-04-30T09:42:32.987Z</time></trkpt><trkpt lat="44.64991" lon="9.4732183"><ele>922.6</ele><time>2026-04-30T09:42:34.989Z</time></trkpt><trkpt lat="44.6499133" lon="9.4733067"><ele>920.2</ele><time>2026-04-30T09:42:35.987Z</time></trkpt><trkpt lat="44.6499367" lon="9.4734517"><ele>917.8</ele><time>2026-04-30T09:42:37.987Z</time></trkpt><trkpt lat="44.6498983" lon="9.4735683"><ele>915.4</ele><time>2026-04-30T09:42:39.989Z</time></trkpt><trkpt lat="44.6498183" lon="9.473645"><ele>913.0</ele><time>2026-04-30T09:42:41.989Z</time></trkpt><trkpt lat="44.6497267" lon="9.4737233"><ele>909.9999999999999</ele><time>2026-04-30T09:42:43.99Z</time></trkpt><trkpt lat="44.6496617" lon="9.4738067"><ele>907.0</ele><time>2026-04-30T09:42:45.988Z</time></trkpt><trkpt lat="44.64965" lon="9.47391"><ele>904.0</ele><time>2026-04-30T09:42:47.989Z</time></trkpt><trkpt lat="44.649685" lon="9.4740083"><ele>901.0</ele><time>2026-04-30T09:42:49.988Z</time></trkpt><trkpt lat="44.6496983" lon="9.4741067"><ele>897.9999999999999</ele><time>2026-04-30T09:42:51.989Z</time></trkpt><trkpt lat="44.649725" lon="9.4742183"><ele>895.0</ele><time>2026-04-30T09:42:53.988Z</time></trkpt><trkpt lat="44.649805" lon="9.4743"><ele>895.0</ele><time>2026-04-30T09:42:55.987Z</time></trkpt><trkpt lat="44.6499167" lon="9.4743517"><ele>895.0</ele><time>2026-04-30T09:42:57.987Z</time></trkpt><trkpt lat="44.64998" lon="9.474385"><ele>895.0</ele><time>2026-04-30T09:42:58.988Z</time></trkpt><trkpt lat="44.6501" lon="9.4744217"><ele>895.0</ele><time>2026-04-30T09:43:00.988Z</time></trkpt><trkpt lat="44.6501667" lon="9.4744567"><ele>895.0</ele><time>2026-04-30T09:43:01.988Z</time></trkpt><trkpt lat="44.6502317" lon="9.47451"><ele>893.6666666666666</ele><time>2026-04-30T09:43:02.988Z</time></trkpt><trkpt lat="44.6502983" lon="9.4745683"><ele>892.3333333333333</ele><time>2026-04-30T09:43:03.988Z</time></trkpt><trkpt lat="44.6503683" lon="9.474605"><ele>891.0</ele><time>2026-04-30T09:43:04.988Z</time></trkpt><trkpt lat="44.65043" lon="9.4746383"><ele>889.6666666666667</ele><time>2026-04-30T09:43:05.988Z</time></trkpt><trkpt lat="44.6505483" lon="9.4747183"><ele>888.3333333333334</ele><time>2026-04-30T09:43:07.988Z</time></trkpt><trkpt lat="44.65061" lon="9.4747767"><ele>887.0</ele><time>2026-04-30T09:43:08.987Z</time></trkpt><trkpt lat="44.6506617" lon="9.47484"><ele>883.4000000000001</ele><time>2026-04-30T09:43:09.989Z</time></trkpt><trkpt lat="44.6507483" lon="9.4749517"><ele>879.8000000000001</ele><time>2026-04-30T09:43:11.987Z</time></trkpt><trkpt lat="44.6508283" lon="9.47507"><ele>876.2</ele><time>2026-04-30T09:43:13.987Z</time></trkpt><trkpt lat="44.6508917" lon="9.4751217"><ele>872.6</ele><time>2026-04-30T09:43:15.987Z</time></trkpt><trkpt lat="44.6509583" lon="9.4752283"><ele>869.0</ele><time>2026-04-30T09:43:18.989Z</time></trkpt><trkpt lat="44.6509933" lon="9.47537"><ele>864.8000000000001</ele><time>2026-04-30T09:43:20.989Z</time></trkpt><trkpt lat="44.651065" lon="9.4754967"><ele>860.6000000000001</ele><time>2026-04-30T09:43:22.988Z</time></trkpt><trkpt lat="44.6511467" lon="9.4756"><ele>856.4</ele><time>2026-04-30T09:43:24.988Z</time></trkpt><trkpt lat="44.6512033" lon="9.475735"><ele>852.2</ele><time>2026-04-30T09:43:26.988Z</time></trkpt><trkpt lat="44.6512517" lon="9.4758783"><ele>848.0</ele><time>2026-04-30T09:43:28.988Z</time></trkpt><trkpt lat="44.6512817" lon="9.4759583"><ele>848.0</ele><time>2026-04-30T09:43:29.987Z</time></trkpt><trkpt lat="44.6513217" lon="9.4761167"><ele>848.0</ele><time>2026-04-30T09:43:31.987Z</time></trkpt><trkpt lat="44.6513517" lon="9.4762467"><ele>848.0</ele><time>2026-04-30T09:43:33.986Z</time></trkpt><trkpt lat="44.6513" lon="9.47637"><ele>848.0</ele><time>2026-04-30T09:43:35.988Z</time></trkpt><trkpt lat="44.6512883" lon="9.4764833"><ele>848.0</ele><time>2026-04-30T09:43:37.988Z</time></trkpt><trkpt lat="44.6513567" lon="9.4765517"><ele>846.1666666666667</ele><time>2026-04-30T09:43:40.987Z</time></trkpt><trkpt lat="44.6514483" lon="9.476605"><ele>844.3333333333334</ele><time>2026-04-30T09:43:42.989Z</time></trkpt><trkpt lat="44.6514983" lon="9.4766867"><ele>842.5</ele><time>2026-04-30T09:43:44.989Z</time></trkpt><trkpt lat="44.65151" lon="9.4768117"><ele>840.6666666666667</ele><time>2026-04-30T09:43:46.986Z</time></trkpt><trkpt lat="44.651485" lon="9.47692"><ele>838.8333333333334</ele><time>2026-04-30T09:43:48.987Z</time></trkpt><trkpt lat="44.65147" lon="9.47704"><ele>837.0</ele><time>2026-04-30T09:43:50.989Z</time></trkpt><trkpt lat="44.6514617" lon="9.477165"><ele>834.3333333333334</ele><time>2026-04-30T09:43:52.988Z</time></trkpt><trkpt lat="44.65149" lon="9.4772917"><ele>831.6666666666667</ele><time>2026-04-30T09:43:54.987Z</time></trkpt><trkpt lat="44.6514833" lon="9.47741"><ele>829.0</ele><time>2026-04-30T09:43:56.988Z</time></trkpt><trkpt lat="44.6514517" lon="9.477495"><ele>826.3333333333334</ele><time>2026-04-30T09:43:58.987Z</time></trkpt><trkpt lat="44.6513967" lon="9.47759"><ele>823.6666666666667</ele><time>2026-04-30T09:44:01.988Z</time></trkpt><trkpt lat="44.651325" lon="9.4776767"><ele>821.0</ele><time>2026-04-30T09:44:03.988Z</time></trkpt><trkpt lat="44.65129" lon="9.4778017"><ele>821.0000000000001</ele><time>2026-04-30T09:44:05.987Z</time></trkpt><trkpt lat="44.6512567" lon="9.4779117"><ele>821.0</ele><time>2026-04-30T09:44:07.989Z</time></trkpt><trkpt lat="44.6511867" lon="9.4779433"><ele>821.0</ele><time>2026-04-30T09:44:09.989Z</time></trkpt><trkpt lat="44.6511017" lon="9.4779417"><ele>821.0</ele><time>2026-04-30T09:44:11.988Z</time></trkpt><trkpt lat="44.6510333" lon="9.4779067"><ele>821.0000000000001</ele><time>2026-04-30T09:44:13.988Z</time></trkpt><trkpt lat="44.65098" lon="9.4778533"><ele>821.0</ele><time>2026-04-30T09:44:15.987Z</time></trkpt><trkpt lat="44.6509233" lon="9.477795"><ele>819.8</ele><time>2026-04-30T09:44:22.986Z</time></trkpt><trkpt lat="44.6508467" lon="9.4777133"><ele>818.5999999999999</ele><time>2026-04-30T09:44:24.988Z</time></trkpt><trkpt lat="44.6507433" lon="9.4776883"><ele>817.4</ele><time>2026-04-30T09:44:26.987Z</time></trkpt><trkpt lat="44.6506133" lon="9.477685"><ele>816.2</ele><time>2026-04-30T09:44:28.988Z</time></trkpt><trkpt lat="44.6505483" lon="9.47768"><ele>815.0</ele><time>2026-04-30T09:44:29.987Z</time></trkpt><trkpt lat="44.6504483" lon="9.477635"><ele>815.0000000000001</ele><time>2026-04-30T09:44:31.987Z</time></trkpt><trkpt lat="44.6503717" lon="9.4776183"><ele>815.0</ele><time>2026-04-30T09:44:33.988Z</time></trkpt><trkpt lat="44.6503133" lon="9.477685"><ele>815.0</ele><time>2026-04-30T09:44:36.988Z</time></trkpt><trkpt lat="44.6503167" lon="9.477805"><ele>815.0</ele><time>2026-04-30T09:44:39.988Z</time></trkpt><trkpt lat="44.65036" lon="9.4778867"><ele>815.0000000000001</ele><time>2026-04-30T09:44:41.987Z</time></trkpt><trkpt lat="44.6504067" lon="9.47797"><ele>815.0</ele><time>2026-04-30T09:44:43.987Z</time></trkpt><trkpt lat="44.6504483" lon="9.4780783"><ele>812.0000000000001</ele><time>2026-04-30T09:44:45.987Z</time></trkpt><trkpt lat="44.65048" lon="9.4781733"><ele>809.0</ele><time>2026-04-30T09:44:47.988Z</time></trkpt><trkpt lat="44.6504817" lon="9.4782683"><ele>806.0</ele><time>2026-04-30T09:44:50.988Z</time></trkpt><trkpt lat="44.6504383" lon="9.4783617"><ele>803.0</ele><time>2026-04-30T09:44:53.986Z</time></trkpt><trkpt lat="44.6504017" lon="9.4784583"><ele>800.0000000000001</ele><time>2026-04-30T09:44:55.988Z</time></trkpt><trkpt lat="44.6503917" lon="9.4786017"><ele>797.0</ele><time>2026-04-30T09:44:57.991Z</time></trkpt><trkpt lat="44.6503717" lon="9.47873"><ele>793.0</ele><time>2026-04-30T09:44:59.989Z</time></trkpt><trkpt lat="44.6504133" lon="9.47884"><ele>789.0</ele><time>2026-04-30T09:45:01.987Z</time></trkpt><trkpt lat="44.6504733" lon="9.4789817"><ele>785.0</ele><time>2026-04-30T09:45:03.987Z</time></trkpt><trkpt lat="44.6505167" lon="9.479145"><ele>781.0</ele><time>2026-04-30T09:45:05.987Z</time></trkpt><trkpt lat="44.650545" lon="9.479225"><ele>777.0</ele><time>2026-04-30T09:45:06.988Z</time></trkpt><trkpt lat="44.6505833" lon="9.4793"><ele>777.0</ele><time>2026-04-30T09:45:07.989Z</time></trkpt><trkpt lat="44.6506533" lon="9.4794367"><ele>777.0</ele><time>2026-04-30T09:45:09.987Z</time></trkpt><trkpt lat="44.6506867" lon="9.479595"><ele>777.0</ele><time>2026-04-30T09:45:11.988Z</time></trkpt><trkpt lat="44.65072" lon="9.4797467"><ele>777.0</ele><time>2026-04-30T09:45:13.988Z</time></trkpt><trkpt lat="44.6507983" lon="9.479855"><ele>773.2</ele><time>2026-04-30T09:45:15.989Z</time></trkpt><trkpt lat="44.65085" lon="9.4799833"><ele>769.4000000000001</ele><time>2026-04-30T09:45:17.988Z</time></trkpt><trkpt lat="44.6508833" lon="9.4801183"><ele>765.5999999999999</ele><time>2026-04-30T09:45:19.988Z</time></trkpt><trkpt lat="44.6508733" lon="9.4802433"><ele>761.8</ele><time>2026-04-30T09:45:21.987Z</time></trkpt><trkpt lat="44.65084" lon="9.480365"><ele>758.0</ele><time>2026-04-30T09:45:23.987Z</time></trkpt><trkpt lat="44.6508333" lon="9.480455"><ele>755.4</ele><time>2026-04-30T09:45:25.988Z</time></trkpt><trkpt lat="44.6508517" lon="9.48057"><ele>752.8</ele><time>2026-04-30T09:45:27.987Z</time></trkpt><trkpt lat="44.65089" lon="9.4806967"><ele>750.2</ele><time>2026-04-30T09:45:29.988Z</time></trkpt><trkpt lat="44.650945" lon="9.480805"><ele>747.6</ele><time>2026-04-30T09:45:31.988Z</time></trkpt><trkpt lat="44.6510083" lon="9.4809017"><ele>745.0</ele><time>2026-04-30T09:45:33.988Z</time></trkpt><trkpt lat="44.6510533" lon="9.4810133"><ele>745.0</ele><time>2026-04-30T09:45:35.988Z</time></trkpt><trkpt lat="44.65104" lon="9.481115"><ele>745.0</ele><time>2026-04-30T09:45:37.988Z</time></trkpt><trkpt lat="44.65099" lon="9.4812167"><ele>745.0</ele><time>2026-04-30T09:45:39.989Z</time></trkpt><trkpt lat="44.6509467" lon="9.48131"><ele>745.0</ele><time>2026-04-30T09:45:41.987Z</time></trkpt><trkpt lat="44.650905" lon="9.48138"><ele>745.0</ele><time>2026-04-30T09:45:43.988Z</time></trkpt><trkpt lat="44.65083" lon="9.481355"><ele>745.0</ele><time>2026-04-30T09:46:38.988Z</time></trkpt><trkpt lat="44.6507483" lon="9.4812717"><ele>745.0</ele><time>2026-04-30T09:46:40.986Z</time></trkpt><trkpt lat="44.6506383" lon="9.4811883"><ele>745.0</ele><time>2026-04-30T09:46:42.988Z</time></trkpt><trkpt lat="44.65058" lon="9.48114"><ele>745.0</ele><time>2026-04-30T09:46:43.989Z</time></trkpt><trkpt lat="44.6505183" lon="9.48109"><ele>745.0</ele><time>2026-04-30T09:46:44.987Z</time></trkpt><trkpt lat="44.650455" lon="9.4810483"><ele>745.0</ele><time>2026-04-30T09:46:45.987Z</time></trkpt><trkpt lat="44.6503883" lon="9.4810133"><ele>745.0</ele><time>2026-04-30T09:46:46.989Z</time></trkpt><trkpt lat="44.6503083" lon="9.4809967"><ele>742.5</ele><time>2026-04-30T09:46:47.988Z</time></trkpt><trkpt lat="44.6502283" lon="9.4810033"><ele>740.0</ele><time>2026-04-30T09:46:48.989Z</time></trkpt><trkpt lat="44.65015" lon="9.481025"><ele>737.5</ele><time>2026-04-30T09:46:49.99Z</time></trkpt><trkpt lat="44.6500717" lon="9.4810283"><ele>735.0</ele><time>2026-04-30T09:46:50.989Z</time></trkpt><trkpt lat="44.6499933" lon="9.4810133"><ele>732.5</ele><time>2026-04-30T09:46:51.989Z</time></trkpt><trkpt lat="44.6499167" lon="9.4809833"><ele>730.0</ele><time>2026-04-30T09:46:52.99Z</time></trkpt><trkpt lat="44.6498433" lon="9.48094"><ele>730.0</ele><time>2026-04-30T09:46:53.99Z</time></trkpt><trkpt lat="44.6497683" lon="9.48088"><ele>730.0</ele><time>2026-04-30T09:46:54.988Z</time></trkpt><trkpt lat="44.64969" lon="9.4808083"><ele>730.0</ele><time>2026-04-30T09:46:55.987Z</time></trkpt><trkpt lat="44.6496133" lon="9.48074"><ele>730.0</ele><time>2026-04-30T09:46:56.987Z</time></trkpt><trkpt lat="44.6495333" lon="9.4806817"><ele>730.0</ele><time>2026-04-30T09:46:57.991Z</time></trkpt><trkpt lat="44.6494583" lon="9.480645"><ele>730.0</ele><time>2026-04-30T09:46:58.987Z</time></trkpt><trkpt lat="44.64938" lon="9.48064"><ele>728.0</ele><time>2026-04-30T09:46:59.99Z</time></trkpt><trkpt lat="44.6493017" lon="9.4806467"><ele>726.0</ele><time>2026-04-30T09:47:00.988Z</time></trkpt><trkpt lat="44.6492267" lon="9.4806483"><ele>724.0</ele><time>2026-04-30T09:47:01.988Z</time></trkpt><trkpt lat="44.6491583" lon="9.4806267"><ele>722.0</ele><time>2026-04-30T09:47:02.99Z</time></trkpt><trkpt lat="44.6490833" lon="9.4805967"><ele>720.0</ele><time>2026-04-30T09:47:03.986Z</time></trkpt><trkpt lat="44.6490033" lon="9.4805533"><ele>718.0</ele><time>2026-04-30T09:47:04.987Z</time></trkpt><trkpt lat="44.6489233" lon="9.4805"><ele>718.0</ele><time>2026-04-30T09:47:05.987Z</time></trkpt><trkpt lat="44.6488533" lon="9.4804483"><ele>718.0</ele><time>2026-04-30T09:47:06.988Z</time></trkpt><trkpt lat="44.648785" lon="9.4804017"><ele>718.0</ele><time>2026-04-30T09:47:07.987Z</time></trkpt><trkpt lat="44.6487183" lon="9.4803617"><ele>718.0</ele><time>2026-04-30T09:47:08.987Z</time></trkpt><trkpt lat="44.6486517" lon="9.4803333"><ele>718.0</ele><time>2026-04-30T09:47:09.987Z</time></trkpt><trkpt lat="44.648585" lon="9.4803183"><ele>718.0</ele><time>2026-04-30T09:47:10.987Z</time></trkpt><trkpt lat="44.6485217" lon="9.4803133"><ele>718.0</ele><time>2026-04-30T09:47:11.987Z</time></trkpt><trkpt lat="44.6484383" lon="9.4803417"><ele>719.0</ele><time>2026-04-30T09:47:13.987Z</time></trkpt><trkpt lat="44.6483767" lon="9.480425"><ele>720.0</ele><time>2026-04-30T09:47:15.987Z</time></trkpt><trkpt lat="44.6483367" lon="9.480515"><ele>721.0</ele><time>2026-04-30T09:47:17.988Z</time></trkpt><trkpt lat="44.6483017" lon="9.4806233"><ele>722.0</ele><time>2026-04-30T09:47:19.989Z</time></trkpt><trkpt lat="44.6483117" lon="9.4807483"><ele>723.0</ele><time>2026-04-30T09:47:21.988Z</time></trkpt><trkpt lat="44.6483717" lon="9.4808583"><ele>724.0</ele><time>2026-04-30T09:47:23.988Z</time></trkpt><trkpt lat="44.648455" lon="9.4809867"><ele>724.0</ele><time>2026-04-30T09:47:25.988Z</time></trkpt><trkpt lat="44.6485067" lon="9.4810683"><ele>724.0</ele><time>2026-04-30T09:47:26.989Z</time></trkpt><trkpt lat="44.6485633" lon="9.4811617"><ele>724.0</ele><time>2026-04-30T09:47:27.989Z</time></trkpt><trkpt lat="44.64861" lon="9.4812583"><ele>724.0</ele><time>2026-04-30T09:47:28.988Z</time></trkpt><trkpt lat="44.6486417" lon="9.4813567"><ele>724.0</ele><time>2026-04-30T09:47:29.988Z</time></trkpt><trkpt lat="44.6486583" lon="9.4814617"><ele>724.0</ele><time>2026-04-30T09:47:30.989Z</time></trkpt><trkpt lat="44.6486533" lon="9.481595"><ele>724.4000000000001</ele><time>2026-04-30T09:47:31.988Z</time></trkpt><trkpt lat="44.648635" lon="9.481755"><ele>724.8</ele><time>2026-04-30T09:47:32.987Z</time></trkpt><trkpt lat="44.6486117" lon="9.4818983"><ele>725.2</ele><time>2026-04-30T09:47:33.987Z</time></trkpt><trkpt lat="44.6485683" lon="9.48202"><ele>725.5999999999999</ele><time>2026-04-30T09:47:34.988Z</time></trkpt><trkpt lat="44.648505" lon="9.482125"><ele>726.0</ele><time>2026-04-30T09:47:35.986Z</time></trkpt><trkpt lat="44.64843" lon="9.482235"><ele>723.4</ele><time>2026-04-30T09:47:36.988Z</time></trkpt><trkpt lat="44.6483667" lon="9.4823633"><ele>720.8</ele><time>2026-04-30T09:47:37.989Z</time></trkpt><trkpt lat="44.64832" lon="9.4824917"><ele>718.1999999999999</ele><time>2026-04-30T09:47:38.988Z</time></trkpt><trkpt lat="44.648275" lon="9.482605"><ele>715.5999999999999</ele><time>2026-04-30T09:47:39.988Z</time></trkpt><trkpt lat="44.6482217" lon="9.4827033"><ele>713.0</ele><time>2026-04-30T09:47:40.986Z</time></trkpt><trkpt lat="44.64816" lon="9.4827917"><ele>713.0</ele><time>2026-04-30T09:47:41.989Z</time></trkpt><trkpt lat="44.6480967" lon="9.4828817"><ele>713.0</ele><time>2026-04-30T09:47:42.987Z</time></trkpt><trkpt lat="44.6480383" lon="9.4829683"><ele>713.0</ele><time>2026-04-30T09:47:43.987Z</time></trkpt><trkpt lat="44.6479783" lon="9.4830467"><ele>713.0</ele><time>2026-04-30T09:47:44.987Z</time></trkpt><trkpt lat="44.64792" lon="9.48311"><ele>713.0</ele><time>2026-04-30T09:47:45.987Z</time></trkpt><trkpt lat="44.6478683" lon="9.4831633"><ele>713.0</ele><time>2026-04-30T09:47:46.99Z</time></trkpt><trkpt lat="44.647815" lon="9.4832133"><ele>713.0</ele><time>2026-04-30T09:47:47.988Z</time></trkpt><trkpt lat="44.6477233" lon="9.483325"><ele>713.0</ele><time>2026-04-30T09:47:49.988Z</time></trkpt><trkpt lat="44.6476783" lon="9.4833967"><ele>713.0</ele><time>2026-04-30T09:47:50.991Z</time></trkpt><trkpt lat="44.6476333" lon="9.4834667"><ele>713.0</ele><time>2026-04-30T09:47:51.989Z</time></trkpt><trkpt lat="44.647595" lon="9.4835383"><ele>713.0</ele><time>2026-04-30T09:47:52.99Z</time></trkpt><trkpt lat="44.6475383" lon="9.48367"><ele>713.0</ele><time>2026-04-30T09:47:54.989Z</time></trkpt><trkpt lat="44.6475317" lon="9.4838167"><ele>713.0</ele><time>2026-04-30T09:47:56.988Z</time></trkpt><trkpt lat="44.64759" lon="9.4839583"><ele>713.0</ele><time>2026-04-30T09:47:58.987Z</time></trkpt><trkpt lat="44.6476567" lon="9.4840783"><ele>713.0</ele><time>2026-04-30T09:48:00.987Z</time></trkpt><trkpt lat="44.6477267" lon="9.4842283"><ele>713.0</ele><time>2026-04-30T09:48:02.988Z</time></trkpt><trkpt lat="44.6477633" lon="9.4843983"><ele>713.0</ele><time>2026-04-30T09:48:04.988Z</time></trkpt><trkpt lat="44.64776" lon="9.4845083"><ele>713.0</ele><time>2026-04-30T09:48:05.991Z</time></trkpt><trkpt lat="44.6477483" lon="9.484635"><ele>713.0</ele><time>2026-04-30T09:48:06.987Z</time></trkpt><trkpt lat="44.647745" lon="9.484765"><ele>713.0</ele><time>2026-04-30T09:48:07.987Z</time></trkpt><trkpt lat="44.647755" lon="9.4848817"><ele>713.0</ele><time>2026-04-30T09:48:08.989Z</time></trkpt><trkpt lat="44.6477867" lon="9.4849733"><ele>713.0</ele><time>2026-04-30T09:48:09.988Z</time></trkpt><trkpt lat="44.6478267" lon="9.485045"><ele>709.5714285714286</ele><time>2026-04-30T09:48:10.99Z</time></trkpt><trkpt lat="44.6478717" lon="9.4851133"><ele>706.1428571428572</ele><time>2026-04-30T09:48:11.988Z</time></trkpt><trkpt lat="44.6479233" lon="9.4851783"><ele>702.7142857142858</ele><time>2026-04-30T09:48:12.99Z</time></trkpt><trkpt lat="44.647975" lon="9.485245"><ele>699.2857142857142</ele><time>2026-04-30T09:48:13.987Z</time></trkpt><trkpt lat="44.648025" lon="9.4853167"><ele>695.8571428571429</ele><time>2026-04-30T09:48:14.988Z</time></trkpt><trkpt lat="44.6480617" lon="9.485405"><ele>692.4285714285714</ele><time>2026-04-30T09:48:15.988Z</time></trkpt><trkpt lat="44.6480667" lon="9.4855217"><ele>689.0</ele><time>2026-04-30T09:48:16.987Z</time></trkpt><trkpt lat="44.6480633" lon="9.4856517"><ele>689.0</ele><time>2026-04-30T09:48:17.99Z</time></trkpt><trkpt lat="44.648065" lon="9.48579"><ele>689.0</ele><time>2026-04-30T09:48:18.989Z</time></trkpt><trkpt lat="44.6480767" lon="9.4859167"><ele>689.0</ele><time>2026-04-30T09:48:19.989Z</time></trkpt><trkpt lat="44.6480817" lon="9.48603"><ele>689.0</ele><time>2026-04-30T09:48:20.991Z</time></trkpt><trkpt lat="44.6480783" lon="9.486135"><ele>689.0</ele><time>2026-04-30T09:48:21.989Z</time></trkpt><trkpt lat="44.64806" lon="9.486245"><ele>689.0</ele><time>2026-04-30T09:48:22.988Z</time></trkpt><trkpt lat="44.648035" lon="9.4863583"><ele>687.6666666666666</ele><time>2026-04-30T09:48:23.99Z</time></trkpt><trkpt lat="44.6480067" lon="9.4864717"><ele>686.3333333333333</ele><time>2026-04-30T09:48:24.989Z</time></trkpt><trkpt lat="44.6479683" lon="9.4865833"><ele>685.0</ele><time>2026-04-30T09:48:25.99Z</time></trkpt><trkpt lat="44.6479233" lon="9.48669"><ele>683.6666666666666</ele><time>2026-04-30T09:48:26.989Z</time></trkpt><trkpt lat="44.647875" lon="9.4867883"><ele>682.3333333333334</ele><time>2026-04-30T09:48:27.988Z</time></trkpt><trkpt lat="44.6478267" lon="9.4868833"><ele>681.0</ele><time>2026-04-30T09:48:28.989Z</time></trkpt><trkpt lat="44.6477733" lon="9.4869767"><ele>681.6666666666666</ele><time>2026-04-30T09:48:29.988Z</time></trkpt><trkpt lat="44.6477183" lon="9.4870633"><ele>682.3333333333334</ele><time>2026-04-30T09:48:30.987Z</time></trkpt><trkpt lat="44.6476633" lon="9.4871417"><ele>683.0</ele><time>2026-04-30T09:48:31.987Z</time></trkpt><trkpt lat="44.6475967" lon="9.4872033"><ele>683.6666666666667</ele><time>2026-04-30T09:48:32.987Z</time></trkpt><trkpt lat="44.6475133" lon="9.4872417"><ele>684.3333333333334</ele><time>2026-04-30T09:48:33.987Z</time></trkpt><trkpt lat="44.6474283" lon="9.4872667"><ele>685.0</ele><time>2026-04-30T09:48:34.988Z</time></trkpt><trkpt lat="44.647355" lon="9.4872917"><ele>685.0</ele><time>2026-04-30T09:48:35.988Z</time></trkpt><trkpt lat="44.647265" lon="9.4873867"><ele>685.0</ele><time>2026-04-30T09:48:37.988Z</time></trkpt><trkpt lat="44.6472667" lon="9.487525"><ele>685.0</ele><time>2026-04-30T09:48:39.987Z</time></trkpt><trkpt lat="44.6473133" lon="9.4875867"><ele>685.0</ele><time>2026-04-30T09:48:40.988Z</time></trkpt><trkpt lat="44.6473567" lon="9.4876533"><ele>685.0</ele><time>2026-04-30T09:48:41.989Z</time></trkpt><trkpt lat="44.6474017" lon="9.4877217"><ele>685.0</ele><time>2026-04-30T09:48:42.989Z</time></trkpt><trkpt lat="44.6474417" lon="9.487795"><ele>685.0</ele><time>2026-04-30T09:48:43.989Z</time></trkpt><trkpt lat="44.6474817" lon="9.4878783"><ele>685.0</ele><time>2026-04-30T09:48:44.988Z</time></trkpt><trkpt lat="44.6475117" lon="9.4879583"><ele>685.0</ele><time>2026-04-30T09:48:45.987Z</time></trkpt><trkpt lat="44.6475283" lon="9.488055"><ele>685.0</ele><time>2026-04-30T09:48:46.988Z</time></trkpt><trkpt lat="44.6475317" lon="9.488175"><ele>685.0</ele><time>2026-04-30T09:48:47.99Z</time></trkpt><trkpt lat="44.647535" lon="9.4883133"><ele>685.0</ele><time>2026-04-30T09:48:48.989Z</time></trkpt><trkpt lat="44.6475383" lon="9.4884683"><ele>683.2</ele><time>2026-04-30T09:48:49.989Z</time></trkpt><trkpt lat="44.6475483" lon="9.4886183"><ele>681.4</ele><time>2026-04-30T09:48:50.988Z</time></trkpt><trkpt lat="44.6475583" lon="9.4887583"><ele>679.5999999999999</ele><time>2026-04-30T09:48:51.987Z</time></trkpt><trkpt lat="44.6475567" lon="9.4888783"><ele>677.8</ele><time>2026-04-30T09:48:52.988Z</time></trkpt><trkpt lat="44.6475517" lon="9.488995"><ele>676.0</ele><time>2026-04-30T09:48:53.99Z</time></trkpt><trkpt lat="44.6475333" lon="9.4891133"><ele>674.5999999999999</ele><time>2026-04-30T09:48:54.989Z</time></trkpt><trkpt lat="44.647495" lon="9.4892283"><ele>673.2</ele><time>2026-04-30T09:48:55.987Z</time></trkpt><trkpt lat="44.6474583" lon="9.48935"><ele>671.8</ele><time>2026-04-30T09:48:56.987Z</time></trkpt><trkpt lat="44.647425" lon="9.48947"><ele>670.4000000000001</ele><time>2026-04-30T09:48:57.986Z</time></trkpt><trkpt lat="44.6473883" lon="9.4895883"><ele>669.0</ele><time>2026-04-30T09:48:58.987Z</time></trkpt><trkpt lat="44.647345" lon="9.4896983"><ele>667.8571428571429</ele><time>2026-04-30T09:48:59.989Z</time></trkpt><trkpt lat="44.6473017" lon="9.4898017"><ele>666.7142857142857</ele><time>2026-04-30T09:49:00.989Z</time></trkpt><trkpt lat="44.6472533" lon="9.4898883"><ele>665.5714285714286</ele><time>2026-04-30T09:49:01.987Z</time></trkpt><trkpt lat="44.6471983" lon="9.4899617"><ele>664.4285714285714</ele><time>2026-04-30T09:49:02.988Z</time></trkpt><trkpt lat="44.6471517" lon="9.4900367"><ele>663.2857142857143</ele><time>2026-04-30T09:49:03.991Z</time></trkpt><trkpt lat="44.647125" lon="9.4901267"><ele>662.1428571428571</ele><time>2026-04-30T09:49:04.988Z</time></trkpt><trkpt lat="44.6471167" lon="9.4902217"><ele>661.0</ele><time>2026-04-30T09:49:05.99Z</time></trkpt><trkpt lat="44.6471583" lon="9.4903767"><ele>660.0</ele><time>2026-04-30T09:49:07.99Z</time></trkpt><trkpt lat="44.647185" lon="9.4904617"><ele>659.0</ele><time>2026-04-30T09:49:08.989Z</time></trkpt><trkpt lat="44.6472083" lon="9.4905717"><ele>658.0</ele><time>2026-04-30T09:49:09.988Z</time></trkpt><trkpt lat="44.64723" lon="9.490705"><ele>657.0</ele><time>2026-04-30T09:49:10.99Z</time></trkpt><trkpt lat="44.64725" lon="9.490845"><ele>656.0</ele><time>2026-04-30T09:49:11.988Z</time></trkpt><trkpt lat="44.647275" lon="9.490975"><ele>655.0</ele><time>2026-04-30T09:49:12.989Z</time></trkpt><trkpt lat="44.6473017" lon="9.4911017"><ele>655.0</ele><time>2026-04-30T09:49:13.989Z</time></trkpt><trkpt lat="44.6473217" lon="9.4912283"><ele>655.0</ele><time>2026-04-30T09:49:14.99Z</time></trkpt><trkpt lat="44.647335" lon="9.4913517"><ele>655.0</ele><time>2026-04-30T09:49:15.991Z</time></trkpt><trkpt lat="44.6473383" lon="9.491475"><ele>655.0</ele><time>2026-04-30T09:49:16.987Z</time></trkpt><trkpt lat="44.6473333" lon="9.49159"><ele>655.0</ele><time>2026-04-30T09:49:17.989Z</time></trkpt><trkpt lat="44.6473233" lon="9.4916933"><ele>655.0</ele><time>2026-04-30T09:49:18.987Z</time></trkpt><trkpt lat="44.6473183" lon="9.4917933"><ele>655.1666666666667</ele><time>2026-04-30T09:49:19.988Z</time></trkpt><trkpt lat="44.6473083" lon="9.4918917"><ele>655.3333333333334</ele><time>2026-04-30T09:49:20.987Z</time></trkpt><trkpt lat="44.6472833" lon="9.4919833"><ele>655.5</ele><time>2026-04-30T09:49:21.989Z</time></trkpt><trkpt lat="44.6472367" lon="9.4920733"><ele>655.6666666666666</ele><time>2026-04-30T09:49:22.987Z</time></trkpt><trkpt lat="44.64717" lon="9.4921567"><ele>655.8333333333333</ele><time>2026-04-30T09:49:23.99Z</time></trkpt><trkpt lat="44.6471" lon="9.49223"><ele>656.0</ele><time>2026-04-30T09:49:24.987Z</time></trkpt><trkpt lat="44.647035" lon="9.4922983"><ele>655.6666666666666</ele><time>2026-04-30T09:49:25.987Z</time></trkpt><trkpt lat="44.6469717" lon="9.4923617"><ele>655.3333333333333</ele><time>2026-04-30T09:49:26.987Z</time></trkpt><trkpt lat="44.646905" lon="9.492425"><ele>655.0</ele><time>2026-04-30T09:49:27.987Z</time></trkpt><trkpt lat="44.6468383" lon="9.4924833"><ele>654.6666666666666</ele><time>2026-04-30T09:49:28.992Z</time></trkpt><trkpt lat="44.6467717" lon="9.4925433"><ele>654.3333333333334</ele><time>2026-04-30T09:49:29.989Z</time></trkpt><trkpt lat="44.646715" lon="9.492615"><ele>654.0</ele><time>2026-04-30T09:49:30.989Z</time></trkpt><trkpt lat="44.6466683" lon="9.4926983"><ele>654.6666666666666</ele><time>2026-04-30T09:49:31.989Z</time></trkpt><trkpt lat="44.64663" lon="9.4927933"><ele>655.3333333333334</ele><time>2026-04-30T09:49:32.989Z</time></trkpt><trkpt lat="44.6465933" lon="9.4929"><ele>656.0</ele><time>2026-04-30T09:49:33.99Z</time></trkpt><trkpt lat="44.6465533" lon="9.4930017"><ele>656.6666666666667</ele><time>2026-04-30T09:49:34.989Z</time></trkpt><trkpt lat="44.646505" lon="9.4930817"><ele>657.3333333333334</ele><time>2026-04-30T09:49:35.991Z</time></trkpt><trkpt lat="44.6464467" lon="9.4931383"><ele>658.0</ele><time>2026-04-30T09:49:36.99Z</time></trkpt><trkpt lat="44.6463617" lon="9.493175"><ele>658.0</ele><time>2026-04-30T09:49:37.988Z</time></trkpt><trkpt lat="44.6462717" lon="9.4931933"><ele>658.0</ele><time>2026-04-30T09:49:38.989Z</time></trkpt><trkpt lat="44.6461917" lon="9.49321"><ele>658.0</ele><time>2026-04-30T09:49:39.99Z</time></trkpt><trkpt lat="44.6461083" lon="9.49323"><ele>658.0</ele><time>2026-04-30T09:49:40.989Z</time></trkpt><trkpt lat="44.6460183" lon="9.4932467"><ele>658.0</ele><time>2026-04-30T09:49:41.989Z</time></trkpt><trkpt lat="44.6459283" lon="9.49326"><ele>658.0</ele><time>2026-04-30T09:49:42.99Z</time></trkpt><trkpt lat="44.64584" lon="9.4932767"><ele>658.8571428571429</ele><time>2026-04-30T09:49:43.989Z</time></trkpt><trkpt lat="44.6457633" lon="9.4932983"><ele>659.7142857142858</ele><time>2026-04-30T09:49:44.991Z</time></trkpt><trkpt lat="44.645705" lon="9.49334"><ele>660.5714285714286</ele><time>2026-04-30T09:49:45.988Z</time></trkpt><trkpt lat="44.64566" lon="9.493475"><ele>661.4285714285714</ele><time>2026-04-30T09:49:47.987Z</time></trkpt><trkpt lat="44.6456733" lon="9.4935633"><ele>662.2857142857143</ele><time>2026-04-30T09:49:48.988Z</time></trkpt><trkpt lat="44.64569" lon="9.4936517"><ele>663.1428571428571</ele><time>2026-04-30T09:49:49.988Z</time></trkpt><trkpt lat="44.6457033" lon="9.493745"><ele>664.0</ele><time>2026-04-30T09:49:50.987Z</time></trkpt><trkpt lat="44.6457133" lon="9.4938433"><ele>664.0</ele><time>2026-04-30T09:49:51.987Z</time></trkpt><trkpt lat="44.6457233" lon="9.493945"><ele>664.0</ele><time>2026-04-30T09:49:52.987Z</time></trkpt><trkpt lat="44.6457367" lon="9.4940467"><ele>664.0</ele><time>2026-04-30T09:49:53.988Z</time></trkpt><trkpt lat="44.645755" lon="9.4941483"><ele>664.0</ele><time>2026-04-30T09:49:54.99Z</time></trkpt><trkpt lat="44.6457717" lon="9.4942517"><ele>664.0</ele><time>2026-04-30T09:49:55.991Z</time></trkpt><trkpt lat="44.64579" lon="9.4943583"><ele>664.0</ele><time>2026-04-30T09:49:56.988Z</time></trkpt><trkpt lat="44.6458083" lon="9.4944633"><ele>664.0</ele><time>2026-04-30T09:49:57.988Z</time></trkpt><trkpt lat="44.6458183" lon="9.4945717"><ele>664.0</ele><time>2026-04-30T09:49:58.987Z</time></trkpt><trkpt lat="44.645825" lon="9.49468"><ele>664.0</ele><time>2026-04-30T09:49:59.987Z</time></trkpt><trkpt lat="44.6458333" lon="9.49478"><ele>664.0</ele><time>2026-04-30T09:50:00.988Z</time></trkpt><trkpt lat="44.6458483" lon="9.4948717"><ele>664.0</ele><time>2026-04-30T09:50:01.988Z</time></trkpt><trkpt lat="44.6458767" lon="9.495035"><ele>664.0</ele><time>2026-04-30T09:50:03.988Z</time></trkpt><trkpt lat="44.645855" lon="9.495175"><ele>661.6</ele><time>2026-04-30T09:50:05.988Z</time></trkpt><trkpt lat="44.6457933" lon="9.495295"><ele>659.2</ele><time>2026-04-30T09:50:07.989Z</time></trkpt><trkpt lat="44.645715" lon="9.4954017"><ele>656.8000000000001</ele><time>2026-04-30T09:50:09.987Z</time></trkpt><trkpt lat="44.6456367" lon="9.495515"><ele>654.4000000000001</ele><time>2026-04-30T09:50:11.987Z</time></trkpt><trkpt lat="44.6455683" lon="9.495615"><ele>652.0</ele><time>2026-04-30T09:50:13.989Z</time></trkpt><trkpt lat="44.6454783" lon="9.4957683"><ele>650.8333333333334</ele><time>2026-04-30T09:50:16.99Z</time></trkpt><trkpt lat="44.64542" lon="9.4958983"><ele>649.6666666666667</ele><time>2026-04-30T09:50:18.99Z</time></trkpt><trkpt lat="44.6453667" lon="9.4960583"><ele>648.5</ele><time>2026-04-30T09:50:20.989Z</time></trkpt><trkpt lat="44.6453417" lon="9.49614"><ele>647.3333333333334</ele><time>2026-04-30T09:50:21.989Z</time></trkpt><trkpt lat="44.6453167" lon="9.4962233"><ele>646.1666666666666</ele><time>2026-04-30T09:50:22.988Z</time></trkpt><trkpt lat="44.6452917" lon="9.4963133"><ele>645.0</ele><time>2026-04-30T09:50:23.989Z</time></trkpt><trkpt lat="44.6452717" lon="9.496405"><ele>645.0</ele><time>2026-04-30T09:50:24.99Z</time></trkpt><trkpt lat="44.6452583" lon="9.4964983"><ele>645.0</ele><time>2026-04-30T09:50:25.989Z</time></trkpt><trkpt lat="44.645255" lon="9.4965983"><ele>645.0</ele><time>2026-04-30T09:50:26.99Z</time></trkpt><trkpt lat="44.6452617" lon="9.4967"><ele>645.0</ele><time>2026-04-30T09:50:27.989Z</time></trkpt><trkpt lat="44.6452717" lon="9.4968033"><ele>645.0</ele><time>2026-04-30T09:50:28.99Z</time></trkpt><trkpt lat="44.6452883" lon="9.49691"><ele>645.0</ele><time>2026-04-30T09:50:29.991Z</time></trkpt><trkpt lat="44.645305" lon="9.4970167"><ele>645.0</ele><time>2026-04-30T09:50:30.99Z</time></trkpt><trkpt lat="44.6453267" lon="9.4971217"><ele>642.0</ele><time>2026-04-30T09:50:31.99Z</time></trkpt><trkpt lat="44.6453583" lon="9.4972233"><ele>639.0</ele><time>2026-04-30T09:50:32.99Z</time></trkpt><trkpt lat="44.6453883" lon="9.4973183"><ele>636.0</ele><time>2026-04-30T09:50:33.988Z</time></trkpt><trkpt lat="44.6454117" lon="9.497405"><ele>633.0</ele><time>2026-04-30T09:50:34.988Z</time></trkpt><trkpt lat="44.64544" lon="9.4975367"><ele>630.0</ele><time>2026-04-30T09:50:36.988Z</time></trkpt><trkpt lat="44.645465" lon="9.4976283"><ele>627.0</ele><time>2026-04-30T09:50:39.987Z</time></trkpt><trkpt lat="44.64548" lon="9.4977233"><ele>627.0</ele><time>2026-04-30T09:50:42.991Z</time></trkpt><trkpt lat="44.6454033" lon="9.49781"><ele>627.0</ele><time>2026-04-30T09:50:45.987Z</time></trkpt><trkpt lat="44.6453017" lon="9.4978483"><ele>627.0</ele><time>2026-04-30T09:50:47.988Z</time></trkpt><trkpt lat="44.6452067" lon="9.4978683"><ele>627.0</ele><time>2026-04-30T09:50:49.988Z</time></trkpt><trkpt lat="44.6451217" lon="9.49789"><ele>627.0</ele><time>2026-04-30T09:50:51.989Z</time></trkpt><trkpt lat="44.6450533" lon="9.4979283"><ele>627.0</ele><time>2026-04-30T09:50:53.989Z</time></trkpt><trkpt lat="44.6449783" lon="9.49799"><ele>627.0</ele><time>2026-04-30T09:50:56.988Z</time></trkpt><trkpt lat="44.6448917" lon="9.4980217"><ele>627.0</ele><time>2026-04-30T09:50:59.989Z</time></trkpt><trkpt lat="44.64481" lon="9.49804"><ele>627.0</ele><time>2026-04-30T09:51:01.988Z</time></trkpt><trkpt lat="44.6447" lon="9.4980583"><ele>627.0</ele><time>2026-04-30T09:51:03.989Z</time></trkpt><trkpt lat="44.6445733" lon="9.4980717"><ele>627.0</ele><time>2026-04-30T09:51:05.988Z</time></trkpt><trkpt lat="44.6444967" lon="9.4980633"><ele>627.0</ele><time>2026-04-30T09:51:06.988Z</time></trkpt><trkpt lat="44.6444233" lon="9.4980467"><ele>627.0</ele><time>2026-04-30T09:51:07.989Z</time></trkpt><trkpt lat="44.6443533" lon="9.4980333"><ele>627.0</ele><time>2026-04-30T09:51:08.988Z</time></trkpt><trkpt lat="44.6442867" lon="9.4979983"><ele>627.0</ele><time>2026-04-30T09:51:09.988Z</time></trkpt><trkpt lat="44.6442233" lon="9.4979583"><ele>627.0</ele><time>2026-04-30T09:51:10.988Z</time></trkpt><trkpt lat="44.6441033" lon="9.4979217"><ele>626.5</ele><time>2026-04-30T09:51:12.987Z</time></trkpt><trkpt lat="44.6440033" lon="9.4979633"><ele>626.0</ele><time>2026-04-30T09:51:14.99Z</time></trkpt><trkpt lat="44.6439517" lon="9.4980967"><ele>625.5</ele><time>2026-04-30T09:51:16.988Z</time></trkpt><trkpt lat="44.6439183" lon="9.49825"><ele>625.0</ele><time>2026-04-30T09:51:18.99Z</time></trkpt><trkpt lat="44.643845" lon="9.4984083"><ele>625.0</ele><time>2026-04-30T09:51:20.992Z</time></trkpt><trkpt lat="44.6437983" lon="9.4984917"><ele>625.0</ele><time>2026-04-30T09:51:21.988Z</time></trkpt><trkpt lat="44.6437517" lon="9.49858"><ele>625.0</ele><time>2026-04-30T09:51:22.989Z</time></trkpt><trkpt lat="44.6437067" lon="9.49867"><ele>625.0</ele><time>2026-04-30T09:51:23.989Z</time></trkpt><trkpt lat="44.6436617" lon="9.498755"><ele>625.0</ele><time>2026-04-30T09:51:24.989Z</time></trkpt><trkpt lat="44.6436133" lon="9.4988433"><ele>625.0</ele><time>2026-04-30T09:51:25.988Z</time></trkpt><trkpt lat="44.643565" lon="9.498925"><ele>625.0</ele><time>2026-04-30T09:51:26.989Z</time></trkpt><trkpt lat="44.6435233" lon="9.499015"><ele>625.0</ele><time>2026-04-30T09:51:27.988Z</time></trkpt><trkpt lat="44.64349" lon="9.4991133"><ele>625.0</ele><time>2026-04-30T09:51:28.988Z</time></trkpt><trkpt lat="44.6434717" lon="9.49922"><ele>625.0</ele><time>2026-04-30T09:51:29.987Z</time></trkpt><trkpt lat="44.6434683" lon="9.4993333"><ele>625.0</ele><time>2026-04-30T09:51:30.987Z</time></trkpt><trkpt lat="44.6434917" lon="9.4994717"><ele>625.0</ele><time>2026-04-30T09:51:31.987Z</time></trkpt><trkpt lat="44.6435583" lon="9.4995983"><ele>626.0</ele><time>2026-04-30T09:51:32.986Z</time></trkpt><trkpt lat="44.6436483" lon="9.49971"><ele>627.0</ele><time>2026-04-30T09:51:33.986Z</time></trkpt><trkpt lat="44.6437533" lon="9.4998067"><ele>628.0</ele><time>2026-04-30T09:51:34.987Z</time></trkpt><trkpt lat="44.6438517" lon="9.4999"><ele>629.0</ele><time>2026-04-30T09:51:35.988Z</time></trkpt><trkpt lat="44.6439417" lon="9.4999833"><ele>629.0</ele><time>2026-04-30T09:51:36.987Z</time></trkpt><trkpt lat="44.6440283" lon="9.50006"><ele>629.0</ele><time>2026-04-30T09:51:37.987Z</time></trkpt><trkpt lat="44.6441083" lon="9.5001233"><ele>629.0</ele><time>2026-04-30T09:51:38.989Z</time></trkpt><trkpt lat="44.6441883" lon="9.500185"><ele>629.0</ele><time>2026-04-30T09:51:39.986Z</time></trkpt><trkpt lat="44.6442717" lon="9.5002433"><ele>629.0</ele><time>2026-04-30T09:51:40.987Z</time></trkpt><trkpt lat="44.644355" lon="9.5003017"><ele>629.0</ele><time>2026-04-30T09:51:41.99Z</time></trkpt><trkpt lat="44.6444417" lon="9.5003583"><ele>629.0</ele><time>2026-04-30T09:51:42.986Z</time></trkpt><trkpt lat="44.644535" lon="9.5004217"><ele>629.0</ele><time>2026-04-30T09:51:43.988Z</time></trkpt><trkpt lat="44.64463" lon="9.5004917"><ele>629.0</ele><time>2026-04-30T09:51:44.986Z</time></trkpt><trkpt lat="44.6447233" lon="9.5005733"><ele>629.0</ele><time>2026-04-30T09:51:45.986Z</time></trkpt><trkpt lat="44.6448117" lon="9.50066"><ele>629.6</ele><time>2026-04-30T09:51:46.987Z</time></trkpt><trkpt lat="44.6448967" lon="9.5007467"><ele>630.2</ele><time>2026-04-30T09:51:47.986Z</time></trkpt><trkpt lat="44.6449717" lon="9.5008367"><ele>630.8000000000001</ele><time>2026-04-30T09:51:48.989Z</time></trkpt><trkpt lat="44.6450417" lon="9.5009333"><ele>631.4</ele><time>2026-04-30T09:51:49.989Z</time></trkpt><trkpt lat="44.645105" lon="9.5010367"><ele>632.0</ele><time>2026-04-30T09:51:50.989Z</time></trkpt><trkpt lat="44.6451633" lon="9.5011483"><ele>633.4</ele><time>2026-04-30T09:51:51.988Z</time></trkpt><trkpt lat="44.64522" lon="9.5012667"><ele>634.8000000000001</ele><time>2026-04-30T09:51:52.988Z</time></trkpt><trkpt lat="44.6452717" lon="9.5013933"><ele>636.2</ele><time>2026-04-30T09:51:53.988Z</time></trkpt><trkpt lat="44.6453217" lon="9.501535"><ele>637.6</ele><time>2026-04-30T09:51:54.989Z</time></trkpt><trkpt lat="44.6453533" lon="9.50168"><ele>639.0</ele><time>2026-04-30T09:51:55.987Z</time></trkpt><trkpt lat="44.6453883" lon="9.5018167"><ele>637.6</ele><time>2026-04-30T09:51:56.99Z</time></trkpt><trkpt lat="44.645425" lon="9.50195"><ele>636.2</ele><time>2026-04-30T09:51:57.989Z</time></trkpt><trkpt lat="44.6454617" lon="9.502075"><ele>634.8000000000001</ele><time>2026-04-30T09:51:58.989Z</time></trkpt><trkpt lat="44.6455017" lon="9.5022"><ele>633.4</ele><time>2026-04-30T09:51:59.987Z</time></trkpt><trkpt lat="44.6455433" lon="9.5023133"><ele>632.0</ele><time>2026-04-30T09:52:00.987Z</time></trkpt><trkpt lat="44.6455817" lon="9.5024133"><ele>632.0</ele><time>2026-04-30T09:52:01.99Z</time></trkpt><trkpt lat="44.64561" lon="9.5025067"><ele>632.0</ele><time>2026-04-30T09:52:02.986Z</time></trkpt><trkpt lat="44.645615" lon="9.5026583"><ele>632.0</ele><time>2026-04-30T09:52:04.988Z</time></trkpt><trkpt lat="44.6456267" lon="9.5027967"><ele>632.0</ele><time>2026-04-30T09:52:07.99Z</time></trkpt><trkpt lat="44.6456533" lon="9.5029367"><ele>632.0</ele><time>2026-04-30T09:58:52.99Z</time></trkpt><trkpt lat="44.6455767" lon="9.50291"><ele>632.0</ele><time>2026-04-30T09:58:56.988Z</time></trkpt><trkpt lat="44.6455933" lon="9.502765"><ele>632.0</ele><time>2026-04-30T09:58:59.986Z</time></trkpt><trkpt lat="44.6456133" lon="9.5026217"><ele>632.0</ele><time>2026-04-30T09:59:01.987Z</time></trkpt><trkpt lat="44.6455967" lon="9.5024733"><ele>632.0</ele><time>2026-04-30T09:59:03.986Z</time></trkpt><trkpt lat="44.6455783" lon="9.502385"><ele>632.0</ele><time>2026-04-30T09:59:04.987Z</time></trkpt><trkpt lat="44.6455533" lon="9.502295"><ele>632.0</ele><time>2026-04-30T09:59:05.986Z</time></trkpt><trkpt lat="44.6455067" lon="9.5021467"><ele>630.5</ele><time>2026-04-30T09:59:07.989Z</time></trkpt><trkpt lat="44.6454667" lon="9.5019967"><ele>629.0</ele><time>2026-04-30T09:59:09.986Z</time></trkpt><trkpt lat="44.6454367" lon="9.5019033"><ele>627.5</ele><time>2026-04-30T09:59:10.988Z</time></trkpt><trkpt lat="44.6454033" lon="9.5017983"><ele>626.0</ele><time>2026-04-30T09:59:11.987Z</time></trkpt><trkpt lat="44.645375" lon="9.5016933"><ele>624.5</ele><time>2026-04-30T09:59:12.989Z</time></trkpt><trkpt lat="44.6453483" lon="9.5015883"><ele>623.0</ele><time>2026-04-30T09:59:13.987Z</time></trkpt><trkpt lat="44.64532" lon="9.501485"><ele>624.5</ele><time>2026-04-30T09:59:14.988Z</time></trkpt><trkpt lat="44.645285" lon="9.5013867"><ele>626.0</ele><time>2026-04-30T09:59:15.987Z</time></trkpt><trkpt lat="44.6452533" lon="9.5012833"><ele>627.5</ele><time>2026-04-30T09:59:16.987Z</time></trkpt><trkpt lat="44.6452217" lon="9.5011867"><ele>629.0</ele><time>2026-04-30T09:59:17.988Z</time></trkpt><trkpt lat="44.6451817" lon="9.501095"><ele>630.5</ele><time>2026-04-30T09:59:18.988Z</time></trkpt><trkpt lat="44.6451367" lon="9.50101"><ele>632.0</ele><time>2026-04-30T09:59:19.987Z</time></trkpt><trkpt lat="44.6450883" lon="9.5009183"><ele>632.0</ele><time>2026-04-30T09:59:20.987Z</time></trkpt><trkpt lat="44.645035" lon="9.5008317"><ele>632.0</ele><time>2026-04-30T09:59:21.988Z</time></trkpt><trkpt lat="44.64497" lon="9.5007517"><ele>632.0</ele><time>2026-04-30T09:59:22.988Z</time></trkpt><trkpt lat="44.6448983" lon="9.5006733"><ele>632.0</ele><time>2026-04-30T09:59:23.988Z</time></trkpt><trkpt lat="44.6448283" lon="9.5006017"><ele>632.0</ele><time>2026-04-30T09:59:24.991Z</time></trkpt><trkpt lat="44.64476" lon="9.5005333"><ele>632.0</ele><time>2026-04-30T09:59:25.986Z</time></trkpt><trkpt lat="44.6446883" lon="9.5004667"><ele>631.5</ele><time>2026-04-30T09:59:26.988Z</time></trkpt><trkpt lat="44.6446117" lon="9.5004083"><ele>631.0</ele><time>2026-04-30T09:59:27.987Z</time></trkpt><trkpt lat="44.64453" lon="9.50036"><ele>630.5</ele><time>2026-04-30T09:59:28.987Z</time></trkpt><trkpt lat="44.6444417" lon="9.500315"><ele>630.0</ele><time>2026-04-30T09:59:29.988Z</time></trkpt><trkpt lat="44.64436" lon="9.5002617"><ele>629.5</ele><time>2026-04-30T09:59:30.987Z</time></trkpt><trkpt lat="44.6442833" lon="9.5002017"><ele>629.0</ele><time>2026-04-30T09:59:31.988Z</time></trkpt><trkpt lat="44.6442117" lon="9.5001417"><ele>629.0</ele><time>2026-04-30T09:59:32.989Z</time></trkpt><trkpt lat="44.644135" lon="9.5000883"><ele>629.0</ele><time>2026-04-30T09:59:33.989Z</time></trkpt><trkpt lat="44.6440617" lon="9.5000317"><ele>629.0</ele><time>2026-04-30T09:59:34.988Z</time></trkpt><trkpt lat="44.64399" lon="9.4999733"><ele>629.0</ele><time>2026-04-30T09:59:35.988Z</time></trkpt><trkpt lat="44.643925" lon="9.4999133"><ele>629.0</ele><time>2026-04-30T09:59:36.988Z</time></trkpt><trkpt lat="44.6438633" lon="9.499855"><ele>629.0</ele><time>2026-04-30T09:59:37.989Z</time></trkpt><trkpt lat="44.6438017" lon="9.4997967"><ele>629.0</ele><time>2026-04-30T09:59:38.988Z</time></trkpt><trkpt lat="44.6437417" lon="9.4997317"><ele>629.0</ele><time>2026-04-30T09:59:39.989Z</time></trkpt><trkpt lat="44.64368" lon="9.499665"><ele>629.0</ele><time>2026-04-30T09:59:40.987Z</time></trkpt><trkpt lat="44.64362" lon="9.49959"><ele>629.0</ele><time>2026-04-30T09:59:41.987Z</time></trkpt><trkpt lat="44.6435617" lon="9.499505"><ele>629.0</ele><time>2026-04-30T09:59:42.989Z</time></trkpt><trkpt lat="44.6435167" lon="9.4994"><ele>629.0</ele><time>2026-04-30T09:59:43.986Z</time></trkpt><trkpt lat="44.6435017" lon="9.4992767"><ele>628.2</ele><time>2026-04-30T09:59:44.987Z</time></trkpt><trkpt lat="44.643515" lon="9.4991433"><ele>627.4</ele><time>2026-04-30T09:59:45.986Z</time></trkpt><trkpt lat="44.6435567" lon="9.499015"><ele>626.6</ele><time>2026-04-30T09:59:46.988Z</time></trkpt><trkpt lat="44.643615" lon="9.498905"><ele>625.8</ele><time>2026-04-30T09:59:47.988Z</time></trkpt><trkpt lat="44.6436733" lon="9.4988067"><ele>625.0</ele><time>2026-04-30T09:59:48.988Z</time></trkpt><trkpt lat="44.6437283" lon="9.4987083"><ele>625.0</ele><time>2026-04-30T09:59:49.99Z</time></trkpt><trkpt lat="44.64378" lon="9.4986083"><ele>625.0</ele><time>2026-04-30T09:59:50.988Z</time></trkpt><trkpt lat="44.6438283" lon="9.4985133"><ele>625.0</ele><time>2026-04-30T09:59:51.988Z</time></trkpt><trkpt lat="44.643875" lon="9.49842"><ele>625.0</ele><time>2026-04-30T09:59:52.989Z</time></trkpt><trkpt lat="44.6439217" lon="9.4983267"><ele>625.0</ele><time>2026-04-30T09:59:53.988Z</time></trkpt><trkpt lat="44.6439617" lon="9.4982383"><ele>625.0</ele><time>2026-04-30T09:59:54.988Z</time></trkpt><trkpt lat="44.6439967" lon="9.4981567"><ele>625.0</ele><time>2026-04-30T09:59:55.989Z</time></trkpt><trkpt lat="44.6440517" lon="9.4980517"><ele>625.0</ele><time>2026-04-30T09:59:57.988Z</time></trkpt><trkpt lat="44.6440883" lon="9.497955"><ele>625.0</ele><time>2026-04-30T10:00:00.989Z</time></trkpt><trkpt lat="44.6440017" lon="9.4979683"><ele>625.0</ele><time>2026-04-30T10:00:04.989Z</time></trkpt><trkpt lat="44.6440133" lon="9.4980867"><ele>625.0</ele><time>2026-04-30T10:00:07.989Z</time></trkpt><trkpt lat="44.64409" lon="9.4981517"><ele>625.0</ele><time>2026-04-30T10:00:09.989Z</time></trkpt><trkpt lat="44.6442017" lon="9.4982167"><ele>625.0</ele><time>2026-04-30T10:00:11.989Z</time></trkpt><trkpt lat="44.6442633" lon="9.4982517"><ele>625.0</ele><time>2026-04-30T10:00:12.987Z</time></trkpt><trkpt lat="44.644325" lon="9.4982833"><ele>625.0</ele><time>2026-04-30T10:00:13.986Z</time></trkpt><trkpt lat="44.6443883" lon="9.4983133"><ele>625.0</ele><time>2026-04-30T10:00:14.988Z</time></trkpt><trkpt lat="44.6444933" lon="9.49838"><ele>625.0</ele><time>2026-04-30T10:00:16.986Z</time></trkpt><trkpt lat="44.6445833" lon="9.498465"><ele>625.0</ele><time>2026-04-30T10:00:18.988Z</time></trkpt><trkpt lat="44.6446767" lon="9.4985083"><ele>625.3333333333334</ele><time>2026-04-30T10:00:20.987Z</time></trkpt><trkpt lat="44.64477" lon="9.498525"><ele>625.6666666666667</ele><time>2026-04-30T10:00:22.993Z</time></trkpt><trkpt lat="44.6448617" lon="9.4985383"><ele>626.0</ele><time>2026-04-30T10:00:24.987Z</time></trkpt><trkpt lat="44.6449417" lon="9.4985817"><ele>626.3333333333334</ele><time>2026-04-30T10:00:26.988Z</time></trkpt><trkpt lat="44.64501" lon="9.4986067"><ele>626.6666666666666</ele><time>2026-04-30T10:00:28.987Z</time></trkpt><trkpt lat="44.6450933" lon="9.49858"><ele>627.0</ele><time>2026-04-30T10:00:31.988Z</time></trkpt><trkpt lat="44.64515" lon="9.4985283"><ele>627.0</ele><time>2026-04-30T10:00:33.989Z</time></trkpt><trkpt lat="44.6452267" lon="9.4985217"><ele>627.0</ele><time>2026-04-30T10:00:35.988Z</time></trkpt><trkpt lat="44.6453083" lon="9.4984967"><ele>627.0</ele><time>2026-04-30T10:00:37.989Z</time></trkpt><trkpt lat="44.6453817" lon="9.49844"><ele>627.0</ele><time>2026-04-30T10:00:39.987Z</time></trkpt><trkpt lat="44.645435" lon="9.49837"><ele>627.0</ele><time>2026-04-30T10:00:41.987Z</time></trkpt><trkpt lat="44.6454783" lon="9.4982967"><ele>627.0</ele><time>2026-04-30T10:00:44.988Z</time></trkpt><trkpt lat="44.6453917" lon="9.4983817"><ele>627.0</ele><time>2026-04-30T10:02:25.987Z</time></trkpt><trkpt lat="44.6453317" lon="9.4984333"><ele>627.0</ele><time>2026-04-30T10:02:26.989Z</time></trkpt><trkpt lat="44.645225" lon="9.4985067"><ele>627.0</ele><time>2026-04-30T10:02:28.988Z</time></trkpt><trkpt lat="44.6451467" lon="9.4985833"><ele>627.0</ele><time>2026-04-30T10:02:30.989Z</time></trkpt><trkpt lat="44.645235" lon="9.49866"><ele>627.0</ele><time>2026-04-30T10:02:33.989Z</time></trkpt><trkpt lat="44.6453017" lon="9.49866"><ele>626.0</ele><time>2026-04-30T10:02:34.989Z</time></trkpt><trkpt lat="44.6453767" lon="9.4986633"><ele>625.0</ele><time>2026-04-30T10:02:35.988Z</time></trkpt><trkpt lat="44.645455" lon="9.4986633"><ele>624.0</ele><time>2026-04-30T10:02:36.99Z</time></trkpt><trkpt lat="44.6455317" lon="9.4986633"><ele>623.0</ele><time>2026-04-30T10:02:37.989Z</time></trkpt><trkpt lat="44.6456067" lon="9.498675"><ele>622.0</ele><time>2026-04-30T10:02:38.99Z</time></trkpt><trkpt lat="44.645685" lon="9.4986883"><ele>621.0</ele><time>2026-04-30T10:02:39.99Z</time></trkpt><trkpt lat="44.6457533" lon="9.49871"><ele>621.4</ele><time>2026-04-30T10:02:40.988Z</time></trkpt><trkpt lat="44.6458633" lon="9.498775"><ele>621.8</ele><time>2026-04-30T10:02:42.99Z</time></trkpt><trkpt lat="44.6459633" lon="9.4988467"><ele>622.1999999999999</ele><time>2026-04-30T10:02:44.988Z</time></trkpt><trkpt lat="44.646055" lon="9.498895"><ele>622.6</ele><time>2026-04-30T10:02:46.987Z</time></trkpt><trkpt lat="44.6461333" lon="9.4989483"><ele>623.0</ele><time>2026-04-30T10:03:09.988Z</time></trkpt><trkpt lat="44.6460567" lon="9.4989333"><ele>622.6</ele><time>2026-04-30T10:03:12.988Z</time></trkpt><trkpt lat="44.645945" lon="9.498835"><ele>622.1999999999999</ele><time>2026-04-30T10:03:14.988Z</time></trkpt><trkpt lat="44.64587" lon="9.498775"><ele>621.8</ele><time>2026-04-30T10:03:15.991Z</time></trkpt><trkpt lat="44.6458" lon="9.4987233"><ele>621.4</ele><time>2026-04-30T10:03:16.987Z</time></trkpt><trkpt lat="44.6457267" lon="9.4986883"><ele>621.0</ele><time>2026-04-30T10:03:17.988Z</time></trkpt><trkpt lat="44.6456517" lon="9.4986633"><ele>621.0</ele><time>2026-04-30T10:03:18.989Z</time></trkpt><trkpt lat="44.64557" lon="9.4986533"><ele>621.0</ele><time>2026-04-30T10:03:19.988Z</time></trkpt><trkpt lat="44.6454833" lon="9.498655"><ele>621.0</ele><time>2026-04-30T10:03:20.991Z</time></trkpt><trkpt lat="44.6454" lon="9.498655"><ele>621.0</ele><time>2026-04-30T10:03:21.989Z</time></trkpt><trkpt lat="44.64531" lon="9.4986667"><ele>621.0</ele><time>2026-04-30T10:03:22.99Z</time></trkpt><trkpt lat="44.6452333" lon="9.4986767"><ele>621.0</ele><time>2026-04-30T10:03:23.99Z</time></trkpt><trkpt lat="44.6451367" lon="9.4986817"><ele>620.1666666666666</ele><time>2026-04-30T10:03:25.99Z</time></trkpt><trkpt lat="44.6450783" lon="9.4987633"><ele>619.3333333333334</ele><time>2026-04-30T10:03:27.99Z</time></trkpt><trkpt lat="44.64505" lon="9.4989417"><ele>618.5</ele><time>2026-04-30T10:03:29.989Z</time></trkpt><trkpt lat="44.64503" lon="9.499035"><ele>617.6666666666667</ele><time>2026-04-30T10:03:30.997Z</time></trkpt><trkpt lat="44.6449983" lon="9.4991217"><ele>616.8333333333334</ele><time>2026-04-30T10:03:31.989Z</time></trkpt><trkpt lat="44.6449933" lon="9.499255"><ele>616.0</ele><time>2026-04-30T10:03:33.99Z</time></trkpt><trkpt lat="44.64509" lon="9.499335"><ele>616.0</ele><time>2026-04-30T10:03:35.988Z</time></trkpt><trkpt lat="44.6451683" lon="9.4993917"><ele>616.0</ele><time>2026-04-30T10:03:36.986Z</time></trkpt><trkpt lat="44.6452583" lon="9.499465"><ele>616.0</ele><time>2026-04-30T10:03:37.995Z</time></trkpt><trkpt lat="44.6453633" lon="9.49955"><ele>616.0</ele><time>2026-04-30T10:03:38.986Z</time></trkpt><trkpt lat="44.64547" lon="9.499625"><ele>616.0</ele><time>2026-04-30T10:03:39.989Z</time></trkpt><trkpt lat="44.6455733" lon="9.4996917"><ele>615.3333333333334</ele><time>2026-04-30T10:03:40.987Z</time></trkpt><trkpt lat="44.64565" lon="9.4997467"><ele>614.6666666666667</ele><time>2026-04-30T10:03:41.987Z</time></trkpt><trkpt lat="44.645715" lon="9.499795"><ele>614.0</ele><time>2026-04-30T10:03:42.99Z</time></trkpt><trkpt lat="44.645775" lon="9.4998367"><ele>613.3333333333334</ele><time>2026-04-30T10:03:43.987Z</time></trkpt><trkpt lat="44.6458317" lon="9.49988"><ele>612.6666666666666</ele><time>2026-04-30T10:03:44.988Z</time></trkpt><trkpt lat="44.645935" lon="9.4999517"><ele>612.0</ele><time>2026-04-30T10:03:46.987Z</time></trkpt><trkpt lat="44.64601" lon="9.500025"><ele>612.0</ele><time>2026-04-30T10:03:48.99Z</time></trkpt><trkpt lat="44.6460783" lon="9.50007"><ele>612.0</ele><time>2026-04-30T10:03:50.988Z</time></trkpt><trkpt lat="44.64615" lon="9.5000717"><ele>612.0</ele><time>2026-04-30T10:03:52.989Z</time></trkpt><trkpt lat="44.6462333" lon="9.5000717"><ele>612.0</ele><time>2026-04-30T10:03:54.99Z</time></trkpt><trkpt lat="44.6463067" lon="9.5000767"><ele>612.0</ele><time>2026-04-30T10:03:56.989Z</time></trkpt><trkpt lat="44.6463833" lon="9.5000867"><ele>612.0</ele><time>2026-04-30T10:04:15.988Z</time></trkpt><trkpt lat="44.6464617" lon="9.5001"><ele>612.1666666666666</ele><time>2026-04-30T10:04:32.987Z</time></trkpt><trkpt lat="44.6465467" lon="9.500065"><ele>612.3333333333334</ele><time>2026-04-30T10:04:35.987Z</time></trkpt><trkpt lat="44.64663" lon="9.500055"><ele>612.5</ele><time>2026-04-30T10:04:38.987Z</time></trkpt><trkpt lat="44.6466767" lon="9.5001517"><ele>612.6666666666667</ele><time>2026-04-30T10:04:42.987Z</time></trkpt><trkpt lat="44.6467217" lon="9.500295"><ele>612.8333333333334</ele><time>2026-04-30T10:04:45.987Z</time></trkpt><trkpt lat="44.6467383" lon="9.5003817"><ele>613.0</ele><time>2026-04-30T10:04:46.987Z</time></trkpt><trkpt lat="44.6467567" lon="9.50049"><ele>613.0</ele><time>2026-04-30T10:04:47.991Z</time></trkpt><trkpt lat="44.64678" lon="9.500605"><ele>613.0</ele><time>2026-04-30T10:04:48.987Z</time></trkpt><trkpt lat="44.646805" lon="9.50072"><ele>613.0</ele><time>2026-04-30T10:04:49.988Z</time></trkpt><trkpt lat="44.64683" lon="9.50083"><ele>613.0</ele><time>2026-04-30T10:04:50.987Z</time></trkpt><trkpt lat="44.6468517" lon="9.5009333"><ele>613.0</ele><time>2026-04-30T10:04:51.987Z</time></trkpt><trkpt lat="44.6468733" lon="9.5010367"><ele>613.0</ele><time>2026-04-30T10:04:52.988Z</time></trkpt><trkpt lat="44.6468867" lon="9.5011417"><ele>613.0</ele><time>2026-04-30T10:04:53.989Z</time></trkpt><trkpt lat="44.6469083" lon="9.5012467"><ele>613.0</ele><time>2026-04-30T10:04:54.989Z</time></trkpt><trkpt lat="44.646935" lon="9.5013467"><ele>613.0</ele><time>2026-04-30T10:04:55.988Z</time></trkpt><trkpt lat="44.6469683" lon="9.5014417"><ele>613.0</ele><time>2026-04-30T10:04:56.989Z</time></trkpt><trkpt lat="44.6470033" lon="9.5015333"><ele>613.0</ele><time>2026-04-30T10:04:57.988Z</time></trkpt><trkpt lat="44.6470367" lon="9.50162"><ele>613.0</ele><time>2026-04-30T10:04:58.986Z</time></trkpt><trkpt lat="44.647065" lon="9.5017033"><ele>613.0</ele><time>2026-04-30T10:04:59.992Z</time></trkpt><trkpt lat="44.6470867" lon="9.50179"><ele>612.6</ele><time>2026-04-30T10:05:00.989Z</time></trkpt><trkpt lat="44.6471233" lon="9.5019633"><ele>612.1999999999999</ele><time>2026-04-30T10:05:02.987Z</time></trkpt><trkpt lat="44.647145" lon="9.50205"><ele>611.8</ele><time>2026-04-30T10:05:03.988Z</time></trkpt><trkpt lat="44.6471917" lon="9.5022017"><ele>611.4</ele><time>2026-04-30T10:05:05.989Z</time></trkpt><trkpt lat="44.64722" lon="9.5023317"><ele>611.0</ele><time>2026-04-30T10:05:07.987Z</time></trkpt><trkpt lat="44.647245" lon="9.50244"><ele>611.0</ele><time>2026-04-30T10:05:09.988Z</time></trkpt><trkpt lat="44.647275" lon="9.5025483"><ele>611.0</ele><time>2026-04-30T10:05:12.988Z</time></trkpt><trkpt lat="44.6473317" lon="9.5026033"><ele>611.0</ele><time>2026-04-30T10:05:15.986Z</time></trkpt><trkpt lat="44.6473617" lon="9.5024967"><ele>611.0</ele><time>2026-04-30T10:05:18.989Z</time></trkpt><trkpt lat="44.6473533" lon="9.5023717"><ele>611.0</ele><time>2026-04-30T10:05:20.987Z</time></trkpt><trkpt lat="44.6473883" lon="9.5022583"><ele>611.0</ele><time>2026-04-30T10:05:22.988Z</time></trkpt><trkpt lat="44.6474767" lon="9.5021833"><ele>611.0</ele><time>2026-04-30T10:05:24.987Z</time></trkpt><trkpt lat="44.6475433" lon="9.50217"><ele>611.0</ele><time>2026-04-30T10:05:25.988Z</time></trkpt><trkpt lat="44.647615" lon="9.502165"><ele>611.0</ele><time>2026-04-30T10:05:26.987Z</time></trkpt><trkpt lat="44.6476833" lon="9.5021517"><ele>611.0</ele><time>2026-04-30T10:05:27.986Z</time></trkpt><trkpt lat="44.64778" lon="9.50209"><ele>611.0</ele><time>2026-04-30T10:05:29.988Z</time></trkpt><trkpt lat="44.6478467" lon="9.5020983"><ele>611.0</ele><time>2026-04-30T10:05:31.987Z</time></trkpt><trkpt lat="44.6479017" lon="9.5022"><ele>615.6</ele><time>2026-04-30T10:05:33.988Z</time></trkpt><trkpt lat="44.6479617" lon="9.5023717"><ele>620.2</ele><time>2026-04-30T10:05:35.99Z</time></trkpt><trkpt lat="44.64799" lon="9.5024833"><ele>624.8</ele><time>2026-04-30T10:05:36.987Z</time></trkpt><trkpt lat="44.6480083" lon="9.5026183"><ele>629.4</ele><time>2026-04-30T10:05:37.989Z</time></trkpt><trkpt lat="44.6480133" lon="9.5027667"><ele>634.0</ele><time>2026-04-30T10:05:38.988Z</time></trkpt><trkpt lat="44.64802" lon="9.50291"><ele>632.8</ele><time>2026-04-30T10:05:39.989Z</time></trkpt><trkpt lat="44.6480383" lon="9.5030417"><ele>631.5999999999999</ele><time>2026-04-30T10:05:40.988Z</time></trkpt><trkpt lat="44.6480583" lon="9.5031683"><ele>630.4</ele><time>2026-04-30T10:05:41.987Z</time></trkpt><trkpt lat="44.6480817" lon="9.5032933"><ele>629.1999999999999</ele><time>2026-04-30T10:05:42.989Z</time></trkpt><trkpt lat="44.648115" lon="9.5034167"><ele>628.0</ele><time>2026-04-30T10:05:43.988Z</time></trkpt><trkpt lat="44.6481583" lon="9.5035383"><ele>628.0</ele><time>2026-04-30T10:05:44.989Z</time></trkpt><trkpt lat="44.648205" lon="9.5036617"><ele>628.0</ele><time>2026-04-30T10:05:45.987Z</time></trkpt><trkpt lat="44.6482567" lon="9.5037883"><ele>628.0</ele><time>2026-04-30T10:05:46.988Z</time></trkpt><trkpt lat="44.6483067" lon="9.503905"><ele>628.0</ele><time>2026-04-30T10:05:47.988Z</time></trkpt><trkpt lat="44.6483483" lon="9.5040033"><ele>628.0</ele><time>2026-04-30T10:05:48.987Z</time></trkpt><trkpt lat="44.6483883" lon="9.5040933"><ele>627.0</ele><time>2026-04-30T10:05:49.989Z</time></trkpt><trkpt lat="44.6484567" lon="9.5042117"><ele>626.0</ele><time>2026-04-30T10:05:51.988Z</time></trkpt><trkpt lat="44.6485367" lon="9.5042017"><ele>625.0</ele><time>2026-04-30T10:05:53.987Z</time></trkpt><trkpt lat="44.648615" lon="9.5041367"><ele>624.0</ele><time>2026-04-30T10:05:55.991Z</time></trkpt><trkpt lat="44.6487" lon="9.50411"><ele>623.0</ele><time>2026-04-30T10:06:11.989Z</time></trkpt><trkpt lat="44.6487683" lon="9.5042233"><ele>623.25</ele><time>2026-04-30T10:06:13.99Z</time></trkpt><trkpt lat="44.6488233" lon="9.5043317"><ele>623.5</ele><time>2026-04-30T10:06:14.988Z</time></trkpt><trkpt lat="44.6489067" lon="9.5044383"><ele>623.75</ele><time>2026-04-30T10:06:15.987Z</time></trkpt><trkpt lat="44.64902" lon="9.50452"><ele>624.0</ele><time>2026-04-30T10:06:16.987Z</time></trkpt><trkpt lat="44.64915" lon="9.5045817"><ele>624.0</ele><time>2026-04-30T10:06:17.987Z</time></trkpt><trkpt lat="44.6492817" lon="9.504625"><ele>624.0</ele><time>2026-04-30T10:06:18.988Z</time></trkpt><trkpt lat="44.6494067" lon="9.50466"><ele>624.0</ele><time>2026-04-30T10:06:19.987Z</time></trkpt><trkpt lat="44.649525" lon="9.5047033"><ele>624.0</ele><time>2026-04-30T10:06:20.99Z</time></trkpt><trkpt lat="44.6496483" lon="9.5047417"><ele>625.75</ele><time>2026-04-30T10:06:21.987Z</time></trkpt><trkpt lat="44.64977" lon="9.504775"><ele>627.5</ele><time>2026-04-30T10:06:22.986Z</time></trkpt><trkpt lat="44.6498917" lon="9.504805"><ele>629.25</ele><time>2026-04-30T10:06:23.994Z</time></trkpt><trkpt lat="44.6500133" lon="9.5048333"><ele>631.0</ele><time>2026-04-30T10:06:24.988Z</time></trkpt><trkpt lat="44.6501317" lon="9.50487"><ele>631.0</ele><time>2026-04-30T10:06:25.987Z</time></trkpt><trkpt lat="44.6502483" lon="9.5049183"><ele>631.0</ele><time>2026-04-30T10:06:26.987Z</time></trkpt><trkpt lat="44.650355" lon="9.5049683"><ele>631.0</ele><time>2026-04-30T10:06:27.989Z</time></trkpt><trkpt lat="44.65046" lon="9.5050183"><ele>631.0</ele><time>2026-04-30T10:06:28.987Z</time></trkpt><trkpt lat="44.65056" lon="9.50507"><ele>635.2</ele><time>2026-04-30T10:06:29.989Z</time></trkpt><trkpt lat="44.650655" lon="9.5051267"><ele>639.4000000000001</ele><time>2026-04-30T10:06:30.987Z</time></trkpt><trkpt lat="44.650745" lon="9.5051867"><ele>643.6</ele><time>2026-04-30T10:06:31.988Z</time></trkpt><trkpt lat="44.6508317" lon="9.5052517"><ele>647.8000000000001</ele><time>2026-04-30T10:06:32.988Z</time></trkpt><trkpt lat="44.6509117" lon="9.5053217"><ele>652.0</ele><time>2026-04-30T10:06:33.991Z</time></trkpt><trkpt lat="44.6509983" lon="9.505385"><ele>650.0</ele><time>2026-04-30T10:06:34.989Z</time></trkpt><trkpt lat="44.6510833" lon="9.5054517"><ele>648.0</ele><time>2026-04-30T10:06:35.989Z</time></trkpt><trkpt lat="44.6511467" lon="9.5055283"><ele>646.0</ele><time>2026-04-30T10:06:36.993Z</time></trkpt><trkpt lat="44.651185" lon="9.5056183"><ele>644.0</ele><time>2026-04-30T10:06:37.987Z</time></trkpt><trkpt lat="44.6511967" lon="9.5057333"><ele>642.0</ele><time>2026-04-30T10:06:38.99Z</time></trkpt><trkpt lat="44.6511717" lon="9.5058533"><ele>640.0</ele><time>2026-04-30T10:06:39.987Z</time></trkpt><trkpt lat="44.651145" lon="9.5059817"><ele>643.0</ele><time>2026-04-30T10:06:40.987Z</time></trkpt><trkpt lat="44.6511383" lon="9.5061083"><ele>646.0</ele><time>2026-04-30T10:06:41.987Z</time></trkpt><trkpt lat="44.65115" lon="9.506235"><ele>649.0</ele><time>2026-04-30T10:06:42.989Z</time></trkpt><trkpt lat="44.651185" lon="9.5063417"><ele>652.0</ele><time>2026-04-30T10:06:43.988Z</time></trkpt><trkpt lat="44.6512683" lon="9.5064267"><ele>655.0</ele><time>2026-04-30T10:06:44.989Z</time></trkpt><trkpt lat="44.651365" lon="9.50648"><ele>655.0</ele><time>2026-04-30T10:06:45.988Z</time></trkpt><trkpt lat="44.6514717" lon="9.5065333"><ele>655.0</ele><time>2026-04-30T10:06:46.989Z</time></trkpt><trkpt lat="44.65158" lon="9.5066017"><ele>655.0</ele><time>2026-04-30T10:06:47.986Z</time></trkpt><trkpt lat="44.6516717" lon="9.5066717"><ele>655.0</ele><time>2026-04-30T10:06:48.988Z</time></trkpt><trkpt lat="44.6517633" lon="9.5067283"><ele>655.0</ele><time>2026-04-30T10:06:49.99Z</time></trkpt><trkpt lat="44.6518533" lon="9.5067717"><ele>655.0</ele><time>2026-04-30T10:06:50.987Z</time></trkpt><trkpt lat="44.6519433" lon="9.5068067"><ele>655.0</ele><time>2026-04-30T10:06:51.987Z</time></trkpt><trkpt lat="44.652035" lon="9.50684"><ele>655.0</ele><time>2026-04-30T10:06:52.988Z</time></trkpt><trkpt lat="44.652135" lon="9.5068817"><ele>655.0</ele><time>2026-04-30T10:06:53.988Z</time></trkpt><trkpt lat="44.6522417" lon="9.5069233"><ele>655.0</ele><time>2026-04-30T10:06:54.987Z</time></trkpt><trkpt lat="44.652355" lon="9.50696"><ele>659.2</ele><time>2026-04-30T10:06:55.988Z</time></trkpt><trkpt lat="44.6524633" lon="9.5069933"><ele>663.4</ele><time>2026-04-30T10:06:56.989Z</time></trkpt><trkpt lat="44.65257" lon="9.5070133"><ele>667.5999999999999</ele><time>2026-04-30T10:06:57.987Z</time></trkpt><trkpt lat="44.6526733" lon="9.507015"><ele>671.8</ele><time>2026-04-30T10:06:58.988Z</time></trkpt><trkpt lat="44.6527667" lon="9.5070117"><ele>676.0</ele><time>2026-04-30T10:06:59.987Z</time></trkpt><trkpt lat="44.6528683" lon="9.5070183"><ele>679.1999999999999</ele><time>2026-04-30T10:07:00.989Z</time></trkpt><trkpt lat="44.65297" lon="9.5070283"><ele>682.4</ele><time>2026-04-30T10:07:01.987Z</time></trkpt><trkpt lat="44.6530683" lon="9.5070417"><ele>685.6</ele><time>2026-04-30T10:07:02.989Z</time></trkpt><trkpt lat="44.6531683" lon="9.5070633"><ele>688.8</ele><time>2026-04-30T10:07:03.987Z</time></trkpt><trkpt lat="44.653265" lon="9.507105"><ele>692.0</ele><time>2026-04-30T10:07:04.987Z</time></trkpt><trkpt lat="44.6533567" lon="9.5071533"><ele>688.8</ele><time>2026-04-30T10:07:05.987Z</time></trkpt><trkpt lat="44.6534517" lon="9.5072017"><ele>685.6</ele><time>2026-04-30T10:07:06.988Z</time></trkpt><trkpt lat="44.653545" lon="9.5072483"><ele>682.4</ele><time>2026-04-30T10:07:07.993Z</time></trkpt><trkpt lat="44.6536333" lon="9.5072967"><ele>679.1999999999999</ele><time>2026-04-30T10:07:08.987Z</time></trkpt><trkpt lat="44.6537183" lon="9.5073583"><ele>676.0</ele><time>2026-04-30T10:07:09.988Z</time></trkpt><trkpt lat="44.653795" lon="9.50743"><ele>676.0</ele><time>2026-04-30T10:07:10.988Z</time></trkpt><trkpt lat="44.6538633" lon="9.5075033"><ele>676.0</ele><time>2026-04-30T10:07:11.987Z</time></trkpt><trkpt lat="44.65392" lon="9.5075767"><ele>676.0</ele><time>2026-04-30T10:07:12.989Z</time></trkpt><trkpt lat="44.653965" lon="9.5076483"><ele>676.0</ele><time>2026-04-30T10:07:13.987Z</time></trkpt><trkpt lat="44.6539867" lon="9.5077367"><ele>676.0</ele><time>2026-04-30T10:07:15.989Z</time></trkpt><trkpt lat="44.6540333" lon="9.5079033"><ele>676.0</ele><time>2026-04-30T10:07:40.987Z</time></trkpt><trkpt lat="44.654075" lon="9.508005"><ele>675.1999999999999</ele><time>2026-04-30T10:07:41.987Z</time></trkpt><trkpt lat="44.6541283" lon="9.5081183"><ele>674.4</ele><time>2026-04-30T10:07:42.988Z</time></trkpt><trkpt lat="44.6541883" lon="9.5082533"><ele>673.6</ele><time>2026-04-30T10:07:43.987Z</time></trkpt><trkpt lat="44.654245" lon="9.508395"><ele>672.8</ele><time>2026-04-30T10:07:44.988Z</time></trkpt><trkpt lat="44.6543033" lon="9.508535"><ele>672.0</ele><time>2026-04-30T10:07:45.989Z</time></trkpt><trkpt lat="44.65436" lon="9.5086733"><ele>671.0</ele><time>2026-04-30T10:07:46.988Z</time></trkpt><trkpt lat="44.6544217" lon="9.5088033"><ele>670.0</ele><time>2026-04-30T10:07:47.987Z</time></trkpt><trkpt lat="44.6544917" lon="9.5089167"><ele>669.0</ele><time>2026-04-30T10:07:48.989Z</time></trkpt><trkpt lat="44.654575" lon="9.509"><ele>668.0</ele><time>2026-04-30T10:07:49.988Z</time></trkpt><trkpt lat="44.654665" lon="9.509045"><ele>667.0</ele><time>2026-04-30T10:07:50.987Z</time></trkpt><trkpt lat="44.6547567" lon="9.5090933"><ele>669.6</ele><time>2026-04-30T10:07:51.988Z</time></trkpt><trkpt lat="44.65484" lon="9.5091667"><ele>672.2</ele><time>2026-04-30T10:07:52.988Z</time></trkpt><trkpt lat="44.6549017" lon="9.50927"><ele>674.8</ele><time>2026-04-30T10:07:53.988Z</time></trkpt><trkpt lat="44.6549517" lon="9.509395"><ele>677.4</ele><time>2026-04-30T10:07:54.987Z</time></trkpt><trkpt lat="44.655" lon="9.5095317"><ele>680.0</ele><time>2026-04-30T10:07:55.989Z</time></trkpt><trkpt lat="44.6550417" lon="9.509675"><ele>680.0</ele><time>2026-04-30T10:07:56.987Z</time></trkpt><trkpt lat="44.65508" lon="9.5098167"><ele>680.0</ele><time>2026-04-30T10:07:57.987Z</time></trkpt><trkpt lat="44.6551333" lon="9.5099433"><ele>680.0</ele><time>2026-04-30T10:07:58.988Z</time></trkpt><trkpt lat="44.6552033" lon="9.5100283"><ele>680.0</ele><time>2026-04-30T10:07:59.989Z</time></trkpt><trkpt lat="44.6552967" lon="9.5100733"><ele>680.0</ele><time>2026-04-30T10:08:00.988Z</time></trkpt><trkpt lat="44.655395" lon="9.5100683"><ele>683.0</ele><time>2026-04-30T10:08:01.988Z</time></trkpt><trkpt lat="44.655495" lon="9.510025"><ele>686.0</ele><time>2026-04-30T10:08:02.989Z</time></trkpt><trkpt lat="44.6555933" lon="9.5099583"><ele>689.0</ele><time>2026-04-30T10:08:03.988Z</time></trkpt><trkpt lat="44.6556933" lon="9.5098783"><ele>692.0</ele><time>2026-04-30T10:08:04.992Z</time></trkpt><trkpt lat="44.6557967" lon="9.50979"><ele>692.0</ele><time>2026-04-30T10:08:05.988Z</time></trkpt><trkpt lat="44.6559083" lon="9.5097083"><ele>692.0</ele><time>2026-04-30T10:08:06.989Z</time></trkpt><trkpt lat="44.6560283" lon="9.509635"><ele>692.0</ele><time>2026-04-30T10:08:07.987Z</time></trkpt><trkpt lat="44.656155" lon="9.5095733"><ele>692.0</ele><time>2026-04-30T10:08:08.99Z</time></trkpt><trkpt lat="44.656285" lon="9.50952"><ele>695.6</ele><time>2026-04-30T10:08:09.987Z</time></trkpt><trkpt lat="44.6564117" lon="9.5094883"><ele>699.2</ele><time>2026-04-30T10:08:10.987Z</time></trkpt><trkpt lat="44.6565233" lon="9.5094883"><ele>702.8</ele><time>2026-04-30T10:08:11.988Z</time></trkpt><trkpt lat="44.6566067" lon="9.50953"><ele>706.4</ele><time>2026-04-30T10:08:12.987Z</time></trkpt><trkpt lat="44.6566567" lon="9.5096067"><ele>710.0</ele><time>2026-04-30T10:08:13.987Z</time></trkpt><trkpt lat="44.656675" lon="9.5096967"><ele>710.0</ele><time>2026-04-30T10:08:14.987Z</time></trkpt><trkpt lat="44.6566533" lon="9.5098133"><ele>710.0</ele><time>2026-04-30T10:08:15.988Z</time></trkpt><trkpt lat="44.6565967" lon="9.5099383"><ele>710.0</ele><time>2026-04-30T10:08:16.988Z</time></trkpt><trkpt lat="44.6565383" lon="9.5100633"><ele>710.0</ele><time>2026-04-30T10:08:17.987Z</time></trkpt><trkpt lat="44.6564833" lon="9.5102"><ele>710.0</ele><time>2026-04-30T10:08:18.988Z</time></trkpt><trkpt lat="44.6564433" lon="9.51035"><ele>711.5</ele><time>2026-04-30T10:08:19.989Z</time></trkpt><trkpt lat="44.6564233" lon="9.510505"><ele>713.0</ele><time>2026-04-30T10:08:20.988Z</time></trkpt><trkpt lat="44.656435" lon="9.5106633"><ele>714.5</ele><time>2026-04-30T10:08:21.987Z</time></trkpt><trkpt lat="44.6564783" lon="9.510825"><ele>716.0</ele><time>2026-04-30T10:08:22.987Z</time></trkpt><trkpt lat="44.6565433" lon="9.5109767"><ele>716.0</ele><time>2026-04-30T10:08:23.987Z</time></trkpt><trkpt lat="44.6566067" lon="9.5111333"><ele>716.0</ele><time>2026-04-30T10:08:24.988Z</time></trkpt><trkpt lat="44.6566517" lon="9.5113017"><ele>716.0</ele><time>2026-04-30T10:08:25.988Z</time></trkpt><trkpt lat="44.656665" lon="9.511475"><ele>716.0</ele><time>2026-04-30T10:08:26.989Z</time></trkpt><trkpt lat="44.656665" lon="9.51165"><ele>716.25</ele><time>2026-04-30T10:08:27.988Z</time></trkpt><trkpt lat="44.6566683" lon="9.5118233"><ele>716.5</ele><time>2026-04-30T10:08:28.987Z</time></trkpt><trkpt lat="44.656675" lon="9.51199"><ele>716.75</ele><time>2026-04-30T10:08:29.989Z</time></trkpt><trkpt lat="44.6566767" lon="9.5121633"><ele>717.0</ele><time>2026-04-30T10:08:30.988Z</time></trkpt><trkpt lat="44.6566817" lon="9.51233"><ele>718.0</ele><time>2026-04-30T10:08:31.991Z</time></trkpt><trkpt lat="44.656705" lon="9.512495"><ele>719.0</ele><time>2026-04-30T10:08:32.988Z</time></trkpt><trkpt lat="44.65675" lon="9.51265"><ele>720.0</ele><time>2026-04-30T10:08:33.988Z</time></trkpt><trkpt lat="44.6568167" lon="9.5127833"><ele>721.0</ele><time>2026-04-30T10:08:34.988Z</time></trkpt><trkpt lat="44.6569" lon="9.512895"><ele>721.25</ele><time>2026-04-30T10:08:35.987Z</time></trkpt><trkpt lat="44.6569967" lon="9.512965"><ele>721.5</ele><time>2026-04-30T10:08:36.989Z</time></trkpt><trkpt lat="44.6571033" lon="9.5129967"><ele>721.75</ele><time>2026-04-30T10:08:37.988Z</time></trkpt><trkpt lat="44.65722" lon="9.5129633"><ele>722.0</ele><time>2026-04-30T10:08:38.989Z</time></trkpt><trkpt lat="44.6573383" lon="9.5129117"><ele>727.0</ele><time>2026-04-30T10:08:39.989Z</time></trkpt><trkpt lat="44.65746" lon="9.5128583"><ele>732.0</ele><time>2026-04-30T10:08:40.988Z</time></trkpt><trkpt lat="44.657585" lon="9.5128283"><ele>737.0</ele><time>2026-04-30T10:08:41.99Z</time></trkpt><trkpt lat="44.6577217" lon="9.5128083"><ele>742.0</ele><time>2026-04-30T10:08:42.986Z</time></trkpt><trkpt lat="44.6578567" lon="9.5127983"><ele>743.75</ele><time>2026-04-30T10:08:43.989Z</time></trkpt><trkpt lat="44.65799" lon="9.5128067"><ele>745.5</ele><time>2026-04-30T10:08:44.988Z</time></trkpt><trkpt lat="44.6581167" lon="9.5128417"><ele>747.25</ele><time>2026-04-30T10:08:45.988Z</time></trkpt><trkpt lat="44.65824" lon="9.512885"><ele>749.0</ele><time>2026-04-30T10:08:46.987Z</time></trkpt><trkpt lat="44.6583567" lon="9.51294"><ele>750.2</ele><time>2026-04-30T10:08:47.988Z</time></trkpt><trkpt lat="44.65845" lon="9.513015"><ele>751.4000000000001</ele><time>2026-04-30T10:08:48.988Z</time></trkpt><trkpt lat="44.658525" lon="9.5131083"><ele>752.6</ele><time>2026-04-30T10:08:49.987Z</time></trkpt><trkpt lat="44.6585833" lon="9.5132267"><ele>753.8</ele><time>2026-04-30T10:08:50.992Z</time></trkpt><trkpt lat="44.658625" lon="9.5133567"><ele>755.0</ele><time>2026-04-30T10:08:51.99Z</time></trkpt><trkpt lat="44.6586583" lon="9.5134917"><ele>755.0</ele><time>2026-04-30T10:08:52.988Z</time></trkpt><trkpt lat="44.65868" lon="9.5136267"><ele>755.0</ele><time>2026-04-30T10:08:53.988Z</time></trkpt><trkpt lat="44.658705" lon="9.5137683"><ele>755.0</ele><time>2026-04-30T10:08:54.989Z</time></trkpt><trkpt lat="44.6587317" lon="9.513915"><ele>755.0</ele><time>2026-04-30T10:08:55.989Z</time></trkpt><trkpt lat="44.65877" lon="9.5140633"><ele>755.0</ele><time>2026-04-30T10:08:56.989Z</time></trkpt><trkpt lat="44.6588167" lon="9.5142133"><ele>755.5</ele><time>2026-04-30T10:08:57.989Z</time></trkpt><trkpt lat="44.658875" lon="9.514365"><ele>756.0</ele><time>2026-04-30T10:08:58.988Z</time></trkpt><trkpt lat="44.6589367" lon="9.514505"><ele>756.5</ele><time>2026-04-30T10:08:59.988Z</time></trkpt><trkpt lat="44.6590083" lon="9.5146217"><ele>757.0</ele><time>2026-04-30T10:09:00.994Z</time></trkpt><trkpt lat="44.65909" lon="9.514725"><ele>758.0</ele><time>2026-04-30T10:09:01.989Z</time></trkpt><trkpt lat="44.6591817" lon="9.5147983"><ele>759.0</ele><time>2026-04-30T10:09:02.989Z</time></trkpt><trkpt lat="44.65931" lon="9.51482"><ele>760.0</ele><time>2026-04-30T10:09:03.988Z</time></trkpt><trkpt lat="44.659435" lon="9.514825"><ele>761.0</ele><time>2026-04-30T10:09:04.989Z</time></trkpt><trkpt lat="44.6595533" lon="9.5148517"><ele>761.0</ele><time>2026-04-30T10:09:05.987Z</time></trkpt><trkpt lat="44.6596733" lon="9.5149033"><ele>761.0</ele><time>2026-04-30T10:09:06.988Z</time></trkpt><trkpt lat="44.6597983" lon="9.514975"><ele>761.0</ele><time>2026-04-30T10:09:07.989Z</time></trkpt><trkpt lat="44.6599233" lon="9.5150633"><ele>761.0</ele><time>2026-04-30T10:09:08.989Z</time></trkpt><trkpt lat="44.660045" lon="9.5151533"><ele>761.0</ele><time>2026-04-30T10:09:09.987Z</time></trkpt><trkpt lat="44.66017" lon="9.5152467"><ele>761.0</ele><time>2026-04-30T10:09:10.988Z</time></trkpt><trkpt lat="44.6602983" lon="9.5153317"><ele>761.0</ele><time>2026-04-30T10:09:11.988Z</time></trkpt><trkpt lat="44.6604267" lon="9.5154133"><ele>761.0</ele><time>2026-04-30T10:09:12.988Z</time></trkpt><trkpt lat="44.6605583" lon="9.515495"><ele>761.8</ele><time>2026-04-30T10:09:13.989Z</time></trkpt><trkpt lat="44.660675" lon="9.5155767"><ele>762.5999999999999</ele><time>2026-04-30T10:09:14.989Z</time></trkpt><trkpt lat="44.6607667" lon="9.515665"><ele>763.4</ele><time>2026-04-30T10:09:15.989Z</time></trkpt><trkpt lat="44.6608233" lon="9.5157767"><ele>764.2</ele><time>2026-04-30T10:09:16.989Z</time></trkpt><trkpt lat="44.6608367" lon="9.515905"><ele>765.0</ele><time>2026-04-30T10:09:17.987Z</time></trkpt><trkpt lat="44.6608333" lon="9.5160117"><ele>765.0</ele><time>2026-04-30T10:09:18.988Z</time></trkpt><trkpt lat="44.6608217" lon="9.5161167"><ele>765.0</ele><time>2026-04-30T10:09:20.988Z</time></trkpt><trkpt lat="44.6609033" lon="9.5162133"><ele>765.0</ele><time>2026-04-30T10:09:33.989Z</time></trkpt><trkpt lat="44.6609967" lon="9.51624"><ele>765.0</ele><time>2026-04-30T10:09:35.987Z</time></trkpt><trkpt lat="44.6610717" lon="9.5162017"><ele>765.0</ele><time>2026-04-30T10:09:37.988Z</time></trkpt><trkpt lat="44.66111" lon="9.516105"><ele>765.0</ele><time>2026-04-30T10:09:39.988Z</time></trkpt><trkpt lat="44.6611583" lon="9.5159967"><ele>767.3333333333334</ele><time>2026-04-30T10:09:42.987Z</time></trkpt><trkpt lat="44.6612033" lon="9.5159333"><ele>769.6666666666667</ele><time>2026-04-30T10:09:44.988Z</time></trkpt><trkpt lat="44.6612633" lon="9.5158583"><ele>772.0</ele><time>2026-04-30T10:09:46.989Z</time></trkpt><trkpt lat="44.6613017" lon="9.5157483"><ele>774.3333333333334</ele><time>2026-04-30T10:09:48.988Z</time></trkpt><trkpt lat="44.6613433" lon="9.5156683"><ele>776.6666666666667</ele><time>2026-04-30T10:09:50.989Z</time></trkpt><trkpt lat="44.6614233" lon="9.5156117"><ele>779.0</ele><time>2026-04-30T10:09:52.988Z</time></trkpt><trkpt lat="44.6615083" lon="9.5155483"><ele>779.0</ele><time>2026-04-30T10:09:54.987Z</time></trkpt><trkpt lat="44.6615897" lon="9.5154735"><ele>779.0</ele><time>2026-04-30T10:09:56.991Z</time></trkpt><trkpt lat="44.6616619" lon="9.5153527"><ele>779.0</ele><time>2026-04-30T10:09:58.987Z</time></trkpt><trkpt lat="44.661683" lon="9.5152691"><ele>779.0</ele><time>2026-04-30T10:09:59.987Z</time></trkpt><trkpt lat="44.6617049" lon="9.5151246"><ele>779.0</ele><time>2026-04-30T10:10:01.987Z</time></trkpt><trkpt lat="44.661754" lon="9.5150172"><ele>782.25</ele><time>2026-04-30T10:10:03.986Z</time></trkpt><trkpt lat="44.6618517" lon="9.5149238"><ele>785.5</ele><time>2026-04-30T10:10:05.988Z</time></trkpt><trkpt lat="44.6619379" lon="9.5148319"><ele>788.75</ele><time>2026-04-30T10:10:07.989Z</time></trkpt><trkpt lat="44.6620314" lon="9.5147386"><ele>792.0</ele><time>2026-04-30T10:10:09.988Z</time></trkpt><trkpt lat="44.6621103" lon="9.5146244"><ele>796.0</ele><time>2026-04-30T10:10:11.987Z</time></trkpt><trkpt lat="44.6621772" lon="9.5145349"><ele>800.0</ele><time>2026-04-30T10:10:13.987Z</time></trkpt><trkpt lat="44.6622484" lon="9.5145135"><ele>804.0</ele><time>2026-04-30T10:10:15.988Z</time></trkpt><trkpt lat="44.6623029" lon="9.514414"><ele>808.0</ele><time>2026-04-30T10:10:18.987Z</time></trkpt><trkpt lat="44.6623248" lon="9.5143002"><ele>812.0</ele><time>2026-04-30T10:10:21.989Z</time></trkpt><trkpt lat="44.6623446" lon="9.5142122"><ele>816.0</ele><time>2026-04-30T10:10:23.986Z</time></trkpt><trkpt lat="44.6623639" lon="9.5141156"><ele>816.0</ele><time>2026-04-30T10:10:25.986Z</time></trkpt><trkpt lat="44.6623957" lon="9.5140061"><ele>816.0</ele><time>2026-04-30T10:10:27.987Z</time></trkpt><trkpt lat="44.6624584" lon="9.5138919"><ele>816.0</ele><time>2026-04-30T10:10:29.986Z</time></trkpt><trkpt lat="44.6625281" lon="9.5137761"><ele>816.0</ele><time>2026-04-30T10:10:31.991Z</time></trkpt><trkpt lat="44.662593" lon="9.513644"><ele>816.0</ele><time>2026-04-30T10:10:33.987Z</time></trkpt><trkpt lat="44.6626433" lon="9.5135059"><ele>818.0</ele><time>2026-04-30T10:10:35.987Z</time></trkpt><trkpt lat="44.662703" lon="9.5133928"><ele>820.0</ele><time>2026-04-30T10:10:37.987Z</time></trkpt><trkpt lat="44.662797" lon="9.5133252"><ele>822.0</ele><time>2026-04-30T10:10:39.988Z</time></trkpt><trkpt lat="44.6628606" lon="9.5132964"><ele>824.0</ele><time>2026-04-30T10:10:41.987Z</time></trkpt><trkpt lat="44.6628947" lon="9.5132137"><ele>826.0</ele><time>2026-04-30T10:11:20.993Z</time></trkpt><trkpt lat="44.6629524" lon="9.5131462"><ele>828.0</ele><time>2026-04-30T10:11:44.988Z</time></trkpt><trkpt lat="44.6629861" lon="9.5130692"><ele>829.3333333333334</ele><time>2026-04-30T10:11:49.988Z</time></trkpt><trkpt lat="44.6630155" lon="9.5129632"><ele>830.6666666666667</ele><time>2026-04-30T10:12:09.988Z</time></trkpt><trkpt lat="44.663085" lon="9.512855"><ele>832.0</ele><time>2026-04-30T10:12:47.988Z</time></trkpt><trkpt lat="44.663115" lon="9.5127367"><ele>833.3333333333334</ele><time>2026-04-30T10:12:50.988Z</time></trkpt><trkpt lat="44.663145" lon="9.51263"><ele>834.6666666666667</ele><time>2026-04-30T10:12:52.988Z</time></trkpt><trkpt lat="44.663175" lon="9.512535"><ele>836.0</ele><time>2026-04-30T10:12:54.988Z</time></trkpt><trkpt lat="44.6632117" lon="9.5124567"><ele>839.1428571428571</ele><time>2026-04-30T10:12:57.987Z</time></trkpt><trkpt lat="44.663215" lon="9.51236"><ele>842.2857142857142</ele><time>2026-04-30T10:13:15.987Z</time></trkpt><trkpt lat="44.6631717" lon="9.5122783"><ele>845.4285714285714</ele><time>2026-04-30T10:14:00.987Z</time></trkpt><trkpt lat="44.6631433" lon="9.5121933"><ele>848.5714285714286</ele><time>2026-04-30T10:14:03.987Z</time></trkpt><trkpt lat="44.6631183" lon="9.51211"><ele>851.7142857142858</ele><time>2026-04-30T10:14:06.988Z</time></trkpt><trkpt lat="44.66311" lon="9.5119917"><ele>854.8571428571429</ele><time>2026-04-30T10:14:10.987Z</time></trkpt><trkpt lat="44.6631233" lon="9.5119"><ele>858.0</ele><time>2026-04-30T10:14:13.988Z</time></trkpt><trkpt lat="44.6631233" lon="9.5116767"><ele>859.6666666666666</ele><time>2026-04-30T10:14:38.989Z</time></trkpt><trkpt lat="44.663105" lon="9.511575"><ele>861.3333333333333</ele><time>2026-04-30T10:14:42.988Z</time></trkpt><trkpt lat="44.66311" lon="9.5114867"><ele>863.0</ele><time>2026-04-30T10:14:47.989Z</time></trkpt><trkpt lat="44.66311" lon="9.511375"><ele>864.6666666666666</ele><time>2026-04-30T10:14:51.989Z</time></trkpt><trkpt lat="44.6631217" lon="9.5112783"><ele>866.3333333333333</ele><time>2026-04-30T10:14:54.989Z</time></trkpt><trkpt lat="44.663125" lon="9.511185"><ele>868.0</ele><time>2026-04-30T10:14:58.988Z</time></trkpt><trkpt lat="44.6631683" lon="9.5109983"><ele>869.6666666666666</ele><time>2026-04-30T10:15:57.988Z</time></trkpt><trkpt lat="44.6632067" lon="9.5109083"><ele>871.3333333333333</ele><time>2026-04-30T10:15:59.989Z</time></trkpt><trkpt lat="44.6632333" lon="9.51082"><ele>873.0</ele><time>2026-04-30T10:16:01.988Z</time></trkpt><trkpt lat="44.6632417" lon="9.5106617"><ele>874.6666666666667</ele><time>2026-04-30T10:19:16.986Z</time></trkpt><trkpt lat="44.6632233" lon="9.5105733"><ele>876.3333333333334</ele><time>2026-04-30T10:19:18.989Z</time></trkpt><trkpt lat="44.6632267" lon="9.5104533"><ele>878.0</ele><time>2026-04-30T10:19:20.987Z</time></trkpt><trkpt lat="44.663205" lon="9.5103567"><ele>879.5000000000001</ele><time>2026-04-30T10:19:22.987Z</time></trkpt><trkpt lat="44.66316" lon="9.5102267"><ele>881.0</ele><time>2026-04-30T10:19:25.989Z</time></trkpt><trkpt lat="44.6631133" lon="9.51012"><ele>882.5</ele><time>2026-04-30T10:19:27.988Z</time></trkpt><trkpt lat="44.6630767" lon="9.5100283"><ele>884.0</ele><time>2026-04-30T10:19:29.99Z</time></trkpt><trkpt lat="44.66308" lon="9.5099133"><ele>885.5000000000001</ele><time>2026-04-30T10:19:31.993Z</time></trkpt><trkpt lat="44.6631" lon="9.5097883"><ele>887.0</ele><time>2026-04-30T10:19:33.99Z</time></trkpt><trkpt lat="44.6631167" lon="9.5096433"><ele>888.8</ele><time>2026-04-30T10:19:35.991Z</time></trkpt><trkpt lat="44.663125" lon="9.5095183"><ele>890.6</ele><time>2026-04-30T10:19:37.992Z</time></trkpt><trkpt lat="44.6631217" lon="9.5093883"><ele>892.3999999999999</ele><time>2026-04-30T10:19:39.987Z</time></trkpt><trkpt lat="44.6630933" lon="9.5092717"><ele>894.1999999999999</ele><time>2026-04-30T10:19:41.988Z</time></trkpt><trkpt lat="44.6630467" lon="9.5091333"><ele>896.0</ele><time>2026-04-30T10:19:43.986Z</time></trkpt><trkpt lat="44.6629952" lon="9.5089981"><ele>896.0000000000001</ele><time>2026-04-30T10:19:45.989Z</time></trkpt><trkpt lat="44.6629575" lon="9.5088798"><ele>896.0</ele><time>2026-04-30T10:19:47.991Z</time></trkpt><trkpt lat="44.6629332" lon="9.5087612"><ele>896.0</ele><time>2026-04-30T10:19:49.989Z</time></trkpt><trkpt lat="44.6628915" lon="9.5086846"><ele>896.0</ele><time>2026-04-30T10:19:53.988Z</time></trkpt><trkpt lat="44.6628656" lon="9.5085425"><ele>896.0000000000001</ele><time>2026-04-30T10:19:56.988Z</time></trkpt><trkpt lat="44.662881" lon="9.5084203"><ele>896.0</ele><time>2026-04-30T10:19:58.987Z</time></trkpt><trkpt lat="44.6629122" lon="9.5083052"><ele>895.8333333333334</ele><time>2026-04-30T10:20:00.987Z</time></trkpt><trkpt lat="44.662916" lon="9.5081892"><ele>895.6666666666667</ele><time>2026-04-30T10:20:02.988Z</time></trkpt><trkpt lat="44.6628852" lon="9.5080779"><ele>895.5</ele><time>2026-04-30T10:20:04.987Z</time></trkpt><trkpt lat="44.662824" lon="9.5079702"><ele>895.3333333333333</ele><time>2026-04-30T10:20:06.992Z</time></trkpt><trkpt lat="44.6628126" lon="9.50786"><ele>895.1666666666666</ele><time>2026-04-30T10:20:08.989Z</time></trkpt><trkpt lat="44.6628729" lon="9.5077535"><ele>895.0</ele><time>2026-04-30T10:20:10.987Z</time></trkpt><trkpt lat="44.6629" lon="9.5076623"><ele>895.0</ele><time>2026-04-30T10:20:12.987Z</time></trkpt><trkpt lat="44.6629282" lon="9.5075475"><ele>895.0</ele><time>2026-04-30T10:20:15.987Z</time></trkpt><trkpt lat="44.662959" lon="9.5074378"><ele>895.0</ele><time>2026-04-30T10:20:17.99Z</time></trkpt><trkpt lat="44.6630019" lon="9.5073437"><ele>895.0</ele><time>2026-04-30T10:20:19.992Z</time></trkpt><trkpt lat="44.663044" lon="9.5072243"><ele>895.0</ele><time>2026-04-30T10:20:21.99Z</time></trkpt><trkpt lat="44.6630689" lon="9.5070596"><ele>893.0</ele><time>2026-04-30T10:20:23.99Z</time></trkpt><trkpt lat="44.6630956" lon="9.5069006"><ele>891.0</ele><time>2026-04-30T10:20:25.988Z</time></trkpt><trkpt lat="44.6631216" lon="9.5067399"><ele>889.0</ele><time>2026-04-30T10:20:27.988Z</time></trkpt><trkpt lat="44.6631446" lon="9.5065801"><ele>887.0</ele><time>2026-04-30T10:20:29.987Z</time></trkpt><trkpt lat="44.6631647" lon="9.5064933"><ele>885.0</ele><time>2026-04-30T10:20:30.988Z</time></trkpt><trkpt lat="44.6631913" lon="9.5064018"><ele>885.0</ele><time>2026-04-30T10:20:31.988Z</time></trkpt><trkpt lat="44.6632242" lon="9.5063068"><ele>885.0</ele><time>2026-04-30T10:20:32.988Z</time></trkpt><trkpt lat="44.663257" lon="9.5062129"><ele>885.0</ele><time>2026-04-30T10:20:33.987Z</time></trkpt><trkpt lat="44.6632949" lon="9.5060577"><ele>885.0</ele><time>2026-04-30T10:20:35.988Z</time></trkpt><trkpt lat="44.6633069" lon="9.5059151"><ele>885.0</ele><time>2026-04-30T10:20:37.989Z</time></trkpt><trkpt lat="44.6633047" lon="9.5057822"><ele>883.8</ele><time>2026-04-30T10:20:39.988Z</time></trkpt><trkpt lat="44.6633143" lon="9.5056613"><ele>882.6</ele><time>2026-04-30T10:20:41.988Z</time></trkpt><trkpt lat="44.663346" lon="9.5055613"><ele>881.4000000000001</ele><time>2026-04-30T10:20:43.99Z</time></trkpt><trkpt lat="44.6633629" lon="9.5054493"><ele>880.2</ele><time>2026-04-30T10:20:45.987Z</time></trkpt><trkpt lat="44.6633377" lon="9.5053231"><ele>879.0</ele><time>2026-04-30T10:20:47.987Z</time></trkpt><trkpt lat="44.6632793" lon="9.505171"><ele>878.4000000000001</ele><time>2026-04-30T10:20:49.989Z</time></trkpt><trkpt lat="44.663254" lon="9.5050312"><ele>877.8000000000001</ele><time>2026-04-30T10:20:51.987Z</time></trkpt><trkpt lat="44.6632424" lon="9.5048652"><ele>877.1999999999999</ele><time>2026-04-30T10:20:53.987Z</time></trkpt><trkpt lat="44.6632325" lon="9.5047037"><ele>876.5999999999999</ele><time>2026-04-30T10:20:55.987Z</time></trkpt><trkpt lat="44.6632216" lon="9.5045508"><ele>876.0</ele><time>2026-04-30T10:20:57.989Z</time></trkpt><trkpt lat="44.6632196" lon="9.5044258"><ele>877.6666666666666</ele><time>2026-04-30T10:20:59.988Z</time></trkpt><trkpt lat="44.6632017" lon="9.5043333"><ele>879.3333333333333</ele><time>2026-04-30T10:21:02.988Z</time></trkpt><trkpt lat="44.66314" lon="9.5043083"><ele>881.0</ele><time>2026-04-30T10:21:04.989Z</time></trkpt><trkpt lat="44.6630567" lon="9.5043333"><ele>882.6666666666666</ele><time>2026-04-30T10:21:06.99Z</time></trkpt><trkpt lat="44.6629767" lon="9.5043267"><ele>884.3333333333333</ele><time>2026-04-30T10:21:08.987Z</time></trkpt><trkpt lat="44.6629117" lon="9.504255"><ele>886.0</ele><time>2026-04-30T10:21:10.988Z</time></trkpt><trkpt lat="44.662845" lon="9.5041367"><ele>885.9999999999999</ele><time>2026-04-30T10:21:12.988Z</time></trkpt><trkpt lat="44.6627983" lon="9.5040417"><ele>886.0</ele><time>2026-04-30T10:21:14.988Z</time></trkpt><trkpt lat="44.6627933" lon="9.5039"><ele>886.0</ele><time>2026-04-30T10:21:21.99Z</time></trkpt><trkpt lat="44.6627933" lon="9.5038083"><ele>886.0</ele><time>2026-04-30T10:21:24.987Z</time></trkpt><trkpt lat="44.6627817" lon="9.50369"><ele>885.9999999999999</ele><time>2026-04-30T10:21:27.99Z</time></trkpt><trkpt lat="44.66276" lon="9.503575"><ele>886.0</ele><time>2026-04-30T10:21:29.988Z</time></trkpt><trkpt lat="44.6627333" lon="9.5034083"><ele>886.1999999999999</ele><time>2026-04-30T10:21:31.987Z</time></trkpt><trkpt lat="44.6627183" lon="9.50331"><ele>886.3999999999999</ele><time>2026-04-30T10:21:32.989Z</time></trkpt><trkpt lat="44.66268" lon="9.5031617"><ele>886.6</ele><time>2026-04-30T10:21:34.987Z</time></trkpt><trkpt lat="44.6626333" lon="9.5030333"><ele>886.8</ele><time>2026-04-30T10:21:36.988Z</time></trkpt><trkpt lat="44.662575" lon="9.5029017"><ele>887.0</ele><time>2026-04-30T10:21:38.99Z</time></trkpt><trkpt lat="44.66251" lon="9.50277"><ele>887.0</ele><time>2026-04-30T10:21:40.988Z</time></trkpt><trkpt lat="44.662445" lon="9.502615"><ele>887.0</ele><time>2026-04-30T10:21:42.987Z</time></trkpt><trkpt lat="44.6624133" lon="9.5025383"><ele>887.0</ele><time>2026-04-30T10:21:43.987Z</time></trkpt><trkpt lat="44.662385" lon="9.5024533"><ele>887.0</ele><time>2026-04-30T10:21:44.989Z</time></trkpt><trkpt lat="44.6623267" lon="9.50232"><ele>887.0</ele><time>2026-04-30T10:21:46.992Z</time></trkpt><trkpt lat="44.6622417" lon="9.5022383"><ele>887.0000000000001</ele><time>2026-04-30T10:21:48.988Z</time></trkpt><trkpt lat="44.6621417" lon="9.5021767"><ele>887.0</ele><time>2026-04-30T10:21:50.989Z</time></trkpt><trkpt lat="44.66204" lon="9.5020817"><ele>887.0</ele><time>2026-04-30T10:21:52.989Z</time></trkpt><trkpt lat="44.661985" lon="9.5020267"><ele>887.0</ele><time>2026-04-30T10:21:53.994Z</time></trkpt><trkpt lat="44.6619333" lon="9.5019683"><ele>887.0000000000001</ele><time>2026-04-30T10:21:54.988Z</time></trkpt><trkpt lat="44.6618767" lon="9.5019"><ele>887.0</ele><time>2026-04-30T10:21:55.989Z</time></trkpt><trkpt lat="44.66182" lon="9.5018283"><ele>886.8333333333334</ele><time>2026-04-30T10:21:56.988Z</time></trkpt><trkpt lat="44.6617683" lon="9.5017633"><ele>886.6666666666667</ele><time>2026-04-30T10:21:57.989Z</time></trkpt><trkpt lat="44.66169" lon="9.501675"><ele>886.5</ele><time>2026-04-30T10:21:59.988Z</time></trkpt><trkpt lat="44.6616233" lon="9.5016567"><ele>886.3333333333333</ele><time>2026-04-30T10:22:01.989Z</time></trkpt><trkpt lat="44.661535" lon="9.5016783"><ele>886.1666666666666</ele><time>2026-04-30T10:22:03.988Z</time></trkpt><trkpt lat="44.6614283" lon="9.5016883"><ele>886.0</ele><time>2026-04-30T10:22:05.989Z</time></trkpt><trkpt lat="44.66131" lon="9.501675"><ele>886.0</ele><time>2026-04-30T10:22:07.987Z</time></trkpt><trkpt lat="44.6612117" lon="9.5016683"><ele>885.9999999999999</ele><time>2026-04-30T10:22:09.989Z</time></trkpt><trkpt lat="44.6611483" lon="9.501665"><ele>885.9999999999999</ele><time>2026-04-30T10:22:10.987Z</time></trkpt><trkpt lat="44.6610783" lon="9.5016583"><ele>886.0</ele><time>2026-04-30T10:22:11.988Z</time></trkpt><trkpt lat="44.66096" lon="9.5016367"><ele>886.0</ele><time>2026-04-30T10:22:13.991Z</time></trkpt><trkpt lat="44.6608483" lon="9.5016167"><ele>884.1666666666666</ele><time>2026-04-30T10:22:15.988Z</time></trkpt><trkpt lat="44.6607833" lon="9.501605"><ele>882.3333333333333</ele><time>2026-04-30T10:22:16.988Z</time></trkpt><trkpt lat="44.6607067" lon="9.501595"><ele>880.5</ele><time>2026-04-30T10:22:17.987Z</time></trkpt><trkpt lat="44.6606417" lon="9.501575"><ele>878.6666666666667</ele><time>2026-04-30T10:22:18.987Z</time></trkpt><trkpt lat="44.660545" lon="9.5015267"><ele>876.8333333333334</ele><time>2026-04-30T10:22:20.988Z</time></trkpt><trkpt lat="44.6604967" lon="9.501415"><ele>875.0</ele><time>2026-04-30T10:22:23.989Z</time></trkpt><trkpt lat="44.6604717" lon="9.5013283"><ele>874.6666666666667</ele><time>2026-04-30T10:22:25.987Z</time></trkpt><trkpt lat="44.6604233" lon="9.501225"><ele>874.3333333333334</ele><time>2026-04-30T10:22:27.987Z</time></trkpt><trkpt lat="44.6603217" lon="9.501125"><ele>874.0</ele><time>2026-04-30T10:22:29.992Z</time></trkpt><trkpt lat="44.660255" lon="9.5010817"><ele>873.6666666666667</ele><time>2026-04-30T10:22:30.99Z</time></trkpt><trkpt lat="44.6601967" lon="9.501025"><ele>873.3333333333334</ele><time>2026-04-30T10:22:31.99Z</time></trkpt><trkpt lat="44.66014" lon="9.50097"><ele>873.0</ele><time>2026-04-30T10:22:32.989Z</time></trkpt><trkpt lat="44.6600883" lon="9.500915"><ele>873.0</ele><time>2026-04-30T10:22:33.987Z</time></trkpt><trkpt lat="44.6600033" lon="9.5007933"><ele>873.0</ele><time>2026-04-30T10:22:35.99Z</time></trkpt><trkpt lat="44.6599583" lon="9.5006617"><ele>873.0</ele><time>2026-04-30T10:22:37.988Z</time></trkpt><trkpt lat="44.6599633" lon="9.5005183"><ele>873.0</ele><time>2026-04-30T10:22:39.988Z</time></trkpt><trkpt lat="44.6600033" lon="9.5003567"><ele>873.0</ele><time>2026-04-30T10:22:41.987Z</time></trkpt><trkpt lat="44.6600233" lon="9.5002633"><ele>875.1666666666666</ele><time>2026-04-30T10:22:42.987Z</time></trkpt><trkpt lat="44.66004" lon="9.50017"><ele>877.3333333333333</ele><time>2026-04-30T10:22:43.989Z</time></trkpt><trkpt lat="44.6600567" lon="9.50008"><ele>879.5</ele><time>2026-04-30T10:22:44.988Z</time></trkpt><trkpt lat="44.66008" lon="9.4999867"><ele>881.6666666666666</ele><time>2026-04-30T10:22:45.994Z</time></trkpt><trkpt lat="44.660095" lon="9.49981"><ele>883.8333333333333</ele><time>2026-04-30T10:22:47.988Z</time></trkpt><trkpt lat="44.660075" lon="9.4996517"><ele>886.0</ele><time>2026-04-30T10:22:49.988Z</time></trkpt><trkpt lat="44.660055" lon="9.4995483"><ele>885.9999999999999</ele><time>2026-04-30T10:22:51.988Z</time></trkpt><trkpt lat="44.66004" lon="9.4994383"><ele>886.0</ele><time>2026-04-30T10:22:54.986Z</time></trkpt><trkpt lat="44.6601033" lon="9.499455"><ele>886.0</ele><time>2026-04-30T10:23:00.989Z</time></trkpt><trkpt lat="44.6601433" lon="9.4995317"><ele>886.0</ele><time>2026-04-30T10:23:02.99Z</time></trkpt><trkpt lat="44.66018" lon="9.4996067"><ele>885.9999999999999</ele><time>2026-04-30T10:23:04.988Z</time></trkpt><trkpt lat="44.6602283" lon="9.499685"><ele>886.0</ele><time>2026-04-30T10:23:06.987Z</time></trkpt><trkpt lat="44.66032" lon="9.49974"><ele>891.1999999999999</ele><time>2026-04-30T10:23:08.987Z</time></trkpt><trkpt lat="44.6604283" lon="9.499735"><ele>896.3999999999999</ele><time>2026-04-30T10:23:10.989Z</time></trkpt><trkpt lat="44.6605267" lon="9.49976"><ele>901.6</ele><time>2026-04-30T10:23:12.987Z</time></trkpt><trkpt lat="44.660605" lon="9.4998483"><ele>906.8</ele><time>2026-04-30T10:23:14.987Z</time></trkpt><trkpt lat="44.6606733" lon="9.4999767"><ele>912.0</ele><time>2026-04-30T10:23:16.988Z</time></trkpt><trkpt lat="44.66071" lon="9.5000533"><ele>912.0</ele><time>2026-04-30T10:23:17.988Z</time></trkpt><trkpt lat="44.6607483" lon="9.5001383"><ele>912.0</ele><time>2026-04-30T10:23:18.995Z</time></trkpt><trkpt lat="44.6607933" lon="9.5002167"><ele>912.0</ele><time>2026-04-30T10:23:19.987Z</time></trkpt><trkpt lat="44.6608417" lon="9.500285"><ele>912.0</ele><time>2026-04-30T10:23:20.988Z</time></trkpt><trkpt lat="44.6608933" lon="9.5003383"><ele>912.0</ele><time>2026-04-30T10:23:21.987Z</time></trkpt><trkpt lat="44.661" lon="9.5003917"><ele>912.0</ele><time>2026-04-30T10:23:23.995Z</time></trkpt><trkpt lat="44.661115" lon="9.5003483"><ele>913.6</ele><time>2026-04-30T10:23:25.987Z</time></trkpt><trkpt lat="44.6612117" lon="9.50029"><ele>915.2</ele><time>2026-04-30T10:23:27.986Z</time></trkpt><trkpt lat="44.6613467" lon="9.50028"><ele>916.8</ele><time>2026-04-30T10:23:29.989Z</time></trkpt><trkpt lat="44.6614267" lon="9.5002883"><ele>918.4</ele><time>2026-04-30T10:23:30.986Z</time></trkpt><trkpt lat="44.66152" lon="9.5003067"><ele>920.0</ele><time>2026-04-30T10:23:31.994Z</time></trkpt><trkpt lat="44.661615" lon="9.5003167"><ele>920.0000000000001</ele><time>2026-04-30T10:23:32.987Z</time></trkpt><trkpt lat="44.6616967" lon="9.5003233"><ele>920.0</ele><time>2026-04-30T10:23:33.988Z</time></trkpt><trkpt lat="44.661775" lon="9.50033"><ele>920.0</ele><time>2026-04-30T10:23:34.989Z</time></trkpt><trkpt lat="44.6618583" lon="9.5003417"><ele>920.0</ele><time>2026-04-30T10:23:35.989Z</time></trkpt><trkpt lat="44.6619383" lon="9.5003683"><ele>920.0000000000001</ele><time>2026-04-30T10:23:36.991Z</time></trkpt><trkpt lat="44.6620133" lon="9.5003933"><ele>920.0</ele><time>2026-04-30T10:23:37.995Z</time></trkpt><trkpt lat="44.6620817" lon="9.500415"><ele>918.0</ele><time>2026-04-30T10:23:38.99Z</time></trkpt><trkpt lat="44.6621967" lon="9.5004517"><ele>916.0</ele><time>2026-04-30T10:23:40.987Z</time></trkpt><trkpt lat="44.66231" lon="9.5005333"><ele>914.0</ele><time>2026-04-30T10:23:42.989Z</time></trkpt><trkpt lat="44.6624133" lon="9.5006083"><ele>912.0</ele><time>2026-04-30T10:23:44.988Z</time></trkpt><trkpt lat="44.6625217" lon="9.5006417"><ele>912.0</ele><time>2026-04-30T10:23:46.986Z</time></trkpt><trkpt lat="44.6626267" lon="9.5007017"><ele>912.0</ele><time>2026-04-30T10:23:48.994Z</time></trkpt><trkpt lat="44.6627317" lon="9.5007833"><ele>912.0</ele><time>2026-04-30T10:23:50.989Z</time></trkpt><trkpt lat="44.66283" lon="9.5009033"><ele>912.0</ele><time>2026-04-30T10:23:52.988Z</time></trkpt><trkpt lat="44.6628883" lon="9.5009933"><ele>913.6666666666666</ele><time>2026-04-30T10:23:53.987Z</time></trkpt><trkpt lat="44.66294" lon="9.5010817"><ele>915.3333333333333</ele><time>2026-04-30T10:23:54.992Z</time></trkpt><trkpt lat="44.66298" lon="9.5011667"><ele>917.0</ele><time>2026-04-30T10:23:55.989Z</time></trkpt><trkpt lat="44.66302" lon="9.5012417"><ele>918.6666666666666</ele><time>2026-04-30T10:23:56.993Z</time></trkpt><trkpt lat="44.6631133" lon="9.5013383"><ele>920.3333333333333</ele><time>2026-04-30T10:23:58.991Z</time></trkpt><trkpt lat="44.6632" lon="9.50138"><ele>922.0</ele><time>2026-04-30T10:24:00.988Z</time></trkpt><trkpt lat="44.66332" lon="9.5013767"><ele>921.9999999999999</ele><time>2026-04-30T10:24:02.989Z</time></trkpt><trkpt lat="44.66339" lon="9.5013733"><ele>922.0</ele><time>2026-04-30T10:24:03.988Z</time></trkpt><trkpt lat="44.663455" lon="9.5013633"><ele>922.0</ele><time>2026-04-30T10:24:04.992Z</time></trkpt><trkpt lat="44.6635767" lon="9.5013717"><ele>922.0</ele><time>2026-04-30T10:24:06.989Z</time></trkpt><trkpt lat="44.6636967" lon="9.5013933"><ele>921.9999999999999</ele><time>2026-04-30T10:24:08.989Z</time></trkpt><trkpt lat="44.66376" lon="9.501395"><ele>922.0</ele><time>2026-04-30T10:24:09.988Z</time></trkpt><trkpt lat="44.6638267" lon="9.501395"><ele>922.9999999999999</ele><time>2026-04-30T10:24:10.986Z</time></trkpt><trkpt lat="44.6639083" lon="9.5013717"><ele>924.0</ele><time>2026-04-30T10:24:12.988Z</time></trkpt><trkpt lat="44.6639783" lon="9.5013483"><ele>925.0</ele><time>2026-04-30T10:24:14.989Z</time></trkpt><trkpt lat="44.6640483" lon="9.50138"><ele>926.0</ele><time>2026-04-30T10:24:16.989Z</time></trkpt><trkpt lat="44.6641383" lon="9.5014483"><ele>926.9999999999999</ele><time>2026-04-30T10:24:18.989Z</time></trkpt><trkpt lat="44.6642417" lon="9.5014883"><ele>928.0</ele><time>2026-04-30T10:24:20.988Z</time></trkpt><trkpt lat="44.6643267" lon="9.5014867"><ele>928.0</ele><time>2026-04-30T10:24:22.987Z</time></trkpt><trkpt lat="44.6643933" lon="9.5015183"><ele>928.0</ele><time>2026-04-30T10:24:24.992Z</time></trkpt><trkpt lat="44.6644867" lon="9.501545"><ele>928.0</ele><time>2026-04-30T10:24:26.987Z</time></trkpt><trkpt lat="44.6645917" lon="9.50155"><ele>928.0</ele><time>2026-04-30T10:24:28.988Z</time></trkpt><trkpt lat="44.6646767" lon="9.5015717"><ele>928.0</ele><time>2026-04-30T10:24:30.986Z</time></trkpt><trkpt lat="44.6647783" lon="9.50163"><ele>930.3333333333333</ele><time>2026-04-30T10:25:40.987Z</time></trkpt><trkpt lat="44.664865" lon="9.501645"><ele>932.6666666666666</ele><time>2026-04-30T10:25:42.987Z</time></trkpt><trkpt lat="44.6649583" lon="9.5016617"><ele>935.0</ele><time>2026-04-30T10:25:44.989Z</time></trkpt><trkpt lat="44.6650333" lon="9.5016833"><ele>937.3333333333333</ele><time>2026-04-30T10:25:46.99Z</time></trkpt><trkpt lat="44.6651033" lon="9.5016717"><ele>939.6666666666666</ele><time>2026-04-30T10:25:48.994Z</time></trkpt><trkpt lat="44.6651817" lon="9.5016467"><ele>942.0</ele><time>2026-04-30T10:25:50.991Z</time></trkpt><trkpt lat="44.6652533" lon="9.50163"><ele>944.8</ele><time>2026-04-30T10:25:52.987Z</time></trkpt><trkpt lat="44.665335" lon="9.5015883"><ele>947.6</ele><time>2026-04-30T10:25:54.99Z</time></trkpt><trkpt lat="44.6654067" lon="9.5015433"><ele>950.3999999999999</ele><time>2026-04-30T10:25:56.991Z</time></trkpt><trkpt lat="44.6654833" lon="9.5015067"><ele>953.1999999999999</ele><time>2026-04-30T10:25:58.989Z</time></trkpt><trkpt lat="44.6655783" lon="9.5014833"><ele>956.0</ele><time>2026-04-30T10:26:00.988Z</time></trkpt><trkpt lat="44.6656869" lon="9.501451"><ele>956.0000000000001</ele><time>2026-04-30T10:26:02.988Z</time></trkpt><trkpt lat="44.6657898" lon="9.5014274"><ele>956.0</ele><time>2026-04-30T10:26:04.995Z</time></trkpt><trkpt lat="44.665874" lon="9.5014525"><ele>956.0</ele><time>2026-04-30T10:26:06.99Z</time></trkpt><trkpt lat="44.6659497" lon="9.5015208"><ele>956.0</ele><time>2026-04-30T10:26:08.987Z</time></trkpt><trkpt lat="44.6659452" lon="9.5016365"><ele>956.0000000000001</ele><time>2026-04-30T10:26:11.99Z</time></trkpt><trkpt lat="44.6658969" lon="9.5017322"><ele>956.0</ele><time>2026-04-30T10:26:13.987Z</time></trkpt><trkpt lat="44.6658618" lon="9.501838"><ele>956.0000000000001</ele><time>2026-04-30T10:26:15.987Z</time></trkpt><trkpt lat="44.6658521" lon="9.5019639"><ele>956.0</ele><time>2026-04-30T10:26:17.987Z</time></trkpt><trkpt lat="44.6658546" lon="9.5020705"><ele>956.0</ele><time>2026-04-30T10:26:19.991Z</time></trkpt><trkpt lat="44.6658846" lon="9.5021562"><ele>956.0</ele><time>2026-04-30T10:26:21.989Z</time></trkpt><trkpt lat="44.6659285" lon="9.5022443"><ele>956.0000000000001</ele><time>2026-04-30T10:26:23.987Z</time></trkpt><trkpt lat="44.6659837" lon="9.502375"><ele>956.0</ele><time>2026-04-30T10:26:25.988Z</time></trkpt><trkpt lat="44.666048" lon="9.5025218"><ele>955.8333333333334</ele><time>2026-04-30T10:26:27.988Z</time></trkpt><trkpt lat="44.6660953" lon="9.5026247"><ele>955.6666666666667</ele><time>2026-04-30T10:26:29.994Z</time></trkpt><trkpt lat="44.6661619" lon="9.5025936"><ele>955.5</ele><time>2026-04-30T10:26:32.988Z</time></trkpt><trkpt lat="44.6661984" lon="9.5025016"><ele>955.3333333333333</ele><time>2026-04-30T10:26:34.988Z</time></trkpt><trkpt lat="44.6662301" lon="9.5023769"><ele>955.1666666666666</ele><time>2026-04-30T10:26:36.989Z</time></trkpt><trkpt lat="44.6662838" lon="9.5022305"><ele>955.0</ele><time>2026-04-30T10:26:38.99Z</time></trkpt><trkpt lat="44.6663483" lon="9.5021032"><ele>959.4</ele><time>2026-04-30T10:26:40.994Z</time></trkpt><trkpt lat="44.6664209" lon="9.5021145"><ele>963.8</ele><time>2026-04-30T10:26:43.988Z</time></trkpt><trkpt lat="44.6664251" lon="9.5022266"><ele>968.2</ele><time>2026-04-30T10:26:45.989Z</time></trkpt><trkpt lat="44.6664145" lon="9.502359"><ele>972.6</ele><time>2026-04-30T10:26:47.987Z</time></trkpt><trkpt lat="44.6664415" lon="9.5025128"><ele>977.0</ele><time>2026-04-30T10:26:49.992Z</time></trkpt><trkpt lat="44.6665071" lon="9.5026309"><ele>977.0</ele><time>2026-04-30T10:26:51.987Z</time></trkpt><trkpt lat="44.6665994" lon="9.502656"><ele>977.0</ele><time>2026-04-30T10:26:54.992Z</time></trkpt><trkpt lat="44.6666911" lon="9.5026699"><ele>977.0</ele><time>2026-04-30T10:26:56.987Z</time></trkpt><trkpt lat="44.6667952" lon="9.5026596"><ele>977.0</ele><time>2026-04-30T10:26:58.987Z</time></trkpt><trkpt lat="44.6669226" lon="9.5026476"><ele>977.0</ele><time>2026-04-30T10:27:00.989Z</time></trkpt><trkpt lat="44.6669882" lon="9.5026558"><ele>983.0</ele><time>2026-04-30T10:27:01.988Z</time></trkpt><trkpt lat="44.667098" lon="9.5026661"><ele>989.0</ele><time>2026-04-30T10:27:03.991Z</time></trkpt><trkpt lat="44.6672025" lon="9.5026297"><ele>995.0</ele><time>2026-04-30T10:27:05.989Z</time></trkpt><trkpt lat="44.6673129" lon="9.5026068"><ele>1001.0</ele><time>2026-04-30T10:27:07.988Z</time></trkpt><trkpt lat="44.6674475" lon="9.5025803"><ele>1001.0000000000001</ele><time>2026-04-30T10:27:09.988Z</time></trkpt><trkpt lat="44.667525" lon="9.5025613"><ele>1001.0</ele><time>2026-04-30T10:27:10.987Z</time></trkpt><trkpt lat="44.6676072" lon="9.5025422"><ele>1001.0</ele><time>2026-04-30T10:27:11.987Z</time></trkpt><trkpt lat="44.6676857" lon="9.5025176"><ele>1001.0</ele><time>2026-04-30T10:27:12.987Z</time></trkpt><trkpt lat="44.6677544" lon="9.5024852"><ele>1001.0000000000001</ele><time>2026-04-30T10:27:13.987Z</time></trkpt><trkpt lat="44.6678209" lon="9.5024456"><ele>1001.0</ele><time>2026-04-30T10:27:14.988Z</time></trkpt><trkpt lat="44.6679342" lon="9.5023816"><ele>1005.3333333333334</ele><time>2026-04-30T10:27:16.988Z</time></trkpt><trkpt lat="44.6679959" lon="9.5023577"><ele>1009.6666666666667</ele><time>2026-04-30T10:27:17.988Z</time></trkpt><trkpt lat="44.6680625" lon="9.5023326"><ele>1014.0</ele><time>2026-04-30T10:27:18.99Z</time></trkpt><trkpt lat="44.6681314" lon="9.5023014"><ele>1018.3333333333333</ele><time>2026-04-30T10:27:19.99Z</time></trkpt><trkpt lat="44.6681935" lon="9.5022734"><ele>1022.6666666666666</ele><time>2026-04-30T10:27:20.991Z</time></trkpt><trkpt lat="44.6682961" lon="9.5022167"><ele>1027.0</ele><time>2026-04-30T10:27:22.991Z</time></trkpt><trkpt lat="44.6684016" lon="9.5021323"><ele>1027.0</ele><time>2026-04-30T10:27:24.991Z</time></trkpt><trkpt lat="44.6685097" lon="9.5020574"><ele>1027.0</ele><time>2026-04-30T10:27:26.996Z</time></trkpt><trkpt lat="44.668567" lon="9.5020179"><ele>1027.0</ele><time>2026-04-30T10:27:27.991Z</time></trkpt><trkpt lat="44.6686482" lon="9.5019343"><ele>1027.0</ele><time>2026-04-30T10:27:29.991Z</time></trkpt><trkpt lat="44.6687009" lon="9.5018395"><ele>1027.0</ele><time>2026-04-30T10:27:59.991Z</time></trkpt><trkpt lat="44.6687313" lon="9.5017462"><ele>1027.0</ele><time>2026-04-30T10:28:01.989Z</time></trkpt><trkpt lat="44.6687744" lon="9.5016468"><ele>1030.8333333333333</ele><time>2026-04-30T10:28:03.989Z</time></trkpt><trkpt lat="44.6688336" lon="9.5015728"><ele>1034.6666666666665</ele><time>2026-04-30T10:28:05.991Z</time></trkpt><trkpt lat="44.6689193" lon="9.5015355"><ele>1038.5</ele><time>2026-04-30T10:28:07.989Z</time></trkpt><trkpt lat="44.6689882" lon="9.5015487"><ele>1042.3333333333333</ele><time>2026-04-30T10:28:09.989Z</time></trkpt><trkpt lat="44.6690385" lon="9.5016294"><ele>1046.1666666666667</ele><time>2026-04-30T10:28:11.987Z</time></trkpt><trkpt lat="44.6690837" lon="9.5017106"><ele>1050.0</ele><time>2026-04-30T10:28:13.988Z</time></trkpt><trkpt lat="44.669147" lon="9.5017588"><ele>1050.0</ele><time>2026-04-30T10:28:15.989Z</time></trkpt><trkpt lat="44.6692134" lon="9.5017715"><ele>1050.0</ele><time>2026-04-30T10:28:17.991Z</time></trkpt><trkpt lat="44.6692913" lon="9.5017896"><ele>1050.0</ele><time>2026-04-30T10:28:20.989Z</time></trkpt><trkpt lat="44.669378" lon="9.5018288"><ele>1050.0</ele><time>2026-04-30T10:28:22.989Z</time></trkpt><trkpt lat="44.6694685" lon="9.5018668"><ele>1050.0</ele><time>2026-04-30T10:28:24.988Z</time></trkpt><trkpt lat="44.6695663" lon="9.501877"><ele>1050.0</ele><time>2026-04-30T10:28:26.99Z</time></trkpt><trkpt lat="44.6696531" lon="9.5018668"><ele>1053.8333333333333</ele><time>2026-04-30T10:28:28.99Z</time></trkpt><trkpt lat="44.6697506" lon="9.5018504"><ele>1057.6666666666667</ele><time>2026-04-30T10:28:30.99Z</time></trkpt><trkpt lat="44.6698273" lon="9.5018349"><ele>1061.5</ele><time>2026-04-30T10:28:32.99Z</time></trkpt><trkpt lat="44.6699039" lon="9.5018305"><ele>1065.3333333333335</ele><time>2026-04-30T10:28:35.987Z</time></trkpt><trkpt lat="44.6699869" lon="9.5018092"><ele>1069.1666666666667</ele><time>2026-04-30T10:28:37.989Z</time></trkpt><trkpt lat="44.6700745" lon="9.5017906"><ele>1073.0</ele><time>2026-04-30T10:28:39.987Z</time></trkpt><trkpt lat="44.6701775" lon="9.5017835"><ele>1077.4</ele><time>2026-04-30T10:28:41.989Z</time></trkpt><trkpt lat="44.670295" lon="9.5017785"><ele>1081.8</ele><time>2026-04-30T10:28:43.99Z</time></trkpt><trkpt lat="44.6703884" lon="9.5017504"><ele>1086.2</ele><time>2026-04-30T10:28:45.987Z</time></trkpt><trkpt lat="44.6704523" lon="9.5016972"><ele>1090.6</ele><time>2026-04-30T10:28:47.989Z</time></trkpt><trkpt lat="44.6705238" lon="9.5016589"><ele>1095.0</ele><time>2026-04-30T10:28:49.989Z</time></trkpt><trkpt lat="44.6706074" lon="9.5016999"><ele>1095.0</ele><time>2026-04-30T10:28:52.956Z</time></trkpt><trkpt lat="44.6706851" lon="9.5017517"><ele>1095.0</ele><time>2026-04-30T10:28:54.989Z</time></trkpt><trkpt lat="44.670779" lon="9.5018008"><ele>1095.0</ele><time>2026-04-30T10:28:57.068Z</time></trkpt><trkpt lat="44.6707915" lon="9.5018974"><ele>1095.0</ele><time>2026-04-30T10:28:59.044Z</time></trkpt><trkpt lat="44.6707207" lon="9.5019873"><ele>1095.0</ele><time>2026-04-30T10:29:01.02Z</time></trkpt><trkpt lat="44.6706499" lon="9.5021153"><ele>1095.6666666666667</ele><time>2026-04-30T10:29:02.988Z</time></trkpt><trkpt lat="44.6706197" lon="9.5022002"><ele>1096.3333333333333</ele><time>2026-04-30T10:29:03.996Z</time></trkpt><trkpt lat="44.6705945" lon="9.5022842"><ele>1097.0</ele><time>2026-04-30T10:29:04.988Z</time></trkpt><trkpt lat="44.6705821" lon="9.5023724"><ele>1097.6666666666665</ele><time>2026-04-30T10:29:05.989Z</time></trkpt><trkpt lat="44.6706061" lon="9.5025106"><ele>1098.3333333333333</ele><time>2026-04-30T10:29:07.988Z</time></trkpt><trkpt lat="44.6706876" lon="9.5026088"><ele>1099.0</ele><time>2026-04-30T10:29:09.99Z</time></trkpt><trkpt lat="44.6707808" lon="9.5026716"><ele>1099.0</ele><time>2026-04-30T10:29:11.989Z</time></trkpt><trkpt lat="44.6708949" lon="9.5027222"><ele>1099.0</ele><time>2026-04-30T10:29:13.989Z</time></trkpt><trkpt lat="44.6710039" lon="9.5027721"><ele>1099.0</ele><time>2026-04-30T10:29:15.993Z</time></trkpt><trkpt lat="44.6710835" lon="9.5027971"><ele>1099.0</ele><time>2026-04-30T10:29:17.987Z</time></trkpt><trkpt lat="44.6711563" lon="9.502809"><ele>1099.0</ele><time>2026-04-30T10:29:19.987Z</time></trkpt><trkpt lat="44.6712556" lon="9.5028274"><ele>1101.6000000000001</ele><time>2026-04-30T10:29:21.989Z</time></trkpt><trkpt lat="44.6713747" lon="9.5028742"><ele>1104.2</ele><time>2026-04-30T10:29:23.988Z</time></trkpt><trkpt lat="44.6714889" lon="9.5029452"><ele>1106.8000000000002</ele><time>2026-04-30T10:29:25.987Z</time></trkpt><trkpt lat="44.6715512" lon="9.5029776"><ele>1109.4</ele><time>2026-04-30T10:29:26.988Z</time></trkpt><trkpt lat="44.6716153" lon="9.503008"><ele>1112.0</ele><time>2026-04-30T10:29:27.988Z</time></trkpt><trkpt lat="44.6717383" lon="9.5030613"><ele>1112.0</ele><time>2026-04-30T10:29:29.986Z</time></trkpt><trkpt lat="44.6718061" lon="9.503095"><ele>1112.0</ele><time>2026-04-30T10:29:30.987Z</time></trkpt><trkpt lat="44.6718717" lon="9.5031276"><ele>1112.0</ele><time>2026-04-30T10:29:31.99Z</time></trkpt><trkpt lat="44.6719388" lon="9.5031569"><ele>1112.0</ele><time>2026-04-30T10:29:32.989Z</time></trkpt><trkpt lat="44.6720026" lon="9.5031816"><ele>1112.0</ele><time>2026-04-30T10:29:33.991Z</time></trkpt><trkpt lat="44.6720641" lon="9.503207"><ele>1112.0</ele><time>2026-04-30T10:29:34.987Z</time></trkpt><trkpt lat="44.6721636" lon="9.5032223"><ele>1112.0</ele><time>2026-04-30T10:29:36.986Z</time></trkpt><trkpt lat="44.6722326" lon="9.5031829"><ele>1114.8333333333335</ele><time>2026-04-30T10:29:38.991Z</time></trkpt><trkpt lat="44.6723015" lon="9.5032289"><ele>1117.6666666666667</ele><time>2026-04-30T10:29:42.988Z</time></trkpt><trkpt lat="44.6722838" lon="9.5033212"><ele>1120.5</ele><time>2026-04-30T10:29:55.989Z</time></trkpt><trkpt lat="44.6722396" lon="9.5034721"><ele>1123.3333333333333</ele><time>2026-04-30T10:29:57.987Z</time></trkpt><trkpt lat="44.6722211" lon="9.5035698"><ele>1126.1666666666665</ele><time>2026-04-30T10:29:58.989Z</time></trkpt><trkpt lat="44.6722132" lon="9.5036718"><ele>1129.0</ele><time>2026-04-30T10:29:59.988Z</time></trkpt><trkpt lat="44.6722124" lon="9.5037656"><ele>1130.4</ele><time>2026-04-30T10:30:00.989Z</time></trkpt><trkpt lat="44.6722362" lon="9.503926"><ele>1131.8000000000002</ele><time>2026-04-30T10:30:02.989Z</time></trkpt><trkpt lat="44.6722892" lon="9.5040424"><ele>1133.1999999999998</ele><time>2026-04-30T10:30:04.991Z</time></trkpt><trkpt lat="44.672349" lon="9.5041712"><ele>1134.6</ele><time>2026-04-30T10:30:06.988Z</time></trkpt><trkpt lat="44.6723799" lon="9.5042697"><ele>1136.0</ele><time>2026-04-30T10:30:08.988Z</time></trkpt><trkpt lat="44.6724268" lon="9.5043311"><ele>1136.0</ele><time>2026-04-30T10:30:10.994Z</time></trkpt><trkpt lat="44.6724987" lon="9.5043746"><ele>1136.0</ele><time>2026-04-30T10:30:12.987Z</time></trkpt><trkpt lat="44.6725549" lon="9.5044232"><ele>1136.0</ele><time>2026-04-30T10:30:14.987Z</time></trkpt><trkpt lat="44.6726113" lon="9.5044974"><ele>1136.0</ele><time>2026-04-30T10:30:16.988Z</time></trkpt><trkpt lat="44.6726706" lon="9.5045827"><ele>1136.0</ele><time>2026-04-30T10:30:18.986Z</time></trkpt><trkpt lat="44.6727236" lon="9.504644"><ele>1136.0</ele><time>2026-04-30T10:30:20.987Z</time></trkpt><trkpt lat="44.6727906" lon="9.5047169"><ele>1139.2857142857142</ele><time>2026-04-30T10:30:24.986Z</time></trkpt><trkpt lat="44.6728462" lon="9.5047713"><ele>1142.5714285714284</ele><time>2026-04-30T10:30:26.987Z</time></trkpt><trkpt lat="44.6729033" lon="9.5048433"><ele>1145.857142857143</ele><time>2026-04-30T10:30:30.988Z</time></trkpt><trkpt lat="44.6729433" lon="9.504915"><ele>1149.142857142857</ele><time>2026-04-30T10:30:36.988Z</time></trkpt><trkpt lat="44.6729983" lon="9.504965"><ele>1152.4285714285716</ele><time>2026-04-30T10:30:38.995Z</time></trkpt><trkpt lat="44.673075" lon="9.504985"><ele>1155.7142857142858</ele><time>2026-04-30T10:30:40.99Z</time></trkpt><trkpt lat="44.673155" lon="9.5050167"><ele>1159.0</ele><time>2026-04-30T10:30:42.987Z</time></trkpt><trkpt lat="44.6732283" lon="9.50503"><ele>1159.0</ele><time>2026-04-30T10:30:44.988Z</time></trkpt><trkpt lat="44.6732827" lon="9.5050819"><ele>1159.0</ele><time>2026-04-30T10:30:46.992Z</time></trkpt><trkpt lat="44.6733489" lon="9.5050992"><ele>1159.0</ele><time>2026-04-30T10:30:47.987Z</time></trkpt><trkpt lat="44.6734247" lon="9.5051535"><ele>1159.0</ele><time>2026-04-30T10:30:49.988Z</time></trkpt><trkpt lat="44.6734954" lon="9.5051711"><ele>1159.0</ele><time>2026-04-30T10:30:51.988Z</time></trkpt><trkpt lat="44.6736024" lon="9.5051966"><ele>1159.0</ele><time>2026-04-30T10:31:28.989Z</time></trkpt><trkpt lat="44.6736956" lon="9.5051173"><ele>1159.8</ele><time>2026-04-30T10:31:30.994Z</time></trkpt><trkpt lat="44.673752" lon="9.5049956"><ele>1160.6000000000001</ele><time>2026-04-30T10:31:32.988Z</time></trkpt><trkpt lat="44.6737998" lon="9.5048803"><ele>1161.4</ele><time>2026-04-30T10:31:34.989Z</time></trkpt><trkpt lat="44.6738479" lon="9.5047557"><ele>1162.2</ele><time>2026-04-30T10:31:36.988Z</time></trkpt><trkpt lat="44.6739082" lon="9.5046082"><ele>1163.0</ele><time>2026-04-30T10:31:38.994Z</time></trkpt><trkpt lat="44.6739485" lon="9.5045306"><ele>1164.1666666666667</ele><time>2026-04-30T10:31:39.989Z</time></trkpt><trkpt lat="44.6739853" lon="9.5044519"><ele>1165.3333333333335</ele><time>2026-04-30T10:31:40.989Z</time></trkpt><trkpt lat="44.6740131" lon="9.504372"><ele>1166.5</ele><time>2026-04-30T10:31:41.989Z</time></trkpt><trkpt lat="44.6740498" lon="9.5042153"><ele>1167.6666666666667</ele><time>2026-04-30T10:31:43.988Z</time></trkpt><trkpt lat="44.6740821" lon="9.504077"><ele>1168.8333333333333</ele><time>2026-04-30T10:31:45.988Z</time></trkpt><trkpt lat="44.6741109" lon="9.5039528"><ele>1170.0</ele><time>2026-04-30T10:31:47.989Z</time></trkpt><trkpt lat="44.6741364" lon="9.5038157"><ele>1170.8</ele><time>2026-04-30T10:31:49.989Z</time></trkpt><trkpt lat="44.6741545" lon="9.5036678"><ele>1171.6</ele><time>2026-04-30T10:31:51.99Z</time></trkpt><trkpt lat="44.6741618" lon="9.5035303"><ele>1172.4</ele><time>2026-04-30T10:31:53.988Z</time></trkpt><trkpt lat="44.6741926" lon="9.5033876"><ele>1173.2</ele><time>2026-04-30T10:31:55.987Z</time></trkpt><trkpt lat="44.674234" lon="9.5032331"><ele>1174.0</ele><time>2026-04-30T10:31:57.988Z</time></trkpt><trkpt lat="44.6742702" lon="9.5030639"><ele>1173.8</ele><time>2026-04-30T10:31:59.988Z</time></trkpt><trkpt lat="44.67432" lon="9.5029104"><ele>1173.6000000000001</ele><time>2026-04-30T10:32:01.988Z</time></trkpt><trkpt lat="44.674386" lon="9.5027783"><ele>1173.4</ele><time>2026-04-30T10:32:03.987Z</time></trkpt><trkpt lat="44.6744432" lon="9.50265"><ele>1173.2</ele><time>2026-04-30T10:32:05.991Z</time></trkpt><trkpt lat="44.6744502" lon="9.502545"><ele>1173.0</ele><time>2026-04-30T10:32:07.989Z</time></trkpt><trkpt lat="44.67446" lon="9.5024234"><ele>1173.0</ele><time>2026-04-30T10:32:09.989Z</time></trkpt><trkpt lat="44.6744739" lon="9.5022917"><ele>1173.0</ele><time>2026-04-30T10:32:11.987Z</time></trkpt><trkpt lat="44.6744511" lon="9.5021408"><ele>1173.0</ele><time>2026-04-30T10:32:13.988Z</time></trkpt><trkpt lat="44.6744177" lon="9.5019839"><ele>1173.0</ele><time>2026-04-30T10:32:15.987Z</time></trkpt><trkpt lat="44.6743835" lon="9.5018503"><ele>1173.0</ele><time>2026-04-30T10:32:17.987Z</time></trkpt><trkpt lat="44.6743773" lon="9.5017076"><ele>1173.5</ele><time>2026-04-30T10:32:19.993Z</time></trkpt><trkpt lat="44.6744" lon="9.50156"><ele>1174.0</ele><time>2026-04-30T10:32:21.987Z</time></trkpt><trkpt lat="44.6744055" lon="9.5014669"><ele>1174.5</ele><time>2026-04-30T10:32:24.988Z</time></trkpt><trkpt lat="44.6744565" lon="9.501401"><ele>1175.0</ele><time>2026-04-30T10:32:29.988Z</time></trkpt><trkpt lat="44.674506" lon="9.5013298"><ele>1175.5</ele><time>2026-04-30T10:32:31.987Z</time></trkpt><trkpt lat="44.6745844" lon="9.501276"><ele>1176.0</ele><time>2026-04-30T10:32:34.988Z</time></trkpt><trkpt lat="44.6746404" lon="9.5012273"><ele>1178.0</ele><time>2026-04-30T10:32:36.988Z</time></trkpt><trkpt lat="44.6747035" lon="9.5011664"><ele>1180.0</ele><time>2026-04-30T10:32:38.989Z</time></trkpt><trkpt lat="44.6747731" lon="9.5011044"><ele>1182.0</ele><time>2026-04-30T10:32:40.988Z</time></trkpt><trkpt lat="44.6748495" lon="9.5010525"><ele>1184.0</ele><time>2026-04-30T10:32:42.989Z</time></trkpt><trkpt lat="44.6749347" lon="9.5010124"><ele>1186.0</ele><time>2026-04-30T10:32:44.99Z</time></trkpt><trkpt lat="44.6750258" lon="9.5009783"><ele>1188.0</ele><time>2026-04-30T10:32:46.988Z</time></trkpt><trkpt lat="44.6751202" lon="9.5009276"><ele>1188.0</ele><time>2026-04-30T10:32:48.988Z</time></trkpt><trkpt lat="44.6752096" lon="9.5008704"><ele>1188.0</ele><time>2026-04-30T10:32:50.988Z</time></trkpt><trkpt lat="44.6752699" lon="9.5008295"><ele>1188.0</ele><time>2026-04-30T10:32:52.99Z</time></trkpt><trkpt lat="44.6753536" lon="9.5008396"><ele>1188.0</ele><time>2026-04-30T10:32:55.988Z</time></trkpt><trkpt lat="44.6754222" lon="9.5008634"><ele>1188.0</ele><time>2026-04-30T10:32:57.988Z</time></trkpt><trkpt lat="44.6754905" lon="9.5008905"><ele>1188.0</ele><time>2026-04-30T10:32:59.987Z</time></trkpt><trkpt lat="44.6755492" lon="9.5009606"><ele>1187.5</ele><time>2026-04-30T10:33:02.991Z</time></trkpt><trkpt lat="44.6756583" lon="9.5010083"><ele>1187.0</ele><time>2026-04-30T10:33:19.989Z</time></trkpt><trkpt lat="44.6757233" lon="9.50102"><ele>1186.5</ele><time>2026-04-30T10:33:22.99Z</time></trkpt><trkpt lat="44.6757767" lon="9.5011"><ele>1186.0</ele><time>2026-04-30T10:33:25.989Z</time></trkpt><trkpt lat="44.67579" lon="9.50119"><ele>1185.5</ele><time>2026-04-30T10:33:28.987Z</time></trkpt><trkpt lat="44.6758467" lon="9.5012383"><ele>1185.0</ele><time>2026-04-30T10:33:31.989Z</time></trkpt><trkpt lat="44.67591" lon="9.50125"><ele>1184.3333333333333</ele><time>2026-04-30T10:33:34.989Z</time></trkpt><trkpt lat="44.6759883" lon="9.5013283"><ele>1183.6666666666667</ele><time>2026-04-30T10:33:37.989Z</time></trkpt><trkpt lat="44.6760467" lon="9.50137"><ele>1183.0</ele><time>2026-04-30T10:33:39.992Z</time></trkpt><trkpt lat="44.676105" lon="9.5014367"><ele>1182.3333333333335</ele><time>2026-04-30T10:33:41.988Z</time></trkpt><trkpt lat="44.6761633" lon="9.5014867"><ele>1181.6666666666667</ele><time>2026-04-30T10:33:43.987Z</time></trkpt><trkpt lat="44.67623" lon="9.50153"><ele>1181.0</ele><time>2026-04-30T10:33:46.987Z</time></trkpt><trkpt lat="44.67632" lon="9.5016033"><ele>1181.0</ele><time>2026-04-30T10:33:49.99Z</time></trkpt><trkpt lat="44.6763967" lon="9.5016883"><ele>1181.0</ele><time>2026-04-30T10:33:51.987Z</time></trkpt><trkpt lat="44.6764717" lon="9.5017733"><ele>1181.0</ele><time>2026-04-30T10:33:53.988Z</time></trkpt><trkpt lat="44.676545" lon="9.5018"><ele>1181.0</ele><time>2026-04-30T10:33:55.993Z</time></trkpt><trkpt lat="44.67664" lon="9.50175"><ele>1181.0</ele><time>2026-04-30T10:33:58.988Z</time></trkpt><trkpt lat="44.6767133" lon="9.5017"><ele>1181.0</ele><time>2026-04-30T10:34:00.988Z</time></trkpt><trkpt lat="44.6767717" lon="9.50164"><ele>1181.0</ele><time>2026-04-30T10:34:02.988Z</time></trkpt><trkpt lat="44.6768517" lon="9.5015983"><ele>1181.0</ele><time>2026-04-30T10:34:05.989Z</time></trkpt><trkpt lat="44.6769133" lon="9.50163"><ele>1181.0</ele><time>2026-04-30T10:34:07.989Z</time></trkpt><trkpt lat="44.6769833" lon="9.501645"><ele>1181.0</ele><time>2026-04-30T10:34:09.991Z</time></trkpt><trkpt lat="44.6770517" lon="9.5016267"><ele>1181.0</ele><time>2026-04-30T10:34:11.991Z</time></trkpt><trkpt lat="44.677115" lon="9.5016283"><ele>1181.0</ele><time>2026-04-30T10:34:13.991Z</time></trkpt><trkpt lat="44.6772067" lon="9.50164"><ele>1181.0</ele><time>2026-04-30T10:34:16.99Z</time></trkpt><trkpt lat="44.677295" lon="9.501655"><ele>1181.0</ele><time>2026-04-30T10:34:19.99Z</time></trkpt><trkpt lat="44.67738" lon="9.50164"><ele>1181.0</ele><time>2026-04-30T10:34:21.989Z</time></trkpt><trkpt lat="44.67746" lon="9.5016083"><ele>1181.0</ele><time>2026-04-30T10:34:23.989Z</time></trkpt><trkpt lat="44.6775333" lon="9.50158"><ele>1181.0</ele><time>2026-04-30T10:34:25.989Z</time></trkpt><trkpt lat="44.6776117" lon="9.501575"><ele>1181.0</ele><time>2026-04-30T10:34:27.988Z</time></trkpt><trkpt lat="44.677695" lon="9.50158"><ele>1181.0</ele><time>2026-04-30T10:34:29.987Z</time></trkpt><trkpt lat="44.6777633" lon="9.5015817"><ele>1181.0</ele><time>2026-04-30T10:34:31.988Z</time></trkpt><trkpt lat="44.6778433" lon="9.5016033"><ele>1181.0</ele><time>2026-04-30T10:34:33.988Z</time></trkpt><trkpt lat="44.67795" lon="9.501625"><ele>1181.0</ele><time>2026-04-30T10:34:35.988Z</time></trkpt><trkpt lat="44.67802" lon="9.5016483"><ele>1181.0</ele><time>2026-04-30T10:34:36.988Z</time></trkpt><trkpt lat="44.6781183" lon="9.501705"><ele>1181.0</ele><time>2026-04-30T10:34:38.99Z</time></trkpt><trkpt lat="44.6781917" lon="9.501745"><ele>1181.6666666666667</ele><time>2026-04-30T10:34:40.99Z</time></trkpt><trkpt lat="44.678275" lon="9.501785"><ele>1182.3333333333335</ele><time>2026-04-30T10:34:56.988Z</time></trkpt><trkpt lat="44.67835" lon="9.5017967"><ele>1183.0</ele><time>2026-04-30T10:34:58.988Z</time></trkpt><trkpt lat="44.67841" lon="9.50185"><ele>1183.6666666666667</ele><time>2026-04-30T10:35:00.988Z</time></trkpt><trkpt lat="44.6784467" lon="9.5019417"><ele>1184.3333333333333</ele><time>2026-04-30T10:35:03.988Z</time></trkpt><trkpt lat="44.678515" lon="9.5019517"><ele>1185.0</ele><time>2026-04-30T10:35:06.988Z</time></trkpt><trkpt lat="44.678595" lon="9.5019317"><ele>1183.5</ele><time>2026-04-30T10:35:08.987Z</time></trkpt><trkpt lat="44.6786867" lon="9.5019283"><ele>1182.0</ele><time>2026-04-30T10:35:10.988Z</time></trkpt><trkpt lat="44.67878" lon="9.5019333"><ele>1180.5</ele><time>2026-04-30T10:35:12.988Z</time></trkpt><trkpt lat="44.6788683" lon="9.5019383"><ele>1179.0</ele><time>2026-04-30T10:35:14.988Z</time></trkpt><trkpt lat="44.6789417" lon="9.5019217"><ele>1177.5</ele><time>2026-04-30T10:35:16.988Z</time></trkpt><trkpt lat="44.679025" lon="9.5019017"><ele>1176.0</ele><time>2026-04-30T10:35:18.988Z</time></trkpt><trkpt lat="44.6791033" lon="9.5018383"><ele>1176.0</ele><time>2026-04-30T10:35:21.987Z</time></trkpt><trkpt lat="44.6791733" lon="9.5018033"><ele>1176.0</ele><time>2026-04-30T10:35:24.988Z</time></trkpt><trkpt lat="44.6792467" lon="9.5017983"><ele>1176.0</ele><time>2026-04-30T10:35:27.989Z</time></trkpt><trkpt lat="44.6793317" lon="9.5017983"><ele>1176.0</ele><time>2026-04-30T10:35:30.988Z</time></trkpt><trkpt lat="44.6793967" lon="9.50178"><ele>1176.0</ele><time>2026-04-30T10:35:32.987Z</time></trkpt><trkpt lat="44.679485" lon="9.5017467"><ele>1176.0</ele><time>2026-04-30T10:35:34.986Z</time></trkpt><trkpt lat="44.6795817" lon="9.5017467"><ele>1173.1666666666667</ele><time>2026-04-30T10:35:36.988Z</time></trkpt><trkpt lat="44.6796683" lon="9.5017667"><ele>1170.3333333333333</ele><time>2026-04-30T10:35:38.988Z</time></trkpt><trkpt lat="44.679745" lon="9.5016817"><ele>1167.5</ele><time>2026-04-30T10:35:41.988Z</time></trkpt><trkpt lat="44.6797883" lon="9.5015867"><ele>1164.6666666666665</ele><time>2026-04-30T10:35:43.988Z</time></trkpt><trkpt lat="44.6798333" lon="9.501505"><ele>1161.8333333333333</ele><time>2026-04-30T10:35:45.991Z</time></trkpt><trkpt lat="44.679865" lon="9.5014267"><ele>1159.0</ele><time>2026-04-30T10:35:47.988Z</time></trkpt><trkpt lat="44.6799067" lon="9.5013267"><ele>1159.8333333333333</ele><time>2026-04-30T10:35:50.989Z</time></trkpt><trkpt lat="44.679965" lon="9.5012467"><ele>1160.6666666666665</ele><time>2026-04-30T10:35:53.988Z</time></trkpt><trkpt lat="44.6800367" lon="9.5012067"><ele>1161.5</ele><time>2026-04-30T10:35:55.988Z</time></trkpt><trkpt lat="44.6801233" lon="9.5011933"><ele>1162.3333333333333</ele><time>2026-04-30T10:35:57.989Z</time></trkpt><trkpt lat="44.6802133" lon="9.50118"><ele>1163.1666666666667</ele><time>2026-04-30T10:35:59.989Z</time></trkpt><trkpt lat="44.6803017" lon="9.50117"><ele>1164.0</ele><time>2026-04-30T10:36:01.991Z</time></trkpt><trkpt lat="44.680375" lon="9.501195"><ele>1160.5</ele><time>2026-04-30T10:36:03.989Z</time></trkpt><trkpt lat="44.68046" lon="9.50118"><ele>1157.0</ele><time>2026-04-30T10:36:06.988Z</time></trkpt><trkpt lat="44.68054" lon="9.501115"><ele>1153.5</ele><time>2026-04-30T10:36:08.988Z</time></trkpt><trkpt lat="44.6806333" lon="9.50104"><ele>1150.0</ele><time>2026-04-30T10:36:10.988Z</time></trkpt><trkpt lat="44.680705" lon="9.500985"><ele>1146.5</ele><time>2026-04-30T10:36:12.988Z</time></trkpt><trkpt lat="44.680765" lon="9.50095"><ele>1143.0</ele><time>2026-04-30T10:36:14.99Z</time></trkpt><trkpt lat="44.6808183" lon="9.5008967"><ele>1143.0</ele><time>2026-04-30T10:36:17.99Z</time></trkpt><trkpt lat="44.6808783" lon="9.5008217"><ele>1143.0</ele><time>2026-04-30T10:36:20.989Z</time></trkpt><trkpt lat="44.6809383" lon="9.5007667"><ele>1143.0</ele><time>2026-04-30T10:36:25.991Z</time></trkpt><trkpt lat="44.6809983" lon="9.500705"><ele>1143.0</ele><time>2026-04-30T10:36:30.992Z</time></trkpt><trkpt lat="44.6810733" lon="9.5006317"><ele>1143.0</ele><time>2026-04-30T10:36:38.993Z</time></trkpt><trkpt lat="44.6811867" lon="9.5006417"><ele>1143.0</ele><time>2026-04-30T10:36:41.991Z</time></trkpt><trkpt lat="44.6812583" lon="9.5006167"><ele>1143.0</ele><time>2026-04-30T10:36:43.995Z</time></trkpt><trkpt lat="44.681335" lon="9.500515"><ele>1143.0</ele><time>2026-04-30T10:36:45.99Z</time></trkpt><trkpt lat="44.6813967" lon="9.5004333"><ele>1143.0</ele><time>2026-04-30T10:36:47.99Z</time></trkpt><trkpt lat="44.68147" lon="9.5003917"><ele>1143.0</ele><time>2026-04-30T10:36:50.989Z</time></trkpt><trkpt lat="44.6815617" lon="9.500365"><ele>1143.0</ele><time>2026-04-30T10:36:54.992Z</time></trkpt><trkpt lat="44.6816317" lon="9.5003383"><ele>1143.0</ele><time>2026-04-30T10:36:57.992Z</time></trkpt><trkpt lat="44.6817033" lon="9.5003317"><ele>1143.0</ele><time>2026-04-30T10:37:00.994Z</time></trkpt><trkpt lat="44.681765" lon="9.5003017"><ele>1143.0</ele><time>2026-04-30T10:37:04.996Z</time></trkpt><trkpt lat="44.6818433" lon="9.500305"><ele>1143.0</ele><time>2026-04-30T10:37:09Z</time></trkpt><trkpt lat="44.681925" lon="9.500295"><ele>1143.0</ele><time>2026-04-30T10:37:11.992Z</time></trkpt><trkpt lat="44.6819933" lon="9.50028"><ele>1143.0</ele><time>2026-04-30T10:37:15.994Z</time></trkpt><trkpt lat="44.682065" lon="9.5002667"><ele>1143.0</ele><time>2026-04-30T10:37:19.996Z</time></trkpt><trkpt lat="44.6821417" lon="9.500265"><ele>1143.0</ele><time>2026-04-30T10:37:23.993Z</time></trkpt><trkpt lat="44.6822183" lon="9.50025"><ele>1139.6666666666667</ele><time>2026-04-30T10:37:27.996Z</time></trkpt><trkpt lat="44.6823" lon="9.500265"><ele>1136.3333333333333</ele><time>2026-04-30T10:37:30.997Z</time></trkpt><trkpt lat="44.6823917" lon="9.5002783"><ele>1133.0</ele><time>2026-04-30T10:37:33.999Z</time></trkpt><trkpt lat="44.6824667" lon="9.500245"><ele>1129.6666666666665</ele><time>2026-04-30T10:37:37.996Z</time></trkpt><trkpt lat="44.6825283" lon="9.5002167"><ele>1126.3333333333333</ele><time>2026-04-30T10:37:39.994Z</time></trkpt><trkpt lat="44.6826283" lon="9.5001567"><ele>1123.0</ele><time>2026-04-30T10:37:41.997Z</time></trkpt><trkpt lat="44.6826883" lon="9.5001033"><ele>1123.0</ele><time>2026-04-30T10:37:42.996Z</time></trkpt><trkpt lat="44.6827433" lon="9.5000533"><ele>1123.0</ele><time>2026-04-30T10:37:43.997Z</time></trkpt><trkpt lat="44.6828517" lon="9.4999817"><ele>1123.0</ele><time>2026-04-30T10:37:45.988Z</time></trkpt><trkpt lat="44.682965" lon="9.499965"><ele>1123.0</ele><time>2026-04-30T10:37:48.001Z</time></trkpt><trkpt lat="44.6830483" lon="9.4999817"><ele>1123.0</ele><time>2026-04-30T10:37:49.996Z</time></trkpt><trkpt lat="44.68313" lon="9.4999767"><ele>1121.4285714285713</ele><time>2026-04-30T10:37:52.996Z</time></trkpt><trkpt lat="44.683195" lon="9.4999533"><ele>1119.857142857143</ele><time>2026-04-30T10:37:55.997Z</time></trkpt><trkpt lat="44.6832783" lon="9.4998967"><ele>1118.2857142857142</ele><time>2026-04-30T10:37:58.994Z</time></trkpt><trkpt lat="44.6833317" lon="9.4998367"><ele>1116.7142857142858</ele><time>2026-04-30T10:38:00.994Z</time></trkpt><trkpt lat="44.683375" lon="9.4997483"><ele>1115.142857142857</ele><time>2026-04-30T10:38:02.995Z</time></trkpt><trkpt lat="44.6834083" lon="9.4996717"><ele>1113.5714285714284</ele><time>2026-04-30T10:38:04.987Z</time></trkpt><trkpt lat="44.68345" lon="9.499595"><ele>1112.0</ele><time>2026-04-30T10:38:06.993Z</time></trkpt><trkpt lat="44.6835067" lon="9.49951"><ele>1112.0</ele><time>2026-04-30T10:38:08.998Z</time></trkpt><trkpt lat="44.6835483" lon="9.4994333"><ele>1112.0</ele><time>2026-04-30T10:38:10.994Z</time></trkpt><trkpt lat="44.6835983" lon="9.4993617"><ele>1112.0</ele><time>2026-04-30T10:38:12.991Z</time></trkpt><trkpt lat="44.6836483" lon="9.4993"><ele>1112.0</ele><time>2026-04-30T10:38:14.996Z</time></trkpt><trkpt lat="44.6837033" lon="9.499215"><ele>1112.0</ele><time>2026-04-30T10:38:16.992Z</time></trkpt><trkpt lat="44.683745" lon="9.4991433"><ele>1112.0</ele><time>2026-04-30T10:38:18.992Z</time></trkpt><trkpt lat="44.6837767" lon="9.4990617"><ele>1112.0</ele><time>2026-04-30T10:38:20.997Z</time></trkpt><trkpt lat="44.6838217" lon="9.4989167"><ele>1108.8333333333335</ele><time>2026-04-30T10:38:22.995Z</time></trkpt><trkpt lat="44.6838517" lon="9.4987917"><ele>1105.6666666666667</ele><time>2026-04-30T10:38:24.99Z</time></trkpt><trkpt lat="44.6838817" lon="9.498675"><ele>1102.5</ele><time>2026-04-30T10:38:26.996Z</time></trkpt><trkpt lat="44.6839267" lon="9.4986083"><ele>1099.3333333333333</ele><time>2026-04-30T10:38:28.996Z</time></trkpt><trkpt lat="44.6839767" lon="9.4985383"><ele>1096.1666666666665</ele><time>2026-04-30T10:38:30.996Z</time></trkpt><trkpt lat="44.6840417" lon="9.4984733"><ele>1093.0</ele><time>2026-04-30T10:38:32.999Z</time></trkpt><trkpt lat="44.684095" lon="9.4984017"><ele>1092.8333333333333</ele><time>2026-04-30T10:38:35.995Z</time></trkpt><trkpt lat="44.6840667" lon="9.498295"><ele>1092.6666666666665</ele><time>2026-04-30T10:38:47.994Z</time></trkpt><trkpt lat="44.6840033" lon="9.4982283"><ele>1092.5</ele><time>2026-04-30T10:38:50.997Z</time></trkpt><trkpt lat="44.6839467" lon="9.4981533"><ele>1092.3333333333333</ele><time>2026-04-30T10:38:52.995Z</time></trkpt><trkpt lat="44.6838917" lon="9.4980967"><ele>1092.1666666666667</ele><time>2026-04-30T10:38:54.991Z</time></trkpt><trkpt lat="44.6838333" lon="9.4979767"><ele>1092.0</ele><time>2026-04-30T10:38:57.998Z</time></trkpt><trkpt lat="44.6837967" lon="9.4978867"><ele>1091.0</ele><time>2026-04-30T10:38:59.995Z</time></trkpt><trkpt lat="44.683825" lon="9.4977833"><ele>1090.0</ele><time>2026-04-30T10:39:02.993Z</time></trkpt><trkpt lat="44.683865" lon="9.4977067"><ele>1089.0</ele><time>2026-04-30T10:39:15.987Z</time></trkpt><trkpt lat="44.6839317" lon="9.4976333"><ele>1088.0</ele><time>2026-04-30T10:39:17.987Z</time></trkpt><trkpt lat="44.6840417" lon="9.4976017"><ele>1087.0</ele><time>2026-04-30T10:39:19.988Z</time></trkpt><trkpt lat="44.684155" lon="9.497555"><ele>1087.0</ele><time>2026-04-30T10:39:21.989Z</time></trkpt><trkpt lat="44.6842217" lon="9.4974717"><ele>1087.0</ele><time>2026-04-30T10:39:23.988Z</time></trkpt><trkpt lat="44.6843117" lon="9.4973217"><ele>1087.0</ele><time>2026-04-30T10:39:25.988Z</time></trkpt><trkpt lat="44.6843633" lon="9.4972417"><ele>1087.0</ele><time>2026-04-30T10:39:26.989Z</time></trkpt><trkpt lat="44.68442" lon="9.4971617"><ele>1087.0</ele><time>2026-04-30T10:39:27.988Z</time></trkpt><trkpt lat="44.6844767" lon="9.497095"><ele>1084.6</ele><time>2026-04-30T10:39:28.988Z</time></trkpt><trkpt lat="44.6845317" lon="9.4970267"><ele>1082.2</ele><time>2026-04-30T10:39:29.992Z</time></trkpt><trkpt lat="44.6845783" lon="9.4969667"><ele>1079.8</ele><time>2026-04-30T10:39:31.076Z</time></trkpt><trkpt lat="44.6846583" lon="9.4968533"><ele>1077.4</ele><time>2026-04-30T10:39:32.988Z</time></trkpt><trkpt lat="44.6847317" lon="9.4967667"><ele>1075.0</ele><time>2026-04-30T10:39:34.988Z</time></trkpt><trkpt lat="44.6848367" lon="9.4967067"><ele>1075.0</ele><time>2026-04-30T10:39:36.989Z</time></trkpt><trkpt lat="44.6849" lon="9.49667"><ele>1075.0</ele><time>2026-04-30T10:39:37.994Z</time></trkpt><trkpt lat="44.684955" lon="9.496625"><ele>1075.0</ele><time>2026-04-30T10:39:38.988Z</time></trkpt><trkpt lat="44.685045" lon="9.496505"><ele>1075.0</ele><time>2026-04-30T10:39:40.989Z</time></trkpt><trkpt lat="44.685095" lon="9.4963817"><ele>1075.0</ele><time>2026-04-30T10:39:42.989Z</time></trkpt><trkpt lat="44.6851283" lon="9.4962733"><ele>1075.0</ele><time>2026-04-30T10:39:45.988Z</time></trkpt><trkpt lat="44.6851967" lon="9.4962267"><ele>1074.8</ele><time>2026-04-30T10:39:52.987Z</time></trkpt><trkpt lat="44.6852933" lon="9.4962383"><ele>1074.6</ele><time>2026-04-30T10:39:55.988Z</time></trkpt><trkpt lat="44.685395" lon="9.4962867"><ele>1074.4</ele><time>2026-04-30T10:39:57.988Z</time></trkpt><trkpt lat="44.6854983" lon="9.4963467"><ele>1074.2</ele><time>2026-04-30T10:39:59.989Z</time></trkpt><trkpt lat="44.6855667" lon="9.4963867"><ele>1074.0</ele><time>2026-04-30T10:40:00.991Z</time></trkpt><trkpt lat="44.6856377" lon="9.4964302"><ele>1074.0</ele><time>2026-04-30T10:40:01.988Z</time></trkpt><trkpt lat="44.6857153" lon="9.4964723"><ele>1074.0</ele><time>2026-04-30T10:40:02.987Z</time></trkpt><trkpt lat="44.6857889" lon="9.4965082"><ele>1074.0</ele><time>2026-04-30T10:40:03.988Z</time></trkpt><trkpt lat="44.68586" lon="9.4965387"><ele>1074.0</ele><time>2026-04-30T10:40:04.989Z</time></trkpt><trkpt lat="44.6859293" lon="9.4965534"><ele>1074.0</ele><time>2026-04-30T10:40:05.988Z</time></trkpt><trkpt lat="44.6860221" lon="9.4965548"><ele>1074.0</ele><time>2026-04-30T10:40:07.991Z</time></trkpt><trkpt lat="44.686115" lon="9.496535"><ele>1073.4</ele><time>2026-04-30T10:40:30.99Z</time></trkpt><trkpt lat="44.6862067" lon="9.496515"><ele>1072.8000000000002</ele><time>2026-04-30T10:40:32.988Z</time></trkpt><trkpt lat="44.686295" lon="9.4964917"><ele>1072.1999999999998</ele><time>2026-04-30T10:40:34.987Z</time></trkpt><trkpt lat="44.6863617" lon="9.49648"><ele>1071.6</ele><time>2026-04-30T10:40:36.987Z</time></trkpt><trkpt lat="44.686475" lon="9.4964433"><ele>1071.0</ele><time>2026-04-30T10:41:58.988Z</time></trkpt><trkpt lat="44.6865367" lon="9.4963517"><ele>1071.0</ele><time>2026-04-30T10:42:00.988Z</time></trkpt><trkpt lat="44.6866017" lon="9.4962533"><ele>1071.0</ele><time>2026-04-30T10:42:02.988Z</time></trkpt><trkpt lat="44.6866533" lon="9.496165"><ele>1071.0</ele><time>2026-04-30T10:42:04.988Z</time></trkpt><trkpt lat="44.6866917" lon="9.496085"><ele>1071.0</ele><time>2026-04-30T10:42:06.989Z</time></trkpt><trkpt lat="44.6867333" lon="9.4960083"><ele>1071.0</ele><time>2026-04-30T10:42:08.988Z</time></trkpt><trkpt lat="44.6867833" lon="9.49592"><ele>1071.0</ele><time>2026-04-30T10:42:11.987Z</time></trkpt><trkpt lat="44.68682" lon="9.4958383"><ele>1071.8333333333333</ele><time>2026-04-30T10:42:14.989Z</time></trkpt><trkpt lat="44.6868683" lon="9.4957233"><ele>1072.6666666666667</ele><time>2026-04-30T10:42:35.992Z</time></trkpt><trkpt lat="44.6868933" lon="9.4956233"><ele>1073.5</ele><time>2026-04-30T10:42:37.991Z</time></trkpt><trkpt lat="44.6869267" lon="9.4955233"><ele>1074.3333333333335</ele><time>2026-04-30T10:42:39.988Z</time></trkpt><trkpt lat="44.68699" lon="9.4954683"><ele>1075.1666666666667</ele><time>2026-04-30T10:42:43.987Z</time></trkpt><trkpt lat="44.6870667" lon="9.4953917"><ele>1076.0</ele><time>2026-04-30T10:43:38.989Z</time></trkpt><trkpt lat="44.6871483" lon="9.4953817"><ele>1076.8</ele><time>2026-04-30T10:43:40.989Z</time></trkpt><trkpt lat="44.6872483" lon="9.4953583"><ele>1077.6</ele><time>2026-04-30T10:43:42.989Z</time></trkpt><trkpt lat="44.6873483" lon="9.4953167"><ele>1078.4</ele><time>2026-04-30T10:43:44.988Z</time></trkpt><trkpt lat="44.6874517" lon="9.4952717"><ele>1079.2</ele><time>2026-04-30T10:43:46.988Z</time></trkpt><trkpt lat="44.6875417" lon="9.4952267"><ele>1080.0</ele><time>2026-04-30T10:43:48.987Z</time></trkpt><trkpt lat="44.6876217" lon="9.495215"><ele>1080.0</ele><time>2026-04-30T10:43:51.987Z</time></trkpt><trkpt lat="44.6876867" lon="9.49522"><ele>1080.0</ele><time>2026-04-30T10:43:55.989Z</time></trkpt><trkpt lat="44.6877533" lon="9.4952417"><ele>1080.0</ele><time>2026-04-30T10:43:59.988Z</time></trkpt><trkpt lat="44.6878467" lon="9.495285"><ele>1080.0</ele><time>2026-04-30T10:44:56.989Z</time></trkpt><trkpt lat="44.6879283" lon="9.4953317"><ele>1080.0</ele><time>2026-04-30T10:44:58.987Z</time></trkpt><trkpt lat="44.6880267" lon="9.4954283"><ele>1080.0</ele><time>2026-04-30T10:45:00.99Z</time></trkpt><trkpt lat="44.688115" lon="9.495505"><ele>1079.0</ele><time>2026-04-30T10:45:02.988Z</time></trkpt><trkpt lat="44.6881983" lon="9.4955533"><ele>1078.0</ele><time>2026-04-30T10:45:04.989Z</time></trkpt><trkpt lat="44.6882717" lon="9.4955867"><ele>1077.0</ele><time>2026-04-30T10:45:07.987Z</time></trkpt><trkpt lat="44.6883867" lon="9.49563"><ele>1076.0</ele><time>2026-04-30T10:45:42.988Z</time></trkpt><trkpt lat="44.6884567" lon="9.4956483"><ele>1075.0</ele><time>2026-04-30T10:45:45.989Z</time></trkpt><trkpt lat="44.68852" lon="9.4956583"><ele>1074.0</ele><time>2026-04-30T10:45:48.986Z</time></trkpt><trkpt lat="44.6885983" lon="9.4956517"><ele>1074.2</ele><time>2026-04-30T10:45:53.987Z</time></trkpt><trkpt lat="44.6886717" lon="9.4956483"><ele>1074.4</ele><time>2026-04-30T10:46:06.987Z</time></trkpt><trkpt lat="44.68876" lon="9.49562"><ele>1074.6</ele><time>2026-04-30T10:46:09.99Z</time></trkpt><trkpt lat="44.6888567" lon="9.4955717"><ele>1074.8</ele><time>2026-04-30T10:46:12.987Z</time></trkpt><trkpt lat="44.6889433" lon="9.49551"><ele>1075.0</ele><time>2026-04-30T10:46:14.996Z</time></trkpt><trkpt lat="44.6890067" lon="9.4953717"><ele>1075.0</ele><time>2026-04-30T10:46:16.987Z</time></trkpt><trkpt lat="44.68904" lon="9.4952217"><ele>1075.0</ele><time>2026-04-30T10:46:18.989Z</time></trkpt><trkpt lat="44.68906" lon="9.49508"><ele>1075.0</ele><time>2026-04-30T10:46:20.995Z</time></trkpt><trkpt lat="44.6890817" lon="9.49499"><ele>1075.0</ele><time>2026-04-30T10:46:21.987Z</time></trkpt><trkpt lat="44.689115" lon="9.4948833"><ele>1075.0</ele><time>2026-04-30T10:46:22.988Z</time></trkpt><trkpt lat="44.6891567" lon="9.4947733"><ele>1075.0</ele><time>2026-04-30T10:46:23.987Z</time></trkpt><trkpt lat="44.689205" lon="9.4946783"><ele>1075.0</ele><time>2026-04-30T10:46:24.988Z</time></trkpt><trkpt lat="44.68926" lon="9.4946067"><ele>1075.0</ele><time>2026-04-30T10:46:25.992Z</time></trkpt><trkpt lat="44.6893283" lon="9.494545"><ele>1075.0</ele><time>2026-04-30T10:46:26.987Z</time></trkpt><trkpt lat="44.689405" lon="9.4944933"><ele>1075.0</ele><time>2026-04-30T10:46:27.986Z</time></trkpt><trkpt lat="44.6894883" lon="9.4944367"><ele>1075.0</ele><time>2026-04-30T10:46:28.989Z</time></trkpt><trkpt lat="44.689565" lon="9.494365"><ele>1074.6666666666665</ele><time>2026-04-30T10:46:29.987Z</time></trkpt><trkpt lat="44.68963" lon="9.4942817"><ele>1074.3333333333333</ele><time>2026-04-30T10:46:30.992Z</time></trkpt><trkpt lat="44.6896833" lon="9.49419"><ele>1074.0</ele><time>2026-04-30T10:46:31.988Z</time></trkpt><trkpt lat="44.6897258" lon="9.4940908"><ele>1073.6666666666667</ele><time>2026-04-30T10:46:32.987Z</time></trkpt><trkpt lat="44.6897605" lon="9.4939802"><ele>1073.3333333333335</ele><time>2026-04-30T10:46:33.988Z</time></trkpt><trkpt lat="44.6897877" lon="9.4938686"><ele>1073.0</ele><time>2026-04-30T10:46:34.987Z</time></trkpt><trkpt lat="44.6898138" lon="9.4937668"><ele>1074.8333333333335</ele><time>2026-04-30T10:46:35.988Z</time></trkpt><trkpt lat="44.6898404" lon="9.4936788"><ele>1076.6666666666667</ele><time>2026-04-30T10:46:36.989Z</time></trkpt><trkpt lat="44.6898983" lon="9.4935803"><ele>1078.5</ele><time>2026-04-30T10:46:38.997Z</time></trkpt><trkpt lat="44.6899932" lon="9.4935719"><ele>1080.3333333333333</ele><time>2026-04-30T10:46:40.989Z</time></trkpt><trkpt lat="44.6901014" lon="9.493568"><ele>1082.1666666666665</ele><time>2026-04-30T10:46:42.986Z</time></trkpt><trkpt lat="44.6901655" lon="9.4935526"><ele>1084.0</ele><time>2026-04-30T10:46:43.992Z</time></trkpt><trkpt lat="44.6902323" lon="9.4935316"><ele>1083.0</ele><time>2026-04-30T10:46:44.987Z</time></trkpt><trkpt lat="44.6902969" lon="9.493508"><ele>1082.0</ele><time>2026-04-30T10:46:45.986Z</time></trkpt><trkpt lat="44.6903613" lon="9.4934847"><ele>1081.0</ele><time>2026-04-30T10:46:46.986Z</time></trkpt><trkpt lat="44.6904308" lon="9.4934575"><ele>1080.0</ele><time>2026-04-30T10:46:47.988Z</time></trkpt><trkpt lat="44.6905032" lon="9.4934266"><ele>1079.0</ele><time>2026-04-30T10:46:48.988Z</time></trkpt><trkpt lat="44.6905733" lon="9.4933937"><ele>1078.0</ele><time>2026-04-30T10:46:49.991Z</time></trkpt><trkpt lat="44.6906444" lon="9.4933588"><ele>1077.0</ele><time>2026-04-30T10:46:50.989Z</time></trkpt><trkpt lat="44.690715" lon="9.4933225"><ele>1077.0</ele><time>2026-04-30T10:46:51.989Z</time></trkpt><trkpt lat="44.6907825" lon="9.4932878"><ele>1077.0</ele><time>2026-04-30T10:46:52.989Z</time></trkpt><trkpt lat="44.6908485" lon="9.4932489"><ele>1077.0</ele><time>2026-04-30T10:46:53.988Z</time></trkpt><trkpt lat="44.6909156" lon="9.4932067"><ele>1077.0</ele><time>2026-04-30T10:46:54.989Z</time></trkpt><trkpt lat="44.6909823" lon="9.4931807"><ele>1077.0</ele><time>2026-04-30T10:46:55.987Z</time></trkpt><trkpt lat="44.6910506" lon="9.4931792"><ele>1077.0</ele><time>2026-04-30T10:46:56.988Z</time></trkpt><trkpt lat="44.6911147" lon="9.4932093"><ele>1077.0</ele><time>2026-04-30T10:46:57.988Z</time></trkpt><trkpt lat="44.6911741" lon="9.4932664"><ele>1077.3333333333333</ele><time>2026-04-30T10:46:58.987Z</time></trkpt><trkpt lat="44.6912272" lon="9.4933484"><ele>1077.6666666666667</ele><time>2026-04-30T10:46:59.987Z</time></trkpt><trkpt lat="44.691283" lon="9.4934476"><ele>1078.0</ele><time>2026-04-30T10:47:00.989Z</time></trkpt><trkpt lat="44.6913415" lon="9.4935496"><ele>1078.3333333333335</ele><time>2026-04-30T10:47:01.987Z</time></trkpt><trkpt lat="44.6914072" lon="9.4936517"><ele>1078.6666666666667</ele><time>2026-04-30T10:47:02.987Z</time></trkpt><trkpt lat="44.6914726" lon="9.4937378"><ele>1079.0</ele><time>2026-04-30T10:47:03.988Z</time></trkpt><trkpt lat="44.6915346" lon="9.4938093"><ele>1077.5</ele><time>2026-04-30T10:47:04.987Z</time></trkpt><trkpt lat="44.691601" lon="9.4938599"><ele>1076.0</ele><time>2026-04-30T10:47:05.99Z</time></trkpt><trkpt lat="44.6916731" lon="9.493887"><ele>1074.5</ele><time>2026-04-30T10:47:06.987Z</time></trkpt><trkpt lat="44.6917527" lon="9.4938924"><ele>1073.0</ele><time>2026-04-30T10:47:07.987Z</time></trkpt><trkpt lat="44.6918484" lon="9.493879"><ele>1071.5</ele><time>2026-04-30T10:47:08.989Z</time></trkpt><trkpt lat="44.6919554" lon="9.4938568"><ele>1070.0</ele><time>2026-04-30T10:47:09.988Z</time></trkpt><trkpt lat="44.6920639" lon="9.4938464"><ele>1069.4</ele><time>2026-04-30T10:47:10.995Z</time></trkpt><trkpt lat="44.6921645" lon="9.4938559"><ele>1068.8</ele><time>2026-04-30T10:47:11.988Z</time></trkpt><trkpt lat="44.6922589" lon="9.4938685"><ele>1068.2</ele><time>2026-04-30T10:47:12.988Z</time></trkpt><trkpt lat="44.6923495" lon="9.4938673"><ele>1067.6</ele><time>2026-04-30T10:47:13.987Z</time></trkpt><trkpt lat="44.692441" lon="9.4938516"><ele>1067.0</ele><time>2026-04-30T10:47:14.99Z</time></trkpt><trkpt lat="44.6925301" lon="9.4938367"><ele>1067.0</ele><time>2026-04-30T10:47:15.989Z</time></trkpt><trkpt lat="44.6926142" lon="9.4938352"><ele>1067.0</ele><time>2026-04-30T10:47:16.987Z</time></trkpt><trkpt lat="44.6926821" lon="9.4938515"><ele>1067.0</ele><time>2026-04-30T10:47:17.989Z</time></trkpt><trkpt lat="44.6927471" lon="9.4939379"><ele>1067.0</ele><time>2026-04-30T10:47:19.99Z</time></trkpt><trkpt lat="44.6927241" lon="9.4940749"><ele>1067.0</ele><time>2026-04-30T10:47:21.991Z</time></trkpt><trkpt lat="44.6926822" lon="9.4941649"><ele>1067.0</ele><time>2026-04-30T10:47:22.987Z</time></trkpt><trkpt lat="44.6926504" lon="9.4942637"><ele>1067.0</ele><time>2026-04-30T10:47:23.989Z</time></trkpt><trkpt lat="44.6926386" lon="9.4943823"><ele>1067.0</ele><time>2026-04-30T10:47:24.988Z</time></trkpt><trkpt lat="44.6926477" lon="9.4945043"><ele>1067.0</ele><time>2026-04-30T10:47:25.988Z</time></trkpt><trkpt lat="44.6926661" lon="9.4946275"><ele>1067.0</ele><time>2026-04-30T10:47:26.988Z</time></trkpt><trkpt lat="44.6926903" lon="9.4947569"><ele>1067.0</ele><time>2026-04-30T10:47:27.988Z</time></trkpt><trkpt lat="44.6927261" lon="9.4948954"><ele>1068.2</ele><time>2026-04-30T10:47:28.987Z</time></trkpt><trkpt lat="44.6927693" lon="9.495034"><ele>1069.4</ele><time>2026-04-30T10:47:29.987Z</time></trkpt><trkpt lat="44.6928152" lon="9.4951729"><ele>1070.6</ele><time>2026-04-30T10:47:30.988Z</time></trkpt><trkpt lat="44.6928601" lon="9.4953024"><ele>1071.8</ele><time>2026-04-30T10:47:31.988Z</time></trkpt><trkpt lat="44.6928983" lon="9.4954287"><ele>1073.0</ele><time>2026-04-30T10:47:32.987Z</time></trkpt><trkpt lat="44.692922" lon="9.4955496"><ele>1073.0</ele><time>2026-04-30T10:47:33.993Z</time></trkpt><trkpt lat="44.6929264" lon="9.4956652"><ele>1073.0</ele><time>2026-04-30T10:47:34.988Z</time></trkpt><trkpt lat="44.6929059" lon="9.495772"><ele>1073.0</ele><time>2026-04-30T10:47:35.99Z</time></trkpt><trkpt lat="44.6928623" lon="9.4958694"><ele>1073.0</ele><time>2026-04-30T10:47:36.989Z</time></trkpt><trkpt lat="44.6928083" lon="9.4959672"><ele>1073.0</ele><time>2026-04-30T10:47:37.987Z</time></trkpt><trkpt lat="44.6927496" lon="9.4960647"><ele>1073.0</ele><time>2026-04-30T10:47:38.99Z</time></trkpt><trkpt lat="44.6927009" lon="9.4961679"><ele>1070.5</ele><time>2026-04-30T10:47:39.988Z</time></trkpt><trkpt lat="44.692667" lon="9.49628"><ele>1068.0</ele><time>2026-04-30T10:47:40.992Z</time></trkpt><trkpt lat="44.6926529" lon="9.4964031"><ele>1065.5</ele><time>2026-04-30T10:47:41.989Z</time></trkpt><trkpt lat="44.692651" lon="9.4965223"><ele>1063.0</ele><time>2026-04-30T10:47:42.988Z</time></trkpt><trkpt lat="44.6926436" lon="9.4966434"><ele>1060.5</ele><time>2026-04-30T10:47:43.987Z</time></trkpt><trkpt lat="44.6926299" lon="9.4967692"><ele>1058.0</ele><time>2026-04-30T10:47:44.989Z</time></trkpt><trkpt lat="44.6926136" lon="9.4968937"><ele>1058.0</ele><time>2026-04-30T10:47:45.992Z</time></trkpt><trkpt lat="44.6926024" lon="9.4970122"><ele>1058.0</ele><time>2026-04-30T10:47:46.987Z</time></trkpt><trkpt lat="44.6926023" lon="9.4971365"><ele>1058.0</ele><time>2026-04-30T10:47:47.994Z</time></trkpt><trkpt lat="44.6926151" lon="9.4972707"><ele>1058.0</ele><time>2026-04-30T10:47:48.988Z</time></trkpt><trkpt lat="44.6926402" lon="9.4974143"><ele>1058.0</ele><time>2026-04-30T10:47:49.987Z</time></trkpt><trkpt lat="44.69267" lon="9.4975644"><ele>1057.5</ele><time>2026-04-30T10:47:50.989Z</time></trkpt><trkpt lat="44.6926891" lon="9.4977048"><ele>1057.0</ele><time>2026-04-30T10:47:51.987Z</time></trkpt><trkpt lat="44.6927221" lon="9.4978189"><ele>1056.5</ele><time>2026-04-30T10:47:52.987Z</time></trkpt><trkpt lat="44.6927695" lon="9.4979034"><ele>1056.0</ele><time>2026-04-30T10:47:53.997Z</time></trkpt><trkpt lat="44.6928309" lon="9.4979702"><ele>1055.5</ele><time>2026-04-30T10:47:54.988Z</time></trkpt><trkpt lat="44.6929104" lon="9.498015"><ele>1055.0</ele><time>2026-04-30T10:47:55.987Z</time></trkpt><trkpt lat="44.6929988" lon="9.4980585"><ele>1055.0</ele><time>2026-04-30T10:47:56.991Z</time></trkpt><trkpt lat="44.6930869" lon="9.4981212"><ele>1055.0</ele><time>2026-04-30T10:47:57.989Z</time></trkpt><trkpt lat="44.6931598" lon="9.4982059"><ele>1055.0</ele><time>2026-04-30T10:47:58.99Z</time></trkpt><trkpt lat="44.6932273" lon="9.4982949"><ele>1055.0</ele><time>2026-04-30T10:47:59.987Z</time></trkpt><trkpt lat="44.6932956" lon="9.4983757"><ele>1055.0</ele><time>2026-04-30T10:48:00.989Z</time></trkpt><trkpt lat="44.6933664" lon="9.4984446"><ele>1055.0</ele><time>2026-04-30T10:48:01.988Z</time></trkpt><trkpt lat="44.693439" lon="9.4985108"><ele>1055.0</ele><time>2026-04-30T10:48:02.987Z</time></trkpt><trkpt lat="44.693514" lon="9.498578"><ele>1055.0</ele><time>2026-04-30T10:48:03.986Z</time></trkpt><trkpt lat="44.6935911" lon="9.4986435"><ele>1055.0</ele><time>2026-04-30T10:48:04.988Z</time></trkpt><trkpt lat="44.693671" lon="9.4987072"><ele>1055.0</ele><time>2026-04-30T10:48:05.986Z</time></trkpt><trkpt lat="44.6937543" lon="9.4987788"><ele>1054.2</ele><time>2026-04-30T10:48:06.993Z</time></trkpt><trkpt lat="44.6938405" lon="9.4988551"><ele>1053.4</ele><time>2026-04-30T10:48:07.989Z</time></trkpt><trkpt lat="44.6939271" lon="9.4989357"><ele>1052.6</ele><time>2026-04-30T10:48:08.991Z</time></trkpt><trkpt lat="44.6940128" lon="9.4990154"><ele>1051.8</ele><time>2026-04-30T10:48:09.987Z</time></trkpt><trkpt lat="44.6940982" lon="9.4990828"><ele>1051.0</ele><time>2026-04-30T10:48:10.988Z</time></trkpt><trkpt lat="44.6941876" lon="9.4991386"><ele>1051.0</ele><time>2026-04-30T10:48:11.993Z</time></trkpt><trkpt lat="44.6942856" lon="9.4991819"><ele>1051.0</ele><time>2026-04-30T10:48:12.986Z</time></trkpt><trkpt lat="44.6943877" lon="9.4992103"><ele>1051.0</ele><time>2026-04-30T10:48:13.986Z</time></trkpt><trkpt lat="44.694493" lon="9.4992296"><ele>1051.0</ele><time>2026-04-30T10:48:14.988Z</time></trkpt><trkpt lat="44.694596" lon="9.4992496"><ele>1051.0</ele><time>2026-04-30T10:48:15.988Z</time></trkpt><trkpt lat="44.6946955" lon="9.4992736"><ele>1050.8</ele><time>2026-04-30T10:48:16.987Z</time></trkpt><trkpt lat="44.6947967" lon="9.4993005"><ele>1050.6</ele><time>2026-04-30T10:48:17.992Z</time></trkpt><trkpt lat="44.6949003" lon="9.4993204"><ele>1050.4</ele><time>2026-04-30T10:48:18.989Z</time></trkpt><trkpt lat="44.694996" lon="9.4993285"><ele>1050.2</ele><time>2026-04-30T10:48:19.99Z</time></trkpt><trkpt lat="44.6950891" lon="9.499318"><ele>1050.0</ele><time>2026-04-30T10:48:20.99Z</time></trkpt><trkpt lat="44.6951779" lon="9.499294"><ele>1049.1666666666667</ele><time>2026-04-30T10:48:21.989Z</time></trkpt><trkpt lat="44.6952601" lon="9.4992686"><ele>1048.3333333333333</ele><time>2026-04-30T10:48:22.994Z</time></trkpt><trkpt lat="44.6953421" lon="9.4992518"><ele>1047.5</ele><time>2026-04-30T10:48:23.99Z</time></trkpt><trkpt lat="44.6954277" lon="9.4992519"><ele>1046.6666666666665</ele><time>2026-04-30T10:48:24.988Z</time></trkpt><trkpt lat="44.6955146" lon="9.4992708"><ele>1045.8333333333333</ele><time>2026-04-30T10:48:25.987Z</time></trkpt><trkpt lat="44.6956031" lon="9.4993033"><ele>1045.0</ele><time>2026-04-30T10:48:26.988Z</time></trkpt><trkpt lat="44.6956931" lon="9.499338"><ele>1045.0</ele><time>2026-04-30T10:48:27.987Z</time></trkpt><trkpt lat="44.6957875" lon="9.4993737"><ele>1045.0</ele><time>2026-04-30T10:48:28.989Z</time></trkpt><trkpt lat="44.6958816" lon="9.4994082"><ele>1045.0</ele><time>2026-04-30T10:48:29.988Z</time></trkpt><trkpt lat="44.6959781" lon="9.499437"><ele>1045.0</ele><time>2026-04-30T10:48:30.987Z</time></trkpt><trkpt lat="44.6960859" lon="9.4994664"><ele>1045.0</ele><time>2026-04-30T10:48:31.987Z</time></trkpt><trkpt lat="44.6962005" lon="9.499495"><ele>1043.4</ele><time>2026-04-30T10:48:32.987Z</time></trkpt><trkpt lat="44.6963154" lon="9.4995251"><ele>1041.8</ele><time>2026-04-30T10:48:33.993Z</time></trkpt><trkpt lat="44.6964275" lon="9.4995539"><ele>1040.2</ele><time>2026-04-30T10:48:34.988Z</time></trkpt><trkpt lat="44.6965251" lon="9.4995777"><ele>1038.6</ele><time>2026-04-30T10:48:35.987Z</time></trkpt><trkpt lat="44.696605" lon="9.49959"><ele>1037.0</ele><time>2026-04-30T10:48:36.987Z</time></trkpt><trkpt lat="44.696713" lon="9.4996061"><ele>1037.0</ele><time>2026-04-30T10:48:38.987Z</time></trkpt><trkpt lat="44.6967866" lon="9.4996103"><ele>1037.0</ele><time>2026-04-30T10:48:40.988Z</time></trkpt><trkpt lat="44.6968557" lon="9.4996345"><ele>1037.0</ele><time>2026-04-30T10:48:42.986Z</time></trkpt><trkpt lat="44.6969394" lon="9.4996423"><ele>1037.0</ele><time>2026-04-30T10:48:44.988Z</time></trkpt><trkpt lat="44.697024" lon="9.4995711"><ele>1037.0</ele><time>2026-04-30T10:48:46.992Z</time></trkpt><trkpt lat="44.6970743" lon="9.4994227"><ele>1037.0</ele><time>2026-04-30T10:48:48.987Z</time></trkpt><trkpt lat="44.6971428" lon="9.4992952"><ele>1035.1666666666667</ele><time>2026-04-30T10:48:50.988Z</time></trkpt><trkpt lat="44.6972465" lon="9.4992406"><ele>1033.3333333333335</ele><time>2026-04-30T10:48:52.987Z</time></trkpt><trkpt lat="44.6973228" lon="9.4992294"><ele>1031.5</ele><time>2026-04-30T10:48:53.989Z</time></trkpt><trkpt lat="44.6974026" lon="9.4992121"><ele>1029.6666666666667</ele><time>2026-04-30T10:48:54.988Z</time></trkpt><trkpt lat="44.6974759" lon="9.4991834"><ele>1027.8333333333333</ele><time>2026-04-30T10:48:55.992Z</time></trkpt><trkpt lat="44.6975442" lon="9.4991408"><ele>1026.0</ele><time>2026-04-30T10:48:56.988Z</time></trkpt><trkpt lat="44.6976138" lon="9.4990884"><ele>1026.0</ele><time>2026-04-30T10:48:57.989Z</time></trkpt><trkpt lat="44.6976746" lon="9.4990412"><ele>1026.0</ele><time>2026-04-30T10:48:58.988Z</time></trkpt><trkpt lat="44.6977689" lon="9.4990127"><ele>1026.0</ele><time>2026-04-30T10:49:00.987Z</time></trkpt><trkpt lat="44.6978369" lon="9.4990712"><ele>1026.0</ele><time>2026-04-30T10:49:02.993Z</time></trkpt><trkpt lat="44.6979196" lon="9.4991142"><ele>1026.0</ele><time>2026-04-30T10:49:04.987Z</time></trkpt><trkpt lat="44.6980297" lon="9.4991577"><ele>1026.0</ele><time>2026-04-30T10:49:06.987Z</time></trkpt><trkpt lat="44.6980928" lon="9.499171"><ele>1024.6</ele><time>2026-04-30T10:49:07.989Z</time></trkpt><trkpt lat="44.698197" lon="9.4991752"><ele>1023.1999999999999</ele><time>2026-04-30T10:49:09.989Z</time></trkpt><trkpt lat="44.6982654" lon="9.4991476"><ele>1021.8000000000001</ele><time>2026-04-30T10:49:11.988Z</time></trkpt><trkpt lat="44.6983501" lon="9.4990888"><ele>1020.4000000000001</ele><time>2026-04-30T10:49:13.989Z</time></trkpt><trkpt lat="44.6984528" lon="9.4990253"><ele>1019.0</ele><time>2026-04-30T10:49:15.988Z</time></trkpt><trkpt lat="44.6985158" lon="9.4989897"><ele>1019.0000000000001</ele><time>2026-04-30T10:49:16.987Z</time></trkpt><trkpt lat="44.6985744" lon="9.4989453"><ele>1019.0</ele><time>2026-04-30T10:49:17.988Z</time></trkpt><trkpt lat="44.6986355" lon="9.4988946"><ele>1019.0000000000001</ele><time>2026-04-30T10:49:18.989Z</time></trkpt><trkpt lat="44.6987016" lon="9.4988512"><ele>1019.0000000000001</ele><time>2026-04-30T10:49:19.988Z</time></trkpt><trkpt lat="44.6987717" lon="9.4988212"><ele>1019.0</ele><time>2026-04-30T10:49:20.989Z</time></trkpt><trkpt lat="44.698845" lon="9.4988077"><ele>1019.0000000000001</ele><time>2026-04-30T10:49:21.994Z</time></trkpt><trkpt lat="44.69891" lon="9.498815"><ele>1019.0000000000001</ele><time>2026-04-30T10:49:22.987Z</time></trkpt><trkpt lat="44.6990183" lon="9.49886"><ele>1017.5000000000001</ele><time>2026-04-30T10:49:24.988Z</time></trkpt><trkpt lat="44.6991183" lon="9.4989267"><ele>1016.0</ele><time>2026-04-30T10:49:26.989Z</time></trkpt><trkpt lat="44.6991917" lon="9.4989883"><ele>1014.5</ele><time>2026-04-30T10:49:28.988Z</time></trkpt><trkpt lat="44.6992617" lon="9.4990633"><ele>1013.0</ele><time>2026-04-30T10:49:31.988Z</time></trkpt><trkpt lat="44.6993167" lon="9.4991333"><ele>1011.5000000000001</ele><time>2026-04-30T10:49:33.99Z</time></trkpt><trkpt lat="44.699375" lon="9.499215"><ele>1010.0</ele><time>2026-04-30T10:49:35.988Z</time></trkpt><trkpt lat="44.699435" lon="9.4992883"><ele>1009.6</ele><time>2026-04-30T10:49:37.993Z</time></trkpt><trkpt lat="44.699495" lon="9.49936"><ele>1009.2</ele><time>2026-04-30T10:49:39.989Z</time></trkpt><trkpt lat="44.699575" lon="9.4994633"><ele>1008.8</ele><time>2026-04-30T10:49:41.989Z</time></trkpt><trkpt lat="44.6996467" lon="9.499575"><ele>1008.4</ele><time>2026-04-30T10:49:43.988Z</time></trkpt><trkpt lat="44.69973" lon="9.4996867"><ele>1008.0</ele><time>2026-04-30T10:49:45.989Z</time></trkpt><trkpt lat="44.69981" lon="9.4997733"><ele>1005.5999999999999</ele><time>2026-04-30T10:49:47.987Z</time></trkpt><trkpt lat="44.6998967" lon="9.49985"><ele>1003.1999999999999</ele><time>2026-04-30T10:49:49.986Z</time></trkpt><trkpt lat="44.6999733" lon="9.49989"><ele>1000.8</ele><time>2026-04-30T10:49:51.989Z</time></trkpt><trkpt lat="44.700065" lon="9.499995"><ele>998.4</ele><time>2026-04-30T10:49:53.994Z</time></trkpt><trkpt lat="44.700115" lon="9.5000833"><ele>996.0</ele><time>2026-04-30T10:49:54.988Z</time></trkpt><trkpt lat="44.7001517" lon="9.5001867"><ele>996.0</ele><time>2026-04-30T10:49:55.987Z</time></trkpt><trkpt lat="44.7001817" lon="9.5003017"><ele>996.0</ele><time>2026-04-30T10:49:56.99Z</time></trkpt><trkpt lat="44.7002017" lon="9.5004133"><ele>996.0</ele><time>2026-04-30T10:49:57.987Z</time></trkpt><trkpt lat="44.70021" lon="9.5005167"><ele>996.0</ele><time>2026-04-30T10:49:58.987Z</time></trkpt><trkpt lat="44.7002117" lon="9.50061"><ele>996.0</ele><time>2026-04-30T10:49:59.988Z</time></trkpt><trkpt lat="44.7002483" lon="9.5007217"><ele>996.0</ele><time>2026-04-30T10:50:01.988Z</time></trkpt><trkpt lat="44.700345" lon="9.500755"><ele>993.7142857142857</ele><time>2026-04-30T10:50:03.987Z</time></trkpt><trkpt lat="44.70041" lon="9.500775"><ele>991.4285714285713</ele><time>2026-04-30T10:50:04.987Z</time></trkpt><trkpt lat="44.7004783" lon="9.5007967"><ele>989.1428571428571</ele><time>2026-04-30T10:50:05.989Z</time></trkpt><trkpt lat="44.7005383" lon="9.5008317"><ele>986.8571428571429</ele><time>2026-04-30T10:50:06.988Z</time></trkpt><trkpt lat="44.7005917" lon="9.5008883"><ele>984.5714285714286</ele><time>2026-04-30T10:50:07.988Z</time></trkpt><trkpt lat="44.7006333" lon="9.500955"><ele>982.2857142857142</ele><time>2026-04-30T10:50:08.987Z</time></trkpt><trkpt lat="44.7006633" lon="9.5010367"><ele>980.0</ele><time>2026-04-30T10:50:09.99Z</time></trkpt><trkpt lat="44.700665" lon="9.501205"><ele>979.1666666666667</ele><time>2026-04-30T10:50:11.988Z</time></trkpt><trkpt lat="44.700655" lon="9.501295"><ele>978.3333333333334</ele><time>2026-04-30T10:50:12.99Z</time></trkpt><trkpt lat="44.7006433" lon="9.5013867"><ele>977.5</ele><time>2026-04-30T10:50:13.987Z</time></trkpt><trkpt lat="44.7006133" lon="9.5015067"><ele>976.6666666666667</ele><time>2026-04-30T10:50:14.987Z</time></trkpt><trkpt lat="44.7005767" lon="9.50163"><ele>975.8333333333334</ele><time>2026-04-30T10:50:15.988Z</time></trkpt><trkpt lat="44.7005533" lon="9.5017533"><ele>975.0</ele><time>2026-04-30T10:50:16.988Z</time></trkpt><trkpt lat="44.7005433" lon="9.5018667"><ele>975.0</ele><time>2026-04-30T10:50:17.993Z</time></trkpt><trkpt lat="44.7005433" lon="9.50197"><ele>974.9999999999999</ele><time>2026-04-30T10:50:18.987Z</time></trkpt><trkpt lat="44.7005433" lon="9.50207"><ele>975.0</ele><time>2026-04-30T10:50:19.988Z</time></trkpt><trkpt lat="44.7005417" lon="9.5021733"><ele>975.0</ele><time>2026-04-30T10:50:20.989Z</time></trkpt><trkpt lat="44.7005333" lon="9.5022833"><ele>974.9999999999999</ele><time>2026-04-30T10:50:21.988Z</time></trkpt><trkpt lat="44.7005217" lon="9.5023817"><ele>975.0</ele><time>2026-04-30T10:50:22.988Z</time></trkpt><trkpt lat="44.7005083" lon="9.5024717"><ele>975.0</ele><time>2026-04-30T10:50:23.988Z</time></trkpt><trkpt lat="44.7005017" lon="9.5025933"><ele>973.2</ele><time>2026-04-30T10:50:25.987Z</time></trkpt><trkpt lat="44.7005583" lon="9.5027033"><ele>971.4</ele><time>2026-04-30T10:50:27.988Z</time></trkpt><trkpt lat="44.7006267" lon="9.502825"><ele>969.5999999999999</ele><time>2026-04-30T10:50:29.988Z</time></trkpt><trkpt lat="44.7007067" lon="9.5029417"><ele>967.8</ele><time>2026-04-30T10:50:31.987Z</time></trkpt><trkpt lat="44.7007933" lon="9.5030467"><ele>966.0</ele><time>2026-04-30T10:50:33.995Z</time></trkpt><trkpt lat="44.7008733" lon="9.5031383"><ele>965.8333333333334</ele><time>2026-04-30T10:50:35.989Z</time></trkpt><trkpt lat="44.7009433" lon="9.5032217"><ele>965.6666666666667</ele><time>2026-04-30T10:50:37.989Z</time></trkpt><trkpt lat="44.7010117" lon="9.5032967"><ele>965.5</ele><time>2026-04-30T10:50:39.99Z</time></trkpt><trkpt lat="44.7010617" lon="9.50336"><ele>965.3333333333334</ele><time>2026-04-30T10:50:41.987Z</time></trkpt><trkpt lat="44.7011417" lon="9.503445"><ele>965.1666666666667</ele><time>2026-04-30T10:50:43.988Z</time></trkpt><trkpt lat="44.701195" lon="9.5034933"><ele>965.0</ele><time>2026-04-30T10:50:44.988Z</time></trkpt><trkpt lat="44.701275" lon="9.5036217"><ele>965.0000000000001</ele><time>2026-04-30T10:50:46.988Z</time></trkpt><trkpt lat="44.701305" lon="9.503705"><ele>965.0</ele><time>2026-04-30T10:50:47.987Z</time></trkpt><trkpt lat="44.7013417" lon="9.5037867"><ele>965.0</ele><time>2026-04-30T10:50:48.987Z</time></trkpt><trkpt lat="44.701395" lon="9.5039217"><ele>965.0</ele><time>2026-04-30T10:50:50.987Z</time></trkpt><trkpt lat="44.7014217" lon="9.5040417"><ele>965.0000000000001</ele><time>2026-04-30T10:50:52.993Z</time></trkpt><trkpt lat="44.7014233" lon="9.504185"><ele>965.0</ele><time>2026-04-30T10:50:54.988Z</time></trkpt><trkpt lat="44.7014167" lon="9.5043383"><ele>965.0000000000001</ele><time>2026-04-30T10:50:56.99Z</time></trkpt><trkpt lat="44.7014567" lon="9.5044617"><ele>965.0</ele><time>2026-04-30T10:50:58.989Z</time></trkpt><trkpt lat="44.7015317" lon="9.5045333"><ele>965.0</ele><time>2026-04-30T10:51:00.99Z</time></trkpt><trkpt lat="44.7016067" lon="9.5046133"><ele>965.0</ele><time>2026-04-30T10:51:02.991Z</time></trkpt><trkpt lat="44.701635" lon="9.504705"><ele>965.0000000000001</ele><time>2026-04-30T10:51:04.987Z</time></trkpt><trkpt lat="44.7016733" lon="9.50479"><ele>965.0</ele><time>2026-04-30T10:51:07.99Z</time></trkpt><trkpt lat="44.7017317" lon="9.5047117"><ele>964.6</ele><time>2026-04-30T10:52:04.987Z</time></trkpt><trkpt lat="44.7017883" lon="9.504815"><ele>964.2</ele><time>2026-04-30T10:54:28.995Z</time></trkpt><trkpt lat="44.70188" lon="9.5048483"><ele>963.8</ele><time>2026-04-30T10:56:30.996Z</time></trkpt><trkpt lat="44.701975" lon="9.5049617"><ele>963.4</ele><time>2026-04-30T10:56:38.993Z</time></trkpt><trkpt lat="44.7019183" lon="9.5050333"><ele>963.0</ele><time>2026-04-30T10:57:11.996Z</time></trkpt><trkpt lat="44.7018333" lon="9.5049117"><ele>963.0</ele><time>2026-04-30T10:57:22.993Z</time></trkpt><trkpt lat="44.701795" lon="9.5047117"><ele>963.0</ele><time>2026-04-30T10:57:50.994Z</time></trkpt><trkpt lat="44.70188" lon="9.5048567"><ele>963.0</ele><time>2026-04-30T10:58:02.994Z</time></trkpt><trkpt lat="44.7019067" lon="9.5049383"><ele>963.0</ele><time>2026-04-30T10:58:05.998Z</time></trkpt><trkpt lat="44.7020517" lon="9.5051633"><ele>962.0</ele><time>2026-04-30T10:58:13.999Z</time></trkpt><trkpt lat="44.7018562" lon="9.504878"><ele>961.0</ele><time>2026-04-30T10:58:24.687Z</time></trkpt><trkpt lat="44.7010217" lon="9.5054667"><ele>961.0</ele><time>2026-04-30T11:31:21.999Z</time></trkpt><trkpt lat="44.7015517" lon="9.5051017"><ele>961.0</ele><time>2026-04-30T11:31:23.992Z</time></trkpt><trkpt lat="44.7016783" lon="9.50505"><ele>960.9999999999999</ele><time>2026-04-30T11:31:26.992Z</time></trkpt><trkpt lat="44.7015767" lon="9.505115"><ele>960.9999999999999</ele><time>2026-04-30T11:31:29.998Z</time></trkpt><trkpt lat="44.701645" lon="9.50506"><ele>961.0</ele><time>2026-04-30T11:31:48.02Z</time></trkpt><trkpt lat="44.701705" lon="9.5049633"><ele>961.0</ele><time>2026-04-30T11:31:48.998Z</time></trkpt><trkpt lat="44.7017833" lon="9.5049383"><ele>961.0</ele><time>2026-04-30T11:32:05.996Z</time></trkpt><trkpt lat="44.7018783" lon="9.5048683"><ele>961.0</ele><time>2026-04-30T11:32:29.996Z</time></trkpt><trkpt lat="44.701795" lon="9.5048933"><ele>961.0</ele><time>2026-04-30T11:33:14Z</time></trkpt><trkpt lat="44.7018133" lon="9.5047933"><ele>961.0</ele><time>2026-04-30T11:33:59.994Z</time></trkpt><trkpt lat="44.7021" lon="9.504535"><ele>961.0</ele><time>2026-04-30T11:34:25.001Z</time></trkpt><trkpt lat="44.7018564" lon="9.5048773"><ele>961.0</ele><time>2026-04-30T11:34:47.781Z</time></trkpt><trkpt lat="44.702015" lon="9.5046167"><ele>961.0</ele><time>2026-04-30T11:34:55.996Z</time></trkpt><trkpt lat="44.701935" lon="9.5047517"><ele>960.9999999999999</ele><time>2026-04-30T11:35:11.996Z</time></trkpt><trkpt lat="44.7018483" lon="9.5048117"><ele>960.9999999999999</ele><time>2026-04-30T11:35:27.998Z</time></trkpt><trkpt lat="44.701895" lon="9.5046283"><ele>961.0</ele><time>2026-04-30T11:35:44.997Z</time></trkpt><trkpt lat="44.70195" lon="9.5045717"><ele>961.0</ele><time>2026-04-30T11:35:59.999Z</time></trkpt><trkpt lat="44.7020117" lon="9.5044933"><ele>961.0</ele><time>2026-04-30T11:36:18.997Z</time></trkpt><trkpt lat="44.7019133" lon="9.5046233"><ele>961.0</ele><time>2026-04-30T11:36:37Z</time></trkpt><trkpt lat="44.7018217" lon="9.5048067"><ele>961.0</ele><time>2026-04-30T11:37:04.996Z</time></trkpt><trkpt lat="44.7018033" lon="9.5049033"><ele>961.0</ele><time>2026-04-30T11:37:46.996Z</time></trkpt><trkpt lat="44.7017183" lon="9.50498"><ele>961.0</ele><time>2026-04-30T11:37:49.996Z</time></trkpt><trkpt lat="44.7017433" lon="9.5050733"><ele>960.9999999999999</ele><time>2026-04-30T11:38:00.998Z</time></trkpt><trkpt lat="44.7018017" lon="9.50494"><ele>960.9999999999999</ele><time>2026-04-30T11:38:47.999Z</time></trkpt><trkpt lat="44.7019017" lon="9.5049233"><ele>961.0</ele><time>2026-04-30T11:38:57.996Z</time></trkpt><trkpt lat="44.7018383" lon="9.5048283"><ele>961.0</ele><time>2026-04-30T11:39:23.995Z</time></trkpt><trkpt lat="44.7019683" lon="9.50471"><ele>961.0</ele><time>2026-04-30T11:40:07.995Z</time></trkpt><trkpt lat="44.7020117" lon="9.5046367"><ele>960.9999999999999</ele><time>2026-04-30T11:40:34.995Z</time></trkpt><trkpt lat="44.7019667" lon="9.5047417"><ele>961.0</ele><time>2026-04-30T11:40:43.997Z</time></trkpt><trkpt lat="44.7018967" lon="9.5047117"><ele>961.0</ele><time>2026-04-30T11:40:57.001Z</time></trkpt><trkpt lat="44.701845" lon="9.50477"><ele>960.9999999999999</ele><time>2026-04-30T11:41:00.996Z</time></trkpt><trkpt lat="44.7018783" lon="9.5048567"><ele>961.0</ele><time>2026-04-30T11:41:15.002Z</time></trkpt><trkpt lat="44.7018283" lon="9.5049367"><ele>961.0</ele><time>2026-04-30T11:41:57.998Z</time></trkpt><trkpt lat="44.7019133" lon="9.504855"><ele>961.0</ele><time>2026-04-30T11:42:20.997Z</time></trkpt><trkpt lat="44.7019683" lon="9.50481"><ele>960.9999999999999</ele><time>2026-04-30T11:42:25.996Z</time></trkpt><trkpt lat="44.7019417" lon="9.504895"><ele>960.9999999999999</ele><time>2026-04-30T11:42:30.998Z</time></trkpt><trkpt lat="44.70177" lon="9.5049417"><ele>961.0</ele><time>2026-04-30T11:42:41.999Z</time></trkpt><trkpt lat="44.701685" lon="9.5049767"><ele>961.0</ele><time>2026-04-30T11:42:54.994Z</time></trkpt><trkpt lat="44.7017917" lon="9.5049733"><ele>961.0</ele><time>2026-04-30T11:43:02.998Z</time></trkpt><trkpt lat="44.7016967" lon="9.5049633"><ele>961.0</ele><time>2026-04-30T11:43:21.996Z</time></trkpt><trkpt lat="44.701815" lon="9.504985"><ele>961.0</ele><time>2026-04-30T11:44:04.995Z</time></trkpt><trkpt lat="44.7018317" lon="9.5051683"><ele>961.0</ele><time>2026-04-30T11:44:13.999Z</time></trkpt><trkpt lat="44.7018655" lon="9.5048782"><ele>968.0</ele><time>2026-04-30T11:45:02.105Z</time></trkpt><trkpt lat="44.702235" lon="9.5045033"><ele>966.3333333333334</ele><time>2026-04-30T11:47:57.996Z</time></trkpt><trkpt lat="44.7019617" lon="9.50474"><ele>964.6666666666667</ele><time>2026-04-30T11:47:58.998Z</time></trkpt><trkpt lat="44.7018883" lon="9.5047117"><ele>963.0</ele><time>2026-04-30T11:48:44.998Z</time></trkpt><trkpt lat="44.7018067" lon="9.504815"><ele>963.0</ele><time>2026-04-30T11:49:02.998Z</time></trkpt><trkpt lat="44.7018683" lon="9.5047267"><ele>963.0</ele><time>2026-04-30T11:49:04.994Z</time></trkpt><trkpt lat="44.7019517" lon="9.5045983"><ele>963.0</ele><time>2026-04-30T11:49:08.997Z</time></trkpt><trkpt lat="44.7020033" lon="9.5045333"><ele>963.0</ele><time>2026-04-30T11:49:12.996Z</time></trkpt><trkpt lat="44.7020583" lon="9.5044633"><ele>963.0</ele><time>2026-04-30T11:49:15.998Z</time></trkpt><trkpt lat="44.7021333" lon="9.50444"><ele>963.0</ele><time>2026-04-30T11:49:31.998Z</time></trkpt><trkpt lat="44.7019633" lon="9.5045833"><ele>962.5999999999999</ele><time>2026-04-30T11:49:50.998Z</time></trkpt><trkpt lat="44.7019" lon="9.5047183"><ele>962.1999999999999</ele><time>2026-04-30T11:49:59.997Z</time></trkpt><trkpt lat="44.7017967" lon="9.504775"><ele>961.8</ele><time>2026-04-30T11:50:04.998Z</time></trkpt><trkpt lat="44.70185" lon="9.50467"><ele>961.4</ele><time>2026-04-30T11:50:18.994Z</time></trkpt><trkpt lat="44.7017567" lon="9.5046583"><ele>961.0</ele><time>2026-04-30T11:50:40.995Z</time></trkpt><trkpt lat="44.7018783" lon="9.5047167"><ele>961.0</ele><time>2026-04-30T11:51:17.996Z</time></trkpt><trkpt lat="44.702005" lon="9.5045633"><ele>961.0</ele><time>2026-04-30T11:51:19.998Z</time></trkpt><trkpt lat="44.702075" lon="9.5044817"><ele>961.0</ele><time>2026-04-30T11:51:35.997Z</time></trkpt><trkpt lat="44.7018587" lon="9.5048769"><ele>961.0</ele><time>2026-04-30T11:52:10.451Z</time></trkpt><trkpt lat="44.7019567" lon="9.50476"><ele>961.0</ele><time>2026-04-30T11:52:37.999Z</time></trkpt><trkpt lat="44.702045" lon="9.5046817"><ele>961.0</ele><time>2026-04-30T11:52:38.997Z</time></trkpt><trkpt lat="44.7019" lon="9.5047167"><ele>961.0</ele><time>2026-04-30T11:52:40.996Z</time></trkpt><trkpt lat="44.70187" lon="9.5048483"><ele>961.0</ele><time>2026-04-30T11:53:29.992Z</time></trkpt><trkpt lat="44.7018533" lon="9.5047483"><ele>961.0</ele><time>2026-04-30T11:53:40.995Z</time></trkpt><trkpt lat="44.702025" lon="9.504685"><ele>961.0</ele><time>2026-04-30T11:54:04.999Z</time></trkpt><trkpt lat="44.7019583" lon="9.5047167"><ele>961.0</ele><time>2026-04-30T11:54:06.996Z</time></trkpt><trkpt lat="44.7018167" lon="9.50476"><ele>960.9999999999999</ele><time>2026-04-30T11:55:34.996Z</time></trkpt><trkpt lat="44.7017367" lon="9.504745"><ele>961.0</ele><time>2026-04-30T12:00:01.989Z</time></trkpt><trkpt lat="44.70167" lon="9.504665"><ele>961.0</ele><time>2026-04-30T12:04:26.99Z</time></trkpt><trkpt lat="44.7015917" lon="9.5045633"><ele>961.0</ele><time>2026-04-30T12:04:28.989Z</time></trkpt><trkpt lat="44.70152" lon="9.504485"><ele>960.9999999999999</ele><time>2026-04-30T12:04:30.988Z</time></trkpt><trkpt lat="44.701455" lon="9.5044317"><ele>961.0</ele><time>2026-04-30T12:04:35.989Z</time></trkpt><trkpt lat="44.7014567" lon="9.5042867"><ele>961.6666666666666</ele><time>2026-04-30T12:04:38.988Z</time></trkpt><trkpt lat="44.7014683" lon="9.5041117"><ele>962.3333333333333</ele><time>2026-04-30T12:04:40.989Z</time></trkpt><trkpt lat="44.7014633" lon="9.5040217"><ele>963.0</ele><time>2026-04-30T12:04:41.989Z</time></trkpt><trkpt lat="44.70141" lon="9.5038733"><ele>963.6666666666667</ele><time>2026-04-30T12:04:43.989Z</time></trkpt><trkpt lat="44.70137" lon="9.5038017"><ele>964.3333333333334</ele><time>2026-04-30T12:04:44.994Z</time></trkpt><trkpt lat="44.70133" lon="9.503725"><ele>965.0</ele><time>2026-04-30T12:04:45.989Z</time></trkpt><trkpt lat="44.7012917" lon="9.5036433"><ele>965.0000000000001</ele><time>2026-04-30T12:04:46.99Z</time></trkpt><trkpt lat="44.7012483" lon="9.5035633"><ele>965.0</ele><time>2026-04-30T12:04:47.989Z</time></trkpt><trkpt lat="44.7011517" lon="9.503455"><ele>965.0</ele><time>2026-04-30T12:04:49.989Z</time></trkpt><trkpt lat="44.7010933" lon="9.5034"><ele>965.0</ele><time>2026-04-30T12:04:50.989Z</time></trkpt><trkpt lat="44.7010417" lon="9.5033333"><ele>965.0000000000001</ele><time>2026-04-30T12:04:51.993Z</time></trkpt><trkpt lat="44.700985" lon="9.5032617"><ele>965.0</ele><time>2026-04-30T12:04:52.989Z</time></trkpt><trkpt lat="44.7009217" lon="9.50319"><ele>965.1666666666667</ele><time>2026-04-30T12:04:53.989Z</time></trkpt><trkpt lat="44.7008633" lon="9.5031117"><ele>965.3333333333334</ele><time>2026-04-30T12:04:54.989Z</time></trkpt><trkpt lat="44.700805" lon="9.5030283"><ele>965.5</ele><time>2026-04-30T12:04:55.991Z</time></trkpt><trkpt lat="44.7007417" lon="9.5029433"><ele>965.6666666666667</ele><time>2026-04-30T12:04:56.989Z</time></trkpt><trkpt lat="44.7006783" lon="9.5028567"><ele>965.8333333333334</ele><time>2026-04-30T12:04:57.989Z</time></trkpt><trkpt lat="44.700625" lon="9.5027767"><ele>966.0</ele><time>2026-04-30T12:04:58.988Z</time></trkpt><trkpt lat="44.700575" lon="9.5027017"><ele>966.0</ele><time>2026-04-30T12:04:59.989Z</time></trkpt><trkpt lat="44.7005283" lon="9.5025767"><ele>965.9999999999999</ele><time>2026-04-30T12:05:01.99Z</time></trkpt><trkpt lat="44.7005517" lon="9.502365"><ele>965.9999999999999</ele><time>2026-04-30T12:05:04.99Z</time></trkpt><trkpt lat="44.7005567" lon="9.50219"><ele>966.0</ele><time>2026-04-30T12:05:06.99Z</time></trkpt><trkpt lat="44.7005533" lon="9.5020933"><ele>966.0</ele><time>2026-04-30T12:05:07.993Z</time></trkpt><trkpt lat="44.7005533" lon="9.5019917"><ele>967.2857142857142</ele><time>2026-04-30T12:05:08.988Z</time></trkpt><trkpt lat="44.70056" lon="9.5018917"><ele>968.5714285714286</ele><time>2026-04-30T12:05:09.987Z</time></trkpt><trkpt lat="44.7005683" lon="9.5017883"><ele>969.8571428571429</ele><time>2026-04-30T12:05:10.989Z</time></trkpt><trkpt lat="44.7005833" lon="9.501685"><ele>971.1428571428571</ele><time>2026-04-30T12:05:11.989Z</time></trkpt><trkpt lat="44.7006033" lon="9.5015867"><ele>972.4285714285713</ele><time>2026-04-30T12:05:12.988Z</time></trkpt><trkpt lat="44.7006283" lon="9.5014883"><ele>973.7142857142857</ele><time>2026-04-30T12:05:13.994Z</time></trkpt><trkpt lat="44.70065" lon="9.5013817"><ele>975.0</ele><time>2026-04-30T12:05:14.989Z</time></trkpt><trkpt lat="44.7006667" lon="9.5012683"><ele>975.7142857142857</ele><time>2026-04-30T12:05:15.988Z</time></trkpt><trkpt lat="44.70068" lon="9.5011667"><ele>976.4285714285713</ele><time>2026-04-30T12:05:16.989Z</time></trkpt><trkpt lat="44.7006817" lon="9.5010683"><ele>977.1428571428571</ele><time>2026-04-30T12:05:17.987Z</time></trkpt><trkpt lat="44.7006667" lon="9.500975"><ele>977.8571428571429</ele><time>2026-04-30T12:05:18.988Z</time></trkpt><trkpt lat="44.70063" lon="9.500885"><ele>978.5714285714286</ele><time>2026-04-30T12:05:19.988Z</time></trkpt><trkpt lat="44.7005833" lon="9.5008167"><ele>979.2857142857142</ele><time>2026-04-30T12:05:20.995Z</time></trkpt><trkpt lat="44.7005233" lon="9.5007683"><ele>980.0</ele><time>2026-04-30T12:05:21.988Z</time></trkpt><trkpt lat="44.70045" lon="9.5007417"><ele>980.0</ele><time>2026-04-30T12:05:22.987Z</time></trkpt><trkpt lat="44.7003733" lon="9.50073"><ele>980.0</ele><time>2026-04-30T12:05:23.987Z</time></trkpt><trkpt lat="44.700305" lon="9.5007017"><ele>980.0</ele><time>2026-04-30T12:05:24.988Z</time></trkpt><trkpt lat="44.7002183" lon="9.50061"><ele>980.0</ele><time>2026-04-30T12:05:26.988Z</time></trkpt><trkpt lat="44.70019" lon="9.5004383"><ele>980.0</ele><time>2026-04-30T12:05:28.987Z</time></trkpt><trkpt lat="44.7001767" lon="9.5003117"><ele>982.6666666666667</ele><time>2026-04-30T12:05:29.988Z</time></trkpt><trkpt lat="44.7001583" lon="9.500185"><ele>985.3333333333334</ele><time>2026-04-30T12:05:30.988Z</time></trkpt><trkpt lat="44.70013" lon="9.5000867"><ele>988.0</ele><time>2026-04-30T12:05:31.989Z</time></trkpt><trkpt lat="44.7000933" lon="9.50001"><ele>990.6666666666667</ele><time>2026-04-30T12:05:32.988Z</time></trkpt><trkpt lat="44.700005" lon="9.4999083"><ele>993.3333333333334</ele><time>2026-04-30T12:05:34.989Z</time></trkpt><trkpt lat="44.6999333" lon="9.4998317"><ele>996.0</ele><time>2026-04-30T12:05:36.992Z</time></trkpt><trkpt lat="44.6998617" lon="9.4997917"><ele>996.0</ele><time>2026-04-30T12:05:38.988Z</time></trkpt><trkpt lat="44.6997833" lon="9.4997367"><ele>996.0</ele><time>2026-04-30T12:05:40.993Z</time></trkpt><trkpt lat="44.6997" lon="9.4996383"><ele>996.0</ele><time>2026-04-30T12:05:42.988Z</time></trkpt><trkpt lat="44.69966" lon="9.4995683"><ele>996.0</ele><time>2026-04-30T12:05:43.988Z</time></trkpt><trkpt lat="44.6996183" lon="9.4994983"><ele>996.0</ele><time>2026-04-30T12:05:44.988Z</time></trkpt><trkpt lat="44.6995367" lon="9.49939"><ele>996.0</ele><time>2026-04-30T12:05:46.987Z</time></trkpt><trkpt lat="44.6994717" lon="9.4993017"><ele>998.0</ele><time>2026-04-30T12:05:48.989Z</time></trkpt><trkpt lat="44.69942" lon="9.49923"><ele>1000.0</ele><time>2026-04-30T12:05:50.992Z</time></trkpt><trkpt lat="44.6993617" lon="9.4991717"><ele>1002.0</ele><time>2026-04-30T12:05:52.988Z</time></trkpt><trkpt lat="44.6993033" lon="9.4991"><ele>1004.0</ele><time>2026-04-30T12:05:54.988Z</time></trkpt><trkpt lat="44.69925" lon="9.4990283"><ele>1006.0</ele><time>2026-04-30T12:05:56.989Z</time></trkpt><trkpt lat="44.6991933" lon="9.498975"><ele>1008.0</ele><time>2026-04-30T12:05:58.988Z</time></trkpt><trkpt lat="44.6991194" lon="9.4988913"><ele>1008.4</ele><time>2026-04-30T12:06:01.022Z</time></trkpt><trkpt lat="44.6990247" lon="9.4988471"><ele>1008.8</ele><time>2026-04-30T12:06:02.988Z</time></trkpt><trkpt lat="44.6989116" lon="9.4988154"><ele>1009.2</ele><time>2026-04-30T12:06:04.99Z</time></trkpt><trkpt lat="44.6988075" lon="9.4988184"><ele>1009.6</ele><time>2026-04-30T12:06:06.987Z</time></trkpt><trkpt lat="44.6987039" lon="9.4988668"><ele>1010.0</ele><time>2026-04-30T12:06:08.988Z</time></trkpt><trkpt lat="44.6986118" lon="9.4989381"><ele>1011.5000000000001</ele><time>2026-04-30T12:06:10.99Z</time></trkpt><trkpt lat="44.698502" lon="9.499006"><ele>1013.0</ele><time>2026-04-30T12:06:12.988Z</time></trkpt><trkpt lat="44.698433" lon="9.4990379"><ele>1014.5</ele><time>2026-04-30T12:06:13.988Z</time></trkpt><trkpt lat="44.6983661" lon="9.4990754"><ele>1016.0</ele><time>2026-04-30T12:06:14.988Z</time></trkpt><trkpt lat="44.6983076" lon="9.4991191"><ele>1017.5000000000001</ele><time>2026-04-30T12:06:15.988Z</time></trkpt><trkpt lat="44.6982339" lon="9.4991721"><ele>1019.0</ele><time>2026-04-30T12:06:17.989Z</time></trkpt><trkpt lat="44.6981474" lon="9.499176"><ele>1019.0</ele><time>2026-04-30T12:06:19.989Z</time></trkpt><trkpt lat="44.6980401" lon="9.4991444"><ele>1019.0000000000001</ele><time>2026-04-30T12:06:21.991Z</time></trkpt><trkpt lat="44.6979376" lon="9.4991063"><ele>1019.0000000000001</ele><time>2026-04-30T12:06:23.987Z</time></trkpt><trkpt lat="44.6978417" lon="9.4990689"><ele>1019.0</ele><time>2026-04-30T12:06:25.988Z</time></trkpt><trkpt lat="44.6977527" lon="9.4990322"><ele>1019.0</ele><time>2026-04-30T12:06:27.988Z</time></trkpt><trkpt lat="44.6976619" lon="9.4990342"><ele>1020.1666666666667</ele><time>2026-04-30T12:06:29.99Z</time></trkpt><trkpt lat="44.6976044" lon="9.4990732"><ele>1021.3333333333334</ele><time>2026-04-30T12:06:30.987Z</time></trkpt><trkpt lat="44.6975375" lon="9.4991246"><ele>1022.5</ele><time>2026-04-30T12:06:31.989Z</time></trkpt><trkpt lat="44.6974635" lon="9.4991726"><ele>1023.6666666666667</ele><time>2026-04-30T12:06:32.991Z</time></trkpt><trkpt lat="44.69739" lon="9.4992044"><ele>1024.8333333333333</ele><time>2026-04-30T12:06:33.992Z</time></trkpt><trkpt lat="44.6973147" lon="9.4992223"><ele>1026.0</ele><time>2026-04-30T12:06:34.989Z</time></trkpt><trkpt lat="44.6972386" lon="9.499237"><ele>1026.0</ele><time>2026-04-30T12:06:35.988Z</time></trkpt><trkpt lat="44.6971728" lon="9.4992565"><ele>1026.0</ele><time>2026-04-30T12:06:36.99Z</time></trkpt><trkpt lat="44.6970716" lon="9.4993566"><ele>1026.0</ele><time>2026-04-30T12:06:38.994Z</time></trkpt><trkpt lat="44.6970372" lon="9.4994309"><ele>1026.0</ele><time>2026-04-30T12:06:39.99Z</time></trkpt><trkpt lat="44.6969848" lon="9.4995723"><ele>1026.0</ele><time>2026-04-30T12:06:41.99Z</time></trkpt><trkpt lat="44.696923" lon="9.4996455"><ele>1026.0</ele><time>2026-04-30T12:06:43.997Z</time></trkpt><trkpt lat="44.6968005" lon="9.499622"><ele>1027.5714285714287</ele><time>2026-04-30T12:06:45.989Z</time></trkpt><trkpt lat="44.6967301" lon="9.4996022"><ele>1029.142857142857</ele><time>2026-04-30T12:06:46.989Z</time></trkpt><trkpt lat="44.6966627" lon="9.4995866"><ele>1030.7142857142858</ele><time>2026-04-30T12:06:47.989Z</time></trkpt><trkpt lat="44.6965949" lon="9.4995704"><ele>1032.2857142857142</ele><time>2026-04-30T12:06:48.988Z</time></trkpt><trkpt lat="44.6965235" lon="9.4995566"><ele>1033.857142857143</ele><time>2026-04-30T12:06:49.987Z</time></trkpt><trkpt lat="44.6964497" lon="9.4995306"><ele>1035.4285714285716</ele><time>2026-04-30T12:06:50.988Z</time></trkpt><trkpt lat="44.6963745" lon="9.4995034"><ele>1037.0</ele><time>2026-04-30T12:06:51.988Z</time></trkpt><trkpt lat="44.6962898" lon="9.4994715"><ele>1037.0</ele><time>2026-04-30T12:06:52.987Z</time></trkpt><trkpt lat="44.6961921" lon="9.4994385"><ele>1037.0</ele><time>2026-04-30T12:06:53.987Z</time></trkpt><trkpt lat="44.6960853" lon="9.4994112"><ele>1037.0</ele><time>2026-04-30T12:06:54.993Z</time></trkpt><trkpt lat="44.6959764" lon="9.4993834"><ele>1037.0</ele><time>2026-04-30T12:06:55.988Z</time></trkpt><trkpt lat="44.695876" lon="9.4993518"><ele>1037.0</ele><time>2026-04-30T12:06:56.989Z</time></trkpt><trkpt lat="44.6957809" lon="9.4993164"><ele>1038.6</ele><time>2026-04-30T12:06:57.99Z</time></trkpt><trkpt lat="44.6956881" lon="9.4992861"><ele>1040.2</ele><time>2026-04-30T12:06:58.987Z</time></trkpt><trkpt lat="44.6956014" lon="9.4992568"><ele>1041.8</ele><time>2026-04-30T12:06:59.996Z</time></trkpt><trkpt lat="44.6955197" lon="9.4992233"><ele>1043.4</ele><time>2026-04-30T12:07:00.988Z</time></trkpt><trkpt lat="44.6954351" lon="9.4991895"><ele>1045.0</ele><time>2026-04-30T12:07:01.989Z</time></trkpt><trkpt lat="44.6953447" lon="9.499155"><ele>1046.25</ele><time>2026-04-30T12:07:02.989Z</time></trkpt><trkpt lat="44.6952456" lon="9.4991122"><ele>1047.5</ele><time>2026-04-30T12:07:03.989Z</time></trkpt><trkpt lat="44.6951379" lon="9.4990595"><ele>1048.75</ele><time>2026-04-30T12:07:04.99Z</time></trkpt><trkpt lat="44.6950242" lon="9.4989958"><ele>1050.0</ele><time>2026-04-30T12:07:05.988Z</time></trkpt><trkpt lat="44.6949078" lon="9.498928"><ele>1050.0</ele><time>2026-04-30T12:07:06.99Z</time></trkpt><trkpt lat="44.6947902" lon="9.4988602"><ele>1050.0</ele><time>2026-04-30T12:07:07.988Z</time></trkpt><trkpt lat="44.6946733" lon="9.4987888"><ele>1050.0</ele><time>2026-04-30T12:07:08.994Z</time></trkpt><trkpt lat="44.6945517" lon="9.4987135"><ele>1050.0</ele><time>2026-04-30T12:07:09.989Z</time></trkpt><trkpt lat="44.6944251" lon="9.4986368"><ele>1052.0</ele><time>2026-04-30T12:07:10.989Z</time></trkpt><trkpt lat="44.6943095" lon="9.49856"><ele>1054.0</ele><time>2026-04-30T12:07:11.989Z</time></trkpt><trkpt lat="44.6942172" lon="9.4984813"><ele>1056.0</ele><time>2026-04-30T12:07:12.988Z</time></trkpt><trkpt lat="44.6941633" lon="9.4984025"><ele>1058.0</ele><time>2026-04-30T12:07:13.988Z</time></trkpt><trkpt lat="44.6941446" lon="9.4982429"><ele>1060.0</ele><time>2026-04-30T12:07:15.99Z</time></trkpt><trkpt lat="44.6941794" lon="9.4981655"><ele>1060.0</ele><time>2026-04-30T12:07:16.988Z</time></trkpt><trkpt lat="44.6942414" lon="9.4981121"><ele>1060.0</ele><time>2026-04-30T12:07:17.989Z</time></trkpt><trkpt lat="44.6943174" lon="9.4980841"><ele>1060.0</ele><time>2026-04-30T12:07:18.988Z</time></trkpt><trkpt lat="44.694402" lon="9.4980822"><ele>1060.0</ele><time>2026-04-30T12:07:19.988Z</time></trkpt><trkpt lat="44.6944908" lon="9.4980895"><ele>1060.0</ele><time>2026-04-30T12:07:20.988Z</time></trkpt><trkpt lat="44.6945762" lon="9.4980775"><ele>1060.0</ele><time>2026-04-30T12:07:21.987Z</time></trkpt><trkpt lat="44.6946537" lon="9.4980404"><ele>1060.2</ele><time>2026-04-30T12:07:22.994Z</time></trkpt><trkpt lat="44.694708" lon="9.4979842"><ele>1060.4</ele><time>2026-04-30T12:07:23.988Z</time></trkpt><trkpt lat="44.6947319" lon="9.4978986"><ele>1060.6</ele><time>2026-04-30T12:07:24.988Z</time></trkpt><trkpt lat="44.6946955" lon="9.4977758"><ele>1060.8</ele><time>2026-04-30T12:07:25.988Z</time></trkpt><trkpt lat="44.6946318" lon="9.497653"><ele>1061.0</ele><time>2026-04-30T12:07:26.99Z</time></trkpt><trkpt lat="44.6945493" lon="9.4975376"><ele>1062.3333333333335</ele><time>2026-04-30T12:07:27.987Z</time></trkpt><trkpt lat="44.6944587" lon="9.4974262"><ele>1063.6666666666667</ele><time>2026-04-30T12:07:28.994Z</time></trkpt><trkpt lat="44.6943804" lon="9.4973292"><ele>1065.0</ele><time>2026-04-30T12:07:29.988Z</time></trkpt><trkpt lat="44.6943174" lon="9.4972528"><ele>1066.3333333333333</ele><time>2026-04-30T12:07:30.987Z</time></trkpt><trkpt lat="44.6942673" lon="9.4971972"><ele>1067.6666666666665</ele><time>2026-04-30T12:07:31.988Z</time></trkpt><trkpt lat="44.6942111" lon="9.4971224"><ele>1069.0</ele><time>2026-04-30T12:07:33.987Z</time></trkpt><trkpt lat="44.6942724" lon="9.4970339"><ele>1071.25</ele><time>2026-04-30T12:07:36.991Z</time></trkpt><trkpt lat="44.6943933" lon="9.4970129"><ele>1073.5</ele><time>2026-04-30T12:07:38.988Z</time></trkpt><trkpt lat="44.6945131" lon="9.4969724"><ele>1075.75</ele><time>2026-04-30T12:07:40.988Z</time></trkpt><trkpt lat="44.6946191" lon="9.4968926"><ele>1078.0</ele><time>2026-04-30T12:07:42.994Z</time></trkpt><trkpt lat="44.6947188" lon="9.4967898"><ele>1079.2</ele><time>2026-04-30T12:07:44.988Z</time></trkpt><trkpt lat="44.6948115" lon="9.4967141"><ele>1080.4</ele><time>2026-04-30T12:07:46.989Z</time></trkpt><trkpt lat="44.6948978" lon="9.4966098"><ele>1081.6000000000001</ele><time>2026-04-30T12:07:48.989Z</time></trkpt><trkpt lat="44.6949535" lon="9.4964791"><ele>1082.8</ele><time>2026-04-30T12:07:50.989Z</time></trkpt><trkpt lat="44.6950003" lon="9.496348"><ele>1084.0</ele><time>2026-04-30T12:07:52.995Z</time></trkpt><trkpt lat="44.6950834" lon="9.4962645"><ele>1086.2</ele><time>2026-04-30T12:07:54.989Z</time></trkpt><trkpt lat="44.6952" lon="9.4962101"><ele>1088.4</ele><time>2026-04-30T12:07:56.988Z</time></trkpt><trkpt lat="44.6953073" lon="9.4961156"><ele>1090.6</ele><time>2026-04-30T12:07:58.989Z</time></trkpt><trkpt lat="44.6953577" lon="9.496059"><ele>1092.8</ele><time>2026-04-30T12:07:59.987Z</time></trkpt><trkpt lat="44.695405" lon="9.4959975"><ele>1095.0</ele><time>2026-04-30T12:08:00.987Z</time></trkpt><trkpt lat="44.695489" lon="9.4958764"><ele>1095.2</ele><time>2026-04-30T12:08:02.989Z</time></trkpt><trkpt lat="44.695561" lon="9.4957673"><ele>1095.4</ele><time>2026-04-30T12:08:04.987Z</time></trkpt><trkpt lat="44.6956281" lon="9.4956599"><ele>1095.6</ele><time>2026-04-30T12:08:06.988Z</time></trkpt><trkpt lat="44.6956836" lon="9.4955384"><ele>1095.8</ele><time>2026-04-30T12:08:08.989Z</time></trkpt><trkpt lat="44.6957291" lon="9.4954076"><ele>1096.0</ele><time>2026-04-30T12:08:10.987Z</time></trkpt><trkpt lat="44.6957386" lon="9.4952796"><ele>1098.3999999999999</ele><time>2026-04-30T12:08:12.989Z</time></trkpt><trkpt lat="44.6957381" lon="9.4951423"><ele>1100.8</ele><time>2026-04-30T12:08:14.988Z</time></trkpt><trkpt lat="44.695736" lon="9.4950047"><ele>1103.1999999999998</ele><time>2026-04-30T12:08:16.994Z</time></trkpt><trkpt lat="44.6957299" lon="9.494878"><ele>1105.6</ele><time>2026-04-30T12:08:18.987Z</time></trkpt><trkpt lat="44.6956791" lon="9.4948069"><ele>1108.0</ele><time>2026-04-30T12:08:20.989Z</time></trkpt><trkpt lat="44.6955724" lon="9.4947897"><ele>1108.0</ele><time>2026-04-30T12:08:22.99Z</time></trkpt><trkpt lat="44.6954615" lon="9.4947474"><ele>1108.0</ele><time>2026-04-30T12:08:24.987Z</time></trkpt><trkpt lat="44.6954245" lon="9.4946257"><ele>1108.0</ele><time>2026-04-30T12:08:26.989Z</time></trkpt><trkpt lat="44.6954591" lon="9.4944604"><ele>1108.0</ele><time>2026-04-30T12:08:28.987Z</time></trkpt><trkpt lat="44.6954807" lon="9.4943757"><ele>1108.0</ele><time>2026-04-30T12:08:29.992Z</time></trkpt><trkpt lat="44.695516" lon="9.4942085"><ele>1109.8333333333333</ele><time>2026-04-30T12:08:31.989Z</time></trkpt><trkpt lat="44.6955305" lon="9.494121"><ele>1111.6666666666665</ele><time>2026-04-30T12:08:32.989Z</time></trkpt><trkpt lat="44.6955441" lon="9.4940295"><ele>1113.5</ele><time>2026-04-30T12:08:33.989Z</time></trkpt><trkpt lat="44.6955495" lon="9.4939326"><ele>1115.3333333333333</ele><time>2026-04-30T12:08:34.989Z</time></trkpt><trkpt lat="44.6955514" lon="9.4938305"><ele>1117.1666666666667</ele><time>2026-04-30T12:08:35.988Z</time></trkpt><trkpt lat="44.6955481" lon="9.4937341"><ele>1119.0</ele><time>2026-04-30T12:08:36.988Z</time></trkpt><trkpt lat="44.6955361" lon="9.4935651"><ele>1120.8</ele><time>2026-04-30T12:08:38.996Z</time></trkpt><trkpt lat="44.6955597" lon="9.4933945"><ele>1122.6000000000001</ele><time>2026-04-30T12:08:40.989Z</time></trkpt><trkpt lat="44.6956128" lon="9.4932319"><ele>1124.4</ele><time>2026-04-30T12:08:42.989Z</time></trkpt><trkpt lat="44.6956405" lon="9.4931363"><ele>1126.2</ele><time>2026-04-30T12:08:43.989Z</time></trkpt><trkpt lat="44.695663" lon="9.4930397"><ele>1128.0</ele><time>2026-04-30T12:08:44.99Z</time></trkpt><trkpt lat="44.695682" lon="9.4929454"><ele>1129.3333333333333</ele><time>2026-04-30T12:08:45.993Z</time></trkpt><trkpt lat="44.6956972" lon="9.4928568"><ele>1130.6666666666667</ele><time>2026-04-30T12:08:46.988Z</time></trkpt><trkpt lat="44.6957107" lon="9.4927685"><ele>1132.0</ele><time>2026-04-30T12:08:47.989Z</time></trkpt><trkpt lat="44.6957277" lon="9.4926777"><ele>1133.3333333333335</ele><time>2026-04-30T12:08:48.988Z</time></trkpt><trkpt lat="44.6957515" lon="9.4925129"><ele>1134.6666666666667</ele><time>2026-04-30T12:08:50.994Z</time></trkpt><trkpt lat="44.6957552" lon="9.4923474"><ele>1136.0</ele><time>2026-04-30T12:08:52.989Z</time></trkpt><trkpt lat="44.6957499" lon="9.4922586"><ele>1136.0</ele><time>2026-04-30T12:08:53.988Z</time></trkpt><trkpt lat="44.695742" lon="9.4921517"><ele>1136.0</ele><time>2026-04-30T12:08:54.987Z</time></trkpt><trkpt lat="44.6957314" lon="9.4920368"><ele>1136.0</ele><time>2026-04-30T12:08:55.988Z</time></trkpt><trkpt lat="44.6957145" lon="9.491925"><ele>1136.0</ele><time>2026-04-30T12:08:56.991Z</time></trkpt><trkpt lat="44.6956942" lon="9.4918207"><ele>1136.0</ele><time>2026-04-30T12:08:57.987Z</time></trkpt><trkpt lat="44.6956739" lon="9.491713"><ele>1136.0</ele><time>2026-04-30T12:08:58.988Z</time></trkpt><trkpt lat="44.6956542" lon="9.4916006"><ele>1136.5714285714284</ele><time>2026-04-30T12:08:59.988Z</time></trkpt><trkpt lat="44.695635" lon="9.4914964"><ele>1137.142857142857</ele><time>2026-04-30T12:09:00.987Z</time></trkpt><trkpt lat="44.695615" lon="9.4914006"><ele>1137.7142857142858</ele><time>2026-04-30T12:09:01.993Z</time></trkpt><trkpt lat="44.6955935" lon="9.4913135"><ele>1138.2857142857142</ele><time>2026-04-30T12:09:02.988Z</time></trkpt><trkpt lat="44.6955692" lon="9.4912265"><ele>1138.857142857143</ele><time>2026-04-30T12:09:03.988Z</time></trkpt><trkpt lat="44.6955369" lon="9.4911427"><ele>1139.4285714285713</ele><time>2026-04-30T12:09:04.99Z</time></trkpt><trkpt lat="44.6954985" lon="9.4910575"><ele>1140.0</ele><time>2026-04-30T12:09:05.989Z</time></trkpt><trkpt lat="44.695452" lon="9.4909823"><ele>1140.5</ele><time>2026-04-30T12:09:06.989Z</time></trkpt><trkpt lat="44.6954051" lon="9.4909115"><ele>1141.0</ele><time>2026-04-30T12:09:07.993Z</time></trkpt><trkpt lat="44.6953621" lon="9.4908418"><ele>1141.5</ele><time>2026-04-30T12:09:08.988Z</time></trkpt><trkpt lat="44.695319" lon="9.4907706"><ele>1142.0</ele><time>2026-04-30T12:09:09.988Z</time></trkpt><trkpt lat="44.695232" lon="9.490676"><ele>1142.5</ele><time>2026-04-30T12:09:11.988Z</time></trkpt><trkpt lat="44.6951344" lon="9.490657"><ele>1143.0</ele><time>2026-04-30T12:09:13.988Z</time></trkpt><trkpt lat="44.6950468" lon="9.490628"><ele>1143.0</ele><time>2026-04-30T12:09:15.987Z</time></trkpt><trkpt lat="44.6950172" lon="9.4905192"><ele>1143.0</ele><time>2026-04-30T12:09:17.989Z</time></trkpt><trkpt lat="44.6950206" lon="9.4903867"><ele>1143.0</ele><time>2026-04-30T12:09:19.987Z</time></trkpt><trkpt lat="44.6949996" lon="9.490258"><ele>1143.0</ele><time>2026-04-30T12:09:21.993Z</time></trkpt><trkpt lat="44.6949768" lon="9.4901051"><ele>1143.0</ele><time>2026-04-30T12:09:23.987Z</time></trkpt><trkpt lat="44.6949586" lon="9.4899418"><ele>1145.4</ele><time>2026-04-30T12:09:25.989Z</time></trkpt><trkpt lat="44.6949591" lon="9.4897864"><ele>1147.8</ele><time>2026-04-30T12:09:27.989Z</time></trkpt><trkpt lat="44.6949731" lon="9.4896235"><ele>1150.2</ele><time>2026-04-30T12:09:29.989Z</time></trkpt><trkpt lat="44.69504" lon="9.4894763"><ele>1152.6</ele><time>2026-04-30T12:09:31.99Z</time></trkpt><trkpt lat="44.6950909" lon="9.4893941"><ele>1155.0</ele><time>2026-04-30T12:09:32.988Z</time></trkpt><trkpt lat="44.695137" lon="9.4893181"><ele>1156.5</ele><time>2026-04-30T12:09:33.988Z</time></trkpt><trkpt lat="44.6952158" lon="9.4892306"><ele>1158.0</ele><time>2026-04-30T12:09:35.99Z</time></trkpt><trkpt lat="44.6952878" lon="9.4891814"><ele>1159.5</ele><time>2026-04-30T12:09:37.989Z</time></trkpt><trkpt lat="44.6953676" lon="9.4891822"><ele>1161.0</ele><time>2026-04-30T12:09:39.994Z</time></trkpt><trkpt lat="44.6954315" lon="9.4891192"><ele>1162.5</ele><time>2026-04-30T12:09:41.988Z</time></trkpt><trkpt lat="44.6954938" lon="9.489019"><ele>1164.0</ele><time>2026-04-30T12:09:43.988Z</time></trkpt><trkpt lat="44.695544" lon="9.4889008"><ele>1166.8</ele><time>2026-04-30T12:09:45.987Z</time></trkpt><trkpt lat="44.6955854" lon="9.4887716"><ele>1169.6000000000001</ele><time>2026-04-30T12:09:47.988Z</time></trkpt><trkpt lat="44.6956028" lon="9.4886864"><ele>1172.4</ele><time>2026-04-30T12:09:51.068Z</time></trkpt><trkpt lat="44.6956184" lon="9.4885831"><ele>1175.2</ele><time>2026-04-30T12:09:53.016Z</time></trkpt><trkpt lat="44.6956323" lon="9.4884386"><ele>1178.0</ele><time>2026-04-30T12:09:54.987Z</time></trkpt><trkpt lat="44.6956652" lon="9.4882783"><ele>1179.75</ele><time>2026-04-30T12:09:56.99Z</time></trkpt><trkpt lat="44.6957191" lon="9.4881277"><ele>1181.5</ele><time>2026-04-30T12:09:58.988Z</time></trkpt><trkpt lat="44.6957765" lon="9.4879792"><ele>1183.25</ele><time>2026-04-30T12:10:00.995Z</time></trkpt><trkpt lat="44.6958286" lon="9.4878262"><ele>1185.0</ele><time>2026-04-30T12:10:02.991Z</time></trkpt><trkpt lat="44.6958703" lon="9.4876824"><ele>1186.8</ele><time>2026-04-30T12:10:04.988Z</time></trkpt><trkpt lat="44.6958964" lon="9.4875468"><ele>1188.6</ele><time>2026-04-30T12:10:06.99Z</time></trkpt><trkpt lat="44.6959311" lon="9.4873994"><ele>1190.4</ele><time>2026-04-30T12:10:08.99Z</time></trkpt><trkpt lat="44.6959639" lon="9.4872416"><ele>1192.2</ele><time>2026-04-30T12:10:10.99Z</time></trkpt><trkpt lat="44.6959971" lon="9.4870902"><ele>1194.0</ele><time>2026-04-30T12:10:12.99Z</time></trkpt><trkpt lat="44.6960215" lon="9.4869239"><ele>1195.6000000000001</ele><time>2026-04-30T12:10:14.989Z</time></trkpt><trkpt lat="44.6960327" lon="9.4867539"><ele>1197.2</ele><time>2026-04-30T12:10:16.994Z</time></trkpt><trkpt lat="44.6960574" lon="9.486598"><ele>1198.8000000000002</ele><time>2026-04-30T12:10:18.987Z</time></trkpt><trkpt lat="44.6960854" lon="9.4864638"><ele>1200.4</ele><time>2026-04-30T12:10:20.988Z</time></trkpt><trkpt lat="44.6961076" lon="9.4863202"><ele>1202.0</ele><time>2026-04-30T12:10:22.987Z</time></trkpt><trkpt lat="44.6961396" lon="9.4861709"><ele>1204.4</ele><time>2026-04-30T12:10:24.992Z</time></trkpt><trkpt lat="44.6961532" lon="9.4860279"><ele>1206.8000000000002</ele><time>2026-04-30T12:10:26.99Z</time></trkpt><trkpt lat="44.6961813" lon="9.4858961"><ele>1209.2</ele><time>2026-04-30T12:10:28.989Z</time></trkpt><trkpt lat="44.6962528" lon="9.4858467"><ele>1211.6000000000001</ele><time>2026-04-30T12:10:30.989Z</time></trkpt><trkpt lat="44.6963547" lon="9.4858557"><ele>1214.0</ele><time>2026-04-30T12:10:32.988Z</time></trkpt><trkpt lat="44.6964581" lon="9.4858468"><ele>1214.0</ele><time>2026-04-30T12:10:34.993Z</time></trkpt><trkpt lat="44.6965618" lon="9.4858184"><ele>1214.0</ele><time>2026-04-30T12:10:36.989Z</time></trkpt><trkpt lat="44.6966852" lon="9.4857949"><ele>1214.0</ele><time>2026-04-30T12:10:38.989Z</time></trkpt><trkpt lat="44.6967549" lon="9.4857757"><ele>1214.0</ele><time>2026-04-30T12:10:39.991Z</time></trkpt><trkpt lat="44.6968278" lon="9.485754"><ele>1214.0</ele><time>2026-04-30T12:10:40.991Z</time></trkpt><trkpt lat="44.6969006" lon="9.485732"><ele>1213.5</ele><time>2026-04-30T12:10:41.99Z</time></trkpt><trkpt lat="44.696965" lon="9.4857109"><ele>1213.0</ele><time>2026-04-30T12:10:42.989Z</time></trkpt><trkpt lat="44.6970356" lon="9.4856338"><ele>1212.5</ele><time>2026-04-30T12:10:44.989Z</time></trkpt><trkpt lat="44.6970438" lon="9.4855023"><ele>1212.0</ele><time>2026-04-30T12:10:46.988Z</time></trkpt><trkpt lat="44.6970489" lon="9.4853462"><ele>1211.5</ele><time>2026-04-30T12:10:48.988Z</time></trkpt><trkpt lat="44.6970657" lon="9.4852548"><ele>1211.0</ele><time>2026-04-30T12:10:49.988Z</time></trkpt><trkpt lat="44.6970893" lon="9.485166"><ele>1212.0</ele><time>2026-04-30T12:10:50.988Z</time></trkpt><trkpt lat="44.6971169" lon="9.4850732"><ele>1213.0</ele><time>2026-04-30T12:10:51.99Z</time></trkpt><trkpt lat="44.6971496" lon="9.4849702"><ele>1214.0</ele><time>2026-04-30T12:10:52.988Z</time></trkpt><trkpt lat="44.6971919" lon="9.4848454"><ele>1215.0</ele><time>2026-04-30T12:10:53.989Z</time></trkpt><trkpt lat="44.6972384" lon="9.4847133"><ele>1216.0</ele><time>2026-04-30T12:10:54.988Z</time></trkpt><trkpt lat="44.6972789" lon="9.4845968"><ele>1217.0</ele><time>2026-04-30T12:10:55.987Z</time></trkpt><trkpt lat="44.6973158" lon="9.4844902"><ele>1217.3333333333335</ele><time>2026-04-30T12:10:56.988Z</time></trkpt><trkpt lat="44.6973549" lon="9.4843937"><ele>1217.6666666666667</ele><time>2026-04-30T12:10:57.99Z</time></trkpt><trkpt lat="44.6974031" lon="9.4843133"><ele>1218.0</ele><time>2026-04-30T12:10:58.99Z</time></trkpt><trkpt lat="44.697455" lon="9.4842289"><ele>1218.3333333333333</ele><time>2026-04-30T12:10:59.993Z</time></trkpt><trkpt lat="44.6975077" lon="9.4841383"><ele>1218.6666666666665</ele><time>2026-04-30T12:11:00.988Z</time></trkpt><trkpt lat="44.6975657" lon="9.484044"><ele>1219.0</ele><time>2026-04-30T12:11:01.989Z</time></trkpt><trkpt lat="44.6976215" lon="9.4839462"><ele>1219.0</ele><time>2026-04-30T12:11:02.99Z</time></trkpt><trkpt lat="44.6976703" lon="9.4838482"><ele>1219.0</ele><time>2026-04-30T12:11:03.99Z</time></trkpt><trkpt lat="44.6977146" lon="9.483746"><ele>1219.0</ele><time>2026-04-30T12:11:04.988Z</time></trkpt><trkpt lat="44.6977644" lon="9.4836384"><ele>1219.0</ele><time>2026-04-30T12:11:05.993Z</time></trkpt><trkpt lat="44.6978173" lon="9.4835315"><ele>1219.0</ele><time>2026-04-30T12:11:06.989Z</time></trkpt><trkpt lat="44.6978663" lon="9.483427"><ele>1219.0</ele><time>2026-04-30T12:11:07.988Z</time></trkpt><trkpt lat="44.6979105" lon="9.4833284"><ele>1219.0</ele><time>2026-04-30T12:11:08.989Z</time></trkpt><trkpt lat="44.6979432" lon="9.4832403"><ele>1219.0</ele><time>2026-04-30T12:11:09.989Z</time></trkpt><trkpt lat="44.6979691" lon="9.4830871"><ele>1219.0</ele><time>2026-04-30T12:11:11.987Z</time></trkpt><trkpt lat="44.6979634" lon="9.4829683"><ele>1219.0</ele><time>2026-04-30T12:11:13.988Z</time></trkpt><trkpt lat="44.6979449" lon="9.4828556"><ele>1219.0</ele><time>2026-04-30T12:11:15.988Z</time></trkpt><trkpt lat="44.6979491" lon="9.4827457"><ele>1219.0</ele><time>2026-04-30T12:11:17.988Z</time></trkpt><trkpt lat="44.6979567" lon="9.4826384"><ele>1221.6000000000001</ele><time>2026-04-30T12:11:19.99Z</time></trkpt><trkpt lat="44.6979504" lon="9.4825292"><ele>1224.2</ele><time>2026-04-30T12:11:21.988Z</time></trkpt><trkpt lat="44.6979262" lon="9.4824208"><ele>1226.8000000000002</ele><time>2026-04-30T12:11:23.988Z</time></trkpt><trkpt lat="44.6979212" lon="9.482283"><ele>1229.4</ele><time>2026-04-30T12:11:25.987Z</time></trkpt><trkpt lat="44.6979632" lon="9.4821553"><ele>1232.0</ele><time>2026-04-30T12:11:27.987Z</time></trkpt><trkpt lat="44.6980028" lon="9.4820339"><ele>1235.0</ele><time>2026-04-30T12:11:29.99Z</time></trkpt><trkpt lat="44.698042" lon="9.4818904"><ele>1238.0</ele><time>2026-04-30T12:11:31.989Z</time></trkpt><trkpt lat="44.6980857" lon="9.4817773"><ele>1241.0</ele><time>2026-04-30T12:11:33.99Z</time></trkpt><trkpt lat="44.6981282" lon="9.4816799"><ele>1244.0</ele><time>2026-04-30T12:11:35.987Z</time></trkpt><trkpt lat="44.698177" lon="9.4815819"><ele>1247.0</ele><time>2026-04-30T12:11:37.987Z</time></trkpt><trkpt lat="44.6982187" lon="9.4814703"><ele>1247.0</ele><time>2026-04-30T12:11:39.99Z</time></trkpt><trkpt lat="44.6982582" lon="9.4813702"><ele>1247.0</ele><time>2026-04-30T12:11:41.989Z</time></trkpt><trkpt lat="44.6982791" lon="9.4812707"><ele>1247.0</ele><time>2026-04-30T12:11:43.988Z</time></trkpt><trkpt lat="44.6982643" lon="9.4811541"><ele>1247.0</ele><time>2026-04-30T12:11:45.988Z</time></trkpt><trkpt lat="44.6982783" lon="9.4810256"><ele>1247.0</ele><time>2026-04-30T12:11:47.989Z</time></trkpt><trkpt lat="44.6983205" lon="9.4808793"><ele>1247.0</ele><time>2026-04-30T12:11:49.99Z</time></trkpt><trkpt lat="44.6983278" lon="9.4807896"><ele>1249.0</ele><time>2026-04-30T12:11:50.991Z</time></trkpt><trkpt lat="44.6983288" lon="9.4806972"><ele>1251.0</ele><time>2026-04-30T12:11:51.988Z</time></trkpt><trkpt lat="44.6983362" lon="9.4805252"><ele>1253.0</ele><time>2026-04-30T12:11:53.991Z</time></trkpt><trkpt lat="44.6983367" lon="9.4803533"><ele>1255.0</ele><time>2026-04-30T12:11:55.992Z</time></trkpt><trkpt lat="44.6983511" lon="9.4801893"><ele>1257.0</ele><time>2026-04-30T12:11:57.99Z</time></trkpt><trkpt lat="44.6983688" lon="9.4801006"><ele>1258.0</ele><time>2026-04-30T12:11:58.988Z</time></trkpt><trkpt lat="44.69839" lon="9.4800057"><ele>1259.0</ele><time>2026-04-30T12:11:59.988Z</time></trkpt><trkpt lat="44.6984076" lon="9.4799113"><ele>1260.0</ele><time>2026-04-30T12:12:00.992Z</time></trkpt><trkpt lat="44.698423" lon="9.4798175"><ele>1261.0</ele><time>2026-04-30T12:12:01.988Z</time></trkpt><trkpt lat="44.6984387" lon="9.4797298"><ele>1262.0</ele><time>2026-04-30T12:12:02.988Z</time></trkpt><trkpt lat="44.6984481" lon="9.4795859"><ele>1263.0</ele><time>2026-04-30T12:12:04.987Z</time></trkpt><trkpt lat="44.6984119" lon="9.479443"><ele>1264.5</ele><time>2026-04-30T12:12:06.987Z</time></trkpt><trkpt lat="44.6984044" lon="9.4793513"><ele>1266.0</ele><time>2026-04-30T12:12:07.988Z</time></trkpt><trkpt lat="44.698406" lon="9.4792521"><ele>1267.5</ele><time>2026-04-30T12:12:08.988Z</time></trkpt><trkpt lat="44.698415" lon="9.4791515"><ele>1269.0</ele><time>2026-04-30T12:12:09.987Z</time></trkpt><trkpt lat="44.6984255" lon="9.4790595"><ele>1270.5</ele><time>2026-04-30T12:12:10.988Z</time></trkpt><trkpt lat="44.6984174" lon="9.4789324"><ele>1272.0</ele><time>2026-04-30T12:12:12.987Z</time></trkpt><trkpt lat="44.6983889" lon="9.4788186"><ele>1274.0</ele><time>2026-04-30T12:12:14.991Z</time></trkpt><trkpt lat="44.6983612" lon="9.4786922"><ele>1276.0</ele><time>2026-04-30T12:12:16.99Z</time></trkpt><trkpt lat="44.6983399" lon="9.4785571"><ele>1278.0</ele><time>2026-04-30T12:12:18.988Z</time></trkpt><trkpt lat="44.6983008" lon="9.4784057"><ele>1280.0</ele><time>2026-04-30T12:12:20.989Z</time></trkpt><trkpt lat="44.6982616" lon="9.4782672"><ele>1282.0</ele><time>2026-04-30T12:12:22.99Z</time></trkpt><trkpt lat="44.6982269" lon="9.4781113"><ele>1282.0</ele><time>2026-04-30T12:12:24.99Z</time></trkpt><trkpt lat="44.6981854" lon="9.4779683"><ele>1282.0</ele><time>2026-04-30T12:12:26.987Z</time></trkpt><trkpt lat="44.6981284" lon="9.4778388"><ele>1282.0</ele><time>2026-04-30T12:12:28.988Z</time></trkpt><trkpt lat="44.698045" lon="9.4777876"><ele>1282.0</ele><time>2026-04-30T12:12:30.987Z</time></trkpt><trkpt lat="44.6979491" lon="9.4777939"><ele>1282.0</ele><time>2026-04-30T12:12:32.988Z</time></trkpt><trkpt lat="44.6978462" lon="9.4777834"><ele>1283.6</ele><time>2026-04-30T12:12:34.989Z</time></trkpt><trkpt lat="44.6977593" lon="9.4777618"><ele>1285.1999999999998</ele><time>2026-04-30T12:12:36.994Z</time></trkpt><trkpt lat="44.6976459" lon="9.4777373"><ele>1286.8</ele><time>2026-04-30T12:12:38.991Z</time></trkpt><trkpt lat="44.6975257" lon="9.4777432"><ele>1288.4</ele><time>2026-04-30T12:12:40.99Z</time></trkpt><trkpt lat="44.6974172" lon="9.4777042"><ele>1290.0</ele><time>2026-04-30T12:12:42.989Z</time></trkpt><trkpt lat="44.6973262" lon="9.4776291"><ele>1290.1666666666667</ele><time>2026-04-30T12:12:44.988Z</time></trkpt><trkpt lat="44.6972685" lon="9.4775837"><ele>1290.3333333333333</ele><time>2026-04-30T12:12:45.987Z</time></trkpt><trkpt lat="44.6972004" lon="9.4775348"><ele>1290.5</ele><time>2026-04-30T12:12:46.986Z</time></trkpt><trkpt lat="44.6971268" lon="9.4774836"><ele>1290.6666666666665</ele><time>2026-04-30T12:12:47.988Z</time></trkpt><trkpt lat="44.6970524" lon="9.4774261"><ele>1290.8333333333333</ele><time>2026-04-30T12:12:48.989Z</time></trkpt><trkpt lat="44.6969785" lon="9.4773704"><ele>1291.0</ele><time>2026-04-30T12:12:49.989Z</time></trkpt><trkpt lat="44.6969064" lon="9.4773181"><ele>1290.4285714285713</ele><time>2026-04-30T12:12:50.99Z</time></trkpt><trkpt lat="44.696838" lon="9.4772618"><ele>1289.857142857143</ele><time>2026-04-30T12:12:51.989Z</time></trkpt><trkpt lat="44.6967746" lon="9.477206"><ele>1289.2857142857142</ele><time>2026-04-30T12:12:52.989Z</time></trkpt><trkpt lat="44.6967129" lon="9.4771582"><ele>1288.7142857142858</ele><time>2026-04-30T12:12:53.988Z</time></trkpt><trkpt lat="44.6966534" lon="9.4771087"><ele>1288.142857142857</ele><time>2026-04-30T12:12:54.989Z</time></trkpt><trkpt lat="44.6965922" lon="9.477064"><ele>1287.5714285714284</ele><time>2026-04-30T12:12:55.994Z</time></trkpt><trkpt lat="44.6965246" lon="9.4770072"><ele>1287.0</ele><time>2026-04-30T12:12:56.988Z</time></trkpt><trkpt lat="44.6964613" lon="9.4769308"><ele>1289.1666666666667</ele><time>2026-04-30T12:12:57.99Z</time></trkpt><trkpt lat="44.6964121" lon="9.4768397"><ele>1291.3333333333333</ele><time>2026-04-30T12:12:58.988Z</time></trkpt><trkpt lat="44.6963738" lon="9.4767443"><ele>1293.5</ele><time>2026-04-30T12:12:59.987Z</time></trkpt><trkpt lat="44.6963441" lon="9.4766453"><ele>1295.6666666666665</ele><time>2026-04-30T12:13:00.987Z</time></trkpt><trkpt lat="44.6963153" lon="9.4765436"><ele>1297.8333333333333</ele><time>2026-04-30T12:13:01.988Z</time></trkpt><trkpt lat="44.6962793" lon="9.4764546"><ele>1300.0</ele><time>2026-04-30T12:13:02.988Z</time></trkpt><trkpt lat="44.6962261" lon="9.4763888"><ele>1300.0</ele><time>2026-04-30T12:13:03.995Z</time></trkpt><trkpt lat="44.696157" lon="9.476348"><ele>1300.0</ele><time>2026-04-30T12:13:04.989Z</time></trkpt><trkpt lat="44.6960921" lon="9.476312"><ele>1300.0</ele><time>2026-04-30T12:13:05.989Z</time></trkpt><trkpt lat="44.696034" lon="9.4762675"><ele>1300.0</ele><time>2026-04-30T12:13:06.99Z</time></trkpt><trkpt lat="44.6959715" lon="9.4762205"><ele>1300.0</ele><time>2026-04-30T12:13:07.989Z</time></trkpt><trkpt lat="44.6959068" lon="9.4761734"><ele>1300.0</ele><time>2026-04-30T12:13:08.989Z</time></trkpt><trkpt lat="44.6958444" lon="9.4761199"><ele>1300.0</ele><time>2026-04-30T12:13:09.994Z</time></trkpt><trkpt lat="44.6957889" lon="9.4760544"><ele>1300.0</ele><time>2026-04-30T12:13:10.989Z</time></trkpt><trkpt lat="44.6957391" lon="9.4759857"><ele>1300.0</ele><time>2026-04-30T12:13:11.989Z</time></trkpt><trkpt lat="44.6956592" lon="9.4758749"><ele>1300.0</ele><time>2026-04-30T12:13:13.987Z</time></trkpt><trkpt lat="44.6955819" lon="9.4757734"><ele>1300.0</ele><time>2026-04-30T12:13:15.986Z</time></trkpt><trkpt lat="44.6954865" lon="9.475669"><ele>1300.0</ele><time>2026-04-30T12:13:17.991Z</time></trkpt><trkpt lat="44.6954257" lon="9.4755995"><ele>1300.0</ele><time>2026-04-30T12:13:18.988Z</time></trkpt><trkpt lat="44.6953555" lon="9.4755241"><ele>1300.0</ele><time>2026-04-30T12:13:19.993Z</time></trkpt><trkpt lat="44.6952805" lon="9.4754525"><ele>1300.0</ele><time>2026-04-30T12:13:20.988Z</time></trkpt><trkpt lat="44.6951987" lon="9.4753891"><ele>1300.0</ele><time>2026-04-30T12:13:21.989Z</time></trkpt><trkpt lat="44.6951117" lon="9.4753383"><ele>1300.0</ele><time>2026-04-30T12:13:22.989Z</time></trkpt><trkpt lat="44.6950317" lon="9.4752883"><ele>1300.5</ele><time>2026-04-30T12:13:23.99Z</time></trkpt><trkpt lat="44.694955" lon="9.4752433"><ele>1301.0</ele><time>2026-04-30T12:13:24.992Z</time></trkpt><trkpt lat="44.6948833" lon="9.4752017"><ele>1301.5</ele><time>2026-04-30T12:13:25.991Z</time></trkpt><trkpt lat="44.6948083" lon="9.4751633"><ele>1302.0</ele><time>2026-04-30T12:13:26.988Z</time></trkpt><trkpt lat="44.6947367" lon="9.475125"><ele>1302.5</ele><time>2026-04-30T12:13:27.99Z</time></trkpt><trkpt lat="44.6946633" lon="9.4750733"><ele>1303.0</ele><time>2026-04-30T12:13:28.989Z</time></trkpt><trkpt lat="44.6945917" lon="9.475015"><ele>1303.0</ele><time>2026-04-30T12:13:29.994Z</time></trkpt><trkpt lat="44.694525" lon="9.47496"><ele>1303.0</ele><time>2026-04-30T12:13:30.989Z</time></trkpt><trkpt lat="44.69446" lon="9.47491"><ele>1303.0</ele><time>2026-04-30T12:13:31.987Z</time></trkpt><trkpt lat="44.6944" lon="9.4748667"><ele>1303.0</ele><time>2026-04-30T12:13:32.988Z</time></trkpt><trkpt lat="44.69433" lon="9.47482"><ele>1303.0</ele><time>2026-04-30T12:13:33.988Z</time></trkpt><trkpt lat="44.6942583" lon="9.4747833"><ele>1303.0</ele><time>2026-04-30T12:13:34.988Z</time></trkpt><trkpt lat="44.694185" lon="9.4747483"><ele>1303.0</ele><time>2026-04-30T12:13:35.989Z</time></trkpt><trkpt lat="44.6941167" lon="9.4747017"><ele>1303.0</ele><time>2026-04-30T12:13:36.989Z</time></trkpt><trkpt lat="44.6940467" lon="9.4746467"><ele>1303.0</ele><time>2026-04-30T12:13:37.988Z</time></trkpt><trkpt lat="44.693975" lon="9.4746017"><ele>1303.0</ele><time>2026-04-30T12:13:38.988Z</time></trkpt><trkpt lat="44.6939017" lon="9.4745817"><ele>1303.0</ele><time>2026-04-30T12:13:39.992Z</time></trkpt><trkpt lat="44.6938233" lon="9.4745817"><ele>1303.0</ele><time>2026-04-30T12:13:40.988Z</time></trkpt><trkpt lat="44.6937467" lon="9.474575"><ele>1304.0</ele><time>2026-04-30T12:13:41.986Z</time></trkpt><trkpt lat="44.6936733" lon="9.4745567"><ele>1305.0</ele><time>2026-04-30T12:13:42.987Z</time></trkpt><trkpt lat="44.6936033" lon="9.4745133"><ele>1306.0</ele><time>2026-04-30T12:13:43.988Z</time></trkpt><trkpt lat="44.6935383" lon="9.474465"><ele>1307.0</ele><time>2026-04-30T12:13:44.994Z</time></trkpt><trkpt lat="44.693475" lon="9.4744117"><ele>1308.0</ele><time>2026-04-30T12:13:45.986Z</time></trkpt><trkpt lat="44.6934133" lon="9.474365"><ele>1309.0</ele><time>2026-04-30T12:13:46.988Z</time></trkpt><trkpt lat="44.6933467" lon="9.4743083"><ele>1310.0</ele><time>2026-04-30T12:13:47.987Z</time></trkpt><trkpt lat="44.6932833" lon="9.4742367"><ele>1310.0</ele><time>2026-04-30T12:13:48.987Z</time></trkpt><trkpt lat="44.693225" lon="9.47414"><ele>1310.0</ele><time>2026-04-30T12:13:49.988Z</time></trkpt><trkpt lat="44.69316" lon="9.474035"><ele>1310.0</ele><time>2026-04-30T12:13:50.988Z</time></trkpt><trkpt lat="44.6930983" lon="9.4739467"><ele>1310.0</ele><time>2026-04-30T12:13:51.99Z</time></trkpt><trkpt lat="44.6930383" lon="9.47388"><ele>1310.0</ele><time>2026-04-30T12:13:52.988Z</time></trkpt><trkpt lat="44.692975" lon="9.4738217"><ele>1310.0</ele><time>2026-04-30T12:13:53.989Z</time></trkpt><trkpt lat="44.6929133" lon="9.4737867"><ele>1310.0</ele><time>2026-04-30T12:13:54.99Z</time></trkpt><trkpt lat="44.6928467" lon="9.47377"><ele>1310.0</ele><time>2026-04-30T12:13:55.987Z</time></trkpt><trkpt lat="44.6927783" lon="9.4737667"><ele>1310.0</ele><time>2026-04-30T12:13:56.988Z</time></trkpt><trkpt lat="44.6926967" lon="9.4737717"><ele>1310.0</ele><time>2026-04-30T12:13:57.994Z</time></trkpt><trkpt lat="44.692605" lon="9.473775"><ele>1310.0</ele><time>2026-04-30T12:13:58.987Z</time></trkpt><trkpt lat="44.6925067" lon="9.473775"><ele>1310.0</ele><time>2026-04-30T12:13:59.989Z</time></trkpt><trkpt lat="44.69241" lon="9.4737717"><ele>1307.3333333333335</ele><time>2026-04-30T12:14:00.988Z</time></trkpt><trkpt lat="44.6923183" lon="9.4737617"><ele>1304.6666666666667</ele><time>2026-04-30T12:14:01.987Z</time></trkpt><trkpt lat="44.6922283" lon="9.473745"><ele>1302.0</ele><time>2026-04-30T12:14:02.988Z</time></trkpt><trkpt lat="44.69214" lon="9.473715"><ele>1299.3333333333333</ele><time>2026-04-30T12:14:03.989Z</time></trkpt><trkpt lat="44.69207" lon="9.4736667"><ele>1296.6666666666665</ele><time>2026-04-30T12:14:04.995Z</time></trkpt><trkpt lat="44.692025" lon="9.4736017"><ele>1294.0</ele><time>2026-04-30T12:14:05.987Z</time></trkpt><trkpt lat="44.6920167" lon="9.4734567"><ele>1294.0</ele><time>2026-04-30T12:14:07.989Z</time></trkpt><trkpt lat="44.6920417" lon="9.47337"><ele>1294.0</ele><time>2026-04-30T12:14:08.987Z</time></trkpt><trkpt lat="44.6920933" lon="9.4732733"><ele>1294.0</ele><time>2026-04-30T12:14:09.995Z</time></trkpt><trkpt lat="44.6921467" lon="9.4731767"><ele>1294.0</ele><time>2026-04-30T12:14:10.988Z</time></trkpt><trkpt lat="44.6921967" lon="9.47308"><ele>1294.0</ele><time>2026-04-30T12:14:11.989Z</time></trkpt><trkpt lat="44.6922517" lon="9.4729867"><ele>1294.0</ele><time>2026-04-30T12:14:12.989Z</time></trkpt><trkpt lat="44.69231" lon="9.4728967"><ele>1293.8000000000002</ele><time>2026-04-30T12:14:13.989Z</time></trkpt><trkpt lat="44.6923633" lon="9.4728233"><ele>1293.6000000000001</ele><time>2026-04-30T12:14:14.987Z</time></trkpt><trkpt lat="44.692405" lon="9.472755"><ele>1293.4</ele><time>2026-04-30T12:14:15.987Z</time></trkpt><trkpt lat="44.6924317" lon="9.47261"><ele>1293.2</ele><time>2026-04-30T12:14:17.989Z</time></trkpt><trkpt lat="44.6923983" lon="9.4724733"><ele>1293.0</ele><time>2026-04-30T12:14:19.988Z</time></trkpt><trkpt lat="44.6923367" lon="9.4723217"><ele>1293.0</ele><time>2026-04-30T12:14:21.987Z</time></trkpt><trkpt lat="44.6922967" lon="9.47223"><ele>1293.0</ele><time>2026-04-30T12:14:22.988Z</time></trkpt><trkpt lat="44.6922483" lon="9.4721167"><ele>1293.0</ele><time>2026-04-30T12:14:23.988Z</time></trkpt><trkpt lat="44.692185" lon="9.471995"><ele>1293.0</ele><time>2026-04-30T12:14:24.989Z</time></trkpt><trkpt lat="44.6921233" lon="9.47187"><ele>1293.0</ele><time>2026-04-30T12:14:25.994Z</time></trkpt><trkpt lat="44.6920683" lon="9.4717483"><ele>1294.4</ele><time>2026-04-30T12:14:26.988Z</time></trkpt><trkpt lat="44.69201" lon="9.4716417"><ele>1295.8000000000002</ele><time>2026-04-30T12:14:27.987Z</time></trkpt><trkpt lat="44.6919417" lon="9.4715517"><ele>1297.2</ele><time>2026-04-30T12:14:28.987Z</time></trkpt><trkpt lat="44.6918767" lon="9.471465"><ele>1298.6</ele><time>2026-04-30T12:14:29.988Z</time></trkpt><trkpt lat="44.6918133" lon="9.4713783"><ele>1300.0</ele><time>2026-04-30T12:14:30.987Z</time></trkpt><trkpt lat="44.6917483" lon="9.4713067"><ele>1296.2</ele><time>2026-04-30T12:14:31.987Z</time></trkpt><trkpt lat="44.691685" lon="9.47127"><ele>1292.4</ele><time>2026-04-30T12:14:32.99Z</time></trkpt><trkpt lat="44.6916033" lon="9.4712067"><ele>1288.6</ele><time>2026-04-30T12:14:34.989Z</time></trkpt><trkpt lat="44.691605" lon="9.47108"><ele>1284.8</ele><time>2026-04-30T12:14:37.989Z</time></trkpt><trkpt lat="44.6916683" lon="9.4709933"><ele>1281.0</ele><time>2026-04-30T12:14:39.989Z</time></trkpt><trkpt lat="44.6917667" lon="9.4709167"><ele>1281.0</ele><time>2026-04-30T12:14:41.989Z</time></trkpt><trkpt lat="44.691825" lon="9.4708717"><ele>1281.0</ele><time>2026-04-30T12:14:42.994Z</time></trkpt><trkpt lat="44.6918883" lon="9.47082"><ele>1281.0</ele><time>2026-04-30T12:14:43.989Z</time></trkpt><trkpt lat="44.6919467" lon="9.4707667"><ele>1281.0</ele><time>2026-04-30T12:14:44.989Z</time></trkpt><trkpt lat="44.6920033" lon="9.470715"><ele>1281.0</ele><time>2026-04-30T12:14:45.988Z</time></trkpt><trkpt lat="44.6920617" lon="9.470665"><ele>1281.0</ele><time>2026-04-30T12:14:46.988Z</time></trkpt><trkpt lat="44.6921267" lon="9.470615"><ele>1281.0</ele><time>2026-04-30T12:14:47.988Z</time></trkpt><trkpt lat="44.6921917" lon="9.4705683"><ele>1281.1666666666667</ele><time>2026-04-30T12:14:48.989Z</time></trkpt><trkpt lat="44.6922533" lon="9.4705233"><ele>1281.3333333333333</ele><time>2026-04-30T12:14:49.987Z</time></trkpt><trkpt lat="44.6923117" lon="9.4704683"><ele>1281.5</ele><time>2026-04-30T12:14:50.988Z</time></trkpt><trkpt lat="44.6923683" lon="9.4704133"><ele>1281.6666666666665</ele><time>2026-04-30T12:14:51.989Z</time></trkpt><trkpt lat="44.6924183" lon="9.4703583"><ele>1281.8333333333333</ele><time>2026-04-30T12:14:52.989Z</time></trkpt><trkpt lat="44.692505" lon="9.4702467"><ele>1282.0</ele><time>2026-04-30T12:14:54.989Z</time></trkpt><trkpt lat="44.692555" lon="9.4701817"><ele>1282.0</ele><time>2026-04-30T12:14:55.998Z</time></trkpt><trkpt lat="44.692605" lon="9.4701067"><ele>1282.0</ele><time>2026-04-30T12:14:56.989Z</time></trkpt><trkpt lat="44.6926537" lon="9.4700341"><ele>1282.0</ele><time>2026-04-30T12:14:57.989Z</time></trkpt><trkpt lat="44.6926933" lon="9.4699614"><ele>1282.0</ele><time>2026-04-30T12:14:58.988Z</time></trkpt><trkpt lat="44.6927258" lon="9.4698709"><ele>1282.0</ele><time>2026-04-30T12:14:59.989Z</time></trkpt><trkpt lat="44.6927499" lon="9.4697677"><ele>1282.0</ele><time>2026-04-30T12:15:00.991Z</time></trkpt><trkpt lat="44.6927603" lon="9.4696684"><ele>1282.0</ele><time>2026-04-30T12:15:01.989Z</time></trkpt><trkpt lat="44.6927535" lon="9.4695735"><ele>1281.8333333333333</ele><time>2026-04-30T12:15:02.988Z</time></trkpt><trkpt lat="44.6927465" lon="9.469485"><ele>1281.6666666666665</ele><time>2026-04-30T12:15:03.988Z</time></trkpt><trkpt lat="44.6927584" lon="9.4693911"><ele>1281.5</ele><time>2026-04-30T12:15:04.988Z</time></trkpt><trkpt lat="44.6927768" lon="9.4692916"><ele>1281.3333333333333</ele><time>2026-04-30T12:15:05.988Z</time></trkpt><trkpt lat="44.6927944" lon="9.4692007"><ele>1281.1666666666667</ele><time>2026-04-30T12:15:06.992Z</time></trkpt><trkpt lat="44.6928244" lon="9.4691223"><ele>1281.0</ele><time>2026-04-30T12:15:07.988Z</time></trkpt><trkpt lat="44.6929148" lon="9.4690164"><ele>1281.0</ele><time>2026-04-30T12:15:09.988Z</time></trkpt><trkpt lat="44.693021" lon="9.4689775"><ele>1281.0</ele><time>2026-04-30T12:15:11.987Z</time></trkpt><trkpt lat="44.6931379" lon="9.4689467"><ele>1281.0</ele><time>2026-04-30T12:15:13.988Z</time></trkpt><trkpt lat="44.6932012" lon="9.4689278"><ele>1281.0</ele><time>2026-04-30T12:15:14.988Z</time></trkpt><trkpt lat="44.6932661" lon="9.4689136"><ele>1281.0</ele><time>2026-04-30T12:15:15.988Z</time></trkpt><trkpt lat="44.6933779" lon="9.468871"><ele>1280.3999999999999</ele><time>2026-04-30T12:15:17.988Z</time></trkpt><trkpt lat="44.6934108" lon="9.4687693"><ele>1279.8</ele><time>2026-04-30T12:15:19.99Z</time></trkpt><trkpt lat="44.6933678" lon="9.4686385"><ele>1279.1999999999998</ele><time>2026-04-30T12:15:21.988Z</time></trkpt><trkpt lat="44.6932852" lon="9.4684932"><ele>1278.6</ele><time>2026-04-30T12:15:23.993Z</time></trkpt><trkpt lat="44.6932131" lon="9.4684239"><ele>1278.0</ele><time>2026-04-30T12:15:24.991Z</time></trkpt><trkpt lat="44.693136" lon="9.468357"><ele>1278.0</ele><time>2026-04-30T12:15:25.988Z</time></trkpt><trkpt lat="44.6930693" lon="9.4682947"><ele>1278.0</ele><time>2026-04-30T12:15:26.99Z</time></trkpt><trkpt lat="44.6930072" lon="9.4682379"><ele>1278.0</ele><time>2026-04-30T12:15:27.99Z</time></trkpt><trkpt lat="44.6929528" lon="9.4681741"><ele>1278.0</ele><time>2026-04-30T12:15:28.99Z</time></trkpt><trkpt lat="44.6929081" lon="9.4680921"><ele>1278.0</ele><time>2026-04-30T12:15:29.995Z</time></trkpt><trkpt lat="44.6928736" lon="9.4679948"><ele>1278.0</ele><time>2026-04-30T12:15:30.99Z</time></trkpt><trkpt lat="44.6928446" lon="9.4678938"><ele>1279.5714285714287</ele><time>2026-04-30T12:15:31.99Z</time></trkpt><trkpt lat="44.6928124" lon="9.4677907"><ele>1281.142857142857</ele><time>2026-04-30T12:15:32.988Z</time></trkpt><trkpt lat="44.6927752" lon="9.4676957"><ele>1282.7142857142858</ele><time>2026-04-30T12:15:33.989Z</time></trkpt><trkpt lat="44.6927259" lon="9.4676195"><ele>1284.2857142857142</ele><time>2026-04-30T12:15:34.987Z</time></trkpt><trkpt lat="44.6926775" lon="9.4675593"><ele>1285.857142857143</ele><time>2026-04-30T12:15:35.998Z</time></trkpt><trkpt lat="44.6926332" lon="9.4674963"><ele>1287.4285714285716</ele><time>2026-04-30T12:15:36.989Z</time></trkpt><trkpt lat="44.6925967" lon="9.4674155"><ele>1289.0</ele><time>2026-04-30T12:15:37.989Z</time></trkpt><trkpt lat="44.6925799" lon="9.467327"><ele>1288.0</ele><time>2026-04-30T12:15:38.987Z</time></trkpt><trkpt lat="44.6925836" lon="9.4672375"><ele>1287.0</ele><time>2026-04-30T12:15:39.987Z</time></trkpt><trkpt lat="44.6926081" lon="9.4671464"><ele>1286.0</ele><time>2026-04-30T12:15:40.992Z</time></trkpt><trkpt lat="44.6926498" lon="9.4670607"><ele>1285.0</ele><time>2026-04-30T12:15:41.988Z</time></trkpt><trkpt lat="44.692698" lon="9.4669802"><ele>1284.0</ele><time>2026-04-30T12:15:42.991Z</time></trkpt><trkpt lat="44.6927478" lon="9.4669073"><ele>1283.0</ele><time>2026-04-30T12:15:43.99Z</time></trkpt><trkpt lat="44.6927971" lon="9.4668398"><ele>1282.0</ele><time>2026-04-30T12:15:44.988Z</time></trkpt><trkpt lat="44.6928516" lon="9.4667642"><ele>1282.0</ele><time>2026-04-30T12:15:45.988Z</time></trkpt><trkpt lat="44.6929108" lon="9.4666841"><ele>1282.0</ele><time>2026-04-30T12:15:46.989Z</time></trkpt><trkpt lat="44.6929698" lon="9.4666068"><ele>1282.0</ele><time>2026-04-30T12:15:47.99Z</time></trkpt><trkpt lat="44.6930288" lon="9.4665298"><ele>1282.0</ele><time>2026-04-30T12:15:48.99Z</time></trkpt><trkpt lat="44.6930811" lon="9.4664501"><ele>1282.0</ele><time>2026-04-30T12:15:49.994Z</time></trkpt><trkpt lat="44.6931242" lon="9.4663573"><ele>1282.0</ele><time>2026-04-30T12:15:50.988Z</time></trkpt><trkpt lat="44.6931618" lon="9.4662514"><ele>1280.3999999999999</ele><time>2026-04-30T12:15:51.988Z</time></trkpt><trkpt lat="44.6931974" lon="9.4661426"><ele>1278.8</ele><time>2026-04-30T12:15:52.988Z</time></trkpt><trkpt lat="44.6932287" lon="9.4660468"><ele>1277.2</ele><time>2026-04-30T12:15:53.989Z</time></trkpt><trkpt lat="44.6932771" lon="9.4659175"><ele>1275.6</ele><time>2026-04-30T12:15:55.989Z</time></trkpt><trkpt lat="44.6933003" lon="9.4657887"><ele>1274.0</ele><time>2026-04-30T12:15:57.993Z</time></trkpt><trkpt lat="44.6933044" lon="9.4656025"><ele>1274.0</ele><time>2026-04-30T12:15:59.989Z</time></trkpt><trkpt lat="44.6933213" lon="9.4655053"><ele>1274.0</ele><time>2026-04-30T12:16:00.988Z</time></trkpt><trkpt lat="44.6933415" lon="9.4654065"><ele>1274.0</ele><time>2026-04-30T12:16:01.988Z</time></trkpt><trkpt lat="44.6933576" lon="9.465312"><ele>1274.0</ele><time>2026-04-30T12:16:02.989Z</time></trkpt><trkpt lat="44.6933662" lon="9.4651504"><ele>1274.0</ele><time>2026-04-30T12:16:04.988Z</time></trkpt><trkpt lat="44.6933907" lon="9.4650117"><ele>1274.0</ele><time>2026-04-30T12:16:06.995Z</time></trkpt><trkpt lat="44.6934082" lon="9.4648548"><ele>1273.6000000000001</ele><time>2026-04-30T12:16:08.988Z</time></trkpt><trkpt lat="44.6934492" lon="9.4647069"><ele>1273.2</ele><time>2026-04-30T12:16:10.987Z</time></trkpt><trkpt lat="44.6934292" lon="9.4645562"><ele>1272.8000000000002</ele><time>2026-04-30T12:16:12.988Z</time></trkpt><trkpt lat="44.6933497" lon="9.4644476"><ele>1272.4</ele><time>2026-04-30T12:16:14.992Z</time></trkpt><trkpt lat="44.6932926" lon="9.464399"><ele>1272.0</ele><time>2026-04-30T12:16:15.988Z</time></trkpt><trkpt lat="44.6932286" lon="9.4643535"><ele>1272.0</ele><time>2026-04-30T12:16:16.987Z</time></trkpt><trkpt lat="44.6931707" lon="9.4643126"><ele>1272.0</ele><time>2026-04-30T12:16:17.991Z</time></trkpt><trkpt lat="44.6930583" lon="9.4642165"><ele>1272.0</ele><time>2026-04-30T12:16:19.989Z</time></trkpt><trkpt lat="44.6929943" lon="9.4641578"><ele>1272.0</ele><time>2026-04-30T12:16:20.994Z</time></trkpt><trkpt lat="44.6929307" lon="9.4641085"><ele>1272.0</ele><time>2026-04-30T12:16:21.988Z</time></trkpt><trkpt lat="44.6928668" lon="9.4640735"><ele>1272.0</ele><time>2026-04-30T12:16:22.988Z</time></trkpt><trkpt lat="44.6927637" lon="9.4640241"><ele>1271.8333333333333</ele><time>2026-04-30T12:16:24.991Z</time></trkpt><trkpt lat="44.6927271" lon="9.4639384"><ele>1271.6666666666667</ele><time>2026-04-30T12:16:26.989Z</time></trkpt><trkpt lat="44.6927336" lon="9.4638042"><ele>1271.5</ele><time>2026-04-30T12:16:28.989Z</time></trkpt><trkpt lat="44.6927385" lon="9.4636328"><ele>1271.3333333333335</ele><time>2026-04-30T12:16:30.991Z</time></trkpt><trkpt lat="44.6927346" lon="9.4635269"><ele>1271.1666666666667</ele><time>2026-04-30T12:16:31.99Z</time></trkpt><trkpt lat="44.6927298" lon="9.4634174"><ele>1271.0</ele><time>2026-04-30T12:16:32.989Z</time></trkpt><trkpt lat="44.6927156" lon="9.4633062"><ele>1271.0</ele><time>2026-04-30T12:16:33.989Z</time></trkpt><trkpt lat="44.6926917" lon="9.4631854"><ele>1271.0</ele><time>2026-04-30T12:16:34.989Z</time></trkpt><trkpt lat="44.6926642" lon="9.4630539"><ele>1271.0</ele><time>2026-04-30T12:16:35.989Z</time></trkpt><trkpt lat="44.6926382" lon="9.4629234"><ele>1271.0</ele><time>2026-04-30T12:16:36.989Z</time></trkpt><trkpt lat="44.6926146" lon="9.4628012"><ele>1271.0</ele><time>2026-04-30T12:16:37.988Z</time></trkpt><trkpt lat="44.6925869" lon="9.4626858"><ele>1272.0000000000002</ele><time>2026-04-30T12:16:38.989Z</time></trkpt><trkpt lat="44.6925543" lon="9.4625755"><ele>1273.0</ele><time>2026-04-30T12:16:39.989Z</time></trkpt><trkpt lat="44.6925264" lon="9.4624684"><ele>1274.0</ele><time>2026-04-30T12:16:40.988Z</time></trkpt><trkpt lat="44.6925083" lon="9.4623683"><ele>1275.0</ele><time>2026-04-30T12:16:41.992Z</time></trkpt><trkpt lat="44.6925052" lon="9.4622732"><ele>1276.0</ele><time>2026-04-30T12:16:42.988Z</time></trkpt><trkpt lat="44.6925198" lon="9.4621807"><ele>1277.0000000000002</ele><time>2026-04-30T12:16:43.99Z</time></trkpt><trkpt lat="44.6925479" lon="9.4620886"><ele>1278.0</ele><time>2026-04-30T12:16:44.988Z</time></trkpt><trkpt lat="44.6925865" lon="9.4619946"><ele>1278.0</ele><time>2026-04-30T12:16:45.988Z</time></trkpt><trkpt lat="44.6926251" lon="9.4618967"><ele>1278.0</ele><time>2026-04-30T12:16:46.991Z</time></trkpt><trkpt lat="44.6926557" lon="9.4617921"><ele>1278.0</ele><time>2026-04-30T12:16:47.988Z</time></trkpt><trkpt lat="44.6926783" lon="9.4616824"><ele>1278.0</ele><time>2026-04-30T12:16:48.988Z</time></trkpt><trkpt lat="44.6926982" lon="9.4615809"><ele>1278.0</ele><time>2026-04-30T12:16:49.988Z</time></trkpt><trkpt lat="44.6927178" lon="9.4614914"><ele>1278.0</ele><time>2026-04-30T12:16:50.989Z</time></trkpt><trkpt lat="44.69275" lon="9.4613327"><ele>1283.0</ele><time>2026-04-30T12:16:52.99Z</time></trkpt><trkpt lat="44.692777" lon="9.461187"><ele>1288.0</ele><time>2026-04-30T12:16:54.989Z</time></trkpt><trkpt lat="44.6928223" lon="9.4610084"><ele>1293.0</ele><time>2026-04-30T12:16:56.989Z</time></trkpt><trkpt lat="44.6928457" lon="9.4609038"><ele>1298.0</ele><time>2026-04-30T12:16:57.991Z</time></trkpt><trkpt lat="44.6928619" lon="9.4607953"><ele>1303.0</ele><time>2026-04-30T12:16:58.989Z</time></trkpt><trkpt lat="44.692869" lon="9.4606911"><ele>1303.0</ele><time>2026-04-30T12:16:59.989Z</time></trkpt><trkpt lat="44.6928607" lon="9.4605858"><ele>1303.0</ele><time>2026-04-30T12:17:00.99Z</time></trkpt><trkpt lat="44.6928493" lon="9.4604752"><ele>1303.0</ele><time>2026-04-30T12:17:01.989Z</time></trkpt><trkpt lat="44.6928359" lon="9.4603756"><ele>1303.0</ele><time>2026-04-30T12:17:02.993Z</time></trkpt><trkpt lat="44.6928214" lon="9.4602795"><ele>1303.0</ele><time>2026-04-30T12:17:03.987Z</time></trkpt><trkpt lat="44.6928148" lon="9.4601854"><ele>1303.0</ele><time>2026-04-30T12:17:04.987Z</time></trkpt><trkpt lat="44.6928155" lon="9.4600888"><ele>1303.0</ele><time>2026-04-30T12:17:05.989Z</time></trkpt><trkpt lat="44.692818" lon="9.4599913"><ele>1302.0</ele><time>2026-04-30T12:17:06.988Z</time></trkpt><trkpt lat="44.6928143" lon="9.4598466"><ele>1301.0</ele><time>2026-04-30T12:17:08.989Z</time></trkpt><trkpt lat="44.6927344" lon="9.4597764"><ele>1300.0</ele><time>2026-04-30T12:17:11.995Z</time></trkpt><trkpt lat="44.6926333" lon="9.4597633"><ele>1299.0</ele><time>2026-04-30T12:17:13.988Z</time></trkpt><trkpt lat="44.69258" lon="9.4596583"><ele>1298.0</ele><time>2026-04-30T12:17:15.988Z</time></trkpt><trkpt lat="44.692525" lon="9.4595367"><ele>1295.75</ele><time>2026-04-30T12:17:17.988Z</time></trkpt><trkpt lat="44.6924683" lon="9.4594117"><ele>1293.5</ele><time>2026-04-30T12:17:19.988Z</time></trkpt><trkpt lat="44.6924233" lon="9.4592583"><ele>1291.25</ele><time>2026-04-30T12:17:21.991Z</time></trkpt><trkpt lat="44.6924267" lon="9.4590883"><ele>1289.0</ele><time>2026-04-30T12:17:23.989Z</time></trkpt><trkpt lat="44.6924783" lon="9.4589317"><ele>1289.0</ele><time>2026-04-30T12:17:25.988Z</time></trkpt><trkpt lat="44.6925617" lon="9.4588467"><ele>1289.0</ele><time>2026-04-30T12:17:27.989Z</time></trkpt><trkpt lat="44.6926783" lon="9.4588333"><ele>1289.0</ele><time>2026-04-30T12:17:29.989Z</time></trkpt><trkpt lat="44.692745" lon="9.4588217"><ele>1289.0</ele><time>2026-04-30T12:17:30.988Z</time></trkpt><trkpt lat="44.692825" lon="9.4588167"><ele>1289.0</ele><time>2026-04-30T12:17:31.988Z</time></trkpt><trkpt lat="44.69291" lon="9.4588167"><ele>1291.2</ele><time>2026-04-30T12:17:32.989Z</time></trkpt><trkpt lat="44.6930067" lon="9.45882"><ele>1293.4</ele><time>2026-04-30T12:17:33.989Z</time></trkpt><trkpt lat="44.6931067" lon="9.458825"><ele>1295.6</ele><time>2026-04-30T12:17:34.988Z</time></trkpt><trkpt lat="44.693205" lon="9.45883"><ele>1297.8</ele><time>2026-04-30T12:17:35.99Z</time></trkpt><trkpt lat="44.6932983" lon="9.4588267"><ele>1300.0</ele><time>2026-04-30T12:17:36.988Z</time></trkpt><trkpt lat="44.69339" lon="9.4588217"><ele>1300.0</ele><time>2026-04-30T12:17:37.992Z</time></trkpt><trkpt lat="44.6934783" lon="9.45882"><ele>1300.0</ele><time>2026-04-30T12:17:38.99Z</time></trkpt><trkpt lat="44.6935667" lon="9.4588217"><ele>1300.0</ele><time>2026-04-30T12:17:39.988Z</time></trkpt><trkpt lat="44.6936533" lon="9.4588233"><ele>1300.0</ele><time>2026-04-30T12:17:40.988Z</time></trkpt><trkpt lat="44.69374" lon="9.4588217"><ele>1300.0</ele><time>2026-04-30T12:17:41.989Z</time></trkpt><trkpt lat="44.6938183" lon="9.4588217"><ele>1300.0</ele><time>2026-04-30T12:17:42.988Z</time></trkpt><trkpt lat="44.6938917" lon="9.4588167"><ele>1303.1666666666665</ele><time>2026-04-30T12:17:43.989Z</time></trkpt><trkpt lat="44.69396" lon="9.4587983"><ele>1306.3333333333333</ele><time>2026-04-30T12:17:44.994Z</time></trkpt><trkpt lat="44.6940233" lon="9.4587683"><ele>1309.5</ele><time>2026-04-30T12:17:45.989Z</time></trkpt><trkpt lat="44.694085" lon="9.4587317"><ele>1312.6666666666667</ele><time>2026-04-30T12:17:46.988Z</time></trkpt><trkpt lat="44.69419" lon="9.4586633"><ele>1315.8333333333335</ele><time>2026-04-30T12:17:48.989Z</time></trkpt><trkpt lat="44.6942883" lon="9.4586167"><ele>1319.0</ele><time>2026-04-30T12:17:50.989Z</time></trkpt><trkpt lat="44.6943767" lon="9.4585933"><ele>1323.8000000000002</ele><time>2026-04-30T12:17:52.989Z</time></trkpt><trkpt lat="44.6944583" lon="9.4585533"><ele>1328.6000000000001</ele><time>2026-04-30T12:17:54.99Z</time></trkpt><trkpt lat="44.6945317" lon="9.4584917"><ele>1333.4</ele><time>2026-04-30T12:17:56.988Z</time></trkpt><trkpt lat="44.6946217" lon="9.4583967"><ele>1338.2</ele><time>2026-04-30T12:17:58.988Z</time></trkpt><trkpt lat="44.6947082" lon="9.4583118"><ele>1343.0</ele><time>2026-04-30T12:18:00.988Z</time></trkpt><trkpt lat="44.6948067" lon="9.458274"><ele>1343.0</ele><time>2026-04-30T12:18:02.988Z</time></trkpt><trkpt lat="44.6948931" lon="9.4582751"><ele>1343.0</ele><time>2026-04-30T12:18:04.995Z</time></trkpt><trkpt lat="44.694973" lon="9.4582639"><ele>1343.0</ele><time>2026-04-30T12:18:06.987Z</time></trkpt><trkpt lat="44.6950352" lon="9.4581798"><ele>1343.0</ele><time>2026-04-30T12:18:08.989Z</time></trkpt><trkpt lat="44.6950899" lon="9.4580487"><ele>1343.0</ele><time>2026-04-30T12:18:10.991Z</time></trkpt><trkpt lat="44.695141" lon="9.457988"><ele>1343.0</ele><time>2026-04-30T12:18:11.988Z</time></trkpt><trkpt lat="44.695202" lon="9.4579326"><ele>1347.4</ele><time>2026-04-30T12:18:12.99Z</time></trkpt><trkpt lat="44.6952637" lon="9.4578803"><ele>1351.8000000000002</ele><time>2026-04-30T12:18:13.989Z</time></trkpt><trkpt lat="44.6953163" lon="9.4578246"><ele>1356.2</ele><time>2026-04-30T12:18:14.989Z</time></trkpt><trkpt lat="44.6954115" lon="9.457724"><ele>1360.6</ele><time>2026-04-30T12:18:16.988Z</time></trkpt><trkpt lat="44.6955075" lon="9.4576392"><ele>1365.0</ele><time>2026-04-30T12:18:18.988Z</time></trkpt><trkpt lat="44.6956053" lon="9.4575473"><ele>1365.0</ele><time>2026-04-30T12:18:20.989Z</time></trkpt><trkpt lat="44.6956637" lon="9.4574239"><ele>1365.0</ele><time>2026-04-30T12:18:22.989Z</time></trkpt><trkpt lat="44.6956831" lon="9.4572701"><ele>1365.0</ele><time>2026-04-30T12:18:24.988Z</time></trkpt><trkpt lat="44.6956827" lon="9.4571221"><ele>1365.0</ele><time>2026-04-30T12:18:26.989Z</time></trkpt><trkpt lat="44.6956465" lon="9.4570104"><ele>1365.0</ele><time>2026-04-30T12:18:28.989Z</time></trkpt><trkpt lat="44.6956486" lon="9.4569122"><ele>1366.0</ele><time>2026-04-30T12:18:30.993Z</time></trkpt><trkpt lat="44.6956625" lon="9.4568064"><ele>1367.0</ele><time>2026-04-30T12:18:32.99Z</time></trkpt><trkpt lat="44.6956433" lon="9.4566419"><ele>1368.0</ele><time>2026-04-30T12:18:34.989Z</time></trkpt><trkpt lat="44.6956265" lon="9.456529"><ele>1369.0</ele><time>2026-04-30T12:18:35.994Z</time></trkpt><trkpt lat="44.6956224" lon="9.4564106"><ele>1370.0</ele><time>2026-04-30T12:18:36.99Z</time></trkpt><trkpt lat="44.6956338" lon="9.4562879"><ele>1371.0</ele><time>2026-04-30T12:18:37.989Z</time></trkpt><trkpt lat="44.6956503" lon="9.4561679"><ele>1371.8333333333333</ele><time>2026-04-30T12:18:38.99Z</time></trkpt><trkpt lat="44.6956699" lon="9.4560588"><ele>1372.6666666666667</ele><time>2026-04-30T12:18:39.99Z</time></trkpt><trkpt lat="44.6957046" lon="9.4559565"><ele>1373.5</ele><time>2026-04-30T12:18:40.991Z</time></trkpt><trkpt lat="44.6957528" lon="9.4558674"><ele>1374.3333333333335</ele><time>2026-04-30T12:18:41.992Z</time></trkpt><trkpt lat="44.6958059" lon="9.4557894"><ele>1375.1666666666667</ele><time>2026-04-30T12:18:42.991Z</time></trkpt><trkpt lat="44.6958558" lon="9.4557214"><ele>1376.0</ele><time>2026-04-30T12:18:43.99Z</time></trkpt><trkpt lat="44.6959043" lon="9.4556645"><ele>1376.0</ele><time>2026-04-30T12:18:44.99Z</time></trkpt><trkpt lat="44.6959894" lon="9.4555842"><ele>1376.0</ele><time>2026-04-30T12:18:46.991Z</time></trkpt><trkpt lat="44.6960438" lon="9.4555166"><ele>1376.0</ele><time>2026-04-30T12:18:48.987Z</time></trkpt><trkpt lat="44.6961137" lon="9.4554424"><ele>1376.0</ele><time>2026-04-30T12:18:51.99Z</time></trkpt><trkpt lat="44.6961721" lon="9.4554057"><ele>1376.0</ele><time>2026-04-30T12:18:54.927Z</time></trkpt><trkpt lat="44.696238" lon="9.4552492"><ele>1376.3333333333335</ele><time>2026-04-30T12:18:57.046Z</time></trkpt><trkpt lat="44.696306" lon="9.4551821"><ele>1376.6666666666667</ele><time>2026-04-30T12:18:58.989Z</time></trkpt><trkpt lat="44.6963926" lon="9.4551384"><ele>1377.0</ele><time>2026-04-30T12:19:00.936Z</time></trkpt><trkpt lat="44.6964521" lon="9.4550961"><ele>1377.3333333333333</ele><time>2026-04-30T12:19:01.988Z</time></trkpt><trkpt lat="44.6965341" lon="9.454999"><ele>1377.6666666666665</ele><time>2026-04-30T12:19:04.068Z</time></trkpt><trkpt lat="44.6965776" lon="9.4549188"><ele>1378.0</ele><time>2026-04-30T12:19:06.045Z</time></trkpt><trkpt lat="44.6966109" lon="9.4548365"><ele>1378.0</ele><time>2026-04-30T12:19:09.06Z</time></trkpt><trkpt lat="44.6965828" lon="9.4547422"><ele>1378.0</ele><time>2026-04-30T12:19:59.989Z</time></trkpt><trkpt lat="44.6965349" lon="9.4546485"><ele>1378.0</ele><time>2026-04-30T12:20:01.988Z</time></trkpt><trkpt lat="44.69644" lon="9.4545654"><ele>1378.0</ele><time>2026-04-30T12:20:03.987Z</time></trkpt><trkpt lat="44.6963385" lon="9.4544745"><ele>1378.0</ele><time>2026-04-30T12:20:05.989Z</time></trkpt><trkpt lat="44.6962883" lon="9.4544165"><ele>1378.6000000000001</ele><time>2026-04-30T12:20:06.988Z</time></trkpt><trkpt lat="44.6962042" lon="9.454304"><ele>1379.2</ele><time>2026-04-30T12:20:08.988Z</time></trkpt><trkpt lat="44.6961216" lon="9.4541841"><ele>1379.8</ele><time>2026-04-30T12:20:10.987Z</time></trkpt><trkpt lat="44.6960755" lon="9.4541126"><ele>1380.4</ele><time>2026-04-30T12:20:11.988Z</time></trkpt><trkpt lat="44.6960213" lon="9.454042"><ele>1381.0</ele><time>2026-04-30T12:20:12.988Z</time></trkpt><trkpt lat="44.6959657" lon="9.4539651"><ele>1381.0</ele><time>2026-04-30T12:20:13.989Z</time></trkpt><trkpt lat="44.6959184" lon="9.4538844"><ele>1381.0</ele><time>2026-04-30T12:20:14.992Z</time></trkpt><trkpt lat="44.6958682" lon="9.4537958"><ele>1381.0</ele><time>2026-04-30T12:20:15.987Z</time></trkpt><trkpt lat="44.6958127" lon="9.4537136"><ele>1381.0</ele><time>2026-04-30T12:20:16.987Z</time></trkpt><trkpt lat="44.6957586" lon="9.4536426"><ele>1381.0</ele><time>2026-04-30T12:20:17.986Z</time></trkpt><trkpt lat="44.6957092" lon="9.4535744"><ele>1381.0</ele><time>2026-04-30T12:20:18.986Z</time></trkpt><trkpt lat="44.6956636" lon="9.4535025"><ele>1381.0</ele><time>2026-04-30T12:20:19.988Z</time></trkpt><trkpt lat="44.6956162" lon="9.4534228"><ele>1380.8333333333333</ele><time>2026-04-30T12:20:20.988Z</time></trkpt><trkpt lat="44.6955693" lon="9.4533368"><ele>1380.6666666666665</ele><time>2026-04-30T12:20:21.986Z</time></trkpt><trkpt lat="44.6955163" lon="9.4532566"><ele>1380.5</ele><time>2026-04-30T12:20:22.987Z</time></trkpt><trkpt lat="44.6954669" lon="9.4531921"><ele>1380.3333333333333</ele><time>2026-04-30T12:20:23.988Z</time></trkpt><trkpt lat="44.6954131" lon="9.4530863"><ele>1380.1666666666667</ele><time>2026-04-30T12:20:25.992Z</time></trkpt><trkpt lat="44.6954324" lon="9.4529701"><ele>1380.0</ele><time>2026-04-30T12:20:27.989Z</time></trkpt><trkpt lat="44.6954519" lon="9.4528801"><ele>1379.3333333333333</ele><time>2026-04-30T12:20:28.989Z</time></trkpt><trkpt lat="44.6954678" lon="9.4527786"><ele>1378.6666666666667</ele><time>2026-04-30T12:20:29.987Z</time></trkpt><trkpt lat="44.6954817" lon="9.4526738"><ele>1378.0</ele><time>2026-04-30T12:20:30.989Z</time></trkpt><trkpt lat="44.6954943" lon="9.4525712"><ele>1377.3333333333335</ele><time>2026-04-30T12:20:31.987Z</time></trkpt><trkpt lat="44.6955105" lon="9.4524829"><ele>1376.6666666666667</ele><time>2026-04-30T12:20:32.988Z</time></trkpt><trkpt lat="44.6955503" lon="9.4523512"><ele>1376.0</ele><time>2026-04-30T12:20:34.996Z</time></trkpt><trkpt lat="44.6956081" lon="9.4522174"><ele>1376.0</ele><time>2026-04-30T12:20:36.988Z</time></trkpt><trkpt lat="44.6956298" lon="9.4521316"><ele>1376.0</ele><time>2026-04-30T12:20:37.988Z</time></trkpt><trkpt lat="44.6956641" lon="9.4519677"><ele>1376.0</ele><time>2026-04-30T12:20:39.987Z</time></trkpt><trkpt lat="44.6956802" lon="9.4518758"><ele>1376.0</ele><time>2026-04-30T12:20:40.993Z</time></trkpt><trkpt lat="44.6957024" lon="9.451779"><ele>1376.0</ele><time>2026-04-30T12:20:41.988Z</time></trkpt><trkpt lat="44.6957282" lon="9.4516785"><ele>1376.0</ele><time>2026-04-30T12:20:42.988Z</time></trkpt><trkpt lat="44.6957465" lon="9.4515678"><ele>1374.8333333333335</ele><time>2026-04-30T12:20:43.988Z</time></trkpt><trkpt lat="44.6957576" lon="9.4514575"><ele>1373.6666666666667</ele><time>2026-04-30T12:20:44.99Z</time></trkpt><trkpt lat="44.6957735" lon="9.4513468"><ele>1372.5</ele><time>2026-04-30T12:20:45.987Z</time></trkpt><trkpt lat="44.6957945" lon="9.4512396"><ele>1371.3333333333333</ele><time>2026-04-30T12:20:46.987Z</time></trkpt><trkpt lat="44.6958165" lon="9.4511367"><ele>1370.1666666666665</ele><time>2026-04-30T12:20:47.987Z</time></trkpt><trkpt lat="44.6958389" lon="9.4510435"><ele>1369.0</ele><time>2026-04-30T12:20:48.988Z</time></trkpt><trkpt lat="44.6958513" lon="9.4508829"><ele>1367.4</ele><time>2026-04-30T12:20:50.987Z</time></trkpt><trkpt lat="44.6958668" lon="9.4507349"><ele>1365.8000000000002</ele><time>2026-04-30T12:20:52.987Z</time></trkpt><trkpt lat="44.6958816" lon="9.4506309"><ele>1364.1999999999998</ele><time>2026-04-30T12:20:54.988Z</time></trkpt><trkpt lat="44.6959039" lon="9.4505426"><ele>1362.6</ele><time>2026-04-30T12:20:56.989Z</time></trkpt><trkpt lat="44.6959459" lon="9.4504134"><ele>1361.0</ele><time>2026-04-30T12:20:58.99Z</time></trkpt><trkpt lat="44.6960051" lon="9.4502622"><ele>1358.6666666666667</ele><time>2026-04-30T12:21:00.99Z</time></trkpt><trkpt lat="44.6960414" lon="9.4501853"><ele>1356.3333333333335</ele><time>2026-04-30T12:21:01.989Z</time></trkpt><trkpt lat="44.6960857" lon="9.4501068"><ele>1354.0</ele><time>2026-04-30T12:21:02.989Z</time></trkpt><trkpt lat="44.6961343" lon="9.4500213"><ele>1351.6666666666667</ele><time>2026-04-30T12:21:03.989Z</time></trkpt><trkpt lat="44.696178" lon="9.4499312"><ele>1349.3333333333333</ele><time>2026-04-30T12:21:04.988Z</time></trkpt><trkpt lat="44.6962178" lon="9.4498335"><ele>1347.0</ele><time>2026-04-30T12:21:05.988Z</time></trkpt><trkpt lat="44.696252" lon="9.449726"><ele>1344.5</ele><time>2026-04-30T12:21:06.989Z</time></trkpt><trkpt lat="44.6962869" lon="9.4496107"><ele>1342.0</ele><time>2026-04-30T12:21:07.995Z</time></trkpt><trkpt lat="44.6963232" lon="9.4494981"><ele>1339.5</ele><time>2026-04-30T12:21:08.988Z</time></trkpt><trkpt lat="44.6963571" lon="9.4493983"><ele>1337.0</ele><time>2026-04-30T12:21:09.988Z</time></trkpt><trkpt lat="44.6963874" lon="9.4493036"><ele>1334.5</ele><time>2026-04-30T12:21:10.99Z</time></trkpt><trkpt lat="44.6964182" lon="9.449205"><ele>1332.0</ele><time>2026-04-30T12:21:11.988Z</time></trkpt><trkpt lat="44.6964524" lon="9.4490909"><ele>1332.0</ele><time>2026-04-30T12:21:12.989Z</time></trkpt><trkpt lat="44.696485" lon="9.4489674"><ele>1332.0</ele><time>2026-04-30T12:21:13.991Z</time></trkpt><trkpt lat="44.69652" lon="9.448835"><ele>1332.0</ele><time>2026-04-30T12:21:14.988Z</time></trkpt><trkpt lat="44.6965567" lon="9.4487133"><ele>1332.0</ele><time>2026-04-30T12:21:15.987Z</time></trkpt><trkpt lat="44.6966017" lon="9.4485983"><ele>1332.0</ele><time>2026-04-30T12:21:16.992Z</time></trkpt><trkpt lat="44.6966583" lon="9.4484933"><ele>1331.1666666666667</ele><time>2026-04-30T12:21:17.988Z</time></trkpt><trkpt lat="44.6967167" lon="9.4483933"><ele>1330.3333333333333</ele><time>2026-04-30T12:21:18.988Z</time></trkpt><trkpt lat="44.69677" lon="9.4483"><ele>1329.5</ele><time>2026-04-30T12:21:19.987Z</time></trkpt><trkpt lat="44.6968167" lon="9.4482033"><ele>1328.6666666666665</ele><time>2026-04-30T12:21:20.988Z</time></trkpt><trkpt lat="44.6968517" lon="9.4480983"><ele>1327.8333333333333</ele><time>2026-04-30T12:21:21.988Z</time></trkpt><trkpt lat="44.6968817" lon="9.4479883"><ele>1327.0</ele><time>2026-04-30T12:21:22.988Z</time></trkpt><trkpt lat="44.6969033" lon="9.447875"><ele>1325.6666666666665</ele><time>2026-04-30T12:21:23.992Z</time></trkpt><trkpt lat="44.6969217" lon="9.4477583"><ele>1324.3333333333333</ele><time>2026-04-30T12:21:24.987Z</time></trkpt><trkpt lat="44.69693" lon="9.44764"><ele>1323.0</ele><time>2026-04-30T12:21:25.989Z</time></trkpt><trkpt lat="44.69693" lon="9.4475267"><ele>1321.6666666666667</ele><time>2026-04-30T12:21:26.988Z</time></trkpt><trkpt lat="44.696925" lon="9.4474133"><ele>1320.3333333333335</ele><time>2026-04-30T12:21:27.99Z</time></trkpt><trkpt lat="44.696915" lon="9.4473"><ele>1319.0</ele><time>2026-04-30T12:21:28.986Z</time></trkpt><trkpt lat="44.6969033" lon="9.4471917"><ele>1317.5</ele><time>2026-04-30T12:21:29.989Z</time></trkpt><trkpt lat="44.6969" lon="9.4470933"><ele>1316.0</ele><time>2026-04-30T12:21:30.988Z</time></trkpt><trkpt lat="44.696905" lon="9.4469917"><ele>1314.5</ele><time>2026-04-30T12:21:31.988Z</time></trkpt><trkpt lat="44.6969133" lon="9.44688"><ele>1313.0</ele><time>2026-04-30T12:21:32.988Z</time></trkpt><trkpt lat="44.6969267" lon="9.446775"><ele>1311.5</ele><time>2026-04-30T12:21:33.988Z</time></trkpt><trkpt lat="44.6969383" lon="9.4466717"><ele>1310.0</ele><time>2026-04-30T12:21:34.988Z</time></trkpt><trkpt lat="44.6969483" lon="9.4465633"><ele>1308.8</ele><time>2026-04-30T12:21:35.987Z</time></trkpt><trkpt lat="44.6969567" lon="9.4464617"><ele>1307.6</ele><time>2026-04-30T12:21:36.988Z</time></trkpt><trkpt lat="44.696955" lon="9.4463217"><ele>1306.4</ele><time>2026-04-30T12:21:38.988Z</time></trkpt><trkpt lat="44.6969483" lon="9.4462183"><ele>1305.2</ele><time>2026-04-30T12:21:40.987Z</time></trkpt><trkpt lat="44.6969467" lon="9.446085"><ele>1304.0</ele><time>2026-04-30T12:21:42.989Z</time></trkpt><trkpt lat="44.6969633" lon="9.4459133"><ele>1302.3333333333335</ele><time>2026-04-30T12:21:44.988Z</time></trkpt><trkpt lat="44.6969767" lon="9.4458217"><ele>1300.6666666666667</ele><time>2026-04-30T12:21:45.988Z</time></trkpt><trkpt lat="44.696985" lon="9.4457233"><ele>1299.0</ele><time>2026-04-30T12:21:46.992Z</time></trkpt><trkpt lat="44.6969867" lon="9.445625"><ele>1297.3333333333333</ele><time>2026-04-30T12:21:47.989Z</time></trkpt><trkpt lat="44.696985" lon="9.4455167"><ele>1295.6666666666665</ele><time>2026-04-30T12:21:48.988Z</time></trkpt><trkpt lat="44.69698" lon="9.4454017"><ele>1294.0</ele><time>2026-04-30T12:21:49.988Z</time></trkpt><trkpt lat="44.696975" lon="9.445275"><ele>1291.0</ele><time>2026-04-30T12:21:50.988Z</time></trkpt><trkpt lat="44.6969717" lon="9.4451383"><ele>1288.0</ele><time>2026-04-30T12:21:51.987Z</time></trkpt><trkpt lat="44.6969683" lon="9.4450033"><ele>1285.0</ele><time>2026-04-30T12:21:52.987Z</time></trkpt><trkpt lat="44.6969717" lon="9.44488"><ele>1282.0</ele><time>2026-04-30T12:21:53.988Z</time></trkpt><trkpt lat="44.696985" lon="9.444755"><ele>1279.0</ele><time>2026-04-30T12:21:54.99Z</time></trkpt><trkpt lat="44.6970017" lon="9.4446283"><ele>1276.6000000000001</ele><time>2026-04-30T12:21:55.99Z</time></trkpt><trkpt lat="44.69702" lon="9.4444983"><ele>1274.2</ele><time>2026-04-30T12:21:56.99Z</time></trkpt><trkpt lat="44.6970383" lon="9.4443783"><ele>1271.8000000000002</ele><time>2026-04-30T12:21:57.988Z</time></trkpt><trkpt lat="44.69706" lon="9.4442767"><ele>1269.4</ele><time>2026-04-30T12:21:58.989Z</time></trkpt><trkpt lat="44.6971067" lon="9.4441183"><ele>1267.0</ele><time>2026-04-30T12:22:00.99Z</time></trkpt><trkpt lat="44.69715" lon="9.4439617"><ele>1267.0</ele><time>2026-04-30T12:22:02.992Z</time></trkpt><trkpt lat="44.69717" lon="9.4438733"><ele>1267.0</ele><time>2026-04-30T12:22:03.989Z</time></trkpt><trkpt lat="44.6971867" lon="9.4437833"><ele>1267.0</ele><time>2026-04-30T12:22:04.994Z</time></trkpt><trkpt lat="44.6971917" lon="9.4436783"><ele>1267.0</ele><time>2026-04-30T12:22:05.989Z</time></trkpt><trkpt lat="44.697185" lon="9.443565"><ele>1267.0</ele><time>2026-04-30T12:22:06.989Z</time></trkpt><trkpt lat="44.6971717" lon="9.4434567"><ele>1267.0</ele><time>2026-04-30T12:22:07.988Z</time></trkpt><trkpt lat="44.6971583" lon="9.4433517"><ele>1267.0</ele><time>2026-04-30T12:22:08.988Z</time></trkpt><trkpt lat="44.6971467" lon="9.4432433"><ele>1265.8333333333333</ele><time>2026-04-30T12:22:09.996Z</time></trkpt><trkpt lat="44.6971367" lon="9.4431333"><ele>1264.6666666666665</ele><time>2026-04-30T12:22:10.988Z</time></trkpt><trkpt lat="44.697125" lon="9.44302"><ele>1263.5</ele><time>2026-04-30T12:22:11.99Z</time></trkpt><trkpt lat="44.6971133" lon="9.4429067"><ele>1262.3333333333333</ele><time>2026-04-30T12:22:12.99Z</time></trkpt><trkpt lat="44.697105" lon="9.4427867"><ele>1261.1666666666667</ele><time>2026-04-30T12:22:13.989Z</time></trkpt><trkpt lat="44.6971017" lon="9.44265"><ele>1260.0</ele><time>2026-04-30T12:22:14.989Z</time></trkpt><trkpt lat="44.6971033" lon="9.4425283"><ele>1258.6666666666667</ele><time>2026-04-30T12:22:15.995Z</time></trkpt><trkpt lat="44.6971033" lon="9.442425"><ele>1257.3333333333333</ele><time>2026-04-30T12:22:16.989Z</time></trkpt><trkpt lat="44.6971017" lon="9.4423267"><ele>1256.0</ele><time>2026-04-30T12:22:17.988Z</time></trkpt><trkpt lat="44.6970983" lon="9.4422367"><ele>1254.6666666666665</ele><time>2026-04-30T12:22:18.987Z</time></trkpt><trkpt lat="44.6970917" lon="9.442065"><ele>1253.3333333333333</ele><time>2026-04-30T12:22:20.988Z</time></trkpt><trkpt lat="44.6970817" lon="9.4419067"><ele>1252.0</ele><time>2026-04-30T12:22:22.989Z</time></trkpt><trkpt lat="44.6970967" lon="9.44175"><ele>1250.6</ele><time>2026-04-30T12:22:24.992Z</time></trkpt><trkpt lat="44.69717" lon="9.4416117"><ele>1249.2</ele><time>2026-04-30T12:22:26.988Z</time></trkpt><trkpt lat="44.697215" lon="9.441475"><ele>1247.8</ele><time>2026-04-30T12:22:28.988Z</time></trkpt><trkpt lat="44.6972233" lon="9.4413367"><ele>1246.4</ele><time>2026-04-30T12:22:30.988Z</time></trkpt><trkpt lat="44.697215" lon="9.44119"><ele>1245.0</ele><time>2026-04-30T12:22:32.989Z</time></trkpt><trkpt lat="44.6972217" lon="9.4410433"><ele>1242.8</ele><time>2026-04-30T12:22:34.988Z</time></trkpt><trkpt lat="44.6972183" lon="9.4408667"><ele>1240.6</ele><time>2026-04-30T12:22:36.99Z</time></trkpt><trkpt lat="44.69722" lon="9.4407767"><ele>1238.4</ele><time>2026-04-30T12:22:37.989Z</time></trkpt><trkpt lat="44.6972133" lon="9.4406333"><ele>1236.2</ele><time>2026-04-30T12:22:39.989Z</time></trkpt><trkpt lat="44.6971767" lon="9.4405117"><ele>1234.0</ele><time>2026-04-30T12:22:41.989Z</time></trkpt><trkpt lat="44.69712" lon="9.44039"><ele>1231.6666666666665</ele><time>2026-04-30T12:22:43.99Z</time></trkpt><trkpt lat="44.697085" lon="9.44027"><ele>1229.3333333333333</ele><time>2026-04-30T12:22:45.995Z</time></trkpt><trkpt lat="44.6970783" lon="9.4401483"><ele>1227.0</ele><time>2026-04-30T12:22:47.988Z</time></trkpt><trkpt lat="44.6970833" lon="9.4400117"><ele>1224.6666666666667</ele><time>2026-04-30T12:22:49.988Z</time></trkpt><trkpt lat="44.6970833" lon="9.4398883"><ele>1222.3333333333335</ele><time>2026-04-30T12:22:51.988Z</time></trkpt><trkpt lat="44.69705" lon="9.4397883"><ele>1220.0</ele><time>2026-04-30T12:22:53.991Z</time></trkpt><trkpt lat="44.696975" lon="9.439665"><ele>1218.1666666666667</ele><time>2026-04-30T12:22:55.987Z</time></trkpt><trkpt lat="44.696895" lon="9.4395983"><ele>1216.3333333333335</ele><time>2026-04-30T12:22:57.987Z</time></trkpt><trkpt lat="44.6968333" lon="9.4395333"><ele>1214.5</ele><time>2026-04-30T12:23:00.992Z</time></trkpt><trkpt lat="44.6968417" lon="9.4394333"><ele>1212.6666666666667</ele><time>2026-04-30T12:23:03.99Z</time></trkpt><trkpt lat="44.69686" lon="9.43934"><ele>1210.8333333333333</ele><time>2026-04-30T12:23:05.989Z</time></trkpt><trkpt lat="44.6968683" lon="9.4392367"><ele>1209.0</ele><time>2026-04-30T12:23:07.995Z</time></trkpt><trkpt lat="44.6968717" lon="9.4391267"><ele>1209.0</ele><time>2026-04-30T12:23:09.99Z</time></trkpt><trkpt lat="44.6968817" lon="9.43903"><ele>1209.0</ele><time>2026-04-30T12:23:11.99Z</time></trkpt><trkpt lat="44.6969033" lon="9.4389267"><ele>1209.0</ele><time>2026-04-30T12:23:13.992Z</time></trkpt><trkpt lat="44.6969317" lon="9.4388033"><ele>1209.0</ele><time>2026-04-30T12:23:15.989Z</time></trkpt><trkpt lat="44.6969467" lon="9.4386817"><ele>1209.0</ele><time>2026-04-30T12:23:17.993Z</time></trkpt><trkpt lat="44.69695" lon="9.4385517"><ele>1209.0</ele><time>2026-04-30T12:23:19.99Z</time></trkpt><trkpt lat="44.6969683" lon="9.4384183"><ele>1205.2</ele><time>2026-04-30T12:23:21.988Z</time></trkpt><trkpt lat="44.6969867" lon="9.4382683"><ele>1201.4</ele><time>2026-04-30T12:23:23.995Z</time></trkpt><trkpt lat="44.6970217" lon="9.4381583"><ele>1197.6</ele><time>2026-04-30T12:23:25.99Z</time></trkpt><trkpt lat="44.6970833" lon="9.4380967"><ele>1193.8</ele><time>2026-04-30T12:23:27.989Z</time></trkpt><trkpt lat="44.6971617" lon="9.43806"><ele>1190.0</ele><time>2026-04-30T12:23:29.988Z</time></trkpt><trkpt lat="44.697255" lon="9.437995"><ele>1186.4</ele><time>2026-04-30T12:23:31.99Z</time></trkpt><trkpt lat="44.6973583" lon="9.4379183"><ele>1182.8</ele><time>2026-04-30T12:23:33.989Z</time></trkpt><trkpt lat="44.6974467" lon="9.437825"><ele>1179.2</ele><time>2026-04-30T12:23:35.989Z</time></trkpt><trkpt lat="44.6974767" lon="9.43772"><ele>1175.6</ele><time>2026-04-30T12:23:37.991Z</time></trkpt><trkpt lat="44.6974617" lon="9.4376083"><ele>1172.0</ele><time>2026-04-30T12:23:40.07Z</time></trkpt><trkpt lat="44.6974117" lon="9.437505"><ele>1172.0</ele><time>2026-04-30T12:23:41.987Z</time></trkpt><trkpt lat="44.6973483" lon="9.4374483"><ele>1172.0</ele><time>2026-04-30T12:23:43.988Z</time></trkpt><trkpt lat="44.6972883" lon="9.437405"><ele>1172.0</ele><time>2026-04-30T12:23:45.988Z</time></trkpt><trkpt lat="44.697265" lon="9.4372967"><ele>1172.0</ele><time>2026-04-30T12:23:47.99Z</time></trkpt><trkpt lat="44.6972533" lon="9.4371633"><ele>1172.0</ele><time>2026-04-30T12:23:49.988Z</time></trkpt><trkpt lat="44.697255" lon="9.437035"><ele>1172.0</ele><time>2026-04-30T12:23:51.988Z</time></trkpt><trkpt lat="44.6972533" lon="9.4368917"><ele>1169.2</ele><time>2026-04-30T12:23:53.989Z</time></trkpt><trkpt lat="44.6972533" lon="9.4367567"><ele>1166.4</ele><time>2026-04-30T12:23:55.99Z</time></trkpt><trkpt lat="44.6972467" lon="9.4366283"><ele>1163.6</ele><time>2026-04-30T12:23:57.989Z</time></trkpt><trkpt lat="44.6972217" lon="9.4365083"><ele>1160.8</ele><time>2026-04-30T12:23:59.99Z</time></trkpt><trkpt lat="44.697175" lon="9.4364017"><ele>1158.0</ele><time>2026-04-30T12:24:01.988Z</time></trkpt><trkpt lat="44.69711" lon="9.4362667"><ele>1156.8</ele><time>2026-04-30T12:24:03.988Z</time></trkpt><trkpt lat="44.6970667" lon="9.43614"><ele>1155.6</ele><time>2026-04-30T12:24:05.988Z</time></trkpt><trkpt lat="44.6970617" lon="9.4359867"><ele>1154.4</ele><time>2026-04-30T12:24:07.987Z</time></trkpt><trkpt lat="44.6970533" lon="9.4358233"><ele>1153.2</ele><time>2026-04-30T12:24:09.99Z</time></trkpt><trkpt lat="44.6970517" lon="9.435725"><ele>1152.0</ele><time>2026-04-30T12:24:10.988Z</time></trkpt><trkpt lat="44.697045" lon="9.4356183"><ele>1152.0</ele><time>2026-04-30T12:24:11.99Z</time></trkpt><trkpt lat="44.6970333" lon="9.4355167"><ele>1152.0</ele><time>2026-04-30T12:24:12.99Z</time></trkpt><trkpt lat="44.697015" lon="9.435425"><ele>1152.0</ele><time>2026-04-30T12:24:13.99Z</time></trkpt><trkpt lat="44.6969883" lon="9.4352767"><ele>1152.0</ele><time>2026-04-30T12:24:15.989Z</time></trkpt><trkpt lat="44.6969783" lon="9.4351567"><ele>1152.0</ele><time>2026-04-30T12:24:17.991Z</time></trkpt><trkpt lat="44.6969433" lon="9.4350467"><ele>1152.0</ele><time>2026-04-30T12:24:19.992Z</time></trkpt><trkpt lat="44.6968717" lon="9.4349517"><ele>1152.1666666666667</ele><time>2026-04-30T12:24:21.989Z</time></trkpt><trkpt lat="44.6967983" lon="9.4348417"><ele>1152.3333333333333</ele><time>2026-04-30T12:24:23.989Z</time></trkpt><trkpt lat="44.6967483" lon="9.4347433"><ele>1152.5</ele><time>2026-04-30T12:24:25.993Z</time></trkpt><trkpt lat="44.6966933" lon="9.434665"><ele>1152.6666666666665</ele><time>2026-04-30T12:24:27.986Z</time></trkpt><trkpt lat="44.6966117" lon="9.43459"><ele>1152.8333333333333</ele><time>2026-04-30T12:24:29.99Z</time></trkpt><trkpt lat="44.696565" lon="9.4345167"><ele>1153.0</ele><time>2026-04-30T12:24:30.989Z</time></trkpt><trkpt lat="44.6965117" lon="9.4344533"><ele>1153.0</ele><time>2026-04-30T12:24:31.994Z</time></trkpt><trkpt lat="44.6964517" lon="9.4343967"><ele>1153.0</ele><time>2026-04-30T12:24:32.987Z</time></trkpt><trkpt lat="44.69637" lon="9.4343067"><ele>1153.0</ele><time>2026-04-30T12:24:34.988Z</time></trkpt><trkpt lat="44.6963167" lon="9.4342083"><ele>1153.0</ele><time>2026-04-30T12:24:36.989Z</time></trkpt><trkpt lat="44.6962483" lon="9.434085"><ele>1153.0</ele><time>2026-04-30T12:24:38.992Z</time></trkpt><trkpt lat="44.6961567" lon="9.43398"><ele>1152.0</ele><time>2026-04-30T12:24:40.995Z</time></trkpt><trkpt lat="44.6960533" lon="9.4339217"><ele>1151.0</ele><time>2026-04-30T12:24:42.987Z</time></trkpt><trkpt lat="44.6959683" lon="9.4339283"><ele>1150.0</ele><time>2026-04-30T12:24:44.989Z</time></trkpt><trkpt lat="44.6959017" lon="9.4340017"><ele>1149.0</ele><time>2026-04-30T12:24:46.994Z</time></trkpt><trkpt lat="44.695845" lon="9.43409"><ele>1148.0</ele><time>2026-04-30T12:24:48.988Z</time></trkpt><trkpt lat="44.6957617" lon="9.4341517"><ele>1148.0</ele><time>2026-04-30T12:24:50.987Z</time></trkpt><trkpt lat="44.6956717" lon="9.4342217"><ele>1148.0</ele><time>2026-04-30T12:24:52.988Z</time></trkpt><trkpt lat="44.695605" lon="9.4343267"><ele>1148.0</ele><time>2026-04-30T12:24:55.988Z</time></trkpt><trkpt lat="44.6955633" lon="9.4344233"><ele>1148.0</ele><time>2026-04-30T12:24:57.989Z</time></trkpt><trkpt lat="44.6955133" lon="9.4345217"><ele>1148.0</ele><time>2026-04-30T12:24:59.987Z</time></trkpt><trkpt lat="44.6954567" lon="9.4346167"><ele>1146.5714285714287</ele><time>2026-04-30T12:25:01.987Z</time></trkpt><trkpt lat="44.6954033" lon="9.4347183"><ele>1145.142857142857</ele><time>2026-04-30T12:25:03.992Z</time></trkpt><trkpt lat="44.695375" lon="9.4348083"><ele>1143.7142857142858</ele><time>2026-04-30T12:25:05.988Z</time></trkpt><trkpt lat="44.69534" lon="9.4349067"><ele>1142.2857142857142</ele><time>2026-04-30T12:25:08.989Z</time></trkpt><trkpt lat="44.6953033" lon="9.43498"><ele>1140.857142857143</ele><time>2026-04-30T12:25:10.989Z</time></trkpt><trkpt lat="44.6952467" lon="9.4350367"><ele>1139.4285714285716</ele><time>2026-04-30T12:25:12.988Z</time></trkpt><trkpt lat="44.6951717" lon="9.4350683"><ele>1138.0</ele><time>2026-04-30T12:25:14.988Z</time></trkpt><trkpt lat="44.6950933" lon="9.4350617"><ele>1136.5</ele><time>2026-04-30T12:25:16.988Z</time></trkpt><trkpt lat="44.6950517" lon="9.4349867"><ele>1135.0</ele><time>2026-04-30T12:25:18.989Z</time></trkpt><trkpt lat="44.6950017" lon="9.4348817"><ele>1133.5</ele><time>2026-04-30T12:25:20.989Z</time></trkpt><trkpt lat="44.6949367" lon="9.4347983"><ele>1132.0</ele><time>2026-04-30T12:25:22.988Z</time></trkpt><trkpt lat="44.69489" lon="9.4347083"><ele>1130.5</ele><time>2026-04-30T12:25:24.989Z</time></trkpt><trkpt lat="44.6948483" lon="9.434615"><ele>1129.0</ele><time>2026-04-30T12:25:26.988Z</time></trkpt><trkpt lat="44.6948117" lon="9.434505"><ele>1129.0</ele><time>2026-04-30T12:25:28.988Z</time></trkpt><trkpt lat="44.6947783" lon="9.43438"><ele>1129.0</ele><time>2026-04-30T12:25:30.988Z</time></trkpt><trkpt lat="44.6947233" lon="9.4342367"><ele>1129.0</ele><time>2026-04-30T12:25:32.988Z</time></trkpt><trkpt lat="44.6946617" lon="9.4341067"><ele>1129.0</ele><time>2026-04-30T12:25:34.988Z</time></trkpt><trkpt lat="44.69461" lon="9.43398"><ele>1129.0</ele><time>2026-04-30T12:25:36.991Z</time></trkpt><trkpt lat="44.6945833" lon="9.4338683"><ele>1128.3333333333333</ele><time>2026-04-30T12:25:38.998Z</time></trkpt><trkpt lat="44.694655" lon="9.4336883"><ele>1127.6666666666665</ele><time>2026-04-30T12:26:01.989Z</time></trkpt><trkpt lat="44.6947033" lon="9.4336133"><ele>1127.0</ele><time>2026-04-30T12:26:02.994Z</time></trkpt><trkpt lat="44.6947467" lon="9.433535"><ele>1126.3333333333333</ele><time>2026-04-30T12:26:03.993Z</time></trkpt><trkpt lat="44.6947883" lon="9.43345"><ele>1125.6666666666667</ele><time>2026-04-30T12:26:04.99Z</time></trkpt><trkpt lat="44.694825" lon="9.4333483"><ele>1125.0</ele><time>2026-04-30T12:26:05.987Z</time></trkpt><trkpt lat="44.6948733" lon="9.4332367"><ele>1125.0</ele><time>2026-04-30T12:26:06.987Z</time></trkpt><trkpt lat="44.6949283" lon="9.433135"><ele>1125.0</ele><time>2026-04-30T12:26:07.988Z</time></trkpt><trkpt lat="44.6949783" lon="9.4330317"><ele>1125.0</ele><time>2026-04-30T12:26:08.987Z</time></trkpt><trkpt lat="44.6950233" lon="9.4329317"><ele>1125.0</ele><time>2026-04-30T12:26:09.992Z</time></trkpt><trkpt lat="44.6950617" lon="9.4328333"><ele>1125.0</ele><time>2026-04-30T12:26:10.987Z</time></trkpt><trkpt lat="44.6951033" lon="9.4327383"><ele>1125.0</ele><time>2026-04-30T12:26:11.989Z</time></trkpt><trkpt lat="44.6951483" lon="9.43266"><ele>1124.0</ele><time>2026-04-30T12:26:12.988Z</time></trkpt><trkpt lat="44.6951967" lon="9.4326"><ele>1123.0</ele><time>2026-04-30T12:26:13.988Z</time></trkpt><trkpt lat="44.6953133" lon="9.4325217"><ele>1122.0</ele><time>2026-04-30T12:26:15.99Z</time></trkpt><trkpt lat="44.6953883" lon="9.4324933"><ele>1121.0</ele><time>2026-04-30T12:26:16.993Z</time></trkpt><trkpt lat="44.6954533" lon="9.43245"><ele>1120.0</ele><time>2026-04-30T12:26:17.988Z</time></trkpt><trkpt lat="44.6955083" lon="9.4324"><ele>1119.0</ele><time>2026-04-30T12:26:18.988Z</time></trkpt><trkpt lat="44.695555" lon="9.4323283"><ele>1119.0</ele><time>2026-04-30T12:26:19.989Z</time></trkpt><trkpt lat="44.695605" lon="9.4322433"><ele>1119.0</ele><time>2026-04-30T12:26:20.987Z</time></trkpt><trkpt lat="44.6956567" lon="9.43214"><ele>1119.0</ele><time>2026-04-30T12:26:21.988Z</time></trkpt><trkpt lat="44.6957067" lon="9.4320233"><ele>1119.0</ele><time>2026-04-30T12:26:22.988Z</time></trkpt><trkpt lat="44.6957517" lon="9.4319117"><ele>1119.0</ele><time>2026-04-30T12:26:23.987Z</time></trkpt><trkpt lat="44.695785" lon="9.4317967"><ele>1119.0</ele><time>2026-04-30T12:26:24.992Z</time></trkpt><trkpt lat="44.69581" lon="9.4316867"><ele>1115.3333333333333</ele><time>2026-04-30T12:26:25.99Z</time></trkpt><trkpt lat="44.6958233" lon="9.431565"><ele>1111.6666666666667</ele><time>2026-04-30T12:26:26.99Z</time></trkpt><trkpt lat="44.6958283" lon="9.4314517"><ele>1108.0</ele><time>2026-04-30T12:26:27.988Z</time></trkpt><trkpt lat="44.695825" lon="9.4313517"><ele>1104.3333333333335</ele><time>2026-04-30T12:26:28.991Z</time></trkpt><trkpt lat="44.6958217" lon="9.4312533"><ele>1100.6666666666667</ele><time>2026-04-30T12:26:29.987Z</time></trkpt><trkpt lat="44.69581" lon="9.4311617"><ele>1097.0</ele><time>2026-04-30T12:26:30.988Z</time></trkpt><trkpt lat="44.695815" lon="9.431025"><ele>1094.4</ele><time>2026-04-30T12:26:32.989Z</time></trkpt><trkpt lat="44.6959083" lon="9.43094"><ele>1091.8000000000002</ele><time>2026-04-30T12:26:34.988Z</time></trkpt><trkpt lat="44.69599" lon="9.430905"><ele>1089.2</ele><time>2026-04-30T12:26:35.987Z</time></trkpt><trkpt lat="44.6960833" lon="9.430875"><ele>1086.6000000000001</ele><time>2026-04-30T12:26:36.988Z</time></trkpt><trkpt lat="44.6961783" lon="9.430855"><ele>1084.0</ele><time>2026-04-30T12:26:37.988Z</time></trkpt><trkpt lat="44.69627" lon="9.43084"><ele>1084.0</ele><time>2026-04-30T12:26:38.996Z</time></trkpt><trkpt lat="44.6963617" lon="9.4308283"><ele>1084.0</ele><time>2026-04-30T12:26:39.99Z</time></trkpt><trkpt lat="44.6964583" lon="9.430815"><ele>1084.0</ele><time>2026-04-30T12:26:40.99Z</time></trkpt><trkpt lat="44.6965567" lon="9.4308117"><ele>1084.0</ele><time>2026-04-30T12:26:41.988Z</time></trkpt><trkpt lat="44.69666" lon="9.4308183"><ele>1084.0</ele><time>2026-04-30T12:26:42.989Z</time></trkpt><trkpt lat="44.6967617" lon="9.4308233"><ele>1084.0</ele><time>2026-04-30T12:26:43.99Z</time></trkpt><trkpt lat="44.696865" lon="9.43082"><ele>1084.0</ele><time>2026-04-30T12:26:44.99Z</time></trkpt><trkpt lat="44.6969617" lon="9.43081"><ele>1084.0</ele><time>2026-04-30T12:26:45.989Z</time></trkpt><trkpt lat="44.6970567" lon="9.4307967"><ele>1084.0</ele><time>2026-04-30T12:26:46.992Z</time></trkpt><trkpt lat="44.6971483" lon="9.43079"><ele>1084.0</ele><time>2026-04-30T12:26:47.987Z</time></trkpt><trkpt lat="44.6972383" lon="9.4307983"><ele>1083.8333333333333</ele><time>2026-04-30T12:26:48.989Z</time></trkpt><trkpt lat="44.6973267" lon="9.4308117"><ele>1083.6666666666665</ele><time>2026-04-30T12:26:49.987Z</time></trkpt><trkpt lat="44.6974183" lon="9.4308117"><ele>1083.5</ele><time>2026-04-30T12:26:50.989Z</time></trkpt><trkpt lat="44.697505" lon="9.43079"><ele>1083.3333333333333</ele><time>2026-04-30T12:26:51.988Z</time></trkpt><trkpt lat="44.6975633" lon="9.4307433"><ele>1083.1666666666667</ele><time>2026-04-30T12:26:52.987Z</time></trkpt><trkpt lat="44.6976017" lon="9.4306683"><ele>1083.0</ele><time>2026-04-30T12:26:53.993Z</time></trkpt><trkpt lat="44.697625" lon="9.4305767"><ele>1083.0</ele><time>2026-04-30T12:26:54.987Z</time></trkpt><trkpt lat="44.6976433" lon="9.4304883"><ele>1083.0</ele><time>2026-04-30T12:26:55.99Z</time></trkpt><trkpt lat="44.6976817" lon="9.4304083"><ele>1083.0</ele><time>2026-04-30T12:26:56.989Z</time></trkpt><trkpt lat="44.697735" lon="9.430355"><ele>1083.0</ele><time>2026-04-30T12:26:57.988Z</time></trkpt><trkpt lat="44.697795" lon="9.4303267"><ele>1083.0</ele><time>2026-04-30T12:26:58.99Z</time></trkpt><trkpt lat="44.6979083" lon="9.4303017"><ele>1083.0</ele><time>2026-04-30T12:27:00.987Z</time></trkpt><trkpt lat="44.6980067" lon="9.4302767"><ele>1081.5</ele><time>2026-04-30T12:27:02.988Z</time></trkpt><trkpt lat="44.6980717" lon="9.4303117"><ele>1080.0</ele><time>2026-04-30T12:27:05.994Z</time></trkpt><trkpt lat="44.6980767" lon="9.4304317"><ele>1078.5</ele><time>2026-04-30T12:27:08.989Z</time></trkpt><trkpt lat="44.69803" lon="9.430575"><ele>1077.0</ele><time>2026-04-30T12:27:10.988Z</time></trkpt><trkpt lat="44.6980033" lon="9.4306667"><ele>1075.5</ele><time>2026-04-30T12:27:11.988Z</time></trkpt><trkpt lat="44.6979817" lon="9.43076"><ele>1074.0</ele><time>2026-04-30T12:27:12.989Z</time></trkpt><trkpt lat="44.6979683" lon="9.4308717"><ele>1074.0</ele><time>2026-04-30T12:27:13.99Z</time></trkpt><trkpt lat="44.6979567" lon="9.430985"><ele>1074.0</ele><time>2026-04-30T12:27:14.988Z</time></trkpt><trkpt lat="44.697945" lon="9.4311"><ele>1074.0</ele><time>2026-04-30T12:27:15.992Z</time></trkpt><trkpt lat="44.6979317" lon="9.431205"><ele>1074.0</ele><time>2026-04-30T12:27:16.988Z</time></trkpt><trkpt lat="44.6979133" lon="9.4313"><ele>1074.0</ele><time>2026-04-30T12:27:17.988Z</time></trkpt><trkpt lat="44.6978717" lon="9.43138"><ele>1074.0</ele><time>2026-04-30T12:27:18.99Z</time></trkpt><trkpt lat="44.6978183" lon="9.4314567"><ele>1074.5</ele><time>2026-04-30T12:27:19.99Z</time></trkpt><trkpt lat="44.6977533" lon="9.43155"><ele>1075.0</ele><time>2026-04-30T12:27:20.991Z</time></trkpt><trkpt lat="44.6977" lon="9.4316517"><ele>1075.5</ele><time>2026-04-30T12:27:21.99Z</time></trkpt><trkpt lat="44.6976682" lon="9.4317505"><ele>1076.0</ele><time>2026-04-30T12:27:22.994Z</time></trkpt><trkpt lat="44.6976619" lon="9.4318418"><ele>1076.5</ele><time>2026-04-30T12:27:23.99Z</time></trkpt><trkpt lat="44.6976739" lon="9.4319311"><ele>1077.0</ele><time>2026-04-30T12:27:24.99Z</time></trkpt><trkpt lat="44.6976957" lon="9.4320291"><ele>1078.8</ele><time>2026-04-30T12:27:25.99Z</time></trkpt><trkpt lat="44.6977239" lon="9.4321428"><ele>1080.6</ele><time>2026-04-30T12:27:26.99Z</time></trkpt><trkpt lat="44.6977548" lon="9.4322668"><ele>1082.3999999999999</ele><time>2026-04-30T12:27:27.989Z</time></trkpt><trkpt lat="44.6977859" lon="9.4323938"><ele>1084.2</ele><time>2026-04-30T12:27:28.99Z</time></trkpt><trkpt lat="44.6978245" lon="9.4325185"><ele>1086.0</ele><time>2026-04-30T12:27:29.987Z</time></trkpt><trkpt lat="44.6978789" lon="9.4326321"><ele>1086.0</ele><time>2026-04-30T12:27:30.989Z</time></trkpt><trkpt lat="44.6979508" lon="9.432733"><ele>1086.0</ele><time>2026-04-30T12:27:31.988Z</time></trkpt><trkpt lat="44.6980377" lon="9.4328221"><ele>1086.0</ele><time>2026-04-30T12:27:32.989Z</time></trkpt><trkpt lat="44.6981244" lon="9.4329035"><ele>1086.0</ele><time>2026-04-30T12:27:33.988Z</time></trkpt><trkpt lat="44.6982072" lon="9.4329865"><ele>1086.0</ele><time>2026-04-30T12:27:34.99Z</time></trkpt><trkpt lat="44.698287" lon="9.4330675"><ele>1090.2</ele><time>2026-04-30T12:27:35.993Z</time></trkpt><trkpt lat="44.6983691" lon="9.4331563"><ele>1094.3999999999999</ele><time>2026-04-30T12:27:36.988Z</time></trkpt><trkpt lat="44.6984433" lon="9.4332533"><ele>1098.6</ele><time>2026-04-30T12:27:37.989Z</time></trkpt><trkpt lat="44.6985021" lon="9.4333614"><ele>1102.8</ele><time>2026-04-30T12:27:38.989Z</time></trkpt><trkpt lat="44.698542" lon="9.4334851"><ele>1107.0</ele><time>2026-04-30T12:27:39.989Z</time></trkpt><trkpt lat="44.6985691" lon="9.433615"><ele>1103.3333333333333</ele><time>2026-04-30T12:27:40.989Z</time></trkpt><trkpt lat="44.6985975" lon="9.4337439"><ele>1099.6666666666667</ele><time>2026-04-30T12:27:41.996Z</time></trkpt><trkpt lat="44.6986255" lon="9.4338612"><ele>1096.0</ele><time>2026-04-30T12:27:42.989Z</time></trkpt><trkpt lat="44.6986422" lon="9.4339675"><ele>1092.3333333333335</ele><time>2026-04-30T12:27:43.988Z</time></trkpt><trkpt lat="44.6986491" lon="9.4340654"><ele>1088.6666666666667</ele><time>2026-04-30T12:27:44.989Z</time></trkpt><trkpt lat="44.698645" lon="9.4341559"><ele>1085.0</ele><time>2026-04-30T12:27:45.988Z</time></trkpt><trkpt lat="44.6986376" lon="9.434311"><ele>1085.0</ele><time>2026-04-30T12:27:47.989Z</time></trkpt><trkpt lat="44.6986596" lon="9.4344173"><ele>1085.0</ele><time>2026-04-30T12:27:49.992Z</time></trkpt><trkpt lat="44.6986583" lon="9.4345267"><ele>1085.0</ele><time>2026-04-30T12:28:15.989Z</time></trkpt><trkpt lat="44.6986533" lon="9.4346767"><ele>1085.0</ele><time>2026-04-30T12:28:50.99Z</time></trkpt><trkpt lat="44.6987367" lon="9.4347467"><ele>1085.0</ele><time>2026-04-30T12:28:52.989Z</time></trkpt><trkpt lat="44.6988083" lon="9.434775"><ele>1085.0</ele><time>2026-04-30T12:28:53.989Z</time></trkpt><trkpt lat="44.6988867" lon="9.43482"><ele>1091.6</ele><time>2026-04-30T12:28:54.989Z</time></trkpt><trkpt lat="44.6989667" lon="9.4348867"><ele>1098.2</ele><time>2026-04-30T12:28:55.99Z</time></trkpt><trkpt lat="44.69904" lon="9.4349517"><ele>1104.8</ele><time>2026-04-30T12:28:56.99Z</time></trkpt><trkpt lat="44.6991133" lon="9.4350367"><ele>1111.4</ele><time>2026-04-30T12:28:57.993Z</time></trkpt><trkpt lat="44.69919" lon="9.4351317"><ele>1118.0</ele><time>2026-04-30T12:28:58.988Z</time></trkpt><trkpt lat="44.6992467" lon="9.43523"><ele>1118.0</ele><time>2026-04-30T12:28:59.987Z</time></trkpt><trkpt lat="44.6992983" lon="9.43533"><ele>1118.0</ele><time>2026-04-30T12:29:00.989Z</time></trkpt><trkpt lat="44.69935" lon="9.43544"><ele>1118.0</ele><time>2026-04-30T12:29:01.99Z</time></trkpt><trkpt lat="44.6993983" lon="9.4355433"><ele>1118.0</ele><time>2026-04-30T12:29:02.989Z</time></trkpt><trkpt lat="44.699435" lon="9.4356467"><ele>1118.0</ele><time>2026-04-30T12:29:03.988Z</time></trkpt><trkpt lat="44.69947" lon="9.4357467"><ele>1118.0</ele><time>2026-04-30T12:29:04.988Z</time></trkpt><trkpt lat="44.699505" lon="9.4358333"><ele>1117.1666666666667</ele><time>2026-04-30T12:29:05.989Z</time></trkpt><trkpt lat="44.6995317" lon="9.435925"><ele>1116.3333333333335</ele><time>2026-04-30T12:29:06.989Z</time></trkpt><trkpt lat="44.6995567" lon="9.43603"><ele>1115.5</ele><time>2026-04-30T12:29:07.988Z</time></trkpt><trkpt lat="44.699575" lon="9.43614"><ele>1114.6666666666667</ele><time>2026-04-30T12:29:08.997Z</time></trkpt><trkpt lat="44.699595" lon="9.4362583"><ele>1113.8333333333333</ele><time>2026-04-30T12:29:09.988Z</time></trkpt><trkpt lat="44.6996067" lon="9.4363817"><ele>1113.0</ele><time>2026-04-30T12:29:10.989Z</time></trkpt><trkpt lat="44.69963" lon="9.4365083"><ele>1113.0</ele><time>2026-04-30T12:29:11.987Z</time></trkpt><trkpt lat="44.6996467" lon="9.4366383"><ele>1113.0</ele><time>2026-04-30T12:29:12.988Z</time></trkpt><trkpt lat="44.6996533" lon="9.4367683"><ele>1113.0</ele><time>2026-04-30T12:29:13.988Z</time></trkpt><trkpt lat="44.6996617" lon="9.4369"><ele>1113.0</ele><time>2026-04-30T12:29:14.989Z</time></trkpt><trkpt lat="44.6996633" lon="9.4370383"><ele>1113.0</ele><time>2026-04-30T12:29:15.988Z</time></trkpt><trkpt lat="44.69966" lon="9.4371733"><ele>1114.8333333333333</ele><time>2026-04-30T12:29:16.988Z</time></trkpt><trkpt lat="44.6996533" lon="9.4373"><ele>1116.6666666666667</ele><time>2026-04-30T12:29:17.989Z</time></trkpt><trkpt lat="44.6996617" lon="9.437415"><ele>1118.5</ele><time>2026-04-30T12:29:18.988Z</time></trkpt><trkpt lat="44.6996767" lon="9.43752"><ele>1120.3333333333335</ele><time>2026-04-30T12:29:19.995Z</time></trkpt><trkpt lat="44.6997033" lon="9.4376133"><ele>1122.1666666666667</ele><time>2026-04-30T12:29:20.988Z</time></trkpt><trkpt lat="44.699755" lon="9.4376933"><ele>1124.0</ele><time>2026-04-30T12:29:21.989Z</time></trkpt><trkpt lat="44.6998117" lon="9.43778"><ele>1124.0</ele><time>2026-04-30T12:29:22.988Z</time></trkpt><trkpt lat="44.699865" lon="9.4378733"><ele>1124.0</ele><time>2026-04-30T12:29:23.988Z</time></trkpt><trkpt lat="44.6999317" lon="9.4379617"><ele>1124.0</ele><time>2026-04-30T12:29:24.99Z</time></trkpt><trkpt lat="44.699985" lon="9.4380533"><ele>1124.0</ele><time>2026-04-30T12:29:25.987Z</time></trkpt><trkpt lat="44.70004" lon="9.438145"><ele>1124.0</ele><time>2026-04-30T12:29:26.989Z</time></trkpt><trkpt lat="44.700095" lon="9.438235"><ele>1124.0</ele><time>2026-04-30T12:29:27.99Z</time></trkpt><trkpt lat="44.70015" lon="9.4383183"><ele>1123.8333333333335</ele><time>2026-04-30T12:29:28.988Z</time></trkpt><trkpt lat="44.7002167" lon="9.438395"><ele>1123.6666666666667</ele><time>2026-04-30T12:29:29.992Z</time></trkpt><trkpt lat="44.70029" lon="9.4384683"><ele>1123.5</ele><time>2026-04-30T12:29:30.986Z</time></trkpt><trkpt lat="44.7003567" lon="9.4385467"><ele>1123.3333333333333</ele><time>2026-04-30T12:29:31.987Z</time></trkpt><trkpt lat="44.70043" lon="9.4386283"><ele>1123.1666666666665</ele><time>2026-04-30T12:29:32.988Z</time></trkpt><trkpt lat="44.700495" lon="9.4386733"><ele>1123.0</ele><time>2026-04-30T12:29:33.987Z</time></trkpt><trkpt lat="44.7006133" lon="9.4386517"><ele>1123.0</ele><time>2026-04-30T12:29:35.988Z</time></trkpt><trkpt lat="44.7006683" lon="9.4386067"><ele>1123.0</ele><time>2026-04-30T12:29:36.988Z</time></trkpt><trkpt lat="44.7007167" lon="9.43855"><ele>1123.0</ele><time>2026-04-30T12:29:37.989Z</time></trkpt><trkpt lat="44.7008083" lon="9.43847"><ele>1123.0</ele><time>2026-04-30T12:29:39.987Z</time></trkpt><trkpt lat="44.7009" lon="9.438495"><ele>1123.0</ele><time>2026-04-30T12:29:41.987Z</time></trkpt><trkpt lat="44.7009717" lon="9.4385567"><ele>1123.0</ele><time>2026-04-30T12:29:42.993Z</time></trkpt><trkpt lat="44.7010533" lon="9.4386233"><ele>1124.0</ele><time>2026-04-30T12:29:43.987Z</time></trkpt><trkpt lat="44.70113" lon="9.4387"><ele>1125.0</ele><time>2026-04-30T12:29:44.989Z</time></trkpt><trkpt lat="44.7011917" lon="9.43881"><ele>1126.0</ele><time>2026-04-30T12:29:45.987Z</time></trkpt><trkpt lat="44.7012583" lon="9.4389267"><ele>1127.0</ele><time>2026-04-30T12:29:46.987Z</time></trkpt><trkpt lat="44.7013217" lon="9.4390433"><ele>1128.0</ele><time>2026-04-30T12:29:47.988Z</time></trkpt><trkpt lat="44.7013783" lon="9.4391367"><ele>1129.0</ele><time>2026-04-30T12:29:48.988Z</time></trkpt><trkpt lat="44.701425" lon="9.4392233"><ele>1130.0</ele><time>2026-04-30T12:29:49.987Z</time></trkpt><trkpt lat="44.7014633" lon="9.4393233"><ele>1131.0</ele><time>2026-04-30T12:29:50.989Z</time></trkpt><trkpt lat="44.7015" lon="9.43943"><ele>1132.0</ele><time>2026-04-30T12:29:51.989Z</time></trkpt><trkpt lat="44.7015383" lon="9.4395433"><ele>1133.0</ele><time>2026-04-30T12:29:52.989Z</time></trkpt><trkpt lat="44.701575" lon="9.43965"><ele>1134.0</ele><time>2026-04-30T12:29:53.987Z</time></trkpt><trkpt lat="44.701605" lon="9.4397583"><ele>1134.6000000000001</ele><time>2026-04-30T12:29:54.987Z</time></trkpt><trkpt lat="44.7016367" lon="9.4398717"><ele>1135.2</ele><time>2026-04-30T12:29:55.987Z</time></trkpt><trkpt lat="44.701675" lon="9.4399967"><ele>1135.8000000000002</ele><time>2026-04-30T12:29:56.996Z</time></trkpt><trkpt lat="44.7017083" lon="9.4401283"><ele>1136.4</ele><time>2026-04-30T12:29:57.988Z</time></trkpt><trkpt lat="44.7017383" lon="9.4402633"><ele>1137.0</ele><time>2026-04-30T12:29:58.988Z</time></trkpt><trkpt lat="44.7017717" lon="9.4404"><ele>1138.4</ele><time>2026-04-30T12:29:59.988Z</time></trkpt><trkpt lat="44.7018167" lon="9.4405183"><ele>1139.8000000000002</ele><time>2026-04-30T12:30:00.988Z</time></trkpt><trkpt lat="44.7018867" lon="9.4406283"><ele>1141.2</ele><time>2026-04-30T12:30:01.988Z</time></trkpt><trkpt lat="44.7019683" lon="9.440695"><ele>1142.6000000000001</ele><time>2026-04-30T12:30:02.989Z</time></trkpt><trkpt lat="44.7020583" lon="9.44074"><ele>1144.0</ele><time>2026-04-30T12:30:03.988Z</time></trkpt><trkpt lat="44.7021417" lon="9.4407883"><ele>1144.0</ele><time>2026-04-30T12:30:04.987Z</time></trkpt><trkpt lat="44.7022067" lon="9.4408567"><ele>1144.0</ele><time>2026-04-30T12:30:05.991Z</time></trkpt><trkpt lat="44.702255" lon="9.4409417"><ele>1144.0</ele><time>2026-04-30T12:30:06.988Z</time></trkpt><trkpt lat="44.7023033" lon="9.4410517"><ele>1144.0</ele><time>2026-04-30T12:30:07.995Z</time></trkpt><trkpt lat="44.7023467" lon="9.4411733"><ele>1144.0</ele><time>2026-04-30T12:30:08.989Z</time></trkpt><trkpt lat="44.7023717" lon="9.4412683"><ele>1144.0</ele><time>2026-04-30T12:30:09.988Z</time></trkpt><trkpt lat="44.7023667" lon="9.4414283"><ele>1145.5</ele><time>2026-04-30T12:30:11.988Z</time></trkpt><trkpt lat="44.7023183" lon="9.4415067"><ele>1147.0</ele><time>2026-04-30T12:30:12.988Z</time></trkpt><trkpt lat="44.7022683" lon="9.4415967"><ele>1148.5</ele><time>2026-04-30T12:30:13.987Z</time></trkpt><trkpt lat="44.7022267" lon="9.4417"><ele>1150.0</ele><time>2026-04-30T12:30:14.994Z</time></trkpt><trkpt lat="44.7022117" lon="9.4418017"><ele>1151.5</ele><time>2026-04-30T12:30:15.988Z</time></trkpt><trkpt lat="44.702225" lon="9.4418983"><ele>1153.0</ele><time>2026-04-30T12:30:16.987Z</time></trkpt><trkpt lat="44.702255" lon="9.4419933"><ele>1153.0</ele><time>2026-04-30T12:30:17.987Z</time></trkpt><trkpt lat="44.7022767" lon="9.44209"><ele>1153.0</ele><time>2026-04-30T12:30:18.986Z</time></trkpt><trkpt lat="44.702295" lon="9.4421917"><ele>1153.0</ele><time>2026-04-30T12:30:19.992Z</time></trkpt><trkpt lat="44.70232" lon="9.4422967"><ele>1153.0</ele><time>2026-04-30T12:30:20.987Z</time></trkpt><trkpt lat="44.7023517" lon="9.4423983"><ele>1153.0</ele><time>2026-04-30T12:30:21.986Z</time></trkpt><trkpt lat="44.7023917" lon="9.4424833"><ele>1153.0</ele><time>2026-04-30T12:30:22.987Z</time></trkpt><trkpt lat="44.7024367" lon="9.4425483"><ele>1153.0</ele><time>2026-04-30T12:30:23.986Z</time></trkpt><trkpt lat="44.7025317" lon="9.4426617"><ele>1154.6666666666665</ele><time>2026-04-30T12:30:25.988Z</time></trkpt><trkpt lat="44.70262" lon="9.4427567"><ele>1156.3333333333333</ele><time>2026-04-30T12:30:27.988Z</time></trkpt><trkpt lat="44.70267" lon="9.4428233"><ele>1158.0</ele><time>2026-04-30T12:30:28.989Z</time></trkpt><trkpt lat="44.7027167" lon="9.4429067"><ele>1159.6666666666667</ele><time>2026-04-30T12:30:29.989Z</time></trkpt><trkpt lat="44.7027583" lon="9.4429933"><ele>1161.3333333333335</ele><time>2026-04-30T12:30:30.988Z</time></trkpt><trkpt lat="44.702785" lon="9.443075"><ele>1163.0</ele><time>2026-04-30T12:30:31.989Z</time></trkpt><trkpt lat="44.702815" lon="9.44322"><ele>1163.3333333333335</ele><time>2026-04-30T12:30:33.988Z</time></trkpt><trkpt lat="44.7028883" lon="9.443295"><ele>1163.6666666666667</ele><time>2026-04-30T12:30:35.989Z</time></trkpt><trkpt lat="44.7029617" lon="9.44329"><ele>1164.0</ele><time>2026-04-30T12:30:36.988Z</time></trkpt><trkpt lat="44.70304" lon="9.4432817"><ele>1164.3333333333333</ele><time>2026-04-30T12:30:37.989Z</time></trkpt><trkpt lat="44.7031476" lon="9.4433265"><ele>1164.6666666666665</ele><time>2026-04-30T12:30:39.99Z</time></trkpt><trkpt lat="44.7032196" lon="9.4434025"><ele>1165.0</ele><time>2026-04-30T12:30:41.99Z</time></trkpt><trkpt lat="44.703254" lon="9.4435013"><ele>1165.0</ele><time>2026-04-30T12:30:43.989Z</time></trkpt><trkpt lat="44.7032843" lon="9.4436399"><ele>1165.0</ele><time>2026-04-30T12:30:45.988Z</time></trkpt><trkpt lat="44.7033672" lon="9.4437677"><ele>1165.0</ele><time>2026-04-30T12:30:47.989Z</time></trkpt><trkpt lat="44.7034463" lon="9.4438085"><ele>1165.0</ele><time>2026-04-30T12:30:48.987Z</time></trkpt><trkpt lat="44.7035261" lon="9.4438263"><ele>1165.0</ele><time>2026-04-30T12:30:49.991Z</time></trkpt><trkpt lat="44.7035936" lon="9.4438372"><ele>1160.1666666666665</ele><time>2026-04-30T12:30:50.989Z</time></trkpt><trkpt lat="44.7036542" lon="9.4438644"><ele>1155.3333333333333</ele><time>2026-04-30T12:30:51.987Z</time></trkpt><trkpt lat="44.7037475" lon="9.4439562"><ele>1150.5</ele><time>2026-04-30T12:30:53.986Z</time></trkpt><trkpt lat="44.7037966" lon="9.4440983"><ele>1145.6666666666667</ele><time>2026-04-30T12:30:55.988Z</time></trkpt><trkpt lat="44.7038099" lon="9.4441942"><ele>1140.8333333333335</ele><time>2026-04-30T12:30:56.988Z</time></trkpt><trkpt lat="44.7038451" lon="9.4442804"><ele>1136.0</ele><time>2026-04-30T12:30:57.987Z</time></trkpt><trkpt lat="44.703872" lon="9.4443658"><ele>1136.0</ele><time>2026-04-30T12:30:58.993Z</time></trkpt><trkpt lat="44.7039138" lon="9.4445274"><ele>1136.0</ele><time>2026-04-30T12:31:00.989Z</time></trkpt><trkpt lat="44.7040367" lon="9.4445933"><ele>1136.0</ele><time>2026-04-30T12:31:02.99Z</time></trkpt><trkpt lat="44.7041033" lon="9.4446017"><ele>1136.0</ele><time>2026-04-30T12:31:03.988Z</time></trkpt><trkpt lat="44.7041967" lon="9.444645"><ele>1136.0</ele><time>2026-04-30T12:31:05.989Z</time></trkpt><trkpt lat="44.7042083" lon="9.444755"><ele>1134.8333333333335</ele><time>2026-04-30T12:31:07.989Z</time></trkpt><trkpt lat="44.7042217" lon="9.444855"><ele>1133.6666666666667</ele><time>2026-04-30T12:31:09.996Z</time></trkpt><trkpt lat="44.704305" lon="9.444915"><ele>1132.5</ele><time>2026-04-30T12:31:12.989Z</time></trkpt><trkpt lat="44.70438" lon="9.4449333"><ele>1131.3333333333333</ele><time>2026-04-30T12:31:14.988Z</time></trkpt><trkpt lat="44.7044533" lon="9.4449483"><ele>1130.1666666666665</ele><time>2026-04-30T12:31:16.987Z</time></trkpt><trkpt lat="44.70452" lon="9.44496"><ele>1129.0</ele><time>2026-04-30T12:31:18.987Z</time></trkpt><trkpt lat="44.7046267" lon="9.4450417"><ele>1129.0</ele><time>2026-04-30T12:32:18.988Z</time></trkpt><trkpt lat="44.704695" lon="9.44505"><ele>1129.0</ele><time>2026-04-30T12:32:20.988Z</time></trkpt><trkpt lat="44.7047867" lon="9.44501"><ele>1129.0</ele><time>2026-04-30T12:32:22.987Z</time></trkpt><trkpt lat="44.704895" lon="9.4449717"><ele>1129.0</ele><time>2026-04-30T12:32:24.987Z</time></trkpt><trkpt lat="44.705" lon="9.4449633"><ele>1129.0</ele><time>2026-04-30T12:32:26.989Z</time></trkpt><trkpt lat="44.70511" lon="9.4449517"><ele>1129.0</ele><time>2026-04-30T12:32:28.992Z</time></trkpt><trkpt lat="44.7052267" lon="9.4449317"><ele>1129.0</ele><time>2026-04-30T12:32:30.99Z</time></trkpt><trkpt lat="44.70529" lon="9.444915"><ele>1129.0</ele><time>2026-04-30T12:32:31.989Z</time></trkpt><trkpt lat="44.70536" lon="9.4448917"><ele>1129.0</ele><time>2026-04-30T12:32:32.989Z</time></trkpt><trkpt lat="44.705435" lon="9.444865"><ele>1129.0</ele><time>2026-04-30T12:32:33.988Z</time></trkpt><trkpt lat="44.7055033" lon="9.4448333"><ele>1129.0</ele><time>2026-04-30T12:32:34.987Z</time></trkpt><trkpt lat="44.7055667" lon="9.4447817"><ele>1126.6666666666665</ele><time>2026-04-30T12:32:35.988Z</time></trkpt><trkpt lat="44.7056283" lon="9.4447117"><ele>1124.3333333333333</ele><time>2026-04-30T12:32:36.989Z</time></trkpt><trkpt lat="44.705685" lon="9.4446383"><ele>1122.0</ele><time>2026-04-30T12:32:37.988Z</time></trkpt><trkpt lat="44.7057367" lon="9.4445683"><ele>1119.6666666666667</ele><time>2026-04-30T12:32:38.988Z</time></trkpt><trkpt lat="44.7057867" lon="9.4445017"><ele>1117.3333333333335</ele><time>2026-04-30T12:32:39.993Z</time></trkpt><trkpt lat="44.7058283" lon="9.44443"><ele>1115.0</ele><time>2026-04-30T12:32:40.989Z</time></trkpt><trkpt lat="44.7058767" lon="9.4442783"><ele>1115.0</ele><time>2026-04-30T12:32:42.987Z</time></trkpt><trkpt lat="44.70593" lon="9.444135"><ele>1115.0</ele><time>2026-04-30T12:32:44.987Z</time></trkpt><trkpt lat="44.7059683" lon="9.4440517"><ele>1115.0</ele><time>2026-04-30T12:32:45.988Z</time></trkpt><trkpt lat="44.70601" lon="9.4439583"><ele>1115.0</ele><time>2026-04-30T12:32:46.987Z</time></trkpt><trkpt lat="44.70605" lon="9.4438667"><ele>1115.0</ele><time>2026-04-30T12:32:47.989Z</time></trkpt><trkpt lat="44.7060917" lon="9.4437733"><ele>1115.0</ele><time>2026-04-30T12:32:48.99Z</time></trkpt><trkpt lat="44.70614" lon="9.4436833"><ele>1112.0</ele><time>2026-04-30T12:32:49.992Z</time></trkpt><trkpt lat="44.706195" lon="9.4435983"><ele>1109.0</ele><time>2026-04-30T12:32:50.989Z</time></trkpt><trkpt lat="44.7062517" lon="9.4435167"><ele>1106.0</ele><time>2026-04-30T12:32:51.988Z</time></trkpt><trkpt lat="44.706305" lon="9.443445"><ele>1103.0</ele><time>2026-04-30T12:32:52.987Z</time></trkpt><trkpt lat="44.7063517" lon="9.443385"><ele>1100.0</ele><time>2026-04-30T12:32:53.986Z</time></trkpt><trkpt lat="44.7064433" lon="9.443265"><ele>1097.0</ele><time>2026-04-30T12:32:55.987Z</time></trkpt><trkpt lat="44.70652" lon="9.443145"><ele>1097.0</ele><time>2026-04-30T12:32:57.987Z</time></trkpt><trkpt lat="44.7066033" lon="9.4430267"><ele>1097.0</ele><time>2026-04-30T12:32:59.993Z</time></trkpt><trkpt lat="44.7067017" lon="9.4429367"><ele>1097.0</ele><time>2026-04-30T12:33:01.989Z</time></trkpt><trkpt lat="44.7068067" lon="9.442845"><ele>1097.0</ele><time>2026-04-30T12:33:03.988Z</time></trkpt><trkpt lat="44.706915" lon="9.442775"><ele>1092.1666666666667</ele><time>2026-04-30T12:33:05.988Z</time></trkpt><trkpt lat="44.707035" lon="9.44272"><ele>1087.3333333333335</ele><time>2026-04-30T12:33:07.988Z</time></trkpt><trkpt lat="44.7071083" lon="9.4426967"><ele>1082.5</ele><time>2026-04-30T12:33:08.987Z</time></trkpt><trkpt lat="44.70718" lon="9.4426617"><ele>1077.6666666666667</ele><time>2026-04-30T12:33:09.989Z</time></trkpt><trkpt lat="44.707245" lon="9.4426033"><ele>1072.8333333333333</ele><time>2026-04-30T12:33:10.987Z</time></trkpt><trkpt lat="44.70731" lon="9.44253"><ele>1068.0</ele><time>2026-04-30T12:33:11.994Z</time></trkpt><trkpt lat="44.7073817" lon="9.44246"><ele>1068.0</ele><time>2026-04-30T12:33:12.988Z</time></trkpt><trkpt lat="44.7074617" lon="9.4423917"><ele>1068.0</ele><time>2026-04-30T12:33:13.99Z</time></trkpt><trkpt lat="44.7075417" lon="9.4423233"><ele>1068.0</ele><time>2026-04-30T12:33:14.988Z</time></trkpt><trkpt lat="44.70762" lon="9.4422617"><ele>1068.0</ele><time>2026-04-30T12:33:15.987Z</time></trkpt><trkpt lat="44.7076967" lon="9.44221"><ele>1068.0</ele><time>2026-04-30T12:33:16.989Z</time></trkpt><trkpt lat="44.7077717" lon="9.442165"><ele>1068.0</ele><time>2026-04-30T12:33:17.987Z</time></trkpt><trkpt lat="44.7078417" lon="9.4421317"><ele>1067.8333333333333</ele><time>2026-04-30T12:33:18.988Z</time></trkpt><trkpt lat="44.7079067" lon="9.442105"><ele>1067.6666666666667</ele><time>2026-04-30T12:33:19.988Z</time></trkpt><trkpt lat="44.7079683" lon="9.4420767"><ele>1067.5</ele><time>2026-04-30T12:33:20.989Z</time></trkpt><trkpt lat="44.7080783" lon="9.442005"><ele>1067.3333333333335</ele><time>2026-04-30T12:33:22.987Z</time></trkpt><trkpt lat="44.7081333" lon="9.44196"><ele>1067.1666666666667</ele><time>2026-04-30T12:33:23.987Z</time></trkpt><trkpt lat="44.7081833" lon="9.4419017"><ele>1067.0</ele><time>2026-04-30T12:33:24.989Z</time></trkpt><trkpt lat="44.7082217" lon="9.441815"><ele>1067.0</ele><time>2026-04-30T12:33:25.988Z</time></trkpt><trkpt lat="44.708265" lon="9.441725"><ele>1067.0</ele><time>2026-04-30T12:33:26.988Z</time></trkpt><trkpt lat="44.7083267" lon="9.4416433"><ele>1067.0</ele><time>2026-04-30T12:33:27.987Z</time></trkpt><trkpt lat="44.7083917" lon="9.4415667"><ele>1067.0</ele><time>2026-04-30T12:33:28.987Z</time></trkpt><trkpt lat="44.708455" lon="9.44149"><ele>1067.0</ele><time>2026-04-30T12:33:29.993Z</time></trkpt><trkpt lat="44.7085167" lon="9.4414117"><ele>1067.0</ele><time>2026-04-30T12:33:30.989Z</time></trkpt><trkpt lat="44.7085783" lon="9.441335"><ele>1065.1666666666667</ele><time>2026-04-30T12:33:31.987Z</time></trkpt><trkpt lat="44.708645" lon="9.4412633"><ele>1063.3333333333335</ele><time>2026-04-30T12:33:32.989Z</time></trkpt><trkpt lat="44.7086983" lon="9.4411833"><ele>1061.5</ele><time>2026-04-30T12:33:33.987Z</time></trkpt><trkpt lat="44.7087433" lon="9.4410883"><ele>1059.6666666666667</ele><time>2026-04-30T12:33:34.988Z</time></trkpt><trkpt lat="44.7087883" lon="9.4409883"><ele>1057.8333333333333</ele><time>2026-04-30T12:33:35.987Z</time></trkpt><trkpt lat="44.7088367" lon="9.4408917"><ele>1056.0</ele><time>2026-04-30T12:33:36.987Z</time></trkpt><trkpt lat="44.708895" lon="9.44079"><ele>1056.0</ele><time>2026-04-30T12:33:37.989Z</time></trkpt><trkpt lat="44.7089467" lon="9.44068"><ele>1056.0</ele><time>2026-04-30T12:33:38.995Z</time></trkpt><trkpt lat="44.7089883" lon="9.4405633"><ele>1056.0</ele><time>2026-04-30T12:33:39.987Z</time></trkpt><trkpt lat="44.7090167" lon="9.4404417"><ele>1056.0</ele><time>2026-04-30T12:33:40.987Z</time></trkpt><trkpt lat="44.7090367" lon="9.4403183"><ele>1056.0</ele><time>2026-04-30T12:33:41.987Z</time></trkpt><trkpt lat="44.7090617" lon="9.440195"><ele>1056.1666666666667</ele><time>2026-04-30T12:33:42.988Z</time></trkpt><trkpt lat="44.7090983" lon="9.440075"><ele>1056.3333333333333</ele><time>2026-04-30T12:33:43.987Z</time></trkpt><trkpt lat="44.70914" lon="9.4399583"><ele>1056.5</ele><time>2026-04-30T12:33:44.993Z</time></trkpt><trkpt lat="44.7091817" lon="9.43984"><ele>1056.6666666666665</ele><time>2026-04-30T12:33:45.988Z</time></trkpt><trkpt lat="44.70922" lon="9.4397317"><ele>1056.8333333333333</ele><time>2026-04-30T12:33:46.988Z</time></trkpt><trkpt lat="44.7092533" lon="9.4396417"><ele>1057.0</ele><time>2026-04-30T12:33:47.989Z</time></trkpt><trkpt lat="44.7092833" lon="9.4395533"><ele>1056.6666666666665</ele><time>2026-04-30T12:33:48.988Z</time></trkpt><trkpt lat="44.7093133" lon="9.4394733"><ele>1056.3333333333333</ele><time>2026-04-30T12:33:49.987Z</time></trkpt><trkpt lat="44.70938" lon="9.43934"><ele>1056.0</ele><time>2026-04-30T12:33:51.992Z</time></trkpt><trkpt lat="44.709455" lon="9.439245"><ele>1055.6666666666667</ele><time>2026-04-30T12:33:53.987Z</time></trkpt><trkpt lat="44.7094867" lon="9.4391667"><ele>1055.3333333333335</ele><time>2026-04-30T12:33:55.99Z</time></trkpt><trkpt lat="44.70949" lon="9.439055"><ele>1055.0</ele><time>2026-04-30T12:33:57.988Z</time></trkpt><trkpt lat="44.7095267" lon="9.4389767"><ele>1053.5</ele><time>2026-04-30T12:33:59.988Z</time></trkpt><trkpt lat="44.7095983" lon="9.43888"><ele>1052.0</ele><time>2026-04-30T12:34:01.991Z</time></trkpt><trkpt lat="44.7096617" lon="9.438775"><ele>1050.5</ele><time>2026-04-30T12:34:03.991Z</time></trkpt><trkpt lat="44.7097033" lon="9.438695"><ele>1049.0</ele><time>2026-04-30T12:34:04.989Z</time></trkpt><trkpt lat="44.709755" lon="9.438595"><ele>1047.5</ele><time>2026-04-30T12:34:05.991Z</time></trkpt><trkpt lat="44.7097983" lon="9.4384883"><ele>1046.0</ele><time>2026-04-30T12:34:06.99Z</time></trkpt><trkpt lat="44.7098133" lon="9.4383633"><ele>1046.0</ele><time>2026-04-30T12:34:07.99Z</time></trkpt><trkpt lat="44.7098283" lon="9.4382383"><ele>1046.0</ele><time>2026-04-30T12:34:08.987Z</time></trkpt><trkpt lat="44.7098517" lon="9.4381133"><ele>1046.0</ele><time>2026-04-30T12:34:09.994Z</time></trkpt><trkpt lat="44.7098933" lon="9.438"><ele>1046.0</ele><time>2026-04-30T12:34:10.988Z</time></trkpt><trkpt lat="44.7099333" lon="9.43789"><ele>1046.0</ele><time>2026-04-30T12:34:11.989Z</time></trkpt><trkpt lat="44.7099667" lon="9.43779"><ele>1046.0</ele><time>2026-04-30T12:34:12.987Z</time></trkpt><trkpt lat="44.7100217" lon="9.437655"><ele>1047.3333333333335</ele><time>2026-04-30T12:34:14.988Z</time></trkpt><trkpt lat="44.7100633" lon="9.437545"><ele>1048.6666666666667</ele><time>2026-04-30T12:34:16.991Z</time></trkpt><trkpt lat="44.71006" lon="9.4374533"><ele>1050.0</ele><time>2026-04-30T12:34:18.987Z</time></trkpt><trkpt lat="44.7100417" lon="9.4373617"><ele>1051.3333333333333</ele><time>2026-04-30T12:34:20.988Z</time></trkpt><trkpt lat="44.7100383" lon="9.4372167"><ele>1052.6666666666665</ele><time>2026-04-30T12:34:22.988Z</time></trkpt><trkpt lat="44.71007" lon="9.4370933"><ele>1054.0</ele><time>2026-04-30T12:34:24.988Z</time></trkpt><trkpt lat="44.7101233" lon="9.4370133"><ele>1054.0</ele><time>2026-04-30T12:34:26.988Z</time></trkpt><trkpt lat="44.7101717" lon="9.436935"><ele>1054.0</ele><time>2026-04-30T12:34:28.989Z</time></trkpt><trkpt lat="44.710215" lon="9.43684"><ele>1054.0</ele><time>2026-04-30T12:34:30.987Z</time></trkpt><trkpt lat="44.7102733" lon="9.436685"><ele>1054.0</ele><time>2026-04-30T12:35:46.988Z</time></trkpt><trkpt lat="44.7103683" lon="9.4365617"><ele>1054.0</ele><time>2026-04-30T12:35:48.99Z</time></trkpt><trkpt lat="44.71041" lon="9.4364867"><ele>1055.0</ele><time>2026-04-30T12:35:49.991Z</time></trkpt><trkpt lat="44.71039" lon="9.436345"><ele>1056.0</ele><time>2026-04-30T12:35:51.99Z</time></trkpt><trkpt lat="44.71035" lon="9.4362133"><ele>1057.0</ele><time>2026-04-30T12:35:53.989Z</time></trkpt><trkpt lat="44.7103483" lon="9.43612"><ele>1058.0</ele><time>2026-04-30T12:35:54.991Z</time></trkpt><trkpt lat="44.7103717" lon="9.43594"><ele>1059.0</ele><time>2026-04-30T12:35:56.989Z</time></trkpt><trkpt lat="44.7103967" lon="9.43578"><ele>1059.0</ele><time>2026-04-30T12:35:58.989Z</time></trkpt><trkpt lat="44.7104133" lon="9.435625"><ele>1059.0</ele><time>2026-04-30T12:36:00.989Z</time></trkpt><trkpt lat="44.710415" lon="9.4354833"><ele>1059.0</ele><time>2026-04-30T12:36:02.989Z</time></trkpt><trkpt lat="44.7104067" lon="9.435345"><ele>1059.0</ele><time>2026-04-30T12:36:05.989Z</time></trkpt><trkpt lat="44.7104417" lon="9.4352183"><ele>1059.0</ele><time>2026-04-30T12:36:07.987Z</time></trkpt><trkpt lat="44.7104767" lon="9.4351383"><ele>1058.2</ele><time>2026-04-30T12:36:08.988Z</time></trkpt><trkpt lat="44.710525" lon="9.43504"><ele>1057.4</ele><time>2026-04-30T12:36:09.994Z</time></trkpt><trkpt lat="44.710575" lon="9.4349383"><ele>1056.6</ele><time>2026-04-30T12:36:10.988Z</time></trkpt><trkpt lat="44.7106283" lon="9.4348333"><ele>1055.8</ele><time>2026-04-30T12:36:11.987Z</time></trkpt><trkpt lat="44.7106767" lon="9.4347217"><ele>1055.0</ele><time>2026-04-30T12:36:12.987Z</time></trkpt><trkpt lat="44.7107283" lon="9.4345867"><ele>1052.8</ele><time>2026-04-30T12:36:13.987Z</time></trkpt><trkpt lat="44.7107867" lon="9.4344567"><ele>1050.6</ele><time>2026-04-30T12:36:14.989Z</time></trkpt><trkpt lat="44.7108433" lon="9.4343367"><ele>1048.4</ele><time>2026-04-30T12:36:15.989Z</time></trkpt><trkpt lat="44.710895" lon="9.4342317"><ele>1046.2</ele><time>2026-04-30T12:36:16.988Z</time></trkpt><trkpt lat="44.71094" lon="9.4341383"><ele>1044.0</ele><time>2026-04-30T12:36:17.988Z</time></trkpt><trkpt lat="44.7109783" lon="9.4340417"><ele>1044.0</ele><time>2026-04-30T12:36:18.99Z</time></trkpt><trkpt lat="44.71101" lon="9.433945"><ele>1044.0</ele><time>2026-04-30T12:36:19.989Z</time></trkpt><trkpt lat="44.711045" lon="9.4338517"><ele>1044.0</ele><time>2026-04-30T12:36:20.988Z</time></trkpt><trkpt lat="44.7110817" lon="9.4337733"><ele>1044.0</ele><time>2026-04-30T12:36:21.989Z</time></trkpt><trkpt lat="44.7111233" lon="9.4337067"><ele>1044.0</ele><time>2026-04-30T12:36:22.989Z</time></trkpt><trkpt lat="44.7111767" lon="9.433645"><ele>1044.0</ele><time>2026-04-30T12:36:23.995Z</time></trkpt><trkpt lat="44.71126" lon="9.4335183"><ele>1042.5714285714287</ele><time>2026-04-30T12:36:25.989Z</time></trkpt><trkpt lat="44.7113083" lon="9.4334583"><ele>1041.142857142857</ele><time>2026-04-30T12:36:26.988Z</time></trkpt><trkpt lat="44.7113667" lon="9.433415"><ele>1039.7142857142858</ele><time>2026-04-30T12:36:27.987Z</time></trkpt><trkpt lat="44.711425" lon="9.433375"><ele>1038.2857142857142</ele><time>2026-04-30T12:36:28.991Z</time></trkpt><trkpt lat="44.7114867" lon="9.433325"><ele>1036.857142857143</ele><time>2026-04-30T12:36:29.989Z</time></trkpt><trkpt lat="44.71154" lon="9.4332533"><ele>1035.4285714285716</ele><time>2026-04-30T12:36:30.987Z</time></trkpt><trkpt lat="44.7115733" lon="9.43317"><ele>1034.0</ele><time>2026-04-30T12:36:31.988Z</time></trkpt><trkpt lat="44.7115583" lon="9.4330317"><ele>1033.4</ele><time>2026-04-30T12:36:33.987Z</time></trkpt><trkpt lat="44.7114883" lon="9.4329433"><ele>1032.8000000000002</ele><time>2026-04-30T12:36:35.995Z</time></trkpt><trkpt lat="44.7113967" lon="9.4328667"><ele>1032.1999999999998</ele><time>2026-04-30T12:36:37.988Z</time></trkpt><trkpt lat="44.7113433" lon="9.4327383"><ele>1031.6</ele><time>2026-04-30T12:36:39.987Z</time></trkpt><trkpt lat="44.7113733" lon="9.43258"><ele>1031.0</ele><time>2026-04-30T12:36:41.987Z</time></trkpt><trkpt lat="44.7114167" lon="9.4325033"><ele>1031.0</ele><time>2026-04-30T12:36:42.986Z</time></trkpt><trkpt lat="44.7114617" lon="9.4324267"><ele>1031.0</ele><time>2026-04-30T12:36:43.986Z</time></trkpt><trkpt lat="44.7114983" lon="9.4323367"><ele>1031.0</ele><time>2026-04-30T12:36:44.987Z</time></trkpt><trkpt lat="44.7115317" lon="9.4322433"><ele>1031.0</ele><time>2026-04-30T12:36:45.987Z</time></trkpt><trkpt lat="44.7115667" lon="9.4321483"><ele>1031.0</ele><time>2026-04-30T12:36:46.994Z</time></trkpt><trkpt lat="44.7116033" lon="9.432055"><ele>1031.0</ele><time>2026-04-30T12:36:47.987Z</time></trkpt><trkpt lat="44.71165" lon="9.4319517"><ele>1029.3999999999999</ele><time>2026-04-30T12:36:48.988Z</time></trkpt><trkpt lat="44.7117083" lon="9.4318383"><ele>1027.8</ele><time>2026-04-30T12:36:49.988Z</time></trkpt><trkpt lat="44.7117617" lon="9.4317117"><ele>1026.1999999999998</ele><time>2026-04-30T12:36:50.991Z</time></trkpt><trkpt lat="44.711805" lon="9.43158"><ele>1024.6</ele><time>2026-04-30T12:36:51.988Z</time></trkpt><trkpt lat="44.711835" lon="9.43146"><ele>1023.0</ele><time>2026-04-30T12:36:52.988Z</time></trkpt><trkpt lat="44.7118617" lon="9.4313533"><ele>1021.5</ele><time>2026-04-30T12:36:53.987Z</time></trkpt><trkpt lat="44.7118833" lon="9.4312617"><ele>1020.0</ele><time>2026-04-30T12:36:54.986Z</time></trkpt><trkpt lat="44.7119" lon="9.4311033"><ele>1018.5</ele><time>2026-04-30T12:36:56.987Z</time></trkpt><trkpt lat="44.7119383" lon="9.4309583"><ele>1017.0</ele><time>2026-04-30T12:36:58.987Z</time></trkpt><trkpt lat="44.7119667" lon="9.43087"><ele>1015.5</ele><time>2026-04-30T12:36:59.988Z</time></trkpt><trkpt lat="44.7119967" lon="9.43078"><ele>1014.0</ele><time>2026-04-30T12:37:00.99Z</time></trkpt><trkpt lat="44.7120183" lon="9.430695"><ele>1014.0</ele><time>2026-04-30T12:37:01.988Z</time></trkpt><trkpt lat="44.7120267" lon="9.430605"><ele>1014.0</ele><time>2026-04-30T12:37:02.987Z</time></trkpt><trkpt lat="44.712055" lon="9.43044"><ele>1014.0</ele><time>2026-04-30T12:37:04.986Z</time></trkpt><trkpt lat="44.7120883" lon="9.4303617"><ele>1014.0</ele><time>2026-04-30T12:37:05.988Z</time></trkpt><trkpt lat="44.7121233" lon="9.4302783"><ele>1014.0</ele><time>2026-04-30T12:37:06.986Z</time></trkpt><trkpt lat="44.7121683" lon="9.4301933"><ele>1014.0</ele><time>2026-04-30T12:37:07.987Z</time></trkpt><trkpt lat="44.7122067" lon="9.4301"><ele>1013.3333333333334</ele><time>2026-04-30T12:37:08.988Z</time></trkpt><trkpt lat="44.7122467" lon="9.4300067"><ele>1012.6666666666667</ele><time>2026-04-30T12:37:09.986Z</time></trkpt><trkpt lat="44.71228" lon="9.4299083"><ele>1012.0</ele><time>2026-04-30T12:37:10.986Z</time></trkpt><trkpt lat="44.71231" lon="9.429815"><ele>1011.3333333333334</ele><time>2026-04-30T12:37:11.987Z</time></trkpt><trkpt lat="44.712345" lon="9.4297217"><ele>1010.6666666666667</ele><time>2026-04-30T12:37:12.988Z</time></trkpt><trkpt lat="44.71238" lon="9.429625"><ele>1010.0</ele><time>2026-04-30T12:37:13.99Z</time></trkpt><trkpt lat="44.7124117" lon="9.4295267"><ele>1008.2</ele><time>2026-04-30T12:37:14.988Z</time></trkpt><trkpt lat="44.7124383" lon="9.4294317"><ele>1006.4</ele><time>2026-04-30T12:37:15.994Z</time></trkpt><trkpt lat="44.7124567" lon="9.4293383"><ele>1004.5999999999999</ele><time>2026-04-30T12:37:16.988Z</time></trkpt><trkpt lat="44.71248" lon="9.4292433"><ele>1002.8</ele><time>2026-04-30T12:37:17.99Z</time></trkpt><trkpt lat="44.7125183" lon="9.4290767"><ele>1001.0</ele><time>2026-04-30T12:37:19.989Z</time></trkpt><trkpt lat="44.71254" lon="9.4288883"><ele>999.3333333333334</ele><time>2026-04-30T12:37:21.993Z</time></trkpt><trkpt lat="44.71255" lon="9.4287883"><ele>997.6666666666667</ele><time>2026-04-30T12:37:22.986Z</time></trkpt><trkpt lat="44.7125633" lon="9.4286217"><ele>996.0</ele><time>2026-04-30T12:37:24.988Z</time></trkpt><trkpt lat="44.7125833" lon="9.428495"><ele>994.3333333333333</ele><time>2026-04-30T12:37:26.987Z</time></trkpt><trkpt lat="44.7126233" lon="9.4284033"><ele>992.6666666666666</ele><time>2026-04-30T12:37:28.993Z</time></trkpt><trkpt lat="44.712665" lon="9.4283367"><ele>991.0</ele><time>2026-04-30T12:37:30.987Z</time></trkpt><trkpt lat="44.7127483" lon="9.4283133"><ele>987.8</ele><time>2026-04-30T12:37:32.993Z</time></trkpt><trkpt lat="44.712855" lon="9.428335"><ele>984.5999999999999</ele><time>2026-04-30T12:37:34.987Z</time></trkpt><trkpt lat="44.7129217" lon="9.4284117"><ele>981.4</ele><time>2026-04-30T12:37:36.989Z</time></trkpt><trkpt lat="44.7129283" lon="9.42856"><ele>978.2</ele><time>2026-04-30T12:37:38.988Z</time></trkpt><trkpt lat="44.7129017" lon="9.4287317"><ele>975.0</ele><time>2026-04-30T12:37:40.988Z</time></trkpt><trkpt lat="44.7128933" lon="9.428905"><ele>974.2857142857142</ele><time>2026-04-30T12:37:42.987Z</time></trkpt><trkpt lat="44.7128983" lon="9.4289967"><ele>973.5714285714284</ele><time>2026-04-30T12:37:43.987Z</time></trkpt><trkpt lat="44.712915" lon="9.4290867"><ele>972.8571428571429</ele><time>2026-04-30T12:37:44.988Z</time></trkpt><trkpt lat="44.712945" lon="9.4291767"><ele>972.1428571428571</ele><time>2026-04-30T12:37:45.987Z</time></trkpt><trkpt lat="44.7129767" lon="9.4292767"><ele>971.4285714285714</ele><time>2026-04-30T12:37:46.99Z</time></trkpt><trkpt lat="44.7130017" lon="9.4293783"><ele>970.7142857142858</ele><time>2026-04-30T12:37:47.986Z</time></trkpt><trkpt lat="44.7130133" lon="9.42947"><ele>970.0000000000001</ele><time>2026-04-30T12:37:48.987Z</time></trkpt><trkpt lat="44.7130267" lon="9.4295733"><ele>968.8333333333333</ele><time>2026-04-30T12:37:49.989Z</time></trkpt><trkpt lat="44.7130267" lon="9.4296833"><ele>967.6666666666666</ele><time>2026-04-30T12:37:50.99Z</time></trkpt><trkpt lat="44.7130133" lon="9.4297967"><ele>966.5</ele><time>2026-04-30T12:37:51.99Z</time></trkpt><trkpt lat="44.7129867" lon="9.4299017"><ele>965.3333333333333</ele><time>2026-04-30T12:37:52.987Z</time></trkpt><trkpt lat="44.712955" lon="9.43"><ele>964.1666666666666</ele><time>2026-04-30T12:37:53.986Z</time></trkpt><trkpt lat="44.7129267" lon="9.4301067"><ele>963.0</ele><time>2026-04-30T12:37:54.987Z</time></trkpt><trkpt lat="44.7129" lon="9.4302217"><ele>963.0</ele><time>2026-04-30T12:37:55.988Z</time></trkpt><trkpt lat="44.7128783" lon="9.4303433"><ele>963.0</ele><time>2026-04-30T12:37:56.997Z</time></trkpt><trkpt lat="44.7128533" lon="9.4304733"><ele>963.0</ele><time>2026-04-30T12:37:57.986Z</time></trkpt><trkpt lat="44.7128317" lon="9.4306083"><ele>963.0</ele><time>2026-04-30T12:37:58.987Z</time></trkpt><trkpt lat="44.7128117" lon="9.4307433"><ele>963.0</ele><time>2026-04-30T12:37:59.987Z</time></trkpt><trkpt lat="44.7127883" lon="9.4308817"><ele>961.2</ele><time>2026-04-30T12:38:00.989Z</time></trkpt><trkpt lat="44.7127667" lon="9.4310267"><ele>959.4</ele><time>2026-04-30T12:38:01.989Z</time></trkpt><trkpt lat="44.712745" lon="9.4311717"><ele>957.6000000000001</ele><time>2026-04-30T12:38:02.994Z</time></trkpt><trkpt lat="44.7127183" lon="9.4313167"><ele>955.8000000000001</ele><time>2026-04-30T12:38:03.988Z</time></trkpt><trkpt lat="44.7126767" lon="9.4314517"><ele>954.0</ele><time>2026-04-30T12:38:04.988Z</time></trkpt><trkpt lat="44.71264" lon="9.4315833"><ele>962.4000000000001</ele><time>2026-04-30T12:38:05.988Z</time></trkpt><trkpt lat="44.7126133" lon="9.4317183"><ele>970.8000000000001</ele><time>2026-04-30T12:38:06.99Z</time></trkpt><trkpt lat="44.7125917" lon="9.4318567"><ele>979.1999999999999</ele><time>2026-04-30T12:38:07.987Z</time></trkpt><trkpt lat="44.712565" lon="9.43199"><ele>987.5999999999999</ele><time>2026-04-30T12:38:08.987Z</time></trkpt><trkpt lat="44.712535" lon="9.4321233"><ele>996.0</ele><time>2026-04-30T12:38:09.989Z</time></trkpt><trkpt lat="44.7125033" lon="9.4322567"><ele>996.0</ele><time>2026-04-30T12:38:10.988Z</time></trkpt><trkpt lat="44.7124683" lon="9.432385"><ele>995.9999999999999</ele><time>2026-04-30T12:38:11.996Z</time></trkpt><trkpt lat="44.7124433" lon="9.4325167"><ele>995.9999999999999</ele><time>2026-04-30T12:38:12.988Z</time></trkpt><trkpt lat="44.7124267" lon="9.4326483"><ele>996.0</ele><time>2026-04-30T12:38:13.987Z</time></trkpt><trkpt lat="44.7124133" lon="9.4327817"><ele>996.0</ele><time>2026-04-30T12:38:14.988Z</time></trkpt><trkpt lat="44.7124017" lon="9.43292"><ele>992.0</ele><time>2026-04-30T12:38:15.988Z</time></trkpt><trkpt lat="44.712385" lon="9.4330617"><ele>987.9999999999999</ele><time>2026-04-30T12:38:16.991Z</time></trkpt><trkpt lat="44.712365" lon="9.4332033"><ele>983.9999999999999</ele><time>2026-04-30T12:38:17.988Z</time></trkpt><trkpt lat="44.7123383" lon="9.4333333"><ele>980.0</ele><time>2026-04-30T12:38:18.989Z</time></trkpt><trkpt lat="44.71231" lon="9.4334617"><ele>976.0</ele><time>2026-04-30T12:38:19.988Z</time></trkpt><trkpt lat="44.7122717" lon="9.4335933"><ele>976.0</ele><time>2026-04-30T12:38:20.99Z</time></trkpt><trkpt lat="44.7122367" lon="9.4337283"><ele>975.9999999999999</ele><time>2026-04-30T12:38:21.987Z</time></trkpt><trkpt lat="44.7122083" lon="9.4338667"><ele>975.9999999999999</ele><time>2026-04-30T12:38:22.987Z</time></trkpt><trkpt lat="44.7121783" lon="9.4340117"><ele>976.0</ele><time>2026-04-30T12:38:23.988Z</time></trkpt><trkpt lat="44.712145" lon="9.434155"><ele>976.0</ele><time>2026-04-30T12:38:24.988Z</time></trkpt><trkpt lat="44.7121217" lon="9.4343"><ele>973.5999999999999</ele><time>2026-04-30T12:38:25.987Z</time></trkpt><trkpt lat="44.7121033" lon="9.434445"><ele>971.1999999999999</ele><time>2026-04-30T12:38:26.99Z</time></trkpt><trkpt lat="44.712085" lon="9.4345867"><ele>968.8000000000001</ele><time>2026-04-30T12:38:27.99Z</time></trkpt><trkpt lat="44.7120633" lon="9.434725"><ele>966.4000000000001</ele><time>2026-04-30T12:38:28.988Z</time></trkpt><trkpt lat="44.7120433" lon="9.434865"><ele>964.0</ele><time>2026-04-30T12:38:29.988Z</time></trkpt><trkpt lat="44.7120267" lon="9.43501"><ele>962.2</ele><time>2026-04-30T12:38:30.995Z</time></trkpt><trkpt lat="44.712025" lon="9.4351433"><ele>960.4000000000001</ele><time>2026-04-30T12:38:31.988Z</time></trkpt><trkpt lat="44.71204" lon="9.4352683"><ele>958.6</ele><time>2026-04-30T12:38:32.987Z</time></trkpt><trkpt lat="44.7120683" lon="9.43539"><ele>956.8</ele><time>2026-04-30T12:38:33.987Z</time></trkpt><trkpt lat="44.71208" lon="9.4355183"><ele>955.0</ele><time>2026-04-30T12:38:34.987Z</time></trkpt><trkpt lat="44.71209" lon="9.43564"><ele>953.6666666666666</ele><time>2026-04-30T12:38:35.988Z</time></trkpt><trkpt lat="44.7120817" lon="9.43576"><ele>952.3333333333333</ele><time>2026-04-30T12:38:36.986Z</time></trkpt><trkpt lat="44.7120667" lon="9.4358767"><ele>951.0</ele><time>2026-04-30T12:38:37.991Z</time></trkpt><trkpt lat="44.7120433" lon="9.4359917"><ele>949.6666666666667</ele><time>2026-04-30T12:38:38.988Z</time></trkpt><trkpt lat="44.7120133" lon="9.4361033"><ele>948.3333333333334</ele><time>2026-04-30T12:38:39.988Z</time></trkpt><trkpt lat="44.7119683" lon="9.4362083"><ele>947.0</ele><time>2026-04-30T12:38:40.987Z</time></trkpt><trkpt lat="44.7119267" lon="9.43632"><ele>955.4000000000001</ele><time>2026-04-30T12:38:41.99Z</time></trkpt><trkpt lat="44.7118783" lon="9.4364283"><ele>963.8000000000001</ele><time>2026-04-30T12:38:42.988Z</time></trkpt><trkpt lat="44.7118267" lon="9.4365367"><ele>972.2</ele><time>2026-04-30T12:38:43.988Z</time></trkpt><trkpt lat="44.7117583" lon="9.43664"><ele>980.6</ele><time>2026-04-30T12:38:44.987Z</time></trkpt><trkpt lat="44.711675" lon="9.4367317"><ele>989.0</ele><time>2026-04-30T12:38:45.995Z</time></trkpt><trkpt lat="44.7115933" lon="9.4368233"><ele>989.0</ele><time>2026-04-30T12:38:46.987Z</time></trkpt><trkpt lat="44.71152" lon="9.43692"><ele>989.0000000000001</ele><time>2026-04-30T12:38:47.987Z</time></trkpt><trkpt lat="44.71145" lon="9.437015"><ele>989.0000000000001</ele><time>2026-04-30T12:38:48.988Z</time></trkpt><trkpt lat="44.711385" lon="9.43711"><ele>989.0</ele><time>2026-04-30T12:38:49.987Z</time></trkpt><trkpt lat="44.7113267" lon="9.4372067"><ele>989.0</ele><time>2026-04-30T12:38:50.992Z</time></trkpt><trkpt lat="44.7112617" lon="9.4373167"><ele>994.0</ele><time>2026-04-30T12:38:51.988Z</time></trkpt><trkpt lat="44.7111983" lon="9.43742"><ele>999.0000000000001</ele><time>2026-04-30T12:38:52.987Z</time></trkpt><trkpt lat="44.7111333" lon="9.437525"><ele>1004.0000000000001</ele><time>2026-04-30T12:38:53.988Z</time></trkpt><trkpt lat="44.7110633" lon="9.437645"><ele>1009.0</ele><time>2026-04-30T12:38:54.987Z</time></trkpt><trkpt lat="44.7109967" lon="9.4377567"><ele>1014.0</ele><time>2026-04-30T12:38:55.991Z</time></trkpt><trkpt lat="44.710925" lon="9.437875"><ele>1008.8000000000001</ele><time>2026-04-30T12:38:56.988Z</time></trkpt><trkpt lat="44.7108517" lon="9.4379933"><ele>1003.6000000000001</ele><time>2026-04-30T12:38:57.988Z</time></trkpt><trkpt lat="44.7107983" lon="9.438115"><ele>998.4</ele><time>2026-04-30T12:38:58.987Z</time></trkpt><trkpt lat="44.7107633" lon="9.43825"><ele>993.2</ele><time>2026-04-30T12:38:59.988Z</time></trkpt><trkpt lat="44.7107433" lon="9.438395"><ele>988.0</ele><time>2026-04-30T12:39:00.991Z</time></trkpt><trkpt lat="44.7107283" lon="9.4385433"><ele>988.0</ele><time>2026-04-30T12:39:01.989Z</time></trkpt><trkpt lat="44.7107083" lon="9.4386967"><ele>988.0</ele><time>2026-04-30T12:39:02.988Z</time></trkpt><trkpt lat="44.71068" lon="9.4388517"><ele>988.0</ele><time>2026-04-30T12:39:03.99Z</time></trkpt><trkpt lat="44.7106433" lon="9.4390033"><ele>988.0</ele><time>2026-04-30T12:39:04.988Z</time></trkpt><trkpt lat="44.7106033" lon="9.43916"><ele>983.0</ele><time>2026-04-30T12:39:05.987Z</time></trkpt><trkpt lat="44.7105583" lon="9.4393067"><ele>978.0</ele><time>2026-04-30T12:39:06.994Z</time></trkpt><trkpt lat="44.7105033" lon="9.4394483"><ele>973.0</ele><time>2026-04-30T12:39:07.987Z</time></trkpt><trkpt lat="44.7104483" lon="9.4395833"><ele>968.0</ele><time>2026-04-30T12:39:08.987Z</time></trkpt><trkpt lat="44.7103833" lon="9.4397083"><ele>963.0</ele><time>2026-04-30T12:39:09.99Z</time></trkpt><trkpt lat="44.7103017" lon="9.439815"><ele>973.5999999999999</ele><time>2026-04-30T12:39:10.987Z</time></trkpt><trkpt lat="44.7102133" lon="9.4399067"><ele>984.1999999999999</ele><time>2026-04-30T12:39:11.988Z</time></trkpt><trkpt lat="44.7101233" lon="9.439995"><ele>994.8</ele><time>2026-04-30T12:39:12.987Z</time></trkpt><trkpt lat="44.7100433" lon="9.440095"><ele>1005.4</ele><time>2026-04-30T12:39:13.993Z</time></trkpt><trkpt lat="44.709985" lon="9.4402167"><ele>1016.0</ele><time>2026-04-30T12:39:14.989Z</time></trkpt><trkpt lat="44.7099367" lon="9.4403433"><ele>1011.4</ele><time>2026-04-30T12:39:15.988Z</time></trkpt><trkpt lat="44.709905" lon="9.4404767"><ele>1006.8</ele><time>2026-04-30T12:39:16.987Z</time></trkpt><trkpt lat="44.7098833" lon="9.4406133"><ele>1002.1999999999999</ele><time>2026-04-30T12:39:17.988Z</time></trkpt><trkpt lat="44.7098767" lon="9.44075"><ele>997.5999999999999</ele><time>2026-04-30T12:39:18.987Z</time></trkpt><trkpt lat="44.7098817" lon="9.44089"><ele>993.0</ele><time>2026-04-30T12:39:19.988Z</time></trkpt><trkpt lat="44.7098883" lon="9.44103"><ele>993.0</ele><time>2026-04-30T12:39:20.991Z</time></trkpt><trkpt lat="44.709905" lon="9.4411717"><ele>993.0</ele><time>2026-04-30T12:39:21.988Z</time></trkpt><trkpt lat="44.70992" lon="9.441305"><ele>993.0</ele><time>2026-04-30T12:39:22.988Z</time></trkpt><trkpt lat="44.7099233" lon="9.4414417"><ele>993.0</ele><time>2026-04-30T12:39:23.989Z</time></trkpt><trkpt lat="44.7099117" lon="9.4415767"><ele>993.0</ele><time>2026-04-30T12:39:24.991Z</time></trkpt><trkpt lat="44.7098717" lon="9.44171"><ele>992.4</ele><time>2026-04-30T12:39:25.989Z</time></trkpt><trkpt lat="44.7098383" lon="9.4418367"><ele>991.8</ele><time>2026-04-30T12:39:26.99Z</time></trkpt><trkpt lat="44.709815" lon="9.4419583"><ele>991.2</ele><time>2026-04-30T12:39:27.988Z</time></trkpt><trkpt lat="44.70981" lon="9.442065"><ele>990.6</ele><time>2026-04-30T12:39:28.988Z</time></trkpt><trkpt lat="44.7098333" lon="9.4421517"><ele>990.0</ele><time>2026-04-30T12:39:29.992Z</time></trkpt><trkpt lat="44.709915" lon="9.4422983"><ele>990.0</ele><time>2026-04-30T12:39:31.987Z</time></trkpt><trkpt lat="44.7099683" lon="9.4423833"><ele>990.0</ele><time>2026-04-30T12:39:32.988Z</time></trkpt><trkpt lat="44.7100367" lon="9.4424633"><ele>990.0</ele><time>2026-04-30T12:39:33.987Z</time></trkpt><trkpt lat="44.7101017" lon="9.4424933"><ele>990.0</ele><time>2026-04-30T12:39:34.987Z</time></trkpt><trkpt lat="44.71017" lon="9.442485"><ele>990.0</ele><time>2026-04-30T12:39:35.987Z</time></trkpt><trkpt lat="44.7102283" lon="9.442415"><ele>990.0</ele><time>2026-04-30T12:39:36.987Z</time></trkpt><trkpt lat="44.7102783" lon="9.4422967"><ele>989.2</ele><time>2026-04-30T12:39:37.987Z</time></trkpt><trkpt lat="44.7103333" lon="9.4421683"><ele>988.4</ele><time>2026-04-30T12:39:38.99Z</time></trkpt><trkpt lat="44.7103867" lon="9.4420383"><ele>987.5999999999999</ele><time>2026-04-30T12:39:39.99Z</time></trkpt><trkpt lat="44.7104433" lon="9.4419233"><ele>986.8</ele><time>2026-04-30T12:39:40.992Z</time></trkpt><trkpt lat="44.710505" lon="9.441825"><ele>986.0</ele><time>2026-04-30T12:39:41.988Z</time></trkpt><trkpt lat="44.7105783" lon="9.441765"><ele>986.0</ele><time>2026-04-30T12:39:42.988Z</time></trkpt><trkpt lat="44.7106733" lon="9.441745"><ele>985.9999999999999</ele><time>2026-04-30T12:39:43.987Z</time></trkpt><trkpt lat="44.7107767" lon="9.441725"><ele>985.9999999999999</ele><time>2026-04-30T12:39:44.988Z</time></trkpt><trkpt lat="44.7108817" lon="9.4416883"><ele>986.0</ele><time>2026-04-30T12:39:45.995Z</time></trkpt><trkpt lat="44.7109783" lon="9.4416233"><ele>986.0</ele><time>2026-04-30T12:39:46.989Z</time></trkpt><trkpt lat="44.7110717" lon="9.441555"><ele>986.4</ele><time>2026-04-30T12:39:47.989Z</time></trkpt><trkpt lat="44.7111633" lon="9.4414967"><ele>986.8</ele><time>2026-04-30T12:39:48.992Z</time></trkpt><trkpt lat="44.7112533" lon="9.4414633"><ele>987.1999999999999</ele><time>2026-04-30T12:39:49.987Z</time></trkpt><trkpt lat="44.7113417" lon="9.4414617"><ele>987.5999999999999</ele><time>2026-04-30T12:39:50.995Z</time></trkpt><trkpt lat="44.7114267" lon="9.4415"><ele>988.0</ele><time>2026-04-30T12:39:51.989Z</time></trkpt><trkpt lat="44.7115" lon="9.4415717"><ele>988.0</ele><time>2026-04-30T12:39:52.987Z</time></trkpt><trkpt lat="44.711555" lon="9.44169"><ele>988.0</ele><time>2026-04-30T12:39:53.988Z</time></trkpt><trkpt lat="44.7115883" lon="9.4418183"><ele>988.0</ele><time>2026-04-30T12:39:54.987Z</time></trkpt><trkpt lat="44.7116133" lon="9.4419417"><ele>988.0</ele><time>2026-04-30T12:39:55.993Z</time></trkpt><trkpt lat="44.7116367" lon="9.4420617"><ele>988.0</ele><time>2026-04-30T12:39:56.987Z</time></trkpt><trkpt lat="44.7116617" lon="9.4421883"><ele>989.8</ele><time>2026-04-30T12:39:57.987Z</time></trkpt><trkpt lat="44.7116917" lon="9.44232"><ele>991.5999999999999</ele><time>2026-04-30T12:39:58.987Z</time></trkpt><trkpt lat="44.711725" lon="9.442455"><ele>993.4000000000001</ele><time>2026-04-30T12:39:59.988Z</time></trkpt><trkpt lat="44.711765" lon="9.442585"><ele>995.2</ele><time>2026-04-30T12:40:00.988Z</time></trkpt><trkpt lat="44.711815" lon="9.4427067"><ele>997.0</ele><time>2026-04-30T12:40:01.988Z</time></trkpt><trkpt lat="44.7118717" lon="9.4428133"><ele>997.8</ele><time>2026-04-30T12:40:02.991Z</time></trkpt><trkpt lat="44.7119417" lon="9.442905"><ele>998.6</ele><time>2026-04-30T12:40:03.988Z</time></trkpt><trkpt lat="44.7120267" lon="9.4429833"><ele>999.3999999999999</ele><time>2026-04-30T12:40:04.987Z</time></trkpt><trkpt lat="44.7121233" lon="9.44307"><ele>1000.1999999999999</ele><time>2026-04-30T12:40:05.988Z</time></trkpt><trkpt lat="44.712225" lon="9.4431583"><ele>1001.0</ele><time>2026-04-30T12:40:06.988Z</time></trkpt><trkpt lat="44.7123183" lon="9.4432417"><ele>1001.0</ele><time>2026-04-30T12:40:07.992Z</time></trkpt><trkpt lat="44.7123967" lon="9.4433283"><ele>1000.9999999999999</ele><time>2026-04-30T12:40:08.988Z</time></trkpt><trkpt lat="44.7124583" lon="9.443425"><ele>1000.9999999999999</ele><time>2026-04-30T12:40:09.988Z</time></trkpt><trkpt lat="44.7125017" lon="9.44353"><ele>1001.0</ele><time>2026-04-30T12:40:10.991Z</time></trkpt><trkpt lat="44.712535" lon="9.443645"><ele>1001.0</ele><time>2026-04-30T12:40:11.988Z</time></trkpt><trkpt lat="44.7125517" lon="9.44378"><ele>1001.5999999999999</ele><time>2026-04-30T12:40:12.987Z</time></trkpt><trkpt lat="44.7125483" lon="9.4439217"><ele>1002.1999999999999</ele><time>2026-04-30T12:40:13.988Z</time></trkpt><trkpt lat="44.7125233" lon="9.4440633"><ele>1002.8000000000001</ele><time>2026-04-30T12:40:14.988Z</time></trkpt><trkpt lat="44.71249" lon="9.4441967"><ele>1003.4000000000001</ele><time>2026-04-30T12:40:15.987Z</time></trkpt><trkpt lat="44.7124283" lon="9.4443217"><ele>1004.0</ele><time>2026-04-30T12:40:16.988Z</time></trkpt><trkpt lat="44.7123533" lon="9.4444367"><ele>1004.0</ele><time>2026-04-30T12:40:17.988Z</time></trkpt><trkpt lat="44.7122733" lon="9.4445283"><ele>1004.0000000000001</ele><time>2026-04-30T12:40:18.988Z</time></trkpt><trkpt lat="44.7122017" lon="9.4446233"><ele>1004.0000000000001</ele><time>2026-04-30T12:40:19.992Z</time></trkpt><trkpt lat="44.7121333" lon="9.444715"><ele>1004.0</ele><time>2026-04-30T12:40:20.989Z</time></trkpt><trkpt lat="44.71208" lon="9.444815"><ele>1004.0</ele><time>2026-04-30T12:40:21.99Z</time></trkpt><trkpt lat="44.7120283" lon="9.4449267"><ele>1003.6</ele><time>2026-04-30T12:40:22.987Z</time></trkpt><trkpt lat="44.7119783" lon="9.4450517"><ele>1003.2</ele><time>2026-04-30T12:40:23.988Z</time></trkpt><trkpt lat="44.7119333" lon="9.445185"><ele>1002.8000000000001</ele><time>2026-04-30T12:40:24.989Z</time></trkpt><trkpt lat="44.71189" lon="9.44531"><ele>1002.4000000000001</ele><time>2026-04-30T12:40:25.989Z</time></trkpt><trkpt lat="44.71186" lon="9.4454333"><ele>1002.0</ele><time>2026-04-30T12:40:26.989Z</time></trkpt><trkpt lat="44.71185" lon="9.445565"><ele>1005.4000000000001</ele><time>2026-04-30T12:40:27.987Z</time></trkpt><trkpt lat="44.71185" lon="9.4457067"><ele>1008.8000000000001</ele><time>2026-04-30T12:40:28.992Z</time></trkpt><trkpt lat="44.71185" lon="9.4458533"><ele>1012.2</ele><time>2026-04-30T12:40:29.989Z</time></trkpt><trkpt lat="44.7118483" lon="9.4460083"><ele>1015.6</ele><time>2026-04-30T12:40:30.987Z</time></trkpt><trkpt lat="44.7118433" lon="9.4461583"><ele>1019.0</ele><time>2026-04-30T12:40:31.989Z</time></trkpt><trkpt lat="44.7118367" lon="9.4462983"><ele>1020.2</ele><time>2026-04-30T12:40:32.988Z</time></trkpt><trkpt lat="44.7118433" lon="9.4464283"><ele>1021.4000000000001</ele><time>2026-04-30T12:40:33.995Z</time></trkpt><trkpt lat="44.7118667" lon="9.4465483"><ele>1022.6</ele><time>2026-04-30T12:40:34.987Z</time></trkpt><trkpt lat="44.7119083" lon="9.446665"><ele>1023.8</ele><time>2026-04-30T12:40:35.988Z</time></trkpt><trkpt lat="44.7119683" lon="9.4467817"><ele>1025.0</ele><time>2026-04-30T12:40:36.988Z</time></trkpt><trkpt lat="44.7120383" lon="9.4468867"><ele>1023.2</ele><time>2026-04-30T12:40:37.989Z</time></trkpt><trkpt lat="44.712115" lon="9.44699"><ele>1021.4</ele><time>2026-04-30T12:40:38.988Z</time></trkpt><trkpt lat="44.7121867" lon="9.4470833"><ele>1019.5999999999999</ele><time>2026-04-30T12:40:39.987Z</time></trkpt><trkpt lat="44.7122433" lon="9.4471783"><ele>1017.8</ele><time>2026-04-30T12:40:40.987Z</time></trkpt><trkpt lat="44.7122883" lon="9.4472833"><ele>1016.0</ele><time>2026-04-30T12:40:41.99Z</time></trkpt><trkpt lat="44.7123283" lon="9.4474"><ele>1016.0</ele><time>2026-04-30T12:40:42.988Z</time></trkpt><trkpt lat="44.712365" lon="9.4475267"><ele>1015.9999999999999</ele><time>2026-04-30T12:40:43.988Z</time></trkpt><trkpt lat="44.7123933" lon="9.44766"><ele>1015.9999999999999</ele><time>2026-04-30T12:40:44.987Z</time></trkpt><trkpt lat="44.7124133" lon="9.447785"><ele>1016.0</ele><time>2026-04-30T12:40:45.99Z</time></trkpt><trkpt lat="44.7124417" lon="9.4479083"><ele>1016.0</ele><time>2026-04-30T12:40:46.988Z</time></trkpt><trkpt lat="44.7124833" lon="9.448005"><ele>1016.3333333333334</ele><time>2026-04-30T12:40:47.991Z</time></trkpt><trkpt lat="44.7126" lon="9.4480667"><ele>1016.6666666666667</ele><time>2026-04-30T12:40:49.987Z</time></trkpt><trkpt lat="44.7126633" lon="9.4480517"><ele>1017.0</ele><time>2026-04-30T12:40:50.989Z</time></trkpt><trkpt lat="44.7127233" lon="9.448005"><ele>1017.3333333333333</ele><time>2026-04-30T12:40:51.989Z</time></trkpt><trkpt lat="44.7127917" lon="9.4479433"><ele>1017.6666666666666</ele><time>2026-04-30T12:40:52.989Z</time></trkpt><trkpt lat="44.7128617" lon="9.44788"><ele>1018.0</ele><time>2026-04-30T12:40:53.99Z</time></trkpt><trkpt lat="44.712945" lon="9.4478283"><ele>1018.0</ele><time>2026-04-30T12:40:54.991Z</time></trkpt><trkpt lat="44.7130383" lon="9.4477967"><ele>1018.0</ele><time>2026-04-30T12:40:55.99Z</time></trkpt><trkpt lat="44.7131433" lon="9.4477817"><ele>1018.0</ele><time>2026-04-30T12:40:56.991Z</time></trkpt><trkpt lat="44.7132567" lon="9.4477633"><ele>1018.0</ele><time>2026-04-30T12:40:57.989Z</time></trkpt><trkpt lat="44.7133733" lon="9.447725"><ele>1018.0</ele><time>2026-04-30T12:40:58.99Z</time></trkpt><trkpt lat="44.713485" lon="9.4476517"><ele>1020.0</ele><time>2026-04-30T12:40:59.989Z</time></trkpt><trkpt lat="44.7136" lon="9.4475617"><ele>1022.0</ele><time>2026-04-30T12:41:00.987Z</time></trkpt><trkpt lat="44.713715" lon="9.44747"><ele>1024.0</ele><time>2026-04-30T12:41:01.995Z</time></trkpt><trkpt lat="44.7138167" lon="9.4473917"><ele>1026.0</ele><time>2026-04-30T12:41:02.991Z</time></trkpt><trkpt lat="44.71392" lon="9.44732"><ele>1026.0</ele><time>2026-04-30T12:41:03.99Z</time></trkpt><trkpt lat="44.71402" lon="9.4472733"><ele>1026.0</ele><time>2026-04-30T12:41:04.988Z</time></trkpt><trkpt lat="44.71412" lon="9.447245"><ele>1026.0</ele><time>2026-04-30T12:41:05.989Z</time></trkpt><trkpt lat="44.7142183" lon="9.4472617"><ele>1026.0</ele><time>2026-04-30T12:41:06.996Z</time></trkpt><trkpt lat="44.71432" lon="9.447295"><ele>1026.0</ele><time>2026-04-30T12:41:07.988Z</time></trkpt><trkpt lat="44.7144233" lon="9.4473317"><ele>1027.3333333333333</ele><time>2026-04-30T12:41:08.987Z</time></trkpt><trkpt lat="44.71452" lon="9.4473567"><ele>1028.6666666666667</ele><time>2026-04-30T12:41:09.987Z</time></trkpt><trkpt lat="44.7146167" lon="9.4473767"><ele>1030.0</ele><time>2026-04-30T12:41:10.987Z</time></trkpt><trkpt lat="44.714705" lon="9.447395"><ele>1031.3333333333335</ele><time>2026-04-30T12:41:11.988Z</time></trkpt><trkpt lat="44.7147867" lon="9.4474217"><ele>1032.6666666666667</ele><time>2026-04-30T12:41:12.987Z</time></trkpt><trkpt lat="44.7148633" lon="9.44744"><ele>1034.0</ele><time>2026-04-30T12:41:13.988Z</time></trkpt><trkpt lat="44.7149267" lon="9.4474433"><ele>1034.0</ele><time>2026-04-30T12:41:14.989Z</time></trkpt><trkpt lat="44.7150017" lon="9.4473783"><ele>1034.0</ele><time>2026-04-30T12:41:16.988Z</time></trkpt><trkpt lat="44.7150917" lon="9.4472367"><ele>1034.0</ele><time>2026-04-30T12:41:18.989Z</time></trkpt><trkpt lat="44.71516" lon="9.4471367"><ele>1034.0</ele><time>2026-04-30T12:41:19.989Z</time></trkpt><trkpt lat="44.7152417" lon="9.4470283"><ele>1034.0</ele><time>2026-04-30T12:41:20.989Z</time></trkpt><trkpt lat="44.71533" lon="9.44692"><ele>1035.0</ele><time>2026-04-30T12:41:21.99Z</time></trkpt><trkpt lat="44.7154117" lon="9.44681"><ele>1036.0</ele><time>2026-04-30T12:41:22.99Z</time></trkpt><trkpt lat="44.7154733" lon="9.4466933"><ele>1037.0</ele><time>2026-04-30T12:41:23.99Z</time></trkpt><trkpt lat="44.7155183" lon="9.446565"><ele>1038.0</ele><time>2026-04-30T12:41:24.993Z</time></trkpt><trkpt lat="44.7155567" lon="9.4464333"><ele>1039.0</ele><time>2026-04-30T12:41:25.987Z</time></trkpt><trkpt lat="44.715595" lon="9.4463017"><ele>1036.6000000000001</ele><time>2026-04-30T12:41:26.989Z</time></trkpt><trkpt lat="44.7156367" lon="9.4461683"><ele>1034.2</ele><time>2026-04-30T12:41:27.988Z</time></trkpt><trkpt lat="44.7156817" lon="9.4460417"><ele>1031.8000000000002</ele><time>2026-04-30T12:41:28.987Z</time></trkpt><trkpt lat="44.7157217" lon="9.44592"><ele>1029.4</ele><time>2026-04-30T12:41:29.989Z</time></trkpt><trkpt lat="44.7157583" lon="9.4458117"><ele>1027.0</ele><time>2026-04-30T12:41:30.988Z</time></trkpt><trkpt lat="44.7157933" lon="9.4457167"><ele>1027.0</ele><time>2026-04-30T12:41:31.992Z</time></trkpt><trkpt lat="44.715825" lon="9.4456233"><ele>1027.0</ele><time>2026-04-30T12:41:32.991Z</time></trkpt><trkpt lat="44.7158517" lon="9.445535"><ele>1027.0</ele><time>2026-04-30T12:41:33.987Z</time></trkpt><trkpt lat="44.7158717" lon="9.44544"><ele>1027.0</ele><time>2026-04-30T12:41:34.988Z</time></trkpt><trkpt lat="44.715895" lon="9.4453483"><ele>1027.0</ele><time>2026-04-30T12:41:35.989Z</time></trkpt><trkpt lat="44.7159283" lon="9.4452567"><ele>1027.0</ele><time>2026-04-30T12:41:36.99Z</time></trkpt><trkpt lat="44.7159683" lon="9.4451767"><ele>1027.0</ele><time>2026-04-30T12:41:37.99Z</time></trkpt><trkpt lat="44.7160233" lon="9.445105"><ele>1026.6666666666665</ele><time>2026-04-30T12:41:38.99Z</time></trkpt><trkpt lat="44.7160933" lon="9.4450383"><ele>1026.3333333333333</ele><time>2026-04-30T12:41:39.991Z</time></trkpt><trkpt lat="44.71617" lon="9.4449783"><ele>1026.0</ele><time>2026-04-30T12:41:40.989Z</time></trkpt><trkpt lat="44.7162517" lon="9.444935"><ele>1025.6666666666667</ele><time>2026-04-30T12:41:41.988Z</time></trkpt><trkpt lat="44.71633" lon="9.4449"><ele>1025.3333333333335</ele><time>2026-04-30T12:41:42.988Z</time></trkpt><trkpt lat="44.7164117" lon="9.4448583"><ele>1025.0</ele><time>2026-04-30T12:41:43.988Z</time></trkpt><trkpt lat="44.71648" lon="9.4447917"><ele>1025.0</ele><time>2026-04-30T12:41:44.997Z</time></trkpt><trkpt lat="44.71653" lon="9.4446983"><ele>1025.0</ele><time>2026-04-30T12:41:45.988Z</time></trkpt><trkpt lat="44.7165617" lon="9.444585"><ele>1025.0</ele><time>2026-04-30T12:41:46.989Z</time></trkpt><trkpt lat="44.7165883" lon="9.4444667"><ele>1025.0</ele><time>2026-04-30T12:41:47.99Z</time></trkpt><trkpt lat="44.716625" lon="9.4443583"><ele>1025.0</ele><time>2026-04-30T12:41:48.988Z</time></trkpt><trkpt lat="44.716675" lon="9.4442533"><ele>1025.0</ele><time>2026-04-30T12:41:49.988Z</time></trkpt><trkpt lat="44.7167367" lon="9.44415"><ele>1023.4</ele><time>2026-04-30T12:41:50.987Z</time></trkpt><trkpt lat="44.71681" lon="9.4440567"><ele>1021.8</ele><time>2026-04-30T12:41:51.995Z</time></trkpt><trkpt lat="44.7168933" lon="9.443985"><ele>1020.2</ele><time>2026-04-30T12:41:52.991Z</time></trkpt><trkpt lat="44.71698" lon="9.4439333"><ele>1018.6</ele><time>2026-04-30T12:41:53.99Z</time></trkpt><trkpt lat="44.7170683" lon="9.4439067"><ele>1017.0</ele><time>2026-04-30T12:41:54.988Z</time></trkpt><trkpt lat="44.7171567" lon="9.4438933"><ele>1017.0</ele><time>2026-04-30T12:41:55.987Z</time></trkpt><trkpt lat="44.717245" lon="9.4438683"><ele>1017.0</ele><time>2026-04-30T12:41:56.994Z</time></trkpt><trkpt lat="44.717325" lon="9.443805"><ele>1017.0</ele><time>2026-04-30T12:41:57.988Z</time></trkpt><trkpt lat="44.7173817" lon="9.4437117"><ele>1017.0</ele><time>2026-04-30T12:41:58.988Z</time></trkpt><trkpt lat="44.7174183" lon="9.4436"><ele>1017.0</ele><time>2026-04-30T12:41:59.989Z</time></trkpt><trkpt lat="44.7174383" lon="9.4434883"><ele>1017.0</ele><time>2026-04-30T12:42:00.988Z</time></trkpt><trkpt lat="44.717455" lon="9.4433683"><ele>1015.6</ele><time>2026-04-30T12:42:01.987Z</time></trkpt><trkpt lat="44.7174733" lon="9.443235"><ele>1014.2</ele><time>2026-04-30T12:42:02.987Z</time></trkpt><trkpt lat="44.717495" lon="9.4430967"><ele>1012.8</ele><time>2026-04-30T12:42:03.988Z</time></trkpt><trkpt lat="44.717515" lon="9.4429533"><ele>1011.4</ele><time>2026-04-30T12:42:04.987Z</time></trkpt><trkpt lat="44.7175317" lon="9.4428183"><ele>1010.0</ele><time>2026-04-30T12:42:05.992Z</time></trkpt><trkpt lat="44.71756" lon="9.44269"><ele>1009.0</ele><time>2026-04-30T12:42:06.987Z</time></trkpt><trkpt lat="44.717605" lon="9.4425683"><ele>1008.0</ele><time>2026-04-30T12:42:07.988Z</time></trkpt><trkpt lat="44.71767" lon="9.4424533"><ele>1007.0</ele><time>2026-04-30T12:42:08.988Z</time></trkpt><trkpt lat="44.7177617" lon="9.442345"><ele>1006.0</ele><time>2026-04-30T12:42:09.987Z</time></trkpt><trkpt lat="44.7178683" lon="9.442225"><ele>1008.75</ele><time>2026-04-30T12:42:10.987Z</time></trkpt><trkpt lat="44.7179767" lon="9.442085"><ele>1011.5</ele><time>2026-04-30T12:42:11.987Z</time></trkpt><trkpt lat="44.7180717" lon="9.4419367"><ele>1014.25</ele><time>2026-04-30T12:42:12.996Z</time></trkpt><trkpt lat="44.7181583" lon="9.4417833"><ele>1017.0</ele><time>2026-04-30T12:42:13.987Z</time></trkpt><trkpt lat="44.7182317" lon="9.4416217"><ele>1017.0</ele><time>2026-04-30T12:42:14.989Z</time></trkpt><trkpt lat="44.71828" lon="9.4414383"><ele>1017.0</ele><time>2026-04-30T12:42:15.989Z</time></trkpt><trkpt lat="44.718305" lon="9.44124"><ele>1017.0</ele><time>2026-04-30T12:42:16.99Z</time></trkpt><trkpt lat="44.718325" lon="9.44105"><ele>1017.0</ele><time>2026-04-30T12:42:17.988Z</time></trkpt><trkpt lat="44.71835" lon="9.4408667"><ele>1014.25</ele><time>2026-04-30T12:42:18.992Z</time></trkpt><trkpt lat="44.718385" lon="9.4406967"><ele>1011.5</ele><time>2026-04-30T12:42:19.988Z</time></trkpt><trkpt lat="44.7184283" lon="9.4405417"><ele>1008.75</ele><time>2026-04-30T12:42:20.988Z</time></trkpt><trkpt lat="44.7184767" lon="9.4404017"><ele>1006.0</ele><time>2026-04-30T12:42:21.989Z</time></trkpt><trkpt lat="44.7185283" lon="9.440265"><ele>1007.1999999999999</ele><time>2026-04-30T12:42:22.987Z</time></trkpt><trkpt lat="44.71861" lon="9.4401667"><ele>1008.3999999999999</ele><time>2026-04-30T12:42:23.987Z</time></trkpt><trkpt lat="44.7187117" lon="9.4401367"><ele>1009.6</ele><time>2026-04-30T12:42:24.989Z</time></trkpt><trkpt lat="44.71882" lon="9.4401317"><ele>1010.8</ele><time>2026-04-30T12:42:25.995Z</time></trkpt><trkpt lat="44.7189367" lon="9.4401017"><ele>1012.0</ele><time>2026-04-30T12:42:26.989Z</time></trkpt><trkpt lat="44.71905" lon="9.44002"><ele>1012.0</ele><time>2026-04-30T12:42:27.988Z</time></trkpt><trkpt lat="44.7191467" lon="9.4399033"><ele>1012.0</ele><time>2026-04-30T12:42:28.989Z</time></trkpt><trkpt lat="44.7192267" lon="9.4397733"><ele>1012.0</ele><time>2026-04-30T12:42:29.988Z</time></trkpt><trkpt lat="44.7192917" lon="9.4396317"><ele>1012.0</ele><time>2026-04-30T12:42:30.994Z</time></trkpt><trkpt lat="44.71934" lon="9.4394833"><ele>1008.25</ele><time>2026-04-30T12:42:31.988Z</time></trkpt><trkpt lat="44.7193617" lon="9.4393217"><ele>1004.5</ele><time>2026-04-30T12:42:32.988Z</time></trkpt><trkpt lat="44.7193717" lon="9.43915"><ele>1000.75</ele><time>2026-04-30T12:42:33.988Z</time></trkpt><trkpt lat="44.7193717" lon="9.4389767"><ele>997.0</ele><time>2026-04-30T12:42:34.991Z</time></trkpt><trkpt lat="44.7193533" lon="9.438805"><ele>996.75</ele><time>2026-04-30T12:42:35.988Z</time></trkpt><trkpt lat="44.7193217" lon="9.4386367"><ele>996.5</ele><time>2026-04-30T12:42:36.989Z</time></trkpt><trkpt lat="44.719285" lon="9.438475"><ele>996.25</ele><time>2026-04-30T12:42:37.988Z</time></trkpt><trkpt lat="44.71925" lon="9.43832"><ele>996.0</ele><time>2026-04-30T12:42:38.991Z</time></trkpt><trkpt lat="44.7192217" lon="9.438165"><ele>996.0</ele><time>2026-04-30T12:42:39.988Z</time></trkpt><trkpt lat="44.719195" lon="9.4380167"><ele>995.9999999999999</ele><time>2026-04-30T12:42:40.994Z</time></trkpt><trkpt lat="44.7191633" lon="9.437875"><ele>995.9999999999999</ele><time>2026-04-30T12:42:41.988Z</time></trkpt><trkpt lat="44.7191283" lon="9.4377367"><ele>996.0</ele><time>2026-04-30T12:42:42.989Z</time></trkpt><trkpt lat="44.7190883" lon="9.4375983"><ele>996.0</ele><time>2026-04-30T12:42:43.988Z</time></trkpt><trkpt lat="44.71905" lon="9.4374667"><ele>996.1999999999999</ele><time>2026-04-30T12:42:44.989Z</time></trkpt><trkpt lat="44.7190133" lon="9.4373317"><ele>996.3999999999999</ele><time>2026-04-30T12:42:45.988Z</time></trkpt><trkpt lat="44.71899" lon="9.4371867"><ele>996.6</ele><time>2026-04-30T12:42:46.988Z</time></trkpt><trkpt lat="44.7189883" lon="9.4370367"><ele>996.8</ele><time>2026-04-30T12:42:47.99Z</time></trkpt><trkpt lat="44.7190017" lon="9.4368867"><ele>997.0</ele><time>2026-04-30T12:42:48.989Z</time></trkpt><trkpt lat="44.7190283" lon="9.4367383"><ele>995.75</ele><time>2026-04-30T12:42:49.987Z</time></trkpt><trkpt lat="44.719065" lon="9.43659"><ele>994.5</ele><time>2026-04-30T12:42:50.989Z</time></trkpt><trkpt lat="44.7191033" lon="9.43644"><ele>993.25</ele><time>2026-04-30T12:42:51.994Z</time></trkpt><trkpt lat="44.7191433" lon="9.43629"><ele>992.0</ele><time>2026-04-30T12:42:52.988Z</time></trkpt><trkpt lat="44.71918" lon="9.436135"><ele>987.75</ele><time>2026-04-30T12:42:53.988Z</time></trkpt><trkpt lat="44.7192133" lon="9.43598"><ele>983.5</ele><time>2026-04-30T12:42:54.988Z</time></trkpt><trkpt lat="44.7192433" lon="9.4358183"><ele>979.25</ele><time>2026-04-30T12:42:55.988Z</time></trkpt><trkpt lat="44.7192767" lon="9.43566"><ele>975.0</ele><time>2026-04-30T12:42:56.99Z</time></trkpt><trkpt lat="44.7193183" lon="9.4355067"><ele>976.25</ele><time>2026-04-30T12:42:57.989Z</time></trkpt><trkpt lat="44.7193783" lon="9.4353667"><ele>977.5</ele><time>2026-04-30T12:42:58.992Z</time></trkpt><trkpt lat="44.719455" lon="9.4352383"><ele>978.75</ele><time>2026-04-30T12:42:59.987Z</time></trkpt><trkpt lat="44.7195367" lon="9.4351083"><ele>980.0</ele><time>2026-04-30T12:43:00.987Z</time></trkpt><trkpt lat="44.7196167" lon="9.4349783"><ele>980.0</ele><time>2026-04-30T12:43:01.989Z</time></trkpt><trkpt lat="44.71969" lon="9.43484"><ele>980.0</ele><time>2026-04-30T12:43:02.987Z</time></trkpt><trkpt lat="44.7197567" lon="9.4347133"><ele>980.0</ele><time>2026-04-30T12:43:03.993Z</time></trkpt><trkpt lat="44.719825" lon="9.4345967"><ele>980.0</ele><time>2026-04-30T12:43:04.987Z</time></trkpt><trkpt lat="44.719905" lon="9.4345217"><ele>980.0</ele><time>2026-04-30T12:43:05.991Z</time></trkpt><trkpt lat="44.72" lon="9.434495"><ele>981.25</ele><time>2026-04-30T12:43:06.988Z</time></trkpt><trkpt lat="44.7201133" lon="9.4345117"><ele>982.5</ele><time>2026-04-30T12:43:07.987Z</time></trkpt><trkpt lat="44.720235" lon="9.43455"><ele>983.75</ele><time>2026-04-30T12:43:08.99Z</time></trkpt><trkpt lat="44.7203667" lon="9.4345967"><ele>985.0</ele><time>2026-04-30T12:43:09.989Z</time></trkpt><trkpt lat="44.7205033" lon="9.434645"><ele>985.0</ele><time>2026-04-30T12:43:10.989Z</time></trkpt><trkpt lat="44.7206367" lon="9.4346833"><ele>985.0</ele><time>2026-04-30T12:43:11.988Z</time></trkpt><trkpt lat="44.7207667" lon="9.4347133"><ele>985.0</ele><time>2026-04-30T12:43:12.989Z</time></trkpt><trkpt lat="44.7208867" lon="9.43473"><ele>985.0</ele><time>2026-04-30T12:43:13.989Z</time></trkpt><trkpt lat="44.721005" lon="9.43474"><ele>984.2</ele><time>2026-04-30T12:43:14.989Z</time></trkpt><trkpt lat="44.7211133" lon="9.4347267"><ele>983.4</ele><time>2026-04-30T12:43:15.994Z</time></trkpt><trkpt lat="44.721215" lon="9.4346833"><ele>982.5999999999999</ele><time>2026-04-30T12:43:16.988Z</time></trkpt><trkpt lat="44.7213133" lon="9.4346233"><ele>981.8</ele><time>2026-04-30T12:43:17.987Z</time></trkpt><trkpt lat="44.7214083" lon="9.4345617"><ele>981.0</ele><time>2026-04-30T12:43:18.988Z</time></trkpt><trkpt lat="44.721505" lon="9.4345017"><ele>977.0</ele><time>2026-04-30T12:43:19.99Z</time></trkpt><trkpt lat="44.7216067" lon="9.434445"><ele>972.9999999999999</ele><time>2026-04-30T12:43:20.994Z</time></trkpt><trkpt lat="44.7217083" lon="9.4344083"><ele>968.9999999999999</ele><time>2026-04-30T12:43:21.987Z</time></trkpt><trkpt lat="44.72181" lon="9.434415"><ele>965.0</ele><time>2026-04-30T12:43:22.988Z</time></trkpt><trkpt lat="44.72191" lon="9.434455"><ele>961.0</ele><time>2026-04-30T12:43:23.987Z</time></trkpt><trkpt lat="44.7220033" lon="9.4345017"><ele>959.8</ele><time>2026-04-30T12:43:24.989Z</time></trkpt><trkpt lat="44.7220917" lon="9.4345483"><ele>958.5999999999999</ele><time>2026-04-30T12:43:25.995Z</time></trkpt><trkpt lat="44.72219" lon="9.434595"><ele>957.4</ele><time>2026-04-30T12:43:26.992Z</time></trkpt><trkpt lat="44.72229" lon="9.4346367"><ele>956.2</ele><time>2026-04-30T12:43:27.988Z</time></trkpt><trkpt lat="44.7223933" lon="9.434675"><ele>955.0</ele><time>2026-04-30T12:43:28.988Z</time></trkpt><trkpt lat="44.7224967" lon="9.4347167"><ele>959.0</ele><time>2026-04-30T12:43:29.989Z</time></trkpt><trkpt lat="44.722595" lon="9.4347667"><ele>963.0</ele><time>2026-04-30T12:43:30.989Z</time></trkpt><trkpt lat="44.72269" lon="9.4348167"><ele>967.0</ele><time>2026-04-30T12:43:31.988Z</time></trkpt><trkpt lat="44.7227817" lon="9.4348483"><ele>971.0</ele><time>2026-04-30T12:43:32.988Z</time></trkpt><trkpt lat="44.72287" lon="9.4348517"><ele>975.0</ele><time>2026-04-30T12:43:33.989Z</time></trkpt><trkpt lat="44.7229483" lon="9.434825"><ele>975.0</ele><time>2026-04-30T12:43:34.994Z</time></trkpt><trkpt lat="44.7230217" lon="9.4347783"><ele>975.0</ele><time>2026-04-30T12:43:35.988Z</time></trkpt><trkpt lat="44.7230917" lon="9.4347283"><ele>975.0</ele><time>2026-04-30T12:43:36.988Z</time></trkpt><trkpt lat="44.7231567" lon="9.4346867"><ele>975.0</ele><time>2026-04-30T12:43:37.989Z</time></trkpt><trkpt lat="44.7232217" lon="9.434655"><ele>975.0</ele><time>2026-04-30T12:43:38.989Z</time></trkpt><trkpt lat="44.7233333" lon="9.4346283"><ele>975.0</ele><time>2026-04-30T12:43:40.987Z</time></trkpt><trkpt lat="44.7234067" lon="9.4346383"><ele>975.0</ele><time>2026-04-30T12:43:42.99Z</time></trkpt><trkpt lat="44.7234833" lon="9.4346933"><ele>975.0</ele><time>2026-04-30T12:44:57.986Z</time></trkpt><trkpt lat="44.72352" lon="9.4347883"><ele>975.0</ele><time>2026-04-30T12:44:59.988Z</time></trkpt><trkpt lat="44.7235367" lon="9.4349067"><ele>975.0</ele><time>2026-04-30T12:45:01.987Z</time></trkpt><trkpt lat="44.7235833" lon="9.4349667"><ele>975.0</ele><time>2026-04-30T12:45:03.987Z</time></trkpt><trkpt lat="44.7236017" lon="9.4348467"><ele>975.0</ele><time>2026-04-30T12:45:06.987Z</time></trkpt><trkpt lat="44.7235633" lon="9.4347217"><ele>972.6</ele><time>2026-04-30T12:45:08.988Z</time></trkpt><trkpt lat="44.7235417" lon="9.4346017"><ele>970.2</ele><time>2026-04-30T12:45:10.988Z</time></trkpt><trkpt lat="44.7235767" lon="9.4344683"><ele>967.8</ele><time>2026-04-30T12:45:12.987Z</time></trkpt><trkpt lat="44.7235817" lon="9.4343567"><ele>965.4</ele><time>2026-04-30T12:45:13.988Z</time></trkpt><trkpt lat="44.723565" lon="9.4342233"><ele>963.0</ele><time>2026-04-30T12:45:14.991Z</time></trkpt><trkpt lat="44.7235317" lon="9.4341"><ele>963.0</ele><time>2026-04-30T12:45:15.987Z</time></trkpt><trkpt lat="44.7234833" lon="9.43398"><ele>963.0</ele><time>2026-04-30T12:45:16.99Z</time></trkpt><trkpt lat="44.7234283" lon="9.4338583"><ele>963.0</ele><time>2026-04-30T12:45:17.986Z</time></trkpt><trkpt lat="44.723385" lon="9.4337517"><ele>963.0</ele><time>2026-04-30T12:45:18.987Z</time></trkpt><trkpt lat="44.72335" lon="9.4336583"><ele>963.0</ele><time>2026-04-30T12:45:19.989Z</time></trkpt><trkpt lat="44.7233017" lon="9.43353"><ele>962.4</ele><time>2026-04-30T12:45:21.988Z</time></trkpt><trkpt lat="44.723285" lon="9.4334233"><ele>961.8</ele><time>2026-04-30T12:45:23.987Z</time></trkpt><trkpt lat="44.72328" lon="9.43329"><ele>961.2</ele><time>2026-04-30T12:45:25.988Z</time></trkpt><trkpt lat="44.72329" lon="9.433115"><ele>960.6</ele><time>2026-04-30T12:45:27.995Z</time></trkpt><trkpt lat="44.7233083" lon="9.4330117"><ele>960.0</ele><time>2026-04-30T12:45:28.99Z</time></trkpt><trkpt lat="44.7233467" lon="9.4329"><ele>960.8</ele><time>2026-04-30T12:45:29.988Z</time></trkpt><trkpt lat="44.7233967" lon="9.43278"><ele>961.6</ele><time>2026-04-30T12:45:30.987Z</time></trkpt><trkpt lat="44.72345" lon="9.43266"><ele>962.4000000000001</ele><time>2026-04-30T12:45:31.988Z</time></trkpt><trkpt lat="44.7235017" lon="9.43254"><ele>963.2</ele><time>2026-04-30T12:45:32.997Z</time></trkpt><trkpt lat="44.7235417" lon="9.4324233"><ele>964.0</ele><time>2026-04-30T12:45:33.987Z</time></trkpt><trkpt lat="44.7235667" lon="9.4323033"><ele>962.3333333333333</ele><time>2026-04-30T12:45:34.987Z</time></trkpt><trkpt lat="44.72355" lon="9.432175"><ele>960.6666666666666</ele><time>2026-04-30T12:45:35.988Z</time></trkpt><trkpt lat="44.723515" lon="9.43205"><ele>959.0</ele><time>2026-04-30T12:45:36.986Z</time></trkpt><trkpt lat="44.72347" lon="9.4319333"><ele>957.3333333333333</ele><time>2026-04-30T12:45:37.993Z</time></trkpt><trkpt lat="44.7234267" lon="9.4318267"><ele>955.6666666666666</ele><time>2026-04-30T12:45:38.987Z</time></trkpt><trkpt lat="44.7233883" lon="9.43173"><ele>954.0</ele><time>2026-04-30T12:45:39.988Z</time></trkpt><trkpt lat="44.7233667" lon="9.4316417"><ele>953.8000000000001</ele><time>2026-04-30T12:45:40.986Z</time></trkpt><trkpt lat="44.7233633" lon="9.4315383"><ele>953.6000000000001</ele><time>2026-04-30T12:45:41.987Z</time></trkpt><trkpt lat="44.72337" lon="9.4314267"><ele>953.4</ele><time>2026-04-30T12:45:42.987Z</time></trkpt><trkpt lat="44.723395" lon="9.4313117"><ele>953.2</ele><time>2026-04-30T12:45:43.987Z</time></trkpt><trkpt lat="44.723435" lon="9.4311833"><ele>953.0</ele><time>2026-04-30T12:45:44.988Z</time></trkpt><trkpt lat="44.723485" lon="9.4310383"><ele>951.0</ele><time>2026-04-30T12:45:45.991Z</time></trkpt><trkpt lat="44.7235333" lon="9.4308933"><ele>949.0</ele><time>2026-04-30T12:45:46.987Z</time></trkpt><trkpt lat="44.7235817" lon="9.43075"><ele>947.0</ele><time>2026-04-30T12:45:47.988Z</time></trkpt><trkpt lat="44.7236283" lon="9.43061"><ele>945.0</ele><time>2026-04-30T12:45:48.987Z</time></trkpt><trkpt lat="44.72367" lon="9.4304783"><ele>943.0</ele><time>2026-04-30T12:45:49.989Z</time></trkpt><trkpt lat="44.723715" lon="9.4303467"><ele>940.4</ele><time>2026-04-30T12:45:50.988Z</time></trkpt><trkpt lat="44.7237617" lon="9.430215"><ele>937.8</ele><time>2026-04-30T12:45:51.994Z</time></trkpt><trkpt lat="44.72381" lon="9.430085"><ele>935.2</ele><time>2026-04-30T12:45:52.989Z</time></trkpt><trkpt lat="44.7238567" lon="9.4299583"><ele>932.6</ele><time>2026-04-30T12:45:53.988Z</time></trkpt><trkpt lat="44.7239017" lon="9.429835"><ele>930.0</ele><time>2026-04-30T12:45:54.987Z</time></trkpt><trkpt lat="44.7239433" lon="9.429715"><ele>930.4</ele><time>2026-04-30T12:45:55.988Z</time></trkpt><trkpt lat="44.723985" lon="9.4295967"><ele>930.8</ele><time>2026-04-30T12:45:56.988Z</time></trkpt><trkpt lat="44.7240367" lon="9.429485"><ele>931.2</ele><time>2026-04-30T12:45:57.994Z</time></trkpt><trkpt lat="44.7241017" lon="9.4293817"><ele>931.6</ele><time>2026-04-30T12:45:58.988Z</time></trkpt><trkpt lat="44.7241817" lon="9.429295"><ele>932.0</ele><time>2026-04-30T12:45:59.987Z</time></trkpt><trkpt lat="44.7242633" lon="9.429215"><ele>932.0</ele><time>2026-04-30T12:46:00.986Z</time></trkpt><trkpt lat="44.724345" lon="9.4291333"><ele>932.0</ele><time>2026-04-30T12:46:01.987Z</time></trkpt><trkpt lat="44.7244267" lon="9.4290533"><ele>932.0</ele><time>2026-04-30T12:46:02.988Z</time></trkpt><trkpt lat="44.724505" lon="9.4289817"><ele>932.0</ele><time>2026-04-30T12:46:03.988Z</time></trkpt><trkpt lat="44.7245833" lon="9.4289017"><ele>932.0</ele><time>2026-04-30T12:46:04.994Z</time></trkpt><trkpt lat="44.7246583" lon="9.4288133"><ele>931.8</ele><time>2026-04-30T12:46:05.989Z</time></trkpt><trkpt lat="44.72473" lon="9.4287233"><ele>931.6</ele><time>2026-04-30T12:46:06.987Z</time></trkpt><trkpt lat="44.7247967" lon="9.4286417"><ele>931.3999999999999</ele><time>2026-04-30T12:46:07.989Z</time></trkpt><trkpt lat="44.7248717" lon="9.428555"><ele>931.1999999999999</ele><time>2026-04-30T12:46:08.988Z</time></trkpt><trkpt lat="44.7249733" lon="9.428455"><ele>931.0</ele><time>2026-04-30T12:46:09.988Z</time></trkpt><trkpt lat="44.7250733" lon="9.42836"><ele>930.9999999999999</ele><time>2026-04-30T12:46:10.987Z</time></trkpt><trkpt lat="44.7251617" lon="9.428285"><ele>931.0</ele><time>2026-04-30T12:46:11.986Z</time></trkpt><trkpt lat="44.7252367" lon="9.428215"><ele>931.0</ele><time>2026-04-30T12:46:12.989Z</time></trkpt><trkpt lat="44.7253017" lon="9.4281533"><ele>931.0</ele><time>2026-04-30T12:46:13.989Z</time></trkpt><trkpt lat="44.7253717" lon="9.4280867"><ele>930.9999999999999</ele><time>2026-04-30T12:46:14.987Z</time></trkpt><trkpt lat="44.72545" lon="9.428015"><ele>931.0</ele><time>2026-04-30T12:46:15.986Z</time></trkpt><trkpt lat="44.7255267" lon="9.4279417"><ele>928.5999999999999</ele><time>2026-04-30T12:46:16.987Z</time></trkpt><trkpt lat="44.7255983" lon="9.427865"><ele>926.1999999999999</ele><time>2026-04-30T12:46:17.994Z</time></trkpt><trkpt lat="44.7256633" lon="9.42779"><ele>923.8000000000001</ele><time>2026-04-30T12:46:18.987Z</time></trkpt><trkpt lat="44.7257283" lon="9.4277083"><ele>921.4000000000001</ele><time>2026-04-30T12:46:19.987Z</time></trkpt><trkpt lat="44.7257933" lon="9.4276133"><ele>919.0</ele><time>2026-04-30T12:46:20.987Z</time></trkpt><trkpt lat="44.7258583" lon="9.42751"><ele>919.0</ele><time>2026-04-30T12:46:21.989Z</time></trkpt><trkpt lat="44.72592" lon="9.4273983"><ele>919.0000000000001</ele><time>2026-04-30T12:46:22.993Z</time></trkpt><trkpt lat="44.7259733" lon="9.42728"><ele>919.0000000000001</ele><time>2026-04-30T12:46:23.988Z</time></trkpt><trkpt lat="44.7260117" lon="9.4271567"><ele>919.0</ele><time>2026-04-30T12:46:24.988Z</time></trkpt><trkpt lat="44.72604" lon="9.4270367"><ele>919.0</ele><time>2026-04-30T12:46:25.987Z</time></trkpt><trkpt lat="44.726075" lon="9.4269267"><ele>917.9999999999999</ele><time>2026-04-30T12:46:26.99Z</time></trkpt><trkpt lat="44.7261217" lon="9.426835"><ele>917.0</ele><time>2026-04-30T12:46:27.988Z</time></trkpt><trkpt lat="44.726175" lon="9.4267483"><ele>916.0</ele><time>2026-04-30T12:46:28.988Z</time></trkpt><trkpt lat="44.7262333" lon="9.426675"><ele>915.0</ele><time>2026-04-30T12:46:29.988Z</time></trkpt><trkpt lat="44.7263033" lon="9.4266117"><ele>913.9999999999999</ele><time>2026-04-30T12:46:30.987Z</time></trkpt><trkpt lat="44.72638" lon="9.4265583"><ele>913.0</ele><time>2026-04-30T12:46:31.992Z</time></trkpt><trkpt lat="44.7264617" lon="9.4265067"><ele>912.9999999999999</ele><time>2026-04-30T12:46:32.987Z</time></trkpt><trkpt lat="44.7265467" lon="9.4264733"><ele>913.0</ele><time>2026-04-30T12:46:33.987Z</time></trkpt><trkpt lat="44.7266233" lon="9.42646"><ele>913.0</ele><time>2026-04-30T12:46:34.988Z</time></trkpt><trkpt lat="44.7266983" lon="9.4264633"><ele>913.0</ele><time>2026-04-30T12:46:35.987Z</time></trkpt><trkpt lat="44.7267717" lon="9.4264783"><ele>912.9999999999999</ele><time>2026-04-30T12:46:36.988Z</time></trkpt><trkpt lat="44.72685" lon="9.42647"><ele>913.0</ele><time>2026-04-30T12:46:37.987Z</time></trkpt><trkpt lat="44.7269217" lon="9.4264283"><ele>912.9999999999999</ele><time>2026-04-30T12:46:38.988Z</time></trkpt><trkpt lat="44.7270017" lon="9.426375"><ele>913.0</ele><time>2026-04-30T12:46:39.987Z</time></trkpt><trkpt lat="44.7270817" lon="9.426345"><ele>913.0</ele><time>2026-04-30T12:46:40.99Z</time></trkpt><trkpt lat="44.7271583" lon="9.4263167"><ele>913.0</ele><time>2026-04-30T12:46:41.989Z</time></trkpt><trkpt lat="44.7272233" lon="9.4262767"><ele>912.9999999999999</ele><time>2026-04-30T12:46:42.987Z</time></trkpt><trkpt lat="44.727285" lon="9.4262117"><ele>913.0</ele><time>2026-04-30T12:46:43.988Z</time></trkpt><trkpt lat="44.7273383" lon="9.4261217"><ele>913.0</ele><time>2026-04-30T12:46:44.988Z</time></trkpt><trkpt lat="44.7273883" lon="9.4260083"><ele>913.0</ele><time>2026-04-30T12:46:45.987Z</time></trkpt><trkpt lat="44.7274467" lon="9.425895"><ele>913.0</ele><time>2026-04-30T12:46:46.987Z</time></trkpt><trkpt lat="44.7275167" lon="9.4257983"><ele>913.0</ele><time>2026-04-30T12:46:47.99Z</time></trkpt><trkpt lat="44.727595" lon="9.4257233"><ele>913.0</ele><time>2026-04-30T12:46:48.988Z</time></trkpt><trkpt lat="44.72768" lon="9.42567"><ele>913.8333333333333</ele><time>2026-04-30T12:46:49.988Z</time></trkpt><trkpt lat="44.72776" lon="9.4256267"><ele>914.6666666666666</ele><time>2026-04-30T12:46:50.988Z</time></trkpt><trkpt lat="44.727835" lon="9.4255833"><ele>915.5</ele><time>2026-04-30T12:46:51.989Z</time></trkpt><trkpt lat="44.7279083" lon="9.42554"><ele>916.3333333333333</ele><time>2026-04-30T12:46:52.993Z</time></trkpt><trkpt lat="44.727985" lon="9.425485"><ele>917.1666666666666</ele><time>2026-04-30T12:46:53.989Z</time></trkpt><trkpt lat="44.7280583" lon="9.4254317"><ele>918.0</ele><time>2026-04-30T12:46:54.988Z</time></trkpt><trkpt lat="44.728125" lon="9.4253833"><ele>918.0</ele><time>2026-04-30T12:46:55.988Z</time></trkpt><trkpt lat="44.7281867" lon="9.42536"><ele>918.0</ele><time>2026-04-30T12:46:56.988Z</time></trkpt><trkpt lat="44.7282567" lon="9.425355"><ele>918.0</ele><time>2026-04-30T12:46:57.987Z</time></trkpt><trkpt lat="44.7283517" lon="9.4253767"><ele>918.0</ele><time>2026-04-30T12:46:58.987Z</time></trkpt><trkpt lat="44.728455" lon="9.4254117"><ele>918.0</ele><time>2026-04-30T12:46:59.993Z</time></trkpt><trkpt lat="44.7285567" lon="9.4254417"><ele>918.0</ele><time>2026-04-30T12:47:00.986Z</time></trkpt><trkpt lat="44.728655" lon="9.425465"><ele>915.3333333333334</ele><time>2026-04-30T12:47:01.987Z</time></trkpt><trkpt lat="44.7287433" lon="9.4254683"><ele>912.6666666666667</ele><time>2026-04-30T12:47:02.988Z</time></trkpt><trkpt lat="44.72883" lon="9.4254667"><ele>910.0</ele><time>2026-04-30T12:47:03.987Z</time></trkpt><trkpt lat="44.7289133" lon="9.4254633"><ele>907.3333333333334</ele><time>2026-04-30T12:47:04.99Z</time></trkpt><trkpt lat="44.7289967" lon="9.4254717"><ele>904.6666666666667</ele><time>2026-04-30T12:47:05.987Z</time></trkpt><trkpt lat="44.72908" lon="9.4254867"><ele>902.0</ele><time>2026-04-30T12:47:06.988Z</time></trkpt><trkpt lat="44.7291567" lon="9.425485"><ele>902.0</ele><time>2026-04-30T12:47:07.987Z</time></trkpt><trkpt lat="44.7292233" lon="9.42546"><ele>902.0</ele><time>2026-04-30T12:47:08.988Z</time></trkpt><trkpt lat="44.7292833" lon="9.4254167"><ele>902.0</ele><time>2026-04-30T12:47:09.988Z</time></trkpt><trkpt lat="44.729325" lon="9.4253483"><ele>902.0</ele><time>2026-04-30T12:47:10.987Z</time></trkpt><trkpt lat="44.7293467" lon="9.42525"><ele>902.0</ele><time>2026-04-30T12:47:11.989Z</time></trkpt><trkpt lat="44.729375" lon="9.4251483"><ele>902.0</ele><time>2026-04-30T12:47:12.987Z</time></trkpt><trkpt lat="44.7294167" lon="9.4250533"><ele>902.0</ele><time>2026-04-30T12:47:13.987Z</time></trkpt><trkpt lat="44.7294817" lon="9.4249783"><ele>898.8333333333334</ele><time>2026-04-30T12:47:14.989Z</time></trkpt><trkpt lat="44.72956" lon="9.4249167"><ele>895.6666666666667</ele><time>2026-04-30T12:47:15.988Z</time></trkpt><trkpt lat="44.7296383" lon="9.4248633"><ele>892.5</ele><time>2026-04-30T12:47:16.991Z</time></trkpt><trkpt lat="44.7297133" lon="9.4248133"><ele>889.3333333333333</ele><time>2026-04-30T12:47:17.989Z</time></trkpt><trkpt lat="44.7297783" lon="9.42474"><ele>886.1666666666666</ele><time>2026-04-30T12:47:18.988Z</time></trkpt><trkpt lat="44.7298383" lon="9.4246283"><ele>883.0</ele><time>2026-04-30T12:47:19.987Z</time></trkpt><trkpt lat="44.7298967" lon="9.4244867"><ele>882.9999999999999</ele><time>2026-04-30T12:47:20.988Z</time></trkpt><trkpt lat="44.7299617" lon="9.424365"><ele>883.0</ele><time>2026-04-30T12:47:21.988Z</time></trkpt><trkpt lat="44.7300233" lon="9.424275"><ele>883.0</ele><time>2026-04-30T12:47:22.988Z</time></trkpt><trkpt lat="44.7300767" lon="9.4242167"><ele>883.0</ele><time>2026-04-30T12:47:23.988Z</time></trkpt><trkpt lat="44.7301567" lon="9.424175"><ele>882.9999999999999</ele><time>2026-04-30T12:47:25.989Z</time></trkpt><trkpt lat="44.7302167" lon="9.42425"><ele>883.0</ele><time>2026-04-30T12:47:49.99Z</time></trkpt><trkpt lat="44.7302217" lon="9.4243917"><ele>882.9999999999999</ele><time>2026-04-30T12:47:51.99Z</time></trkpt><trkpt lat="44.7302083" lon="9.4244867"><ele>883.0</ele><time>2026-04-30T12:47:52.992Z</time></trkpt><trkpt lat="44.730195" lon="9.4245883"><ele>883.0</ele><time>2026-04-30T12:47:53.989Z</time></trkpt><trkpt lat="44.7301783" lon="9.424715"><ele>883.0</ele><time>2026-04-30T12:47:54.988Z</time></trkpt><trkpt lat="44.7301667" lon="9.424855"><ele>882.9999999999999</ele><time>2026-04-30T12:47:55.987Z</time></trkpt><trkpt lat="44.7301583" lon="9.4249867"><ele>883.0</ele><time>2026-04-30T12:47:56.988Z</time></trkpt><trkpt lat="44.730145" lon="9.425105"><ele>881.3333333333333</ele><time>2026-04-30T12:47:57.987Z</time></trkpt><trkpt lat="44.7301267" lon="9.4252217"><ele>879.6666666666666</ele><time>2026-04-30T12:47:58.987Z</time></trkpt><trkpt lat="44.7301033" lon="9.4253383"><ele>878.0</ele><time>2026-04-30T12:47:59.987Z</time></trkpt><trkpt lat="44.7300883" lon="9.4254467"><ele>876.3333333333333</ele><time>2026-04-30T12:48:00.988Z</time></trkpt><trkpt lat="44.7300983" lon="9.4255367"><ele>874.6666666666666</ele><time>2026-04-30T12:48:01.988Z</time></trkpt><trkpt lat="44.7301267" lon="9.4256217"><ele>873.0</ele><time>2026-04-30T12:48:02.987Z</time></trkpt><trkpt lat="44.730175" lon="9.4257"><ele>871.2</ele><time>2026-04-30T12:48:03.987Z</time></trkpt><trkpt lat="44.7302233" lon="9.4257633"><ele>869.4</ele><time>2026-04-30T12:48:04.987Z</time></trkpt><trkpt lat="44.7303183" lon="9.4258567"><ele>867.6000000000001</ele><time>2026-04-30T12:48:06.994Z</time></trkpt><trkpt lat="44.7304083" lon="9.4259367"><ele>865.8000000000001</ele><time>2026-04-30T12:48:08.989Z</time></trkpt><trkpt lat="44.7304817" lon="9.4260317"><ele>864.0</ele><time>2026-04-30T12:48:10.988Z</time></trkpt><trkpt lat="44.73052" lon="9.426165"><ele>860.3333333333334</ele><time>2026-04-30T12:48:12.987Z</time></trkpt><trkpt lat="44.7305533" lon="9.4262917"><ele>856.6666666666667</ele><time>2026-04-30T12:48:14.988Z</time></trkpt><trkpt lat="44.730615" lon="9.42638"><ele>853.0</ele><time>2026-04-30T12:48:16.988Z</time></trkpt><trkpt lat="44.7306817" lon="9.4264067"><ele>849.3333333333334</ele><time>2026-04-30T12:48:18.995Z</time></trkpt><trkpt lat="44.7307483" lon="9.4263183"><ele>845.6666666666667</ele><time>2026-04-30T12:48:21.989Z</time></trkpt><trkpt lat="44.730725" lon="9.4261817"><ele>842.0</ele><time>2026-04-30T12:48:23.994Z</time></trkpt><trkpt lat="44.7307" lon="9.4260967"><ele>842.0</ele><time>2026-04-30T12:48:24.99Z</time></trkpt><trkpt lat="44.7306583" lon="9.4259467"><ele>842.0</ele><time>2026-04-30T12:48:26.987Z</time></trkpt><trkpt lat="44.7306467" lon="9.4258"><ele>842.0</ele><time>2026-04-30T12:48:28.989Z</time></trkpt><trkpt lat="44.730675" lon="9.4256483"><ele>842.0</ele><time>2026-04-30T12:48:30.995Z</time></trkpt><trkpt lat="44.7307617" lon="9.4255867"><ele>842.0</ele><time>2026-04-30T12:48:32.987Z</time></trkpt><trkpt lat="44.7308467" lon="9.425555"><ele>842.0000000000001</ele><time>2026-04-30T12:48:34.988Z</time></trkpt><trkpt lat="44.730895" lon="9.425635"><ele>842.0</ele><time>2026-04-30T12:48:37.987Z</time></trkpt><trkpt lat="44.7308417" lon="9.425725"><ele>842.0</ele><time>2026-04-30T12:48:40.988Z</time></trkpt><trkpt lat="44.7308533" lon="9.42583"><ele>842.0</ele><time>2026-04-30T12:48:42.987Z</time></trkpt><trkpt lat="44.73092" lon="9.4259267"><ele>842.0000000000001</ele><time>2026-04-30T12:48:44.988Z</time></trkpt><trkpt lat="44.7309983" lon="9.426015"><ele>842.0</ele><time>2026-04-30T12:48:46.988Z</time></trkpt><trkpt lat="44.7310767" lon="9.426075"><ele>835.8</ele><time>2026-04-30T12:48:48.989Z</time></trkpt><trkpt lat="44.7311583" lon="9.4261367"><ele>829.6</ele><time>2026-04-30T12:48:50.99Z</time></trkpt><trkpt lat="44.7312333" lon="9.426245"><ele>823.4</ele><time>2026-04-30T12:48:52.99Z</time></trkpt><trkpt lat="44.7312617" lon="9.42638"><ele>817.1999999999999</ele><time>2026-04-30T12:48:54.989Z</time></trkpt><trkpt lat="44.7312617" lon="9.4265417"><ele>811.0</ele><time>2026-04-30T12:48:56.988Z</time></trkpt><trkpt lat="44.731275" lon="9.4267117"><ele>809.1999999999999</ele><time>2026-04-30T12:48:58.989Z</time></trkpt><trkpt lat="44.73131" lon="9.4268633"><ele>807.4</ele><time>2026-04-30T12:49:00.993Z</time></trkpt><trkpt lat="44.73134" lon="9.42701"><ele>805.6</ele><time>2026-04-30T12:49:02.988Z</time></trkpt><trkpt lat="44.7313567" lon="9.4271567"><ele>803.8</ele><time>2026-04-30T12:49:04.987Z</time></trkpt><trkpt lat="44.73136" lon="9.4272483"><ele>802.0</ele><time>2026-04-30T12:49:05.988Z</time></trkpt><trkpt lat="44.7313533" lon="9.42734"><ele>801.1428571428571</ele><time>2026-04-30T12:49:06.99Z</time></trkpt><trkpt lat="44.7313467" lon="9.42745"><ele>800.2857142857143</ele><time>2026-04-30T12:49:07.988Z</time></trkpt><trkpt lat="44.731325" lon="9.4275417"><ele>799.4285714285713</ele><time>2026-04-30T12:49:08.994Z</time></trkpt><trkpt lat="44.7313183" lon="9.4276417"><ele>798.5714285714286</ele><time>2026-04-30T12:49:09.988Z</time></trkpt><trkpt lat="44.7313117" lon="9.4277367"><ele>797.7142857142857</ele><time>2026-04-30T12:49:10.989Z</time></trkpt><trkpt lat="44.7313033" lon="9.427835"><ele>796.8571428571428</ele><time>2026-04-30T12:49:11.989Z</time></trkpt><trkpt lat="44.73129" lon="9.4279233"><ele>796.0</ele><time>2026-04-30T12:49:12.988Z</time></trkpt><trkpt lat="44.7312517" lon="9.4280733"><ele>793.4</ele><time>2026-04-30T12:49:14.989Z</time></trkpt><trkpt lat="44.7312133" lon="9.428205"><ele>790.8</ele><time>2026-04-30T12:49:16.988Z</time></trkpt><trkpt lat="44.731195" lon="9.42833"><ele>788.1999999999999</ele><time>2026-04-30T12:49:18.989Z</time></trkpt><trkpt lat="44.7312383" lon="9.42841"><ele>785.5999999999999</ele><time>2026-04-30T12:49:20.995Z</time></trkpt><trkpt lat="44.7313267" lon="9.428415"><ele>783.0</ele><time>2026-04-30T12:49:22.989Z</time></trkpt><trkpt lat="44.7314383" lon="9.42839"><ele>783.0</ele><time>2026-04-30T12:49:24.988Z</time></trkpt><trkpt lat="44.7315267" lon="9.4283117"><ele>783.0</ele><time>2026-04-30T12:49:26.988Z</time></trkpt><trkpt lat="44.73156" lon="9.4281867"><ele>783.0</ele><time>2026-04-30T12:49:28.987Z</time></trkpt><trkpt lat="44.73156" lon="9.4280433"><ele>783.0</ele><time>2026-04-30T12:49:30.988Z</time></trkpt><trkpt lat="44.731555" lon="9.42789"><ele>783.0</ele><time>2026-04-30T12:49:32.987Z</time></trkpt><trkpt lat="44.7315867" lon="9.4277317"><ele>785.5999999999999</ele><time>2026-04-30T12:49:34.989Z</time></trkpt><trkpt lat="44.7316433" lon="9.42759"><ele>788.1999999999999</ele><time>2026-04-30T12:49:36.988Z</time></trkpt><trkpt lat="44.731715" lon="9.427455"><ele>790.8</ele><time>2026-04-30T12:49:38.987Z</time></trkpt><trkpt lat="44.7317933" lon="9.4273133"><ele>793.4</ele><time>2026-04-30T12:49:40.988Z</time></trkpt><trkpt lat="44.7318383" lon="9.42723"><ele>796.0</ele><time>2026-04-30T12:49:41.988Z</time></trkpt><trkpt lat="44.7318767" lon="9.4271417"><ele>791.4999999999999</ele><time>2026-04-30T12:49:42.993Z</time></trkpt><trkpt lat="44.73193" lon="9.4270517"><ele>787.0</ele><time>2026-04-30T12:49:43.988Z</time></trkpt><trkpt lat="44.7319833" lon="9.4269583"><ele>782.5</ele><time>2026-04-30T12:49:44.989Z</time></trkpt><trkpt lat="44.732035" lon="9.4268483"><ele>778.0</ele><time>2026-04-30T12:49:45.988Z</time></trkpt><trkpt lat="44.73207" lon="9.426745"><ele>773.4999999999999</ele><time>2026-04-30T12:49:46.988Z</time></trkpt><trkpt lat="44.7320917" lon="9.42666"><ele>769.0</ele><time>2026-04-30T12:49:47.988Z</time></trkpt><trkpt lat="44.7321167" lon="9.4265633"><ele>768.9999999999999</ele><time>2026-04-30T12:49:49.993Z</time></trkpt><trkpt lat="44.73218" lon="9.4264867"><ele>769.0</ele><time>2026-04-30T12:49:51.987Z</time></trkpt><trkpt lat="44.7322883" lon="9.4264367"><ele>769.0</ele><time>2026-04-30T12:49:53.991Z</time></trkpt><trkpt lat="44.7323933" lon="9.4263767"><ele>769.0</ele><time>2026-04-30T12:49:55.989Z</time></trkpt><trkpt lat="44.73245" lon="9.42633"><ele>768.9999999999999</ele><time>2026-04-30T12:49:56.99Z</time></trkpt><trkpt lat="44.7325067" lon="9.4262833"><ele>769.0</ele><time>2026-04-30T12:49:57.988Z</time></trkpt><trkpt lat="44.7325967" lon="9.4262083"><ele>768.9999999999999</ele><time>2026-04-30T12:49:59.99Z</time></trkpt><trkpt lat="44.7326633" lon="9.426165"><ele>769.0</ele><time>2026-04-30T12:50:01.989Z</time></trkpt><trkpt lat="44.7327283" lon="9.4261533"><ele>769.0</ele><time>2026-04-30T12:50:03.99Z</time></trkpt><trkpt lat="44.7328083" lon="9.426185"><ele>769.0</ele><time>2026-04-30T12:50:06.987Z</time></trkpt><trkpt lat="44.7328067" lon="9.4262767"><ele>768.9999999999999</ele><time>2026-04-30T12:50:08.99Z</time></trkpt><trkpt lat="44.7327383" lon="9.4264267"><ele>769.0</ele><time>2026-04-30T12:50:10.988Z</time></trkpt><trkpt lat="44.7326817" lon="9.4265767"><ele>769.0</ele><time>2026-04-30T12:50:12.988Z</time></trkpt><trkpt lat="44.7326533" lon="9.4266583"><ele>769.0</ele><time>2026-04-30T12:50:13.988Z</time></trkpt><trkpt lat="44.732625" lon="9.4267383"><ele>769.0</ele><time>2026-04-30T12:50:14.988Z</time></trkpt><trkpt lat="44.7325783" lon="9.4268517"><ele>769.0</ele><time>2026-04-30T12:50:16.987Z</time></trkpt><trkpt lat="44.7325367" lon="9.426925"><ele>769.0</ele><time>2026-04-30T12:50:18.992Z</time></trkpt><trkpt lat="44.7325167" lon="9.4270283"><ele>769.0</ele><time>2026-04-30T12:50:21.989Z</time></trkpt><trkpt lat="44.732505" lon="9.4271183"><ele>769.0</ele><time>2026-04-30T12:50:23.993Z</time></trkpt><trkpt lat="44.73247" lon="9.4272517"><ele>765.6</ele><time>2026-04-30T12:50:25.989Z</time></trkpt><trkpt lat="44.7324183" lon="9.4274133"><ele>762.2</ele><time>2026-04-30T12:50:27.988Z</time></trkpt><trkpt lat="44.7323867" lon="9.4275017"><ele>758.8000000000001</ele><time>2026-04-30T12:50:28.988Z</time></trkpt><trkpt lat="44.7323217" lon="9.427635"><ele>755.4000000000001</ele><time>2026-04-30T12:50:30.989Z</time></trkpt><trkpt lat="44.7322833" lon="9.427745"><ele>752.0</ele><time>2026-04-30T12:50:32.992Z</time></trkpt><trkpt lat="44.7322833" lon="9.4278667"><ele>748.6666666666666</ele><time>2026-04-30T12:50:34.989Z</time></trkpt><trkpt lat="44.7322783" lon="9.4279883"><ele>745.3333333333333</ele><time>2026-04-30T12:50:36.989Z</time></trkpt><trkpt lat="44.7322867" lon="9.42811"><ele>742.0</ele><time>2026-04-30T12:50:38.993Z</time></trkpt><trkpt lat="44.7323017" lon="9.4282783"><ele>738.6666666666666</ele><time>2026-04-30T12:50:40.989Z</time></trkpt><trkpt lat="44.7323017" lon="9.42837"><ele>735.3333333333334</ele><time>2026-04-30T12:50:41.988Z</time></trkpt><trkpt lat="44.7323033" lon="9.428465"><ele>732.0</ele><time>2026-04-30T12:50:42.988Z</time></trkpt><trkpt lat="44.732295" lon="9.4285667"><ele>732.0</ele><time>2026-04-30T12:50:43.989Z</time></trkpt><trkpt lat="44.732285" lon="9.4286767"><ele>732.0</ele><time>2026-04-30T12:50:44.989Z</time></trkpt><trkpt lat="44.732275" lon="9.4287817"><ele>732.0</ele><time>2026-04-30T12:50:45.99Z</time></trkpt><trkpt lat="44.7322717" lon="9.4288833"><ele>732.0</ele><time>2026-04-30T12:50:46.987Z</time></trkpt><trkpt lat="44.7322833" lon="9.4290717"><ele>732.0</ele><time>2026-04-30T12:50:48.987Z</time></trkpt><trkpt lat="44.7322867" lon="9.4291617"><ele>732.0</ele><time>2026-04-30T12:50:49.988Z</time></trkpt><trkpt lat="44.7322933" lon="9.4293183"><ele>729.4000000000001</ele><time>2026-04-30T12:50:51.989Z</time></trkpt><trkpt lat="44.7322983" lon="9.4294717"><ele>726.8000000000001</ele><time>2026-04-30T12:50:53.99Z</time></trkpt><trkpt lat="44.73228" lon="9.4296083"><ele>724.2</ele><time>2026-04-30T12:50:55.988Z</time></trkpt><trkpt lat="44.7322317" lon="9.429725"><ele>721.6</ele><time>2026-04-30T12:50:57.994Z</time></trkpt><trkpt lat="44.732165" lon="9.4298167"><ele>719.0</ele><time>2026-04-30T12:50:59.989Z</time></trkpt><trkpt lat="44.7320817" lon="9.4298817"><ele>719.0</ele><time>2026-04-30T12:51:01.988Z</time></trkpt><trkpt lat="44.7320117" lon="9.42989"><ele>719.0</ele><time>2026-04-30T12:51:03.988Z</time></trkpt><trkpt lat="44.73194" lon="9.4299133"><ele>719.0</ele><time>2026-04-30T12:51:05.988Z</time></trkpt><trkpt lat="44.7320017" lon="9.4299783"><ele>719.0</ele><time>2026-04-30T12:51:10.991Z</time></trkpt><trkpt lat="44.7320833" lon="9.43"><ele>719.0</ele><time>2026-04-30T12:51:12.99Z</time></trkpt><trkpt lat="44.732185" lon="9.43"><ele>719.0</ele><time>2026-04-30T12:51:14.991Z</time></trkpt><trkpt lat="44.7322817" lon="9.4299417"><ele>719.0</ele><time>2026-04-30T12:51:16.99Z</time></trkpt><trkpt lat="44.73238" lon="9.4298633"><ele>719.0</ele><time>2026-04-30T12:51:18.992Z</time></trkpt><trkpt lat="44.7324617" lon="9.42979"><ele>719.0</ele><time>2026-04-30T12:51:20.99Z</time></trkpt><trkpt lat="44.73254" lon="9.4297017"><ele>719.0</ele><time>2026-04-30T12:51:22.99Z</time></trkpt><trkpt lat="44.7326183" lon="9.42955"><ele>719.0</ele><time>2026-04-30T12:51:24.991Z</time></trkpt><trkpt lat="44.7326667" lon="9.4294683"><ele>718.6</ele><time>2026-04-30T12:51:25.99Z</time></trkpt><trkpt lat="44.732715" lon="9.429385"><ele>718.2</ele><time>2026-04-30T12:51:26.991Z</time></trkpt><trkpt lat="44.732765" lon="9.4293133"><ele>717.8000000000001</ele><time>2026-04-30T12:51:27.991Z</time></trkpt><trkpt lat="44.732855" lon="9.42922"><ele>717.4000000000001</ele><time>2026-04-30T12:51:29.989Z</time></trkpt><trkpt lat="44.7329767" lon="9.4292083"><ele>717.0</ele><time>2026-04-30T12:51:31.988Z</time></trkpt><trkpt lat="44.7330483" lon="9.4292033"><ele>715.8</ele><time>2026-04-30T12:51:32.989Z</time></trkpt><trkpt lat="44.7331133" lon="9.42918"><ele>714.6</ele><time>2026-04-30T12:51:33.99Z</time></trkpt><trkpt lat="44.7331933" lon="9.4291033"><ele>713.4</ele><time>2026-04-30T12:51:35.991Z</time></trkpt><trkpt lat="44.733255" lon="9.4289983"><ele>712.1999999999999</ele><time>2026-04-30T12:51:37.988Z</time></trkpt><trkpt lat="44.733345" lon="9.42894"><ele>711.0</ele><time>2026-04-30T12:51:39.99Z</time></trkpt><trkpt lat="44.7334517" lon="9.4289533"><ele>713.4</ele><time>2026-04-30T12:51:41.987Z</time></trkpt><trkpt lat="44.73358" lon="9.428965"><ele>715.8</ele><time>2026-04-30T12:51:43.989Z</time></trkpt><trkpt lat="44.7336467" lon="9.428975"><ele>718.1999999999999</ele><time>2026-04-30T12:51:44.989Z</time></trkpt><trkpt lat="44.7337617" lon="9.429005"><ele>720.5999999999999</ele><time>2026-04-30T12:51:46.988Z</time></trkpt><trkpt lat="44.7338733" lon="9.42897"><ele>723.0</ele><time>2026-04-30T12:51:48.989Z</time></trkpt><trkpt lat="44.733975" lon="9.4288817"><ele>723.0</ele><time>2026-04-30T12:51:50.991Z</time></trkpt><trkpt lat="44.734075" lon="9.4287933"><ele>723.0</ele><time>2026-04-30T12:51:52.989Z</time></trkpt><trkpt lat="44.7341833" lon="9.4287617"><ele>723.0</ele><time>2026-04-30T12:51:54.99Z</time></trkpt><trkpt lat="44.7342467" lon="9.4287717"><ele>723.0</ele><time>2026-04-30T12:51:55.991Z</time></trkpt><trkpt lat="44.734315" lon="9.4287983"><ele>723.0</ele><time>2026-04-30T12:51:56.99Z</time></trkpt><trkpt lat="44.734385" lon="9.42883"><ele>723.0</ele><time>2026-04-30T12:51:57.988Z</time></trkpt><trkpt lat="44.7345083" lon="9.4288317"><ele>716.2</ele><time>2026-04-30T12:51:59.991Z</time></trkpt><trkpt lat="44.734615" lon="9.4287733"><ele>709.4</ele><time>2026-04-30T12:52:01.997Z</time></trkpt><trkpt lat="44.7346883" lon="9.42867"><ele>702.6</ele><time>2026-04-30T12:52:03.988Z</time></trkpt><trkpt lat="44.7347867" lon="9.4286717"><ele>695.8000000000001</ele><time>2026-04-30T12:52:05.988Z</time></trkpt><trkpt lat="44.7349033" lon="9.42872"><ele>689.0</ele><time>2026-04-30T12:52:07.987Z</time></trkpt><trkpt lat="44.735005" lon="9.42878"><ele>694.0</ele><time>2026-04-30T12:52:09.99Z</time></trkpt><trkpt lat="44.7350567" lon="9.4289017"><ele>699.0</ele><time>2026-04-30T12:52:11.987Z</time></trkpt><trkpt lat="44.7350833" lon="9.42906"><ele>704.0</ele><time>2026-04-30T12:52:13.988Z</time></trkpt><trkpt lat="44.7351" lon="9.429155"><ele>709.0</ele><time>2026-04-30T12:52:14.99Z</time></trkpt><trkpt lat="44.735115" lon="9.4293217"><ele>714.0</ele><time>2026-04-30T12:52:16.987Z</time></trkpt><trkpt lat="44.7351833" lon="9.4294533"><ele>713.0</ele><time>2026-04-30T12:52:18.989Z</time></trkpt><trkpt lat="44.735275" lon="9.429575"><ele>712.0</ele><time>2026-04-30T12:52:20.992Z</time></trkpt><trkpt lat="44.7353233" lon="9.429635"><ele>711.0</ele><time>2026-04-30T12:52:21.988Z</time></trkpt><trkpt lat="44.7353767" lon="9.4297017"><ele>710.0</ele><time>2026-04-30T12:52:22.988Z</time></trkpt><trkpt lat="44.7354267" lon="9.429775"><ele>709.0</ele><time>2026-04-30T12:52:23.988Z</time></trkpt><trkpt lat="44.7354717" lon="9.4298567"><ele>708.0</ele><time>2026-04-30T12:52:24.991Z</time></trkpt><trkpt lat="44.7355133" lon="9.4299567"><ele>708.0</ele><time>2026-04-30T12:52:25.989Z</time></trkpt><trkpt lat="44.735555" lon="9.4300633"><ele>708.0</ele><time>2026-04-30T12:52:26.989Z</time></trkpt><trkpt lat="44.7355983" lon="9.4301633"><ele>708.0</ele><time>2026-04-30T12:52:27.989Z</time></trkpt><trkpt lat="44.735655" lon="9.43025"><ele>708.0</ele><time>2026-04-30T12:52:28.988Z</time></trkpt><trkpt lat="44.735725" lon="9.430315"><ele>708.0</ele><time>2026-04-30T12:52:29.988Z</time></trkpt><trkpt lat="44.7357833" lon="9.4303683"><ele>708.0</ele><time>2026-04-30T12:52:30.988Z</time></trkpt><trkpt lat="44.735855" lon="9.4304767"><ele>710.0</ele><time>2026-04-30T12:52:32.992Z</time></trkpt><trkpt lat="44.7358833" lon="9.4306517"><ele>712.0</ele><time>2026-04-30T12:52:34.995Z</time></trkpt><trkpt lat="44.73589" lon="9.4307533"><ele>714.0</ele><time>2026-04-30T12:52:35.988Z</time></trkpt><trkpt lat="44.7358983" lon="9.43086"><ele>716.0</ele><time>2026-04-30T12:52:36.989Z</time></trkpt><trkpt lat="44.73592" lon="9.4309667"><ele>718.0</ele><time>2026-04-30T12:52:37.988Z</time></trkpt><trkpt lat="44.7359667" lon="9.431065"><ele>720.0</ele><time>2026-04-30T12:52:38.988Z</time></trkpt><trkpt lat="44.7360233" lon="9.4311617"><ele>718.0</ele><time>2026-04-30T12:52:39.99Z</time></trkpt><trkpt lat="44.7360683" lon="9.4312433"><ele>716.0</ele><time>2026-04-30T12:52:40.989Z</time></trkpt><trkpt lat="44.7361083" lon="9.43132"><ele>714.0</ele><time>2026-04-30T12:52:41.989Z</time></trkpt><trkpt lat="44.7361417" lon="9.4314683"><ele>712.0</ele><time>2026-04-30T12:52:43.988Z</time></trkpt><trkpt lat="44.7361683" lon="9.43162"><ele>710.0</ele><time>2026-04-30T12:52:45.989Z</time></trkpt><trkpt lat="44.736235" lon="9.4317217"><ele>710.0</ele><time>2026-04-30T12:52:47.99Z</time></trkpt><trkpt lat="44.7363017" lon="9.43182"><ele>710.0</ele><time>2026-04-30T12:52:49.994Z</time></trkpt><trkpt lat="44.7363433" lon="9.4318967"><ele>710.0</ele><time>2026-04-30T12:52:50.99Z</time></trkpt><trkpt lat="44.7363817" lon="9.4319833"><ele>710.0</ele><time>2026-04-30T12:52:51.99Z</time></trkpt><trkpt lat="44.7364183" lon="9.4320683"><ele>710.0</ele><time>2026-04-30T12:52:52.99Z</time></trkpt><trkpt lat="44.7364733" lon="9.4322067"><ele>710.0</ele><time>2026-04-30T12:52:54.99Z</time></trkpt><trkpt lat="44.736545" lon="9.4323033"><ele>709.6</ele><time>2026-04-30T12:52:56.992Z</time></trkpt><trkpt lat="44.7366483" lon="9.4323217"><ele>709.2</ele><time>2026-04-30T12:52:58.989Z</time></trkpt><trkpt lat="44.7367517" lon="9.4322883"><ele>708.8</ele><time>2026-04-30T12:53:00.989Z</time></trkpt><trkpt lat="44.7368267" lon="9.4322317"><ele>708.4</ele><time>2026-04-30T12:53:02.99Z</time></trkpt><trkpt lat="44.7369017" lon="9.43214"><ele>708.0</ele><time>2026-04-30T12:53:04.989Z</time></trkpt><trkpt lat="44.7369433" lon="9.432065"><ele>708.0</ele><time>2026-04-30T12:53:05.989Z</time></trkpt><trkpt lat="44.73699" lon="9.4319783"><ele>708.0</ele><time>2026-04-30T12:53:06.99Z</time></trkpt><trkpt lat="44.73705" lon="9.43188"><ele>708.0</ele><time>2026-04-30T12:53:07.99Z</time></trkpt><trkpt lat="44.7371083" lon="9.4317867"><ele>708.0</ele><time>2026-04-30T12:53:08.989Z</time></trkpt><trkpt lat="44.7371667" lon="9.4316967"><ele>708.0</ele><time>2026-04-30T12:53:09.993Z</time></trkpt><trkpt lat="44.737225" lon="9.4316183"><ele>708.0</ele><time>2026-04-30T12:53:10.99Z</time></trkpt><trkpt lat="44.737325" lon="9.4315033"><ele>708.0</ele><time>2026-04-30T12:53:12.989Z</time></trkpt><trkpt lat="44.7374033" lon="9.4314267"><ele>708.0</ele><time>2026-04-30T12:53:14.991Z</time></trkpt><trkpt lat="44.7374633" lon="9.4313583"><ele>708.0</ele><time>2026-04-30T12:53:16.993Z</time></trkpt><trkpt lat="44.73753" lon="9.4312883"><ele>708.0</ele><time>2026-04-30T12:53:19.991Z</time></trkpt><trkpt lat="44.7376233" lon="9.4313483"><ele>708.0</ele><time>2026-04-30T12:53:46.988Z</time></trkpt><trkpt lat="44.7377183" lon="9.431475"><ele>708.5</ele><time>2026-04-30T12:53:48.993Z</time></trkpt><trkpt lat="44.7377667" lon="9.43154"><ele>709.0</ele><time>2026-04-30T12:53:49.988Z</time></trkpt><trkpt lat="44.7378583" lon="9.4315783"><ele>709.5</ele><time>2026-04-30T12:53:51.988Z</time></trkpt><trkpt lat="44.737965" lon="9.4315483"><ele>710.0</ele><time>2026-04-30T12:53:53.991Z</time></trkpt><trkpt lat="44.7380317" lon="9.4315233"><ele>710.5</ele><time>2026-04-30T12:53:54.989Z</time></trkpt><trkpt lat="44.7380983" lon="9.4315"><ele>711.0</ele><time>2026-04-30T12:53:55.988Z</time></trkpt><trkpt lat="44.7381702" lon="9.4315028"><ele>711.0</ele><time>2026-04-30T12:53:56.989Z</time></trkpt><trkpt lat="44.7382612" lon="9.4315746"><ele>711.0</ele><time>2026-04-30T12:53:58.99Z</time></trkpt><trkpt lat="44.7382626" lon="9.4317068"><ele>711.0</ele><time>2026-04-30T12:54:00.989Z</time></trkpt><trkpt lat="44.738201" lon="9.4318301"><ele>711.0</ele><time>2026-04-30T12:54:02.99Z</time></trkpt><trkpt lat="44.7381393" lon="9.4318717"><ele>711.0</ele><time>2026-04-30T12:54:03.988Z</time></trkpt><trkpt lat="44.7380675" lon="9.4319035"><ele>711.0</ele><time>2026-04-30T12:54:04.988Z</time></trkpt><trkpt lat="44.7379886" lon="9.4319322"><ele>711.0</ele><time>2026-04-30T12:54:05.994Z</time></trkpt><trkpt lat="44.7379127" lon="9.4319578"><ele>711.0</ele><time>2026-04-30T12:54:06.989Z</time></trkpt><trkpt lat="44.737836" lon="9.4319769"><ele>711.0</ele><time>2026-04-30T12:54:07.988Z</time></trkpt><trkpt lat="44.737767" lon="9.431987"><ele>711.0</ele><time>2026-04-30T12:54:08.989Z</time></trkpt><trkpt lat="44.7376711" lon="9.4320476"><ele>711.0</ele><time>2026-04-30T12:54:10.988Z</time></trkpt><trkpt lat="44.737609" lon="9.4322144"><ele>712.5</ele><time>2026-04-30T12:54:12.993Z</time></trkpt><trkpt lat="44.7375895" lon="9.4323049"><ele>714.0</ele><time>2026-04-30T12:54:13.987Z</time></trkpt><trkpt lat="44.737577" lon="9.4324796"><ele>715.5</ele><time>2026-04-30T12:54:15.986Z</time></trkpt><trkpt lat="44.7375649" lon="9.4325672"><ele>717.0</ele><time>2026-04-30T12:54:16.988Z</time></trkpt><trkpt lat="44.7375527" lon="9.4326596"><ele>718.5</ele><time>2026-04-30T12:54:17.989Z</time></trkpt><trkpt lat="44.737534" lon="9.4327529"><ele>720.0</ele><time>2026-04-30T12:54:18.988Z</time></trkpt><trkpt lat="44.7375137" lon="9.4328396"><ele>722.1666666666666</ele><time>2026-04-30T12:54:19.989Z</time></trkpt><trkpt lat="44.737518" lon="9.4330017"><ele>724.3333333333334</ele><time>2026-04-30T12:54:21.987Z</time></trkpt><trkpt lat="44.7375435" lon="9.4330856"><ele>726.5</ele><time>2026-04-30T12:54:22.987Z</time></trkpt><trkpt lat="44.7375825" lon="9.4331702"><ele>728.6666666666667</ele><time>2026-04-30T12:54:23.987Z</time></trkpt><trkpt lat="44.7376401" lon="9.4332543"><ele>730.8333333333334</ele><time>2026-04-30T12:54:24.987Z</time></trkpt><trkpt lat="44.737706" lon="9.4333348"><ele>733.0</ele><time>2026-04-30T12:54:25.988Z</time></trkpt><trkpt lat="44.7377694" lon="9.4334039"><ele>734.6666666666667</ele><time>2026-04-30T12:54:26.995Z</time></trkpt><trkpt lat="44.7378277" lon="9.433468"><ele>736.3333333333334</ele><time>2026-04-30T12:54:27.988Z</time></trkpt><trkpt lat="44.7378747" lon="9.4335313"><ele>738.0</ele><time>2026-04-30T12:54:28.987Z</time></trkpt><trkpt lat="44.7379125" lon="9.4336826"><ele>739.6666666666666</ele><time>2026-04-30T12:54:30.988Z</time></trkpt><trkpt lat="44.7379131" lon="9.4337803"><ele>741.3333333333333</ele><time>2026-04-30T12:54:31.993Z</time></trkpt><trkpt lat="44.7379087" lon="9.4339045"><ele>743.0</ele><time>2026-04-30T12:54:32.989Z</time></trkpt><trkpt lat="44.737907" lon="9.4340411"><ele>744.6666666666666</ele><time>2026-04-30T12:54:33.987Z</time></trkpt><trkpt lat="44.7379057" lon="9.4341712"><ele>746.3333333333333</ele><time>2026-04-30T12:54:34.987Z</time></trkpt><trkpt lat="44.7379024" lon="9.4342921"><ele>748.0</ele><time>2026-04-30T12:54:35.989Z</time></trkpt><trkpt lat="44.7378997" lon="9.4343835"><ele>749.6666666666666</ele><time>2026-04-30T12:54:36.989Z</time></trkpt><trkpt lat="44.7379342" lon="9.4344706"><ele>751.3333333333334</ele><time>2026-04-30T12:54:38.991Z</time></trkpt><trkpt lat="44.7380177" lon="9.4344617"><ele>753.0</ele><time>2026-04-30T12:54:40.988Z</time></trkpt><trkpt lat="44.7380715" lon="9.4343166"><ele>753.0</ele><time>2026-04-30T12:54:42.987Z</time></trkpt><trkpt lat="44.7381052" lon="9.4342325"><ele>753.0</ele><time>2026-04-30T12:54:43.995Z</time></trkpt><trkpt lat="44.7381498" lon="9.4341685"><ele>753.0</ele><time>2026-04-30T12:54:44.989Z</time></trkpt><trkpt lat="44.7382575" lon="9.4341169"><ele>753.0</ele><time>2026-04-30T12:54:46.987Z</time></trkpt><trkpt lat="44.7383544" lon="9.4341692"><ele>753.0</ele><time>2026-04-30T12:54:48.988Z</time></trkpt><trkpt lat="44.7384031" lon="9.43423"><ele>753.0</ele><time>2026-04-30T12:54:49.987Z</time></trkpt><trkpt lat="44.7384531" lon="9.4343031"><ele>753.0</ele><time>2026-04-30T12:54:50.988Z</time></trkpt><trkpt lat="44.738498" lon="9.4343755"><ele>753.0</ele><time>2026-04-30T12:54:51.988Z</time></trkpt><trkpt lat="44.738537" lon="9.4344523"><ele>753.0</ele><time>2026-04-30T12:54:52.987Z</time></trkpt><trkpt lat="44.7385655" lon="9.4345384"><ele>753.0</ele><time>2026-04-30T12:54:53.986Z</time></trkpt><trkpt lat="44.7385875" lon="9.4346257"><ele>753.0</ele><time>2026-04-30T12:54:54.989Z</time></trkpt><trkpt lat="44.7386537" lon="9.4347782"><ele>753.0</ele><time>2026-04-30T12:54:56.988Z</time></trkpt><trkpt lat="44.7387072" lon="9.4348501"><ele>755.3333333333334</ele><time>2026-04-30T12:54:57.987Z</time></trkpt><trkpt lat="44.7387684" lon="9.4349216"><ele>757.6666666666666</ele><time>2026-04-30T12:54:58.993Z</time></trkpt><trkpt lat="44.7388281" lon="9.4349971"><ele>760.0</ele><time>2026-04-30T12:54:59.988Z</time></trkpt><trkpt lat="44.7388846" lon="9.4350751"><ele>762.3333333333333</ele><time>2026-04-30T12:55:00.988Z</time></trkpt><trkpt lat="44.7389326" lon="9.435136"><ele>764.6666666666666</ele><time>2026-04-30T12:55:01.988Z</time></trkpt><trkpt lat="44.7390374" lon="9.4351951"><ele>767.0</ele><time>2026-04-30T12:55:03.988Z</time></trkpt><trkpt lat="44.7391276" lon="9.4351394"><ele>767.0</ele><time>2026-04-30T12:55:05.987Z</time></trkpt><trkpt lat="44.7391942" lon="9.4350107"><ele>767.0</ele><time>2026-04-30T12:55:07.988Z</time></trkpt><trkpt lat="44.7392291" lon="9.4349312"><ele>767.0</ele><time>2026-04-30T12:55:08.987Z</time></trkpt><trkpt lat="44.7393212" lon="9.434835"><ele>767.0</ele><time>2026-04-30T12:55:10.989Z</time></trkpt><trkpt lat="44.7394045" lon="9.4348105"><ele>767.0</ele><time>2026-04-30T12:55:12.992Z</time></trkpt><trkpt lat="44.7394725" lon="9.4348877"><ele>767.0</ele><time>2026-04-30T12:55:14.988Z</time></trkpt><trkpt lat="44.7394737" lon="9.4350169"><ele>767.0</ele><time>2026-04-30T12:55:16.988Z</time></trkpt><trkpt lat="44.739445" lon="9.4351212"><ele>767.0</ele><time>2026-04-30T12:55:18.995Z</time></trkpt><trkpt lat="44.7393801" lon="9.4352215"><ele>767.0</ele><time>2026-04-30T12:55:20.99Z</time></trkpt><trkpt lat="44.7393077" lon="9.4353437"><ele>767.0</ele><time>2026-04-30T12:55:22.988Z</time></trkpt><trkpt lat="44.7392542" lon="9.4354989"><ele>768.8333333333333</ele><time>2026-04-30T12:55:24.988Z</time></trkpt><trkpt lat="44.7392277" lon="9.4355872"><ele>770.6666666666666</ele><time>2026-04-30T12:55:25.987Z</time></trkpt><trkpt lat="44.7392039" lon="9.4356753"><ele>772.5</ele><time>2026-04-30T12:55:26.988Z</time></trkpt><trkpt lat="44.7391861" lon="9.4357747"><ele>774.3333333333333</ele><time>2026-04-30T12:55:27.988Z</time></trkpt><trkpt lat="44.7391672" lon="9.435891"><ele>776.1666666666666</ele><time>2026-04-30T12:55:28.987Z</time></trkpt><trkpt lat="44.7391474" lon="9.4360248"><ele>778.0</ele><time>2026-04-30T12:55:29.991Z</time></trkpt><trkpt lat="44.7391223" lon="9.4361749"><ele>779.4</ele><time>2026-04-30T12:55:30.99Z</time></trkpt><trkpt lat="44.7390955" lon="9.4363313"><ele>780.8</ele><time>2026-04-30T12:55:31.989Z</time></trkpt><trkpt lat="44.7390645" lon="9.4364857"><ele>782.2</ele><time>2026-04-30T12:55:32.999Z</time></trkpt><trkpt lat="44.7390294" lon="9.4366297"><ele>783.6</ele><time>2026-04-30T12:55:33.987Z</time></trkpt><trkpt lat="44.7389949" lon="9.4367551"><ele>785.0</ele><time>2026-04-30T12:55:34.988Z</time></trkpt><trkpt lat="44.738967" lon="9.4368731"><ele>785.0000000000001</ele><time>2026-04-30T12:55:35.988Z</time></trkpt><trkpt lat="44.7389439" lon="9.4369859"><ele>785.0</ele><time>2026-04-30T12:55:36.987Z</time></trkpt><trkpt lat="44.7389225" lon="9.4370956"><ele>785.0</ele><time>2026-04-30T12:55:37.992Z</time></trkpt><trkpt lat="44.7389014" lon="9.4372088"><ele>785.0</ele><time>2026-04-30T12:55:38.989Z</time></trkpt><trkpt lat="44.7388771" lon="9.4373238"><ele>785.0000000000001</ele><time>2026-04-30T12:55:39.988Z</time></trkpt><trkpt lat="44.7388421" lon="9.4374345"><ele>785.0</ele><time>2026-04-30T12:55:40.99Z</time></trkpt><trkpt lat="44.7387894" lon="9.4375329"><ele>786.6</ele><time>2026-04-30T12:55:41.988Z</time></trkpt><trkpt lat="44.7387201" lon="9.437614"><ele>788.2</ele><time>2026-04-30T12:55:42.994Z</time></trkpt><trkpt lat="44.7386372" lon="9.437676"><ele>789.8</ele><time>2026-04-30T12:55:43.987Z</time></trkpt><trkpt lat="44.7385509" lon="9.4377356"><ele>791.4</ele><time>2026-04-30T12:55:44.989Z</time></trkpt><trkpt lat="44.7384701" lon="9.4378069"><ele>793.0</ele><time>2026-04-30T12:55:45.988Z</time></trkpt><trkpt lat="44.7383992" lon="9.4378931"><ele>793.9999999999999</ele><time>2026-04-30T12:55:46.987Z</time></trkpt><trkpt lat="44.738341" lon="9.4379906"><ele>795.0</ele><time>2026-04-30T12:55:47.988Z</time></trkpt><trkpt lat="44.7382994" lon="9.4380966"><ele>796.0</ele><time>2026-04-30T12:55:48.988Z</time></trkpt><trkpt lat="44.7382627" lon="9.4381982"><ele>797.0</ele><time>2026-04-30T12:55:49.989Z</time></trkpt><trkpt lat="44.7382242" lon="9.4382812"><ele>797.9999999999999</ele><time>2026-04-30T12:55:50.99Z</time></trkpt><trkpt lat="44.73816" lon="9.4383907"><ele>799.0</ele><time>2026-04-30T12:55:52.987Z</time></trkpt><trkpt lat="44.7382312" lon="9.4384335"><ele>799.0</ele><time>2026-04-30T12:55:56.987Z</time></trkpt><trkpt lat="44.7382875" lon="9.4383678"><ele>799.0</ele><time>2026-04-30T12:55:58.99Z</time></trkpt><trkpt lat="44.7383561" lon="9.4382587"><ele>799.0</ele><time>2026-04-30T12:56:00.987Z</time></trkpt><trkpt lat="44.7384517" lon="9.4381945"><ele>799.0</ele><time>2026-04-30T12:56:02.99Z</time></trkpt><trkpt lat="44.7385432" lon="9.438233"><ele>799.0</ele><time>2026-04-30T12:56:04.989Z</time></trkpt><trkpt lat="44.7386222" lon="9.4383325"><ele>800.2</ele><time>2026-04-30T12:56:06.987Z</time></trkpt><trkpt lat="44.7386726" lon="9.4384877"><ele>801.4000000000001</ele><time>2026-04-30T12:56:08.988Z</time></trkpt><trkpt lat="44.7387056" lon="9.4385793"><ele>802.6</ele><time>2026-04-30T12:56:09.994Z</time></trkpt><trkpt lat="44.7387352" lon="9.4386612"><ele>803.8</ele><time>2026-04-30T12:56:10.988Z</time></trkpt><trkpt lat="44.7387469" lon="9.4388259"><ele>805.0</ele><time>2026-04-30T12:56:12.988Z</time></trkpt><trkpt lat="44.7387536" lon="9.4389832"><ele>806.8333333333333</ele><time>2026-04-30T12:56:14.988Z</time></trkpt><trkpt lat="44.7388068" lon="9.4391002"><ele>808.6666666666666</ele><time>2026-04-30T12:56:16.988Z</time></trkpt><trkpt lat="44.7388403" lon="9.4392208"><ele>810.5</ele><time>2026-04-30T12:56:18.994Z</time></trkpt><trkpt lat="44.7389013" lon="9.4393542"><ele>812.3333333333333</ele><time>2026-04-30T12:56:20.987Z</time></trkpt><trkpt lat="44.7389535" lon="9.4394159"><ele>814.1666666666666</ele><time>2026-04-30T12:56:21.986Z</time></trkpt><trkpt lat="44.7390137" lon="9.439447"><ele>816.0</ele><time>2026-04-30T12:56:22.988Z</time></trkpt><trkpt lat="44.7391293" lon="9.4393988"><ele>816.0</ele><time>2026-04-30T12:56:24.994Z</time></trkpt><trkpt lat="44.7392127" lon="9.4393781"><ele>816.0</ele><time>2026-04-30T12:56:26.988Z</time></trkpt><trkpt lat="44.7392731" lon="9.4394304"><ele>816.0</ele><time>2026-04-30T12:56:28.988Z</time></trkpt><trkpt lat="44.739348" lon="9.4395278"><ele>816.0</ele><time>2026-04-30T12:56:30.987Z</time></trkpt><trkpt lat="44.7394638" lon="9.4395892"><ele>816.0</ele><time>2026-04-30T12:56:32.989Z</time></trkpt><trkpt lat="44.7395767" lon="9.4396416"><ele>820.1999999999999</ele><time>2026-04-30T12:56:34.987Z</time></trkpt><trkpt lat="44.7396538" lon="9.4397689"><ele>824.4</ele><time>2026-04-30T12:56:36.989Z</time></trkpt><trkpt lat="44.7396793" lon="9.4398724"><ele>828.6</ele><time>2026-04-30T12:56:37.987Z</time></trkpt><trkpt lat="44.7397109" lon="9.4399952"><ele>832.8</ele><time>2026-04-30T12:56:38.993Z</time></trkpt><trkpt lat="44.7397541" lon="9.4401173"><ele>837.0</ele><time>2026-04-30T12:56:39.987Z</time></trkpt><trkpt lat="44.739805" lon="9.4402315"><ele>837.0</ele><time>2026-04-30T12:56:40.987Z</time></trkpt><trkpt lat="44.7398523" lon="9.4403363"><ele>837.0</ele><time>2026-04-30T12:56:41.988Z</time></trkpt><trkpt lat="44.7398945" lon="9.4404357"><ele>837.0</ele><time>2026-04-30T12:56:42.988Z</time></trkpt><trkpt lat="44.7399238" lon="9.4405222"><ele>837.0</ele><time>2026-04-30T12:56:43.987Z</time></trkpt><trkpt lat="44.739944" lon="9.4406726"><ele>837.0</ele><time>2026-04-30T12:56:45.992Z</time></trkpt><trkpt lat="44.7399333" lon="9.4407922"><ele>837.0</ele><time>2026-04-30T12:56:47.989Z</time></trkpt><trkpt lat="44.7399115" lon="9.4409296"><ele>839.3333333333334</ele><time>2026-04-30T12:56:49.988Z</time></trkpt><trkpt lat="44.739907" lon="9.4410182"><ele>841.6666666666667</ele><time>2026-04-30T12:56:50.991Z</time></trkpt><trkpt lat="44.7398957" lon="9.4411233"><ele>844.0</ele><time>2026-04-30T12:56:51.991Z</time></trkpt><trkpt lat="44.7398717" lon="9.4412259"><ele>846.3333333333334</ele><time>2026-04-30T12:56:52.995Z</time></trkpt><trkpt lat="44.7398384" lon="9.4413191"><ele>848.6666666666667</ele><time>2026-04-30T12:56:53.988Z</time></trkpt><trkpt lat="44.7398018" lon="9.4413994"><ele>851.0</ele><time>2026-04-30T12:56:54.988Z</time></trkpt><trkpt lat="44.7397681" lon="9.4415661"><ele>853.0000000000001</ele><time>2026-04-30T12:56:56.988Z</time></trkpt><trkpt lat="44.7397726" lon="9.4416619"><ele>855.0</ele><time>2026-04-30T12:56:57.99Z</time></trkpt><trkpt lat="44.7397794" lon="9.4417566"><ele>857.0</ele><time>2026-04-30T12:56:58.988Z</time></trkpt><trkpt lat="44.7397814" lon="9.4418502"><ele>859.0</ele><time>2026-04-30T12:56:59.988Z</time></trkpt><trkpt lat="44.7397691" lon="9.4420043"><ele>861.0000000000001</ele><time>2026-04-30T12:57:01.988Z</time></trkpt><trkpt lat="44.7396956" lon="9.4421321"><ele>863.0</ele><time>2026-04-30T12:57:03.996Z</time></trkpt><trkpt lat="44.7396518" lon="9.4422681"><ele>865.4</ele><time>2026-04-30T12:57:05.989Z</time></trkpt><trkpt lat="44.7396723" lon="9.442397"><ele>867.8</ele><time>2026-04-30T12:57:07.99Z</time></trkpt><trkpt lat="44.7397284" lon="9.4424777"><ele>870.2</ele><time>2026-04-30T12:57:09.988Z</time></trkpt><trkpt lat="44.7398062" lon="9.4425609"><ele>872.6</ele><time>2026-04-30T12:57:11.988Z</time></trkpt><trkpt lat="44.7399089" lon="9.442659"><ele>875.0</ele><time>2026-04-30T12:57:13.988Z</time></trkpt><trkpt lat="44.7399891" lon="9.4427822"><ele>875.0</ele><time>2026-04-30T12:57:15.988Z</time></trkpt><trkpt lat="44.7400201" lon="9.4428606"><ele>875.0</ele><time>2026-04-30T12:57:16.988Z</time></trkpt><trkpt lat="44.7400454" lon="9.443013"><ele>875.0</ele><time>2026-04-30T12:57:18.988Z</time></trkpt><trkpt lat="44.7400362" lon="9.4431321"><ele>875.0</ele><time>2026-04-30T12:57:20.989Z</time></trkpt><trkpt lat="44.7400334" lon="9.4432602"><ele>875.0</ele><time>2026-04-30T12:57:22.994Z</time></trkpt><trkpt lat="44.7400146" lon="9.4434052"><ele>877.2</ele><time>2026-04-30T12:57:24.99Z</time></trkpt><trkpt lat="44.7399608" lon="9.443515"><ele>879.4</ele><time>2026-04-30T12:57:26.989Z</time></trkpt><trkpt lat="44.7398746" lon="9.4435654"><ele>881.5999999999999</ele><time>2026-04-30T12:57:28.987Z</time></trkpt><trkpt lat="44.7397904" lon="9.4436407"><ele>883.8</ele><time>2026-04-30T12:57:30.988Z</time></trkpt><trkpt lat="44.7397345" lon="9.4437889"><ele>886.0</ele><time>2026-04-30T12:57:32.989Z</time></trkpt><trkpt lat="44.7397178" lon="9.443878"><ele>889.4</ele><time>2026-04-30T12:57:33.989Z</time></trkpt><trkpt lat="44.7396971" lon="9.443962"><ele>892.8</ele><time>2026-04-30T12:57:34.994Z</time></trkpt><trkpt lat="44.7396572" lon="9.4441038"><ele>896.1999999999999</ele><time>2026-04-30T12:57:36.986Z</time></trkpt><trkpt lat="44.7396032" lon="9.4441932"><ele>899.5999999999999</ele><time>2026-04-30T12:57:38.987Z</time></trkpt><trkpt lat="44.7395206" lon="9.4442612"><ele>903.0</ele><time>2026-04-30T12:57:40.988Z</time></trkpt><trkpt lat="44.7394361" lon="9.4443338"><ele>903.6666666666666</ele><time>2026-04-30T12:57:42.99Z</time></trkpt><trkpt lat="44.7393715" lon="9.4444362"><ele>904.3333333333333</ele><time>2026-04-30T12:57:44.989Z</time></trkpt><trkpt lat="44.7392966" lon="9.4445801"><ele>905.0</ele><time>2026-04-30T12:57:46.987Z</time></trkpt><trkpt lat="44.7392628" lon="9.4446612"><ele>905.6666666666666</ele><time>2026-04-30T12:57:47.988Z</time></trkpt><trkpt lat="44.739229" lon="9.4447478"><ele>906.3333333333333</ele><time>2026-04-30T12:57:48.988Z</time></trkpt><trkpt lat="44.7391936" lon="9.444837"><ele>907.0</ele><time>2026-04-30T12:57:49.988Z</time></trkpt><trkpt lat="44.7391555" lon="9.4449258"><ele>907.0</ele><time>2026-04-30T12:57:50.989Z</time></trkpt><trkpt lat="44.7391219" lon="9.4450119"><ele>907.0</ele><time>2026-04-30T12:57:51.989Z</time></trkpt><trkpt lat="44.7390846" lon="9.4450931"><ele>907.0</ele><time>2026-04-30T12:57:52.989Z</time></trkpt><trkpt lat="44.7389969" lon="9.4452109"><ele>907.0</ele><time>2026-04-30T12:57:54.989Z</time></trkpt><trkpt lat="44.7389028" lon="9.4452937"><ele>907.0</ele><time>2026-04-30T12:57:56.993Z</time></trkpt><trkpt lat="44.738883" lon="9.4454049"><ele>909.4999999999999</ele><time>2026-04-30T12:57:58.989Z</time></trkpt><trkpt lat="44.7389317" lon="9.4455129"><ele>912.0</ele><time>2026-04-30T12:58:00.99Z</time></trkpt><trkpt lat="44.7390003" lon="9.4456496"><ele>914.5</ele><time>2026-04-30T12:58:02.989Z</time></trkpt><trkpt lat="44.7390385" lon="9.4457417"><ele>917.0</ele><time>2026-04-30T12:58:03.988Z</time></trkpt><trkpt lat="44.7390719" lon="9.4458442"><ele>919.4999999999999</ele><time>2026-04-30T12:58:04.992Z</time></trkpt><trkpt lat="44.7390936" lon="9.4459449"><ele>922.0</ele><time>2026-04-30T12:58:05.989Z</time></trkpt><trkpt lat="44.7391043" lon="9.4460529"><ele>921.9999999999999</ele><time>2026-04-30T12:58:06.989Z</time></trkpt><trkpt lat="44.7391035" lon="9.4461681"><ele>922.0</ele><time>2026-04-30T12:58:07.988Z</time></trkpt><trkpt lat="44.7390964" lon="9.4462823"><ele>922.0</ele><time>2026-04-30T12:58:08.988Z</time></trkpt><trkpt lat="44.7390798" lon="9.4463797"><ele>922.0</ele><time>2026-04-30T12:58:09.995Z</time></trkpt><trkpt lat="44.7390652" lon="9.4464678"><ele>921.9999999999999</ele><time>2026-04-30T12:58:10.988Z</time></trkpt><trkpt lat="44.7389899" lon="9.4464628"><ele>922.0</ele><time>2026-04-30T12:58:12.988Z</time></trkpt><trkpt lat="44.7388808" lon="9.4463921"><ele>925.6666666666666</ele><time>2026-04-30T12:58:14.989Z</time></trkpt><trkpt lat="44.7388037" lon="9.4463647"><ele>929.3333333333333</ele><time>2026-04-30T12:58:15.988Z</time></trkpt><trkpt lat="44.7387254" lon="9.4463505"><ele>933.0</ele><time>2026-04-30T12:58:16.989Z</time></trkpt><trkpt lat="44.7386433" lon="9.4463447"><ele>936.6666666666667</ele><time>2026-04-30T12:58:17.988Z</time></trkpt><trkpt lat="44.7385471" lon="9.4463459"><ele>940.3333333333334</ele><time>2026-04-30T12:58:18.988Z</time></trkpt><trkpt lat="44.7384627" lon="9.4463587"><ele>944.0</ele><time>2026-04-30T12:58:19.988Z</time></trkpt><trkpt lat="44.7383828" lon="9.4463775"><ele>945.0000000000001</ele><time>2026-04-30T12:58:20.993Z</time></trkpt><trkpt lat="44.738311" lon="9.4464116"><ele>946.0</ele><time>2026-04-30T12:58:21.988Z</time></trkpt><trkpt lat="44.7382394" lon="9.4464619"><ele>947.0</ele><time>2026-04-30T12:58:22.989Z</time></trkpt><trkpt lat="44.7381771" lon="9.4465207"><ele>948.0</ele><time>2026-04-30T12:58:23.987Z</time></trkpt><trkpt lat="44.7381176" lon="9.4465872"><ele>949.0000000000001</ele><time>2026-04-30T12:58:24.989Z</time></trkpt><trkpt lat="44.738074" lon="9.446663"><ele>950.0</ele><time>2026-04-30T12:58:25.987Z</time></trkpt><trkpt lat="44.7380481" lon="9.4468418"><ele>950.0</ele><time>2026-04-30T12:58:27.989Z</time></trkpt><trkpt lat="44.7380409" lon="9.4469408"><ele>950.0</ele><time>2026-04-30T12:58:28.988Z</time></trkpt><trkpt lat="44.7380031" lon="9.4471026"><ele>950.0</ele><time>2026-04-30T12:58:30.989Z</time></trkpt><trkpt lat="44.7379604" lon="9.4471749"><ele>950.0</ele><time>2026-04-30T12:58:31.988Z</time></trkpt><trkpt lat="44.7379094" lon="9.4472288"><ele>950.0</ele><time>2026-04-30T12:58:32.99Z</time></trkpt><trkpt lat="44.7377916" lon="9.4473052"><ele>950.6666666666667</ele><time>2026-04-30T12:58:34.99Z</time></trkpt><trkpt lat="44.7377199" lon="9.4473599"><ele>951.3333333333334</ele><time>2026-04-30T12:58:35.987Z</time></trkpt><trkpt lat="44.7376425" lon="9.4474125"><ele>952.0</ele><time>2026-04-30T12:58:36.996Z</time></trkpt><trkpt lat="44.7375624" lon="9.4474553"><ele>952.6666666666667</ele><time>2026-04-30T12:58:37.988Z</time></trkpt><trkpt lat="44.7374859" lon="9.4474916"><ele>953.3333333333334</ele><time>2026-04-30T12:58:38.989Z</time></trkpt><trkpt lat="44.737419" lon="9.4475298"><ele>954.0</ele><time>2026-04-30T12:58:39.988Z</time></trkpt><trkpt lat="44.737351" lon="9.4476757"><ele>954.0</ele><time>2026-04-30T12:58:41.988Z</time></trkpt><trkpt lat="44.7373326" lon="9.4478038"><ele>954.0</ele><time>2026-04-30T12:58:42.988Z</time></trkpt><trkpt lat="44.7373202" lon="9.4479345"><ele>954.0</ele><time>2026-04-30T12:58:43.992Z</time></trkpt><trkpt lat="44.7373032" lon="9.4480455"><ele>954.0</ele><time>2026-04-30T12:58:44.99Z</time></trkpt><trkpt lat="44.7372367" lon="9.4481347"><ele>954.0</ele><time>2026-04-30T12:58:46.989Z</time></trkpt><trkpt lat="44.7371634" lon="9.4481565"><ele>954.0</ele><time>2026-04-30T12:58:49.991Z</time></trkpt><trkpt lat="44.7372186" lon="9.4482452"><ele>954.0</ele><time>2026-04-30T12:58:53.989Z</time></trkpt><trkpt lat="44.737235" lon="9.44835"><ele>954.0</ele><time>2026-04-30T12:59:38.989Z</time></trkpt><trkpt lat="44.7373233" lon="9.4483483"><ele>954.0</ele><time>2026-04-30T12:59:40.991Z</time></trkpt><trkpt lat="44.7373933" lon="9.44819"><ele>954.0</ele><time>2026-04-30T12:59:42.99Z</time></trkpt><trkpt lat="44.7374317" lon="9.4480933"><ele>954.0</ele><time>2026-04-30T12:59:43.988Z</time></trkpt><trkpt lat="44.73747" lon="9.44801"><ele>954.0</ele><time>2026-04-30T12:59:44.988Z</time></trkpt><trkpt lat="44.7375583" lon="9.44796"><ele>957.4000000000001</ele><time>2026-04-30T12:59:46.988Z</time></trkpt><trkpt lat="44.73766" lon="9.447995"><ele>960.8000000000001</ele><time>2026-04-30T12:59:48.99Z</time></trkpt><trkpt lat="44.7377233" lon="9.4480167"><ele>964.1999999999999</ele><time>2026-04-30T12:59:49.989Z</time></trkpt><trkpt lat="44.73787" lon="9.4480417"><ele>967.5999999999999</ele><time>2026-04-30T12:59:51.995Z</time></trkpt><trkpt lat="44.7379567" lon="9.4480583"><ele>971.0</ele><time>2026-04-30T12:59:52.992Z</time></trkpt><trkpt lat="44.7380383" lon="9.4480733"><ele>971.3333333333334</ele><time>2026-04-30T12:59:53.989Z</time></trkpt><trkpt lat="44.73811" lon="9.4480733"><ele>971.6666666666667</ele><time>2026-04-30T12:59:54.989Z</time></trkpt><trkpt lat="44.738185" lon="9.4480617"><ele>972.0</ele><time>2026-04-30T12:59:55.987Z</time></trkpt><trkpt lat="44.7382617" lon="9.4480283"><ele>972.3333333333333</ele><time>2026-04-30T12:59:56.992Z</time></trkpt><trkpt lat="44.7383283" lon="9.44797"><ele>972.6666666666666</ele><time>2026-04-30T12:59:57.988Z</time></trkpt><trkpt lat="44.738395" lon="9.4478983"><ele>973.0</ele><time>2026-04-30T12:59:58.988Z</time></trkpt><trkpt lat="44.7384583" lon="9.44781"><ele>972.9999999999999</ele><time>2026-04-30T12:59:59.989Z</time></trkpt><trkpt lat="44.7385267" lon="9.4477217"><ele>973.0</ele><time>2026-04-30T13:00:00.988Z</time></trkpt><trkpt lat="44.738595" lon="9.44766"><ele>973.0</ele><time>2026-04-30T13:00:01.991Z</time></trkpt><trkpt lat="44.73866" lon="9.4476283"><ele>973.0</ele><time>2026-04-30T13:00:02.988Z</time></trkpt><trkpt lat="44.7387767" lon="9.4476633"><ele>972.9999999999999</ele><time>2026-04-30T13:00:04.988Z</time></trkpt><trkpt lat="44.738835" lon="9.4477017"><ele>973.0</ele><time>2026-04-30T13:00:05.988Z</time></trkpt><trkpt lat="44.7388833" lon="9.4477617"><ele>973.3333333333333</ele><time>2026-04-30T13:00:06.99Z</time></trkpt><trkpt lat="44.7389217" lon="9.4478417"><ele>973.6666666666666</ele><time>2026-04-30T13:00:07.988Z</time></trkpt><trkpt lat="44.7389617" lon="9.4479283"><ele>974.0</ele><time>2026-04-30T13:00:08.989Z</time></trkpt><trkpt lat="44.7390117" lon="9.4480133"><ele>974.3333333333333</ele><time>2026-04-30T13:00:09.987Z</time></trkpt><trkpt lat="44.7390633" lon="9.4480817"><ele>974.6666666666666</ele><time>2026-04-30T13:00:10.987Z</time></trkpt><trkpt lat="44.739125" lon="9.4481317"><ele>975.0</ele><time>2026-04-30T13:00:11.989Z</time></trkpt><trkpt lat="44.7392383" lon="9.44814"><ele>981.2</ele><time>2026-04-30T13:00:13.994Z</time></trkpt><trkpt lat="44.73935" lon="9.44814"><ele>987.4</ele><time>2026-04-30T13:00:15.989Z</time></trkpt><trkpt lat="44.7394417" lon="9.4482167"><ele>993.5999999999999</ele><time>2026-04-30T13:00:17.992Z</time></trkpt><trkpt lat="44.7395583" lon="9.44824"><ele>999.8</ele><time>2026-04-30T13:00:19.99Z</time></trkpt><trkpt lat="44.7396217" lon="9.4482283"><ele>1006.0</ele><time>2026-04-30T13:00:20.991Z</time></trkpt><trkpt lat="44.7396917" lon="9.4482117"><ele>1006.8</ele><time>2026-04-30T13:00:21.995Z</time></trkpt><trkpt lat="44.7397717" lon="9.4482033"><ele>1007.5999999999999</ele><time>2026-04-30T13:00:22.989Z</time></trkpt><trkpt lat="44.739875" lon="9.4481883"><ele>1008.4</ele><time>2026-04-30T13:00:23.99Z</time></trkpt><trkpt lat="44.7399867" lon="9.44815"><ele>1009.2</ele><time>2026-04-30T13:00:24.987Z</time></trkpt><trkpt lat="44.740105" lon="9.4480967"><ele>1010.0</ele><time>2026-04-30T13:00:25.989Z</time></trkpt><trkpt lat="44.7402133" lon="9.44804"><ele>1011.0</ele><time>2026-04-30T13:00:26.988Z</time></trkpt><trkpt lat="44.7403083" lon="9.447995"><ele>1012.0</ele><time>2026-04-30T13:00:27.987Z</time></trkpt><trkpt lat="44.740405" lon="9.447965"><ele>1013.0</ele><time>2026-04-30T13:00:28.994Z</time></trkpt><trkpt lat="44.7404967" lon="9.44795"><ele>1014.0</ele><time>2026-04-30T13:00:29.991Z</time></trkpt><trkpt lat="44.7405933" lon="9.4479417"><ele>1015.0</ele><time>2026-04-30T13:00:30.99Z</time></trkpt><trkpt lat="44.740685" lon="9.447925"><ele>1014.1666666666666</ele><time>2026-04-30T13:00:31.989Z</time></trkpt><trkpt lat="44.74077" lon="9.4479033"><ele>1013.3333333333333</ele><time>2026-04-30T13:00:32.992Z</time></trkpt><trkpt lat="44.7408467" lon="9.4478783"><ele>1012.5</ele><time>2026-04-30T13:00:33.989Z</time></trkpt><trkpt lat="44.74092" lon="9.4478483"><ele>1011.6666666666667</ele><time>2026-04-30T13:00:34.995Z</time></trkpt><trkpt lat="44.7409817" lon="9.4478133"><ele>1010.8333333333334</ele><time>2026-04-30T13:00:35.989Z</time></trkpt><trkpt lat="44.741095" lon="9.4477467"><ele>1010.0</ele><time>2026-04-30T13:00:37.988Z</time></trkpt><trkpt lat="44.7412" lon="9.4477067"><ele>1010.0</ele><time>2026-04-30T13:00:39.99Z</time></trkpt><trkpt lat="44.741305" lon="9.4476517"><ele>1010.0</ele><time>2026-04-30T13:00:41.989Z</time></trkpt><trkpt lat="44.741395" lon="9.44755"><ele>1010.0</ele><time>2026-04-30T13:00:43.995Z</time></trkpt><trkpt lat="44.741455" lon="9.447485"><ele>1010.0</ele><time>2026-04-30T13:00:44.989Z</time></trkpt><trkpt lat="44.74153" lon="9.4474233"><ele>1010.0</ele><time>2026-04-30T13:00:45.989Z</time></trkpt><trkpt lat="44.74161" lon="9.4473817"><ele>1010.0000000000001</ele><time>2026-04-30T13:00:46.987Z</time></trkpt><trkpt lat="44.7416883" lon="9.447365"><ele>1010.0</ele><time>2026-04-30T13:00:47.988Z</time></trkpt><trkpt lat="44.7417683" lon="9.4473617"><ele>1010.0</ele><time>2026-04-30T13:00:48.989Z</time></trkpt><trkpt lat="44.74185" lon="9.4473667"><ele>1010.0</ele><time>2026-04-30T13:00:49.988Z</time></trkpt><trkpt lat="44.7419317" lon="9.44737"><ele>1010.0000000000001</ele><time>2026-04-30T13:00:50.988Z</time></trkpt><trkpt lat="44.74202" lon="9.4473783"><ele>1010.0</ele><time>2026-04-30T13:00:51.988Z</time></trkpt><trkpt lat="44.7421183" lon="9.44738"><ele>1010.0</ele><time>2026-04-30T13:00:53.003Z</time></trkpt><trkpt lat="44.7422317" lon="9.447375"><ele>1010.0</ele><time>2026-04-30T13:00:53.988Z</time></trkpt><trkpt lat="44.7423633" lon="9.4473683"><ele>1010.0</ele><time>2026-04-30T13:00:54.99Z</time></trkpt><trkpt lat="44.7424933" lon="9.447365"><ele>1010.0</ele><time>2026-04-30T13:00:55.989Z</time></trkpt><trkpt lat="44.7426383" lon="9.4473883"><ele>1013.8</ele><time>2026-04-30T13:00:56.991Z</time></trkpt><trkpt lat="44.74276" lon="9.4474"><ele>1017.6</ele><time>2026-04-30T13:00:57.988Z</time></trkpt><trkpt lat="44.74286" lon="9.4473883"><ele>1021.4000000000001</ele><time>2026-04-30T13:00:58.99Z</time></trkpt><trkpt lat="44.7429383" lon="9.4473433"><ele>1025.2</ele><time>2026-04-30T13:00:59.99Z</time></trkpt><trkpt lat="44.74301" lon="9.447275"><ele>1029.0</ele><time>2026-04-30T13:01:00.988Z</time></trkpt><trkpt lat="44.7430767" lon="9.4471767"><ele>1023.75</ele><time>2026-04-30T13:01:01.994Z</time></trkpt><trkpt lat="44.743145" lon="9.4470517"><ele>1018.5</ele><time>2026-04-30T13:01:02.989Z</time></trkpt><trkpt lat="44.7432217" lon="9.4469367"><ele>1013.25</ele><time>2026-04-30T13:01:03.988Z</time></trkpt><trkpt lat="44.7433067" lon="9.4468283"><ele>1008.0</ele><time>2026-04-30T13:01:04.989Z</time></trkpt><trkpt lat="44.7433867" lon="9.4467167"><ele>1008.0</ele><time>2026-04-30T13:01:05.989Z</time></trkpt><trkpt lat="44.74344" lon="9.446585"><ele>1008.0</ele><time>2026-04-30T13:01:06.988Z</time></trkpt><trkpt lat="44.7434867" lon="9.44645"><ele>1008.0</ele><time>2026-04-30T13:01:07.996Z</time></trkpt><trkpt lat="44.7435333" lon="9.446335"><ele>1008.0</ele><time>2026-04-30T13:01:08.989Z</time></trkpt><trkpt lat="44.7435717" lon="9.4462167"><ele>1008.0</ele><time>2026-04-30T13:01:09.989Z</time></trkpt><trkpt lat="44.743605" lon="9.4461117"><ele>1011.6666666666666</ele><time>2026-04-30T13:01:10.988Z</time></trkpt><trkpt lat="44.7436367" lon="9.4460283"><ele>1015.3333333333333</ele><time>2026-04-30T13:01:11.988Z</time></trkpt><trkpt lat="44.7436817" lon="9.4459467"><ele>1019.0</ele><time>2026-04-30T13:01:13.99Z</time></trkpt><trkpt lat="44.7437533" lon="9.4459133"><ele>1022.6666666666666</ele><time>2026-04-30T13:01:16.99Z</time></trkpt><trkpt lat="44.74384" lon="9.4458717"><ele>1026.3333333333333</ele><time>2026-04-30T13:01:18.994Z</time></trkpt><trkpt lat="44.7439067" lon="9.4458183"><ele>1030.0</ele><time>2026-04-30T13:01:20.99Z</time></trkpt><trkpt lat="44.74394" lon="9.4457033"><ele>1030.0</ele><time>2026-04-30T13:01:23.99Z</time></trkpt><trkpt lat="44.74399" lon="9.4456083"><ele>1030.0</ele><time>2026-04-30T13:01:25.988Z</time></trkpt><trkpt lat="44.7440567" lon="9.445545"><ele>1030.0</ele><time>2026-04-30T13:01:27.987Z</time></trkpt><trkpt lat="44.7441183" lon="9.4454717"><ele>1030.0</ele><time>2026-04-30T13:01:29.988Z</time></trkpt><trkpt lat="44.744145" lon="9.4453433"><ele>1030.0</ele><time>2026-04-30T13:01:31.988Z</time></trkpt><trkpt lat="44.7441433" lon="9.4452017"><ele>1030.0</ele><time>2026-04-30T13:01:33.99Z</time></trkpt><trkpt lat="44.7441542" lon="9.4450663"><ele>1032.4</ele><time>2026-04-30T13:01:35.987Z</time></trkpt><trkpt lat="44.7442058" lon="9.4449331"><ele>1034.8</ele><time>2026-04-30T13:01:37.989Z</time></trkpt><trkpt lat="44.7442933" lon="9.4448273"><ele>1037.2</ele><time>2026-04-30T13:01:39.991Z</time></trkpt><trkpt lat="44.7443885" lon="9.4447327"><ele>1039.6</ele><time>2026-04-30T13:01:41.995Z</time></trkpt><trkpt lat="44.7444659" lon="9.4446361"><ele>1042.0</ele><time>2026-04-30T13:01:43.994Z</time></trkpt><trkpt lat="44.744555" lon="9.4444969"><ele>1042.0</ele><time>2026-04-30T13:01:45.987Z</time></trkpt><trkpt lat="44.7446164" lon="9.4444257"><ele>1042.0</ele><time>2026-04-30T13:01:46.988Z</time></trkpt><trkpt lat="44.7446853" lon="9.4443505"><ele>1042.0</ele><time>2026-04-30T13:01:47.989Z</time></trkpt><trkpt lat="44.7447548" lon="9.4442516"><ele>1042.0</ele><time>2026-04-30T13:01:48.988Z</time></trkpt><trkpt lat="44.7448165" lon="9.4441421"><ele>1042.0</ele><time>2026-04-30T13:01:49.989Z</time></trkpt><trkpt lat="44.7448759" lon="9.4440395"><ele>1042.0</ele><time>2026-04-30T13:01:50.991Z</time></trkpt><trkpt lat="44.7449334" lon="9.4439267"><ele>1042.0</ele><time>2026-04-30T13:01:51.989Z</time></trkpt><trkpt lat="44.744995" lon="9.4438092"><ele>1042.0</ele><time>2026-04-30T13:01:52.99Z</time></trkpt><trkpt lat="44.7450422" lon="9.4436954"><ele>1042.0</ele><time>2026-04-30T13:01:53.99Z</time></trkpt><trkpt lat="44.745075" lon="9.443595"><ele>1042.0</ele><time>2026-04-30T13:01:54.995Z</time></trkpt><trkpt lat="44.7451133" lon="9.4434617"><ele>1043.8333333333333</ele><time>2026-04-30T13:01:56.99Z</time></trkpt><trkpt lat="44.7451817" lon="9.4433733"><ele>1045.6666666666665</ele><time>2026-04-30T13:01:59.995Z</time></trkpt><trkpt lat="44.745245" lon="9.44335"><ele>1047.5</ele><time>2026-04-30T13:02:01.988Z</time></trkpt><trkpt lat="44.74531" lon="9.4432717"><ele>1049.3333333333333</ele><time>2026-04-30T13:02:03.991Z</time></trkpt><trkpt lat="44.7453883" lon="9.4431333"><ele>1051.1666666666667</ele><time>2026-04-30T13:02:05.989Z</time></trkpt><trkpt lat="44.74543" lon="9.4430617"><ele>1053.0</ele><time>2026-04-30T13:02:06.996Z</time></trkpt><trkpt lat="44.7454717" lon="9.4429933"><ele>1048.4</ele><time>2026-04-30T13:02:07.991Z</time></trkpt><trkpt lat="44.7455467" lon="9.4428683"><ele>1043.8</ele><time>2026-04-30T13:02:09.99Z</time></trkpt><trkpt lat="44.7456367" lon="9.4427367"><ele>1039.2</ele><time>2026-04-30T13:02:11.99Z</time></trkpt><trkpt lat="44.745685" lon="9.442665"><ele>1034.6</ele><time>2026-04-30T13:02:12.993Z</time></trkpt><trkpt lat="44.74573" lon="9.4425867"><ele>1030.0</ele><time>2026-04-30T13:02:13.989Z</time></trkpt><trkpt lat="44.745785" lon="9.4425033"><ele>1030.0</ele><time>2026-04-30T13:02:14.989Z</time></trkpt><trkpt lat="44.7458417" lon="9.4424017"><ele>1030.0</ele><time>2026-04-30T13:02:15.99Z</time></trkpt><trkpt lat="44.7458917" lon="9.442315"><ele>1030.0</ele><time>2026-04-30T13:02:16.991Z</time></trkpt><trkpt lat="44.7459433" lon="9.4422367"><ele>1030.0</ele><time>2026-04-30T13:02:17.993Z</time></trkpt><trkpt lat="44.7459867" lon="9.442145"><ele>1030.0</ele><time>2026-04-30T13:02:18.987Z</time></trkpt><trkpt lat="44.74603" lon="9.44206"><ele>1030.0</ele><time>2026-04-30T13:02:19.987Z</time></trkpt><trkpt lat="44.7460733" lon="9.44197"><ele>1029.4</ele><time>2026-04-30T13:02:20.988Z</time></trkpt><trkpt lat="44.7461067" lon="9.44189"><ele>1028.8</ele><time>2026-04-30T13:02:21.988Z</time></trkpt><trkpt lat="44.74617" lon="9.44174"><ele>1028.2</ele><time>2026-04-30T13:02:23.987Z</time></trkpt><trkpt lat="44.74626" lon="9.4416383"><ele>1027.6</ele><time>2026-04-30T13:02:25.987Z</time></trkpt><trkpt lat="44.7463717" lon="9.4415967"><ele>1027.0</ele><time>2026-04-30T13:02:27.987Z</time></trkpt><trkpt lat="44.7464783" lon="9.4415083"><ele>1027.0</ele><time>2026-04-30T13:02:29.989Z</time></trkpt><trkpt lat="44.7465417" lon="9.44146"><ele>1027.0</ele><time>2026-04-30T13:02:30.99Z</time></trkpt><trkpt lat="44.746605" lon="9.4414083"><ele>1027.0</ele><time>2026-04-30T13:02:31.988Z</time></trkpt><trkpt lat="44.74666" lon="9.44134"><ele>1027.0</ele><time>2026-04-30T13:02:32.989Z</time></trkpt><trkpt lat="44.7467167" lon="9.4412917"><ele>1027.0</ele><time>2026-04-30T13:02:33.99Z</time></trkpt><trkpt lat="44.7467817" lon="9.441235"><ele>1027.0</ele><time>2026-04-30T13:02:34.989Z</time></trkpt><trkpt lat="44.7468467" lon="9.4411717"><ele>1027.0</ele><time>2026-04-30T13:02:35.993Z</time></trkpt><trkpt lat="44.7469117" lon="9.4411033"><ele>1026.1666666666665</ele><time>2026-04-30T13:02:36.988Z</time></trkpt><trkpt lat="44.74697" lon="9.441045"><ele>1025.3333333333333</ele><time>2026-04-30T13:02:37.99Z</time></trkpt><trkpt lat="44.7470667" lon="9.4409617"><ele>1024.5</ele><time>2026-04-30T13:02:39.989Z</time></trkpt><trkpt lat="44.7471133" lon="9.4408917"><ele>1023.6666666666667</ele><time>2026-04-30T13:02:41.99Z</time></trkpt><trkpt lat="44.74717" lon="9.4407967"><ele>1022.8333333333334</ele><time>2026-04-30T13:02:43.988Z</time></trkpt><trkpt lat="44.7472467" lon="9.4407117"><ele>1022.0</ele><time>2026-04-30T13:02:45.988Z</time></trkpt><trkpt lat="44.747345" lon="9.4406717"><ele>1022.0000000000001</ele><time>2026-04-30T13:02:47.989Z</time></trkpt><trkpt lat="44.74744" lon="9.4406467"><ele>1022.0</ele><time>2026-04-30T13:02:49.988Z</time></trkpt><trkpt lat="44.747505" lon="9.4406383"><ele>1022.0</ele><time>2026-04-30T13:02:51.988Z</time></trkpt><trkpt lat="44.7475783" lon="9.4406517"><ele>1022.0</ele><time>2026-04-30T13:02:53.988Z</time></trkpt><trkpt lat="44.74767" lon="9.44068"><ele>1022.0000000000001</ele><time>2026-04-30T13:02:55.988Z</time></trkpt><trkpt lat="44.7477817" lon="9.440705"><ele>1022.0</ele><time>2026-04-30T13:02:57.987Z</time></trkpt><trkpt lat="44.7478833" lon="9.440725"><ele>1022.6666666666667</ele><time>2026-04-30T13:02:59.99Z</time></trkpt><trkpt lat="44.7479917" lon="9.44071"><ele>1023.3333333333334</ele><time>2026-04-30T13:03:01.987Z</time></trkpt><trkpt lat="44.748085" lon="9.440675"><ele>1024.0</ele><time>2026-04-30T13:03:03.987Z</time></trkpt><trkpt lat="44.7481733" lon="9.4406717"><ele>1024.6666666666667</ele><time>2026-04-30T13:03:05.99Z</time></trkpt><trkpt lat="44.748245" lon="9.4406717"><ele>1025.3333333333333</ele><time>2026-04-30T13:03:07.988Z</time></trkpt><trkpt lat="44.7483117" lon="9.4406433"><ele>1026.0</ele><time>2026-04-30T13:03:09.987Z</time></trkpt><trkpt lat="44.74838" lon="9.4406117"><ele>1026.0</ele><time>2026-04-30T13:03:11.989Z</time></trkpt><trkpt lat="44.7484383" lon="9.4405683"><ele>1026.0</ele><time>2026-04-30T13:03:13.989Z</time></trkpt><trkpt lat="44.7485083" lon="9.4405283"><ele>1026.0</ele><time>2026-04-30T13:03:15.988Z</time></trkpt><trkpt lat="44.7486167" lon="9.440475"><ele>1026.0</ele><time>2026-04-30T13:03:17.989Z</time></trkpt><trkpt lat="44.748695" lon="9.44044"><ele>1026.0</ele><time>2026-04-30T13:03:19.988Z</time></trkpt><trkpt lat="44.7487983" lon="9.440385"><ele>1026.0</ele><time>2026-04-30T13:03:21.99Z</time></trkpt><trkpt lat="44.7488917" lon="9.44032"><ele>1022.6666666666666</ele><time>2026-04-30T13:03:23.989Z</time></trkpt><trkpt lat="44.7489583" lon="9.440255"><ele>1019.3333333333333</ele><time>2026-04-30T13:03:25.988Z</time></trkpt><trkpt lat="44.7490283" lon="9.440195"><ele>1016.0</ele><time>2026-04-30T13:03:27.988Z</time></trkpt><trkpt lat="44.7491167" lon="9.4401333"><ele>1012.6666666666666</ele><time>2026-04-30T13:03:29.988Z</time></trkpt><trkpt lat="44.749205" lon="9.4400417"><ele>1009.3333333333333</ele><time>2026-04-30T13:03:31.99Z</time></trkpt><trkpt lat="44.7492717" lon="9.4399933"><ele>1006.0</ele><time>2026-04-30T13:03:32.989Z</time></trkpt><trkpt lat="44.749355" lon="9.4398883"><ele>1003.75</ele><time>2026-04-30T13:03:34.99Z</time></trkpt><trkpt lat="44.74943" lon="9.4397317"><ele>1001.5</ele><time>2026-04-30T13:03:36.988Z</time></trkpt><trkpt lat="44.74951" lon="9.4395933"><ele>999.25</ele><time>2026-04-30T13:03:38.987Z</time></trkpt><trkpt lat="44.7496067" lon="9.4394983"><ele>997.0</ele><time>2026-04-30T13:03:40.988Z</time></trkpt><trkpt lat="44.74973" lon="9.4394267"><ele>997.0</ele><time>2026-04-30T13:03:42.988Z</time></trkpt><trkpt lat="44.74981" lon="9.4394067"><ele>997.0</ele><time>2026-04-30T13:03:43.986Z</time></trkpt><trkpt lat="44.7499317" lon="9.4394"><ele>997.0</ele><time>2026-04-30T13:03:45.987Z</time></trkpt><trkpt lat="44.7500367" lon="9.439435"><ele>997.0</ele><time>2026-04-30T13:03:47.991Z</time></trkpt><trkpt lat="44.7501167" lon="9.4395167"><ele>997.0</ele><time>2026-04-30T13:03:49.989Z</time></trkpt><trkpt lat="44.7502133" lon="9.4396017"><ele>999.1666666666666</ele><time>2026-04-30T13:03:51.99Z</time></trkpt><trkpt lat="44.7502817" lon="9.4396383"><ele>1001.3333333333333</ele><time>2026-04-30T13:03:52.989Z</time></trkpt><trkpt lat="44.7503583" lon="9.4396767"><ele>1003.5</ele><time>2026-04-30T13:03:53.99Z</time></trkpt><trkpt lat="44.750435" lon="9.439725"><ele>1005.6666666666667</ele><time>2026-04-30T13:03:54.99Z</time></trkpt><trkpt lat="44.7505" lon="9.4397733"><ele>1007.8333333333334</ele><time>2026-04-30T13:03:55.989Z</time></trkpt><trkpt lat="44.7505567" lon="9.43982"><ele>1010.0</ele><time>2026-04-30T13:03:56.99Z</time></trkpt><trkpt lat="44.7506367" lon="9.4398967"><ele>1010.0000000000001</ele><time>2026-04-30T13:03:58.996Z</time></trkpt><trkpt lat="44.7507033" lon="9.4399367"><ele>1010.0</ele><time>2026-04-30T13:04:00.99Z</time></trkpt><trkpt lat="44.7508" lon="9.43996"><ele>1010.0</ele><time>2026-04-30T13:04:02.992Z</time></trkpt><trkpt lat="44.75088" lon="9.4399883"><ele>1010.0</ele><time>2026-04-30T13:04:04.99Z</time></trkpt><trkpt lat="44.750965" lon="9.439995"><ele>1010.0000000000001</ele><time>2026-04-30T13:04:06.989Z</time></trkpt><trkpt lat="44.7510433" lon="9.439995"><ele>1010.0</ele><time>2026-04-30T13:04:08.991Z</time></trkpt><trkpt lat="44.751125" lon="9.4400033"><ele>1008.0</ele><time>2026-04-30T13:04:10.989Z</time></trkpt><trkpt lat="44.751225" lon="9.4400233"><ele>1006.0</ele><time>2026-04-30T13:04:12.991Z</time></trkpt><trkpt lat="44.751315" lon="9.4400367"><ele>1004.0</ele><time>2026-04-30T13:04:14.989Z</time></trkpt><trkpt lat="44.7513983" lon="9.44004"><ele>1002.0</ele><time>2026-04-30T13:04:16.987Z</time></trkpt><trkpt lat="44.7514817" lon="9.44003"><ele>1000.0</ele><time>2026-04-30T13:04:18.99Z</time></trkpt><trkpt lat="44.7515783" lon="9.44001"><ele>999.9999999999999</ele><time>2026-04-30T13:04:20.988Z</time></trkpt><trkpt lat="44.7516683" lon="9.4399917"><ele>1000.0</ele><time>2026-04-30T13:04:22.992Z</time></trkpt><trkpt lat="44.751755" lon="9.4399883"><ele>1000.0</ele><time>2026-04-30T13:04:24.989Z</time></trkpt><trkpt lat="44.751825" lon="9.4399683"><ele>1000.0</ele><time>2026-04-30T13:04:26.988Z</time></trkpt><trkpt lat="44.7519" lon="9.43993"><ele>999.9999999999999</ele><time>2026-04-30T13:04:28.987Z</time></trkpt><trkpt lat="44.7519783" lon="9.439875"><ele>1000.0</ele><time>2026-04-30T13:04:30.988Z</time></trkpt><trkpt lat="44.75206" lon="9.4398083"><ele>1001.2</ele><time>2026-04-30T13:04:32.988Z</time></trkpt><trkpt lat="44.7521367" lon="9.4397533"><ele>1002.4</ele><time>2026-04-30T13:04:34.99Z</time></trkpt><trkpt lat="44.7522283" lon="9.4397"><ele>1003.5999999999999</ele><time>2026-04-30T13:04:36.988Z</time></trkpt><trkpt lat="44.75234" lon="9.4396567"><ele>1004.8</ele><time>2026-04-30T13:04:38.99Z</time></trkpt><trkpt lat="44.7524467" lon="9.4395767"><ele>1006.0</ele><time>2026-04-30T13:04:40.989Z</time></trkpt><trkpt lat="44.752555" lon="9.4394567"><ele>1003.4999999999999</ele><time>2026-04-30T13:04:42.99Z</time></trkpt><trkpt lat="44.7526167" lon="9.4393917"><ele>1001.0</ele><time>2026-04-30T13:04:43.986Z</time></trkpt><trkpt lat="44.7527033" lon="9.4393267"><ele>998.5</ele><time>2026-04-30T13:04:44.992Z</time></trkpt><trkpt lat="44.75278" lon="9.4392617"><ele>996.0</ele><time>2026-04-30T13:04:45.987Z</time></trkpt><trkpt lat="44.7528483" lon="9.4392117"><ele>993.4999999999999</ele><time>2026-04-30T13:04:46.989Z</time></trkpt><trkpt lat="44.7529033" lon="9.439165"><ele>991.0</ele><time>2026-04-30T13:04:47.987Z</time></trkpt><trkpt lat="44.7530017" lon="9.4390717"><ele>991.0</ele><time>2026-04-30T13:04:49.989Z</time></trkpt><trkpt lat="44.753095" lon="9.43898"><ele>990.9999999999999</ele><time>2026-04-30T13:04:51.994Z</time></trkpt><trkpt lat="44.75316" lon="9.4388733"><ele>990.9999999999999</ele><time>2026-04-30T13:04:53.991Z</time></trkpt><trkpt lat="44.7532133" lon="9.4387917"><ele>991.0</ele><time>2026-04-30T13:04:55.99Z</time></trkpt><trkpt lat="44.7532783" lon="9.4387217"><ele>991.0</ele><time>2026-04-30T13:04:57.99Z</time></trkpt><trkpt lat="44.753355" lon="9.4386567"><ele>989.3333333333333</ele><time>2026-04-30T13:04:59.991Z</time></trkpt><trkpt lat="44.75346" lon="9.43861"><ele>987.6666666666666</ele><time>2026-04-30T13:05:01.989Z</time></trkpt><trkpt lat="44.7535483" lon="9.438585"><ele>986.0</ele><time>2026-04-30T13:05:03.989Z</time></trkpt><trkpt lat="44.7536367" lon="9.4385967"><ele>984.3333333333333</ele><time>2026-04-30T13:05:05.99Z</time></trkpt><trkpt lat="44.75368" lon="9.43869"><ele>982.6666666666666</ele><time>2026-04-30T13:05:10.989Z</time></trkpt><trkpt lat="44.753755" lon="9.4387167"><ele>981.0</ele><time>2026-04-30T13:05:14.988Z</time></trkpt><trkpt lat="44.7538233" lon="9.4387717"><ele>982.3333333333334</ele><time>2026-04-30T13:05:16.988Z</time></trkpt><trkpt lat="44.7538933" lon="9.4388683"><ele>983.6666666666667</ele><time>2026-04-30T13:05:18.989Z</time></trkpt><trkpt lat="44.7540033" lon="9.4389583"><ele>985.0</ele><time>2026-04-30T13:05:20.995Z</time></trkpt><trkpt lat="44.7540633" lon="9.4390117"><ele>986.3333333333334</ele><time>2026-04-30T13:05:21.988Z</time></trkpt><trkpt lat="44.7541117" lon="9.4390783"><ele>987.6666666666667</ele><time>2026-04-30T13:05:22.987Z</time></trkpt><trkpt lat="44.7541567" lon="9.439155"><ele>989.0</ele><time>2026-04-30T13:05:23.99Z</time></trkpt><trkpt lat="44.754205" lon="9.43922"><ele>989.0000000000001</ele><time>2026-04-30T13:05:24.991Z</time></trkpt><trkpt lat="44.754265" lon="9.4392733"><ele>989.0</ele><time>2026-04-30T13:05:25.988Z</time></trkpt><trkpt lat="44.7543317" lon="9.439325"><ele>989.0</ele><time>2026-04-30T13:05:26.989Z</time></trkpt><trkpt lat="44.75439" lon="9.4393683"><ele>989.0</ele><time>2026-04-30T13:05:27.992Z</time></trkpt><trkpt lat="44.7544483" lon="9.4394033"><ele>989.0000000000001</ele><time>2026-04-30T13:05:28.989Z</time></trkpt><trkpt lat="44.7545583" lon="9.4394617"><ele>989.0</ele><time>2026-04-30T13:05:30.988Z</time></trkpt><trkpt lat="44.75466" lon="9.439475"><ele>990.0000000000001</ele><time>2026-04-30T13:05:32.99Z</time></trkpt><trkpt lat="44.754725" lon="9.4394683"><ele>991.0</ele><time>2026-04-30T13:05:34.988Z</time></trkpt><trkpt lat="44.7547967" lon="9.4395033"><ele>992.0</ele><time>2026-04-30T13:05:37.99Z</time></trkpt><trkpt lat="44.7548633" lon="9.4395617"><ele>993.0</ele><time>2026-04-30T13:05:41.991Z</time></trkpt><trkpt lat="44.7549467" lon="9.4395583"><ele>994.0000000000001</ele><time>2026-04-30T13:05:43.993Z</time></trkpt><trkpt lat="44.7550567" lon="9.4395633"><ele>995.0</ele><time>2026-04-30T13:05:45.988Z</time></trkpt><trkpt lat="44.7551333" lon="9.4395917"><ele>995.0</ele><time>2026-04-30T13:05:47.987Z</time></trkpt><trkpt lat="44.7552267" lon="9.4396017"><ele>995.0</ele><time>2026-04-30T13:05:49.988Z</time></trkpt><trkpt lat="44.75534" lon="9.4396233"><ele>995.0</ele><time>2026-04-30T13:05:51.988Z</time></trkpt><trkpt lat="44.755435" lon="9.439665"><ele>995.0</ele><time>2026-04-30T13:05:53.993Z</time></trkpt><trkpt lat="44.755495" lon="9.4397133"><ele>995.0</ele><time>2026-04-30T13:05:55.988Z</time></trkpt><trkpt lat="44.7556367" lon="9.43978"><ele>998.8</ele><time>2026-04-30T13:06:28.989Z</time></trkpt><trkpt lat="44.7556883" lon="9.4398567"><ele>1002.6</ele><time>2026-04-30T13:08:05.988Z</time></trkpt><trkpt lat="44.7557517" lon="9.4399983"><ele>1006.4000000000001</ele><time>2026-04-30T13:08:07.988Z</time></trkpt><trkpt lat="44.755815" lon="9.4401517"><ele>1010.2</ele><time>2026-04-30T13:08:09.99Z</time></trkpt><trkpt lat="44.7558433" lon="9.44024"><ele>1014.0</ele><time>2026-04-30T13:08:10.989Z</time></trkpt><trkpt lat="44.7558717" lon="9.440325"><ele>1014.0</ele><time>2026-04-30T13:08:11.988Z</time></trkpt><trkpt lat="44.755905" lon="9.440415"><ele>1014.0</ele><time>2026-04-30T13:08:12.997Z</time></trkpt><trkpt lat="44.7559317" lon="9.4405033"><ele>1014.0</ele><time>2026-04-30T13:08:13.99Z</time></trkpt><trkpt lat="44.755955" lon="9.440595"><ele>1014.0</ele><time>2026-04-30T13:08:14.989Z</time></trkpt><trkpt lat="44.7559733" lon="9.4406967"><ele>1014.0</ele><time>2026-04-30T13:08:15.99Z</time></trkpt><trkpt lat="44.7559883" lon="9.4408033"><ele>1014.0</ele><time>2026-04-30T13:08:16.99Z</time></trkpt><trkpt lat="44.7560033" lon="9.4409033"><ele>1014.0</ele><time>2026-04-30T13:08:17.998Z</time></trkpt><trkpt lat="44.756015" lon="9.4409983"><ele>1015.2</ele><time>2026-04-30T13:08:18.99Z</time></trkpt><trkpt lat="44.756025" lon="9.441165"><ele>1016.4000000000001</ele><time>2026-04-30T13:08:20.99Z</time></trkpt><trkpt lat="44.7560417" lon="9.4413033"><ele>1017.6</ele><time>2026-04-30T13:08:22.99Z</time></trkpt><trkpt lat="44.7560717" lon="9.4414333"><ele>1018.8</ele><time>2026-04-30T13:08:24.989Z</time></trkpt><trkpt lat="44.7561017" lon="9.4415167"><ele>1020.0</ele><time>2026-04-30T13:08:25.989Z</time></trkpt><trkpt lat="44.75616" lon="9.4416867"><ele>1020.0</ele><time>2026-04-30T13:08:27.989Z</time></trkpt><trkpt lat="44.7561983" lon="9.441855"><ele>1020.0</ele><time>2026-04-30T13:08:29.989Z</time></trkpt><trkpt lat="44.7562117" lon="9.4419467"><ele>1020.0</ele><time>2026-04-30T13:08:30.994Z</time></trkpt><trkpt lat="44.75623" lon="9.44204"><ele>1020.0</ele><time>2026-04-30T13:08:31.99Z</time></trkpt><trkpt lat="44.7562367" lon="9.4421283"><ele>1020.0</ele><time>2026-04-30T13:08:32.991Z</time></trkpt><trkpt lat="44.7562517" lon="9.44222"><ele>1020.0</ele><time>2026-04-30T13:08:33.992Z</time></trkpt><trkpt lat="44.7562633" lon="9.442315"><ele>1018.5</ele><time>2026-04-30T13:08:34.989Z</time></trkpt><trkpt lat="44.7562667" lon="9.442405"><ele>1017.0</ele><time>2026-04-30T13:08:35.99Z</time></trkpt><trkpt lat="44.7562733" lon="9.4425817"><ele>1015.5</ele><time>2026-04-30T13:08:37.989Z</time></trkpt><trkpt lat="44.7562783" lon="9.44268"><ele>1014.0</ele><time>2026-04-30T13:08:38.989Z</time></trkpt><trkpt lat="44.756285" lon="9.4427717"><ele>1012.5</ele><time>2026-04-30T13:08:39.989Z</time></trkpt><trkpt lat="44.7562867" lon="9.4428683"><ele>1011.0</ele><time>2026-04-30T13:08:40.99Z</time></trkpt><trkpt lat="44.7562767" lon="9.4429683"><ele>1009.0</ele><time>2026-04-30T13:08:41.989Z</time></trkpt><trkpt lat="44.7562833" lon="9.4430717"><ele>1007.0</ele><time>2026-04-30T13:08:42.99Z</time></trkpt><trkpt lat="44.7562817" lon="9.44319"><ele>1005.0</ele><time>2026-04-30T13:08:43.99Z</time></trkpt><trkpt lat="44.7562917" lon="9.44331"><ele>1003.0</ele><time>2026-04-30T13:08:44.991Z</time></trkpt><trkpt lat="44.756295" lon="9.44343"><ele>1001.0</ele><time>2026-04-30T13:08:45.995Z</time></trkpt><trkpt lat="44.7563067" lon="9.443535"><ele>999.0</ele><time>2026-04-30T13:08:46.989Z</time></trkpt><trkpt lat="44.75634" lon="9.443715"><ele>997.8333333333334</ele><time>2026-04-30T13:08:48.989Z</time></trkpt><trkpt lat="44.7563633" lon="9.4438033"><ele>996.6666666666667</ele><time>2026-04-30T13:08:49.99Z</time></trkpt><trkpt lat="44.7563833" lon="9.4439133"><ele>995.5</ele><time>2026-04-30T13:08:51.992Z</time></trkpt><trkpt lat="44.7563817" lon="9.444045"><ele>994.3333333333334</ele><time>2026-04-30T13:08:54.989Z</time></trkpt><trkpt lat="44.7563683" lon="9.4441733"><ele>993.1666666666667</ele><time>2026-04-30T13:08:56.99Z</time></trkpt><trkpt lat="44.7563733" lon="9.444335"><ele>992.0</ele><time>2026-04-30T13:08:58.987Z</time></trkpt><trkpt lat="44.7563683" lon="9.4444267"><ele>992.0</ele><time>2026-04-30T13:08:59.994Z</time></trkpt><trkpt lat="44.7563317" lon="9.4445817"><ele>992.0</ele><time>2026-04-30T13:09:01.989Z</time></trkpt><trkpt lat="44.7562933" lon="9.444715"><ele>992.0</ele><time>2026-04-30T13:09:03.99Z</time></trkpt><trkpt lat="44.7562567" lon="9.4448233"><ele>992.0</ele><time>2026-04-30T13:09:05.988Z</time></trkpt><trkpt lat="44.7561867" lon="9.44498"><ele>992.0</ele><time>2026-04-30T13:09:07.99Z</time></trkpt><trkpt lat="44.756155" lon="9.4450667"><ele>991.6</ele><time>2026-04-30T13:09:08.989Z</time></trkpt><trkpt lat="44.75613" lon="9.4451533"><ele>991.2</ele><time>2026-04-30T13:09:09.989Z</time></trkpt><trkpt lat="44.756085" lon="9.4453067"><ele>990.8</ele><time>2026-04-30T13:09:11.988Z</time></trkpt><trkpt lat="44.7560583" lon="9.4454483"><ele>990.4</ele><time>2026-04-30T13:09:13.995Z</time></trkpt><trkpt lat="44.756065" lon="9.4455783"><ele>990.0</ele><time>2026-04-30T13:09:15.989Z</time></trkpt><trkpt lat="44.7561017" lon="9.4456617"><ele>990.0</ele><time>2026-04-30T13:09:17.99Z</time></trkpt><trkpt lat="44.7561667" lon="9.4457"><ele>990.0</ele><time>2026-04-30T13:09:19.989Z</time></trkpt><trkpt lat="44.7562483" lon="9.4456983"><ele>990.0</ele><time>2026-04-30T13:09:21.99Z</time></trkpt><trkpt lat="44.7563133" lon="9.4456783"><ele>990.0</ele><time>2026-04-30T13:09:23.989Z</time></trkpt><trkpt lat="44.7563833" lon="9.44566"><ele>990.0</ele><time>2026-04-30T13:09:27.989Z</time></trkpt><trkpt lat="44.7564867" lon="9.4456317"><ele>990.0</ele><time>2026-04-30T13:09:30.99Z</time></trkpt><trkpt lat="44.7565883" lon="9.4456483"><ele>990.0</ele><time>2026-04-30T13:09:32.99Z</time></trkpt><trkpt lat="44.7567" lon="9.4456683"><ele>990.0</ele><time>2026-04-30T13:09:34.989Z</time></trkpt><trkpt lat="44.7568167" lon="9.44563"><ele>990.0</ele><time>2026-04-30T13:09:36.992Z</time></trkpt><trkpt lat="44.7569217" lon="9.4455633"><ele>990.0</ele><time>2026-04-30T13:09:38.99Z</time></trkpt><trkpt lat="44.7569867" lon="9.4455233"><ele>990.0</ele><time>2026-04-30T13:09:40.99Z</time></trkpt><trkpt lat="44.7570783" lon="9.445555"><ele>989.2</ele><time>2026-04-30T13:09:45.989Z</time></trkpt><trkpt lat="44.7571617" lon="9.4455867"><ele>988.4</ele><time>2026-04-30T13:09:47.992Z</time></trkpt><trkpt lat="44.7572183" lon="9.445665"><ele>987.5999999999999</ele><time>2026-04-30T13:09:49.99Z</time></trkpt><trkpt lat="44.7572633" lon="9.445855"><ele>986.8</ele><time>2026-04-30T13:09:51.989Z</time></trkpt><trkpt lat="44.7572833" lon="9.4459783"><ele>986.0</ele><time>2026-04-30T13:09:52.988Z</time></trkpt><trkpt lat="44.757305" lon="9.446075"><ele>986.0000000000001</ele><time>2026-04-30T13:09:53.99Z</time></trkpt><trkpt lat="44.75736" lon="9.4461683"><ele>986.0</ele><time>2026-04-30T13:09:55.991Z</time></trkpt><trkpt lat="44.757435" lon="9.4461667"><ele>986.0</ele><time>2026-04-30T13:10:02.992Z</time></trkpt><trkpt lat="44.7574983" lon="9.4460833"><ele>986.0</ele><time>2026-04-30T13:10:05.994Z</time></trkpt><trkpt lat="44.75757" lon="9.4460333"><ele>986.0000000000001</ele><time>2026-04-30T13:10:07.99Z</time></trkpt><trkpt lat="44.7576333" lon="9.44603"><ele>986.0</ele><time>2026-04-30T13:10:08.989Z</time></trkpt><trkpt lat="44.7577017" lon="9.4460317"><ele>984.0000000000001</ele><time>2026-04-30T13:10:09.99Z</time></trkpt><trkpt lat="44.7577683" lon="9.4460333"><ele>982.0</ele><time>2026-04-30T13:10:10.991Z</time></trkpt><trkpt lat="44.7578333" lon="9.4460233"><ele>980.0</ele><time>2026-04-30T13:10:11.989Z</time></trkpt><trkpt lat="44.757895" lon="9.4460033"><ele>978.0</ele><time>2026-04-30T13:10:12.988Z</time></trkpt><trkpt lat="44.75802" lon="9.4459667"><ele>976.0000000000001</ele><time>2026-04-30T13:10:14.989Z</time></trkpt><trkpt lat="44.7581233" lon="9.4459367"><ele>974.0</ele><time>2026-04-30T13:10:16.988Z</time></trkpt><trkpt lat="44.7582017" lon="9.4458883"><ele>974.0</ele><time>2026-04-30T13:10:18.988Z</time></trkpt><trkpt lat="44.7582883" lon="9.4458433"><ele>974.0000000000001</ele><time>2026-04-30T13:10:20.993Z</time></trkpt><trkpt lat="44.75838" lon="9.4457917"><ele>974.0000000000001</ele><time>2026-04-30T13:10:22.989Z</time></trkpt><trkpt lat="44.75849" lon="9.4457483"><ele>974.0</ele><time>2026-04-30T13:10:24.99Z</time></trkpt><trkpt lat="44.7586117" lon="9.4457517"><ele>974.0</ele><time>2026-04-30T13:10:26.991Z</time></trkpt><trkpt lat="44.7587217" lon="9.445795"><ele>970.8000000000001</ele><time>2026-04-30T13:10:28.994Z</time></trkpt><trkpt lat="44.7588483" lon="9.4458383"><ele>967.6000000000001</ele><time>2026-04-30T13:10:30.988Z</time></trkpt><trkpt lat="44.7589183" lon="9.4458483"><ele>964.4</ele><time>2026-04-30T13:10:31.988Z</time></trkpt><trkpt lat="44.7589833" lon="9.445855"><ele>961.2</ele><time>2026-04-30T13:10:32.989Z</time></trkpt><trkpt lat="44.7590917" lon="9.4458283"><ele>958.0</ele><time>2026-04-30T13:10:34.988Z</time></trkpt><trkpt lat="44.7591717" lon="9.4458117"><ele>958.0</ele><time>2026-04-30T13:10:36.99Z</time></trkpt><trkpt lat="44.7592133" lon="9.4458783"><ele>958.0</ele><time>2026-04-30T13:10:38.991Z</time></trkpt><trkpt lat="44.7592133" lon="9.4459983"><ele>958.0</ele><time>2026-04-30T13:10:40.989Z</time></trkpt><trkpt lat="44.7591767" lon="9.446155"><ele>958.0</ele><time>2026-04-30T13:10:42.99Z</time></trkpt><trkpt lat="44.7591283" lon="9.446315"><ele>958.0</ele><time>2026-04-30T13:10:44.987Z</time></trkpt><trkpt lat="44.759115" lon="9.446405"><ele>957.4</ele><time>2026-04-30T13:10:45.986Z</time></trkpt><trkpt lat="44.7591083" lon="9.446575"><ele>956.8</ele><time>2026-04-30T13:10:47.987Z</time></trkpt><trkpt lat="44.7591217" lon="9.4467133"><ele>956.2</ele><time>2026-04-30T13:10:49.988Z</time></trkpt><trkpt lat="44.75916" lon="9.4468133"><ele>955.6</ele><time>2026-04-30T13:10:52.988Z</time></trkpt><trkpt lat="44.7592167" lon="9.4468967"><ele>955.0</ele><time>2026-04-30T13:10:56.989Z</time></trkpt><trkpt lat="44.7592767" lon="9.4469583"><ele>954.9999999999999</ele><time>2026-04-30T13:10:59.988Z</time></trkpt><trkpt lat="44.7593467" lon="9.4469983"><ele>955.0</ele><time>2026-04-30T13:11:04.988Z</time></trkpt><trkpt lat="44.759415" lon="9.447035"><ele>955.0</ele><time>2026-04-30T13:11:09.988Z</time></trkpt><trkpt lat="44.7594433" lon="9.4471283"><ele>955.0</ele><time>2026-04-30T13:11:15.99Z</time></trkpt><trkpt lat="44.7594633" lon="9.4472683"><ele>954.9999999999999</ele><time>2026-04-30T13:11:17.988Z</time></trkpt><trkpt lat="44.7594817" lon="9.4474167"><ele>955.0</ele><time>2026-04-30T13:11:19.99Z</time></trkpt><trkpt lat="44.75952" lon="9.447505"><ele>953.6666666666666</ele><time>2026-04-30T13:11:21.989Z</time></trkpt><trkpt lat="44.759555" lon="9.44759"><ele>952.3333333333333</ele><time>2026-04-30T13:11:25.989Z</time></trkpt><trkpt lat="44.75959" lon="9.447685"><ele>951.0</ele><time>2026-04-30T13:11:31.988Z</time></trkpt><trkpt lat="44.75964" lon="9.4477533"><ele>949.6666666666667</ele><time>2026-04-30T13:11:35.989Z</time></trkpt><trkpt lat="44.75972" lon="9.4477867"><ele>948.3333333333334</ele><time>2026-04-30T13:11:37.989Z</time></trkpt><trkpt lat="44.7598317" lon="9.44778"><ele>947.0</ele><time>2026-04-30T13:11:39.99Z</time></trkpt><trkpt lat="44.7598917" lon="9.4477517"><ele>947.0000000000001</ele><time>2026-04-30T13:11:40.989Z</time></trkpt><trkpt lat="44.759955" lon="9.4477067"><ele>947.0</ele><time>2026-04-30T13:11:41.988Z</time></trkpt><trkpt lat="44.7600317" lon="9.4476733"><ele>947.0</ele><time>2026-04-30T13:11:42.986Z</time></trkpt><trkpt lat="44.7601033" lon="9.4476483"><ele>947.0</ele><time>2026-04-30T13:11:43.987Z</time></trkpt><trkpt lat="44.7602" lon="9.4477067"><ele>947.0000000000001</ele><time>2026-04-30T13:11:45.987Z</time></trkpt><trkpt lat="44.7602783" lon="9.4478267"><ele>947.0</ele><time>2026-04-30T13:11:47.988Z</time></trkpt><trkpt lat="44.7603133" lon="9.44792"><ele>949.1666666666667</ele><time>2026-04-30T13:11:48.988Z</time></trkpt><trkpt lat="44.76034" lon="9.44802"><ele>951.3333333333334</ele><time>2026-04-30T13:11:49.988Z</time></trkpt><trkpt lat="44.7603833" lon="9.44816"><ele>953.5</ele><time>2026-04-30T13:11:51.988Z</time></trkpt><trkpt lat="44.7604567" lon="9.4481667"><ele>955.6666666666667</ele><time>2026-04-30T13:11:54.988Z</time></trkpt><trkpt lat="44.7604833" lon="9.4480817"><ele>957.8333333333334</ele><time>2026-04-30T13:11:56.987Z</time></trkpt><trkpt lat="44.7605467" lon="9.4480017"><ele>960.0</ele><time>2026-04-30T13:11:59.993Z</time></trkpt><trkpt lat="44.7606133" lon="9.4479783"><ele>960.0</ele><time>2026-04-30T13:12:01.99Z</time></trkpt><trkpt lat="44.7606833" lon="9.4480333"><ele>960.0</ele><time>2026-04-30T13:12:03.986Z</time></trkpt><trkpt lat="44.7607567" lon="9.4481367"><ele>960.0</ele><time>2026-04-30T13:12:05.988Z</time></trkpt><trkpt lat="44.760835" lon="9.4482417"><ele>960.0</ele><time>2026-04-30T13:12:07.988Z</time></trkpt><trkpt lat="44.7609267" lon="9.4483117"><ele>960.0</ele><time>2026-04-30T13:12:09.989Z</time></trkpt><trkpt lat="44.7610267" lon="9.4482833"><ele>959.6666666666666</ele><time>2026-04-30T13:12:11.995Z</time></trkpt><trkpt lat="44.7610817" lon="9.4482383"><ele>959.3333333333333</ele><time>2026-04-30T13:12:12.986Z</time></trkpt><trkpt lat="44.7611367" lon="9.448195"><ele>959.0</ele><time>2026-04-30T13:12:13.988Z</time></trkpt><trkpt lat="44.7612467" lon="9.4481367"><ele>958.6666666666666</ele><time>2026-04-30T13:12:15.987Z</time></trkpt><trkpt lat="44.7613733" lon="9.4481233"><ele>958.3333333333333</ele><time>2026-04-30T13:12:17.988Z</time></trkpt><trkpt lat="44.7614383" lon="9.4481183"><ele>958.0</ele><time>2026-04-30T13:12:18.988Z</time></trkpt><trkpt lat="44.761505" lon="9.4481083"><ele>958.0</ele><time>2026-04-30T13:12:19.987Z</time></trkpt><trkpt lat="44.7615717" lon="9.448095"><ele>958.0</ele><time>2026-04-30T13:12:20.989Z</time></trkpt><trkpt lat="44.7616533" lon="9.44808"><ele>958.0</ele><time>2026-04-30T13:12:22.987Z</time></trkpt><trkpt lat="44.7617183" lon="9.4480683"><ele>958.0</ele><time>2026-04-30T13:12:26.987Z</time></trkpt><trkpt lat="44.7617917" lon="9.4480683"><ele>958.0</ele><time>2026-04-30T13:12:31.989Z</time></trkpt><trkpt lat="44.761855" lon="9.4480583"><ele>958.0</ele><time>2026-04-30T13:12:33.987Z</time></trkpt><trkpt lat="44.7619417" lon="9.4480833"><ele>958.0</ele><time>2026-04-30T13:12:35.986Z</time></trkpt><trkpt lat="44.7620333" lon="9.4480817"><ele>957.2</ele><time>2026-04-30T13:12:37.989Z</time></trkpt><trkpt lat="44.7620783" lon="9.4480033"><ele>956.4</ele><time>2026-04-30T13:12:39.988Z</time></trkpt><trkpt lat="44.7621183" lon="9.4478467"><ele>955.6000000000001</ele><time>2026-04-30T13:12:41.987Z</time></trkpt><trkpt lat="44.7621933" lon="9.447725"><ele>954.8000000000001</ele><time>2026-04-30T13:12:43.987Z</time></trkpt><trkpt lat="44.762295" lon="9.4477133"><ele>954.0</ele><time>2026-04-30T13:12:45.991Z</time></trkpt><trkpt lat="44.7624083" lon="9.4477817"><ele>954.0</ele><time>2026-04-30T13:12:47.987Z</time></trkpt><trkpt lat="44.7625283" lon="9.447795"><ele>954.0</ele><time>2026-04-30T13:12:49.988Z</time></trkpt><trkpt lat="44.762645" lon="9.447755"><ele>954.0</ele><time>2026-04-30T13:12:51.989Z</time></trkpt><trkpt lat="44.7627517" lon="9.447705"><ele>954.0</ele><time>2026-04-30T13:12:53.989Z</time></trkpt><trkpt lat="44.762845" lon="9.4476467"><ele>953.6666666666666</ele><time>2026-04-30T13:12:55.988Z</time></trkpt><trkpt lat="44.762965" lon="9.447585"><ele>953.3333333333333</ele><time>2026-04-30T13:12:57.987Z</time></trkpt><trkpt lat="44.7630367" lon="9.4475283"><ele>953.0</ele><time>2026-04-30T13:12:58.99Z</time></trkpt><trkpt lat="44.7631067" lon="9.4474783"><ele>952.6666666666666</ele><time>2026-04-30T13:12:59.989Z</time></trkpt><trkpt lat="44.7631717" lon="9.4474333"><ele>952.3333333333333</ele><time>2026-04-30T13:13:00.989Z</time></trkpt><trkpt lat="44.76324" lon="9.4474017"><ele>952.0</ele><time>2026-04-30T13:13:01.99Z</time></trkpt><trkpt lat="44.7633167" lon="9.44739"><ele>951.9999999999999</ele><time>2026-04-30T13:13:02.99Z</time></trkpt><trkpt lat="44.763385" lon="9.4473767"><ele>952.0</ele><time>2026-04-30T13:13:03.989Z</time></trkpt><trkpt lat="44.76345" lon="9.447325"><ele>952.0</ele><time>2026-04-30T13:13:05.991Z</time></trkpt><trkpt lat="44.763525" lon="9.4472533"><ele>952.0</ele><time>2026-04-30T13:13:08.996Z</time></trkpt><trkpt lat="44.763585" lon="9.4471567"><ele>951.9999999999999</ele><time>2026-04-30T13:13:10.991Z</time></trkpt><trkpt lat="44.76363" lon="9.447"><ele>952.0</ele><time>2026-04-30T13:13:12.991Z</time></trkpt><trkpt lat="44.7636467" lon="9.4469033"><ele>949.8</ele><time>2026-04-30T13:13:13.989Z</time></trkpt><trkpt lat="44.7636667" lon="9.4468"><ele>947.6</ele><time>2026-04-30T13:13:14.988Z</time></trkpt><trkpt lat="44.7637" lon="9.446685"><ele>945.3999999999999</ele><time>2026-04-30T13:13:15.991Z</time></trkpt><trkpt lat="44.76374" lon="9.4465633"><ele>943.1999999999999</ele><time>2026-04-30T13:13:16.987Z</time></trkpt><trkpt lat="44.7637867" lon="9.4464333"><ele>941.0</ele><time>2026-04-30T13:13:17.989Z</time></trkpt><trkpt lat="44.7638333" lon="9.4463067"><ele>940.5000000000001</ele><time>2026-04-30T13:13:18.99Z</time></trkpt><trkpt lat="44.7638733" lon="9.4461783"><ele>940.0</ele><time>2026-04-30T13:13:19.987Z</time></trkpt><trkpt lat="44.7639083" lon="9.446075"><ele>939.5</ele><time>2026-04-30T13:13:20.989Z</time></trkpt><trkpt lat="44.763935" lon="9.44598"><ele>939.0</ele><time>2026-04-30T13:13:21.989Z</time></trkpt><trkpt lat="44.7639733" lon="9.4458433"><ele>938.5000000000001</ele><time>2026-04-30T13:13:23.99Z</time></trkpt><trkpt lat="44.76402" lon="9.445755"><ele>938.0</ele><time>2026-04-30T13:13:25.991Z</time></trkpt><trkpt lat="44.76411" lon="9.445725"><ele>938.0000000000001</ele><time>2026-04-30T13:13:27.988Z</time></trkpt><trkpt lat="44.76423" lon="9.44571"><ele>938.0</ele><time>2026-04-30T13:13:29.987Z</time></trkpt><trkpt lat="44.7642917" lon="9.4456917"><ele>938.0</ele><time>2026-04-30T13:13:30.991Z</time></trkpt><trkpt lat="44.7643683" lon="9.4456683"><ele>938.0</ele><time>2026-04-30T13:13:31.988Z</time></trkpt><trkpt lat="44.7644433" lon="9.4456433"><ele>938.0000000000001</ele><time>2026-04-30T13:13:32.989Z</time></trkpt><trkpt lat="44.76451" lon="9.4456167"><ele>938.0</ele><time>2026-04-30T13:13:33.989Z</time></trkpt><trkpt lat="44.764575" lon="9.4455933"><ele>936.4</ele><time>2026-04-30T13:13:34.99Z</time></trkpt><trkpt lat="44.7646817" lon="9.44557"><ele>934.8</ele><time>2026-04-30T13:13:36.988Z</time></trkpt><trkpt lat="44.7647867" lon="9.4455633"><ele>933.2</ele><time>2026-04-30T13:13:38.988Z</time></trkpt><trkpt lat="44.76489" lon="9.4455633"><ele>931.6</ele><time>2026-04-30T13:13:40.988Z</time></trkpt><trkpt lat="44.7649583" lon="9.445565"><ele>930.0</ele><time>2026-04-30T13:13:41.988Z</time></trkpt><trkpt lat="44.7650267" lon="9.4455867"><ele>930.0</ele><time>2026-04-30T13:13:42.989Z</time></trkpt><trkpt lat="44.7650967" lon="9.4456183"><ele>930.0</ele><time>2026-04-30T13:13:43.988Z</time></trkpt><trkpt lat="44.76516" lon="9.445645"><ele>930.0</ele><time>2026-04-30T13:13:44.989Z</time></trkpt><trkpt lat="44.7652317" lon="9.4456683"><ele>930.0</ele><time>2026-04-30T13:13:45.987Z</time></trkpt><trkpt lat="44.76534" lon="9.4457417"><ele>930.0</ele><time>2026-04-30T13:13:47.989Z</time></trkpt><trkpt lat="44.76539" lon="9.4458117"><ele>930.0</ele><time>2026-04-30T13:13:48.993Z</time></trkpt><trkpt lat="44.76543" lon="9.44589"><ele>929.8</ele><time>2026-04-30T13:13:49.987Z</time></trkpt><trkpt lat="44.76546" lon="9.4459683"><ele>929.6</ele><time>2026-04-30T13:13:50.988Z</time></trkpt><trkpt lat="44.7654933" lon="9.4461183"><ele>929.4000000000001</ele><time>2026-04-30T13:13:52.988Z</time></trkpt><trkpt lat="44.765535" lon="9.4462433"><ele>929.2</ele><time>2026-04-30T13:13:54.99Z</time></trkpt><trkpt lat="44.7656417" lon="9.446315"><ele>929.0</ele><time>2026-04-30T13:13:56.991Z</time></trkpt><trkpt lat="44.76571" lon="9.44632"><ele>927.6666666666667</ele><time>2026-04-30T13:13:57.988Z</time></trkpt><trkpt lat="44.7658267" lon="9.4462817"><ele>926.3333333333334</ele><time>2026-04-30T13:13:59.989Z</time></trkpt><trkpt lat="44.7659233" lon="9.4462067"><ele>925.0</ele><time>2026-04-30T13:14:01.989Z</time></trkpt><trkpt lat="44.7659683" lon="9.4461333"><ele>923.6666666666667</ele><time>2026-04-30T13:14:02.989Z</time></trkpt><trkpt lat="44.7660217" lon="9.44605"><ele>922.3333333333334</ele><time>2026-04-30T13:14:03.997Z</time></trkpt><trkpt lat="44.7660683" lon="9.4459783"><ele>921.0</ele><time>2026-04-30T13:14:04.992Z</time></trkpt><trkpt lat="44.766125" lon="9.4459083"><ele>919.5999999999999</ele><time>2026-04-30T13:14:05.988Z</time></trkpt><trkpt lat="44.7662217" lon="9.445795"><ele>918.1999999999999</ele><time>2026-04-30T13:14:07.989Z</time></trkpt><trkpt lat="44.7663017" lon="9.4456983"><ele>916.8000000000001</ele><time>2026-04-30T13:14:09.989Z</time></trkpt><trkpt lat="44.76638" lon="9.4455617"><ele>915.4000000000001</ele><time>2026-04-30T13:14:11.988Z</time></trkpt><trkpt lat="44.7664217" lon="9.4454883"><ele>914.0</ele><time>2026-04-30T13:14:12.991Z</time></trkpt><trkpt lat="44.7664633" lon="9.44541"><ele>911.5000000000001</ele><time>2026-04-30T13:14:13.988Z</time></trkpt><trkpt lat="44.7665017" lon="9.445335"><ele>909.0</ele><time>2026-04-30T13:14:14.988Z</time></trkpt><trkpt lat="44.7665767" lon="9.4452067"><ele>906.5</ele><time>2026-04-30T13:14:16.987Z</time></trkpt><trkpt lat="44.7666483" lon="9.4451267"><ele>904.0</ele><time>2026-04-30T13:14:18.989Z</time></trkpt><trkpt lat="44.7667217" lon="9.4450917"><ele>901.5000000000001</ele><time>2026-04-30T13:14:21.987Z</time></trkpt><trkpt lat="44.7667833" lon="9.4451817"><ele>899.0</ele><time>2026-04-30T13:14:23.988Z</time></trkpt><trkpt lat="44.766855" lon="9.4453333"><ele>898.7142857142856</ele><time>2026-04-30T13:14:25.987Z</time></trkpt><trkpt lat="44.766895" lon="9.4454167"><ele>898.4285714285713</ele><time>2026-04-30T13:14:26.988Z</time></trkpt><trkpt lat="44.7669367" lon="9.4454967"><ele>898.1428571428571</ele><time>2026-04-30T13:14:27.989Z</time></trkpt><trkpt lat="44.7669817" lon="9.4455733"><ele>897.8571428571428</ele><time>2026-04-30T13:14:28.988Z</time></trkpt><trkpt lat="44.7670233" lon="9.4456467"><ele>897.5714285714284</ele><time>2026-04-30T13:14:29.988Z</time></trkpt><trkpt lat="44.7670617" lon="9.44572"><ele>897.2857142857143</ele><time>2026-04-30T13:14:30.988Z</time></trkpt><trkpt lat="44.7670983" lon="9.445805"><ele>897.0</ele><time>2026-04-30T13:14:31.994Z</time></trkpt><trkpt lat="44.7671433" lon="9.4459"><ele>897.0</ele><time>2026-04-30T13:14:32.988Z</time></trkpt><trkpt lat="44.7671933" lon="9.445995"><ele>897.0</ele><time>2026-04-30T13:14:33.987Z</time></trkpt><trkpt lat="44.7672533" lon="9.4460767"><ele>897.0</ele><time>2026-04-30T13:14:34.989Z</time></trkpt><trkpt lat="44.7673217" lon="9.4461433"><ele>897.0</ele><time>2026-04-30T13:14:35.987Z</time></trkpt><trkpt lat="44.76739" lon="9.4462"><ele>897.0</ele><time>2026-04-30T13:14:36.987Z</time></trkpt><trkpt lat="44.7674533" lon="9.4462567"><ele>897.0</ele><time>2026-04-30T13:14:37.988Z</time></trkpt><trkpt lat="44.767515" lon="9.4463133"><ele>897.0</ele><time>2026-04-30T13:14:38.988Z</time></trkpt><trkpt lat="44.767575" lon="9.44638"><ele>897.0</ele><time>2026-04-30T13:14:39.987Z</time></trkpt><trkpt lat="44.7676267" lon="9.44646"><ele>897.0</ele><time>2026-04-30T13:14:40.987Z</time></trkpt><trkpt lat="44.76767" lon="9.4465567"><ele>897.0</ele><time>2026-04-30T13:14:41.995Z</time></trkpt><trkpt lat="44.767705" lon="9.4466683"><ele>897.0</ele><time>2026-04-30T13:14:42.989Z</time></trkpt><trkpt lat="44.7677433" lon="9.4467867"><ele>897.0</ele><time>2026-04-30T13:14:43.988Z</time></trkpt><trkpt lat="44.7677833" lon="9.4468967"><ele>897.0</ele><time>2026-04-30T13:14:44.99Z</time></trkpt><trkpt lat="44.7678183" lon="9.4469967"><ele>897.0</ele><time>2026-04-30T13:14:45.988Z</time></trkpt><trkpt lat="44.7678633" lon="9.447105"><ele>897.0</ele><time>2026-04-30T13:14:46.993Z</time></trkpt><trkpt lat="44.76791" lon="9.4472167"><ele>897.0</ele><time>2026-04-30T13:14:47.989Z</time></trkpt><trkpt lat="44.7679617" lon="9.4473367"><ele>897.0</ele><time>2026-04-30T13:14:48.988Z</time></trkpt><trkpt lat="44.7680167" lon="9.447465"><ele>899.0</ele><time>2026-04-30T13:14:49.988Z</time></trkpt><trkpt lat="44.768065" lon="9.4475867"><ele>901.0</ele><time>2026-04-30T13:14:50.987Z</time></trkpt><trkpt lat="44.7681167" lon="9.4477"><ele>903.0</ele><time>2026-04-30T13:14:51.994Z</time></trkpt><trkpt lat="44.7681767" lon="9.4478117"><ele>905.0</ele><time>2026-04-30T13:14:52.987Z</time></trkpt><trkpt lat="44.7682467" lon="9.447915"><ele>907.0</ele><time>2026-04-30T13:14:53.99Z</time></trkpt><trkpt lat="44.7683183" lon="9.4480083"><ele>908.75</ele><time>2026-04-30T13:14:54.988Z</time></trkpt><trkpt lat="44.768395" lon="9.4481017"><ele>910.5</ele><time>2026-04-30T13:14:55.988Z</time></trkpt><trkpt lat="44.76849" lon="9.4481917"><ele>912.25</ele><time>2026-04-30T13:14:56.987Z</time></trkpt><trkpt lat="44.7685917" lon="9.4482667"><ele>914.0</ele><time>2026-04-30T13:14:57.988Z</time></trkpt><trkpt lat="44.7687017" lon="9.4483383"><ele>914.0</ele><time>2026-04-30T13:14:58.989Z</time></trkpt><trkpt lat="44.7688133" lon="9.4484167"><ele>914.0</ele><time>2026-04-30T13:14:59.988Z</time></trkpt><trkpt lat="44.7689283" lon="9.4485083"><ele>914.0</ele><time>2026-04-30T13:15:00.988Z</time></trkpt><trkpt lat="44.76905" lon="9.4485967"><ele>914.0</ele><time>2026-04-30T13:15:01.987Z</time></trkpt><trkpt lat="44.7691833" lon="9.448675"><ele>914.0</ele><time>2026-04-30T13:15:02.987Z</time></trkpt><trkpt lat="44.7693067" lon="9.44875"><ele>914.0000000000001</ele><time>2026-04-30T13:15:03.991Z</time></trkpt><trkpt lat="44.7694033" lon="9.44884"><ele>914.0000000000001</ele><time>2026-04-30T13:15:04.99Z</time></trkpt><trkpt lat="44.7694683" lon="9.4489467"><ele>914.0</ele><time>2026-04-30T13:15:05.987Z</time></trkpt><trkpt lat="44.7695183" lon="9.4490617"><ele>914.0</ele><time>2026-04-30T13:15:06.987Z</time></trkpt><trkpt lat="44.7695617" lon="9.4491733"><ele>914.8000000000001</ele><time>2026-04-30T13:15:07.988Z</time></trkpt><trkpt lat="44.7696083" lon="9.449285"><ele>915.6000000000001</ele><time>2026-04-30T13:15:08.989Z</time></trkpt><trkpt lat="44.7696583" lon="9.4493733"><ele>916.4</ele><time>2026-04-30T13:15:09.996Z</time></trkpt><trkpt lat="44.7697283" lon="9.4494467"><ele>917.2</ele><time>2026-04-30T13:15:10.988Z</time></trkpt><trkpt lat="44.769815" lon="9.4495067"><ele>918.0</ele><time>2026-04-30T13:15:11.989Z</time></trkpt><trkpt lat="44.7699117" lon="9.4495467"><ele>918.0</ele><time>2026-04-30T13:15:12.988Z</time></trkpt><trkpt lat="44.77001" lon="9.44957"><ele>918.0</ele><time>2026-04-30T13:15:13.988Z</time></trkpt><trkpt lat="44.77011" lon="9.4495783"><ele>918.0</ele><time>2026-04-30T13:15:14.993Z</time></trkpt><trkpt lat="44.7702067" lon="9.44958"><ele>918.0</ele><time>2026-04-30T13:15:15.988Z</time></trkpt><trkpt lat="44.7702983" lon="9.4495783"><ele>918.0</ele><time>2026-04-30T13:15:16.987Z</time></trkpt><trkpt lat="44.7703917" lon="9.449595"><ele>918.2</ele><time>2026-04-30T13:15:17.988Z</time></trkpt><trkpt lat="44.7704883" lon="9.4496233"><ele>918.4</ele><time>2026-04-30T13:15:18.987Z</time></trkpt><trkpt lat="44.7705933" lon="9.4496433"><ele>918.6000000000001</ele><time>2026-04-30T13:15:19.991Z</time></trkpt><trkpt lat="44.7707" lon="9.4496417"><ele>918.8000000000001</ele><time>2026-04-30T13:15:20.989Z</time></trkpt><trkpt lat="44.7708033" lon="9.449625"><ele>919.0</ele><time>2026-04-30T13:15:21.988Z</time></trkpt><trkpt lat="44.770905" lon="9.4496"><ele>919.0</ele><time>2026-04-30T13:15:22.989Z</time></trkpt><trkpt lat="44.77101" lon="9.4495583"><ele>919.0000000000001</ele><time>2026-04-30T13:15:23.989Z</time></trkpt><trkpt lat="44.771115" lon="9.4495033"><ele>919.0000000000001</ele><time>2026-04-30T13:15:24.989Z</time></trkpt><trkpt lat="44.7712117" lon="9.44945"><ele>919.0</ele><time>2026-04-30T13:15:25.988Z</time></trkpt><trkpt lat="44.7713083" lon="9.4494117"><ele>919.0</ele><time>2026-04-30T13:15:26.996Z</time></trkpt><trkpt lat="44.771405" lon="9.4494033"><ele>920.8000000000001</ele><time>2026-04-30T13:15:27.988Z</time></trkpt><trkpt lat="44.7715033" lon="9.4494267"><ele>922.6000000000001</ele><time>2026-04-30T13:15:28.988Z</time></trkpt><trkpt lat="44.7716033" lon="9.4494433"><ele>924.4</ele><time>2026-04-30T13:15:29.987Z</time></trkpt><trkpt lat="44.7717033" lon="9.4494217"><ele>926.2</ele><time>2026-04-30T13:15:30.986Z</time></trkpt><trkpt lat="44.7717933" lon="9.449355"><ele>928.0</ele><time>2026-04-30T13:15:31.992Z</time></trkpt><trkpt lat="44.7718733" lon="9.4492617"><ele>929.0</ele><time>2026-04-30T13:15:32.99Z</time></trkpt><trkpt lat="44.7719533" lon="9.4491783"><ele>930.0</ele><time>2026-04-30T13:15:33.989Z</time></trkpt><trkpt lat="44.7720433" lon="9.44911"><ele>931.0</ele><time>2026-04-30T13:15:34.987Z</time></trkpt><trkpt lat="44.7721367" lon="9.449065"><ele>932.0</ele><time>2026-04-30T13:15:35.988Z</time></trkpt><trkpt lat="44.7722317" lon="9.4490483"><ele>933.0</ele><time>2026-04-30T13:15:36.987Z</time></trkpt><trkpt lat="44.7723217" lon="9.449055"><ele>933.0</ele><time>2026-04-30T13:15:37.987Z</time></trkpt><trkpt lat="44.7724033" lon="9.449085"><ele>933.0</ele><time>2026-04-30T13:15:38.988Z</time></trkpt><trkpt lat="44.772465" lon="9.4491417"><ele>933.0</ele><time>2026-04-30T13:15:39.989Z</time></trkpt><trkpt lat="44.7725083" lon="9.4492317"><ele>933.0</ele><time>2026-04-30T13:15:40.987Z</time></trkpt><trkpt lat="44.772535" lon="9.4493417"><ele>933.0</ele><time>2026-04-30T13:15:41.992Z</time></trkpt><trkpt lat="44.7725467" lon="9.449465"><ele>933.0</ele><time>2026-04-30T13:15:42.989Z</time></trkpt><trkpt lat="44.7725533" lon="9.4495983"><ele>932.2</ele><time>2026-04-30T13:15:43.988Z</time></trkpt><trkpt lat="44.7725567" lon="9.449735"><ele>931.4</ele><time>2026-04-30T13:15:44.988Z</time></trkpt><trkpt lat="44.7725567" lon="9.4498733"><ele>930.6000000000001</ele><time>2026-04-30T13:15:45.989Z</time></trkpt><trkpt lat="44.7725517" lon="9.45001"><ele>929.8000000000001</ele><time>2026-04-30T13:15:46.989Z</time></trkpt><trkpt lat="44.7725433" lon="9.450145"><ele>929.0</ele><time>2026-04-30T13:15:47.988Z</time></trkpt><trkpt lat="44.7725333" lon="9.4502767"><ele>929.0000000000001</ele><time>2026-04-30T13:15:48.987Z</time></trkpt><trkpt lat="44.77253" lon="9.4504033"><ele>929.0</ele><time>2026-04-30T13:15:49.988Z</time></trkpt><trkpt lat="44.7725383" lon="9.4505233"><ele>929.0</ele><time>2026-04-30T13:15:50.988Z</time></trkpt><trkpt lat="44.772555" lon="9.45064"><ele>929.0</ele><time>2026-04-30T13:15:51.987Z</time></trkpt><trkpt lat="44.7725733" lon="9.450755"><ele>929.0000000000001</ele><time>2026-04-30T13:15:52.987Z</time></trkpt><trkpt lat="44.7725917" lon="9.4508683"><ele>929.0</ele><time>2026-04-30T13:15:53.991Z</time></trkpt><trkpt lat="44.7726117" lon="9.4509817"><ele>928.2</ele><time>2026-04-30T13:15:54.99Z</time></trkpt><trkpt lat="44.7726333" lon="9.451095"><ele>927.4000000000001</ele><time>2026-04-30T13:15:55.987Z</time></trkpt><trkpt lat="44.7726517" lon="9.4512133"><ele>926.6</ele><time>2026-04-30T13:15:56.988Z</time></trkpt><trkpt lat="44.77267" lon="9.45134"><ele>925.8</ele><time>2026-04-30T13:15:57.987Z</time></trkpt><trkpt lat="44.77269" lon="9.4514733"><ele>925.0</ele><time>2026-04-30T13:15:58.989Z</time></trkpt><trkpt lat="44.772715" lon="9.451615"><ele>921.8</ele><time>2026-04-30T13:15:59.988Z</time></trkpt><trkpt lat="44.77275" lon="9.4517517"><ele>918.6</ele><time>2026-04-30T13:16:00.988Z</time></trkpt><trkpt lat="44.772805" lon="9.4518767"><ele>915.4000000000001</ele><time>2026-04-30T13:16:01.987Z</time></trkpt><trkpt lat="44.77288" lon="9.4519883"><ele>912.2</ele><time>2026-04-30T13:16:02.993Z</time></trkpt><trkpt lat="44.7729583" lon="9.4520933"><ele>909.0</ele><time>2026-04-30T13:16:03.987Z</time></trkpt><trkpt lat="44.7730383" lon="9.4521933"><ele>909.0</ele><time>2026-04-30T13:16:04.988Z</time></trkpt><trkpt lat="44.77312" lon="9.4522933"><ele>909.0000000000001</ele><time>2026-04-30T13:16:05.987Z</time></trkpt><trkpt lat="44.7732" lon="9.452395"><ele>909.0000000000001</ele><time>2026-04-30T13:16:06.989Z</time></trkpt><trkpt lat="44.773275" lon="9.4524983"><ele>909.0</ele><time>2026-04-30T13:16:07.989Z</time></trkpt><trkpt lat="44.773345" lon="9.4525983"><ele>909.0</ele><time>2026-04-30T13:16:08.989Z</time></trkpt><trkpt lat="44.7734117" lon="9.4526967"><ele>909.0</ele><time>2026-04-30T13:16:09.994Z</time></trkpt><trkpt lat="44.77348" lon="9.4527983"><ele>909.0000000000001</ele><time>2026-04-30T13:16:10.988Z</time></trkpt><trkpt lat="44.7735467" lon="9.452905"><ele>909.0000000000001</ele><time>2026-04-30T13:16:11.988Z</time></trkpt><trkpt lat="44.7736117" lon="9.4530167"><ele>909.0</ele><time>2026-04-30T13:16:12.988Z</time></trkpt><trkpt lat="44.773685" lon="9.4531317"><ele>909.0</ele><time>2026-04-30T13:16:13.987Z</time></trkpt><trkpt lat="44.7737667" lon="9.4532333"><ele>907.5</ele><time>2026-04-30T13:16:14.988Z</time></trkpt><trkpt lat="44.7738567" lon="9.4533067"><ele>906.0</ele><time>2026-04-30T13:16:15.987Z</time></trkpt><trkpt lat="44.7739467" lon="9.453365"><ele>904.5</ele><time>2026-04-30T13:16:16.989Z</time></trkpt><trkpt lat="44.7740317" lon="9.453415"><ele>903.0</ele><time>2026-04-30T13:16:17.988Z</time></trkpt><trkpt lat="44.7741117" lon="9.4534683"><ele>901.5</ele><time>2026-04-30T13:16:18.988Z</time></trkpt><trkpt lat="44.7741683" lon="9.4535117"><ele>900.0</ele><time>2026-04-30T13:16:19.989Z</time></trkpt><trkpt lat="44.7742167" lon="9.4535767"><ele>900.0</ele><time>2026-04-30T13:16:20.988Z</time></trkpt><trkpt lat="44.7742683" lon="9.4536717"><ele>900.0</ele><time>2026-04-30T13:16:21.987Z</time></trkpt><trkpt lat="44.7743283" lon="9.4537717"><ele>900.0</ele><time>2026-04-30T13:16:22.987Z</time></trkpt><trkpt lat="44.774405" lon="9.4538517"><ele>900.0</ele><time>2026-04-30T13:16:23.988Z</time></trkpt><trkpt lat="44.7744933" lon="9.4539033"><ele>900.0</ele><time>2026-04-30T13:16:24.995Z</time></trkpt><trkpt lat="44.7745833" lon="9.4539583"><ele>898.3333333333334</ele><time>2026-04-30T13:16:25.988Z</time></trkpt><trkpt lat="44.774655" lon="9.4540317"><ele>896.6666666666667</ele><time>2026-04-30T13:16:26.989Z</time></trkpt><trkpt lat="44.774705" lon="9.4541283"><ele>895.0</ele><time>2026-04-30T13:16:27.991Z</time></trkpt><trkpt lat="44.7747517" lon="9.4542333"><ele>893.3333333333334</ele><time>2026-04-30T13:16:28.989Z</time></trkpt><trkpt lat="44.774815" lon="9.4543267"><ele>891.6666666666667</ele><time>2026-04-30T13:16:29.988Z</time></trkpt><trkpt lat="44.7748933" lon="9.4543717"><ele>890.0</ele><time>2026-04-30T13:16:30.988Z</time></trkpt><trkpt lat="44.77498" lon="9.4543683"><ele>890.0</ele><time>2026-04-30T13:16:31.988Z</time></trkpt><trkpt lat="44.77507" lon="9.4543367"><ele>890.0</ele><time>2026-04-30T13:16:32.987Z</time></trkpt><trkpt lat="44.7751517" lon="9.4542833"><ele>890.0</ele><time>2026-04-30T13:16:33.987Z</time></trkpt><trkpt lat="44.77523" lon="9.4542267"><ele>890.0</ele><time>2026-04-30T13:16:34.995Z</time></trkpt><trkpt lat="44.7753083" lon="9.4541683"><ele>890.0</ele><time>2026-04-30T13:16:35.988Z</time></trkpt><trkpt lat="44.7753917" lon="9.45411"><ele>888.0000000000001</ele><time>2026-04-30T13:16:36.988Z</time></trkpt><trkpt lat="44.7754683" lon="9.4540667"><ele>886.0</ele><time>2026-04-30T13:16:37.987Z</time></trkpt><trkpt lat="44.77554" lon="9.4540383"><ele>884.0</ele><time>2026-04-30T13:16:38.988Z</time></trkpt><trkpt lat="44.7756067" lon="9.454025"><ele>882.0</ele><time>2026-04-30T13:16:39.989Z</time></trkpt><trkpt lat="44.7757067" lon="9.454095"><ele>880.0000000000001</ele><time>2026-04-30T13:16:41.994Z</time></trkpt><trkpt lat="44.7757383" lon="9.4541733"><ele>878.0</ele><time>2026-04-30T13:16:42.988Z</time></trkpt><trkpt lat="44.7757683" lon="9.4542717"><ele>878.0000000000001</ele><time>2026-04-30T13:16:43.988Z</time></trkpt><trkpt lat="44.7758017" lon="9.45438"><ele>878.0</ele><time>2026-04-30T13:16:44.988Z</time></trkpt><trkpt lat="44.77584" lon="9.4544933"><ele>878.0</ele><time>2026-04-30T13:16:45.988Z</time></trkpt><trkpt lat="44.77588" lon="9.4546083"><ele>878.0</ele><time>2026-04-30T13:16:46.987Z</time></trkpt><trkpt lat="44.775915" lon="9.4547183"><ele>878.0000000000001</ele><time>2026-04-30T13:16:47.991Z</time></trkpt><trkpt lat="44.7759533" lon="9.454825"><ele>878.0</ele><time>2026-04-30T13:16:48.987Z</time></trkpt><trkpt lat="44.776005" lon="9.4549317"><ele>876.4</ele><time>2026-04-30T13:16:49.988Z</time></trkpt><trkpt lat="44.7760617" lon="9.4550383"><ele>874.8</ele><time>2026-04-30T13:16:50.99Z</time></trkpt><trkpt lat="44.77612" lon="9.455145"><ele>873.2</ele><time>2026-04-30T13:16:51.988Z</time></trkpt><trkpt lat="44.7761733" lon="9.455245"><ele>871.6</ele><time>2026-04-30T13:16:52.995Z</time></trkpt><trkpt lat="44.7762233" lon="9.4553517"><ele>870.0</ele><time>2026-04-30T13:16:53.988Z</time></trkpt><trkpt lat="44.7762633" lon="9.4554567"><ele>870.0</ele><time>2026-04-30T13:16:54.989Z</time></trkpt><trkpt lat="44.77629" lon="9.4555717"><ele>870.0</ele><time>2026-04-30T13:16:55.989Z</time></trkpt><trkpt lat="44.7763" lon="9.4557067"><ele>870.0</ele><time>2026-04-30T13:16:56.989Z</time></trkpt><trkpt lat="44.7762917" lon="9.455855"><ele>870.0</ele><time>2026-04-30T13:16:57.989Z</time></trkpt><trkpt lat="44.7762817" lon="9.4559983"><ele>870.0</ele><time>2026-04-30T13:16:58.988Z</time></trkpt><trkpt lat="44.776275" lon="9.45614"><ele>870.0</ele><time>2026-04-30T13:16:59.989Z</time></trkpt><trkpt lat="44.77628" lon="9.45627"><ele>870.0</ele><time>2026-04-30T13:17:00.987Z</time></trkpt><trkpt lat="44.7762967" lon="9.4564017"><ele>870.0</ele><time>2026-04-30T13:17:01.997Z</time></trkpt><trkpt lat="44.7763317" lon="9.4565317"><ele>870.0</ele><time>2026-04-30T13:17:02.988Z</time></trkpt><trkpt lat="44.7763833" lon="9.456655"><ele>870.0</ele><time>2026-04-30T13:17:03.987Z</time></trkpt><trkpt lat="44.7764467" lon="9.4567667"><ele>870.8</ele><time>2026-04-30T13:17:04.989Z</time></trkpt><trkpt lat="44.7765167" lon="9.456875"><ele>871.6</ele><time>2026-04-30T13:17:05.987Z</time></trkpt><trkpt lat="44.7765917" lon="9.456975"><ele>872.4000000000001</ele><time>2026-04-30T13:17:06.988Z</time></trkpt><trkpt lat="44.7766683" lon="9.4570633"><ele>873.2</ele><time>2026-04-30T13:17:07.988Z</time></trkpt><trkpt lat="44.7767533" lon="9.45714"><ele>874.0</ele><time>2026-04-30T13:17:08.993Z</time></trkpt><trkpt lat="44.77684" lon="9.4572017"><ele>874.6666666666666</ele><time>2026-04-30T13:17:09.987Z</time></trkpt><trkpt lat="44.7769233" lon="9.4572583"><ele>875.3333333333333</ele><time>2026-04-30T13:17:10.987Z</time></trkpt><trkpt lat="44.777005" lon="9.4573133"><ele>876.0</ele><time>2026-04-30T13:17:11.987Z</time></trkpt><trkpt lat="44.7770833" lon="9.4573683"><ele>876.6666666666667</ele><time>2026-04-30T13:17:12.987Z</time></trkpt><trkpt lat="44.7771617" lon="9.4574167"><ele>877.3333333333334</ele><time>2026-04-30T13:17:13.989Z</time></trkpt><trkpt lat="44.77724" lon="9.457455"><ele>878.0</ele><time>2026-04-30T13:17:14.989Z</time></trkpt><trkpt lat="44.7773217" lon="9.457485"><ele>878.0</ele><time>2026-04-30T13:17:15.988Z</time></trkpt><trkpt lat="44.7774" lon="9.45752"><ele>878.0</ele><time>2026-04-30T13:17:16.991Z</time></trkpt><trkpt lat="44.7774833" lon="9.4575717"><ele>878.0</ele><time>2026-04-30T13:17:17.99Z</time></trkpt><trkpt lat="44.7775633" lon="9.4576333"><ele>878.0</ele><time>2026-04-30T13:17:18.99Z</time></trkpt><trkpt lat="44.7776433" lon="9.4577083"><ele>878.0</ele><time>2026-04-30T13:17:19.99Z</time></trkpt><trkpt lat="44.7777283" lon="9.4577983"><ele>876.5999999999999</ele><time>2026-04-30T13:17:20.99Z</time></trkpt><trkpt lat="44.777815" lon="9.4578867"><ele>875.1999999999999</ele><time>2026-04-30T13:17:21.997Z</time></trkpt><trkpt lat="44.7778983" lon="9.457975"><ele>873.8</ele><time>2026-04-30T13:17:22.991Z</time></trkpt><trkpt lat="44.7779817" lon="9.4580633"><ele>872.4</ele><time>2026-04-30T13:17:23.988Z</time></trkpt><trkpt lat="44.7780617" lon="9.4581467"><ele>871.0</ele><time>2026-04-30T13:17:24.987Z</time></trkpt><trkpt lat="44.7781417" lon="9.4582283"><ele>873.0</ele><time>2026-04-30T13:17:25.987Z</time></trkpt><trkpt lat="44.77822" lon="9.4583017"><ele>874.9999999999999</ele><time>2026-04-30T13:17:26.987Z</time></trkpt><trkpt lat="44.7782983" lon="9.4583717"><ele>876.9999999999999</ele><time>2026-04-30T13:17:27.991Z</time></trkpt><trkpt lat="44.7783817" lon="9.4584433"><ele>879.0</ele><time>2026-04-30T13:17:28.987Z</time></trkpt><trkpt lat="44.7784667" lon="9.4585167"><ele>881.0</ele><time>2026-04-30T13:17:29.988Z</time></trkpt><trkpt lat="44.7785533" lon="9.4585967"><ele>881.0000000000001</ele><time>2026-04-30T13:17:30.989Z</time></trkpt><trkpt lat="44.778635" lon="9.458675"><ele>881.0</ele><time>2026-04-30T13:17:31.988Z</time></trkpt><trkpt lat="44.7787067" lon="9.4587533"><ele>881.0</ele><time>2026-04-30T13:17:32.993Z</time></trkpt><trkpt lat="44.77876" lon="9.4588283"><ele>881.0</ele><time>2026-04-30T13:17:33.988Z</time></trkpt><trkpt lat="44.7788017" lon="9.45893"><ele>881.0000000000001</ele><time>2026-04-30T13:17:34.989Z</time></trkpt><trkpt lat="44.7788333" lon="9.4590533"><ele>881.0</ele><time>2026-04-30T13:17:35.988Z</time></trkpt><trkpt lat="44.77886" lon="9.4591967"><ele>881.4</ele><time>2026-04-30T13:17:36.987Z</time></trkpt><trkpt lat="44.7788917" lon="9.4593367"><ele>881.8</ele><time>2026-04-30T13:17:37.987Z</time></trkpt><trkpt lat="44.778925" lon="9.4594717"><ele>882.1999999999999</ele><time>2026-04-30T13:17:38.989Z</time></trkpt><trkpt lat="44.7789683" lon="9.4596067"><ele>882.5999999999999</ele><time>2026-04-30T13:17:39.989Z</time></trkpt><trkpt lat="44.77901" lon="9.459725"><ele>883.0</ele><time>2026-04-30T13:17:40.989Z</time></trkpt><trkpt lat="44.779065" lon="9.4598317"><ele>883.5999999999999</ele><time>2026-04-30T13:17:41.989Z</time></trkpt><trkpt lat="44.77913" lon="9.4599367"><ele>884.1999999999999</ele><time>2026-04-30T13:17:42.988Z</time></trkpt><trkpt lat="44.7791967" lon="9.4600483"><ele>884.8</ele><time>2026-04-30T13:17:43.996Z</time></trkpt><trkpt lat="44.779255" lon="9.4601583"><ele>885.4</ele><time>2026-04-30T13:17:44.987Z</time></trkpt><trkpt lat="44.7793067" lon="9.46027"><ele>886.0</ele><time>2026-04-30T13:17:45.99Z</time></trkpt><trkpt lat="44.7793633" lon="9.460395"><ele>884.0</ele><time>2026-04-30T13:17:46.989Z</time></trkpt><trkpt lat="44.7794167" lon="9.46052"><ele>881.9999999999999</ele><time>2026-04-30T13:17:47.99Z</time></trkpt><trkpt lat="44.7794783" lon="9.460645"><ele>879.9999999999999</ele><time>2026-04-30T13:17:48.99Z</time></trkpt><trkpt lat="44.7795417" lon="9.46075"><ele>878.0</ele><time>2026-04-30T13:17:49.99Z</time></trkpt><trkpt lat="44.7796083" lon="9.46085"><ele>876.0</ele><time>2026-04-30T13:17:50.996Z</time></trkpt><trkpt lat="44.77968" lon="9.460955"><ele>876.0</ele><time>2026-04-30T13:17:51.99Z</time></trkpt><trkpt lat="44.77975" lon="9.461065"><ele>875.9999999999999</ele><time>2026-04-30T13:17:52.99Z</time></trkpt><trkpt lat="44.7798267" lon="9.461175"><ele>875.9999999999999</ele><time>2026-04-30T13:17:53.989Z</time></trkpt><trkpt lat="44.779905" lon="9.4612933"><ele>876.0</ele><time>2026-04-30T13:17:54.991Z</time></trkpt><trkpt lat="44.779985" lon="9.4614167"><ele>876.0</ele><time>2026-04-30T13:17:55.99Z</time></trkpt><trkpt lat="44.7800583" lon="9.46154"><ele>875.5999999999999</ele><time>2026-04-30T13:17:56.992Z</time></trkpt><trkpt lat="44.780125" lon="9.46167"><ele>875.1999999999999</ele><time>2026-04-30T13:17:57.989Z</time></trkpt><trkpt lat="44.7801933" lon="9.4618033"><ele>874.8000000000001</ele><time>2026-04-30T13:17:58.988Z</time></trkpt><trkpt lat="44.780265" lon="9.4619183"><ele>874.4000000000001</ele><time>2026-04-30T13:17:59.989Z</time></trkpt><trkpt lat="44.7803417" lon="9.462015"><ele>874.0</ele><time>2026-04-30T13:18:00.988Z</time></trkpt><trkpt lat="44.7804167" lon="9.4620967"><ele>871.6</ele><time>2026-04-30T13:18:01.99Z</time></trkpt><trkpt lat="44.7804917" lon="9.4621783"><ele>869.2</ele><time>2026-04-30T13:18:02.988Z</time></trkpt><trkpt lat="44.7805733" lon="9.462265"><ele>866.8000000000001</ele><time>2026-04-30T13:18:03.99Z</time></trkpt><trkpt lat="44.7806567" lon="9.462345"><ele>864.4000000000001</ele><time>2026-04-30T13:18:04.989Z</time></trkpt><trkpt lat="44.7807417" lon="9.46242"><ele>862.0</ele><time>2026-04-30T13:18:05.989Z</time></trkpt><trkpt lat="44.7808283" lon="9.4624983"><ele>862.0</ele><time>2026-04-30T13:18:06.989Z</time></trkpt><trkpt lat="44.7809167" lon="9.462575"><ele>862.0</ele><time>2026-04-30T13:18:07.988Z</time></trkpt><trkpt lat="44.7810083" lon="9.46265"><ele>862.0</ele><time>2026-04-30T13:18:08.991Z</time></trkpt><trkpt lat="44.7810967" lon="9.4627217"><ele>862.0</ele><time>2026-04-30T13:18:09.988Z</time></trkpt><trkpt lat="44.78119" lon="9.462785"><ele>862.0</ele><time>2026-04-30T13:18:10.99Z</time></trkpt><trkpt lat="44.7812817" lon="9.4628567"><ele>860.2</ele><time>2026-04-30T13:18:11.99Z</time></trkpt><trkpt lat="44.7813733" lon="9.4629333"><ele>858.4000000000001</ele><time>2026-04-30T13:18:12.989Z</time></trkpt><trkpt lat="44.781465" lon="9.4630017"><ele>856.5999999999999</ele><time>2026-04-30T13:18:13.987Z</time></trkpt><trkpt lat="44.7815617" lon="9.4630617"><ele>854.8</ele><time>2026-04-30T13:18:14.988Z</time></trkpt><trkpt lat="44.7816633" lon="9.46312"><ele>853.0</ele><time>2026-04-30T13:18:15.991Z</time></trkpt><trkpt lat="44.7817617" lon="9.463175"><ele>851.0</ele><time>2026-04-30T13:18:16.988Z</time></trkpt><trkpt lat="44.7818583" lon="9.4632317"><ele>849.0</ele><time>2026-04-30T13:18:17.994Z</time></trkpt><trkpt lat="44.7819567" lon="9.4632933"><ele>847.0</ele><time>2026-04-30T13:18:18.988Z</time></trkpt><trkpt lat="44.782055" lon="9.4633517"><ele>845.0</ele><time>2026-04-30T13:18:19.988Z</time></trkpt><trkpt lat="44.7821517" lon="9.46341"><ele>843.0</ele><time>2026-04-30T13:18:20.989Z</time></trkpt><trkpt lat="44.7822433" lon="9.4634683"><ele>843.0</ele><time>2026-04-30T13:18:21.989Z</time></trkpt><trkpt lat="44.7823267" lon="9.4635317"><ele>843.0</ele><time>2026-04-30T13:18:22.994Z</time></trkpt><trkpt lat="44.7823917" lon="9.4636167"><ele>843.0</ele><time>2026-04-30T13:18:23.989Z</time></trkpt><trkpt lat="44.7824333" lon="9.4637217"><ele>843.0</ele><time>2026-04-30T13:18:24.988Z</time></trkpt><trkpt lat="44.7824533" lon="9.463845"><ele>843.0</ele><time>2026-04-30T13:18:25.988Z</time></trkpt><trkpt lat="44.7824667" lon="9.463985"><ele>842.8</ele><time>2026-04-30T13:18:26.989Z</time></trkpt><trkpt lat="44.7824783" lon="9.46413"><ele>842.5999999999999</ele><time>2026-04-30T13:18:27.989Z</time></trkpt><trkpt lat="44.7824967" lon="9.4642767"><ele>842.4000000000001</ele><time>2026-04-30T13:18:28.991Z</time></trkpt><trkpt lat="44.7825183" lon="9.4644217"><ele>842.2</ele><time>2026-04-30T13:18:29.99Z</time></trkpt><trkpt lat="44.7825367" lon="9.4645667"><ele>842.0</ele><time>2026-04-30T13:18:30.989Z</time></trkpt><trkpt lat="44.7825533" lon="9.4647067"><ele>842.0</ele><time>2026-04-30T13:18:31.99Z</time></trkpt><trkpt lat="44.7825717" lon="9.4648417"><ele>842.0</ele><time>2026-04-30T13:18:32.988Z</time></trkpt><trkpt lat="44.7825917" lon="9.464975"><ele>842.0</ele><time>2026-04-30T13:18:33.992Z</time></trkpt><trkpt lat="44.782615" lon="9.4651117"><ele>842.0</ele><time>2026-04-30T13:18:34.987Z</time></trkpt><trkpt lat="44.7826433" lon="9.465245"><ele>842.0</ele><time>2026-04-30T13:18:35.989Z</time></trkpt><trkpt lat="44.7826783" lon="9.4653733"><ele>842.0</ele><time>2026-04-30T13:18:36.988Z</time></trkpt><trkpt lat="44.7827083" lon="9.4655083"><ele>842.0</ele><time>2026-04-30T13:18:37.987Z</time></trkpt><trkpt lat="44.7827267" lon="9.465665"><ele>842.0</ele><time>2026-04-30T13:18:38.994Z</time></trkpt><trkpt lat="44.782735" lon="9.4658367"><ele>842.0</ele><time>2026-04-30T13:18:39.988Z</time></trkpt><trkpt lat="44.7827333" lon="9.4660067"><ele>842.0</ele><time>2026-04-30T13:18:40.988Z</time></trkpt><trkpt lat="44.782735" lon="9.4661683"><ele>842.0</ele><time>2026-04-30T13:18:41.988Z</time></trkpt><trkpt lat="44.7827317" lon="9.466325"><ele>842.0</ele><time>2026-04-30T13:18:42.987Z</time></trkpt><trkpt lat="44.7827217" lon="9.4664767"><ele>842.0</ele><time>2026-04-30T13:18:43.987Z</time></trkpt><trkpt lat="44.7827" lon="9.466625"><ele>842.0</ele><time>2026-04-30T13:18:44.987Z</time></trkpt><trkpt lat="44.782675" lon="9.46677"><ele>839.8</ele><time>2026-04-30T13:18:45.989Z</time></trkpt><trkpt lat="44.7826467" lon="9.4669133"><ele>837.6</ele><time>2026-04-30T13:18:46.987Z</time></trkpt><trkpt lat="44.782615" lon="9.4670583"><ele>835.4</ele><time>2026-04-30T13:18:47.987Z</time></trkpt><trkpt lat="44.7825867" lon="9.4671983"><ele>833.1999999999999</ele><time>2026-04-30T13:18:48.989Z</time></trkpt><trkpt lat="44.7825567" lon="9.467335"><ele>831.0</ele><time>2026-04-30T13:18:49.99Z</time></trkpt><trkpt lat="44.78254" lon="9.46747"><ele>828.8</ele><time>2026-04-30T13:18:50.99Z</time></trkpt><trkpt lat="44.782545" lon="9.4676067"><ele>826.5999999999999</ele><time>2026-04-30T13:18:51.99Z</time></trkpt><trkpt lat="44.78258" lon="9.4677417"><ele>824.4</ele><time>2026-04-30T13:18:52.988Z</time></trkpt><trkpt lat="44.7826383" lon="9.46786"><ele>822.2</ele><time>2026-04-30T13:18:53.988Z</time></trkpt><trkpt lat="44.782705" lon="9.4679717"><ele>820.0</ele><time>2026-04-30T13:18:54.989Z</time></trkpt><trkpt lat="44.7827717" lon="9.4680833"><ele>818.0</ele><time>2026-04-30T13:18:55.989Z</time></trkpt><trkpt lat="44.7828383" lon="9.468195"><ele>816.0</ele><time>2026-04-30T13:18:56.988Z</time></trkpt><trkpt lat="44.7829067" lon="9.4683017"><ele>814.0</ele><time>2026-04-30T13:18:57.988Z</time></trkpt><trkpt lat="44.782975" lon="9.4684083"><ele>812.0</ele><time>2026-04-30T13:18:58.988Z</time></trkpt><trkpt lat="44.7830417" lon="9.4685117"><ele>810.0</ele><time>2026-04-30T13:18:59.987Z</time></trkpt><trkpt lat="44.7831083" lon="9.4686117"><ele>810.0</ele><time>2026-04-30T13:19:00.99Z</time></trkpt><trkpt lat="44.78318" lon="9.468705"><ele>810.0</ele><time>2026-04-30T13:19:01.99Z</time></trkpt><trkpt lat="44.7832533" lon="9.4688"><ele>810.0</ele><time>2026-04-30T13:19:02.988Z</time></trkpt><trkpt lat="44.783325" lon="9.4689"><ele>810.0</ele><time>2026-04-30T13:19:03.989Z</time></trkpt><trkpt lat="44.783385" lon="9.46901"><ele>810.0</ele><time>2026-04-30T13:19:04.989Z</time></trkpt><trkpt lat="44.78343" lon="9.4691267"><ele>809.0</ele><time>2026-04-30T13:19:05.989Z</time></trkpt><trkpt lat="44.783455" lon="9.469255"><ele>808.0</ele><time>2026-04-30T13:19:06.988Z</time></trkpt><trkpt lat="44.783465" lon="9.4693867"><ele>807.0</ele><time>2026-04-30T13:19:07.988Z</time></trkpt><trkpt lat="44.783455" lon="9.46952"><ele>806.0</ele><time>2026-04-30T13:19:08.993Z</time></trkpt><trkpt lat="44.78343" lon="9.469645"><ele>805.0</ele><time>2026-04-30T13:19:09.988Z</time></trkpt><trkpt lat="44.7834" lon="9.4697583"><ele>804.0</ele><time>2026-04-30T13:19:10.987Z</time></trkpt><trkpt lat="44.7833667" lon="9.4698717"><ele>803.0</ele><time>2026-04-30T13:19:11.988Z</time></trkpt><trkpt lat="44.7833283" lon="9.4699883"><ele>802.0</ele><time>2026-04-30T13:19:12.988Z</time></trkpt><trkpt lat="44.783295" lon="9.47011"><ele>801.0</ele><time>2026-04-30T13:19:13.988Z</time></trkpt><trkpt lat="44.7832633" lon="9.47024"><ele>800.0</ele><time>2026-04-30T13:19:14.99Z</time></trkpt><trkpt lat="44.783245" lon="9.4703667"><ele>798.3333333333334</ele><time>2026-04-30T13:19:15.988Z</time></trkpt><trkpt lat="44.7832367" lon="9.4704933"><ele>796.6666666666667</ele><time>2026-04-30T13:19:16.988Z</time></trkpt><trkpt lat="44.7832367" lon="9.47061"><ele>795.0</ele><time>2026-04-30T13:19:17.987Z</time></trkpt><trkpt lat="44.7832483" lon="9.4707033"><ele>793.3333333333333</ele><time>2026-04-30T13:19:18.989Z</time></trkpt><trkpt lat="44.78327" lon="9.47083"><ele>791.6666666666666</ele><time>2026-04-30T13:19:20.989Z</time></trkpt><trkpt lat="44.7832617" lon="9.4709383"><ele>790.0</ele><time>2026-04-30T13:19:22.988Z</time></trkpt><trkpt lat="44.7832917" lon="9.4710167"><ele>789.9999999999999</ele><time>2026-04-30T13:19:24.987Z</time></trkpt><trkpt lat="44.7833433" lon="9.4711133"><ele>790.0</ele><time>2026-04-30T13:19:26.988Z</time></trkpt><trkpt lat="44.7833867" lon="9.471225"><ele>790.0</ele><time>2026-04-30T13:19:28.989Z</time></trkpt><trkpt lat="44.7834367" lon="9.4713333"><ele>790.0</ele><time>2026-04-30T13:19:30.993Z</time></trkpt><trkpt lat="44.78348" lon="9.4714183"><ele>789.9999999999999</ele><time>2026-04-30T13:19:32.989Z</time></trkpt><trkpt lat="44.7835117" lon="9.4715083"><ele>790.0</ele><time>2026-04-30T13:19:34.987Z</time></trkpt><trkpt lat="44.7835167" lon="9.4716117"><ele>785.6666666666666</ele><time>2026-04-30T13:19:36.988Z</time></trkpt><trkpt lat="44.7835383" lon="9.471705"><ele>781.3333333333333</ele><time>2026-04-30T13:19:38.989Z</time></trkpt><trkpt lat="44.783585" lon="9.4717833"><ele>777.0</ele><time>2026-04-30T13:19:40.991Z</time></trkpt><trkpt lat="44.783625" lon="9.4718717"><ele>772.6666666666666</ele><time>2026-04-30T13:19:42.987Z</time></trkpt><trkpt lat="44.78365" lon="9.471985"><ele>768.3333333333333</ele><time>2026-04-30T13:19:44.988Z</time></trkpt><trkpt lat="44.7836733" lon="9.4720917"><ele>764.0</ele><time>2026-04-30T13:19:46.987Z</time></trkpt><trkpt lat="44.783725" lon="9.4721667"><ele>762.5</ele><time>2026-04-30T13:19:48.987Z</time></trkpt><trkpt lat="44.7838" lon="9.472255"><ele>761.0</ele><time>2026-04-30T13:19:50.988Z</time></trkpt><trkpt lat="44.7838617" lon="9.4723467"><ele>759.5</ele><time>2026-04-30T13:19:52.987Z</time></trkpt><trkpt lat="44.7839217" lon="9.4724133"><ele>758.0</ele><time>2026-04-30T13:19:54.993Z</time></trkpt><trkpt lat="44.7840067" lon="9.4724667"><ele>756.5</ele><time>2026-04-30T13:19:56.989Z</time></trkpt><trkpt lat="44.7840883" lon="9.47251"><ele>755.0</ele><time>2026-04-30T13:19:58.988Z</time></trkpt><trkpt lat="44.784165" lon="9.4725767"><ele>755.0</ele><time>2026-04-30T13:20:00.988Z</time></trkpt><trkpt lat="44.7842467" lon="9.47262"><ele>755.0</ele><time>2026-04-30T13:20:02.988Z</time></trkpt><trkpt lat="44.784315" lon="9.4726767"><ele>755.0</ele><time>2026-04-30T13:20:04.987Z</time></trkpt><trkpt lat="44.7843383" lon="9.4727867"><ele>755.0</ele><time>2026-04-30T13:20:06.991Z</time></trkpt><trkpt lat="44.7843067" lon="9.4729483"><ele>755.0</ele><time>2026-04-30T13:20:08.989Z</time></trkpt><trkpt lat="44.7843233" lon="9.47311"><ele>750.75</ele><time>2026-04-30T13:20:10.989Z</time></trkpt><trkpt lat="44.7843683" lon="9.473255"><ele>746.5</ele><time>2026-04-30T13:20:12.989Z</time></trkpt><trkpt lat="44.7844083" lon="9.4733917"><ele>742.25</ele><time>2026-04-30T13:20:14.989Z</time></trkpt><trkpt lat="44.7844733" lon="9.4735217"><ele>738.0</ele><time>2026-04-30T13:20:16.989Z</time></trkpt><trkpt lat="44.7845717" lon="9.47364"><ele>738.0</ele><time>2026-04-30T13:20:18.991Z</time></trkpt><trkpt lat="44.7846333" lon="9.47371"><ele>738.0</ele><time>2026-04-30T13:20:19.987Z</time></trkpt><trkpt lat="44.7847017" lon="9.47378"><ele>738.0</ele><time>2026-04-30T13:20:20.99Z</time></trkpt><trkpt lat="44.78476" lon="9.4738433"><ele>738.0</ele><time>2026-04-30T13:20:21.988Z</time></trkpt><trkpt lat="44.7848067" lon="9.4739083"><ele>738.0</ele><time>2026-04-30T13:20:22.987Z</time></trkpt><trkpt lat="44.784845" lon="9.4739817"><ele>738.0</ele><time>2026-04-30T13:20:23.989Z</time></trkpt><trkpt lat="44.784875" lon="9.4740683"><ele>738.0</ele><time>2026-04-30T13:20:24.988Z</time></trkpt><trkpt lat="44.7849067" lon="9.4741617"><ele>737.8333333333334</ele><time>2026-04-30T13:20:25.988Z</time></trkpt><trkpt lat="44.7849517" lon="9.4742433"><ele>737.6666666666666</ele><time>2026-04-30T13:20:26.988Z</time></trkpt><trkpt lat="44.7850183" lon="9.4743017"><ele>737.5</ele><time>2026-04-30T13:20:27.99Z</time></trkpt><trkpt lat="44.7850983" lon="9.47435"><ele>737.3333333333333</ele><time>2026-04-30T13:20:28.988Z</time></trkpt><trkpt lat="44.7851767" lon="9.474395"><ele>737.1666666666666</ele><time>2026-04-30T13:20:29.989Z</time></trkpt><trkpt lat="44.785255" lon="9.474435"><ele>737.0</ele><time>2026-04-30T13:20:30.989Z</time></trkpt><trkpt lat="44.7853333" lon="9.474475"><ele>735.3333333333333</ele><time>2026-04-30T13:20:31.988Z</time></trkpt><trkpt lat="44.78541" lon="9.47452"><ele>733.6666666666666</ele><time>2026-04-30T13:20:32.991Z</time></trkpt><trkpt lat="44.7854867" lon="9.4745683"><ele>732.0</ele><time>2026-04-30T13:20:33.988Z</time></trkpt><trkpt lat="44.78556" lon="9.4746133"><ele>730.3333333333334</ele><time>2026-04-30T13:20:34.99Z</time></trkpt><trkpt lat="44.7856267" lon="9.4746667"><ele>728.6666666666667</ele><time>2026-04-30T13:20:35.989Z</time></trkpt><trkpt lat="44.7856933" lon="9.4747167"><ele>727.0</ele><time>2026-04-30T13:20:36.987Z</time></trkpt><trkpt lat="44.7857467" lon="9.474765"><ele>726.3333333333334</ele><time>2026-04-30T13:20:37.988Z</time></trkpt><trkpt lat="44.785785" lon="9.47493"><ele>725.6666666666667</ele><time>2026-04-30T13:20:39.989Z</time></trkpt><trkpt lat="44.7857567" lon="9.47509"><ele>725.0</ele><time>2026-04-30T13:20:41.988Z</time></trkpt><trkpt lat="44.78576" lon="9.47518"><ele>724.3333333333334</ele><time>2026-04-30T13:20:43.988Z</time></trkpt><trkpt lat="44.78583" lon="9.475175"><ele>723.6666666666666</ele><time>2026-04-30T13:20:46.991Z</time></trkpt><trkpt lat="44.7858817" lon="9.475105"><ele>723.0</ele><time>2026-04-30T13:20:48.988Z</time></trkpt><trkpt lat="44.7859517" lon="9.4751033"><ele>721.5</ele><time>2026-04-30T13:20:50.988Z</time></trkpt><trkpt lat="44.7860367" lon="9.4751633"><ele>720.0</ele><time>2026-04-30T13:20:52.987Z</time></trkpt><trkpt lat="44.7861017" lon="9.47522"><ele>718.5</ele><time>2026-04-30T13:20:53.987Z</time></trkpt><trkpt lat="44.78617" lon="9.4752817"><ele>717.0</ele><time>2026-04-30T13:20:54.994Z</time></trkpt><trkpt lat="44.78623" lon="9.4753583"><ele>715.5</ele><time>2026-04-30T13:20:55.987Z</time></trkpt><trkpt lat="44.7862783" lon="9.47544"><ele>714.0</ele><time>2026-04-30T13:20:56.989Z</time></trkpt><trkpt lat="44.786315" lon="9.4755267"><ele>713.1666666666666</ele><time>2026-04-30T13:20:57.987Z</time></trkpt><trkpt lat="44.7863467" lon="9.47561"><ele>712.3333333333334</ele><time>2026-04-30T13:20:58.988Z</time></trkpt><trkpt lat="44.7863833" lon="9.4756867"><ele>711.5</ele><time>2026-04-30T13:20:59.989Z</time></trkpt><trkpt lat="44.7864317" lon="9.475765"><ele>710.6666666666667</ele><time>2026-04-30T13:21:00.989Z</time></trkpt><trkpt lat="44.7864967" lon="9.4758383"><ele>709.8333333333334</ele><time>2026-04-30T13:21:01.993Z</time></trkpt><trkpt lat="44.78656" lon="9.4759133"><ele>709.0</ele><time>2026-04-30T13:21:02.987Z</time></trkpt><trkpt lat="44.7866133" lon="9.4759967"><ele>709.0</ele><time>2026-04-30T13:21:03.986Z</time></trkpt><trkpt lat="44.7866583" lon="9.4760867"><ele>709.0</ele><time>2026-04-30T13:21:04.987Z</time></trkpt><trkpt lat="44.7866967" lon="9.476185"><ele>709.0</ele><time>2026-04-30T13:21:05.987Z</time></trkpt><trkpt lat="44.7867267" lon="9.4762867"><ele>709.0</ele><time>2026-04-30T13:21:06.987Z</time></trkpt><trkpt lat="44.7867517" lon="9.47639"><ele>709.0</ele><time>2026-04-30T13:21:07.994Z</time></trkpt><trkpt lat="44.7867717" lon="9.4764833"><ele>709.0</ele><time>2026-04-30T13:21:08.987Z</time></trkpt><trkpt lat="44.7867817" lon="9.4765767"><ele>708.5714285714287</ele><time>2026-04-30T13:21:09.988Z</time></trkpt><trkpt lat="44.7867933" lon="9.476675"><ele>708.1428571428571</ele><time>2026-04-30T13:21:10.987Z</time></trkpt><trkpt lat="44.7868117" lon="9.476775"><ele>707.7142857142858</ele><time>2026-04-30T13:21:11.987Z</time></trkpt><trkpt lat="44.7868417" lon="9.476865"><ele>707.2857142857143</ele><time>2026-04-30T13:21:12.988Z</time></trkpt><trkpt lat="44.7868833" lon="9.47694"><ele>706.8571428571429</ele><time>2026-04-30T13:21:13.989Z</time></trkpt><trkpt lat="44.7869367" lon="9.4770017"><ele>706.4285714285714</ele><time>2026-04-30T13:21:14.988Z</time></trkpt><trkpt lat="44.7869967" lon="9.47706"><ele>706.0</ele><time>2026-04-30T13:21:15.992Z</time></trkpt><trkpt lat="44.7870633" lon="9.47711"><ele>703.8</ele><time>2026-04-30T13:21:16.987Z</time></trkpt><trkpt lat="44.787135" lon="9.4771483"><ele>701.5999999999999</ele><time>2026-04-30T13:21:17.986Z</time></trkpt><trkpt lat="44.7871983" lon="9.477175"><ele>699.4</ele><time>2026-04-30T13:21:18.987Z</time></trkpt><trkpt lat="44.7873033" lon="9.4772467"><ele>697.2</ele><time>2026-04-30T13:21:20.989Z</time></trkpt><trkpt lat="44.78739" lon="9.4773217"><ele>695.0</ele><time>2026-04-30T13:21:22.988Z</time></trkpt><trkpt lat="44.78749" lon="9.4774067"><ele>695.0</ele><time>2026-04-30T13:21:24.987Z</time></trkpt><trkpt lat="44.7875833" lon="9.4775183"><ele>695.0</ele><time>2026-04-30T13:21:26.991Z</time></trkpt><trkpt lat="44.787605" lon="9.4776317"><ele>695.0</ele><time>2026-04-30T13:21:28.986Z</time></trkpt><trkpt lat="44.7875917" lon="9.47778"><ele>695.0</ele><time>2026-04-30T13:21:30.989Z</time></trkpt><trkpt lat="44.787615" lon="9.477925"><ele>695.0</ele><time>2026-04-30T13:21:32.987Z</time></trkpt><trkpt lat="44.7876517" lon="9.4780917"><ele>693.5</ele><time>2026-04-30T13:21:34.992Z</time></trkpt><trkpt lat="44.78767" lon="9.47818"><ele>692.0</ele><time>2026-04-30T13:21:35.987Z</time></trkpt><trkpt lat="44.7876833" lon="9.47827"><ele>690.5</ele><time>2026-04-30T13:21:36.988Z</time></trkpt><trkpt lat="44.7877217" lon="9.4784117"><ele>689.0</ele><time>2026-04-30T13:21:38.988Z</time></trkpt><trkpt lat="44.7877533" lon="9.4785633"><ele>687.5</ele><time>2026-04-30T13:21:40.992Z</time></trkpt><trkpt lat="44.7877617" lon="9.4786517"><ele>686.0</ele><time>2026-04-30T13:21:41.989Z</time></trkpt><trkpt lat="44.7877767" lon="9.478825"><ele>683.1428571428571</ele><time>2026-04-30T13:21:43.987Z</time></trkpt><trkpt lat="44.7878117" lon="9.478915"><ele>680.2857142857142</ele><time>2026-04-30T13:21:44.99Z</time></trkpt><trkpt lat="44.7878483" lon="9.47899"><ele>677.4285714285714</ele><time>2026-04-30T13:21:45.987Z</time></trkpt><trkpt lat="44.7878883" lon="9.47906"><ele>674.5714285714286</ele><time>2026-04-30T13:21:46.987Z</time></trkpt><trkpt lat="44.787975" lon="9.479155"><ele>671.7142857142857</ele><time>2026-04-30T13:21:48.988Z</time></trkpt><trkpt lat="44.78803" lon="9.4791983"><ele>668.8571428571429</ele><time>2026-04-30T13:21:49.987Z</time></trkpt><trkpt lat="44.7880883" lon="9.4792433"><ele>666.0</ele><time>2026-04-30T13:21:50.991Z</time></trkpt><trkpt lat="44.7881433" lon="9.4792917"><ele>666.0</ele><time>2026-04-30T13:21:51.986Z</time></trkpt><trkpt lat="44.7882033" lon="9.4793333"><ele>666.0</ele><time>2026-04-30T13:21:52.989Z</time></trkpt><trkpt lat="44.7882667" lon="9.4793717"><ele>666.0</ele><time>2026-04-30T13:21:53.987Z</time></trkpt><trkpt lat="44.7883317" lon="9.4794267"><ele>666.0</ele><time>2026-04-30T13:21:54.986Z</time></trkpt><trkpt lat="44.7883933" lon="9.47949"><ele>666.0</ele><time>2026-04-30T13:21:55.987Z</time></trkpt><trkpt lat="44.7884483" lon="9.4795533"><ele>666.0</ele><time>2026-04-30T13:21:56.987Z</time></trkpt><trkpt lat="44.7885033" lon="9.479625"><ele>666.0</ele><time>2026-04-30T13:21:57.989Z</time></trkpt><trkpt lat="44.7885633" lon="9.4797033"><ele>664.5999999999999</ele><time>2026-04-30T13:21:58.988Z</time></trkpt><trkpt lat="44.7886233" lon="9.4797767"><ele>663.2</ele><time>2026-04-30T13:21:59.989Z</time></trkpt><trkpt lat="44.788675" lon="9.47985"><ele>661.8</ele><time>2026-04-30T13:22:00.988Z</time></trkpt><trkpt lat="44.7887517" lon="9.4799733"><ele>660.4000000000001</ele><time>2026-04-30T13:22:02.988Z</time></trkpt><trkpt lat="44.7888167" lon="9.4800867"><ele>659.0</ele><time>2026-04-30T13:22:04.988Z</time></trkpt><trkpt lat="44.7888783" lon="9.4801883"><ele>659.0</ele><time>2026-04-30T13:22:06.989Z</time></trkpt><trkpt lat="44.7889383" lon="9.4802683"><ele>659.0</ele><time>2026-04-30T13:22:08.989Z</time></trkpt><trkpt lat="44.789015" lon="9.4803167"><ele>659.0</ele><time>2026-04-30T13:22:10.989Z</time></trkpt><trkpt lat="44.78912" lon="9.4803133"><ele>659.0</ele><time>2026-04-30T13:22:12.988Z</time></trkpt><trkpt lat="44.789225" lon="9.4803267"><ele>659.0</ele><time>2026-04-30T13:22:14.99Z</time></trkpt><trkpt lat="44.789335" lon="9.48035"><ele>655.4000000000001</ele><time>2026-04-30T13:22:16.989Z</time></trkpt><trkpt lat="44.7894267" lon="9.480385"><ele>651.8</ele><time>2026-04-30T13:22:18.987Z</time></trkpt><trkpt lat="44.7895183" lon="9.4804067"><ele>648.2</ele><time>2026-04-30T13:22:20.988Z</time></trkpt><trkpt lat="44.7896017" lon="9.4804333"><ele>644.5999999999999</ele><time>2026-04-30T13:22:22.989Z</time></trkpt><trkpt lat="44.7896917" lon="9.4804617"><ele>641.0</ele><time>2026-04-30T13:22:24.987Z</time></trkpt><trkpt lat="44.78978" lon="9.480515"><ele>640.0</ele><time>2026-04-30T13:22:26.986Z</time></trkpt><trkpt lat="44.7898517" lon="9.48059"><ele>639.0</ele><time>2026-04-30T13:22:28.988Z</time></trkpt><trkpt lat="44.7899183" lon="9.480665"><ele>638.0</ele><time>2026-04-30T13:22:30.986Z</time></trkpt><trkpt lat="44.7899967" lon="9.4807267"><ele>637.0</ele><time>2026-04-30T13:22:32.992Z</time></trkpt><trkpt lat="44.79008" lon="9.4807833"><ele>636.0</ele><time>2026-04-30T13:22:34.987Z</time></trkpt><trkpt lat="44.7901617" lon="9.4808533"><ele>632.4</ele><time>2026-04-30T13:22:36.988Z</time></trkpt><trkpt lat="44.7902083" lon="9.4809583"><ele>628.8</ele><time>2026-04-30T13:22:38.988Z</time></trkpt><trkpt lat="44.7902383" lon="9.4810817"><ele>625.1999999999999</ele><time>2026-04-30T13:22:40.99Z</time></trkpt><trkpt lat="44.7902733" lon="9.48119"><ele>621.6</ele><time>2026-04-30T13:22:42.99Z</time></trkpt><trkpt lat="44.7903133" lon="9.4813067"><ele>618.0</ele><time>2026-04-30T13:22:44.987Z</time></trkpt><trkpt lat="44.790355" lon="9.4814267"><ele>618.0</ele><time>2026-04-30T13:22:46.987Z</time></trkpt><trkpt lat="44.7904217" lon="9.4815533"><ele>618.0</ele><time>2026-04-30T13:22:48.987Z</time></trkpt><trkpt lat="44.7904867" lon="9.4816667"><ele>618.0</ele><time>2026-04-30T13:22:50.987Z</time></trkpt><trkpt lat="44.790555" lon="9.48175"><ele>618.0</ele><time>2026-04-30T13:22:52.988Z</time></trkpt><trkpt lat="44.7906433" lon="9.4818133"><ele>618.0</ele><time>2026-04-30T13:22:54.987Z</time></trkpt><trkpt lat="44.790745" lon="9.481855"><ele>618.0</ele><time>2026-04-30T13:22:56.988Z</time></trkpt><trkpt lat="44.79084" lon="9.4819067"><ele>618.0</ele><time>2026-04-30T13:22:58.987Z</time></trkpt><trkpt lat="44.79092" lon="9.4819683"><ele>618.0</ele><time>2026-04-30T13:23:00.992Z</time></trkpt><trkpt lat="44.7910017" lon="9.4820233"><ele>618.0</ele><time>2026-04-30T13:23:02.988Z</time></trkpt><trkpt lat="44.7910733" lon="9.48206"><ele>618.0</ele><time>2026-04-30T13:23:04.988Z</time></trkpt><trkpt lat="44.791135" lon="9.4820167"><ele>618.0</ele><time>2026-04-30T13:23:06.987Z</time></trkpt><trkpt lat="44.7911767" lon="9.481905"><ele>615.7142857142858</ele><time>2026-04-30T13:23:09.988Z</time></trkpt><trkpt lat="44.7911833" lon="9.4818083"><ele>613.4285714285714</ele><time>2026-04-30T13:23:11.988Z</time></trkpt><trkpt lat="44.79118" lon="9.4816933"><ele>611.1428571428571</ele><time>2026-04-30T13:23:13.988Z</time></trkpt><trkpt lat="44.7911783" lon="9.4815983"><ele>608.8571428571429</ele><time>2026-04-30T13:23:15.986Z</time></trkpt><trkpt lat="44.7912283" lon="9.4815217"><ele>606.5714285714286</ele><time>2026-04-30T13:23:18.989Z</time></trkpt><trkpt lat="44.791295" lon="9.4815383"><ele>604.2857142857143</ele><time>2026-04-30T13:23:20.987Z</time></trkpt><trkpt lat="44.7913483" lon="9.481625"><ele>602.0</ele><time>2026-04-30T13:23:22.987Z</time></trkpt><trkpt lat="44.7914017" lon="9.481725"><ele>602.0</ele><time>2026-04-30T13:23:24.987Z</time></trkpt><trkpt lat="44.79144" lon="9.4818217"><ele>602.0</ele><time>2026-04-30T13:23:26.989Z</time></trkpt><trkpt lat="44.7914767" lon="9.48194"><ele>602.0</ele><time>2026-04-30T13:23:28.988Z</time></trkpt><trkpt lat="44.7915283" lon="9.48205"><ele>602.0</ele><time>2026-04-30T13:23:30.989Z</time></trkpt><trkpt lat="44.79159" lon="9.4821283"><ele>602.0</ele><time>2026-04-30T13:23:32.988Z</time></trkpt><trkpt lat="44.7916417" lon="9.4821883"><ele>602.0</ele><time>2026-04-30T13:23:34.987Z</time></trkpt><trkpt lat="44.7916983" lon="9.4822517"><ele>601.6666666666666</ele><time>2026-04-30T13:23:36.986Z</time></trkpt><trkpt lat="44.791755" lon="9.4823067"><ele>601.3333333333333</ele><time>2026-04-30T13:23:38.987Z</time></trkpt><trkpt lat="44.79181" lon="9.4823683"><ele>601.0</ele><time>2026-04-30T13:23:40.987Z</time></trkpt><trkpt lat="44.791845" lon="9.482445"><ele>600.6666666666666</ele><time>2026-04-30T13:23:42.989Z</time></trkpt><trkpt lat="44.791895" lon="9.4825417"><ele>600.3333333333334</ele><time>2026-04-30T13:23:45.991Z</time></trkpt><trkpt lat="44.7919567" lon="9.4826367"><ele>600.0</ele><time>2026-04-30T13:23:48.989Z</time></trkpt><trkpt lat="44.7920033" lon="9.4827333"><ele>597.9999999999999</ele><time>2026-04-30T13:23:51.995Z</time></trkpt><trkpt lat="44.792045" lon="9.482805"><ele>596.0</ele><time>2026-04-30T13:23:53.989Z</time></trkpt><trkpt lat="44.7920917" lon="9.482865"><ele>594.0</ele><time>2026-04-30T13:23:55.987Z</time></trkpt><trkpt lat="44.7921383" lon="9.48297"><ele>592.0</ele><time>2026-04-30T13:23:58.987Z</time></trkpt><trkpt lat="44.792135" lon="9.48306"><ele>590.0</ele><time>2026-04-30T13:24:00.988Z</time></trkpt><trkpt lat="44.792125" lon="9.4831583"><ele>587.9999999999999</ele><time>2026-04-30T13:24:02.987Z</time></trkpt><trkpt lat="44.7921233" lon="9.48326"><ele>586.0</ele><time>2026-04-30T13:24:04.99Z</time></trkpt><trkpt lat="44.7921395" lon="9.4833763"><ele>584.0</ele><time>2026-04-30T13:24:07.009Z</time></trkpt><trkpt lat="44.792206" lon="9.4834598"><ele>582.0</ele><time>2026-04-30T13:24:08.989Z</time></trkpt><trkpt lat="44.7922799" lon="9.4835492"><ele>580.0</ele><time>2026-04-30T13:24:10.988Z</time></trkpt><trkpt lat="44.7923307" lon="9.4836682"><ele>578.0</ele><time>2026-04-30T13:24:12.988Z</time></trkpt><trkpt lat="44.7923699" lon="9.4838052"><ele>576.0</ele><time>2026-04-30T13:24:14.988Z</time></trkpt><trkpt lat="44.7924101" lon="9.4839503"><ele>575.6</ele><time>2026-04-30T13:24:16.988Z</time></trkpt><trkpt lat="44.7924528" lon="9.4840799"><ele>575.2</ele><time>2026-04-30T13:24:18.988Z</time></trkpt><trkpt lat="44.7924817" lon="9.4841974"><ele>574.8</ele><time>2026-04-30T13:24:20.991Z</time></trkpt><trkpt lat="44.7924851" lon="9.4843175"><ele>574.4</ele><time>2026-04-30T13:24:23.99Z</time></trkpt><trkpt lat="44.79255" lon="9.484423"><ele>574.0</ele><time>2026-04-30T13:24:27.988Z</time></trkpt><trkpt lat="44.7926594" lon="9.4845075"><ele>571.6666666666667</ele><time>2026-04-30T13:24:29.988Z</time></trkpt><trkpt lat="44.7927182" lon="9.4845565"><ele>569.3333333333334</ele><time>2026-04-30T13:24:30.992Z</time></trkpt><trkpt lat="44.7927872" lon="9.4846133"><ele>567.0</ele><time>2026-04-30T13:24:31.989Z</time></trkpt><trkpt lat="44.7928577" lon="9.4846764"><ele>564.6666666666666</ele><time>2026-04-30T13:24:32.988Z</time></trkpt><trkpt lat="44.7929152" lon="9.4847412"><ele>562.3333333333333</ele><time>2026-04-30T13:24:33.988Z</time></trkpt><trkpt lat="44.7929802" lon="9.4848851"><ele>560.0</ele><time>2026-04-30T13:24:35.988Z</time></trkpt><trkpt lat="44.7930638" lon="9.4850116"><ele>560.0</ele><time>2026-04-30T13:24:37.987Z</time></trkpt><trkpt lat="44.7931195" lon="9.4850555"><ele>560.0</ele><time>2026-04-30T13:24:38.987Z</time></trkpt><trkpt lat="44.7932395" lon="9.485097"><ele>560.0</ele><time>2026-04-30T13:24:40.988Z</time></trkpt><trkpt lat="44.793359" lon="9.485148"><ele>560.0</ele><time>2026-04-30T13:24:42.99Z</time></trkpt><trkpt lat="44.7934147" lon="9.4851919"><ele>560.0</ele><time>2026-04-30T13:24:43.988Z</time></trkpt><trkpt lat="44.7935104" lon="9.4852834"><ele>558.2</ele><time>2026-04-30T13:24:45.987Z</time></trkpt><trkpt lat="44.7935953" lon="9.4853881"><ele>556.4</ele><time>2026-04-30T13:24:47.99Z</time></trkpt><trkpt lat="44.7936597" lon="9.4854878"><ele>554.6</ele><time>2026-04-30T13:24:50.001Z</time></trkpt><trkpt lat="44.7937007" lon="9.4855755"><ele>552.8</ele><time>2026-04-30T13:24:51.989Z</time></trkpt><trkpt lat="44.793759" lon="9.4856603"><ele>551.0</ele><time>2026-04-30T13:24:53.989Z</time></trkpt><trkpt lat="44.7938491" lon="9.485707"><ele>551.0</ele><time>2026-04-30T13:24:55.987Z</time></trkpt><trkpt lat="44.7939513" lon="9.4857691"><ele>551.0</ele><time>2026-04-30T13:24:57.988Z</time></trkpt><trkpt lat="44.7940326" lon="9.4858478"><ele>551.0</ele><time>2026-04-30T13:24:59.987Z</time></trkpt><trkpt lat="44.7941128" lon="9.4859131"><ele>551.0</ele><time>2026-04-30T13:25:01.992Z</time></trkpt><trkpt lat="44.794206" lon="9.4859651"><ele>551.0</ele><time>2026-04-30T13:25:03.99Z</time></trkpt><trkpt lat="44.7942982" lon="9.4860035"><ele>549.0</ele><time>2026-04-30T13:25:05.989Z</time></trkpt><trkpt lat="44.7943775" lon="9.4860448"><ele>547.0</ele><time>2026-04-30T13:25:07.987Z</time></trkpt><trkpt lat="44.7944366" lon="9.4860783"><ele>545.0</ele><time>2026-04-30T13:25:09.988Z</time></trkpt><trkpt lat="44.7945049" lon="9.486121"><ele>543.0</ele><time>2026-04-30T13:26:42.988Z</time></trkpt><trkpt lat="44.7945439" lon="9.4860453"><ele>541.0</ele><time>2026-04-30T13:26:45.987Z</time></trkpt><trkpt lat="44.7945217" lon="9.4859108"><ele>539.0</ele><time>2026-04-30T13:26:47.987Z</time></trkpt><trkpt lat="44.7945113" lon="9.485815"><ele>539.0</ele><time>2026-04-30T13:26:48.988Z</time></trkpt><trkpt lat="44.7945452" lon="9.4856673"><ele>539.0</ele><time>2026-04-30T13:26:50.987Z</time></trkpt><trkpt lat="44.7946031" lon="9.485613"><ele>539.0</ele><time>2026-04-30T13:26:54.989Z</time></trkpt><trkpt lat="44.7946801" lon="9.4856506"><ele>539.0</ele><time>2026-04-30T13:26:56.988Z</time></trkpt><trkpt lat="44.7947882" lon="9.4857079"><ele>539.0</ele><time>2026-04-30T13:26:58.993Z</time></trkpt><trkpt lat="44.7948778" lon="9.4857349"><ele>539.0</ele><time>2026-04-30T13:27:00.988Z</time></trkpt><trkpt lat="44.7949797" lon="9.4857312"><ele>539.0</ele><time>2026-04-30T13:27:02.987Z</time></trkpt><trkpt lat="44.7950735" lon="9.4856988"><ele>539.0</ele><time>2026-04-30T13:27:04.987Z</time></trkpt><trkpt lat="44.7951533" lon="9.4856639"><ele>539.0</ele><time>2026-04-30T13:27:06.988Z</time></trkpt><trkpt lat="44.7952469" lon="9.4856676"><ele>539.0</ele><time>2026-04-30T13:27:08.989Z</time></trkpt><trkpt lat="44.7953428" lon="9.4856919"><ele>535.2</ele><time>2026-04-30T13:27:10.987Z</time></trkpt><trkpt lat="44.7954448" lon="9.4857087"><ele>531.4</ele><time>2026-04-30T13:27:12.988Z</time></trkpt><trkpt lat="44.7955431" lon="9.4857254"><ele>527.6</ele><time>2026-04-30T13:27:14.994Z</time></trkpt><trkpt lat="44.7956284" lon="9.4857941"><ele>523.8</ele><time>2026-04-30T13:27:16.987Z</time></trkpt><trkpt lat="44.7957028" lon="9.4858424"><ele>520.0</ele><time>2026-04-30T13:27:18.989Z</time></trkpt><trkpt lat="44.7957819" lon="9.4858525"><ele>520.0</ele><time>2026-04-30T13:27:20.99Z</time></trkpt><trkpt lat="44.7958567" lon="9.4858583"><ele>520.0</ele><time>2026-04-30T13:27:22.99Z</time></trkpt><trkpt lat="44.7959433" lon="9.4859067"><ele>520.0</ele><time>2026-04-30T13:27:24.989Z</time></trkpt><trkpt lat="44.7960433" lon="9.4859767"><ele>520.0</ele><time>2026-04-30T13:27:26.989Z</time></trkpt><trkpt lat="44.79614" lon="9.4860383"><ele>520.0</ele><time>2026-04-30T13:27:28.991Z</time></trkpt><trkpt lat="44.7962467" lon="9.4860883"><ele>517.0</ele><time>2026-04-30T13:27:30.988Z</time></trkpt><trkpt lat="44.7963483" lon="9.4861383"><ele>514.0</ele><time>2026-04-30T13:27:32.987Z</time></trkpt><trkpt lat="44.7964517" lon="9.4861983"><ele>511.0</ele><time>2026-04-30T13:27:34.987Z</time></trkpt><trkpt lat="44.7965483" lon="9.4862817"><ele>508.0</ele><time>2026-04-30T13:27:36.988Z</time></trkpt><trkpt lat="44.79663" lon="9.4863967"><ele>505.0</ele><time>2026-04-30T13:27:38.994Z</time></trkpt><trkpt lat="44.7967033" lon="9.4864983"><ele>505.0</ele><time>2026-04-30T13:27:40.988Z</time></trkpt><trkpt lat="44.7967683" lon="9.4865967"><ele>505.0</ele><time>2026-04-30T13:27:42.988Z</time></trkpt><trkpt lat="44.796835" lon="9.486705"><ele>505.0</ele><time>2026-04-30T13:27:44.989Z</time></trkpt><trkpt lat="44.7969081" lon="9.4867973"><ele>505.0</ele><time>2026-04-30T13:27:46.988Z</time></trkpt><trkpt lat="44.7970076" lon="9.4868761"><ele>505.0</ele><time>2026-04-30T13:27:48.99Z</time></trkpt><trkpt lat="44.7970654" lon="9.4869128"><ele>502.8</ele><time>2026-04-30T13:27:49.989Z</time></trkpt><trkpt lat="44.7971858" lon="9.4869682"><ele>500.6</ele><time>2026-04-30T13:27:51.99Z</time></trkpt><trkpt lat="44.7973" lon="9.4870112"><ele>498.4</ele><time>2026-04-30T13:27:53.989Z</time></trkpt><trkpt lat="44.7973625" lon="9.4870437"><ele>496.2</ele><time>2026-04-30T13:27:54.989Z</time></trkpt><trkpt lat="44.7974267" lon="9.4870801"><ele>494.0</ele><time>2026-04-30T13:27:55.99Z</time></trkpt><trkpt lat="44.7974939" lon="9.4871263"><ele>493.99999999999994</ele><time>2026-04-30T13:27:56.99Z</time></trkpt><trkpt lat="44.797566" lon="9.4871849"><ele>494.0</ele><time>2026-04-30T13:27:57.99Z</time></trkpt><trkpt lat="44.7976461" lon="9.4872479"><ele>494.0</ele><time>2026-04-30T13:27:58.988Z</time></trkpt><trkpt lat="44.7977333" lon="9.4873089"><ele>494.0</ele><time>2026-04-30T13:27:59.997Z</time></trkpt><trkpt lat="44.7978169" lon="9.4873695"><ele>493.99999999999994</ele><time>2026-04-30T13:28:00.99Z</time></trkpt><trkpt lat="44.7978848" lon="9.4874302"><ele>494.0</ele><time>2026-04-30T13:28:01.989Z</time></trkpt><trkpt lat="44.7979427" lon="9.4874849"><ele>492.16666666666663</ele><time>2026-04-30T13:28:02.99Z</time></trkpt><trkpt lat="44.7979988" lon="9.4875503"><ele>490.3333333333333</ele><time>2026-04-30T13:28:04.988Z</time></trkpt><trkpt lat="44.7980709" lon="9.4876301"><ele>488.5</ele><time>2026-04-30T13:28:12.989Z</time></trkpt><trkpt lat="44.798183" lon="9.4877265"><ele>486.66666666666663</ele><time>2026-04-30T13:28:14.993Z</time></trkpt><trkpt lat="44.7982509" lon="9.4877646"><ele>484.8333333333333</ele><time>2026-04-30T13:28:15.989Z</time></trkpt><trkpt lat="44.7983291" lon="9.4877822"><ele>483.0</ele><time>2026-04-30T13:28:16.987Z</time></trkpt><trkpt lat="44.7984125" lon="9.4877771"><ele>483.0</ele><time>2026-04-30T13:28:17.988Z</time></trkpt><trkpt lat="44.7984923" lon="9.4877533"><ele>483.0</ele><time>2026-04-30T13:28:18.989Z</time></trkpt><trkpt lat="44.7985547" lon="9.4877161"><ele>483.0</ele><time>2026-04-30T13:28:19.995Z</time></trkpt><trkpt lat="44.7986521" lon="9.4876523"><ele>483.0</ele><time>2026-04-30T13:28:21.988Z</time></trkpt><trkpt lat="44.7987433" lon="9.4876533"><ele>483.0</ele><time>2026-04-30T13:28:23.988Z</time></trkpt><trkpt lat="44.79879" lon="9.48774"><ele>483.0</ele><time>2026-04-30T13:28:25.991Z</time></trkpt><trkpt lat="44.79878" lon="9.48784"><ele>483.0</ele><time>2026-04-30T13:28:27.988Z</time></trkpt><trkpt lat="44.79871" lon="9.48795"><ele>482.99999999999994</ele><time>2026-04-30T13:28:29.99Z</time></trkpt><trkpt lat="44.798645" lon="9.4880267"><ele>482.99999999999994</ele><time>2026-04-30T13:28:30.987Z</time></trkpt><trkpt lat="44.7985783" lon="9.48812"><ele>483.0</ele><time>2026-04-30T13:28:31.988Z</time></trkpt><trkpt lat="44.798515" lon="9.4882167"><ele>483.0</ele><time>2026-04-30T13:28:32.988Z</time></trkpt><trkpt lat="44.7984683" lon="9.488305"><ele>483.0</ele><time>2026-04-30T13:28:33.987Z</time></trkpt><trkpt lat="44.7984983" lon="9.4884517"><ele>482.99999999999994</ele><time>2026-04-30T13:28:35.988Z</time></trkpt><trkpt lat="44.7986067" lon="9.4885483"><ele>482.99999999999994</ele><time>2026-04-30T13:28:37.989Z</time></trkpt><trkpt lat="44.7986833" lon="9.4886067"><ele>483.0</ele><time>2026-04-30T13:28:38.989Z</time></trkpt><trkpt lat="44.7987517" lon="9.48868"><ele>483.0</ele><time>2026-04-30T13:28:39.99Z</time></trkpt><trkpt lat="44.7988067" lon="9.4887667"><ele>481.3333333333333</ele><time>2026-04-30T13:28:40.987Z</time></trkpt><trkpt lat="44.7988467" lon="9.48886"><ele>479.66666666666663</ele><time>2026-04-30T13:28:41.988Z</time></trkpt><trkpt lat="44.798885" lon="9.4889467"><ele>478.0</ele><time>2026-04-30T13:28:42.988Z</time></trkpt><trkpt lat="44.79893" lon="9.4890183"><ele>476.3333333333333</ele><time>2026-04-30T13:28:43.991Z</time></trkpt><trkpt lat="44.7990317" lon="9.4890917"><ele>474.66666666666663</ele><time>2026-04-30T13:28:45.988Z</time></trkpt><trkpt lat="44.7991333" lon="9.4891067"><ele>473.0</ele><time>2026-04-30T13:28:47.989Z</time></trkpt><trkpt lat="44.7992667" lon="9.4891067"><ele>471.79999999999995</ele><time>2026-04-30T13:28:49.988Z</time></trkpt><trkpt lat="44.7993667" lon="9.4890967"><ele>470.59999999999997</ele><time>2026-04-30T13:28:50.995Z</time></trkpt><trkpt lat="44.799465" lon="9.4890883"><ele>469.40000000000003</ele><time>2026-04-30T13:28:51.988Z</time></trkpt><trkpt lat="44.79957" lon="9.4891033"><ele>468.20000000000005</ele><time>2026-04-30T13:28:52.988Z</time></trkpt><trkpt lat="44.7996667" lon="9.48914"><ele>467.0</ele><time>2026-04-30T13:28:53.989Z</time></trkpt><trkpt lat="44.79977" lon="9.4891767"><ele>467.0</ele><time>2026-04-30T13:28:54.99Z</time></trkpt><trkpt lat="44.7998717" lon="9.4892217"><ele>467.00000000000006</ele><time>2026-04-30T13:28:55.988Z</time></trkpt><trkpt lat="44.7999617" lon="9.4892633"><ele>467.00000000000006</ele><time>2026-04-30T13:28:56.988Z</time></trkpt><trkpt lat="44.800045" lon="9.4893233"><ele>467.0</ele><time>2026-04-30T13:28:57.989Z</time></trkpt><trkpt lat="44.8001183" lon="9.489395"><ele>467.0</ele><time>2026-04-30T13:28:58.988Z</time></trkpt><trkpt lat="44.800185" lon="9.48946"><ele>465.66666666666663</ele><time>2026-04-30T13:28:59.989Z</time></trkpt><trkpt lat="44.800255" lon="9.48951"><ele>464.3333333333333</ele><time>2026-04-30T13:29:00.988Z</time></trkpt><trkpt lat="44.8003333" lon="9.4895433"><ele>463.0</ele><time>2026-04-30T13:29:01.988Z</time></trkpt><trkpt lat="44.800415" lon="9.4895533"><ele>461.66666666666663</ele><time>2026-04-30T13:29:02.989Z</time></trkpt><trkpt lat="44.8004967" lon="9.489535"><ele>460.3333333333333</ele><time>2026-04-30T13:29:03.988Z</time></trkpt><trkpt lat="44.8005817" lon="9.4894933"><ele>459.0</ele><time>2026-04-30T13:29:04.988Z</time></trkpt><trkpt lat="44.8006567" lon="9.4894283"><ele>459.0</ele><time>2026-04-30T13:29:05.988Z</time></trkpt><trkpt lat="44.8007267" lon="9.4893417"><ele>459.0</ele><time>2026-04-30T13:29:06.989Z</time></trkpt><trkpt lat="44.8007983" lon="9.4892483"><ele>459.0</ele><time>2026-04-30T13:29:07.994Z</time></trkpt><trkpt lat="44.8008833" lon="9.4891533"><ele>459.0</ele><time>2026-04-30T13:29:08.989Z</time></trkpt><trkpt lat="44.800965" lon="9.489055"><ele>459.0</ele><time>2026-04-30T13:29:09.99Z</time></trkpt><trkpt lat="44.80104" lon="9.488965"><ele>457.6</ele><time>2026-04-30T13:29:10.987Z</time></trkpt><trkpt lat="44.8011217" lon="9.4888983"><ele>456.2</ele><time>2026-04-30T13:29:11.988Z</time></trkpt><trkpt lat="44.8012083" lon="9.48886"><ele>454.80000000000007</ele><time>2026-04-30T13:29:12.989Z</time></trkpt><trkpt lat="44.8013083" lon="9.4888417"><ele>453.40000000000003</ele><time>2026-04-30T13:29:13.989Z</time></trkpt><trkpt lat="44.801405" lon="9.4888217"><ele>452.0</ele><time>2026-04-30T13:29:14.989Z</time></trkpt><trkpt lat="44.8015" lon="9.488805"><ele>452.0</ele><time>2026-04-30T13:29:16Z</time></trkpt><trkpt lat="44.801595" lon="9.4887817"><ele>452.00000000000006</ele><time>2026-04-30T13:29:16.988Z</time></trkpt><trkpt lat="44.80169" lon="9.488755"><ele>452.00000000000006</ele><time>2026-04-30T13:29:17.99Z</time></trkpt><trkpt lat="44.8017833" lon="9.488735"><ele>452.0</ele><time>2026-04-30T13:29:18.989Z</time></trkpt><trkpt lat="44.8018733" lon="9.4887117"><ele>452.0</ele><time>2026-04-30T13:29:19.988Z</time></trkpt><trkpt lat="44.8019467" lon="9.4886917"><ele>450.49999999999994</ele><time>2026-04-30T13:29:20.989Z</time></trkpt><trkpt lat="44.8020133" lon="9.4886867"><ele>449.0</ele><time>2026-04-30T13:29:21.989Z</time></trkpt><trkpt lat="44.8020817" lon="9.4887067"><ele>447.5</ele><time>2026-04-30T13:29:22.99Z</time></trkpt><trkpt lat="44.8021617" lon="9.4887567"><ele>446.0</ele><time>2026-04-30T13:29:23.99Z</time></trkpt><trkpt lat="44.8022583" lon="9.4888333"><ele>444.49999999999994</ele><time>2026-04-30T13:29:24.993Z</time></trkpt><trkpt lat="44.802355" lon="9.48892"><ele>443.0</ele><time>2026-04-30T13:29:25.988Z</time></trkpt><trkpt lat="44.8024533" lon="9.489005"><ele>443.0</ele><time>2026-04-30T13:29:26.988Z</time></trkpt><trkpt lat="44.8025433" lon="9.4890883"><ele>442.99999999999994</ele><time>2026-04-30T13:29:27.987Z</time></trkpt><trkpt lat="44.8026233" lon="9.4891783"><ele>442.99999999999994</ele><time>2026-04-30T13:29:28.988Z</time></trkpt><trkpt lat="44.802695" lon="9.489265"><ele>443.0</ele><time>2026-04-30T13:29:29.989Z</time></trkpt><trkpt lat="44.8027683" lon="9.4893383"><ele>443.0</ele><time>2026-04-30T13:29:30.987Z</time></trkpt><trkpt lat="44.802845" lon="9.4893867"><ele>441.49999999999994</ele><time>2026-04-30T13:29:31.992Z</time></trkpt><trkpt lat="44.8029233" lon="9.4894167"><ele>440.0</ele><time>2026-04-30T13:29:32.99Z</time></trkpt><trkpt lat="44.8030033" lon="9.4894283"><ele>438.5</ele><time>2026-04-30T13:29:33.988Z</time></trkpt><trkpt lat="44.80308" lon="9.4894267"><ele>437.0</ele><time>2026-04-30T13:29:34.987Z</time></trkpt><trkpt lat="44.80316" lon="9.48942"><ele>435.49999999999994</ele><time>2026-04-30T13:29:35.987Z</time></trkpt><trkpt lat="44.803245" lon="9.4894033"><ele>434.0</ele><time>2026-04-30T13:29:36.988Z</time></trkpt><trkpt lat="44.8033383" lon="9.4893667"><ele>433.99999999999994</ele><time>2026-04-30T13:29:37.987Z</time></trkpt><trkpt lat="44.8034267" lon="9.4893083"><ele>434.0</ele><time>2026-04-30T13:29:38.996Z</time></trkpt><trkpt lat="44.8035183" lon="9.48927"><ele>434.0</ele><time>2026-04-30T13:29:39.989Z</time></trkpt><trkpt lat="44.8036033" lon="9.4892283"><ele>434.0</ele><time>2026-04-30T13:29:40.989Z</time></trkpt><trkpt lat="44.8036717" lon="9.4891767"><ele>433.99999999999994</ele><time>2026-04-30T13:29:41.988Z</time></trkpt><trkpt lat="44.80373" lon="9.4891117"><ele>434.0</ele><time>2026-04-30T13:29:42.991Z</time></trkpt><trkpt lat="44.803775" lon="9.4890183"><ele>432.6</ele><time>2026-04-30T13:29:43.987Z</time></trkpt><trkpt lat="44.8038167" lon="9.4888683"><ele>431.2</ele><time>2026-04-30T13:29:44.992Z</time></trkpt><trkpt lat="44.803855" lon="9.488735"><ele>429.80000000000007</ele><time>2026-04-30T13:29:45.988Z</time></trkpt><trkpt lat="44.8038917" lon="9.48862"><ele>428.40000000000003</ele><time>2026-04-30T13:29:46.988Z</time></trkpt><trkpt lat="44.8039317" lon="9.4885167"><ele>427.0</ele><time>2026-04-30T13:29:47.987Z</time></trkpt><trkpt lat="44.803985" lon="9.488435"><ele>426.40000000000003</ele><time>2026-04-30T13:29:48.988Z</time></trkpt><trkpt lat="44.8040467" lon="9.4883633"><ele>425.80000000000007</ele><time>2026-04-30T13:29:49.987Z</time></trkpt><trkpt lat="44.8041367" lon="9.4882867"><ele>425.2</ele><time>2026-04-30T13:29:50.996Z</time></trkpt><trkpt lat="44.80424" lon="9.4882067"><ele>424.6</ele><time>2026-04-30T13:29:51.99Z</time></trkpt><trkpt lat="44.8043517" lon="9.488125"><ele>424.0</ele><time>2026-04-30T13:29:52.99Z</time></trkpt><trkpt lat="44.8044517" lon="9.488045"><ele>421.4</ele><time>2026-04-30T13:29:53.989Z</time></trkpt><trkpt lat="44.8045483" lon="9.487975"><ele>418.79999999999995</ele><time>2026-04-30T13:29:54.989Z</time></trkpt><trkpt lat="44.8046367" lon="9.4879217"><ele>416.20000000000005</ele><time>2026-04-30T13:29:55.988Z</time></trkpt><trkpt lat="44.8047183" lon="9.487885"><ele>413.6</ele><time>2026-04-30T13:29:56.989Z</time></trkpt><trkpt lat="44.80481" lon="9.487855"><ele>411.0</ele><time>2026-04-30T13:29:57.988Z</time></trkpt><trkpt lat="44.8049117" lon="9.4878333"><ele>410.20000000000005</ele><time>2026-04-30T13:29:58.993Z</time></trkpt><trkpt lat="44.805005" lon="9.4878267"><ele>409.40000000000003</ele><time>2026-04-30T13:29:59.989Z</time></trkpt><trkpt lat="44.805095" lon="9.487845"><ele>408.6</ele><time>2026-04-30T13:30:00.989Z</time></trkpt><trkpt lat="44.80518" lon="9.487865"><ele>407.8</ele><time>2026-04-30T13:30:01.99Z</time></trkpt><trkpt lat="44.8052667" lon="9.4878733"><ele>407.0</ele><time>2026-04-30T13:30:02.989Z</time></trkpt><trkpt lat="44.805365" lon="9.487865"><ele>404.6</ele><time>2026-04-30T13:30:03.99Z</time></trkpt><trkpt lat="44.805475" lon="9.48785"><ele>402.20000000000005</ele><time>2026-04-30T13:30:04.989Z</time></trkpt><trkpt lat="44.80558" lon="9.4878417"><ele>399.8</ele><time>2026-04-30T13:30:05.994Z</time></trkpt><trkpt lat="44.8056833" lon="9.487845"><ele>397.4</ele><time>2026-04-30T13:30:06.988Z</time></trkpt><trkpt lat="44.8057917" lon="9.48788"><ele>395.0</ele><time>2026-04-30T13:30:07.989Z</time></trkpt><trkpt lat="44.8059" lon="9.4879267"><ele>393.6</ele><time>2026-04-30T13:30:08.989Z</time></trkpt><trkpt lat="44.8060033" lon="9.4879867"><ele>392.2</ele><time>2026-04-30T13:30:09.989Z</time></trkpt><trkpt lat="44.8061033" lon="9.4880533"><ele>390.79999999999995</ele><time>2026-04-30T13:30:10.989Z</time></trkpt><trkpt lat="44.8061917" lon="9.4881117"><ele>389.4</ele><time>2026-04-30T13:30:11.988Z</time></trkpt><trkpt lat="44.806275" lon="9.4881533"><ele>388.0</ele><time>2026-04-30T13:30:12.991Z</time></trkpt><trkpt lat="44.8063533" lon="9.4881683"><ele>388.00000000000006</ele><time>2026-04-30T13:30:13.988Z</time></trkpt><trkpt lat="44.806425" lon="9.4881567"><ele>388.0</ele><time>2026-04-30T13:30:14.991Z</time></trkpt><trkpt lat="44.8065067" lon="9.4881317"><ele>388.0</ele><time>2026-04-30T13:30:15.988Z</time></trkpt><trkpt lat="44.8065983" lon="9.4880883"><ele>388.0</ele><time>2026-04-30T13:30:16.995Z</time></trkpt><trkpt lat="44.8066933" lon="9.4880433"><ele>388.00000000000006</ele><time>2026-04-30T13:30:17.989Z</time></trkpt><trkpt lat="44.8067767" lon="9.4880133"><ele>388.0</ele><time>2026-04-30T13:30:18.989Z</time></trkpt><trkpt lat="44.8068583" lon="9.4880033"><ele>385.79999999999995</ele><time>2026-04-30T13:30:19.988Z</time></trkpt><trkpt lat="44.8069567" lon="9.4880167"><ele>383.6</ele><time>2026-04-30T13:30:20.988Z</time></trkpt><trkpt lat="44.8070617" lon="9.488055"><ele>381.4</ele><time>2026-04-30T13:30:21.987Z</time></trkpt><trkpt lat="44.8071683" lon="9.4881033"><ele>379.20000000000005</ele><time>2026-04-30T13:30:22.988Z</time></trkpt><trkpt lat="44.80728" lon="9.48816"><ele>377.0</ele><time>2026-04-30T13:30:23.988Z</time></trkpt><trkpt lat="44.8073817" lon="9.4882317"><ele>377.0</ele><time>2026-04-30T13:30:24.994Z</time></trkpt><trkpt lat="44.8074633" lon="9.488315"><ele>377.0</ele><time>2026-04-30T13:30:25.987Z</time></trkpt><trkpt lat="44.8075283" lon="9.4884033"><ele>377.0</ele><time>2026-04-30T13:30:26.988Z</time></trkpt><trkpt lat="44.80758" lon="9.488495"><ele>377.0</ele><time>2026-04-30T13:30:27.988Z</time></trkpt><trkpt lat="44.8076183" lon="9.4885983"><ele>377.0</ele><time>2026-04-30T13:30:28.988Z</time></trkpt><trkpt lat="44.807655" lon="9.488705"><ele>377.0</ele><time>2026-04-30T13:30:29.989Z</time></trkpt><trkpt lat="44.8076983" lon="9.4888"><ele>375.83333333333337</ele><time>2026-04-30T13:30:30.99Z</time></trkpt><trkpt lat="44.807745" lon="9.488865"><ele>374.6666666666667</ele><time>2026-04-30T13:30:31.988Z</time></trkpt><trkpt lat="44.8078283" lon="9.48894"><ele>373.5</ele><time>2026-04-30T13:30:33.988Z</time></trkpt><trkpt lat="44.8078817" lon="9.4890033"><ele>372.3333333333333</ele><time>2026-04-30T13:30:35.988Z</time></trkpt><trkpt lat="44.8078883" lon="9.4890917"><ele>371.16666666666663</ele><time>2026-04-30T13:30:37.994Z</time></trkpt><trkpt lat="44.8078733" lon="9.489225"><ele>370.0</ele><time>2026-04-30T13:30:39.99Z</time></trkpt><trkpt lat="44.8078767" lon="9.4893683"><ele>370.0</ele><time>2026-04-30T13:30:41.987Z</time></trkpt><trkpt lat="44.807885" lon="9.4895267"><ele>370.0</ele><time>2026-04-30T13:30:43.989Z</time></trkpt><trkpt lat="44.807835" lon="9.4896767"><ele>370.0</ele><time>2026-04-30T13:30:45.989Z</time></trkpt><trkpt lat="44.8077667" lon="9.48973"><ele>370.0</ele><time>2026-04-30T13:30:46.989Z</time></trkpt><trkpt lat="44.80769" lon="9.489775"><ele>370.0</ele><time>2026-04-30T13:30:47.992Z</time></trkpt><trkpt lat="44.8076017" lon="9.4898183"><ele>371.6</ele><time>2026-04-30T13:30:48.99Z</time></trkpt><trkpt lat="44.8075067" lon="9.48986"><ele>373.2</ele><time>2026-04-30T13:30:49.988Z</time></trkpt><trkpt lat="44.8074017" lon="9.4899"><ele>374.79999999999995</ele><time>2026-04-30T13:30:50.991Z</time></trkpt><trkpt lat="44.807295" lon="9.4899317"><ele>376.4</ele><time>2026-04-30T13:30:51.988Z</time></trkpt><trkpt lat="44.8071967" lon="9.489965"><ele>378.0</ele><time>2026-04-30T13:30:52.995Z</time></trkpt><trkpt lat="44.8070967" lon="9.49"><ele>378.0</ele><time>2026-04-30T13:30:53.988Z</time></trkpt><trkpt lat="44.8070067" lon="9.4900383"><ele>378.0</ele><time>2026-04-30T13:30:54.987Z</time></trkpt><trkpt lat="44.8069317" lon="9.4900833"><ele>378.0</ele><time>2026-04-30T13:30:55.988Z</time></trkpt><trkpt lat="44.80687" lon="9.4901467"><ele>378.0</ele><time>2026-04-30T13:30:56.989Z</time></trkpt><trkpt lat="44.8068283" lon="9.4902267"><ele>378.0</ele><time>2026-04-30T13:30:57.989Z</time></trkpt><trkpt lat="44.806785" lon="9.490325"><ele>378.0</ele><time>2026-04-30T13:30:58.988Z</time></trkpt><trkpt lat="44.806745" lon="9.4904383"><ele>378.59999999999997</ele><time>2026-04-30T13:30:59.989Z</time></trkpt><trkpt lat="44.806705" lon="9.4905617"><ele>379.2</ele><time>2026-04-30T13:31:00.99Z</time></trkpt><trkpt lat="44.8066533" lon="9.490685"><ele>379.8</ele><time>2026-04-30T13:31:01.988Z</time></trkpt><trkpt lat="44.8065983" lon="9.49079"><ele>380.4</ele><time>2026-04-30T13:31:02.988Z</time></trkpt><trkpt lat="44.806545" lon="9.4909117"><ele>381.0</ele><time>2026-04-30T13:31:03.987Z</time></trkpt><trkpt lat="44.8064817" lon="9.491025"><ele>381.0</ele><time>2026-04-30T13:31:04.988Z</time></trkpt><trkpt lat="44.806415" lon="9.49114"><ele>381.0</ele><time>2026-04-30T13:31:05.989Z</time></trkpt><trkpt lat="44.8063483" lon="9.4912533"><ele>381.0</ele><time>2026-04-30T13:31:06.988Z</time></trkpt><trkpt lat="44.8062933" lon="9.4913667"><ele>381.0</ele><time>2026-04-30T13:31:07.988Z</time></trkpt><trkpt lat="44.80623" lon="9.491475"><ele>381.0</ele><time>2026-04-30T13:31:08.989Z</time></trkpt><trkpt lat="44.806165" lon="9.4915633"><ele>381.0</ele><time>2026-04-30T13:31:09.988Z</time></trkpt><trkpt lat="44.80609" lon="9.49162"><ele>381.0</ele><time>2026-04-30T13:31:10.989Z</time></trkpt><trkpt lat="44.8060117" lon="9.4916683"><ele>381.0</ele><time>2026-04-30T13:31:11.993Z</time></trkpt><trkpt lat="44.8059467" lon="9.49169"><ele>381.0</ele><time>2026-04-30T13:31:12.988Z</time></trkpt><trkpt lat="44.8058817" lon="9.4916833"><ele>381.0</ele><time>2026-04-30T13:31:13.988Z</time></trkpt><trkpt lat="44.8058083" lon="9.4916467"><ele>381.0</ele><time>2026-04-30T13:31:14.988Z</time></trkpt><trkpt lat="44.805745" lon="9.4915967"><ele>381.0</ele><time>2026-04-30T13:31:15.988Z</time></trkpt><trkpt lat="44.80568" lon="9.4915383"><ele>381.0</ele><time>2026-04-30T13:31:16.986Z</time></trkpt><trkpt lat="44.8056183" lon="9.491485"><ele>381.0</ele><time>2026-04-30T13:31:17.988Z</time></trkpt><trkpt lat="44.8055633" lon="9.49144"><ele>381.0</ele><time>2026-04-30T13:31:18.987Z</time></trkpt><trkpt lat="44.805505" lon="9.491395"><ele>381.0</ele><time>2026-04-30T13:31:19.991Z</time></trkpt><trkpt lat="44.8054267" lon="9.4913533"><ele>381.0</ele><time>2026-04-30T13:31:20.987Z</time></trkpt><trkpt lat="44.80535" lon="9.49133"><ele>381.0</ele><time>2026-04-30T13:31:21.987Z</time></trkpt><trkpt lat="44.8052733" lon="9.4913383"><ele>381.0</ele><time>2026-04-30T13:31:22.987Z</time></trkpt><trkpt lat="44.805195" lon="9.4913683"><ele>381.0</ele><time>2026-04-30T13:31:23.988Z</time></trkpt><trkpt lat="44.8051283" lon="9.491415"><ele>381.0</ele><time>2026-04-30T13:31:24.99Z</time></trkpt><trkpt lat="44.8050667" lon="9.4914683"><ele>381.0</ele><time>2026-04-30T13:31:25.987Z</time></trkpt><trkpt lat="44.805" lon="9.49152"><ele>381.0</ele><time>2026-04-30T13:31:26.988Z</time></trkpt><trkpt lat="44.8049417" lon="9.49157"><ele>381.0</ele><time>2026-04-30T13:31:27.988Z</time></trkpt><trkpt lat="44.8048717" lon="9.4916533"><ele>382.6666666666667</ele><time>2026-04-30T13:31:29.99Z</time></trkpt><trkpt lat="44.804855" lon="9.4917667"><ele>384.33333333333337</ele><time>2026-04-30T13:31:31.992Z</time></trkpt><trkpt lat="44.8048633" lon="9.4919083"><ele>386.0</ele><time>2026-04-30T13:31:33.988Z</time></trkpt><trkpt lat="44.8048983" lon="9.4920383"><ele>387.6666666666667</ele><time>2026-04-30T13:31:35.989Z</time></trkpt><trkpt lat="44.8049567" lon="9.4920967"><ele>389.33333333333337</ele><time>2026-04-30T13:31:37.989Z</time></trkpt><trkpt lat="44.8050233" lon="9.4921133"><ele>391.0</ele><time>2026-04-30T13:31:38.989Z</time></trkpt><trkpt lat="44.80511" lon="9.492135"><ele>390.0</ele><time>2026-04-30T13:31:39.989Z</time></trkpt><trkpt lat="44.8051983" lon="9.4921633"><ele>389.0</ele><time>2026-04-30T13:31:40.988Z</time></trkpt><trkpt lat="44.8052867" lon="9.4921967"><ele>388.0</ele><time>2026-04-30T13:31:41.987Z</time></trkpt><trkpt lat="44.805375" lon="9.4922333"><ele>387.0</ele><time>2026-04-30T13:31:42.99Z</time></trkpt><trkpt lat="44.8054633" lon="9.49229"><ele>386.0</ele><time>2026-04-30T13:31:43.987Z</time></trkpt><trkpt lat="44.80554" lon="9.4923617"><ele>385.99999999999994</ele><time>2026-04-30T13:31:44.987Z</time></trkpt><trkpt lat="44.8055967" lon="9.4924417"><ele>386.0</ele><time>2026-04-30T13:31:45.987Z</time></trkpt><trkpt lat="44.8056633" lon="9.4925333"><ele>386.0</ele><time>2026-04-30T13:31:46.987Z</time></trkpt><trkpt lat="44.805735" lon="9.4926267"><ele>386.0</ele><time>2026-04-30T13:31:47.988Z</time></trkpt><trkpt lat="44.8058067" lon="9.4927033"><ele>385.99999999999994</ele><time>2026-04-30T13:31:48.988Z</time></trkpt><trkpt lat="44.8058667" lon="9.4927683"><ele>386.0</ele><time>2026-04-30T13:31:49.992Z</time></trkpt><trkpt lat="44.80594" lon="9.492835"><ele>385.8333333333333</ele><time>2026-04-30T13:31:50.988Z</time></trkpt><trkpt lat="44.8060017" lon="9.4929017"><ele>385.66666666666663</ele><time>2026-04-30T13:31:51.987Z</time></trkpt><trkpt lat="44.8060667" lon="9.492985"><ele>385.5</ele><time>2026-04-30T13:31:52.988Z</time></trkpt><trkpt lat="44.8061383" lon="9.493065"><ele>385.33333333333337</ele><time>2026-04-30T13:31:53.988Z</time></trkpt><trkpt lat="44.8062167" lon="9.4931383"><ele>385.1666666666667</ele><time>2026-04-30T13:31:54.99Z</time></trkpt><trkpt lat="44.8063" lon="9.49319"><ele>385.0</ele><time>2026-04-30T13:31:55.988Z</time></trkpt><trkpt lat="44.8063867" lon="9.49323"><ele>385.00000000000006</ele><time>2026-04-30T13:31:56.992Z</time></trkpt><trkpt lat="44.806465" lon="9.4932617"><ele>385.0</ele><time>2026-04-30T13:31:57.987Z</time></trkpt><trkpt lat="44.8065467" lon="9.493295"><ele>385.0</ele><time>2026-04-30T13:31:58.988Z</time></trkpt><trkpt lat="44.8066217" lon="9.4933417"><ele>385.0</ele><time>2026-04-30T13:31:59.987Z</time></trkpt><trkpt lat="44.8066917" lon="9.4933983"><ele>385.00000000000006</ele><time>2026-04-30T13:32:00.989Z</time></trkpt><trkpt lat="44.8067517" lon="9.4934733"><ele>385.0</ele><time>2026-04-30T13:32:01.988Z</time></trkpt><trkpt lat="44.8068133" lon="9.4935633"><ele>384.1666666666667</ele><time>2026-04-30T13:32:02.987Z</time></trkpt><trkpt lat="44.8068717" lon="9.4936467"><ele>383.33333333333337</ele><time>2026-04-30T13:32:03.988Z</time></trkpt><trkpt lat="44.8069317" lon="9.4937283"><ele>382.5</ele><time>2026-04-30T13:32:04.987Z</time></trkpt><trkpt lat="44.80698" lon="9.4938133"><ele>381.6666666666667</ele><time>2026-04-30T13:32:05.987Z</time></trkpt><trkpt lat="44.807015" lon="9.4939017"><ele>380.83333333333337</ele><time>2026-04-30T13:32:06.989Z</time></trkpt><trkpt lat="44.807045" lon="9.493995"><ele>380.0</ele><time>2026-04-30T13:32:07.989Z</time></trkpt><trkpt lat="44.8070717" lon="9.494095"><ele>380.0</ele><time>2026-04-30T13:32:08.989Z</time></trkpt><trkpt lat="44.8070967" lon="9.4941933"><ele>380.0</ele><time>2026-04-30T13:32:09.995Z</time></trkpt><trkpt lat="44.8071233" lon="9.49429"><ele>380.0</ele><time>2026-04-30T13:32:10.987Z</time></trkpt><trkpt lat="44.80716" lon="9.49439"><ele>380.0</ele><time>2026-04-30T13:32:11.988Z</time></trkpt><trkpt lat="44.8071983" lon="9.49448"><ele>380.0</ele><time>2026-04-30T13:32:12.988Z</time></trkpt><trkpt lat="44.8072367" lon="9.4945733"><ele>380.0</ele><time>2026-04-30T13:32:13.987Z</time></trkpt><trkpt lat="44.8072733" lon="9.4946633"><ele>380.6666666666667</ele><time>2026-04-30T13:32:14.994Z</time></trkpt><trkpt lat="44.8073283" lon="9.4947833"><ele>381.33333333333337</ele><time>2026-04-30T13:32:16.988Z</time></trkpt><trkpt lat="44.8073883" lon="9.49487"><ele>382.0</ele><time>2026-04-30T13:32:18.989Z</time></trkpt><trkpt lat="44.8074283" lon="9.4949433"><ele>382.6666666666667</ele><time>2026-04-30T13:32:19.988Z</time></trkpt><trkpt lat="44.8074667" lon="9.495035"><ele>383.3333333333333</ele><time>2026-04-30T13:32:20.989Z</time></trkpt><trkpt lat="44.8075033" lon="9.49512"><ele>384.0</ele><time>2026-04-30T13:32:21.988Z</time></trkpt><trkpt lat="44.807545" lon="9.4952083"><ele>384.0</ele><time>2026-04-30T13:32:22.988Z</time></trkpt><trkpt lat="44.80759" lon="9.4953033"><ele>384.0</ele><time>2026-04-30T13:32:23.988Z</time></trkpt><trkpt lat="44.8076333" lon="9.495395"><ele>384.0</ele><time>2026-04-30T13:32:24.989Z</time></trkpt><trkpt lat="44.8076733" lon="9.4954883"><ele>384.0</ele><time>2026-04-30T13:32:25.988Z</time></trkpt><trkpt lat="44.8077167" lon="9.4955933"><ele>384.0</ele><time>2026-04-30T13:32:26.989Z</time></trkpt><trkpt lat="44.8077617" lon="9.4956983"><ele>384.0</ele><time>2026-04-30T13:32:27.989Z</time></trkpt><trkpt lat="44.8078033" lon="9.495785"><ele>382.6666666666667</ele><time>2026-04-30T13:32:28.99Z</time></trkpt><trkpt lat="44.807835" lon="9.4958683"><ele>381.3333333333333</ele><time>2026-04-30T13:32:29.988Z</time></trkpt><trkpt lat="44.8078667" lon="9.495945"><ele>380.0</ele><time>2026-04-30T13:32:30.991Z</time></trkpt><trkpt lat="44.8079583" lon="9.496055"><ele>378.66666666666663</ele><time>2026-04-30T13:32:32.989Z</time></trkpt><trkpt lat="44.8080283" lon="9.496085"><ele>377.3333333333333</ele><time>2026-04-30T13:32:33.987Z</time></trkpt><trkpt lat="44.8081083" lon="9.4961067"><ele>376.0</ele><time>2026-04-30T13:32:34.988Z</time></trkpt><trkpt lat="44.8081867" lon="9.4961233"><ele>376.0</ele><time>2026-04-30T13:32:35.988Z</time></trkpt><trkpt lat="44.80828" lon="9.4961433"><ele>376.0</ele><time>2026-04-30T13:32:36.989Z</time></trkpt><trkpt lat="44.808355" lon="9.4961817"><ele>376.0</ele><time>2026-04-30T13:32:37.988Z</time></trkpt><trkpt lat="44.8084183" lon="9.4962283"><ele>376.0</ele><time>2026-04-30T13:32:38.987Z</time></trkpt><trkpt lat="44.8084833" lon="9.49628"><ele>376.0</ele><time>2026-04-30T13:32:39.99Z</time></trkpt><trkpt lat="44.8085433" lon="9.4963283"><ele>376.0</ele><time>2026-04-30T13:32:40.989Z</time></trkpt><trkpt lat="44.8085983" lon="9.4963817"><ele>374.0</ele><time>2026-04-30T13:32:41.987Z</time></trkpt><trkpt lat="44.8086533" lon="9.49643"><ele>372.0</ele><time>2026-04-30T13:32:42.987Z</time></trkpt><trkpt lat="44.80871" lon="9.49649"><ele>370.0</ele><time>2026-04-30T13:32:43.986Z</time></trkpt><trkpt lat="44.80878" lon="9.4965733"><ele>368.0</ele><time>2026-04-30T13:32:44.988Z</time></trkpt><trkpt lat="44.8088483" lon="9.4966533"><ele>366.0</ele><time>2026-04-30T13:32:45.988Z</time></trkpt><trkpt lat="44.808925" lon="9.4967333"><ele>364.0</ele><time>2026-04-30T13:32:46.988Z</time></trkpt><trkpt lat="44.808995" lon="9.496805"><ele>364.0</ele><time>2026-04-30T13:32:47.988Z</time></trkpt><trkpt lat="44.8090567" lon="9.4968817"><ele>364.0</ele><time>2026-04-30T13:32:48.994Z</time></trkpt><trkpt lat="44.8091067" lon="9.49697"><ele>364.0</ele><time>2026-04-30T13:32:49.986Z</time></trkpt><trkpt lat="44.8091533" lon="9.49706"><ele>364.0</ele><time>2026-04-30T13:32:50.987Z</time></trkpt><trkpt lat="44.809205" lon="9.49713"><ele>364.0</ele><time>2026-04-30T13:32:51.986Z</time></trkpt><trkpt lat="44.8093083" lon="9.49723"><ele>364.0</ele><time>2026-04-30T13:32:53.99Z</time></trkpt><trkpt lat="44.8093617" lon="9.497285"><ele>362.5</ele><time>2026-04-30T13:32:54.988Z</time></trkpt><trkpt lat="44.80941" lon="9.49735"><ele>361.0</ele><time>2026-04-30T13:32:55.988Z</time></trkpt><trkpt lat="44.8094567" lon="9.4974117"><ele>359.5</ele><time>2026-04-30T13:32:56.987Z</time></trkpt><trkpt lat="44.8095433" lon="9.497505"><ele>358.0</ele><time>2026-04-30T13:32:58.988Z</time></trkpt><trkpt lat="44.8096517" lon="9.4975767"><ele>356.5</ele><time>2026-04-30T13:33:00.995Z</time></trkpt><trkpt lat="44.8097167" lon="9.4976117"><ele>355.0</ele><time>2026-04-30T13:33:01.987Z</time></trkpt><trkpt lat="44.8097917" lon="9.497645"><ele>355.0</ele><time>2026-04-30T13:33:02.988Z</time></trkpt><trkpt lat="44.8098617" lon="9.4976833"><ele>355.0</ele><time>2026-04-30T13:33:03.989Z</time></trkpt><trkpt lat="44.8099283" lon="9.4977267"><ele>355.0</ele><time>2026-04-30T13:33:04.988Z</time></trkpt><trkpt lat="44.8099983" lon="9.49777"><ele>355.0</ele><time>2026-04-30T13:33:05.988Z</time></trkpt><trkpt lat="44.81007" lon="9.49781"><ele>355.0</ele><time>2026-04-30T13:33:06.993Z</time></trkpt><trkpt lat="44.8101533" lon="9.49785"><ele>355.0</ele><time>2026-04-30T13:33:07.987Z</time></trkpt><trkpt lat="44.81025" lon="9.4978917"><ele>355.6</ele><time>2026-04-30T13:33:08.989Z</time></trkpt><trkpt lat="44.8103467" lon="9.4979367"><ele>356.2</ele><time>2026-04-30T13:33:09.987Z</time></trkpt><trkpt lat="44.8104417" lon="9.4979867"><ele>356.79999999999995</ele><time>2026-04-30T13:33:10.988Z</time></trkpt><trkpt lat="44.8105383" lon="9.4980383"><ele>357.4</ele><time>2026-04-30T13:33:11.987Z</time></trkpt><trkpt lat="44.810635" lon="9.498095"><ele>358.0</ele><time>2026-04-30T13:33:12.989Z</time></trkpt><trkpt lat="44.8107267" lon="9.498155"><ele>358.0</ele><time>2026-04-30T13:33:13.992Z</time></trkpt><trkpt lat="44.810815" lon="9.4982167"><ele>358.0</ele><time>2026-04-30T13:33:14.987Z</time></trkpt><trkpt lat="44.8108983" lon="9.4982783"><ele>358.0</ele><time>2026-04-30T13:33:15.987Z</time></trkpt><trkpt lat="44.810975" lon="9.4983433"><ele>358.0</ele><time>2026-04-30T13:33:16.992Z</time></trkpt><trkpt lat="44.811055" lon="9.498415"><ele>358.0</ele><time>2026-04-30T13:33:17.988Z</time></trkpt><trkpt lat="44.8111433" lon="9.4984867"><ele>355.79999999999995</ele><time>2026-04-30T13:33:18.993Z</time></trkpt><trkpt lat="44.8112382" lon="9.4985518"><ele>353.6</ele><time>2026-04-30T13:33:19.987Z</time></trkpt><trkpt lat="44.8113373" lon="9.4986115"><ele>351.4</ele><time>2026-04-30T13:33:20.988Z</time></trkpt><trkpt lat="44.8114329" lon="9.4986488"><ele>349.20000000000005</ele><time>2026-04-30T13:33:21.988Z</time></trkpt><trkpt lat="44.8115248" lon="9.4986661"><ele>347.0</ele><time>2026-04-30T13:33:22.987Z</time></trkpt><trkpt lat="44.8116096" lon="9.4986794"><ele>347.0</ele><time>2026-04-30T13:33:23.993Z</time></trkpt><trkpt lat="44.8116928" lon="9.4987056"><ele>347.0</ele><time>2026-04-30T13:33:24.987Z</time></trkpt><trkpt lat="44.8117757" lon="9.4987399"><ele>347.0</ele><time>2026-04-30T13:33:25.987Z</time></trkpt><trkpt lat="44.8118545" lon="9.4987773"><ele>347.0</ele><time>2026-04-30T13:33:26.989Z</time></trkpt><trkpt lat="44.8119341" lon="9.4988176"><ele>347.0</ele><time>2026-04-30T13:33:27.987Z</time></trkpt><trkpt lat="44.8120139" lon="9.4988573"><ele>347.0</ele><time>2026-04-30T13:33:28.992Z</time></trkpt><trkpt lat="44.812095" lon="9.4988961"><ele>347.83333333333337</ele><time>2026-04-30T13:33:29.987Z</time></trkpt><trkpt lat="44.8121767" lon="9.4989352"><ele>348.6666666666667</ele><time>2026-04-30T13:33:30.989Z</time></trkpt><trkpt lat="44.8122608" lon="9.4989708"><ele>349.5</ele><time>2026-04-30T13:33:31.987Z</time></trkpt><trkpt lat="44.8123447" lon="9.498998"><ele>350.3333333333333</ele><time>2026-04-30T13:33:32.987Z</time></trkpt><trkpt lat="44.8124245" lon="9.4990162"><ele>351.16666666666663</ele><time>2026-04-30T13:33:33.989Z</time></trkpt><trkpt lat="44.8124995" lon="9.4990258"><ele>352.0</ele><time>2026-04-30T13:33:34.988Z</time></trkpt><trkpt lat="44.812568" lon="9.499024"><ele>349.5</ele><time>2026-04-30T13:33:35.987Z</time></trkpt><trkpt lat="44.8126875" lon="9.4990133"><ele>347.0</ele><time>2026-04-30T13:33:37.991Z</time></trkpt><trkpt lat="44.8127598" lon="9.4989986"><ele>344.5</ele><time>2026-04-30T13:33:40.988Z</time></trkpt><trkpt lat="44.812837" lon="9.4989663"><ele>342.0</ele><time>2026-04-30T13:33:42.987Z</time></trkpt><trkpt lat="44.8129248" lon="9.4989009"><ele>339.5</ele><time>2026-04-30T13:33:44.99Z</time></trkpt><trkpt lat="44.812985" lon="9.4988655"><ele>337.0</ele><time>2026-04-30T13:33:45.987Z</time></trkpt><trkpt lat="44.8130516" lon="9.4988296"><ele>337.0</ele><time>2026-04-30T13:33:46.989Z</time></trkpt><trkpt lat="44.8131295" lon="9.4987973"><ele>337.0</ele><time>2026-04-30T13:33:47.987Z</time></trkpt><trkpt lat="44.8132198" lon="9.4987729"><ele>337.0</ele><time>2026-04-30T13:33:48.99Z</time></trkpt><trkpt lat="44.8133169" lon="9.4987605"><ele>337.0</ele><time>2026-04-30T13:33:49.988Z</time></trkpt><trkpt lat="44.8134164" lon="9.4987519"><ele>337.0</ele><time>2026-04-30T13:33:50.987Z</time></trkpt><trkpt lat="44.8135133" lon="9.49874"><ele>335.66666666666663</ele><time>2026-04-30T13:33:51.987Z</time></trkpt><trkpt lat="44.8135983" lon="9.4987283"><ele>334.3333333333333</ele><time>2026-04-30T13:33:52.988Z</time></trkpt><trkpt lat="44.8136733" lon="9.4987183"><ele>333.0</ele><time>2026-04-30T13:33:53.992Z</time></trkpt><trkpt lat="44.8137483" lon="9.4987067"><ele>331.6666666666667</ele><time>2026-04-30T13:33:54.987Z</time></trkpt><trkpt lat="44.8138233" lon="9.4986967"><ele>330.33333333333337</ele><time>2026-04-30T13:33:55.99Z</time></trkpt><trkpt lat="44.8138967" lon="9.4986933"><ele>329.0</ele><time>2026-04-30T13:33:56.991Z</time></trkpt><trkpt lat="44.81397" lon="9.4986917"><ele>329.0</ele><time>2026-04-30T13:33:57.987Z</time></trkpt><trkpt lat="44.8140383" lon="9.49869"><ele>329.0</ele><time>2026-04-30T13:33:58.988Z</time></trkpt><trkpt lat="44.81411" lon="9.4986883"><ele>329.0</ele><time>2026-04-30T13:33:59.99Z</time></trkpt><trkpt lat="44.8141817" lon="9.498685"><ele>329.0</ele><time>2026-04-30T13:34:00.989Z</time></trkpt><trkpt lat="44.8142533" lon="9.4986883"><ele>329.0</ele><time>2026-04-30T13:34:01.99Z</time></trkpt><trkpt lat="44.814325" lon="9.4986967"><ele>329.0</ele><time>2026-04-30T13:34:02.991Z</time></trkpt><trkpt lat="44.8144083" lon="9.4987083"><ele>329.0</ele><time>2026-04-30T13:34:03.988Z</time></trkpt><trkpt lat="44.8144983" lon="9.4987217"><ele>327.2</ele><time>2026-04-30T13:34:04.988Z</time></trkpt><trkpt lat="44.81459" lon="9.4987367"><ele>325.4</ele><time>2026-04-30T13:34:05.996Z</time></trkpt><trkpt lat="44.81468" lon="9.4987517"><ele>323.6</ele><time>2026-04-30T13:34:06.988Z</time></trkpt><trkpt lat="44.814775" lon="9.4987667"><ele>321.8</ele><time>2026-04-30T13:34:07.988Z</time></trkpt><trkpt lat="44.8148733" lon="9.4987867"><ele>320.0</ele><time>2026-04-30T13:34:08.988Z</time></trkpt><trkpt lat="44.8149733" lon="9.4988067"><ele>320.0</ele><time>2026-04-30T13:34:09.99Z</time></trkpt><trkpt lat="44.8150717" lon="9.4988267"><ele>320.0</ele><time>2026-04-30T13:34:10.987Z</time></trkpt><trkpt lat="44.815165" lon="9.4988433"><ele>320.0</ele><time>2026-04-30T13:34:11.987Z</time></trkpt><trkpt lat="44.8152567" lon="9.4988717"><ele>320.0</ele><time>2026-04-30T13:34:12.991Z</time></trkpt><trkpt lat="44.815345" lon="9.4989183"><ele>320.0</ele><time>2026-04-30T13:34:13.988Z</time></trkpt><trkpt lat="44.8154233" lon="9.4989883"><ele>317.4</ele><time>2026-04-30T13:34:14.988Z</time></trkpt><trkpt lat="44.8154917" lon="9.4990833"><ele>314.8</ele><time>2026-04-30T13:34:15.988Z</time></trkpt><trkpt lat="44.815545" lon="9.4991917"><ele>312.2</ele><time>2026-04-30T13:34:16.987Z</time></trkpt><trkpt lat="44.8155983" lon="9.4993"><ele>309.6</ele><time>2026-04-30T13:34:17.989Z</time></trkpt><trkpt lat="44.8156617" lon="9.4993883"><ele>307.0</ele><time>2026-04-30T13:34:18.987Z</time></trkpt><trkpt lat="44.81573" lon="9.4994533"><ele>306.99999999999994</ele><time>2026-04-30T13:34:19.993Z</time></trkpt><trkpt lat="44.8157933" lon="9.4995133"><ele>307.0</ele><time>2026-04-30T13:34:20.99Z</time></trkpt><trkpt lat="44.815845" lon="9.499595"><ele>307.0</ele><time>2026-04-30T13:34:21.988Z</time></trkpt><trkpt lat="44.8158883" lon="9.4996833"><ele>307.0</ele><time>2026-04-30T13:34:22.989Z</time></trkpt><trkpt lat="44.8159367" lon="9.4997533"><ele>307.0</ele><time>2026-04-30T13:34:23.988Z</time></trkpt><trkpt lat="44.815995" lon="9.4997917"><ele>306.99999999999994</ele><time>2026-04-30T13:34:24.988Z</time></trkpt><trkpt lat="44.8160683" lon="9.4998117"><ele>307.0</ele><time>2026-04-30T13:34:25.988Z</time></trkpt><trkpt lat="44.81615" lon="9.4998367"><ele>305.0</ele><time>2026-04-30T13:34:26.987Z</time></trkpt><trkpt lat="44.8162317" lon="9.499875"><ele>303.0</ele><time>2026-04-30T13:34:27.988Z</time></trkpt><trkpt lat="44.8163067" lon="9.499935"><ele>301.0</ele><time>2026-04-30T13:34:28.989Z</time></trkpt><trkpt lat="44.8163733" lon="9.4999983"><ele>299.0</ele><time>2026-04-30T13:34:29.99Z</time></trkpt><trkpt lat="44.8164367" lon="9.5000567"><ele>297.0</ele><time>2026-04-30T13:34:30.993Z</time></trkpt><trkpt lat="44.8165017" lon="9.5000983"><ele>295.0</ele><time>2026-04-30T13:34:31.99Z</time></trkpt><trkpt lat="44.8165683" lon="9.5001233"><ele>295.0</ele><time>2026-04-30T13:34:32.989Z</time></trkpt><trkpt lat="44.816635" lon="9.5001133"><ele>295.0</ele><time>2026-04-30T13:34:33.989Z</time></trkpt><trkpt lat="44.8167083" lon="9.5000567"><ele>295.0</ele><time>2026-04-30T13:34:34.992Z</time></trkpt><trkpt lat="44.8167917" lon="9.4999767"><ele>295.0</ele><time>2026-04-30T13:34:35.989Z</time></trkpt><trkpt lat="44.8168817" lon="9.4999067"><ele>295.0</ele><time>2026-04-30T13:34:36.991Z</time></trkpt><trkpt lat="44.81697" lon="9.4998417"><ele>291.66666666666663</ele><time>2026-04-30T13:34:37.989Z</time></trkpt><trkpt lat="44.8170467" lon="9.4997867"><ele>288.3333333333333</ele><time>2026-04-30T13:34:38.989Z</time></trkpt><trkpt lat="44.8171167" lon="9.4997283"><ele>285.0</ele><time>2026-04-30T13:34:39.989Z</time></trkpt><trkpt lat="44.8171967" lon="9.499695"><ele>281.6666666666667</ele><time>2026-04-30T13:34:40.99Z</time></trkpt><trkpt lat="44.8172933" lon="9.499685"><ele>278.33333333333337</ele><time>2026-04-30T13:34:41.994Z</time></trkpt><trkpt lat="44.8173933" lon="9.4997"><ele>275.0</ele><time>2026-04-30T13:34:42.989Z</time></trkpt><trkpt lat="44.817495" lon="9.499725"><ele>275.0</ele><time>2026-04-30T13:34:43.989Z</time></trkpt><trkpt lat="44.8176" lon="9.499755"><ele>275.0</ele><time>2026-04-30T13:34:44.989Z</time></trkpt><trkpt lat="44.8177067" lon="9.4997833"><ele>275.0</ele><time>2026-04-30T13:34:45.986Z</time></trkpt><trkpt lat="44.8178133" lon="9.4998233"><ele>275.0</ele><time>2026-04-30T13:34:46.989Z</time></trkpt><trkpt lat="44.81791" lon="9.4998633"><ele>275.0</ele><time>2026-04-30T13:34:47.989Z</time></trkpt><trkpt lat="44.818005" lon="9.4998917"><ele>272.6</ele><time>2026-04-30T13:34:48.991Z</time></trkpt><trkpt lat="44.8181017" lon="9.499905"><ele>270.2</ele><time>2026-04-30T13:34:49.989Z</time></trkpt><trkpt lat="44.8181983" lon="9.4999033"><ele>267.8</ele><time>2026-04-30T13:34:50.987Z</time></trkpt><trkpt lat="44.8182967" lon="9.4999033"><ele>265.4</ele><time>2026-04-30T13:34:51.988Z</time></trkpt><trkpt lat="44.8183933" lon="9.4998967"><ele>263.0</ele><time>2026-04-30T13:34:52.987Z</time></trkpt><trkpt lat="44.8184883" lon="9.499885"><ele>259.8</ele><time>2026-04-30T13:34:53.996Z</time></trkpt><trkpt lat="44.8185817" lon="9.49988"><ele>256.6</ele><time>2026-04-30T13:34:54.99Z</time></trkpt><trkpt lat="44.8186783" lon="9.4998867"><ele>253.39999999999998</ele><time>2026-04-30T13:34:55.988Z</time></trkpt><trkpt lat="44.8187767" lon="9.49991"><ele>250.2</ele><time>2026-04-30T13:34:56.989Z</time></trkpt><trkpt lat="44.8188733" lon="9.4999483"><ele>247.0</ele><time>2026-04-30T13:34:57.988Z</time></trkpt><trkpt lat="44.81896" lon="9.4999967"><ele>247.0</ele><time>2026-04-30T13:34:58.988Z</time></trkpt><trkpt lat="44.8190367" lon="9.5000367"><ele>247.0</ele><time>2026-04-30T13:34:59.988Z</time></trkpt><trkpt lat="44.8191033" lon="9.5000567"><ele>247.0</ele><time>2026-04-30T13:35:00.995Z</time></trkpt><trkpt lat="44.8191817" lon="9.5000533"><ele>247.0</ele><time>2026-04-30T13:35:01.988Z</time></trkpt><trkpt lat="44.8192633" lon="9.5000417"><ele>247.0</ele><time>2026-04-30T13:35:02.987Z</time></trkpt><trkpt lat="44.8193317" lon="9.500035"><ele>247.0</ele><time>2026-04-30T13:35:03.987Z</time></trkpt><trkpt lat="44.819395" lon="9.5000767"><ele>247.0</ele><time>2026-04-30T13:35:05.988Z</time></trkpt><trkpt lat="44.819415" lon="9.5002033"><ele>244.33333333333331</ele><time>2026-04-30T13:35:07.988Z</time></trkpt><trkpt lat="44.8193983" lon="9.500305"><ele>241.66666666666666</ele><time>2026-04-30T13:35:08.988Z</time></trkpt><trkpt lat="44.819355" lon="9.5004083"><ele>239.0</ele><time>2026-04-30T13:35:09.989Z</time></trkpt><trkpt lat="44.8193083" lon="9.5005067"><ele>236.33333333333331</ele><time>2026-04-30T13:35:10.99Z</time></trkpt><trkpt lat="44.8192783" lon="9.5006033"><ele>233.66666666666666</ele><time>2026-04-30T13:35:11.989Z</time></trkpt><trkpt lat="44.8192833" lon="9.5007683"><ele>231.0</ele><time>2026-04-30T13:35:13.987Z</time></trkpt><trkpt lat="44.8193633" lon="9.5008983"><ele>227.4</ele><time>2026-04-30T13:35:15.994Z</time></trkpt><trkpt lat="44.8194483" lon="9.50101"><ele>223.8</ele><time>2026-04-30T13:35:17.99Z</time></trkpt><trkpt lat="44.8195133" lon="9.5011433"><ele>220.20000000000002</ele><time>2026-04-30T13:35:19.989Z</time></trkpt><trkpt lat="44.81957" lon="9.501255"><ele>216.60000000000002</ele><time>2026-04-30T13:35:21.988Z</time></trkpt><trkpt lat="44.81962" lon="9.50135"><ele>213.0</ele><time>2026-04-30T13:35:24.988Z</time></trkpt><trkpt lat="44.8196617" lon="9.5014717"><ele>211.83333333333334</ele><time>2026-04-30T13:35:27.99Z</time></trkpt><trkpt lat="44.8197133" lon="9.5015767"><ele>210.66666666666669</ele><time>2026-04-30T13:35:29.989Z</time></trkpt><trkpt lat="44.8197483" lon="9.50166"><ele>209.5</ele><time>2026-04-30T13:35:31.989Z</time></trkpt><trkpt lat="44.8197233" lon="9.50177"><ele>208.33333333333334</ele><time>2026-04-30T13:35:33.988Z</time></trkpt><trkpt lat="44.81968" lon="9.5018417"><ele>207.16666666666669</ele><time>2026-04-30T13:35:34.987Z</time></trkpt><trkpt lat="44.8196383" lon="9.5019467"><ele>206.0</ele><time>2026-04-30T13:35:35.988Z</time></trkpt><trkpt lat="44.8196117" lon="9.502085"><ele>205.8</ele><time>2026-04-30T13:35:36.988Z</time></trkpt><trkpt lat="44.8196217" lon="9.5022383"><ele>205.60000000000002</ele><time>2026-04-30T13:35:37.994Z</time></trkpt><trkpt lat="44.819655" lon="9.5023833"><ele>205.4</ele><time>2026-04-30T13:35:38.988Z</time></trkpt><trkpt lat="44.8196983" lon="9.5025133"><ele>205.2</ele><time>2026-04-30T13:35:39.989Z</time></trkpt><trkpt lat="44.81974" lon="9.50263"><ele>205.0</ele><time>2026-04-30T13:35:40.987Z</time></trkpt><trkpt lat="44.8197783" lon="9.5027417"><ele>204.99999999999997</ele><time>2026-04-30T13:35:41.987Z</time></trkpt><trkpt lat="44.8198133" lon="9.502845"><ele>205.0</ele><time>2026-04-30T13:35:42.988Z</time></trkpt><trkpt lat="44.81985" lon="9.5029417"><ele>205.0</ele><time>2026-04-30T13:35:43.987Z</time></trkpt><trkpt lat="44.81988" lon="9.5030367"><ele>205.0</ele><time>2026-04-30T13:35:44.993Z</time></trkpt><trkpt lat="44.819905" lon="9.5031267"><ele>204.99999999999997</ele><time>2026-04-30T13:35:45.988Z</time></trkpt><trkpt lat="44.819945" lon="9.5032583"><ele>205.0</ele><time>2026-04-30T13:35:47.988Z</time></trkpt><trkpt lat="44.8199517" lon="9.5033483"><ele>204.0</ele><time>2026-04-30T13:35:50.989Z</time></trkpt></trkseg></trk></gpx>